<?xml version="1.0" encoding="UTF-8"?><gpx version="1.1" creator="Exported from Strava via extension e-ivanov.ru"  xsi:schemaLocation="http://www.topografix.com/GPX/1/1 http://www.topografix.com/GPX/1/1/gpx.xsd http://www.garmin.com/xmlschemas/GpxExtensions/v3 http://www.garmin.com/xmlschemas/GpxExtensionsv3.xsd http://www.garmin.com/xmlschemas/TrackPointExtension/v1 http://www.garmin.com/xmlschemas/TrackPointExtensionv1.xsd"  xmlns="http://www.topografix.com/GPX/1/1"  xmlns:gpxtpx="http://www.garmin.com/xmlschemas/TrackPointExtension/v1"  xmlns:gpxx="http://www.garmin.com/xmlschemas/GpxExtensions/v3" xmlns:xsi="http://www.w3.org/2001/XMLSchema-instance"><metadata><link href="http://e-ivanov.ru/projects/strava-export-gpx/"><text>Strava gpx export</text></link><time>2022-05-08T10:54:12.866Z</time></metadata><trk><name>RR/22 - 11 Posterholt | Ride | Strava</name><trkseg><trkpt lon="5.742275" lat="51.144947"><ele>20.8</ele><time>2022-05-08T06:00:00.000Z</time></trkpt><trkpt lon="5.742333" lat="51.144951"><ele>20.8</ele><time>2022-05-08T06:00:01.000Z</time></trkpt><trkpt lon="5.74239" lat="51.144953"><ele>20.8</ele><time>2022-05-08T06:00:02.000Z</time></trkpt><trkpt lon="5.742438" lat="51.144959"><ele>20.8</ele><time>2022-05-08T06:00:03.000Z</time></trkpt><trkpt lon="5.742484" lat="51.144971"><ele>20.8</ele><time>2022-05-08T06:00:04.000Z</time></trkpt><trkpt lon="5.742517" lat="51.144986"><ele>20.8</ele><time>2022-05-08T06:00:05.000Z</time></trkpt><trkpt lon="5.742536" lat="51.145002"><ele>21</ele><time>2022-05-08T06:00:06.000Z</time></trkpt><trkpt lon="5.742544" lat="51.145017"><ele>21</ele><time>2022-05-08T06:00:07.000Z</time></trkpt><trkpt lon="5.742542" lat="51.145032"><ele>21</ele><time>2022-05-08T06:00:08.000Z</time></trkpt><trkpt lon="5.742534" lat="51.145049"><ele>21</ele><time>2022-05-08T06:00:09.000Z</time></trkpt><trkpt lon="5.742521" lat="51.145073"><ele>21</ele><time>2022-05-08T06:00:10.000Z</time></trkpt><trkpt lon="5.742501" lat="51.145102"><ele>20.8</ele><time>2022-05-08T06:00:11.000Z</time></trkpt><trkpt lon="5.742476" lat="51.145135"><ele>20.8</ele><time>2022-05-08T06:00:12.000Z</time></trkpt><trkpt lon="5.742447" lat="51.145169"><ele>21</ele><time>2022-05-08T06:00:13.000Z</time></trkpt><trkpt lon="5.742415" lat="51.145202"><ele>21</ele><time>2022-05-08T06:00:14.000Z</time></trkpt><trkpt lon="5.742381" lat="51.145237"><ele>21</ele><time>2022-05-08T06:00:15.000Z</time></trkpt><trkpt lon="5.742344" lat="51.14527"><ele>21</ele><time>2022-05-08T06:00:16.000Z</time></trkpt><trkpt lon="5.742306" lat="51.1453"><ele>21.2</ele><time>2022-05-08T06:00:17.000Z</time></trkpt><trkpt lon="5.742269" lat="51.145329"><ele>21.2</ele><time>2022-05-08T06:00:18.000Z</time></trkpt><trkpt lon="5.742239" lat="51.145355"><ele>21.2</ele><time>2022-05-08T06:00:19.000Z</time></trkpt><trkpt lon="5.742214" lat="51.14538"><ele>21.2</ele><time>2022-05-08T06:00:20.000Z</time></trkpt><trkpt lon="5.742194" lat="51.145403"><ele>21.2</ele><time>2022-05-08T06:00:21.000Z</time></trkpt><trkpt lon="5.742179" lat="51.14543"><ele>21.2</ele><time>2022-05-08T06:00:22.000Z</time></trkpt><trkpt lon="5.742172" lat="51.145459"><ele>21.2</ele><time>2022-05-08T06:00:23.000Z</time></trkpt><trkpt lon="5.742184" lat="51.145485"><ele>21.2</ele><time>2022-05-08T06:00:24.000Z</time></trkpt><trkpt lon="5.742214" lat="51.145509"><ele>21.2</ele><time>2022-05-08T06:00:25.000Z</time></trkpt><trkpt lon="5.742262" lat="51.14553"><ele>21</ele><time>2022-05-08T06:00:26.000Z</time></trkpt><trkpt lon="5.742326" lat="51.145547"><ele>21</ele><time>2022-05-08T06:00:27.000Z</time></trkpt><trkpt lon="5.742393" lat="51.145562"><ele>21</ele><time>2022-05-08T06:00:28.000Z</time></trkpt><trkpt lon="5.742465" lat="51.145573"><ele>20.8</ele><time>2022-05-08T06:00:29.000Z</time></trkpt><trkpt lon="5.742543" lat="51.145585"><ele>20.6</ele><time>2022-05-08T06:00:30.000Z</time></trkpt><trkpt lon="5.742624" lat="51.145598"><ele>20.8</ele><time>2022-05-08T06:00:31.000Z</time></trkpt><trkpt lon="5.742707" lat="51.145612"><ele>20.8</ele><time>2022-05-08T06:00:32.000Z</time></trkpt><trkpt lon="5.742788" lat="51.145625"><ele>20.8</ele><time>2022-05-08T06:00:33.000Z</time></trkpt><trkpt lon="5.742869" lat="51.145637"><ele>20.8</ele><time>2022-05-08T06:00:34.000Z</time></trkpt><trkpt lon="5.742949" lat="51.145648"><ele>20.8</ele><time>2022-05-08T06:00:35.000Z</time></trkpt><trkpt lon="5.743033" lat="51.145657"><ele>20.8</ele><time>2022-05-08T06:00:36.000Z</time></trkpt><trkpt lon="5.74312" lat="51.145667"><ele>21</ele><time>2022-05-08T06:00:37.000Z</time></trkpt><trkpt lon="5.743209" lat="51.145676"><ele>20.8</ele><time>2022-05-08T06:00:38.000Z</time></trkpt><trkpt lon="5.743303" lat="51.145679"><ele>20.8</ele><time>2022-05-08T06:00:39.000Z</time></trkpt><trkpt lon="5.743397" lat="51.145682"><ele>20.8</ele><time>2022-05-08T06:00:40.000Z</time></trkpt><trkpt lon="5.743488" lat="51.145681"><ele>20.8</ele><time>2022-05-08T06:00:41.000Z</time></trkpt><trkpt lon="5.74358" lat="51.145677"><ele>20.8</ele><time>2022-05-08T06:00:42.000Z</time></trkpt><trkpt lon="5.743671" lat="51.145673"><ele>21</ele><time>2022-05-08T06:00:43.000Z</time></trkpt><trkpt lon="5.743764" lat="51.145672"><ele>21</ele><time>2022-05-08T06:00:44.000Z</time></trkpt><trkpt lon="5.743858" lat="51.14567"><ele>21</ele><time>2022-05-08T06:00:45.000Z</time></trkpt><trkpt lon="5.743953" lat="51.145664"><ele>21</ele><time>2022-05-08T06:00:46.000Z</time></trkpt><trkpt lon="5.744048" lat="51.145656"><ele>21</ele><time>2022-05-08T06:00:47.000Z</time></trkpt><trkpt lon="5.744145" lat="51.145648"><ele>21</ele><time>2022-05-08T06:00:48.000Z</time></trkpt><trkpt lon="5.744243" lat="51.145638"><ele>21</ele><time>2022-05-08T06:00:49.000Z</time></trkpt><trkpt lon="5.744341" lat="51.145629"><ele>20.8</ele><time>2022-05-08T06:00:50.000Z</time></trkpt><trkpt lon="5.744441" lat="51.145619"><ele>21</ele><time>2022-05-08T06:00:51.000Z</time></trkpt><trkpt lon="5.744539" lat="51.14561"><ele>21</ele><time>2022-05-08T06:00:52.000Z</time></trkpt><trkpt lon="5.744634" lat="51.145603"><ele>21</ele><time>2022-05-08T06:00:53.000Z</time></trkpt><trkpt lon="5.744728" lat="51.145595"><ele>21</ele><time>2022-05-08T06:00:54.000Z</time></trkpt><trkpt lon="5.744824" lat="51.145585"><ele>20.8</ele><time>2022-05-08T06:00:55.000Z</time></trkpt><trkpt lon="5.74492" lat="51.145576"><ele>20.8</ele><time>2022-05-08T06:00:56.000Z</time></trkpt><trkpt lon="5.745017" lat="51.145568"><ele>20.8</ele><time>2022-05-08T06:00:57.000Z</time></trkpt><trkpt lon="5.745114" lat="51.145561"><ele>20.8</ele><time>2022-05-08T06:00:58.000Z</time></trkpt><trkpt lon="5.745209" lat="51.145551"><ele>20.8</ele><time>2022-05-08T06:00:59.000Z</time></trkpt><trkpt lon="5.745305" lat="51.145542"><ele>20.8</ele><time>2022-05-08T06:01:00.000Z</time></trkpt><trkpt lon="5.745403" lat="51.145534"><ele>20.8</ele><time>2022-05-08T06:01:01.000Z</time></trkpt><trkpt lon="5.745503" lat="51.145524"><ele>20.8</ele><time>2022-05-08T06:01:02.000Z</time></trkpt><trkpt lon="5.745606" lat="51.145515"><ele>20.8</ele><time>2022-05-08T06:01:03.000Z</time></trkpt><trkpt lon="5.745709" lat="51.145505"><ele>20.8</ele><time>2022-05-08T06:01:04.000Z</time></trkpt><trkpt lon="5.74581" lat="51.145494"><ele>20.8</ele><time>2022-05-08T06:01:05.000Z</time></trkpt><trkpt lon="5.745914" lat="51.145484"><ele>20.6</ele><time>2022-05-08T06:01:06.000Z</time></trkpt><trkpt lon="5.746016" lat="51.145477"><ele>20.6</ele><time>2022-05-08T06:01:07.000Z</time></trkpt><trkpt lon="5.746115" lat="51.145467"><ele>20.6</ele><time>2022-05-08T06:01:08.000Z</time></trkpt><trkpt lon="5.746215" lat="51.145458"><ele>20.8</ele><time>2022-05-08T06:01:09.000Z</time></trkpt><trkpt lon="5.746314" lat="51.14545"><ele>20.8</ele><time>2022-05-08T06:01:10.000Z</time></trkpt><trkpt lon="5.746411" lat="51.14544"><ele>20.6</ele><time>2022-05-08T06:01:11.000Z</time></trkpt><trkpt lon="5.746508" lat="51.145433"><ele>20.6</ele><time>2022-05-08T06:01:12.000Z</time></trkpt><trkpt lon="5.746606" lat="51.145425"><ele>20.4</ele><time>2022-05-08T06:01:13.000Z</time></trkpt><trkpt lon="5.746705" lat="51.145416"><ele>20.6</ele><time>2022-05-08T06:01:14.000Z</time></trkpt><trkpt lon="5.7468" lat="51.145408"><ele>20.6</ele><time>2022-05-08T06:01:15.000Z</time></trkpt><trkpt lon="5.746893" lat="51.145398"><ele>20.6</ele><time>2022-05-08T06:01:16.000Z</time></trkpt><trkpt lon="5.746986" lat="51.145391"><ele>20.6</ele><time>2022-05-08T06:01:17.000Z</time></trkpt><trkpt lon="5.74708" lat="51.145383"><ele>20.6</ele><time>2022-05-08T06:01:18.000Z</time></trkpt><trkpt lon="5.747172" lat="51.145374"><ele>20.6</ele><time>2022-05-08T06:01:19.000Z</time></trkpt><trkpt lon="5.747269" lat="51.145364"><ele>20.6</ele><time>2022-05-08T06:01:20.000Z</time></trkpt><trkpt lon="5.74737" lat="51.145355"><ele>20.4</ele><time>2022-05-08T06:01:21.000Z</time></trkpt><trkpt lon="5.747468" lat="51.145345"><ele>20.4</ele><time>2022-05-08T06:01:22.000Z</time></trkpt><trkpt lon="5.747565" lat="51.145336"><ele>20.4</ele><time>2022-05-08T06:01:23.000Z</time></trkpt><trkpt lon="5.747666" lat="51.145326"><ele>20.4</ele><time>2022-05-08T06:01:24.000Z</time></trkpt><trkpt lon="5.747766" lat="51.145317"><ele>20.4</ele><time>2022-05-08T06:01:25.000Z</time></trkpt><trkpt lon="5.747864" lat="51.145307"><ele>20.4</ele><time>2022-05-08T06:01:26.000Z</time></trkpt><trkpt lon="5.747962" lat="51.145298"><ele>20.4</ele><time>2022-05-08T06:01:27.000Z</time></trkpt><trkpt lon="5.74806" lat="51.145288"><ele>20.4</ele><time>2022-05-08T06:01:28.000Z</time></trkpt><trkpt lon="5.748158" lat="51.145278"><ele>20.4</ele><time>2022-05-08T06:01:29.000Z</time></trkpt><trkpt lon="5.748253" lat="51.145271"><ele>20.4</ele><time>2022-05-08T06:01:30.000Z</time></trkpt><trkpt lon="5.74835" lat="51.145263"><ele>20.4</ele><time>2022-05-08T06:01:31.000Z</time></trkpt><trkpt lon="5.748445" lat="51.145255"><ele>20.4</ele><time>2022-05-08T06:01:32.000Z</time></trkpt><trkpt lon="5.748542" lat="51.145248"><ele>20.4</ele><time>2022-05-08T06:01:33.000Z</time></trkpt><trkpt lon="5.748641" lat="51.14524"><ele>20.4</ele><time>2022-05-08T06:01:34.000Z</time></trkpt><trkpt lon="5.74874" lat="51.145235"><ele>20.6</ele><time>2022-05-08T06:01:35.000Z</time></trkpt><trkpt lon="5.74884" lat="51.145229"><ele>20.6</ele><time>2022-05-08T06:01:36.000Z</time></trkpt><trkpt lon="5.748942" lat="51.145223"><ele>20.6</ele><time>2022-05-08T06:01:37.000Z</time></trkpt><trkpt lon="5.749044" lat="51.145217"><ele>20.6</ele><time>2022-05-08T06:01:38.000Z</time></trkpt><trkpt lon="5.749145" lat="51.14521"><ele>20.4</ele><time>2022-05-08T06:01:39.000Z</time></trkpt><trkpt lon="5.749249" lat="51.145202"><ele>20.4</ele><time>2022-05-08T06:01:40.000Z</time></trkpt><trkpt lon="5.749351" lat="51.145197"><ele>20.6</ele><time>2022-05-08T06:01:41.000Z</time></trkpt><trkpt lon="5.749451" lat="51.145191"><ele>20.6</ele><time>2022-05-08T06:01:42.000Z</time></trkpt><trkpt lon="5.74955" lat="51.145185"><ele>20.6</ele><time>2022-05-08T06:01:43.000Z</time></trkpt><trkpt lon="5.749654" lat="51.145179"><ele>20.6</ele><time>2022-05-08T06:01:44.000Z</time></trkpt><trkpt lon="5.749757" lat="51.145172"><ele>20.4</ele><time>2022-05-08T06:01:45.000Z</time></trkpt><trkpt lon="5.749861" lat="51.145166"><ele>20.4</ele><time>2022-05-08T06:01:46.000Z</time></trkpt><trkpt lon="5.749963" lat="51.145162"><ele>20.4</ele><time>2022-05-08T06:01:47.000Z</time></trkpt><trkpt lon="5.750062" lat="51.145159"><ele>20.4</ele><time>2022-05-08T06:01:48.000Z</time></trkpt><trkpt lon="5.750163" lat="51.145152"><ele>20.4</ele><time>2022-05-08T06:01:49.000Z</time></trkpt><trkpt lon="5.750264" lat="51.145145"><ele>20.4</ele><time>2022-05-08T06:01:50.000Z</time></trkpt><trkpt lon="5.750364" lat="51.145139"><ele>20.4</ele><time>2022-05-08T06:01:51.000Z</time></trkpt><trkpt lon="5.750465" lat="51.145133"><ele>20.4</ele><time>2022-05-08T06:01:52.000Z</time></trkpt><trkpt lon="5.750563" lat="51.145128"><ele>20.4</ele><time>2022-05-08T06:01:53.000Z</time></trkpt><trkpt lon="5.750662" lat="51.145122"><ele>20.2</ele><time>2022-05-08T06:01:54.000Z</time></trkpt><trkpt lon="5.750758" lat="51.145117"><ele>20.2</ele><time>2022-05-08T06:01:55.000Z</time></trkpt><trkpt lon="5.750855" lat="51.145106"><ele>20.2</ele><time>2022-05-08T06:01:56.000Z</time></trkpt><trkpt lon="5.750953" lat="51.145093"><ele>20.2</ele><time>2022-05-08T06:01:57.000Z</time></trkpt><trkpt lon="5.751056" lat="51.145079"><ele>20.2</ele><time>2022-05-08T06:01:58.000Z</time></trkpt><trkpt lon="5.751162" lat="51.145069"><ele>20.2</ele><time>2022-05-08T06:01:59.000Z</time></trkpt><trkpt lon="5.751269" lat="51.145063"><ele>20.2</ele><time>2022-05-08T06:02:00.000Z</time></trkpt><trkpt lon="5.751373" lat="51.145057"><ele>20.2</ele><time>2022-05-08T06:02:01.000Z</time></trkpt><trkpt lon="5.751478" lat="51.145052"><ele>20.2</ele><time>2022-05-08T06:02:02.000Z</time></trkpt><trkpt lon="5.751583" lat="51.145046"><ele>20.2</ele><time>2022-05-08T06:02:03.000Z</time></trkpt><trkpt lon="5.751683" lat="51.14504"><ele>20.2</ele><time>2022-05-08T06:02:04.000Z</time></trkpt><trkpt lon="5.751781" lat="51.145034"><ele>20.2</ele><time>2022-05-08T06:02:05.000Z</time></trkpt><trkpt lon="5.751879" lat="51.145029"><ele>20.2</ele><time>2022-05-08T06:02:06.000Z</time></trkpt><trkpt lon="5.751977" lat="51.145025"><ele>20.2</ele><time>2022-05-08T06:02:07.000Z</time></trkpt><trkpt lon="5.752075" lat="51.145019"><ele>20.4</ele><time>2022-05-08T06:02:08.000Z</time></trkpt><trkpt lon="5.752176" lat="51.145014"><ele>20.4</ele><time>2022-05-08T06:02:09.000Z</time></trkpt><trkpt lon="5.752275" lat="51.14501"><ele>20.4</ele><time>2022-05-08T06:02:10.000Z</time></trkpt><trkpt lon="5.752372" lat="51.145004"><ele>20.2</ele><time>2022-05-08T06:02:11.000Z</time></trkpt><trkpt lon="5.75247" lat="51.144998"><ele>20.2</ele><time>2022-05-08T06:02:12.000Z</time></trkpt><trkpt lon="5.752573" lat="51.144992"><ele>20.2</ele><time>2022-05-08T06:02:13.000Z</time></trkpt><trkpt lon="5.752675" lat="51.144987"><ele>20.2</ele><time>2022-05-08T06:02:14.000Z</time></trkpt><trkpt lon="5.75277" lat="51.144981"><ele>20.2</ele><time>2022-05-08T06:02:15.000Z</time></trkpt><trkpt lon="5.75287" lat="51.144973"><ele>20.2</ele><time>2022-05-08T06:02:16.000Z</time></trkpt><trkpt lon="5.752973" lat="51.144966"><ele>20.4</ele><time>2022-05-08T06:02:17.000Z</time></trkpt><trkpt lon="5.753075" lat="51.144958"><ele>20.4</ele><time>2022-05-08T06:02:18.000Z</time></trkpt><trkpt lon="5.753173" lat="51.144948"><ele>20.4</ele><time>2022-05-08T06:02:19.000Z</time></trkpt><trkpt lon="5.753277" lat="51.144941"><ele>20.2</ele><time>2022-05-08T06:02:20.000Z</time></trkpt><trkpt lon="5.753382" lat="51.144935"><ele>20.2</ele><time>2022-05-08T06:02:21.000Z</time></trkpt><trkpt lon="5.753486" lat="51.14493"><ele>20.2</ele><time>2022-05-08T06:02:22.000Z</time></trkpt><trkpt lon="5.75359" lat="51.144924"><ele>20.2</ele><time>2022-05-08T06:02:23.000Z</time></trkpt><trkpt lon="5.753696" lat="51.144918"><ele>20.2</ele><time>2022-05-08T06:02:24.000Z</time></trkpt><trkpt lon="5.753803" lat="51.144914"><ele>20.2</ele><time>2022-05-08T06:02:25.000Z</time></trkpt><trkpt lon="5.753907" lat="51.144908"><ele>20.2</ele><time>2022-05-08T06:02:26.000Z</time></trkpt><trkpt lon="5.754009" lat="51.144903"><ele>20.2</ele><time>2022-05-08T06:02:27.000Z</time></trkpt><trkpt lon="5.754112" lat="51.144897"><ele>20.2</ele><time>2022-05-08T06:02:28.000Z</time></trkpt><trkpt lon="5.754216" lat="51.144889"><ele>20.2</ele><time>2022-05-08T06:02:29.000Z</time></trkpt><trkpt lon="5.754318" lat="51.144882"><ele>20.2</ele><time>2022-05-08T06:02:30.000Z</time></trkpt><trkpt lon="5.75442" lat="51.144876"><ele>20.2</ele><time>2022-05-08T06:02:31.000Z</time></trkpt><trkpt lon="5.75452" lat="51.144872"><ele>20.2</ele><time>2022-05-08T06:02:32.000Z</time></trkpt><trkpt lon="5.754623" lat="51.144869"><ele>20.2</ele><time>2022-05-08T06:02:33.000Z</time></trkpt><trkpt lon="5.754726" lat="51.144865"><ele>20</ele><time>2022-05-08T06:02:34.000Z</time></trkpt><trkpt lon="5.754825" lat="51.144859"><ele>20</ele><time>2022-05-08T06:02:35.000Z</time></trkpt><trkpt lon="5.754926" lat="51.144853"><ele>20</ele><time>2022-05-08T06:02:36.000Z</time></trkpt><trkpt lon="5.755029" lat="51.144847"><ele>20</ele><time>2022-05-08T06:02:37.000Z</time></trkpt><trkpt lon="5.755131" lat="51.144842"><ele>20</ele><time>2022-05-08T06:02:38.000Z</time></trkpt><trkpt lon="5.755232" lat="51.144836"><ele>20</ele><time>2022-05-08T06:02:39.000Z</time></trkpt><trkpt lon="5.755334" lat="51.14483"><ele>20</ele><time>2022-05-08T06:02:40.000Z</time></trkpt><trkpt lon="5.755436" lat="51.144824"><ele>20</ele><time>2022-05-08T06:02:41.000Z</time></trkpt><trkpt lon="5.75554" lat="51.144819"><ele>20</ele><time>2022-05-08T06:02:42.000Z</time></trkpt><trkpt lon="5.755642" lat="51.144813"><ele>20</ele><time>2022-05-08T06:02:43.000Z</time></trkpt><trkpt lon="5.755744" lat="51.144805"><ele>20</ele><time>2022-05-08T06:02:44.000Z</time></trkpt><trkpt lon="5.755848" lat="51.1448"><ele>20</ele><time>2022-05-08T06:02:45.000Z</time></trkpt><trkpt lon="5.755953" lat="51.144794"><ele>20</ele><time>2022-05-08T06:02:46.000Z</time></trkpt><trkpt lon="5.756057" lat="51.144788"><ele>20</ele><time>2022-05-08T06:02:47.000Z</time></trkpt><trkpt lon="5.75616" lat="51.144782"><ele>20</ele><time>2022-05-08T06:02:48.000Z</time></trkpt><trkpt lon="5.756263" lat="51.144775"><ele>20</ele><time>2022-05-08T06:02:49.000Z</time></trkpt><trkpt lon="5.756365" lat="51.144769"><ele>20</ele><time>2022-05-08T06:02:50.000Z</time></trkpt><trkpt lon="5.756467" lat="51.144763"><ele>20</ele><time>2022-05-08T06:02:51.000Z</time></trkpt><trkpt lon="5.756569" lat="51.144758"><ele>20</ele><time>2022-05-08T06:02:52.000Z</time></trkpt><trkpt lon="5.756671" lat="51.144752"><ele>20</ele><time>2022-05-08T06:02:53.000Z</time></trkpt><trkpt lon="5.756772" lat="51.144746"><ele>20</ele><time>2022-05-08T06:02:54.000Z</time></trkpt><trkpt lon="5.756874" lat="51.144741"><ele>19.8</ele><time>2022-05-08T06:02:55.000Z</time></trkpt><trkpt lon="5.75698" lat="51.144733"><ele>19.8</ele><time>2022-05-08T06:02:56.000Z</time></trkpt><trkpt lon="5.757085" lat="51.144727"><ele>19.8</ele><time>2022-05-08T06:02:57.000Z</time></trkpt><trkpt lon="5.757188" lat="51.144721"><ele>20</ele><time>2022-05-08T06:02:58.000Z</time></trkpt><trkpt lon="5.757293" lat="51.144716"><ele>20</ele><time>2022-05-08T06:02:59.000Z</time></trkpt><trkpt lon="5.757398" lat="51.14471"><ele>20</ele><time>2022-05-08T06:03:00.000Z</time></trkpt><trkpt lon="5.757502" lat="51.144702"><ele>20</ele><time>2022-05-08T06:03:01.000Z</time></trkpt><trkpt lon="5.757603" lat="51.144695"><ele>20</ele><time>2022-05-08T06:03:02.000Z</time></trkpt><trkpt lon="5.757705" lat="51.144689"><ele>20</ele><time>2022-05-08T06:03:03.000Z</time></trkpt><trkpt lon="5.757808" lat="51.144683"><ele>20</ele><time>2022-05-08T06:03:04.000Z</time></trkpt><trkpt lon="5.75791" lat="51.144676"><ele>20</ele><time>2022-05-08T06:03:05.000Z</time></trkpt><trkpt lon="5.758012" lat="51.14467"><ele>20</ele><time>2022-05-08T06:03:06.000Z</time></trkpt><trkpt lon="5.758113" lat="51.144664"><ele>20</ele><time>2022-05-08T06:03:07.000Z</time></trkpt><trkpt lon="5.758213" lat="51.144657"><ele>20</ele><time>2022-05-08T06:03:08.000Z</time></trkpt><trkpt lon="5.758313" lat="51.144651"><ele>19.8</ele><time>2022-05-08T06:03:09.000Z</time></trkpt><trkpt lon="5.758413" lat="51.144645"><ele>20</ele><time>2022-05-08T06:03:10.000Z</time></trkpt><trkpt lon="5.758513" lat="51.144642"><ele>20</ele><time>2022-05-08T06:03:11.000Z</time></trkpt><trkpt lon="5.758614" lat="51.144638"><ele>20</ele><time>2022-05-08T06:03:12.000Z</time></trkpt><trkpt lon="5.758714" lat="51.144632"><ele>20</ele><time>2022-05-08T06:03:13.000Z</time></trkpt><trkpt lon="5.758816" lat="51.144626"><ele>20</ele><time>2022-05-08T06:03:14.000Z</time></trkpt><trkpt lon="5.758916" lat="51.144618"><ele>19.8</ele><time>2022-05-08T06:03:15.000Z</time></trkpt><trkpt lon="5.759016" lat="51.144613"><ele>20</ele><time>2022-05-08T06:03:16.000Z</time></trkpt><trkpt lon="5.759117" lat="51.144607"><ele>20</ele><time>2022-05-08T06:03:17.000Z</time></trkpt><trkpt lon="5.759219" lat="51.144601"><ele>20</ele><time>2022-05-08T06:03:18.000Z</time></trkpt><trkpt lon="5.759319" lat="51.144596"><ele>20</ele><time>2022-05-08T06:03:19.000Z</time></trkpt><trkpt lon="5.75942" lat="51.14459"><ele>19.8</ele><time>2022-05-08T06:03:20.000Z</time></trkpt><trkpt lon="5.759524" lat="51.144584"><ele>19.8</ele><time>2022-05-08T06:03:21.000Z</time></trkpt><trkpt lon="5.759628" lat="51.144576"><ele>19.8</ele><time>2022-05-08T06:03:22.000Z</time></trkpt><trkpt lon="5.759731" lat="51.144571"><ele>19.8</ele><time>2022-05-08T06:03:23.000Z</time></trkpt><trkpt lon="5.759834" lat="51.144565"><ele>19.8</ele><time>2022-05-08T06:03:24.000Z</time></trkpt><trkpt lon="5.759936" lat="51.14456"><ele>19.8</ele><time>2022-05-08T06:03:25.000Z</time></trkpt><trkpt lon="5.760039" lat="51.144554"><ele>19.8</ele><time>2022-05-08T06:03:26.000Z</time></trkpt><trkpt lon="5.760144" lat="51.144548"><ele>19.8</ele><time>2022-05-08T06:03:27.000Z</time></trkpt><trkpt lon="5.760247" lat="51.144542"><ele>19.6</ele><time>2022-05-08T06:03:28.000Z</time></trkpt><trkpt lon="5.76035" lat="51.144537"><ele>19.6</ele><time>2022-05-08T06:03:29.000Z</time></trkpt><trkpt lon="5.760451" lat="51.144531"><ele>19.6</ele><time>2022-05-08T06:03:30.000Z</time></trkpt><trkpt lon="5.760551" lat="51.144525"><ele>19.4</ele><time>2022-05-08T06:03:31.000Z</time></trkpt><trkpt lon="5.760652" lat="51.144524"><ele>19.2</ele><time>2022-05-08T06:03:32.000Z</time></trkpt><trkpt lon="5.760753" lat="51.144521"><ele>19.4</ele><time>2022-05-08T06:03:33.000Z</time></trkpt><trkpt lon="5.760855" lat="51.144515"><ele>19.4</ele><time>2022-05-08T06:03:34.000Z</time></trkpt><trkpt lon="5.760958" lat="51.144508"><ele>19.6</ele><time>2022-05-08T06:03:35.000Z</time></trkpt><trkpt lon="5.76106" lat="51.1445"><ele>19.6</ele><time>2022-05-08T06:03:36.000Z</time></trkpt><trkpt lon="5.761161" lat="51.144495"><ele>19.6</ele><time>2022-05-08T06:03:37.000Z</time></trkpt><trkpt lon="5.761264" lat="51.144489"><ele>19.6</ele><time>2022-05-08T06:03:38.000Z</time></trkpt><trkpt lon="5.761366" lat="51.144483"><ele>19.6</ele><time>2022-05-08T06:03:39.000Z</time></trkpt><trkpt lon="5.761468" lat="51.144477"><ele>19.6</ele><time>2022-05-08T06:03:40.000Z</time></trkpt><trkpt lon="5.761571" lat="51.144472"><ele>19.6</ele><time>2022-05-08T06:03:41.000Z</time></trkpt><trkpt lon="5.761672" lat="51.144466"><ele>19.6</ele><time>2022-05-08T06:03:42.000Z</time></trkpt><trkpt lon="5.761774" lat="51.14446"><ele>19.6</ele><time>2022-05-08T06:03:43.000Z</time></trkpt><trkpt lon="5.761876" lat="51.144457"><ele>19.6</ele><time>2022-05-08T06:03:44.000Z</time></trkpt><trkpt lon="5.761978" lat="51.144451"><ele>19.8</ele><time>2022-05-08T06:03:45.000Z</time></trkpt><trkpt lon="5.762082" lat="51.144445"><ele>19.8</ele><time>2022-05-08T06:03:46.000Z</time></trkpt><trkpt lon="5.762186" lat="51.144439"><ele>19.8</ele><time>2022-05-08T06:03:47.000Z</time></trkpt><trkpt lon="5.762286" lat="51.144431"><ele>19.8</ele><time>2022-05-08T06:03:48.000Z</time></trkpt><trkpt lon="5.762388" lat="51.144424"><ele>19.8</ele><time>2022-05-08T06:03:49.000Z</time></trkpt><trkpt lon="5.762489" lat="51.144416"><ele>19.8</ele><time>2022-05-08T06:03:50.000Z</time></trkpt><trkpt lon="5.76259" lat="51.144409"><ele>20</ele><time>2022-05-08T06:03:51.000Z</time></trkpt><trkpt lon="5.76269" lat="51.144401"><ele>19.8</ele><time>2022-05-08T06:03:52.000Z</time></trkpt><trkpt lon="5.762792" lat="51.144393"><ele>19.8</ele><time>2022-05-08T06:03:53.000Z</time></trkpt><trkpt lon="5.762897" lat="51.144388"><ele>19.8</ele><time>2022-05-08T06:03:54.000Z</time></trkpt><trkpt lon="5.763" lat="51.144382"><ele>19.8</ele><time>2022-05-08T06:03:55.000Z</time></trkpt><trkpt lon="5.763106" lat="51.144381"><ele>19.8</ele><time>2022-05-08T06:03:56.000Z</time></trkpt><trkpt lon="5.763214" lat="51.14438"><ele>19.8</ele><time>2022-05-08T06:03:57.000Z</time></trkpt><trkpt lon="5.763322" lat="51.144376"><ele>20</ele><time>2022-05-08T06:03:58.000Z</time></trkpt><trkpt lon="5.763429" lat="51.14437"><ele>20</ele><time>2022-05-08T06:03:59.000Z</time></trkpt><trkpt lon="5.763531" lat="51.144365"><ele>20</ele><time>2022-05-08T06:04:00.000Z</time></trkpt><trkpt lon="5.76363" lat="51.144359"><ele>20</ele><time>2022-05-08T06:04:01.000Z</time></trkpt><trkpt lon="5.763729" lat="51.144351"><ele>20</ele><time>2022-05-08T06:04:02.000Z</time></trkpt><trkpt lon="5.763829" lat="51.144346"><ele>20</ele><time>2022-05-08T06:04:03.000Z</time></trkpt><trkpt lon="5.763926" lat="51.14434"><ele>20</ele><time>2022-05-08T06:04:04.000Z</time></trkpt><trkpt lon="5.764023" lat="51.144335"><ele>20</ele><time>2022-05-08T06:04:05.000Z</time></trkpt><trkpt lon="5.764126" lat="51.144329"><ele>20.2</ele><time>2022-05-08T06:04:06.000Z</time></trkpt><trkpt lon="5.764211" lat="51.144322"><ele>20.2</ele><time>2022-05-08T06:04:07.000Z</time></trkpt><trkpt lon="5.764296" lat="51.144317"><ele>20.2</ele><time>2022-05-08T06:04:08.000Z</time></trkpt><trkpt lon="5.764433" lat="51.144309"><ele>20.2</ele><time>2022-05-08T06:04:09.000Z</time></trkpt><trkpt lon="5.764536" lat="51.144302"><ele>20.2</ele><time>2022-05-08T06:04:10.000Z</time></trkpt><trkpt lon="5.764641" lat="51.144296"><ele>20.2</ele><time>2022-05-08T06:04:11.000Z</time></trkpt><trkpt lon="5.764744" lat="51.14429"><ele>20.2</ele><time>2022-05-08T06:04:12.000Z</time></trkpt><trkpt lon="5.764847" lat="51.144285"><ele>20.2</ele><time>2022-05-08T06:04:13.000Z</time></trkpt><trkpt lon="5.764951" lat="51.144279"><ele>20.2</ele><time>2022-05-08T06:04:14.000Z</time></trkpt><trkpt lon="5.765055" lat="51.144273"><ele>20.4</ele><time>2022-05-08T06:04:15.000Z</time></trkpt><trkpt lon="5.76516" lat="51.144267"><ele>20.2</ele><time>2022-05-08T06:04:16.000Z</time></trkpt><trkpt lon="5.765266" lat="51.14426"><ele>20.4</ele><time>2022-05-08T06:04:17.000Z</time></trkpt><trkpt lon="5.76537" lat="51.144254"><ele>20.4</ele><time>2022-05-08T06:04:18.000Z</time></trkpt><trkpt lon="5.765474" lat="51.144251"><ele>20.4</ele><time>2022-05-08T06:04:19.000Z</time></trkpt><trkpt lon="5.765575" lat="51.144245"><ele>20.4</ele><time>2022-05-08T06:04:20.000Z</time></trkpt><trkpt lon="5.76568" lat="51.144239"><ele>20.4</ele><time>2022-05-08T06:04:21.000Z</time></trkpt><trkpt lon="5.765784" lat="51.144233"><ele>20.4</ele><time>2022-05-08T06:04:22.000Z</time></trkpt><trkpt lon="5.765885" lat="51.144228"><ele>20.2</ele><time>2022-05-08T06:04:23.000Z</time></trkpt><trkpt lon="5.765987" lat="51.144224"><ele>20.2</ele><time>2022-05-08T06:04:24.000Z</time></trkpt><trkpt lon="5.76609" lat="51.14422"><ele>20.2</ele><time>2022-05-08T06:04:25.000Z</time></trkpt><trkpt lon="5.766195" lat="51.144214"><ele>20.2</ele><time>2022-05-08T06:04:26.000Z</time></trkpt><trkpt lon="5.766298" lat="51.144206"><ele>20.2</ele><time>2022-05-08T06:04:27.000Z</time></trkpt><trkpt lon="5.766401" lat="51.144201"><ele>20.2</ele><time>2022-05-08T06:04:28.000Z</time></trkpt><trkpt lon="5.766506" lat="51.144195"><ele>20.4</ele><time>2022-05-08T06:04:29.000Z</time></trkpt><trkpt lon="5.766609" lat="51.144189"><ele>20.4</ele><time>2022-05-08T06:04:30.000Z</time></trkpt><trkpt lon="5.766712" lat="51.144184"><ele>20.2</ele><time>2022-05-08T06:04:31.000Z</time></trkpt><trkpt lon="5.766815" lat="51.144178"><ele>20.2</ele><time>2022-05-08T06:04:32.000Z</time></trkpt><trkpt lon="5.766919" lat="51.144174"><ele>20.2</ele><time>2022-05-08T06:04:33.000Z</time></trkpt><trkpt lon="5.767021" lat="51.144168"><ele>20.2</ele><time>2022-05-08T06:04:34.000Z</time></trkpt><trkpt lon="5.767119" lat="51.144163"><ele>20.2</ele><time>2022-05-08T06:04:35.000Z</time></trkpt><trkpt lon="5.76722" lat="51.144157"><ele>20.2</ele><time>2022-05-08T06:04:36.000Z</time></trkpt><trkpt lon="5.767319" lat="51.144151"><ele>20</ele><time>2022-05-08T06:04:37.000Z</time></trkpt><trkpt lon="5.767417" lat="51.144148"><ele>20</ele><time>2022-05-08T06:04:38.000Z</time></trkpt><trkpt lon="5.767519" lat="51.144142"><ele>20</ele><time>2022-05-08T06:04:39.000Z</time></trkpt><trkpt lon="5.767623" lat="51.144136"><ele>20</ele><time>2022-05-08T06:04:40.000Z</time></trkpt><trkpt lon="5.767728" lat="51.14413"><ele>20</ele><time>2022-05-08T06:04:41.000Z</time></trkpt><trkpt lon="5.767834" lat="51.144125"><ele>20</ele><time>2022-05-08T06:04:42.000Z</time></trkpt><trkpt lon="5.767944" lat="51.144119"><ele>20</ele><time>2022-05-08T06:04:43.000Z</time></trkpt><trkpt lon="5.768054" lat="51.144113"><ele>20</ele><time>2022-05-08T06:04:44.000Z</time></trkpt><trkpt lon="5.768161" lat="51.144107"><ele>19.8</ele><time>2022-05-08T06:04:45.000Z</time></trkpt><trkpt lon="5.768269" lat="51.144102"><ele>19.8</ele><time>2022-05-08T06:04:46.000Z</time></trkpt><trkpt lon="5.768376" lat="51.144096"><ele>19.8</ele><time>2022-05-08T06:04:47.000Z</time></trkpt><trkpt lon="5.768485" lat="51.144088"><ele>19.8</ele><time>2022-05-08T06:04:48.000Z</time></trkpt><trkpt lon="5.768591" lat="51.144081"><ele>19.8</ele><time>2022-05-08T06:04:49.000Z</time></trkpt><trkpt lon="5.768699" lat="51.144075"><ele>19.8</ele><time>2022-05-08T06:04:50.000Z</time></trkpt><trkpt lon="5.768807" lat="51.144069"><ele>19.8</ele><time>2022-05-08T06:04:51.000Z</time></trkpt><trkpt lon="5.768912" lat="51.144061"><ele>19.8</ele><time>2022-05-08T06:04:52.000Z</time></trkpt><trkpt lon="5.769016" lat="51.144058"><ele>20</ele><time>2022-05-08T06:04:53.000Z</time></trkpt><trkpt lon="5.76912" lat="51.144054"><ele>20</ele><time>2022-05-08T06:04:54.000Z</time></trkpt><trkpt lon="5.769221" lat="51.144049"><ele>20</ele><time>2022-05-08T06:04:55.000Z</time></trkpt><trkpt lon="5.769326" lat="51.144043"><ele>20</ele><time>2022-05-08T06:04:56.000Z</time></trkpt><trkpt lon="5.769435" lat="51.144035"><ele>20</ele><time>2022-05-08T06:04:57.000Z</time></trkpt><trkpt lon="5.769542" lat="51.144029"><ele>20</ele><time>2022-05-08T06:04:58.000Z</time></trkpt><trkpt lon="5.769647" lat="51.144023"><ele>19.8</ele><time>2022-05-08T06:04:59.000Z</time></trkpt><trkpt lon="5.769752" lat="51.144018"><ele>20</ele><time>2022-05-08T06:05:00.000Z</time></trkpt><trkpt lon="5.769857" lat="51.144012"><ele>20</ele><time>2022-05-08T06:05:01.000Z</time></trkpt><trkpt lon="5.76996" lat="51.144006"><ele>19.8</ele><time>2022-05-08T06:05:02.000Z</time></trkpt><trkpt lon="5.770063" lat="51.144"><ele>19.8</ele><time>2022-05-08T06:05:03.000Z</time></trkpt><trkpt lon="5.770166" lat="51.143995"><ele>19.8</ele><time>2022-05-08T06:05:04.000Z</time></trkpt><trkpt lon="5.770269" lat="51.143989"><ele>19.8</ele><time>2022-05-08T06:05:05.000Z</time></trkpt><trkpt lon="5.770374" lat="51.143984"><ele>19.8</ele><time>2022-05-08T06:05:06.000Z</time></trkpt><trkpt lon="5.77048" lat="51.143978"><ele>19.6</ele><time>2022-05-08T06:05:07.000Z</time></trkpt><trkpt lon="5.770584" lat="51.143972"><ele>19.6</ele><time>2022-05-08T06:05:08.000Z</time></trkpt><trkpt lon="5.770687" lat="51.143966"><ele>19.6</ele><time>2022-05-08T06:05:09.000Z</time></trkpt><trkpt lon="5.770789" lat="51.143958"><ele>19.6</ele><time>2022-05-08T06:05:10.000Z</time></trkpt><trkpt lon="5.770888" lat="51.143953"><ele>19.6</ele><time>2022-05-08T06:05:11.000Z</time></trkpt><trkpt lon="5.770985" lat="51.143949"><ele>19.6</ele><time>2022-05-08T06:05:12.000Z</time></trkpt><trkpt lon="5.771081" lat="51.143943"><ele>19.6</ele><time>2022-05-08T06:05:13.000Z</time></trkpt><trkpt lon="5.771175" lat="51.143936"><ele>19.8</ele><time>2022-05-08T06:05:14.000Z</time></trkpt><trkpt lon="5.771267" lat="51.14393"><ele>19.8</ele><time>2022-05-08T06:05:15.000Z</time></trkpt><trkpt lon="5.77136" lat="51.143924"><ele>19.8</ele><time>2022-05-08T06:05:16.000Z</time></trkpt><trkpt lon="5.771452" lat="51.143919"><ele>19.8</ele><time>2022-05-08T06:05:17.000Z</time></trkpt><trkpt lon="5.77154" lat="51.143915"><ele>19.8</ele><time>2022-05-08T06:05:18.000Z</time></trkpt><trkpt lon="5.771624" lat="51.143909"><ele>19.8</ele><time>2022-05-08T06:05:19.000Z</time></trkpt><trkpt lon="5.771706" lat="51.143903"><ele>19.8</ele><time>2022-05-08T06:05:20.000Z</time></trkpt><trkpt lon="5.771783" lat="51.143897"><ele>19.8</ele><time>2022-05-08T06:05:21.000Z</time></trkpt><trkpt lon="5.771857" lat="51.143892"><ele>20</ele><time>2022-05-08T06:05:22.000Z</time></trkpt><trkpt lon="5.771929" lat="51.143888"><ele>20</ele><time>2022-05-08T06:05:23.000Z</time></trkpt><trkpt lon="5.771999" lat="51.143884"><ele>20</ele><time>2022-05-08T06:05:24.000Z</time></trkpt><trkpt lon="5.772065" lat="51.143881"><ele>20</ele><time>2022-05-08T06:05:25.000Z</time></trkpt><trkpt lon="5.772126" lat="51.143883"><ele>20.2</ele><time>2022-05-08T06:05:26.000Z</time></trkpt><trkpt lon="5.772186" lat="51.1439"><ele>20</ele><time>2022-05-08T06:05:27.000Z</time></trkpt><trkpt lon="5.772244" lat="51.143929"><ele>20</ele><time>2022-05-08T06:05:28.000Z</time></trkpt><trkpt lon="5.772293" lat="51.143972"><ele>20</ele><time>2022-05-08T06:05:29.000Z</time></trkpt><trkpt lon="5.772333" lat="51.144024"><ele>20</ele><time>2022-05-08T06:05:30.000Z</time></trkpt><trkpt lon="5.772371" lat="51.14408"><ele>19.8</ele><time>2022-05-08T06:05:31.000Z</time></trkpt><trkpt lon="5.772412" lat="51.144137"><ele>19.6</ele><time>2022-05-08T06:05:32.000Z</time></trkpt><trkpt lon="5.772456" lat="51.144195"><ele>19.6</ele><time>2022-05-08T06:05:33.000Z</time></trkpt><trkpt lon="5.772498" lat="51.144252"><ele>19.6</ele><time>2022-05-08T06:05:34.000Z</time></trkpt><trkpt lon="5.772538" lat="51.144306"><ele>19.4</ele><time>2022-05-08T06:05:35.000Z</time></trkpt><trkpt lon="5.772578" lat="51.144359"><ele>19.4</ele><time>2022-05-08T06:05:36.000Z</time></trkpt><trkpt lon="5.772618" lat="51.144415"><ele>19.4</ele><time>2022-05-08T06:05:37.000Z</time></trkpt><trkpt lon="5.772659" lat="51.14447"><ele>19.4</ele><time>2022-05-08T06:05:38.000Z</time></trkpt><trkpt lon="5.7727" lat="51.144524"><ele>19.4</ele><time>2022-05-08T06:05:39.000Z</time></trkpt><trkpt lon="5.772741" lat="51.14458"><ele>19.4</ele><time>2022-05-08T06:05:40.000Z</time></trkpt><trkpt lon="5.772785" lat="51.144639"><ele>19.4</ele><time>2022-05-08T06:05:41.000Z</time></trkpt><trkpt lon="5.772832" lat="51.144698"><ele>19.4</ele><time>2022-05-08T06:05:42.000Z</time></trkpt><trkpt lon="5.772878" lat="51.144755"><ele>19.4</ele><time>2022-05-08T06:05:43.000Z</time></trkpt><trkpt lon="5.772923" lat="51.144815"><ele>19.4</ele><time>2022-05-08T06:05:44.000Z</time></trkpt><trkpt lon="5.772967" lat="51.144874"><ele>19.4</ele><time>2022-05-08T06:05:45.000Z</time></trkpt><trkpt lon="5.773012" lat="51.144934"><ele>19.4</ele><time>2022-05-08T06:05:46.000Z</time></trkpt><trkpt lon="5.773057" lat="51.144991"><ele>19.4</ele><time>2022-05-08T06:05:47.000Z</time></trkpt><trkpt lon="5.773102" lat="51.145049"><ele>19.4</ele><time>2022-05-08T06:05:48.000Z</time></trkpt><trkpt lon="5.773143" lat="51.145107"><ele>19.4</ele><time>2022-05-08T06:05:49.000Z</time></trkpt><trkpt lon="5.773185" lat="51.145168"><ele>19.4</ele><time>2022-05-08T06:05:50.000Z</time></trkpt><trkpt lon="5.773227" lat="51.14523"><ele>19.4</ele><time>2022-05-08T06:05:51.000Z</time></trkpt><trkpt lon="5.773268" lat="51.145289"><ele>19.2</ele><time>2022-05-08T06:05:52.000Z</time></trkpt><trkpt lon="5.773309" lat="51.145348"><ele>19.4</ele><time>2022-05-08T06:05:53.000Z</time></trkpt><trkpt lon="5.773353" lat="51.145407"><ele>19.4</ele><time>2022-05-08T06:05:54.000Z</time></trkpt><trkpt lon="5.773396" lat="51.145462"><ele>19.4</ele><time>2022-05-08T06:05:55.000Z</time></trkpt><trkpt lon="5.773439" lat="51.145519"><ele>19.4</ele><time>2022-05-08T06:05:56.000Z</time></trkpt><trkpt lon="5.773481" lat="51.145578"><ele>19.4</ele><time>2022-05-08T06:05:57.000Z</time></trkpt><trkpt lon="5.773522" lat="51.145636"><ele>19.4</ele><time>2022-05-08T06:05:58.000Z</time></trkpt><trkpt lon="5.773564" lat="51.145692"><ele>19.6</ele><time>2022-05-08T06:05:59.000Z</time></trkpt><trkpt lon="5.773609" lat="51.145749"><ele>19.6</ele><time>2022-05-08T06:06:00.000Z</time></trkpt><trkpt lon="5.773665" lat="51.145803"><ele>19.6</ele><time>2022-05-08T06:06:01.000Z</time></trkpt><trkpt lon="5.773736" lat="51.145851"><ele>19.6</ele><time>2022-05-08T06:06:02.000Z</time></trkpt><trkpt lon="5.773821" lat="51.145894"><ele>19.6</ele><time>2022-05-08T06:06:03.000Z</time></trkpt><trkpt lon="5.773916" lat="51.145932"><ele>19.6</ele><time>2022-05-08T06:06:04.000Z</time></trkpt><trkpt lon="5.774014" lat="51.145957"><ele>19.4</ele><time>2022-05-08T06:06:05.000Z</time></trkpt><trkpt lon="5.774119" lat="51.145976"><ele>19.4</ele><time>2022-05-08T06:06:06.000Z</time></trkpt><trkpt lon="5.774225" lat="51.145996"><ele>19.4</ele><time>2022-05-08T06:06:07.000Z</time></trkpt><trkpt lon="5.774328" lat="51.146015"><ele>19.4</ele><time>2022-05-08T06:06:08.000Z</time></trkpt><trkpt lon="5.774435" lat="51.146034"><ele>19.4</ele><time>2022-05-08T06:06:09.000Z</time></trkpt><trkpt lon="5.77454" lat="51.146053"><ele>19.6</ele><time>2022-05-08T06:06:10.000Z</time></trkpt><trkpt lon="5.774642" lat="51.14607"><ele>19.6</ele><time>2022-05-08T06:06:11.000Z</time></trkpt><trkpt lon="5.774743" lat="51.146087"><ele>19.6</ele><time>2022-05-08T06:06:12.000Z</time></trkpt><trkpt lon="5.774843" lat="51.146106"><ele>19.6</ele><time>2022-05-08T06:06:13.000Z</time></trkpt><trkpt lon="5.774944" lat="51.146123"><ele>19.6</ele><time>2022-05-08T06:06:14.000Z</time></trkpt><trkpt lon="5.775049" lat="51.146138"><ele>19.6</ele><time>2022-05-08T06:06:15.000Z</time></trkpt><trkpt lon="5.775158" lat="51.146156"><ele>19.4</ele><time>2022-05-08T06:06:16.000Z</time></trkpt><trkpt lon="5.775263" lat="51.146175"><ele>19.4</ele><time>2022-05-08T06:06:17.000Z</time></trkpt><trkpt lon="5.775369" lat="51.146192"><ele>19.6</ele><time>2022-05-08T06:06:18.000Z</time></trkpt><trkpt lon="5.775474" lat="51.146211"><ele>19.4</ele><time>2022-05-08T06:06:19.000Z</time></trkpt><trkpt lon="5.775577" lat="51.146232"><ele>19.4</ele><time>2022-05-08T06:06:20.000Z</time></trkpt><trkpt lon="5.775682" lat="51.146251"><ele>19.4</ele><time>2022-05-08T06:06:21.000Z</time></trkpt><trkpt lon="5.775785" lat="51.14627"><ele>19.4</ele><time>2022-05-08T06:06:22.000Z</time></trkpt><trkpt lon="5.775887" lat="51.146287"><ele>19.4</ele><time>2022-05-08T06:06:23.000Z</time></trkpt><trkpt lon="5.775989" lat="51.146305"><ele>19.4</ele><time>2022-05-08T06:06:24.000Z</time></trkpt><trkpt lon="5.776091" lat="51.146324"><ele>19.4</ele><time>2022-05-08T06:06:25.000Z</time></trkpt><trkpt lon="5.776193" lat="51.146343"><ele>19.6</ele><time>2022-05-08T06:06:26.000Z</time></trkpt><trkpt lon="5.776294" lat="51.14636"><ele>19.6</ele><time>2022-05-08T06:06:27.000Z</time></trkpt><trkpt lon="5.776395" lat="51.146375"><ele>19.6</ele><time>2022-05-08T06:06:28.000Z</time></trkpt><trkpt lon="5.776498" lat="51.146393"><ele>19.4</ele><time>2022-05-08T06:06:29.000Z</time></trkpt><trkpt lon="5.776604" lat="51.146412"><ele>19.4</ele><time>2022-05-08T06:06:30.000Z</time></trkpt><trkpt lon="5.776708" lat="51.146433"><ele>19.2</ele><time>2022-05-08T06:06:31.000Z</time></trkpt><trkpt lon="5.776811" lat="51.146454"><ele>19.4</ele><time>2022-05-08T06:06:32.000Z</time></trkpt><trkpt lon="5.776914" lat="51.146475"><ele>19.4</ele><time>2022-05-08T06:06:33.000Z</time></trkpt><trkpt lon="5.777017" lat="51.146495"><ele>19.4</ele><time>2022-05-08T06:06:34.000Z</time></trkpt><trkpt lon="5.777125" lat="51.146512"><ele>19.4</ele><time>2022-05-08T06:06:35.000Z</time></trkpt><trkpt lon="5.777235" lat="51.14653"><ele>19.2</ele><time>2022-05-08T06:06:36.000Z</time></trkpt><trkpt lon="5.777347" lat="51.146547"><ele>19.2</ele><time>2022-05-08T06:06:37.000Z</time></trkpt><trkpt lon="5.777458" lat="51.146564"><ele>19.2</ele><time>2022-05-08T06:06:38.000Z</time></trkpt><trkpt lon="5.777566" lat="51.146581"><ele>19</ele><time>2022-05-08T06:06:39.000Z</time></trkpt><trkpt lon="5.777675" lat="51.146598"><ele>19</ele><time>2022-05-08T06:06:40.000Z</time></trkpt><trkpt lon="5.777787" lat="51.146615"><ele>19</ele><time>2022-05-08T06:06:41.000Z</time></trkpt><trkpt lon="5.777896" lat="51.146633"><ele>19</ele><time>2022-05-08T06:06:42.000Z</time></trkpt><trkpt lon="5.778005" lat="51.146649"><ele>19</ele><time>2022-05-08T06:06:43.000Z</time></trkpt><trkpt lon="5.778112" lat="51.146665"><ele>19</ele><time>2022-05-08T06:06:44.000Z</time></trkpt><trkpt lon="5.778215" lat="51.146682"><ele>19</ele><time>2022-05-08T06:06:45.000Z</time></trkpt><trkpt lon="5.778313" lat="51.146701"><ele>19.2</ele><time>2022-05-08T06:06:46.000Z</time></trkpt><trkpt lon="5.77841" lat="51.146718"><ele>19.2</ele><time>2022-05-08T06:06:47.000Z</time></trkpt><trkpt lon="5.778506" lat="51.146734"><ele>19.2</ele><time>2022-05-08T06:06:48.000Z</time></trkpt><trkpt lon="5.778604" lat="51.146749"><ele>19.2</ele><time>2022-05-08T06:06:49.000Z</time></trkpt><trkpt lon="5.778702" lat="51.146766"><ele>19.2</ele><time>2022-05-08T06:06:50.000Z</time></trkpt><trkpt lon="5.778801" lat="51.146785"><ele>19.4</ele><time>2022-05-08T06:06:51.000Z</time></trkpt><trkpt lon="5.7789" lat="51.146806"><ele>19.4</ele><time>2022-05-08T06:06:52.000Z</time></trkpt><trkpt lon="5.778997" lat="51.146829"><ele>19.6</ele><time>2022-05-08T06:06:53.000Z</time></trkpt><trkpt lon="5.77909" lat="51.146859"><ele>19.8</ele><time>2022-05-08T06:06:54.000Z</time></trkpt><trkpt lon="5.779181" lat="51.146893"><ele>19.6</ele><time>2022-05-08T06:06:55.000Z</time></trkpt><trkpt lon="5.779269" lat="51.146932"><ele>19.8</ele><time>2022-05-08T06:06:56.000Z</time></trkpt><trkpt lon="5.779351" lat="51.146974"><ele>19.8</ele><time>2022-05-08T06:06:57.000Z</time></trkpt><trkpt lon="5.779431" lat="51.147014"><ele>19.8</ele><time>2022-05-08T06:06:58.000Z</time></trkpt><trkpt lon="5.779509" lat="51.147054"><ele>20</ele><time>2022-05-08T06:06:59.000Z</time></trkpt><trkpt lon="5.779587" lat="51.147094"><ele>20</ele><time>2022-05-08T06:07:00.000Z</time></trkpt><trkpt lon="5.779668" lat="51.147132"><ele>20</ele><time>2022-05-08T06:07:01.000Z</time></trkpt><trkpt lon="5.779749" lat="51.147173"><ele>20</ele><time>2022-05-08T06:07:02.000Z</time></trkpt><trkpt lon="5.779831" lat="51.147212"><ele>20</ele><time>2022-05-08T06:07:03.000Z</time></trkpt><trkpt lon="5.779913" lat="51.147253"><ele>20.2</ele><time>2022-05-08T06:07:04.000Z</time></trkpt><trkpt lon="5.779993" lat="51.147293"><ele>20.2</ele><time>2022-05-08T06:07:05.000Z</time></trkpt><trkpt lon="5.780076" lat="51.147336"><ele>20.2</ele><time>2022-05-08T06:07:06.000Z</time></trkpt><trkpt lon="5.780161" lat="51.147378"><ele>20.2</ele><time>2022-05-08T06:07:07.000Z</time></trkpt><trkpt lon="5.780243" lat="51.14742"><ele>20</ele><time>2022-05-08T06:07:08.000Z</time></trkpt><trkpt lon="5.780324" lat="51.147462"><ele>20</ele><time>2022-05-08T06:07:09.000Z</time></trkpt><trkpt lon="5.780403" lat="51.147504"><ele>20</ele><time>2022-05-08T06:07:10.000Z</time></trkpt><trkpt lon="5.780482" lat="51.147548"><ele>20.2</ele><time>2022-05-08T06:07:11.000Z</time></trkpt><trkpt lon="5.780559" lat="51.147594"><ele>20.2</ele><time>2022-05-08T06:07:12.000Z</time></trkpt><trkpt lon="5.780634" lat="51.147637"><ele>20.2</ele><time>2022-05-08T06:07:13.000Z</time></trkpt><trkpt lon="5.780712" lat="51.147681"><ele>20.2</ele><time>2022-05-08T06:07:14.000Z</time></trkpt><trkpt lon="5.780787" lat="51.147727"><ele>20.2</ele><time>2022-05-08T06:07:15.000Z</time></trkpt><trkpt lon="5.780864" lat="51.147776"><ele>20.2</ele><time>2022-05-08T06:07:16.000Z</time></trkpt><trkpt lon="5.780941" lat="51.147821"><ele>20.4</ele><time>2022-05-08T06:07:17.000Z</time></trkpt><trkpt lon="5.781018" lat="51.147865"><ele>20.4</ele><time>2022-05-08T06:07:18.000Z</time></trkpt><trkpt lon="5.781095" lat="51.147912"><ele>20.4</ele><time>2022-05-08T06:07:19.000Z</time></trkpt><trkpt lon="5.781174" lat="51.147959"><ele>20.2</ele><time>2022-05-08T06:07:20.000Z</time></trkpt><trkpt lon="5.781253" lat="51.148008"><ele>20.2</ele><time>2022-05-08T06:07:21.000Z</time></trkpt><trkpt lon="5.781334" lat="51.148056"><ele>20.2</ele><time>2022-05-08T06:07:22.000Z</time></trkpt><trkpt lon="5.781415" lat="51.148103"><ele>20</ele><time>2022-05-08T06:07:23.000Z</time></trkpt><trkpt lon="5.781497" lat="51.148151"><ele>20</ele><time>2022-05-08T06:07:24.000Z</time></trkpt><trkpt lon="5.781576" lat="51.148198"><ele>20</ele><time>2022-05-08T06:07:25.000Z</time></trkpt><trkpt lon="5.781655" lat="51.148246"><ele>19.8</ele><time>2022-05-08T06:07:26.000Z</time></trkpt><trkpt lon="5.781735" lat="51.148292"><ele>19.8</ele><time>2022-05-08T06:07:27.000Z</time></trkpt><trkpt lon="5.781812" lat="51.148337"><ele>19.8</ele><time>2022-05-08T06:07:28.000Z</time></trkpt><trkpt lon="5.78189" lat="51.148383"><ele>19.8</ele><time>2022-05-08T06:07:29.000Z</time></trkpt><trkpt lon="5.781969" lat="51.14843"><ele>19.8</ele><time>2022-05-08T06:07:30.000Z</time></trkpt><trkpt lon="5.782046" lat="51.148476"><ele>19.8</ele><time>2022-05-08T06:07:31.000Z</time></trkpt><trkpt lon="5.782121" lat="51.14852"><ele>19.6</ele><time>2022-05-08T06:07:32.000Z</time></trkpt><trkpt lon="5.7822" lat="51.148568"><ele>19.6</ele><time>2022-05-08T06:07:33.000Z</time></trkpt><trkpt lon="5.782278" lat="51.148617"><ele>19.6</ele><time>2022-05-08T06:07:34.000Z</time></trkpt><trkpt lon="5.782354" lat="51.148662"><ele>19.6</ele><time>2022-05-08T06:07:35.000Z</time></trkpt><trkpt lon="5.782428" lat="51.148705"><ele>19.6</ele><time>2022-05-08T06:07:36.000Z</time></trkpt><trkpt lon="5.782504" lat="51.14875"><ele>19.4</ele><time>2022-05-08T06:07:37.000Z</time></trkpt><trkpt lon="5.782581" lat="51.148796"><ele>19.6</ele><time>2022-05-08T06:07:38.000Z</time></trkpt><trkpt lon="5.782657" lat="51.148839"><ele>19.6</ele><time>2022-05-08T06:07:39.000Z</time></trkpt><trkpt lon="5.782733" lat="51.148882"><ele>19.6</ele><time>2022-05-08T06:07:40.000Z</time></trkpt><trkpt lon="5.78281" lat="51.148926"><ele>19.6</ele><time>2022-05-08T06:07:41.000Z</time></trkpt><trkpt lon="5.782888" lat="51.148971"><ele>19.6</ele><time>2022-05-08T06:07:42.000Z</time></trkpt><trkpt lon="5.782965" lat="51.149017"><ele>19.6</ele><time>2022-05-08T06:07:43.000Z</time></trkpt><trkpt lon="5.783042" lat="51.14906"><ele>19.6</ele><time>2022-05-08T06:07:44.000Z</time></trkpt><trkpt lon="5.78312" lat="51.149104"><ele>19.6</ele><time>2022-05-08T06:07:45.000Z</time></trkpt><trkpt lon="5.783201" lat="51.149148"><ele>19.6</ele><time>2022-05-08T06:07:46.000Z</time></trkpt><trkpt lon="5.78328" lat="51.149192"><ele>19.6</ele><time>2022-05-08T06:07:47.000Z</time></trkpt><trkpt lon="5.783358" lat="51.149238"><ele>19.6</ele><time>2022-05-08T06:07:48.000Z</time></trkpt><trkpt lon="5.783436" lat="51.149284"><ele>19.6</ele><time>2022-05-08T06:07:49.000Z</time></trkpt><trkpt lon="5.783513" lat="51.149328"><ele>19.6</ele><time>2022-05-08T06:07:50.000Z</time></trkpt><trkpt lon="5.783588" lat="51.149372"><ele>19.6</ele><time>2022-05-08T06:07:51.000Z</time></trkpt><trkpt lon="5.78366" lat="51.149418"><ele>19.6</ele><time>2022-05-08T06:07:52.000Z</time></trkpt><trkpt lon="5.783731" lat="51.149463"><ele>19.6</ele><time>2022-05-08T06:07:53.000Z</time></trkpt><trkpt lon="5.7838" lat="51.149511"><ele>19.6</ele><time>2022-05-08T06:07:54.000Z</time></trkpt><trkpt lon="5.783867" lat="51.14956"><ele>19.6</ele><time>2022-05-08T06:07:55.000Z</time></trkpt><trkpt lon="5.783935" lat="51.14961"><ele>19.6</ele><time>2022-05-08T06:07:56.000Z</time></trkpt><trkpt lon="5.784002" lat="51.14966"><ele>19.6</ele><time>2022-05-08T06:07:57.000Z</time></trkpt><trkpt lon="5.784069" lat="51.149711"><ele>19.6</ele><time>2022-05-08T06:07:58.000Z</time></trkpt><trkpt lon="5.784138" lat="51.149763"><ele>19.6</ele><time>2022-05-08T06:07:59.000Z</time></trkpt><trkpt lon="5.784206" lat="51.149813"><ele>19.6</ele><time>2022-05-08T06:08:00.000Z</time></trkpt><trkpt lon="5.784271" lat="51.149862"><ele>19.6</ele><time>2022-05-08T06:08:01.000Z</time></trkpt><trkpt lon="5.784334" lat="51.149911"><ele>19.6</ele><time>2022-05-08T06:08:02.000Z</time></trkpt><trkpt lon="5.784401" lat="51.149961"><ele>19.6</ele><time>2022-05-08T06:08:03.000Z</time></trkpt><trkpt lon="5.784468" lat="51.150011"><ele>19.6</ele><time>2022-05-08T06:08:04.000Z</time></trkpt><trkpt lon="5.78453" lat="51.15006"><ele>19.6</ele><time>2022-05-08T06:08:05.000Z</time></trkpt><trkpt lon="5.784593" lat="51.150106"><ele>19.8</ele><time>2022-05-08T06:08:06.000Z</time></trkpt><trkpt lon="5.784659" lat="51.150155"><ele>19.8</ele><time>2022-05-08T06:08:07.000Z</time></trkpt><trkpt lon="5.784725" lat="51.150205"><ele>19.8</ele><time>2022-05-08T06:08:08.000Z</time></trkpt><trkpt lon="5.784787" lat="51.150257"><ele>19.8</ele><time>2022-05-08T06:08:09.000Z</time></trkpt><trkpt lon="5.784851" lat="51.150307"><ele>19.8</ele><time>2022-05-08T06:08:10.000Z</time></trkpt><trkpt lon="5.784916" lat="51.150355"><ele>19.8</ele><time>2022-05-08T06:08:11.000Z</time></trkpt><trkpt lon="5.78498" lat="51.150404"><ele>19.8</ele><time>2022-05-08T06:08:12.000Z</time></trkpt><trkpt lon="5.785045" lat="51.150453"><ele>20</ele><time>2022-05-08T06:08:13.000Z</time></trkpt><trkpt lon="5.785109" lat="51.150503"><ele>20</ele><time>2022-05-08T06:08:14.000Z</time></trkpt><trkpt lon="5.785172" lat="51.15055"><ele>20</ele><time>2022-05-08T06:08:15.000Z</time></trkpt><trkpt lon="5.785237" lat="51.150598"><ele>20</ele><time>2022-05-08T06:08:16.000Z</time></trkpt><trkpt lon="5.7853" lat="51.150647"><ele>20</ele><time>2022-05-08T06:08:17.000Z</time></trkpt><trkpt lon="5.785365" lat="51.150697"><ele>19.8</ele><time>2022-05-08T06:08:18.000Z</time></trkpt><trkpt lon="5.785431" lat="51.150747"><ele>20</ele><time>2022-05-08T06:08:19.000Z</time></trkpt><trkpt lon="5.785494" lat="51.150796"><ele>20</ele><time>2022-05-08T06:08:20.000Z</time></trkpt><trkpt lon="5.785558" lat="51.150848"><ele>20</ele><time>2022-05-08T06:08:21.000Z</time></trkpt><trkpt lon="5.785621" lat="51.150902"><ele>20</ele><time>2022-05-08T06:08:22.000Z</time></trkpt><trkpt lon="5.785683" lat="51.150953"><ele>19.8</ele><time>2022-05-08T06:08:23.000Z</time></trkpt><trkpt lon="5.785745" lat="51.151003"><ele>19.8</ele><time>2022-05-08T06:08:24.000Z</time></trkpt><trkpt lon="5.785808" lat="51.151052"><ele>19.6</ele><time>2022-05-08T06:08:25.000Z</time></trkpt><trkpt lon="5.785871" lat="51.1511"><ele>19.6</ele><time>2022-05-08T06:08:26.000Z</time></trkpt><trkpt lon="5.785936" lat="51.151148"><ele>19.6</ele><time>2022-05-08T06:08:27.000Z</time></trkpt><trkpt lon="5.786" lat="51.151197"><ele>19.4</ele><time>2022-05-08T06:08:28.000Z</time></trkpt><trkpt lon="5.786061" lat="51.151249"><ele>19.2</ele><time>2022-05-08T06:08:29.000Z</time></trkpt><trkpt lon="5.78612" lat="51.151303"><ele>19.2</ele><time>2022-05-08T06:08:30.000Z</time></trkpt><trkpt lon="5.786176" lat="51.151356"><ele>19.2</ele><time>2022-05-08T06:08:31.000Z</time></trkpt><trkpt lon="5.786228" lat="51.151412"><ele>19.2</ele><time>2022-05-08T06:08:32.000Z</time></trkpt><trkpt lon="5.786281" lat="51.151469"><ele>19.2</ele><time>2022-05-08T06:08:33.000Z</time></trkpt><trkpt lon="5.786332" lat="51.151524"><ele>19.2</ele><time>2022-05-08T06:08:34.000Z</time></trkpt><trkpt lon="5.786381" lat="51.151579"><ele>19.2</ele><time>2022-05-08T06:08:35.000Z</time></trkpt><trkpt lon="5.786433" lat="51.151636"><ele>19.2</ele><time>2022-05-08T06:08:36.000Z</time></trkpt><trkpt lon="5.786485" lat="51.151694"><ele>19.2</ele><time>2022-05-08T06:08:37.000Z</time></trkpt><trkpt lon="5.786536" lat="51.151749"><ele>19.2</ele><time>2022-05-08T06:08:38.000Z</time></trkpt><trkpt lon="5.786587" lat="51.151805"><ele>19</ele><time>2022-05-08T06:08:39.000Z</time></trkpt><trkpt lon="5.786636" lat="51.151862"><ele>19</ele><time>2022-05-08T06:08:40.000Z</time></trkpt><trkpt lon="5.786687" lat="51.151919"><ele>19</ele><time>2022-05-08T06:08:41.000Z</time></trkpt><trkpt lon="5.786738" lat="51.151973"><ele>19</ele><time>2022-05-08T06:08:42.000Z</time></trkpt><trkpt lon="5.786792" lat="51.152031"><ele>19</ele><time>2022-05-08T06:08:43.000Z</time></trkpt><trkpt lon="5.786848" lat="51.152091"><ele>18.8</ele><time>2022-05-08T06:08:44.000Z</time></trkpt><trkpt lon="5.786906" lat="51.152145"><ele>18.8</ele><time>2022-05-08T06:08:45.000Z</time></trkpt><trkpt lon="5.786967" lat="51.152198"><ele>19</ele><time>2022-05-08T06:08:46.000Z</time></trkpt><trkpt lon="5.787035" lat="51.152252"><ele>19</ele><time>2022-05-08T06:08:47.000Z</time></trkpt><trkpt lon="5.787111" lat="51.152304"><ele>19</ele><time>2022-05-08T06:08:48.000Z</time></trkpt><trkpt lon="5.78719" lat="51.152354"><ele>19</ele><time>2022-05-08T06:08:49.000Z</time></trkpt><trkpt lon="5.787271" lat="51.152398"><ele>18.8</ele><time>2022-05-08T06:08:50.000Z</time></trkpt><trkpt lon="5.787356" lat="51.15244"><ele>18.8</ele><time>2022-05-08T06:08:51.000Z</time></trkpt><trkpt lon="5.787444" lat="51.152482"><ele>18.8</ele><time>2022-05-08T06:08:52.000Z</time></trkpt><trkpt lon="5.787532" lat="51.152522"><ele>18.8</ele><time>2022-05-08T06:08:53.000Z</time></trkpt><trkpt lon="5.78762" lat="51.152563"><ele>18.6</ele><time>2022-05-08T06:08:54.000Z</time></trkpt><trkpt lon="5.787709" lat="51.152605"><ele>18.6</ele><time>2022-05-08T06:08:55.000Z</time></trkpt><trkpt lon="5.787799" lat="51.152644"><ele>18.6</ele><time>2022-05-08T06:08:56.000Z</time></trkpt><trkpt lon="5.787887" lat="51.152684"><ele>18.6</ele><time>2022-05-08T06:08:57.000Z</time></trkpt><trkpt lon="5.787975" lat="51.152726"><ele>18.4</ele><time>2022-05-08T06:08:58.000Z</time></trkpt><trkpt lon="5.788063" lat="51.152766"><ele>18.4</ele><time>2022-05-08T06:08:59.000Z</time></trkpt><trkpt lon="5.788149" lat="51.152807"><ele>18.4</ele><time>2022-05-08T06:09:00.000Z</time></trkpt><trkpt lon="5.788234" lat="51.152849"><ele>18.4</ele><time>2022-05-08T06:09:01.000Z</time></trkpt><trkpt lon="5.788318" lat="51.152892"><ele>18.4</ele><time>2022-05-08T06:09:02.000Z</time></trkpt><trkpt lon="5.7884" lat="51.152939"><ele>18.4</ele><time>2022-05-08T06:09:03.000Z</time></trkpt><trkpt lon="5.788478" lat="51.152987"><ele>18.4</ele><time>2022-05-08T06:09:04.000Z</time></trkpt><trkpt lon="5.788552" lat="51.153036"><ele>18.4</ele><time>2022-05-08T06:09:05.000Z</time></trkpt><trkpt lon="5.788625" lat="51.153085"><ele>18.4</ele><time>2022-05-08T06:09:06.000Z</time></trkpt><trkpt lon="5.788699" lat="51.153136"><ele>18.2</ele><time>2022-05-08T06:09:07.000Z</time></trkpt><trkpt lon="5.788772" lat="51.153183"><ele>18.2</ele><time>2022-05-08T06:09:08.000Z</time></trkpt><trkpt lon="5.788842" lat="51.15323"><ele>18.2</ele><time>2022-05-08T06:09:09.000Z</time></trkpt><trkpt lon="5.78891" lat="51.153275"><ele>18.2</ele><time>2022-05-08T06:09:10.000Z</time></trkpt><trkpt lon="5.788976" lat="51.15332"><ele>18.2</ele><time>2022-05-08T06:09:11.000Z</time></trkpt><trkpt lon="5.78904" lat="51.153366"><ele>18.2</ele><time>2022-05-08T06:09:12.000Z</time></trkpt><trkpt lon="5.789103" lat="51.153409"><ele>18.2</ele><time>2022-05-08T06:09:13.000Z</time></trkpt><trkpt lon="5.789164" lat="51.153451"><ele>18.2</ele><time>2022-05-08T06:09:14.000Z</time></trkpt><trkpt lon="5.789224" lat="51.153493"><ele>18.2</ele><time>2022-05-08T06:09:15.000Z</time></trkpt><trkpt lon="5.789281" lat="51.153531"><ele>18.2</ele><time>2022-05-08T06:09:16.000Z</time></trkpt><trkpt lon="5.789336" lat="51.153567"><ele>18.2</ele><time>2022-05-08T06:09:17.000Z</time></trkpt><trkpt lon="5.789386" lat="51.153603"><ele>18</ele><time>2022-05-08T06:09:18.000Z</time></trkpt><trkpt lon="5.789433" lat="51.153636"><ele>18</ele><time>2022-05-08T06:09:19.000Z</time></trkpt><trkpt lon="5.789482" lat="51.153667"><ele>18</ele><time>2022-05-08T06:09:20.000Z</time></trkpt><trkpt lon="5.789538" lat="51.15369"><ele>18</ele><time>2022-05-08T06:09:21.000Z</time></trkpt><trkpt lon="5.789598" lat="51.1537"><ele>18</ele><time>2022-05-08T06:09:22.000Z</time></trkpt><trkpt lon="5.78966" lat="51.153686"><ele>18</ele><time>2022-05-08T06:09:23.000Z</time></trkpt><trkpt lon="5.789726" lat="51.153656"><ele>18</ele><time>2022-05-08T06:09:24.000Z</time></trkpt><trkpt lon="5.789795" lat="51.153616"><ele>17.8</ele><time>2022-05-08T06:09:25.000Z</time></trkpt><trkpt lon="5.789871" lat="51.153567"><ele>17.8</ele><time>2022-05-08T06:09:26.000Z</time></trkpt><trkpt lon="5.789952" lat="51.153521"><ele>17.8</ele><time>2022-05-08T06:09:27.000Z</time></trkpt><trkpt lon="5.790036" lat="51.153474"><ele>17.8</ele><time>2022-05-08T06:09:28.000Z</time></trkpt><trkpt lon="5.790127" lat="51.15343"><ele>17.8</ele><time>2022-05-08T06:09:29.000Z</time></trkpt><trkpt lon="5.790231" lat="51.153396"><ele>17.8</ele><time>2022-05-08T06:09:30.000Z</time></trkpt><trkpt lon="5.790341" lat="51.153376"><ele>17.8</ele><time>2022-05-08T06:09:31.000Z</time></trkpt><trkpt lon="5.790446" lat="51.153364"><ele>17.8</ele><time>2022-05-08T06:09:32.000Z</time></trkpt><trkpt lon="5.790557" lat="51.15335"><ele>18</ele><time>2022-05-08T06:09:33.000Z</time></trkpt><trkpt lon="5.790665" lat="51.153337"><ele>18</ele><time>2022-05-08T06:09:34.000Z</time></trkpt><trkpt lon="5.790766" lat="51.153325"><ele>18.2</ele><time>2022-05-08T06:09:35.000Z</time></trkpt><trkpt lon="5.790867" lat="51.153314"><ele>18.2</ele><time>2022-05-08T06:09:36.000Z</time></trkpt><trkpt lon="5.790967" lat="51.153302"><ele>18.4</ele><time>2022-05-08T06:09:37.000Z</time></trkpt><trkpt lon="5.791067" lat="51.153291"><ele>18.4</ele><time>2022-05-08T06:09:38.000Z</time></trkpt><trkpt lon="5.791166" lat="51.153275"><ele>18.4</ele><time>2022-05-08T06:09:39.000Z</time></trkpt><trkpt lon="5.791265" lat="51.153258"><ele>18.6</ele><time>2022-05-08T06:09:40.000Z</time></trkpt><trkpt lon="5.791365" lat="51.153238"><ele>18.6</ele><time>2022-05-08T06:09:41.000Z</time></trkpt><trkpt lon="5.791467" lat="51.153218"><ele>18.6</ele><time>2022-05-08T06:09:42.000Z</time></trkpt><trkpt lon="5.791567" lat="51.153197"><ele>18.6</ele><time>2022-05-08T06:09:43.000Z</time></trkpt><trkpt lon="5.791667" lat="51.153171"><ele>18.6</ele><time>2022-05-08T06:09:44.000Z</time></trkpt><trkpt lon="5.791763" lat="51.153145"><ele>18.6</ele><time>2022-05-08T06:09:45.000Z</time></trkpt><trkpt lon="5.79186" lat="51.153116"><ele>18.6</ele><time>2022-05-08T06:09:46.000Z</time></trkpt><trkpt lon="5.791964" lat="51.153086"><ele>18.6</ele><time>2022-05-08T06:09:47.000Z</time></trkpt><trkpt lon="5.792069" lat="51.153055"><ele>18.6</ele><time>2022-05-08T06:09:48.000Z</time></trkpt><trkpt lon="5.79217" lat="51.153027"><ele>18.4</ele><time>2022-05-08T06:09:49.000Z</time></trkpt><trkpt lon="5.792272" lat="51.152998"><ele>18.4</ele><time>2022-05-08T06:09:50.000Z</time></trkpt><trkpt lon="5.792375" lat="51.152969"><ele>18.4</ele><time>2022-05-08T06:09:51.000Z</time></trkpt><trkpt lon="5.792478" lat="51.152942"><ele>18.4</ele><time>2022-05-08T06:09:52.000Z</time></trkpt><trkpt lon="5.792583" lat="51.152913"><ele>18.4</ele><time>2022-05-08T06:09:53.000Z</time></trkpt><trkpt lon="5.792686" lat="51.152883"><ele>18.4</ele><time>2022-05-08T06:09:54.000Z</time></trkpt><trkpt lon="5.792788" lat="51.152855"><ele>18.4</ele><time>2022-05-08T06:09:55.000Z</time></trkpt><trkpt lon="5.792888" lat="51.152826"><ele>18.4</ele><time>2022-05-08T06:09:56.000Z</time></trkpt><trkpt lon="5.792988" lat="51.152795"><ele>18.4</ele><time>2022-05-08T06:09:57.000Z</time></trkpt><trkpt lon="5.793086" lat="51.152767"><ele>18.4</ele><time>2022-05-08T06:09:58.000Z</time></trkpt><trkpt lon="5.793187" lat="51.152738"><ele>18.4</ele><time>2022-05-08T06:09:59.000Z</time></trkpt><trkpt lon="5.793288" lat="51.15271"><ele>18.4</ele><time>2022-05-08T06:10:00.000Z</time></trkpt><trkpt lon="5.793388" lat="51.152683"><ele>18.4</ele><time>2022-05-08T06:10:01.000Z</time></trkpt><trkpt lon="5.79349" lat="51.152659"><ele>18.4</ele><time>2022-05-08T06:10:02.000Z</time></trkpt><trkpt lon="5.793595" lat="51.152638"><ele>18.4</ele><time>2022-05-08T06:10:03.000Z</time></trkpt><trkpt lon="5.793703" lat="51.152619"><ele>18.6</ele><time>2022-05-08T06:10:04.000Z</time></trkpt><trkpt lon="5.793813" lat="51.1526"><ele>18.6</ele><time>2022-05-08T06:10:05.000Z</time></trkpt><trkpt lon="5.793924" lat="51.152581"><ele>18.6</ele><time>2022-05-08T06:10:06.000Z</time></trkpt><trkpt lon="5.794035" lat="51.152562"><ele>18.4</ele><time>2022-05-08T06:10:07.000Z</time></trkpt><trkpt lon="5.794146" lat="51.152543"><ele>18.4</ele><time>2022-05-08T06:10:08.000Z</time></trkpt><trkpt lon="5.794257" lat="51.152522"><ele>18.4</ele><time>2022-05-08T06:10:09.000Z</time></trkpt><trkpt lon="5.79437" lat="51.152501"><ele>18.2</ele><time>2022-05-08T06:10:10.000Z</time></trkpt><trkpt lon="5.79448" lat="51.152481"><ele>18.2</ele><time>2022-05-08T06:10:11.000Z</time></trkpt><trkpt lon="5.794587" lat="51.152465"><ele>18.2</ele><time>2022-05-08T06:10:12.000Z</time></trkpt><trkpt lon="5.794693" lat="51.152452"><ele>18.2</ele><time>2022-05-08T06:10:13.000Z</time></trkpt><trkpt lon="5.794799" lat="51.152442"><ele>18.2</ele><time>2022-05-08T06:10:14.000Z</time></trkpt><trkpt lon="5.794907" lat="51.152439"><ele>18.2</ele><time>2022-05-08T06:10:15.000Z</time></trkpt><trkpt lon="5.795017" lat="51.152439"><ele>18.2</ele><time>2022-05-08T06:10:16.000Z</time></trkpt><trkpt lon="5.795128" lat="51.152444"><ele>18</ele><time>2022-05-08T06:10:17.000Z</time></trkpt><trkpt lon="5.795237" lat="51.152449"><ele>18.2</ele><time>2022-05-08T06:10:18.000Z</time></trkpt><trkpt lon="5.795346" lat="51.152455"><ele>18</ele><time>2022-05-08T06:10:19.000Z</time></trkpt><trkpt lon="5.795458" lat="51.152463"><ele>18.2</ele><time>2022-05-08T06:10:20.000Z</time></trkpt><trkpt lon="5.79557" lat="51.15247"><ele>18.2</ele><time>2022-05-08T06:10:21.000Z</time></trkpt><trkpt lon="5.795682" lat="51.152476"><ele>18.2</ele><time>2022-05-08T06:10:22.000Z</time></trkpt><trkpt lon="5.795792" lat="51.152482"><ele>18.2</ele><time>2022-05-08T06:10:23.000Z</time></trkpt><trkpt lon="5.7959" lat="51.152487"><ele>18.2</ele><time>2022-05-08T06:10:24.000Z</time></trkpt><trkpt lon="5.796009" lat="51.152495"><ele>18.2</ele><time>2022-05-08T06:10:25.000Z</time></trkpt><trkpt lon="5.796119" lat="51.152502"><ele>18</ele><time>2022-05-08T06:10:26.000Z</time></trkpt><trkpt lon="5.796228" lat="51.152508"><ele>18</ele><time>2022-05-08T06:10:27.000Z</time></trkpt><trkpt lon="5.796338" lat="51.152516"><ele>18</ele><time>2022-05-08T06:10:28.000Z</time></trkpt><trkpt lon="5.796446" lat="51.152524"><ele>18</ele><time>2022-05-08T06:10:29.000Z</time></trkpt><trkpt lon="5.796554" lat="51.152531"><ele>17.8</ele><time>2022-05-08T06:10:30.000Z</time></trkpt><trkpt lon="5.796664" lat="51.152537"><ele>17.8</ele><time>2022-05-08T06:10:31.000Z</time></trkpt><trkpt lon="5.796776" lat="51.152541"><ele>18</ele><time>2022-05-08T06:10:32.000Z</time></trkpt><trkpt lon="5.796889" lat="51.152547"><ele>18</ele><time>2022-05-08T06:10:33.000Z</time></trkpt><trkpt lon="5.796999" lat="51.152554"><ele>18</ele><time>2022-05-08T06:10:34.000Z</time></trkpt><trkpt lon="5.797108" lat="51.152562"><ele>18</ele><time>2022-05-08T06:10:35.000Z</time></trkpt><trkpt lon="5.797215" lat="51.152567"><ele>18</ele><time>2022-05-08T06:10:36.000Z</time></trkpt><trkpt lon="5.797323" lat="51.152573"><ele>18</ele><time>2022-05-08T06:10:37.000Z</time></trkpt><trkpt lon="5.79743" lat="51.152581"><ele>17.8</ele><time>2022-05-08T06:10:38.000Z</time></trkpt><trkpt lon="5.797536" lat="51.152589"><ele>17.8</ele><time>2022-05-08T06:10:39.000Z</time></trkpt><trkpt lon="5.797643" lat="51.152594"><ele>17.8</ele><time>2022-05-08T06:10:40.000Z</time></trkpt><trkpt lon="5.797749" lat="51.1526"><ele>17.6</ele><time>2022-05-08T06:10:41.000Z</time></trkpt><trkpt lon="5.797853" lat="51.152608"><ele>17.6</ele><time>2022-05-08T06:10:42.000Z</time></trkpt><trkpt lon="5.797957" lat="51.152615"><ele>17.6</ele><time>2022-05-08T06:10:43.000Z</time></trkpt><trkpt lon="5.798061" lat="51.152623"><ele>17.6</ele><time>2022-05-08T06:10:44.000Z</time></trkpt><trkpt lon="5.798168" lat="51.152628"><ele>17.6</ele><time>2022-05-08T06:10:45.000Z</time></trkpt><trkpt lon="5.798276" lat="51.152634"><ele>17.8</ele><time>2022-05-08T06:10:46.000Z</time></trkpt><trkpt lon="5.798384" lat="51.152642"><ele>17.8</ele><time>2022-05-08T06:10:47.000Z</time></trkpt><trkpt lon="5.79849" lat="51.15265"><ele>17.8</ele><time>2022-05-08T06:10:48.000Z</time></trkpt><trkpt lon="5.798596" lat="51.152655"><ele>17.8</ele><time>2022-05-08T06:10:49.000Z</time></trkpt><trkpt lon="5.798703" lat="51.152661"><ele>17.8</ele><time>2022-05-08T06:10:50.000Z</time></trkpt><trkpt lon="5.798809" lat="51.152666"><ele>17.8</ele><time>2022-05-08T06:10:51.000Z</time></trkpt><trkpt lon="5.798914" lat="51.15267"><ele>18</ele><time>2022-05-08T06:10:52.000Z</time></trkpt><trkpt lon="5.799019" lat="51.152672"><ele>18</ele><time>2022-05-08T06:10:53.000Z</time></trkpt><trkpt lon="5.799123" lat="51.152674"><ele>18</ele><time>2022-05-08T06:10:54.000Z</time></trkpt><trkpt lon="5.799229" lat="51.152678"><ele>18</ele><time>2022-05-08T06:10:55.000Z</time></trkpt><trkpt lon="5.799334" lat="51.152682"><ele>18</ele><time>2022-05-08T06:10:56.000Z</time></trkpt><trkpt lon="5.799439" lat="51.152683"><ele>18</ele><time>2022-05-08T06:10:57.000Z</time></trkpt><trkpt lon="5.799544" lat="51.152683"><ele>18</ele><time>2022-05-08T06:10:58.000Z</time></trkpt><trkpt lon="5.799648" lat="51.152683"><ele>18</ele><time>2022-05-08T06:10:59.000Z</time></trkpt><trkpt lon="5.799753" lat="51.152685"><ele>18</ele><time>2022-05-08T06:11:00.000Z</time></trkpt><trkpt lon="5.799857" lat="51.152689"><ele>18.2</ele><time>2022-05-08T06:11:01.000Z</time></trkpt><trkpt lon="5.799961" lat="51.152693"><ele>18.2</ele><time>2022-05-08T06:11:02.000Z</time></trkpt><trkpt lon="5.800066" lat="51.152697"><ele>18.4</ele><time>2022-05-08T06:11:03.000Z</time></trkpt><trkpt lon="5.800172" lat="51.152699"><ele>18.4</ele><time>2022-05-08T06:11:04.000Z</time></trkpt><trkpt lon="5.800276" lat="51.152699"><ele>18.4</ele><time>2022-05-08T06:11:05.000Z</time></trkpt><trkpt lon="5.800381" lat="51.152699"><ele>18.4</ele><time>2022-05-08T06:11:06.000Z</time></trkpt><trkpt lon="5.800487" lat="51.152699"><ele>18.4</ele><time>2022-05-08T06:11:07.000Z</time></trkpt><trkpt lon="5.800589" lat="51.152701"><ele>18.4</ele><time>2022-05-08T06:11:08.000Z</time></trkpt><trkpt lon="5.800694" lat="51.152705"><ele>18.4</ele><time>2022-05-08T06:11:09.000Z</time></trkpt><trkpt lon="5.8008" lat="51.152706"><ele>18.2</ele><time>2022-05-08T06:11:10.000Z</time></trkpt><trkpt lon="5.800905" lat="51.152708"><ele>18.2</ele><time>2022-05-08T06:11:11.000Z</time></trkpt><trkpt lon="5.801012" lat="51.15271"><ele>18.2</ele><time>2022-05-08T06:11:12.000Z</time></trkpt><trkpt lon="5.801123" lat="51.15271"><ele>18</ele><time>2022-05-08T06:11:13.000Z</time></trkpt><trkpt lon="5.801235" lat="51.15271"><ele>18</ele><time>2022-05-08T06:11:14.000Z</time></trkpt><trkpt lon="5.801346" lat="51.152712"><ele>18</ele><time>2022-05-08T06:11:15.000Z</time></trkpt><trkpt lon="5.801455" lat="51.152716"><ele>18</ele><time>2022-05-08T06:11:16.000Z</time></trkpt><trkpt lon="5.801564" lat="51.152718"><ele>18</ele><time>2022-05-08T06:11:17.000Z</time></trkpt><trkpt lon="5.801673" lat="51.152718"><ele>18</ele><time>2022-05-08T06:11:18.000Z</time></trkpt><trkpt lon="5.801779" lat="51.15272"><ele>18</ele><time>2022-05-08T06:11:19.000Z</time></trkpt><trkpt lon="5.801888" lat="51.152721"><ele>18</ele><time>2022-05-08T06:11:20.000Z</time></trkpt><trkpt lon="5.801998" lat="51.152724"><ele>17.8</ele><time>2022-05-08T06:11:21.000Z</time></trkpt><trkpt lon="5.802107" lat="51.152727"><ele>17.8</ele><time>2022-05-08T06:11:22.000Z</time></trkpt><trkpt lon="5.802214" lat="51.152733"><ele>17.6</ele><time>2022-05-08T06:11:23.000Z</time></trkpt><trkpt lon="5.802321" lat="51.152739"><ele>17.6</ele><time>2022-05-08T06:11:24.000Z</time></trkpt><trkpt lon="5.802429" lat="51.152745"><ele>17.6</ele><time>2022-05-08T06:11:25.000Z</time></trkpt><trkpt lon="5.802537" lat="51.152752"><ele>17.6</ele><time>2022-05-08T06:11:26.000Z</time></trkpt><trkpt lon="5.802643" lat="51.15276"><ele>17.6</ele><time>2022-05-08T06:11:27.000Z</time></trkpt><trkpt lon="5.802751" lat="51.15277"><ele>17.4</ele><time>2022-05-08T06:11:28.000Z</time></trkpt><trkpt lon="5.802857" lat="51.152779"><ele>17.4</ele><time>2022-05-08T06:11:29.000Z</time></trkpt><trkpt lon="5.802962" lat="51.152789"><ele>17.6</ele><time>2022-05-08T06:11:30.000Z</time></trkpt><trkpt lon="5.803064" lat="51.152798"><ele>17.6</ele><time>2022-05-08T06:11:31.000Z</time></trkpt><trkpt lon="5.803164" lat="51.15281"><ele>17.6</ele><time>2022-05-08T06:11:32.000Z</time></trkpt><trkpt lon="5.803268" lat="51.152821"><ele>17.4</ele><time>2022-05-08T06:11:33.000Z</time></trkpt><trkpt lon="5.803372" lat="51.152829"><ele>17.4</ele><time>2022-05-08T06:11:34.000Z</time></trkpt><trkpt lon="5.803473" lat="51.152837"><ele>17.4</ele><time>2022-05-08T06:11:35.000Z</time></trkpt><trkpt lon="5.803574" lat="51.152842"><ele>17.6</ele><time>2022-05-08T06:11:36.000Z</time></trkpt><trkpt lon="5.803677" lat="51.152843"><ele>17.6</ele><time>2022-05-08T06:11:37.000Z</time></trkpt><trkpt lon="5.803781" lat="51.152843"><ele>17.8</ele><time>2022-05-08T06:11:38.000Z</time></trkpt><trkpt lon="5.803883" lat="51.152843"><ele>17.8</ele><time>2022-05-08T06:11:39.000Z</time></trkpt><trkpt lon="5.803983" lat="51.152841"><ele>18</ele><time>2022-05-08T06:11:40.000Z</time></trkpt><trkpt lon="5.804083" lat="51.152837"><ele>18</ele><time>2022-05-08T06:11:41.000Z</time></trkpt><trkpt lon="5.804183" lat="51.152834"><ele>18</ele><time>2022-05-08T06:11:42.000Z</time></trkpt><trkpt lon="5.804281" lat="51.152832"><ele>18.2</ele><time>2022-05-08T06:11:43.000Z</time></trkpt><trkpt lon="5.804384" lat="51.15283"><ele>18.2</ele><time>2022-05-08T06:11:44.000Z</time></trkpt><trkpt lon="5.804488" lat="51.152828"><ele>18.2</ele><time>2022-05-08T06:11:45.000Z</time></trkpt><trkpt lon="5.804591" lat="51.152828"><ele>18.2</ele><time>2022-05-08T06:11:46.000Z</time></trkpt><trkpt lon="5.804694" lat="51.152826"><ele>18.2</ele><time>2022-05-08T06:11:47.000Z</time></trkpt><trkpt lon="5.804798" lat="51.15282"><ele>18.2</ele><time>2022-05-08T06:11:48.000Z</time></trkpt><trkpt lon="5.804903" lat="51.152817"><ele>18.2</ele><time>2022-05-08T06:11:49.000Z</time></trkpt><trkpt lon="5.805006" lat="51.152815"><ele>18.2</ele><time>2022-05-08T06:11:50.000Z</time></trkpt><trkpt lon="5.805108" lat="51.152811"><ele>18.2</ele><time>2022-05-08T06:11:51.000Z</time></trkpt><trkpt lon="5.805209" lat="51.152807"><ele>18.2</ele><time>2022-05-08T06:11:52.000Z</time></trkpt><trkpt lon="5.80531" lat="51.152803"><ele>18.2</ele><time>2022-05-08T06:11:53.000Z</time></trkpt><trkpt lon="5.805412" lat="51.152801"><ele>18.4</ele><time>2022-05-08T06:11:54.000Z</time></trkpt><trkpt lon="5.805513" lat="51.152799"><ele>18.4</ele><time>2022-05-08T06:11:55.000Z</time></trkpt><trkpt lon="5.805614" lat="51.152795"><ele>18.6</ele><time>2022-05-08T06:11:56.000Z</time></trkpt><trkpt lon="5.805716" lat="51.152792"><ele>18.6</ele><time>2022-05-08T06:11:57.000Z</time></trkpt><trkpt lon="5.80582" lat="51.15279"><ele>18.6</ele><time>2022-05-08T06:11:58.000Z</time></trkpt><trkpt lon="5.805924" lat="51.15279"><ele>18.4</ele><time>2022-05-08T06:11:59.000Z</time></trkpt><trkpt lon="5.806028" lat="51.15279"><ele>18.4</ele><time>2022-05-08T06:12:00.000Z</time></trkpt><trkpt lon="5.806133" lat="51.15279"><ele>18.4</ele><time>2022-05-08T06:12:01.000Z</time></trkpt><trkpt lon="5.806237" lat="51.152788"><ele>18.4</ele><time>2022-05-08T06:12:02.000Z</time></trkpt><trkpt lon="5.806342" lat="51.152786"><ele>18.6</ele><time>2022-05-08T06:12:03.000Z</time></trkpt><trkpt lon="5.806446" lat="51.152784"><ele>18.6</ele><time>2022-05-08T06:12:04.000Z</time></trkpt><trkpt lon="5.806549" lat="51.15278"><ele>18.8</ele><time>2022-05-08T06:12:05.000Z</time></trkpt><trkpt lon="5.806652" lat="51.152779"><ele>18.8</ele><time>2022-05-08T06:12:06.000Z</time></trkpt><trkpt lon="5.806755" lat="51.152779"><ele>18.8</ele><time>2022-05-08T06:12:07.000Z</time></trkpt><trkpt lon="5.806859" lat="51.152776"><ele>18.8</ele><time>2022-05-08T06:12:08.000Z</time></trkpt><trkpt lon="5.806962" lat="51.152775"><ele>18.8</ele><time>2022-05-08T06:12:09.000Z</time></trkpt><trkpt lon="5.807068" lat="51.152775"><ele>18.8</ele><time>2022-05-08T06:12:10.000Z</time></trkpt><trkpt lon="5.807174" lat="51.152773"><ele>18.8</ele><time>2022-05-08T06:12:11.000Z</time></trkpt><trkpt lon="5.80728" lat="51.152771"><ele>18.8</ele><time>2022-05-08T06:12:12.000Z</time></trkpt><trkpt lon="5.807387" lat="51.152771"><ele>18.8</ele><time>2022-05-08T06:12:13.000Z</time></trkpt><trkpt lon="5.807491" lat="51.152769"><ele>18.6</ele><time>2022-05-08T06:12:14.000Z</time></trkpt><trkpt lon="5.807595" lat="51.152767"><ele>18.4</ele><time>2022-05-08T06:12:15.000Z</time></trkpt><trkpt lon="5.807698" lat="51.152765"><ele>18.6</ele><time>2022-05-08T06:12:16.000Z</time></trkpt><trkpt lon="5.807803" lat="51.152763"><ele>18.6</ele><time>2022-05-08T06:12:17.000Z</time></trkpt><trkpt lon="5.807909" lat="51.152761"><ele>18.8</ele><time>2022-05-08T06:12:18.000Z</time></trkpt><trkpt lon="5.808017" lat="51.152757"><ele>18.8</ele><time>2022-05-08T06:12:19.000Z</time></trkpt><trkpt lon="5.808126" lat="51.152756"><ele>18.8</ele><time>2022-05-08T06:12:20.000Z</time></trkpt><trkpt lon="5.808233" lat="51.152754"><ele>18.6</ele><time>2022-05-08T06:12:21.000Z</time></trkpt><trkpt lon="5.80834" lat="51.15275"><ele>18.6</ele><time>2022-05-08T06:12:22.000Z</time></trkpt><trkpt lon="5.808449" lat="51.152748"><ele>18.6</ele><time>2022-05-08T06:12:23.000Z</time></trkpt><trkpt lon="5.808558" lat="51.152746"><ele>18.6</ele><time>2022-05-08T06:12:24.000Z</time></trkpt><trkpt lon="5.808666" lat="51.15274"><ele>18.6</ele><time>2022-05-08T06:12:25.000Z</time></trkpt><trkpt lon="5.808776" lat="51.152734"><ele>18.6</ele><time>2022-05-08T06:12:26.000Z</time></trkpt><trkpt lon="5.808885" lat="51.152731"><ele>18.6</ele><time>2022-05-08T06:12:27.000Z</time></trkpt><trkpt lon="5.808995" lat="51.152727"><ele>18.6</ele><time>2022-05-08T06:12:28.000Z</time></trkpt><trkpt lon="5.809106" lat="51.152721"><ele>18.4</ele><time>2022-05-08T06:12:29.000Z</time></trkpt><trkpt lon="5.809214" lat="51.152713"><ele>18.2</ele><time>2022-05-08T06:12:30.000Z</time></trkpt><trkpt lon="5.809322" lat="51.152703"><ele>18.2</ele><time>2022-05-08T06:12:31.000Z</time></trkpt><trkpt lon="5.80943" lat="51.152692"><ele>18.2</ele><time>2022-05-08T06:12:32.000Z</time></trkpt><trkpt lon="5.809538" lat="51.15268"><ele>18.2</ele><time>2022-05-08T06:12:33.000Z</time></trkpt><trkpt lon="5.809644" lat="51.152669"><ele>18.2</ele><time>2022-05-08T06:12:34.000Z</time></trkpt><trkpt lon="5.809747" lat="51.152655"><ele>18.2</ele><time>2022-05-08T06:12:35.000Z</time></trkpt><trkpt lon="5.809847" lat="51.152638"><ele>18.2</ele><time>2022-05-08T06:12:36.000Z</time></trkpt><trkpt lon="5.80995" lat="51.152619"><ele>18</ele><time>2022-05-08T06:12:37.000Z</time></trkpt><trkpt lon="5.810054" lat="51.1526"><ele>18</ele><time>2022-05-08T06:12:38.000Z</time></trkpt><trkpt lon="5.810155" lat="51.152579"><ele>18</ele><time>2022-05-08T06:12:39.000Z</time></trkpt><trkpt lon="5.810254" lat="51.152558"><ele>18</ele><time>2022-05-08T06:12:40.000Z</time></trkpt><trkpt lon="5.81035" lat="51.152539"><ele>18</ele><time>2022-05-08T06:12:41.000Z</time></trkpt><trkpt lon="5.810441" lat="51.15252"><ele>18</ele><time>2022-05-08T06:12:42.000Z</time></trkpt><trkpt lon="5.810534" lat="51.152501"><ele>18</ele><time>2022-05-08T06:12:43.000Z</time></trkpt><trkpt lon="5.810625" lat="51.152481"><ele>18</ele><time>2022-05-08T06:12:44.000Z</time></trkpt><trkpt lon="5.810712" lat="51.152462"><ele>18</ele><time>2022-05-08T06:12:45.000Z</time></trkpt><trkpt lon="5.810796" lat="51.152443"><ele>18</ele><time>2022-05-08T06:12:46.000Z</time></trkpt><trkpt lon="5.810874" lat="51.152426"><ele>18</ele><time>2022-05-08T06:12:47.000Z</time></trkpt><trkpt lon="5.810942" lat="51.152411"><ele>18.2</ele><time>2022-05-08T06:12:48.000Z</time></trkpt><trkpt lon="5.811" lat="51.152398"><ele>18.2</ele><time>2022-05-08T06:12:49.000Z</time></trkpt><trkpt lon="5.811047" lat="51.152389"><ele>18.4</ele><time>2022-05-08T06:12:50.000Z</time></trkpt><trkpt lon="5.811088" lat="51.152384"><ele>18.4</ele><time>2022-05-08T06:12:51.000Z</time></trkpt><trkpt lon="5.811128" lat="51.15238"><ele>18.6</ele><time>2022-05-08T06:12:52.000Z</time></trkpt><trkpt lon="5.811171" lat="51.152383"><ele>18.6</ele><time>2022-05-08T06:12:53.000Z</time></trkpt><trkpt lon="5.811216" lat="51.152401"><ele>18.8</ele><time>2022-05-08T06:12:54.000Z</time></trkpt><trkpt lon="5.811258" lat="51.152435"><ele>18.8</ele><time>2022-05-08T06:12:55.000Z</time></trkpt><trkpt lon="5.811294" lat="51.152477"><ele>18.6</ele><time>2022-05-08T06:12:56.000Z</time></trkpt><trkpt lon="5.811323" lat="51.152527"><ele>18.6</ele><time>2022-05-08T06:12:57.000Z</time></trkpt><trkpt lon="5.811344" lat="51.152585"><ele>18.6</ele><time>2022-05-08T06:12:58.000Z</time></trkpt><trkpt lon="5.811362" lat="51.152646"><ele>18.6</ele><time>2022-05-08T06:12:59.000Z</time></trkpt><trkpt lon="5.811381" lat="51.152707"><ele>18.6</ele><time>2022-05-08T06:13:00.000Z</time></trkpt><trkpt lon="5.811402" lat="51.152768"><ele>18.6</ele><time>2022-05-08T06:13:01.000Z</time></trkpt><trkpt lon="5.811423" lat="51.152831"><ele>18.6</ele><time>2022-05-08T06:13:02.000Z</time></trkpt><trkpt lon="5.811443" lat="51.152894"><ele>18.4</ele><time>2022-05-08T06:13:03.000Z</time></trkpt><trkpt lon="5.811464" lat="51.152955"><ele>18.4</ele><time>2022-05-08T06:13:04.000Z</time></trkpt><trkpt lon="5.811485" lat="51.153013"><ele>18.4</ele><time>2022-05-08T06:13:05.000Z</time></trkpt><trkpt lon="5.811506" lat="51.153073"><ele>18.4</ele><time>2022-05-08T06:13:06.000Z</time></trkpt><trkpt lon="5.811528" lat="51.153137"><ele>18.4</ele><time>2022-05-08T06:13:07.000Z</time></trkpt><trkpt lon="5.811551" lat="51.153199"><ele>18.4</ele><time>2022-05-08T06:13:08.000Z</time></trkpt><trkpt lon="5.811571" lat="51.153262"><ele>18.4</ele><time>2022-05-08T06:13:09.000Z</time></trkpt><trkpt lon="5.81159" lat="51.153326"><ele>18.4</ele><time>2022-05-08T06:13:10.000Z</time></trkpt><trkpt lon="5.811611" lat="51.153386"><ele>18.4</ele><time>2022-05-08T06:13:11.000Z</time></trkpt><trkpt lon="5.811632" lat="51.15345"><ele>18.4</ele><time>2022-05-08T06:13:12.000Z</time></trkpt><trkpt lon="5.811652" lat="51.153514"><ele>18.4</ele><time>2022-05-08T06:13:13.000Z</time></trkpt><trkpt lon="5.811675" lat="51.153579"><ele>18.4</ele><time>2022-05-08T06:13:14.000Z</time></trkpt><trkpt lon="5.811697" lat="51.153642"><ele>18.6</ele><time>2022-05-08T06:13:15.000Z</time></trkpt><trkpt lon="5.81172" lat="51.153705"><ele>18.6</ele><time>2022-05-08T06:13:16.000Z</time></trkpt><trkpt lon="5.811744" lat="51.153768"><ele>18.4</ele><time>2022-05-08T06:13:17.000Z</time></trkpt><trkpt lon="5.811766" lat="51.153831"><ele>18.4</ele><time>2022-05-08T06:13:18.000Z</time></trkpt><trkpt lon="5.811787" lat="51.153893"><ele>18.2</ele><time>2022-05-08T06:13:19.000Z</time></trkpt><trkpt lon="5.811806" lat="51.153957"><ele>18.4</ele><time>2022-05-08T06:13:20.000Z</time></trkpt><trkpt lon="5.811828" lat="51.154019"><ele>18.4</ele><time>2022-05-08T06:13:21.000Z</time></trkpt><trkpt lon="5.811848" lat="51.154083"><ele>18.4</ele><time>2022-05-08T06:13:22.000Z</time></trkpt><trkpt lon="5.811869" lat="51.154148"><ele>18.4</ele><time>2022-05-08T06:13:23.000Z</time></trkpt><trkpt lon="5.811891" lat="51.15421"><ele>18.4</ele><time>2022-05-08T06:13:24.000Z</time></trkpt><trkpt lon="5.811913" lat="51.154271"><ele>18.4</ele><time>2022-05-08T06:13:25.000Z</time></trkpt><trkpt lon="5.811934" lat="51.154335"><ele>18.4</ele><time>2022-05-08T06:13:26.000Z</time></trkpt><trkpt lon="5.811957" lat="51.154397"><ele>18.4</ele><time>2022-05-08T06:13:27.000Z</time></trkpt><trkpt lon="5.811978" lat="51.154458"><ele>18.4</ele><time>2022-05-08T06:13:28.000Z</time></trkpt><trkpt lon="5.811998" lat="51.154519"><ele>18.2</ele><time>2022-05-08T06:13:29.000Z</time></trkpt><trkpt lon="5.812018" lat="51.154582"><ele>18.4</ele><time>2022-05-08T06:13:30.000Z</time></trkpt><trkpt lon="5.812041" lat="51.154643"><ele>18.4</ele><time>2022-05-08T06:13:31.000Z</time></trkpt><trkpt lon="5.812067" lat="51.154705"><ele>18.6</ele><time>2022-05-08T06:13:32.000Z</time></trkpt><trkpt lon="5.812093" lat="51.15477"><ele>18.8</ele><time>2022-05-08T06:13:33.000Z</time></trkpt><trkpt lon="5.812119" lat="51.154832"><ele>18.8</ele><time>2022-05-08T06:13:34.000Z</time></trkpt><trkpt lon="5.812144" lat="51.154889"><ele>19</ele><time>2022-05-08T06:13:35.000Z</time></trkpt><trkpt lon="5.812169" lat="51.154949"><ele>19</ele><time>2022-05-08T06:13:36.000Z</time></trkpt><trkpt lon="5.812194" lat="51.155011"><ele>18.8</ele><time>2022-05-08T06:13:37.000Z</time></trkpt><trkpt lon="5.812217" lat="51.155072"><ele>18.6</ele><time>2022-05-08T06:13:38.000Z</time></trkpt><trkpt lon="5.812239" lat="51.155133"><ele>18.4</ele><time>2022-05-08T06:13:39.000Z</time></trkpt><trkpt lon="5.812261" lat="51.155194"><ele>18.4</ele><time>2022-05-08T06:13:40.000Z</time></trkpt><trkpt lon="5.812284" lat="51.155258"><ele>18.4</ele><time>2022-05-08T06:13:41.000Z</time></trkpt><trkpt lon="5.812305" lat="51.155323"><ele>18.6</ele><time>2022-05-08T06:13:42.000Z</time></trkpt><trkpt lon="5.812325" lat="51.155388"><ele>18.6</ele><time>2022-05-08T06:13:43.000Z</time></trkpt><trkpt lon="5.812346" lat="51.155452"><ele>18.6</ele><time>2022-05-08T06:13:44.000Z</time></trkpt><trkpt lon="5.812367" lat="51.155517"><ele>18.6</ele><time>2022-05-08T06:13:45.000Z</time></trkpt><trkpt lon="5.812386" lat="51.155582"><ele>18.6</ele><time>2022-05-08T06:13:46.000Z</time></trkpt><trkpt lon="5.812402" lat="51.155645"><ele>18.6</ele><time>2022-05-08T06:13:47.000Z</time></trkpt><trkpt lon="5.812416" lat="51.155705"><ele>18.6</ele><time>2022-05-08T06:13:48.000Z</time></trkpt><trkpt lon="5.812428" lat="51.155766"><ele>18.8</ele><time>2022-05-08T06:13:49.000Z</time></trkpt><trkpt lon="5.812442" lat="51.155829"><ele>18.8</ele><time>2022-05-08T06:13:50.000Z</time></trkpt><trkpt lon="5.81246" lat="51.155897"><ele>18.8</ele><time>2022-05-08T06:13:51.000Z</time></trkpt><trkpt lon="5.812482" lat="51.155966"><ele>18.6</ele><time>2022-05-08T06:13:52.000Z</time></trkpt><trkpt lon="5.812504" lat="51.156037"><ele>18.4</ele><time>2022-05-08T06:13:53.000Z</time></trkpt><trkpt lon="5.812526" lat="51.156109"><ele>18.2</ele><time>2022-05-08T06:13:54.000Z</time></trkpt><trkpt lon="5.812548" lat="51.156179"><ele>18.2</ele><time>2022-05-08T06:13:55.000Z</time></trkpt><trkpt lon="5.81257" lat="51.156246"><ele>18.2</ele><time>2022-05-08T06:13:56.000Z</time></trkpt><trkpt lon="5.812595" lat="51.15631"><ele>18</ele><time>2022-05-08T06:13:57.000Z</time></trkpt><trkpt lon="5.812624" lat="51.156373"><ele>17.8</ele><time>2022-05-08T06:13:58.000Z</time></trkpt><trkpt lon="5.812654" lat="51.156434"><ele>17.8</ele><time>2022-05-08T06:13:59.000Z</time></trkpt><trkpt lon="5.812683" lat="51.156497"><ele>17.6</ele><time>2022-05-08T06:14:00.000Z</time></trkpt><trkpt lon="5.81271" lat="51.156562"><ele>17.6</ele><time>2022-05-08T06:14:01.000Z</time></trkpt><trkpt lon="5.812734" lat="51.156626"><ele>17.6</ele><time>2022-05-08T06:14:02.000Z</time></trkpt><trkpt lon="5.812755" lat="51.156691"><ele>17.6</ele><time>2022-05-08T06:14:03.000Z</time></trkpt><trkpt lon="5.812775" lat="51.156759"><ele>17.4</ele><time>2022-05-08T06:14:04.000Z</time></trkpt><trkpt lon="5.812797" lat="51.156825"><ele>17.6</ele><time>2022-05-08T06:14:05.000Z</time></trkpt><trkpt lon="5.812819" lat="51.15689"><ele>17.6</ele><time>2022-05-08T06:14:06.000Z</time></trkpt><trkpt lon="5.812841" lat="51.156955"><ele>17.6</ele><time>2022-05-08T06:14:07.000Z</time></trkpt><trkpt lon="5.812862" lat="51.157017"><ele>17.6</ele><time>2022-05-08T06:14:08.000Z</time></trkpt><trkpt lon="5.812884" lat="51.15708"><ele>17.4</ele><time>2022-05-08T06:14:09.000Z</time></trkpt><trkpt lon="5.812907" lat="51.157145"><ele>17.4</ele><time>2022-05-08T06:14:10.000Z</time></trkpt><trkpt lon="5.812933" lat="51.157209"><ele>17.6</ele><time>2022-05-08T06:14:11.000Z</time></trkpt><trkpt lon="5.812957" lat="51.157272"><ele>17.8</ele><time>2022-05-08T06:14:12.000Z</time></trkpt><trkpt lon="5.81298" lat="51.157334"><ele>18</ele><time>2022-05-08T06:14:13.000Z</time></trkpt><trkpt lon="5.813002" lat="51.157396"><ele>18</ele><time>2022-05-08T06:14:14.000Z</time></trkpt><trkpt lon="5.813023" lat="51.15746"><ele>18.2</ele><time>2022-05-08T06:14:15.000Z</time></trkpt><trkpt lon="5.813044" lat="51.157524"><ele>18</ele><time>2022-05-08T06:14:16.000Z</time></trkpt><trkpt lon="5.813067" lat="51.157589"><ele>17.8</ele><time>2022-05-08T06:14:17.000Z</time></trkpt><trkpt lon="5.813089" lat="51.157653"><ele>17.6</ele><time>2022-05-08T06:14:18.000Z</time></trkpt><trkpt lon="5.813111" lat="51.157716"><ele>17.4</ele><time>2022-05-08T06:14:19.000Z</time></trkpt><trkpt lon="5.813133" lat="51.157782"><ele>17.2</ele><time>2022-05-08T06:14:20.000Z</time></trkpt><trkpt lon="5.813155" lat="51.157848"><ele>17.2</ele><time>2022-05-08T06:14:21.000Z</time></trkpt><trkpt lon="5.813178" lat="51.157913"><ele>17.2</ele><time>2022-05-08T06:14:22.000Z</time></trkpt><trkpt lon="5.813199" lat="51.157978"><ele>17</ele><time>2022-05-08T06:14:23.000Z</time></trkpt><trkpt lon="5.813222" lat="51.158043"><ele>16.8</ele><time>2022-05-08T06:14:24.000Z</time></trkpt><trkpt lon="5.813244" lat="51.158107"><ele>16.8</ele><time>2022-05-08T06:14:25.000Z</time></trkpt><trkpt lon="5.813267" lat="51.158174"><ele>16.6</ele><time>2022-05-08T06:14:26.000Z</time></trkpt><trkpt lon="5.81329" lat="51.158238"><ele>16.6</ele><time>2022-05-08T06:14:27.000Z</time></trkpt><trkpt lon="5.813312" lat="51.158298"><ele>16.4</ele><time>2022-05-08T06:14:28.000Z</time></trkpt><trkpt lon="5.813334" lat="51.158362"><ele>16.6</ele><time>2022-05-08T06:14:29.000Z</time></trkpt><trkpt lon="5.813357" lat="51.158428"><ele>16.6</ele><time>2022-05-08T06:14:30.000Z</time></trkpt><trkpt lon="5.81338" lat="51.158493"><ele>16.6</ele><time>2022-05-08T06:14:31.000Z</time></trkpt><trkpt lon="5.813403" lat="51.158558"><ele>16.6</ele><time>2022-05-08T06:14:32.000Z</time></trkpt><trkpt lon="5.813426" lat="51.158622"><ele>16.6</ele><time>2022-05-08T06:14:33.000Z</time></trkpt><trkpt lon="5.81345" lat="51.158688"><ele>16.8</ele><time>2022-05-08T06:14:34.000Z</time></trkpt><trkpt lon="5.813474" lat="51.15875"><ele>16.8</ele><time>2022-05-08T06:14:35.000Z</time></trkpt><trkpt lon="5.813496" lat="51.158812"><ele>16.8</ele><time>2022-05-08T06:14:36.000Z</time></trkpt><trkpt lon="5.813515" lat="51.158879"><ele>16.8</ele><time>2022-05-08T06:14:37.000Z</time></trkpt><trkpt lon="5.813532" lat="51.158947"><ele>16.8</ele><time>2022-05-08T06:14:38.000Z</time></trkpt><trkpt lon="5.81355" lat="51.159014"><ele>16.8</ele><time>2022-05-08T06:14:39.000Z</time></trkpt><trkpt lon="5.813571" lat="51.15908"><ele>17</ele><time>2022-05-08T06:14:40.000Z</time></trkpt><trkpt lon="5.813594" lat="51.159145"><ele>17.2</ele><time>2022-05-08T06:14:41.000Z</time></trkpt><trkpt lon="5.813616" lat="51.159212"><ele>17.4</ele><time>2022-05-08T06:14:42.000Z</time></trkpt><trkpt lon="5.813638" lat="51.159279"><ele>17.2</ele><time>2022-05-08T06:14:43.000Z</time></trkpt><trkpt lon="5.813659" lat="51.159346"><ele>17.2</ele><time>2022-05-08T06:14:44.000Z</time></trkpt><trkpt lon="5.813683" lat="51.159412"><ele>17.2</ele><time>2022-05-08T06:14:45.000Z</time></trkpt><trkpt lon="5.813707" lat="51.159479"><ele>17.2</ele><time>2022-05-08T06:14:46.000Z</time></trkpt><trkpt lon="5.813732" lat="51.159548"><ele>17.2</ele><time>2022-05-08T06:14:47.000Z</time></trkpt><trkpt lon="5.813757" lat="51.159614"><ele>17</ele><time>2022-05-08T06:14:48.000Z</time></trkpt><trkpt lon="5.813781" lat="51.159679"><ele>17</ele><time>2022-05-08T06:14:49.000Z</time></trkpt><trkpt lon="5.813812" lat="51.159742"><ele>17</ele><time>2022-05-08T06:14:50.000Z</time></trkpt><trkpt lon="5.813849" lat="51.159805"><ele>17</ele><time>2022-05-08T06:14:51.000Z</time></trkpt><trkpt lon="5.813889" lat="51.15987"><ele>16.8</ele><time>2022-05-08T06:14:52.000Z</time></trkpt><trkpt lon="5.813926" lat="51.159932"><ele>16.6</ele><time>2022-05-08T06:14:53.000Z</time></trkpt><trkpt lon="5.813956" lat="51.159996"><ele>16.4</ele><time>2022-05-08T06:14:54.000Z</time></trkpt><trkpt lon="5.81398" lat="51.16006"><ele>16.4</ele><time>2022-05-08T06:14:55.000Z</time></trkpt><trkpt lon="5.814004" lat="51.160121"><ele>16.2</ele><time>2022-05-08T06:14:56.000Z</time></trkpt><trkpt lon="5.814027" lat="51.160183"><ele>16.2</ele><time>2022-05-08T06:14:57.000Z</time></trkpt><trkpt lon="5.814049" lat="51.160247"><ele>16</ele><time>2022-05-08T06:14:58.000Z</time></trkpt><trkpt lon="5.814069" lat="51.160315"><ele>15.8</ele><time>2022-05-08T06:14:59.000Z</time></trkpt><trkpt lon="5.81409" lat="51.160382"><ele>15.8</ele><time>2022-05-08T06:15:00.000Z</time></trkpt><trkpt lon="5.814114" lat="51.160447"><ele>15.6</ele><time>2022-05-08T06:15:01.000Z</time></trkpt><trkpt lon="5.814139" lat="51.160514"><ele>15.6</ele><time>2022-05-08T06:15:02.000Z</time></trkpt><trkpt lon="5.814165" lat="51.160582"><ele>15.4</ele><time>2022-05-08T06:15:03.000Z</time></trkpt><trkpt lon="5.814193" lat="51.160647"><ele>15.4</ele><time>2022-05-08T06:15:04.000Z</time></trkpt><trkpt lon="5.814229" lat="51.160712"><ele>15.2</ele><time>2022-05-08T06:15:05.000Z</time></trkpt><trkpt lon="5.814272" lat="51.160774"><ele>15.2</ele><time>2022-05-08T06:15:06.000Z</time></trkpt><trkpt lon="5.814323" lat="51.160838"><ele>15.2</ele><time>2022-05-08T06:15:07.000Z</time></trkpt><trkpt lon="5.814379" lat="51.160902"><ele>15.2</ele><time>2022-05-08T06:15:08.000Z</time></trkpt><trkpt lon="5.81444" lat="51.16096"><ele>15</ele><time>2022-05-08T06:15:09.000Z</time></trkpt><trkpt lon="5.8145" lat="51.161018"><ele>15.2</ele><time>2022-05-08T06:15:10.000Z</time></trkpt><trkpt lon="5.814554" lat="51.161075"><ele>15.2</ele><time>2022-05-08T06:15:11.000Z</time></trkpt><trkpt lon="5.814597" lat="51.161134"><ele>15.2</ele><time>2022-05-08T06:15:12.000Z</time></trkpt><trkpt lon="5.814624" lat="51.161195"><ele>15.2</ele><time>2022-05-08T06:15:13.000Z</time></trkpt><trkpt lon="5.814628" lat="51.161261"><ele>15.2</ele><time>2022-05-08T06:15:14.000Z</time></trkpt><trkpt lon="5.814609" lat="51.161329"><ele>15.2</ele><time>2022-05-08T06:15:15.000Z</time></trkpt><trkpt lon="5.81458" lat="51.161394"><ele>15.2</ele><time>2022-05-08T06:15:16.000Z</time></trkpt><trkpt lon="5.814554" lat="51.161457"><ele>15.2</ele><time>2022-05-08T06:15:17.000Z</time></trkpt><trkpt lon="5.814544" lat="51.161524"><ele>15.4</ele><time>2022-05-08T06:15:18.000Z</time></trkpt><trkpt lon="5.814552" lat="51.16159"><ele>15.4</ele><time>2022-05-08T06:15:19.000Z</time></trkpt><trkpt lon="5.814569" lat="51.161656"><ele>15.2</ele><time>2022-05-08T06:15:20.000Z</time></trkpt><trkpt lon="5.81459" lat="51.161723"><ele>15.2</ele><time>2022-05-08T06:15:21.000Z</time></trkpt><trkpt lon="5.814614" lat="51.161791"><ele>15.2</ele><time>2022-05-08T06:15:22.000Z</time></trkpt><trkpt lon="5.814638" lat="51.161855"><ele>15.2</ele><time>2022-05-08T06:15:23.000Z</time></trkpt><trkpt lon="5.814661" lat="51.161914"><ele>15.4</ele><time>2022-05-08T06:15:24.000Z</time></trkpt><trkpt lon="5.814682" lat="51.161977"><ele>15.6</ele><time>2022-05-08T06:15:25.000Z</time></trkpt><trkpt lon="5.814702" lat="51.162044"><ele>15.6</ele><time>2022-05-08T06:15:26.000Z</time></trkpt><trkpt lon="5.814723" lat="51.162107"><ele>15.4</ele><time>2022-05-08T06:15:27.000Z</time></trkpt><trkpt lon="5.814744" lat="51.162168"><ele>15.4</ele><time>2022-05-08T06:15:28.000Z</time></trkpt><trkpt lon="5.814766" lat="51.162231"><ele>15.4</ele><time>2022-05-08T06:15:29.000Z</time></trkpt><trkpt lon="5.814787" lat="51.162295"><ele>15.4</ele><time>2022-05-08T06:15:30.000Z</time></trkpt><trkpt lon="5.814807" lat="51.16236"><ele>15.6</ele><time>2022-05-08T06:15:31.000Z</time></trkpt><trkpt lon="5.814829" lat="51.162428"><ele>15.6</ele><time>2022-05-08T06:15:32.000Z</time></trkpt><trkpt lon="5.81485" lat="51.162494"><ele>15.6</ele><time>2022-05-08T06:15:33.000Z</time></trkpt><trkpt lon="5.81487" lat="51.162557"><ele>15.6</ele><time>2022-05-08T06:15:34.000Z</time></trkpt><trkpt lon="5.814892" lat="51.162618"><ele>15.6</ele><time>2022-05-08T06:15:35.000Z</time></trkpt><trkpt lon="5.814913" lat="51.162679"><ele>15.6</ele><time>2022-05-08T06:15:36.000Z</time></trkpt><trkpt lon="5.814932" lat="51.162742"><ele>15.6</ele><time>2022-05-08T06:15:37.000Z</time></trkpt><trkpt lon="5.814951" lat="51.162805"><ele>15.6</ele><time>2022-05-08T06:15:38.000Z</time></trkpt><trkpt lon="5.814972" lat="51.162866"><ele>15.8</ele><time>2022-05-08T06:15:39.000Z</time></trkpt><trkpt lon="5.814995" lat="51.162927"><ele>15.8</ele><time>2022-05-08T06:15:40.000Z</time></trkpt><trkpt lon="5.815017" lat="51.162988"><ele>15.8</ele><time>2022-05-08T06:15:41.000Z</time></trkpt><trkpt lon="5.815039" lat="51.163051"><ele>15.8</ele><time>2022-05-08T06:15:42.000Z</time></trkpt><trkpt lon="5.815061" lat="51.163113"><ele>15.8</ele><time>2022-05-08T06:15:43.000Z</time></trkpt><trkpt lon="5.815081" lat="51.163175"><ele>15.8</ele><time>2022-05-08T06:15:44.000Z</time></trkpt><trkpt lon="5.815102" lat="51.163238"><ele>15.8</ele><time>2022-05-08T06:15:45.000Z</time></trkpt><trkpt lon="5.815125" lat="51.163297"><ele>15.8</ele><time>2022-05-08T06:15:46.000Z</time></trkpt><trkpt lon="5.815148" lat="51.163359"><ele>15.8</ele><time>2022-05-08T06:15:47.000Z</time></trkpt><trkpt lon="5.815172" lat="51.163423"><ele>15.8</ele><time>2022-05-08T06:15:48.000Z</time></trkpt><trkpt lon="5.815195" lat="51.163486"><ele>15.8</ele><time>2022-05-08T06:15:49.000Z</time></trkpt><trkpt lon="5.815219" lat="51.163551"><ele>15.8</ele><time>2022-05-08T06:15:50.000Z</time></trkpt><trkpt lon="5.815241" lat="51.163614"><ele>15.6</ele><time>2022-05-08T06:15:51.000Z</time></trkpt><trkpt lon="5.815263" lat="51.163675"><ele>15.6</ele><time>2022-05-08T06:15:52.000Z</time></trkpt><trkpt lon="5.815282" lat="51.163737"><ele>15.6</ele><time>2022-05-08T06:15:53.000Z</time></trkpt><trkpt lon="5.8153" lat="51.163805"><ele>15.4</ele><time>2022-05-08T06:15:54.000Z</time></trkpt><trkpt lon="5.815318" lat="51.163871"><ele>15.4</ele><time>2022-05-08T06:15:55.000Z</time></trkpt><trkpt lon="5.815338" lat="51.163936"><ele>15.6</ele><time>2022-05-08T06:15:56.000Z</time></trkpt><trkpt lon="5.815359" lat="51.163999"><ele>15.6</ele><time>2022-05-08T06:15:57.000Z</time></trkpt><trkpt lon="5.81538" lat="51.164062"><ele>15.6</ele><time>2022-05-08T06:15:58.000Z</time></trkpt><trkpt lon="5.8154" lat="51.164127"><ele>15.8</ele><time>2022-05-08T06:15:59.000Z</time></trkpt><trkpt lon="5.81542" lat="51.164191"><ele>15.8</ele><time>2022-05-08T06:16:00.000Z</time></trkpt><trkpt lon="5.815442" lat="51.164256"><ele>15.8</ele><time>2022-05-08T06:16:01.000Z</time></trkpt><trkpt lon="5.815464" lat="51.164321"><ele>15.8</ele><time>2022-05-08T06:16:02.000Z</time></trkpt><trkpt lon="5.815486" lat="51.164385"><ele>15.8</ele><time>2022-05-08T06:16:03.000Z</time></trkpt><trkpt lon="5.815507" lat="51.16445"><ele>16</ele><time>2022-05-08T06:16:04.000Z</time></trkpt><trkpt lon="5.815529" lat="51.164516"><ele>16</ele><time>2022-05-08T06:16:05.000Z</time></trkpt><trkpt lon="5.815552" lat="51.164581"><ele>16</ele><time>2022-05-08T06:16:06.000Z</time></trkpt><trkpt lon="5.815577" lat="51.164643"><ele>16.2</ele><time>2022-05-08T06:16:07.000Z</time></trkpt><trkpt lon="5.815602" lat="51.164708"><ele>16.4</ele><time>2022-05-08T06:16:08.000Z</time></trkpt><trkpt lon="5.815624" lat="51.164775"><ele>16.4</ele><time>2022-05-08T06:16:09.000Z</time></trkpt><trkpt lon="5.815646" lat="51.164839"><ele>16.4</ele><time>2022-05-08T06:16:10.000Z</time></trkpt><trkpt lon="5.815668" lat="51.164904"><ele>16.6</ele><time>2022-05-08T06:16:11.000Z</time></trkpt><trkpt lon="5.815692" lat="51.16497"><ele>16.6</ele><time>2022-05-08T06:16:12.000Z</time></trkpt><trkpt lon="5.815718" lat="51.165035"><ele>16.8</ele><time>2022-05-08T06:16:13.000Z</time></trkpt><trkpt lon="5.815746" lat="51.165099"><ele>16.8</ele><time>2022-05-08T06:16:14.000Z</time></trkpt><trkpt lon="5.815775" lat="51.165166"><ele>17</ele><time>2022-05-08T06:16:15.000Z</time></trkpt><trkpt lon="5.815809" lat="51.165231"><ele>17</ele><time>2022-05-08T06:16:16.000Z</time></trkpt><trkpt lon="5.815845" lat="51.165296"><ele>17.2</ele><time>2022-05-08T06:16:17.000Z</time></trkpt><trkpt lon="5.815882" lat="51.165361"><ele>17.2</ele><time>2022-05-08T06:16:18.000Z</time></trkpt><trkpt lon="5.815923" lat="51.165424"><ele>17.2</ele><time>2022-05-08T06:16:19.000Z</time></trkpt><trkpt lon="5.815966" lat="51.165486"><ele>17.4</ele><time>2022-05-08T06:16:20.000Z</time></trkpt><trkpt lon="5.816011" lat="51.165547"><ele>17.4</ele><time>2022-05-08T06:16:21.000Z</time></trkpt><trkpt lon="5.816059" lat="51.165611"><ele>17.2</ele><time>2022-05-08T06:16:22.000Z</time></trkpt><trkpt lon="5.816112" lat="51.165671"><ele>17.2</ele><time>2022-05-08T06:16:23.000Z</time></trkpt><trkpt lon="5.816169" lat="51.165728"><ele>17</ele><time>2022-05-08T06:16:24.000Z</time></trkpt><trkpt lon="5.816227" lat="51.165785"><ele>16.8</ele><time>2022-05-08T06:16:25.000Z</time></trkpt><trkpt lon="5.816289" lat="51.16584"><ele>16.6</ele><time>2022-05-08T06:16:26.000Z</time></trkpt><trkpt lon="5.816353" lat="51.165894"><ele>16.6</ele><time>2022-05-08T06:16:27.000Z</time></trkpt><trkpt lon="5.816417" lat="51.165947"><ele>16.6</ele><time>2022-05-08T06:16:28.000Z</time></trkpt><trkpt lon="5.81648" lat="51.165998"><ele>16.6</ele><time>2022-05-08T06:16:29.000Z</time></trkpt><trkpt lon="5.816545" lat="51.166048"><ele>16.8</ele><time>2022-05-08T06:16:30.000Z</time></trkpt><trkpt lon="5.816612" lat="51.166098"><ele>16.8</ele><time>2022-05-08T06:16:31.000Z</time></trkpt><trkpt lon="5.816683" lat="51.166143"><ele>16.8</ele><time>2022-05-08T06:16:32.000Z</time></trkpt><trkpt lon="5.816758" lat="51.166185"><ele>16.8</ele><time>2022-05-08T06:16:33.000Z</time></trkpt><trkpt lon="5.816834" lat="51.166225"><ele>16.8</ele><time>2022-05-08T06:16:34.000Z</time></trkpt><trkpt lon="5.816911" lat="51.166265"><ele>17</ele><time>2022-05-08T06:16:35.000Z</time></trkpt><trkpt lon="5.816989" lat="51.166307"><ele>17</ele><time>2022-05-08T06:16:36.000Z</time></trkpt><trkpt lon="5.817064" lat="51.166346"><ele>17</ele><time>2022-05-08T06:16:37.000Z</time></trkpt><trkpt lon="5.81714" lat="51.166387"><ele>16.8</ele><time>2022-05-08T06:16:38.000Z</time></trkpt><trkpt lon="5.817218" lat="51.166427"><ele>16.8</ele><time>2022-05-08T06:16:39.000Z</time></trkpt><trkpt lon="5.817295" lat="51.166462"><ele>16.8</ele><time>2022-05-08T06:16:40.000Z</time></trkpt><trkpt lon="5.817372" lat="51.166496"><ele>16.8</ele><time>2022-05-08T06:16:41.000Z</time></trkpt><trkpt lon="5.817461" lat="51.166527"><ele>16.8</ele><time>2022-05-08T06:16:42.000Z</time></trkpt><trkpt lon="5.817555" lat="51.16656"><ele>16.8</ele><time>2022-05-08T06:16:43.000Z</time></trkpt><trkpt lon="5.817645" lat="51.166596"><ele>16.8</ele><time>2022-05-08T06:16:44.000Z</time></trkpt><trkpt lon="5.817737" lat="51.166631"><ele>16.6</ele><time>2022-05-08T06:16:45.000Z</time></trkpt><trkpt lon="5.817829" lat="51.166665"><ele>16.6</ele><time>2022-05-08T06:16:46.000Z</time></trkpt><trkpt lon="5.817922" lat="51.166699"><ele>16.8</ele><time>2022-05-08T06:16:47.000Z</time></trkpt><trkpt lon="5.818015" lat="51.166735"><ele>16.8</ele><time>2022-05-08T06:16:48.000Z</time></trkpt><trkpt lon="5.818109" lat="51.166776"><ele>16.6</ele><time>2022-05-08T06:16:49.000Z</time></trkpt><trkpt lon="5.818204" lat="51.166816"><ele>16.6</ele><time>2022-05-08T06:16:50.000Z</time></trkpt><trkpt lon="5.818297" lat="51.166856"><ele>16.4</ele><time>2022-05-08T06:16:51.000Z</time></trkpt><trkpt lon="5.818388" lat="51.166898"><ele>16.2</ele><time>2022-05-08T06:16:52.000Z</time></trkpt><trkpt lon="5.818477" lat="51.166938"><ele>16</ele><time>2022-05-08T06:16:53.000Z</time></trkpt><trkpt lon="5.818569" lat="51.166974"><ele>16.2</ele><time>2022-05-08T06:16:54.000Z</time></trkpt><trkpt lon="5.818663" lat="51.167008"><ele>16.2</ele><time>2022-05-08T06:16:55.000Z</time></trkpt><trkpt lon="5.818751" lat="51.167045"><ele>16.2</ele><time>2022-05-08T06:16:56.000Z</time></trkpt><trkpt lon="5.818835" lat="51.167083"><ele>16.2</ele><time>2022-05-08T06:16:57.000Z</time></trkpt><trkpt lon="5.81892" lat="51.167121"><ele>16.2</ele><time>2022-05-08T06:16:58.000Z</time></trkpt><trkpt lon="5.819004" lat="51.167159"><ele>16</ele><time>2022-05-08T06:16:59.000Z</time></trkpt><trkpt lon="5.819088" lat="51.167199"><ele>15.8</ele><time>2022-05-08T06:17:00.000Z</time></trkpt><trkpt lon="5.81917" lat="51.167241"><ele>15.8</ele><time>2022-05-08T06:17:01.000Z</time></trkpt><trkpt lon="5.819251" lat="51.167284"><ele>15.6</ele><time>2022-05-08T06:17:02.000Z</time></trkpt><trkpt lon="5.819327" lat="51.167326"><ele>15.8</ele><time>2022-05-08T06:17:03.000Z</time></trkpt><trkpt lon="5.819405" lat="51.167363"><ele>15.8</ele><time>2022-05-08T06:17:04.000Z</time></trkpt><trkpt lon="5.819488" lat="51.167397"><ele>16</ele><time>2022-05-08T06:17:05.000Z</time></trkpt><trkpt lon="5.819575" lat="51.167432"><ele>16</ele><time>2022-05-08T06:17:06.000Z</time></trkpt><trkpt lon="5.819665" lat="51.167464"><ele>16</ele><time>2022-05-08T06:17:07.000Z</time></trkpt><trkpt lon="5.819756" lat="51.167494"><ele>16</ele><time>2022-05-08T06:17:08.000Z</time></trkpt><trkpt lon="5.819853" lat="51.167527"><ele>16</ele><time>2022-05-08T06:17:09.000Z</time></trkpt><trkpt lon="5.819949" lat="51.167564"><ele>16</ele><time>2022-05-08T06:17:10.000Z</time></trkpt><trkpt lon="5.820038" lat="51.167599"><ele>16</ele><time>2022-05-08T06:17:11.000Z</time></trkpt><trkpt lon="5.820121" lat="51.167636"><ele>16</ele><time>2022-05-08T06:17:12.000Z</time></trkpt><trkpt lon="5.820206" lat="51.167679"><ele>16</ele><time>2022-05-08T06:17:13.000Z</time></trkpt><trkpt lon="5.820295" lat="51.16772"><ele>16</ele><time>2022-05-08T06:17:14.000Z</time></trkpt><trkpt lon="5.82038" lat="51.167762"><ele>16</ele><time>2022-05-08T06:17:15.000Z</time></trkpt><trkpt lon="5.820467" lat="51.167804"><ele>15.8</ele><time>2022-05-08T06:17:16.000Z</time></trkpt><trkpt lon="5.820555" lat="51.167842"><ele>15.8</ele><time>2022-05-08T06:17:17.000Z</time></trkpt><trkpt lon="5.820649" lat="51.167882"><ele>15.8</ele><time>2022-05-08T06:17:18.000Z</time></trkpt><trkpt lon="5.820742" lat="51.16792"><ele>15.8</ele><time>2022-05-08T06:17:19.000Z</time></trkpt><trkpt lon="5.820836" lat="51.167956"><ele>15.6</ele><time>2022-05-08T06:17:20.000Z</time></trkpt><trkpt lon="5.820927" lat="51.167993"><ele>15.8</ele><time>2022-05-08T06:17:21.000Z</time></trkpt><trkpt lon="5.821016" lat="51.168029"><ele>15.8</ele><time>2022-05-08T06:17:22.000Z</time></trkpt><trkpt lon="5.821105" lat="51.168065"><ele>15.8</ele><time>2022-05-08T06:17:23.000Z</time></trkpt><trkpt lon="5.821196" lat="51.168099"><ele>15.6</ele><time>2022-05-08T06:17:24.000Z</time></trkpt><trkpt lon="5.821287" lat="51.168136"><ele>15.6</ele><time>2022-05-08T06:17:25.000Z</time></trkpt><trkpt lon="5.821378" lat="51.168174"><ele>15.6</ele><time>2022-05-08T06:17:26.000Z</time></trkpt><trkpt lon="5.82147" lat="51.168214"><ele>15.4</ele><time>2022-05-08T06:17:27.000Z</time></trkpt><trkpt lon="5.821559" lat="51.168257"><ele>15.4</ele><time>2022-05-08T06:17:28.000Z</time></trkpt><trkpt lon="5.821645" lat="51.168298"><ele>15.4</ele><time>2022-05-08T06:17:29.000Z</time></trkpt><trkpt lon="5.821731" lat="51.168338"><ele>15.4</ele><time>2022-05-08T06:17:30.000Z</time></trkpt><trkpt lon="5.821819" lat="51.168378"><ele>15.4</ele><time>2022-05-08T06:17:31.000Z</time></trkpt><trkpt lon="5.821906" lat="51.16842"><ele>15.6</ele><time>2022-05-08T06:17:32.000Z</time></trkpt><trkpt lon="5.821985" lat="51.168463"><ele>15.6</ele><time>2022-05-08T06:17:33.000Z</time></trkpt><trkpt lon="5.822063" lat="51.168509"><ele>15.4</ele><time>2022-05-08T06:17:34.000Z</time></trkpt><trkpt lon="5.822144" lat="51.168554"><ele>15.2</ele><time>2022-05-08T06:17:35.000Z</time></trkpt><trkpt lon="5.822227" lat="51.168596"><ele>15.2</ele><time>2022-05-08T06:17:36.000Z</time></trkpt><trkpt lon="5.822316" lat="51.168638"><ele>15</ele><time>2022-05-08T06:17:37.000Z</time></trkpt><trkpt lon="5.822409" lat="51.168677"><ele>14.8</ele><time>2022-05-08T06:17:38.000Z</time></trkpt><trkpt lon="5.822503" lat="51.168718"><ele>14.6</ele><time>2022-05-08T06:17:39.000Z</time></trkpt><trkpt lon="5.822597" lat="51.168757"><ele>14.6</ele><time>2022-05-08T06:17:40.000Z</time></trkpt><trkpt lon="5.82269" lat="51.168798"><ele>14.4</ele><time>2022-05-08T06:17:41.000Z</time></trkpt><trkpt lon="5.822782" lat="51.168838"><ele>14.6</ele><time>2022-05-08T06:17:42.000Z</time></trkpt><trkpt lon="5.822875" lat="51.168876"><ele>14.6</ele><time>2022-05-08T06:17:43.000Z</time></trkpt><trkpt lon="5.822967" lat="51.168912"><ele>14.6</ele><time>2022-05-08T06:17:44.000Z</time></trkpt><trkpt lon="5.82306" lat="51.168948"><ele>14.6</ele><time>2022-05-08T06:17:45.000Z</time></trkpt><trkpt lon="5.823154" lat="51.168984"><ele>14.4</ele><time>2022-05-08T06:17:46.000Z</time></trkpt><trkpt lon="5.823247" lat="51.169021"><ele>14.2</ele><time>2022-05-08T06:17:47.000Z</time></trkpt><trkpt lon="5.823339" lat="51.169059"><ele>14.2</ele><time>2022-05-08T06:17:48.000Z</time></trkpt><trkpt lon="5.823428" lat="51.169095"><ele>14.4</ele><time>2022-05-08T06:17:49.000Z</time></trkpt><trkpt lon="5.823514" lat="51.169131"><ele>14.4</ele><time>2022-05-08T06:17:50.000Z</time></trkpt><trkpt lon="5.8236" lat="51.16917"><ele>14.2</ele><time>2022-05-08T06:17:51.000Z</time></trkpt><trkpt lon="5.823686" lat="51.169208"><ele>14.2</ele><time>2022-05-08T06:17:52.000Z</time></trkpt><trkpt lon="5.823772" lat="51.169246"><ele>14.2</ele><time>2022-05-08T06:17:53.000Z</time></trkpt><trkpt lon="5.823858" lat="51.169286"><ele>14.2</ele><time>2022-05-08T06:17:54.000Z</time></trkpt><trkpt lon="5.823944" lat="51.169326"><ele>14.2</ele><time>2022-05-08T06:17:55.000Z</time></trkpt><trkpt lon="5.824029" lat="51.169364"><ele>14</ele><time>2022-05-08T06:17:56.000Z</time></trkpt><trkpt lon="5.824114" lat="51.169404"><ele>13.8</ele><time>2022-05-08T06:17:57.000Z</time></trkpt><trkpt lon="5.824199" lat="51.169444"><ele>14</ele><time>2022-05-08T06:17:58.000Z</time></trkpt><trkpt lon="5.824282" lat="51.169482"><ele>14.2</ele><time>2022-05-08T06:17:59.000Z</time></trkpt><trkpt lon="5.824365" lat="51.169518"><ele>14.2</ele><time>2022-05-08T06:18:00.000Z</time></trkpt><trkpt lon="5.824444" lat="51.169553"><ele>14.2</ele><time>2022-05-08T06:18:01.000Z</time></trkpt><trkpt lon="5.824516" lat="51.169585"><ele>14</ele><time>2022-05-08T06:18:02.000Z</time></trkpt><trkpt lon="5.824579" lat="51.169615"><ele>14</ele><time>2022-05-08T06:18:03.000Z</time></trkpt><trkpt lon="5.824642" lat="51.169643"><ele>14</ele><time>2022-05-08T06:18:04.000Z</time></trkpt><trkpt lon="5.824707" lat="51.16967"><ele>14</ele><time>2022-05-08T06:18:05.000Z</time></trkpt><trkpt lon="5.824779" lat="51.169697"><ele>14.2</ele><time>2022-05-08T06:18:06.000Z</time></trkpt><trkpt lon="5.824853" lat="51.169724"><ele>14.2</ele><time>2022-05-08T06:18:07.000Z</time></trkpt><trkpt lon="5.824927" lat="51.169755"><ele>14.4</ele><time>2022-05-08T06:18:08.000Z</time></trkpt><trkpt lon="5.825003" lat="51.169787"><ele>14.4</ele><time>2022-05-08T06:18:09.000Z</time></trkpt><trkpt lon="5.825083" lat="51.169821"><ele>14.6</ele><time>2022-05-08T06:18:10.000Z</time></trkpt><trkpt lon="5.825167" lat="51.16986"><ele>14.6</ele><time>2022-05-08T06:18:11.000Z</time></trkpt><trkpt lon="5.825254" lat="51.169894"><ele>14.8</ele><time>2022-05-08T06:18:12.000Z</time></trkpt><trkpt lon="5.82534" lat="51.169927"><ele>14.8</ele><time>2022-05-08T06:18:13.000Z</time></trkpt><trkpt lon="5.825425" lat="51.16996"><ele>15</ele><time>2022-05-08T06:18:14.000Z</time></trkpt><trkpt lon="5.825514" lat="51.169994"><ele>15.2</ele><time>2022-05-08T06:18:15.000Z</time></trkpt><trkpt lon="5.825602" lat="51.170031"><ele>15.2</ele><time>2022-05-08T06:18:16.000Z</time></trkpt><trkpt lon="5.825686" lat="51.170066"><ele>15.2</ele><time>2022-05-08T06:18:17.000Z</time></trkpt><trkpt lon="5.825773" lat="51.170104"><ele>15</ele><time>2022-05-08T06:18:18.000Z</time></trkpt><trkpt lon="5.825858" lat="51.170143"><ele>15.2</ele><time>2022-05-08T06:18:19.000Z</time></trkpt><trkpt lon="5.825945" lat="51.170181"><ele>15</ele><time>2022-05-08T06:18:20.000Z</time></trkpt><trkpt lon="5.826032" lat="51.170221"><ele>15.2</ele><time>2022-05-08T06:18:21.000Z</time></trkpt><trkpt lon="5.826121" lat="51.170261"><ele>15.2</ele><time>2022-05-08T06:18:22.000Z</time></trkpt><trkpt lon="5.826212" lat="51.170299"><ele>15.2</ele><time>2022-05-08T06:18:23.000Z</time></trkpt><trkpt lon="5.826303" lat="51.170337"><ele>15.4</ele><time>2022-05-08T06:18:24.000Z</time></trkpt><trkpt lon="5.826395" lat="51.170377"><ele>15.4</ele><time>2022-05-08T06:18:25.000Z</time></trkpt><trkpt lon="5.826485" lat="51.170419"><ele>15.6</ele><time>2022-05-08T06:18:26.000Z</time></trkpt><trkpt lon="5.826575" lat="51.170458"><ele>15.6</ele><time>2022-05-08T06:18:27.000Z</time></trkpt><trkpt lon="5.826668" lat="51.170499"><ele>15.6</ele><time>2022-05-08T06:18:28.000Z</time></trkpt><trkpt lon="5.82676" lat="51.170539"><ele>15.4</ele><time>2022-05-08T06:18:29.000Z</time></trkpt><trkpt lon="5.826851" lat="51.170579"><ele>15.4</ele><time>2022-05-08T06:18:30.000Z</time></trkpt><trkpt lon="5.826941" lat="51.170619"><ele>15.4</ele><time>2022-05-08T06:18:31.000Z</time></trkpt><trkpt lon="5.82703" lat="51.170657"><ele>15.4</ele><time>2022-05-08T06:18:32.000Z</time></trkpt><trkpt lon="5.827117" lat="51.170695"><ele>15.4</ele><time>2022-05-08T06:18:33.000Z</time></trkpt><trkpt lon="5.827203" lat="51.170734"><ele>15.4</ele><time>2022-05-08T06:18:34.000Z</time></trkpt><trkpt lon="5.827288" lat="51.17077"><ele>15.4</ele><time>2022-05-08T06:18:35.000Z</time></trkpt><trkpt lon="5.827378" lat="51.170804"><ele>15.4</ele><time>2022-05-08T06:18:36.000Z</time></trkpt><trkpt lon="5.827468" lat="51.170843"><ele>15.2</ele><time>2022-05-08T06:18:37.000Z</time></trkpt><trkpt lon="5.827554" lat="51.170884"><ele>15</ele><time>2022-05-08T06:18:38.000Z</time></trkpt><trkpt lon="5.827642" lat="51.170922"><ele>15</ele><time>2022-05-08T06:18:39.000Z</time></trkpt><trkpt lon="5.827734" lat="51.170961"><ele>15</ele><time>2022-05-08T06:18:40.000Z</time></trkpt><trkpt lon="5.827822" lat="51.171001"><ele>15</ele><time>2022-05-08T06:18:41.000Z</time></trkpt><trkpt lon="5.827909" lat="51.171039"><ele>15</ele><time>2022-05-08T06:18:42.000Z</time></trkpt><trkpt lon="5.827995" lat="51.171079"><ele>15.2</ele><time>2022-05-08T06:18:43.000Z</time></trkpt><trkpt lon="5.82808" lat="51.171121"><ele>15.2</ele><time>2022-05-08T06:18:44.000Z</time></trkpt><trkpt lon="5.828166" lat="51.171161"><ele>15.4</ele><time>2022-05-08T06:18:45.000Z</time></trkpt><trkpt lon="5.828253" lat="51.171201"><ele>15.4</ele><time>2022-05-08T06:18:46.000Z</time></trkpt><trkpt lon="5.828339" lat="51.171241"><ele>15.6</ele><time>2022-05-08T06:18:47.000Z</time></trkpt><trkpt lon="5.828425" lat="51.171279"><ele>15.6</ele><time>2022-05-08T06:18:48.000Z</time></trkpt><trkpt lon="5.828511" lat="51.171319"><ele>15.6</ele><time>2022-05-08T06:18:49.000Z</time></trkpt><trkpt lon="5.828598" lat="51.171359"><ele>15.6</ele><time>2022-05-08T06:18:50.000Z</time></trkpt><trkpt lon="5.828685" lat="51.171397"><ele>15.4</ele><time>2022-05-08T06:18:51.000Z</time></trkpt><trkpt lon="5.828771" lat="51.171436"><ele>15.4</ele><time>2022-05-08T06:18:52.000Z</time></trkpt><trkpt lon="5.828855" lat="51.171474"><ele>15.4</ele><time>2022-05-08T06:18:53.000Z</time></trkpt><trkpt lon="5.828942" lat="51.17151"><ele>15.4</ele><time>2022-05-08T06:18:54.000Z</time></trkpt><trkpt lon="5.829032" lat="51.171546"><ele>15.4</ele><time>2022-05-08T06:18:55.000Z</time></trkpt><trkpt lon="5.829124" lat="51.171584"><ele>15.4</ele><time>2022-05-08T06:18:56.000Z</time></trkpt><trkpt lon="5.829216" lat="51.171623"><ele>15.6</ele><time>2022-05-08T06:18:57.000Z</time></trkpt><trkpt lon="5.829307" lat="51.171663"><ele>15.6</ele><time>2022-05-08T06:18:58.000Z</time></trkpt><trkpt lon="5.829397" lat="51.171703"><ele>15.6</ele><time>2022-05-08T06:18:59.000Z</time></trkpt><trkpt lon="5.829486" lat="51.171741"><ele>15.6</ele><time>2022-05-08T06:19:00.000Z</time></trkpt><trkpt lon="5.829575" lat="51.171779"><ele>15.4</ele><time>2022-05-08T06:19:01.000Z</time></trkpt><trkpt lon="5.829664" lat="51.171817"><ele>15.4</ele><time>2022-05-08T06:19:02.000Z</time></trkpt><trkpt lon="5.829754" lat="51.171855"><ele>15.6</ele><time>2022-05-08T06:19:03.000Z</time></trkpt><trkpt lon="5.829848" lat="51.171893"><ele>15.6</ele><time>2022-05-08T06:19:04.000Z</time></trkpt><trkpt lon="5.82994" lat="51.171931"><ele>15.6</ele><time>2022-05-08T06:19:05.000Z</time></trkpt><trkpt lon="5.830029" lat="51.171967"><ele>15.6</ele><time>2022-05-08T06:19:06.000Z</time></trkpt><trkpt lon="5.830121" lat="51.172004"><ele>15.6</ele><time>2022-05-08T06:19:07.000Z</time></trkpt><trkpt lon="5.830215" lat="51.172042"><ele>15.6</ele><time>2022-05-08T06:19:08.000Z</time></trkpt><trkpt lon="5.830307" lat="51.172082"><ele>15.6</ele><time>2022-05-08T06:19:09.000Z</time></trkpt><trkpt lon="5.830396" lat="51.172122"><ele>15.6</ele><time>2022-05-08T06:19:10.000Z</time></trkpt><trkpt lon="5.830484" lat="51.17216"><ele>15.6</ele><time>2022-05-08T06:19:11.000Z</time></trkpt><trkpt lon="5.830572" lat="51.172196"><ele>15.6</ele><time>2022-05-08T06:19:12.000Z</time></trkpt><trkpt lon="5.830658" lat="51.172233"><ele>15.6</ele><time>2022-05-08T06:19:13.000Z</time></trkpt><trkpt lon="5.830741" lat="51.172271"><ele>15.6</ele><time>2022-05-08T06:19:14.000Z</time></trkpt><trkpt lon="5.830825" lat="51.172309"><ele>15.6</ele><time>2022-05-08T06:19:15.000Z</time></trkpt><trkpt lon="5.83091" lat="51.172347"><ele>15.6</ele><time>2022-05-08T06:19:16.000Z</time></trkpt><trkpt lon="5.830997" lat="51.172385"><ele>15.6</ele><time>2022-05-08T06:19:17.000Z</time></trkpt><trkpt lon="5.831088" lat="51.172426"><ele>15.6</ele><time>2022-05-08T06:19:18.000Z</time></trkpt><trkpt lon="5.831179" lat="51.172465"><ele>15.6</ele><time>2022-05-08T06:19:19.000Z</time></trkpt><trkpt lon="5.831266" lat="51.172506"><ele>15.6</ele><time>2022-05-08T06:19:20.000Z</time></trkpt><trkpt lon="5.831351" lat="51.172543"><ele>15.6</ele><time>2022-05-08T06:19:21.000Z</time></trkpt><trkpt lon="5.831438" lat="51.172578"><ele>15.6</ele><time>2022-05-08T06:19:22.000Z</time></trkpt><trkpt lon="5.831527" lat="51.172614"><ele>15.4</ele><time>2022-05-08T06:19:23.000Z</time></trkpt><trkpt lon="5.831614" lat="51.172654"><ele>15.4</ele><time>2022-05-08T06:19:24.000Z</time></trkpt><trkpt lon="5.831699" lat="51.172694"><ele>15.2</ele><time>2022-05-08T06:19:25.000Z</time></trkpt><trkpt lon="5.831785" lat="51.172728"><ele>14.8</ele><time>2022-05-08T06:19:26.000Z</time></trkpt><trkpt lon="5.831873" lat="51.172763"><ele>14.6</ele><time>2022-05-08T06:19:27.000Z</time></trkpt><trkpt lon="5.831964" lat="51.172803"><ele>14.4</ele><time>2022-05-08T06:19:28.000Z</time></trkpt><trkpt lon="5.832058" lat="51.172847"><ele>14.2</ele><time>2022-05-08T06:19:29.000Z</time></trkpt><trkpt lon="5.832156" lat="51.172891"><ele>14.2</ele><time>2022-05-08T06:19:30.000Z</time></trkpt><trkpt lon="5.832255" lat="51.172933"><ele>14</ele><time>2022-05-08T06:19:31.000Z</time></trkpt><trkpt lon="5.832352" lat="51.172975"><ele>13.8</ele><time>2022-05-08T06:19:32.000Z</time></trkpt><trkpt lon="5.832449" lat="51.173017"><ele>14</ele><time>2022-05-08T06:19:33.000Z</time></trkpt><trkpt lon="5.832546" lat="51.173057"><ele>14</ele><time>2022-05-08T06:19:34.000Z</time></trkpt><trkpt lon="5.832643" lat="51.173097"><ele>14.2</ele><time>2022-05-08T06:19:35.000Z</time></trkpt><trkpt lon="5.832737" lat="51.173137"><ele>14.2</ele><time>2022-05-08T06:19:36.000Z</time></trkpt><trkpt lon="5.832827" lat="51.173177"><ele>14.2</ele><time>2022-05-08T06:19:37.000Z</time></trkpt><trkpt lon="5.832916" lat="51.173217"><ele>14.4</ele><time>2022-05-08T06:19:38.000Z</time></trkpt><trkpt lon="5.833004" lat="51.173255"><ele>14.4</ele><time>2022-05-08T06:19:39.000Z</time></trkpt><trkpt lon="5.833091" lat="51.173293"><ele>14.6</ele><time>2022-05-08T06:19:40.000Z</time></trkpt><trkpt lon="5.83318" lat="51.173334"><ele>14.6</ele><time>2022-05-08T06:19:41.000Z</time></trkpt><trkpt lon="5.833267" lat="51.173373"><ele>14.8</ele><time>2022-05-08T06:19:42.000Z</time></trkpt><trkpt lon="5.833355" lat="51.173414"><ele>14.8</ele><time>2022-05-08T06:19:43.000Z</time></trkpt><trkpt lon="5.833446" lat="51.173452"><ele>15</ele><time>2022-05-08T06:19:44.000Z</time></trkpt><trkpt lon="5.833536" lat="51.173486"><ele>15.2</ele><time>2022-05-08T06:19:45.000Z</time></trkpt><trkpt lon="5.833624" lat="51.17352"><ele>15.2</ele><time>2022-05-08T06:19:46.000Z</time></trkpt><trkpt lon="5.833712" lat="51.173552"><ele>15.4</ele><time>2022-05-08T06:19:47.000Z</time></trkpt><trkpt lon="5.833799" lat="51.173589"><ele>15.6</ele><time>2022-05-08T06:19:48.000Z</time></trkpt><trkpt lon="5.833884" lat="51.173629"><ele>15.6</ele><time>2022-05-08T06:19:49.000Z</time></trkpt><trkpt lon="5.83397" lat="51.173667"><ele>15.6</ele><time>2022-05-08T06:19:50.000Z</time></trkpt><trkpt lon="5.834056" lat="51.173708"><ele>15.8</ele><time>2022-05-08T06:19:51.000Z</time></trkpt><trkpt lon="5.83414" lat="51.173747"><ele>15.8</ele><time>2022-05-08T06:19:52.000Z</time></trkpt><trkpt lon="5.834225" lat="51.173788"><ele>16</ele><time>2022-05-08T06:19:53.000Z</time></trkpt><trkpt lon="5.834313" lat="51.173827"><ele>16</ele><time>2022-05-08T06:19:54.000Z</time></trkpt><trkpt lon="5.834401" lat="51.173865"><ele>16</ele><time>2022-05-08T06:19:55.000Z</time></trkpt><trkpt lon="5.834487" lat="51.173906"><ele>16.2</ele><time>2022-05-08T06:19:56.000Z</time></trkpt><trkpt lon="5.834573" lat="51.173945"><ele>16.2</ele><time>2022-05-08T06:19:57.000Z</time></trkpt><trkpt lon="5.83466" lat="51.173982"><ele>16.2</ele><time>2022-05-08T06:19:58.000Z</time></trkpt><trkpt lon="5.834746" lat="51.174018"><ele>16.2</ele><time>2022-05-08T06:19:59.000Z</time></trkpt><trkpt lon="5.834829" lat="51.174056"><ele>16.2</ele><time>2022-05-08T06:20:00.000Z</time></trkpt><trkpt lon="5.834916" lat="51.174092"><ele>16.2</ele><time>2022-05-08T06:20:01.000Z</time></trkpt><trkpt lon="5.835003" lat="51.174128"><ele>16.2</ele><time>2022-05-08T06:20:02.000Z</time></trkpt><trkpt lon="5.83509" lat="51.174164"><ele>16.2</ele><time>2022-05-08T06:20:03.000Z</time></trkpt><trkpt lon="5.835174" lat="51.174199"><ele>16.4</ele><time>2022-05-08T06:20:04.000Z</time></trkpt><trkpt lon="5.835259" lat="51.174235"><ele>16.2</ele><time>2022-05-08T06:20:05.000Z</time></trkpt><trkpt lon="5.835344" lat="51.174276"><ele>16</ele><time>2022-05-08T06:20:06.000Z</time></trkpt><trkpt lon="5.835431" lat="51.174315"><ele>16</ele><time>2022-05-08T06:20:07.000Z</time></trkpt><trkpt lon="5.83552" lat="51.174352"><ele>16</ele><time>2022-05-08T06:20:08.000Z</time></trkpt><trkpt lon="5.83561" lat="51.174388"><ele>16</ele><time>2022-05-08T06:20:09.000Z</time></trkpt><trkpt lon="5.835697" lat="51.174424"><ele>16.2</ele><time>2022-05-08T06:20:10.000Z</time></trkpt><trkpt lon="5.835783" lat="51.17446"><ele>16.2</ele><time>2022-05-08T06:20:11.000Z</time></trkpt><trkpt lon="5.835869" lat="51.174498"><ele>16.2</ele><time>2022-05-08T06:20:12.000Z</time></trkpt><trkpt lon="5.835957" lat="51.174537"><ele>16.4</ele><time>2022-05-08T06:20:13.000Z</time></trkpt><trkpt lon="5.836044" lat="51.174573"><ele>16.2</ele><time>2022-05-08T06:20:14.000Z</time></trkpt><trkpt lon="5.836131" lat="51.174607"><ele>16.2</ele><time>2022-05-08T06:20:15.000Z</time></trkpt><trkpt lon="5.836216" lat="51.174646"><ele>16</ele><time>2022-05-08T06:20:16.000Z</time></trkpt><trkpt lon="5.836301" lat="51.174686"><ele>16</ele><time>2022-05-08T06:20:17.000Z</time></trkpt><trkpt lon="5.836387" lat="51.174721"><ele>16</ele><time>2022-05-08T06:20:18.000Z</time></trkpt><trkpt lon="5.836477" lat="51.174756"><ele>16</ele><time>2022-05-08T06:20:19.000Z</time></trkpt><trkpt lon="5.836565" lat="51.174792"><ele>16</ele><time>2022-05-08T06:20:20.000Z</time></trkpt><trkpt lon="5.836652" lat="51.17483"><ele>15.8</ele><time>2022-05-08T06:20:21.000Z</time></trkpt><trkpt lon="5.836738" lat="51.174867"><ele>15.8</ele><time>2022-05-08T06:20:22.000Z</time></trkpt><trkpt lon="5.836823" lat="51.174903"><ele>15.8</ele><time>2022-05-08T06:20:23.000Z</time></trkpt><trkpt lon="5.836908" lat="51.174939"><ele>15.8</ele><time>2022-05-08T06:20:24.000Z</time></trkpt><trkpt lon="5.83699" lat="51.174975"><ele>15.8</ele><time>2022-05-08T06:20:25.000Z</time></trkpt><trkpt lon="5.837071" lat="51.175009"><ele>15.8</ele><time>2022-05-08T06:20:26.000Z</time></trkpt><trkpt lon="5.83715" lat="51.175042"><ele>15.8</ele><time>2022-05-08T06:20:27.000Z</time></trkpt><trkpt lon="5.837228" lat="51.175072"><ele>15.8</ele><time>2022-05-08T06:20:28.000Z</time></trkpt><trkpt lon="5.837304" lat="51.175098"><ele>15.8</ele><time>2022-05-08T06:20:29.000Z</time></trkpt><trkpt lon="5.83738" lat="51.175122"><ele>16</ele><time>2022-05-08T06:20:30.000Z</time></trkpt><trkpt lon="5.837456" lat="51.175144"><ele>16.2</ele><time>2022-05-08T06:20:31.000Z</time></trkpt><trkpt lon="5.837525" lat="51.175165"><ele>16.2</ele><time>2022-05-08T06:20:32.000Z</time></trkpt><trkpt lon="5.837589" lat="51.175186"><ele>16.4</ele><time>2022-05-08T06:20:33.000Z</time></trkpt><trkpt lon="5.837649" lat="51.1752"><ele>16.4</ele><time>2022-05-08T06:20:34.000Z</time></trkpt><trkpt lon="5.837709" lat="51.175203"><ele>16.2</ele><time>2022-05-08T06:20:35.000Z</time></trkpt><trkpt lon="5.837769" lat="51.175188"><ele>16.2</ele><time>2022-05-08T06:20:36.000Z</time></trkpt><trkpt lon="5.837831" lat="51.175154"><ele>16.2</ele><time>2022-05-08T06:20:37.000Z</time></trkpt><trkpt lon="5.837897" lat="51.175112"><ele>16.2</ele><time>2022-05-08T06:20:38.000Z</time></trkpt><trkpt lon="5.837967" lat="51.175066"><ele>16</ele><time>2022-05-08T06:20:39.000Z</time></trkpt><trkpt lon="5.838039" lat="51.175016"><ele>16</ele><time>2022-05-08T06:20:40.000Z</time></trkpt><trkpt lon="5.838113" lat="51.174967"><ele>15.8</ele><time>2022-05-08T06:20:41.000Z</time></trkpt><trkpt lon="5.83819" lat="51.174917"><ele>15.8</ele><time>2022-05-08T06:20:42.000Z</time></trkpt><trkpt lon="5.838268" lat="51.174867"><ele>15.6</ele><time>2022-05-08T06:20:43.000Z</time></trkpt><trkpt lon="5.838344" lat="51.174821"><ele>15.6</ele><time>2022-05-08T06:20:44.000Z</time></trkpt><trkpt lon="5.838422" lat="51.174775"><ele>15.6</ele><time>2022-05-08T06:20:45.000Z</time></trkpt><trkpt lon="5.838505" lat="51.174726"><ele>15.4</ele><time>2022-05-08T06:20:46.000Z</time></trkpt><trkpt lon="5.838585" lat="51.174682"><ele>15.4</ele><time>2022-05-08T06:20:47.000Z</time></trkpt><trkpt lon="5.838665" lat="51.17464"><ele>15.4</ele><time>2022-05-08T06:20:48.000Z</time></trkpt><trkpt lon="5.838748" lat="51.1746"><ele>15.4</ele><time>2022-05-08T06:20:49.000Z</time></trkpt><trkpt lon="5.838834" lat="51.174561"><ele>15.2</ele><time>2022-05-08T06:20:50.000Z</time></trkpt><trkpt lon="5.838926" lat="51.174525"><ele>15.2</ele><time>2022-05-08T06:20:51.000Z</time></trkpt><trkpt lon="5.839022" lat="51.174491"><ele>15.2</ele><time>2022-05-08T06:20:52.000Z</time></trkpt><trkpt lon="5.839119" lat="51.174457"><ele>15.2</ele><time>2022-05-08T06:20:53.000Z</time></trkpt><trkpt lon="5.839216" lat="51.174425"><ele>15.4</ele><time>2022-05-08T06:20:54.000Z</time></trkpt><trkpt lon="5.839312" lat="51.174394"><ele>15.4</ele><time>2022-05-08T06:20:55.000Z</time></trkpt><trkpt lon="5.839409" lat="51.174366"><ele>15.4</ele><time>2022-05-08T06:20:56.000Z</time></trkpt><trkpt lon="5.839506" lat="51.174337"><ele>15.4</ele><time>2022-05-08T06:20:57.000Z</time></trkpt><trkpt lon="5.839599" lat="51.174307"><ele>15.4</ele><time>2022-05-08T06:20:58.000Z</time></trkpt><trkpt lon="5.839691" lat="51.174277"><ele>15.6</ele><time>2022-05-08T06:20:59.000Z</time></trkpt><trkpt lon="5.839782" lat="51.174244"><ele>15.6</ele><time>2022-05-08T06:21:00.000Z</time></trkpt><trkpt lon="5.83987" lat="51.174209"><ele>15.8</ele><time>2022-05-08T06:21:01.000Z</time></trkpt><trkpt lon="5.839955" lat="51.17417"><ele>16</ele><time>2022-05-08T06:21:02.000Z</time></trkpt><trkpt lon="5.840038" lat="51.17413"><ele>16</ele><time>2022-05-08T06:21:03.000Z</time></trkpt><trkpt lon="5.840115" lat="51.174087"><ele>16.2</ele><time>2022-05-08T06:21:04.000Z</time></trkpt><trkpt lon="5.840187" lat="51.174044"><ele>16.2</ele><time>2022-05-08T06:21:05.000Z</time></trkpt><trkpt lon="5.840256" lat="51.173998"><ele>16.2</ele><time>2022-05-08T06:21:06.000Z</time></trkpt><trkpt lon="5.840325" lat="51.173951"><ele>16.4</ele><time>2022-05-08T06:21:07.000Z</time></trkpt><trkpt lon="5.840394" lat="51.173901"><ele>16.4</ele><time>2022-05-08T06:21:08.000Z</time></trkpt><trkpt lon="5.840458" lat="51.173847"><ele>16.6</ele><time>2022-05-08T06:21:09.000Z</time></trkpt><trkpt lon="5.840519" lat="51.173791"><ele>16.6</ele><time>2022-05-08T06:21:10.000Z</time></trkpt><trkpt lon="5.840575" lat="51.173734"><ele>16.6</ele><time>2022-05-08T06:21:11.000Z</time></trkpt><trkpt lon="5.840628" lat="51.173677"><ele>16.6</ele><time>2022-05-08T06:21:12.000Z</time></trkpt><trkpt lon="5.840676" lat="51.173618"><ele>16.6</ele><time>2022-05-08T06:21:13.000Z</time></trkpt><trkpt lon="5.84072" lat="51.173559"><ele>16.8</ele><time>2022-05-08T06:21:14.000Z</time></trkpt><trkpt lon="5.84076" lat="51.173497"><ele>16.6</ele><time>2022-05-08T06:21:15.000Z</time></trkpt><trkpt lon="5.840797" lat="51.173434"><ele>16.6</ele><time>2022-05-08T06:21:16.000Z</time></trkpt><trkpt lon="5.84083" lat="51.173369"><ele>16.6</ele><time>2022-05-08T06:21:17.000Z</time></trkpt><trkpt lon="5.840858" lat="51.173303"><ele>16.6</ele><time>2022-05-08T06:21:18.000Z</time></trkpt><trkpt lon="5.840882" lat="51.173238"><ele>16.6</ele><time>2022-05-08T06:21:19.000Z</time></trkpt><trkpt lon="5.840905" lat="51.173171"><ele>16.6</ele><time>2022-05-08T06:21:20.000Z</time></trkpt><trkpt lon="5.840927" lat="51.173102"><ele>16.6</ele><time>2022-05-08T06:21:21.000Z</time></trkpt><trkpt lon="5.840948" lat="51.173032"><ele>16.6</ele><time>2022-05-08T06:21:22.000Z</time></trkpt><trkpt lon="5.840968" lat="51.172964"><ele>16.6</ele><time>2022-05-08T06:21:23.000Z</time></trkpt><trkpt lon="5.840989" lat="51.172896"><ele>16.4</ele><time>2022-05-08T06:21:24.000Z</time></trkpt><trkpt lon="5.84101" lat="51.172827"><ele>16.4</ele><time>2022-05-08T06:21:25.000Z</time></trkpt><trkpt lon="5.84103" lat="51.172756"><ele>16.2</ele><time>2022-05-08T06:21:26.000Z</time></trkpt><trkpt lon="5.841051" lat="51.172687"><ele>16.2</ele><time>2022-05-08T06:21:27.000Z</time></trkpt><trkpt lon="5.841074" lat="51.172618"><ele>16.2</ele><time>2022-05-08T06:21:28.000Z</time></trkpt><trkpt lon="5.841099" lat="51.172548"><ele>16.2</ele><time>2022-05-08T06:21:29.000Z</time></trkpt><trkpt lon="5.841123" lat="51.17248"><ele>16.2</ele><time>2022-05-08T06:21:30.000Z</time></trkpt><trkpt lon="5.84115" lat="51.172414"><ele>16.2</ele><time>2022-05-08T06:21:31.000Z</time></trkpt><trkpt lon="5.841179" lat="51.172351"><ele>16.2</ele><time>2022-05-08T06:21:32.000Z</time></trkpt><trkpt lon="5.841209" lat="51.172286"><ele>16.2</ele><time>2022-05-08T06:21:33.000Z</time></trkpt><trkpt lon="5.841241" lat="51.172219"><ele>16.2</ele><time>2022-05-08T06:21:34.000Z</time></trkpt><trkpt lon="5.841275" lat="51.172156"><ele>16.2</ele><time>2022-05-08T06:21:35.000Z</time></trkpt><trkpt lon="5.84131" lat="51.172095"><ele>16.2</ele><time>2022-05-08T06:21:36.000Z</time></trkpt><trkpt lon="5.841348" lat="51.172037"><ele>16.2</ele><time>2022-05-08T06:21:37.000Z</time></trkpt><trkpt lon="5.841385" lat="51.171979"><ele>16.2</ele><time>2022-05-08T06:21:38.000Z</time></trkpt><trkpt lon="5.841421" lat="51.171924"><ele>16.2</ele><time>2022-05-08T06:21:39.000Z</time></trkpt><trkpt lon="5.841458" lat="51.171868"><ele>16.2</ele><time>2022-05-08T06:21:40.000Z</time></trkpt><trkpt lon="5.841494" lat="51.171814"><ele>16.4</ele><time>2022-05-08T06:21:41.000Z</time></trkpt><trkpt lon="5.841532" lat="51.171761"><ele>16.4</ele><time>2022-05-08T06:21:42.000Z</time></trkpt><trkpt lon="5.841569" lat="51.171712"><ele>16.4</ele><time>2022-05-08T06:21:43.000Z</time></trkpt><trkpt lon="5.841608" lat="51.171672"><ele>16.4</ele><time>2022-05-08T06:21:44.000Z</time></trkpt><trkpt lon="5.841659" lat="51.171644"><ele>16.4</ele><time>2022-05-08T06:21:45.000Z</time></trkpt><trkpt lon="5.841728" lat="51.171628"><ele>16.2</ele><time>2022-05-08T06:21:46.000Z</time></trkpt><trkpt lon="5.841809" lat="51.171623"><ele>16.2</ele><time>2022-05-08T06:21:47.000Z</time></trkpt><trkpt lon="5.841893" lat="51.171625"><ele>16</ele><time>2022-05-08T06:21:48.000Z</time></trkpt><trkpt lon="5.841983" lat="51.171629"><ele>16</ele><time>2022-05-08T06:21:49.000Z</time></trkpt><trkpt lon="5.842078" lat="51.171631"><ele>16</ele><time>2022-05-08T06:21:50.000Z</time></trkpt><trkpt lon="5.842173" lat="51.171633"><ele>16</ele><time>2022-05-08T06:21:51.000Z</time></trkpt><trkpt lon="5.84227" lat="51.171637"><ele>16</ele><time>2022-05-08T06:21:52.000Z</time></trkpt><trkpt lon="5.842367" lat="51.171645"><ele>16</ele><time>2022-05-08T06:21:53.000Z</time></trkpt><trkpt lon="5.842467" lat="51.171659"><ele>16</ele><time>2022-05-08T06:21:54.000Z</time></trkpt><trkpt lon="5.84257" lat="51.171672"><ele>16</ele><time>2022-05-08T06:21:55.000Z</time></trkpt><trkpt lon="5.842674" lat="51.171685"><ele>16</ele><time>2022-05-08T06:21:56.000Z</time></trkpt><trkpt lon="5.842778" lat="51.171698"><ele>16</ele><time>2022-05-08T06:21:57.000Z</time></trkpt><trkpt lon="5.842885" lat="51.17171"><ele>16</ele><time>2022-05-08T06:21:58.000Z</time></trkpt><trkpt lon="5.842988" lat="51.171723"><ele>16</ele><time>2022-05-08T06:21:59.000Z</time></trkpt><trkpt lon="5.843094" lat="51.171736"><ele>15.8</ele><time>2022-05-08T06:22:00.000Z</time></trkpt><trkpt lon="5.843205" lat="51.171748"><ele>15.8</ele><time>2022-05-08T06:22:01.000Z</time></trkpt><trkpt lon="5.843312" lat="51.17176"><ele>16</ele><time>2022-05-08T06:22:02.000Z</time></trkpt><trkpt lon="5.843419" lat="51.171769"><ele>15.8</ele><time>2022-05-08T06:22:03.000Z</time></trkpt><trkpt lon="5.843527" lat="51.171779"><ele>15.8</ele><time>2022-05-08T06:22:04.000Z</time></trkpt><trkpt lon="5.843634" lat="51.17179"><ele>15.8</ele><time>2022-05-08T06:22:05.000Z</time></trkpt><trkpt lon="5.843742" lat="51.171799"><ele>15.8</ele><time>2022-05-08T06:22:06.000Z</time></trkpt><trkpt lon="5.843848" lat="51.171809"><ele>15.8</ele><time>2022-05-08T06:22:07.000Z</time></trkpt><trkpt lon="5.843954" lat="51.171818"><ele>15.8</ele><time>2022-05-08T06:22:08.000Z</time></trkpt><trkpt lon="5.844059" lat="51.171824"><ele>15.6</ele><time>2022-05-08T06:22:09.000Z</time></trkpt><trkpt lon="5.844164" lat="51.17183"><ele>15.6</ele><time>2022-05-08T06:22:10.000Z</time></trkpt><trkpt lon="5.84427" lat="51.171835"><ele>15.8</ele><time>2022-05-08T06:22:11.000Z</time></trkpt><trkpt lon="5.844379" lat="51.171832"><ele>15.8</ele><time>2022-05-08T06:22:12.000Z</time></trkpt><trkpt lon="5.844485" lat="51.171823"><ele>15.8</ele><time>2022-05-08T06:22:13.000Z</time></trkpt><trkpt lon="5.844593" lat="51.171809"><ele>15.8</ele><time>2022-05-08T06:22:14.000Z</time></trkpt><trkpt lon="5.844702" lat="51.171791"><ele>15.8</ele><time>2022-05-08T06:22:15.000Z</time></trkpt><trkpt lon="5.84481" lat="51.171775"><ele>15.8</ele><time>2022-05-08T06:22:16.000Z</time></trkpt><trkpt lon="5.844921" lat="51.171757"><ele>16</ele><time>2022-05-08T06:22:17.000Z</time></trkpt><trkpt lon="5.845032" lat="51.17174"><ele>16</ele><time>2022-05-08T06:22:18.000Z</time></trkpt><trkpt lon="5.845143" lat="51.171727"><ele>16</ele><time>2022-05-08T06:22:19.000Z</time></trkpt><trkpt lon="5.845255" lat="51.171718"><ele>16</ele><time>2022-05-08T06:22:20.000Z</time></trkpt><trkpt lon="5.845368" lat="51.171715"><ele>15.8</ele><time>2022-05-08T06:22:21.000Z</time></trkpt><trkpt lon="5.845478" lat="51.171721"><ele>15.8</ele><time>2022-05-08T06:22:22.000Z</time></trkpt><trkpt lon="5.845584" lat="51.171735"><ele>16</ele><time>2022-05-08T06:22:23.000Z</time></trkpt><trkpt lon="5.845688" lat="51.171757"><ele>16</ele><time>2022-05-08T06:22:24.000Z</time></trkpt><trkpt lon="5.84579" lat="51.171784"><ele>16</ele><time>2022-05-08T06:22:25.000Z</time></trkpt><trkpt lon="5.845887" lat="51.171814"><ele>16</ele><time>2022-05-08T06:22:26.000Z</time></trkpt><trkpt lon="5.845983" lat="51.171849"><ele>15.8</ele><time>2022-05-08T06:22:27.000Z</time></trkpt><trkpt lon="5.84608" lat="51.171886"><ele>15.8</ele><time>2022-05-08T06:22:28.000Z</time></trkpt><trkpt lon="5.846173" lat="51.171922"><ele>15.6</ele><time>2022-05-08T06:22:29.000Z</time></trkpt><trkpt lon="5.846266" lat="51.171956"><ele>15.8</ele><time>2022-05-08T06:22:30.000Z</time></trkpt><trkpt lon="5.846359" lat="51.171992"><ele>15.8</ele><time>2022-05-08T06:22:31.000Z</time></trkpt><trkpt lon="5.846454" lat="51.172028"><ele>15.8</ele><time>2022-05-08T06:22:32.000Z</time></trkpt><trkpt lon="5.846548" lat="51.172063"><ele>15.8</ele><time>2022-05-08T06:22:33.000Z</time></trkpt><trkpt lon="5.846643" lat="51.172097"><ele>15.8</ele><time>2022-05-08T06:22:34.000Z</time></trkpt><trkpt lon="5.846739" lat="51.172129"><ele>15.8</ele><time>2022-05-08T06:22:35.000Z</time></trkpt><trkpt lon="5.846833" lat="51.172161"><ele>15.8</ele><time>2022-05-08T06:22:36.000Z</time></trkpt><trkpt lon="5.846928" lat="51.172194"><ele>15.6</ele><time>2022-05-08T06:22:37.000Z</time></trkpt><trkpt lon="5.847026" lat="51.172222"><ele>15.8</ele><time>2022-05-08T06:22:38.000Z</time></trkpt><trkpt lon="5.847122" lat="51.172249"><ele>16</ele><time>2022-05-08T06:22:39.000Z</time></trkpt><trkpt lon="5.847219" lat="51.172276"><ele>16</ele><time>2022-05-08T06:22:40.000Z</time></trkpt><trkpt lon="5.847318" lat="51.1723"><ele>16</ele><time>2022-05-08T06:22:41.000Z</time></trkpt><trkpt lon="5.847418" lat="51.172325"><ele>16.2</ele><time>2022-05-08T06:22:42.000Z</time></trkpt><trkpt lon="5.847519" lat="51.172348"><ele>16.2</ele><time>2022-05-08T06:22:43.000Z</time></trkpt><trkpt lon="5.847622" lat="51.172367"><ele>16.2</ele><time>2022-05-08T06:22:44.000Z</time></trkpt><trkpt lon="5.847725" lat="51.172386"><ele>16.4</ele><time>2022-05-08T06:22:45.000Z</time></trkpt><trkpt lon="5.84783" lat="51.172403"><ele>16.4</ele><time>2022-05-08T06:22:46.000Z</time></trkpt><trkpt lon="5.847936" lat="51.172418"><ele>16.6</ele><time>2022-05-08T06:22:47.000Z</time></trkpt><trkpt lon="5.848041" lat="51.172433"><ele>16.6</ele><time>2022-05-08T06:22:48.000Z</time></trkpt><trkpt lon="5.848147" lat="51.172448"><ele>16.8</ele><time>2022-05-08T06:22:49.000Z</time></trkpt><trkpt lon="5.848252" lat="51.172459"><ele>16.8</ele><time>2022-05-08T06:22:50.000Z</time></trkpt><trkpt lon="5.848356" lat="51.172467"><ele>16.8</ele><time>2022-05-08T06:22:51.000Z</time></trkpt><trkpt lon="5.848459" lat="51.172477"><ele>16.8</ele><time>2022-05-08T06:22:52.000Z</time></trkpt><trkpt lon="5.848562" lat="51.172484"><ele>16.8</ele><time>2022-05-08T06:22:53.000Z</time></trkpt><trkpt lon="5.848664" lat="51.17249"><ele>16.6</ele><time>2022-05-08T06:22:54.000Z</time></trkpt><trkpt lon="5.848764" lat="51.172495"><ele>16.8</ele><time>2022-05-08T06:22:55.000Z</time></trkpt><trkpt lon="5.848866" lat="51.172497"><ele>16.8</ele><time>2022-05-08T06:22:56.000Z</time></trkpt><trkpt lon="5.848969" lat="51.172499"><ele>16.8</ele><time>2022-05-08T06:22:57.000Z</time></trkpt><trkpt lon="5.84907" lat="51.172501"><ele>16.8</ele><time>2022-05-08T06:22:58.000Z</time></trkpt><trkpt lon="5.849175" lat="51.172503"><ele>16.8</ele><time>2022-05-08T06:22:59.000Z</time></trkpt><trkpt lon="5.849283" lat="51.172507"><ele>16.6</ele><time>2022-05-08T06:23:00.000Z</time></trkpt><trkpt lon="5.849393" lat="51.172508"><ele>16.4</ele><time>2022-05-08T06:23:01.000Z</time></trkpt><trkpt lon="5.849506" lat="51.17251"><ele>16.6</ele><time>2022-05-08T06:23:02.000Z</time></trkpt><trkpt lon="5.849617" lat="51.172512"><ele>16.6</ele><time>2022-05-08T06:23:03.000Z</time></trkpt><trkpt lon="5.849723" lat="51.172514"><ele>16.6</ele><time>2022-05-08T06:23:04.000Z</time></trkpt><trkpt lon="5.84983" lat="51.172518"><ele>16.6</ele><time>2022-05-08T06:23:05.000Z</time></trkpt><trkpt lon="5.849935" lat="51.172522"><ele>16.6</ele><time>2022-05-08T06:23:06.000Z</time></trkpt><trkpt lon="5.85004" lat="51.172528"><ele>16.6</ele><time>2022-05-08T06:23:07.000Z</time></trkpt><trkpt lon="5.850142" lat="51.17254"><ele>16.6</ele><time>2022-05-08T06:23:08.000Z</time></trkpt><trkpt lon="5.850244" lat="51.172555"><ele>16.6</ele><time>2022-05-08T06:23:09.000Z</time></trkpt><trkpt lon="5.850345" lat="51.172575"><ele>16.4</ele><time>2022-05-08T06:23:10.000Z</time></trkpt><trkpt lon="5.850446" lat="51.1726"><ele>16.4</ele><time>2022-05-08T06:23:11.000Z</time></trkpt><trkpt lon="5.850544" lat="51.172626"><ele>16.4</ele><time>2022-05-08T06:23:12.000Z</time></trkpt><trkpt lon="5.850643" lat="51.172656"><ele>16.4</ele><time>2022-05-08T06:23:13.000Z</time></trkpt><trkpt lon="5.850742" lat="51.172684"><ele>16.4</ele><time>2022-05-08T06:23:14.000Z</time></trkpt><trkpt lon="5.850842" lat="51.172713"><ele>16.4</ele><time>2022-05-08T06:23:15.000Z</time></trkpt><trkpt lon="5.850941" lat="51.172741"><ele>16.4</ele><time>2022-05-08T06:23:16.000Z</time></trkpt><trkpt lon="5.851039" lat="51.172766"><ele>16.4</ele><time>2022-05-08T06:23:17.000Z</time></trkpt><trkpt lon="5.851136" lat="51.172788"><ele>16.4</ele><time>2022-05-08T06:23:18.000Z</time></trkpt><trkpt lon="5.851233" lat="51.172811"><ele>16.4</ele><time>2022-05-08T06:23:19.000Z</time></trkpt><trkpt lon="5.851327" lat="51.172834"><ele>16.4</ele><time>2022-05-08T06:23:20.000Z</time></trkpt><trkpt lon="5.851421" lat="51.172857"><ele>16.2</ele><time>2022-05-08T06:23:21.000Z</time></trkpt><trkpt lon="5.851513" lat="51.172882"><ele>16.2</ele><time>2022-05-08T06:23:22.000Z</time></trkpt><trkpt lon="5.851607" lat="51.172909"><ele>16.2</ele><time>2022-05-08T06:23:23.000Z</time></trkpt><trkpt lon="5.851702" lat="51.172936"><ele>16.2</ele><time>2022-05-08T06:23:24.000Z</time></trkpt><trkpt lon="5.851797" lat="51.172962"><ele>16.4</ele><time>2022-05-08T06:23:25.000Z</time></trkpt><trkpt lon="5.851891" lat="51.172991"><ele>16.4</ele><time>2022-05-08T06:23:26.000Z</time></trkpt><trkpt lon="5.851988" lat="51.17302"><ele>16.2</ele><time>2022-05-08T06:23:27.000Z</time></trkpt><trkpt lon="5.852084" lat="51.173046"><ele>16.2</ele><time>2022-05-08T06:23:28.000Z</time></trkpt><trkpt lon="5.852177" lat="51.173072"><ele>16.2</ele><time>2022-05-08T06:23:29.000Z</time></trkpt><trkpt lon="5.852275" lat="51.173099"><ele>16.4</ele><time>2022-05-08T06:23:30.000Z</time></trkpt><trkpt lon="5.852375" lat="51.173129"><ele>16.2</ele><time>2022-05-08T06:23:31.000Z</time></trkpt><trkpt lon="5.852472" lat="51.173157"><ele>16.2</ele><time>2022-05-08T06:23:32.000Z</time></trkpt><trkpt lon="5.852571" lat="51.173181"><ele>16.2</ele><time>2022-05-08T06:23:33.000Z</time></trkpt><trkpt lon="5.852671" lat="51.173204"><ele>16</ele><time>2022-05-08T06:23:34.000Z</time></trkpt><trkpt lon="5.85277" lat="51.173227"><ele>16.2</ele><time>2022-05-08T06:23:35.000Z</time></trkpt><trkpt lon="5.852864" lat="51.173254"><ele>16.2</ele><time>2022-05-08T06:23:36.000Z</time></trkpt><trkpt lon="5.852956" lat="51.173285"><ele>16.2</ele><time>2022-05-08T06:23:37.000Z</time></trkpt><trkpt lon="5.853047" lat="51.173316"><ele>16.2</ele><time>2022-05-08T06:23:38.000Z</time></trkpt><trkpt lon="5.853137" lat="51.173344"><ele>16.4</ele><time>2022-05-08T06:23:39.000Z</time></trkpt><trkpt lon="5.853228" lat="51.173375"><ele>16.6</ele><time>2022-05-08T06:23:40.000Z</time></trkpt><trkpt lon="5.853319" lat="51.173407"><ele>16.8</ele><time>2022-05-08T06:23:41.000Z</time></trkpt><trkpt lon="5.853411" lat="51.173438"><ele>17</ele><time>2022-05-08T06:23:42.000Z</time></trkpt><trkpt lon="5.853504" lat="51.173471"><ele>17.2</ele><time>2022-05-08T06:23:43.000Z</time></trkpt><trkpt lon="5.853594" lat="51.173503"><ele>17.6</ele><time>2022-05-08T06:23:44.000Z</time></trkpt><trkpt lon="5.853683" lat="51.173535"><ele>17.6</ele><time>2022-05-08T06:23:45.000Z</time></trkpt><trkpt lon="5.853772" lat="51.173568"><ele>17.8</ele><time>2022-05-08T06:23:46.000Z</time></trkpt><trkpt lon="5.85386" lat="51.1736"><ele>18</ele><time>2022-05-08T06:23:47.000Z</time></trkpt><trkpt lon="5.853947" lat="51.173634"><ele>18</ele><time>2022-05-08T06:23:48.000Z</time></trkpt><trkpt lon="5.854037" lat="51.173669"><ele>18.2</ele><time>2022-05-08T06:23:49.000Z</time></trkpt><trkpt lon="5.854125" lat="51.173701"><ele>18.2</ele><time>2022-05-08T06:23:50.000Z</time></trkpt><trkpt lon="5.854214" lat="51.173729"><ele>18.2</ele><time>2022-05-08T06:23:51.000Z</time></trkpt><trkpt lon="5.854304" lat="51.173758"><ele>18.4</ele><time>2022-05-08T06:23:52.000Z</time></trkpt><trkpt lon="5.854393" lat="51.173789"><ele>18.4</ele><time>2022-05-08T06:23:53.000Z</time></trkpt><trkpt lon="5.854482" lat="51.173819"><ele>18.4</ele><time>2022-05-08T06:23:54.000Z</time></trkpt><trkpt lon="5.854571" lat="51.173847"><ele>18.6</ele><time>2022-05-08T06:23:55.000Z</time></trkpt><trkpt lon="5.854664" lat="51.173873"><ele>18.6</ele><time>2022-05-08T06:23:56.000Z</time></trkpt><trkpt lon="5.854759" lat="51.173903"><ele>18.8</ele><time>2022-05-08T06:23:57.000Z</time></trkpt><trkpt lon="5.854854" lat="51.173933"><ele>18.8</ele><time>2022-05-08T06:23:58.000Z</time></trkpt><trkpt lon="5.854945" lat="51.173966"><ele>18.8</ele><time>2022-05-08T06:23:59.000Z</time></trkpt><trkpt lon="5.855036" lat="51.174"><ele>18.8</ele><time>2022-05-08T06:24:00.000Z</time></trkpt><trkpt lon="5.855128" lat="51.174033"><ele>18.8</ele><time>2022-05-08T06:24:01.000Z</time></trkpt><trkpt lon="5.855219" lat="51.174063"><ele>18.6</ele><time>2022-05-08T06:24:02.000Z</time></trkpt><trkpt lon="5.855309" lat="51.174094"><ele>18.4</ele><time>2022-05-08T06:24:03.000Z</time></trkpt><trkpt lon="5.855402" lat="51.174122"><ele>18.4</ele><time>2022-05-08T06:24:04.000Z</time></trkpt><trkpt lon="5.855489" lat="51.174149"><ele>18.4</ele><time>2022-05-08T06:24:05.000Z</time></trkpt><trkpt lon="5.855576" lat="51.174176"><ele>18.2</ele><time>2022-05-08T06:24:06.000Z</time></trkpt><trkpt lon="5.855668" lat="51.174205"><ele>18.2</ele><time>2022-05-08T06:24:07.000Z</time></trkpt><trkpt lon="5.855764" lat="51.17423"><ele>18</ele><time>2022-05-08T06:24:08.000Z</time></trkpt><trkpt lon="5.855867" lat="51.174255"><ele>18</ele><time>2022-05-08T06:24:09.000Z</time></trkpt><trkpt lon="5.855973" lat="51.17428"><ele>17.8</ele><time>2022-05-08T06:24:10.000Z</time></trkpt><trkpt lon="5.856082" lat="51.174303"><ele>17.8</ele><time>2022-05-08T06:24:11.000Z</time></trkpt><trkpt lon="5.856194" lat="51.174324"><ele>17.6</ele><time>2022-05-08T06:24:12.000Z</time></trkpt><trkpt lon="5.856307" lat="51.17434"><ele>17.6</ele><time>2022-05-08T06:24:13.000Z</time></trkpt><trkpt lon="5.856419" lat="51.174358"><ele>17.4</ele><time>2022-05-08T06:24:14.000Z</time></trkpt><trkpt lon="5.856528" lat="51.174375"><ele>17.4</ele><time>2022-05-08T06:24:15.000Z</time></trkpt><trkpt lon="5.856636" lat="51.17439"><ele>17.2</ele><time>2022-05-08T06:24:16.000Z</time></trkpt><trkpt lon="5.856746" lat="51.174405"><ele>17.2</ele><time>2022-05-08T06:24:17.000Z</time></trkpt><trkpt lon="5.856855" lat="51.174418"><ele>17.2</ele><time>2022-05-08T06:24:18.000Z</time></trkpt><trkpt lon="5.856962" lat="51.174432"><ele>17</ele><time>2022-05-08T06:24:19.000Z</time></trkpt><trkpt lon="5.857071" lat="51.174445"><ele>17</ele><time>2022-05-08T06:24:20.000Z</time></trkpt><trkpt lon="5.857182" lat="51.174457"><ele>17</ele><time>2022-05-08T06:24:21.000Z</time></trkpt><trkpt lon="5.857291" lat="51.174464"><ele>17</ele><time>2022-05-08T06:24:22.000Z</time></trkpt><trkpt lon="5.857399" lat="51.174465"><ele>17</ele><time>2022-05-08T06:24:23.000Z</time></trkpt><trkpt lon="5.857507" lat="51.174463"><ele>17</ele><time>2022-05-08T06:24:24.000Z</time></trkpt><trkpt lon="5.857613" lat="51.174455"><ele>17.2</ele><time>2022-05-08T06:24:25.000Z</time></trkpt><trkpt lon="5.857717" lat="51.174441"><ele>17.2</ele><time>2022-05-08T06:24:26.000Z</time></trkpt><trkpt lon="5.857819" lat="51.174422"><ele>17.2</ele><time>2022-05-08T06:24:27.000Z</time></trkpt><trkpt lon="5.857921" lat="51.174397"><ele>17.2</ele><time>2022-05-08T06:24:28.000Z</time></trkpt><trkpt lon="5.858021" lat="51.174372"><ele>17</ele><time>2022-05-08T06:24:29.000Z</time></trkpt><trkpt lon="5.858117" lat="51.174347"><ele>17</ele><time>2022-05-08T06:24:30.000Z</time></trkpt><trkpt lon="5.85821" lat="51.17432"><ele>17</ele><time>2022-05-08T06:24:31.000Z</time></trkpt><trkpt lon="5.858302" lat="51.174291"><ele>16.8</ele><time>2022-05-08T06:24:32.000Z</time></trkpt><trkpt lon="5.858397" lat="51.174258"><ele>16.8</ele><time>2022-05-08T06:24:33.000Z</time></trkpt><trkpt lon="5.858492" lat="51.174224"><ele>17</ele><time>2022-05-08T06:24:34.000Z</time></trkpt><trkpt lon="5.858585" lat="51.174188"><ele>17</ele><time>2022-05-08T06:24:35.000Z</time></trkpt><trkpt lon="5.858674" lat="51.174152"><ele>17</ele><time>2022-05-08T06:24:36.000Z</time></trkpt><trkpt lon="5.858764" lat="51.174115"><ele>17</ele><time>2022-05-08T06:24:37.000Z</time></trkpt><trkpt lon="5.858854" lat="51.174075"><ele>17.2</ele><time>2022-05-08T06:24:38.000Z</time></trkpt><trkpt lon="5.858942" lat="51.174035"><ele>17.4</ele><time>2022-05-08T06:24:39.000Z</time></trkpt><trkpt lon="5.859029" lat="51.173997"><ele>17.4</ele><time>2022-05-08T06:24:40.000Z</time></trkpt><trkpt lon="5.859116" lat="51.173954"><ele>17.4</ele><time>2022-05-08T06:24:41.000Z</time></trkpt><trkpt lon="5.859206" lat="51.173913"><ele>17.4</ele><time>2022-05-08T06:24:42.000Z</time></trkpt><trkpt lon="5.859293" lat="51.173875"><ele>17.4</ele><time>2022-05-08T06:24:43.000Z</time></trkpt><trkpt lon="5.85938" lat="51.173835"><ele>17.4</ele><time>2022-05-08T06:24:44.000Z</time></trkpt><trkpt lon="5.859467" lat="51.173795"><ele>17.4</ele><time>2022-05-08T06:24:45.000Z</time></trkpt><trkpt lon="5.859552" lat="51.173754"><ele>17.4</ele><time>2022-05-08T06:24:46.000Z</time></trkpt><trkpt lon="5.859636" lat="51.173715"><ele>17.4</ele><time>2022-05-08T06:24:47.000Z</time></trkpt><trkpt lon="5.859721" lat="51.173676"><ele>17.4</ele><time>2022-05-08T06:24:48.000Z</time></trkpt><trkpt lon="5.859806" lat="51.173636"><ele>17.4</ele><time>2022-05-08T06:24:49.000Z</time></trkpt><trkpt lon="5.859892" lat="51.173594"><ele>17.4</ele><time>2022-05-08T06:24:50.000Z</time></trkpt><trkpt lon="5.859979" lat="51.173555"><ele>17.4</ele><time>2022-05-08T06:24:51.000Z</time></trkpt><trkpt lon="5.860069" lat="51.173514"><ele>17.4</ele><time>2022-05-08T06:24:52.000Z</time></trkpt><trkpt lon="5.86016" lat="51.173472"><ele>17.4</ele><time>2022-05-08T06:24:53.000Z</time></trkpt><trkpt lon="5.860252" lat="51.173431"><ele>17.4</ele><time>2022-05-08T06:24:54.000Z</time></trkpt><trkpt lon="5.860345" lat="51.173391"><ele>17.4</ele><time>2022-05-08T06:24:55.000Z</time></trkpt><trkpt lon="5.860438" lat="51.173352"><ele>17.4</ele><time>2022-05-08T06:24:56.000Z</time></trkpt><trkpt lon="5.860529" lat="51.173316"><ele>17.4</ele><time>2022-05-08T06:24:57.000Z</time></trkpt><trkpt lon="5.860621" lat="51.173286"><ele>17.4</ele><time>2022-05-08T06:24:58.000Z</time></trkpt><trkpt lon="5.860718" lat="51.17326"><ele>17.4</ele><time>2022-05-08T06:24:59.000Z</time></trkpt><trkpt lon="5.860818" lat="51.173235"><ele>17.4</ele><time>2022-05-08T06:25:00.000Z</time></trkpt><trkpt lon="5.860919" lat="51.173217"><ele>17.4</ele><time>2022-05-08T06:25:01.000Z</time></trkpt><trkpt lon="5.861023" lat="51.173204"><ele>17.4</ele><time>2022-05-08T06:25:02.000Z</time></trkpt><trkpt lon="5.861129" lat="51.173197"><ele>17.4</ele><time>2022-05-08T06:25:03.000Z</time></trkpt><trkpt lon="5.861234" lat="51.173197"><ele>17.4</ele><time>2022-05-08T06:25:04.000Z</time></trkpt><trkpt lon="5.861338" lat="51.173203"><ele>17.4</ele><time>2022-05-08T06:25:05.000Z</time></trkpt><trkpt lon="5.86144" lat="51.173215"><ele>17.4</ele><time>2022-05-08T06:25:06.000Z</time></trkpt><trkpt lon="5.86154" lat="51.173234"><ele>17.4</ele><time>2022-05-08T06:25:07.000Z</time></trkpt><trkpt lon="5.861638" lat="51.17326"><ele>17.6</ele><time>2022-05-08T06:25:08.000Z</time></trkpt><trkpt lon="5.861731" lat="51.173289"><ele>17.8</ele><time>2022-05-08T06:25:09.000Z</time></trkpt><trkpt lon="5.861822" lat="51.173319"><ele>18</ele><time>2022-05-08T06:25:10.000Z</time></trkpt><trkpt lon="5.861908" lat="51.173354"><ele>18</ele><time>2022-05-08T06:25:11.000Z</time></trkpt><trkpt lon="5.861987" lat="51.173397"><ele>18</ele><time>2022-05-08T06:25:12.000Z</time></trkpt><trkpt lon="5.862061" lat="51.173447"><ele>18</ele><time>2022-05-08T06:25:13.000Z</time></trkpt><trkpt lon="5.862129" lat="51.173501"><ele>18</ele><time>2022-05-08T06:25:14.000Z</time></trkpt><trkpt lon="5.862186" lat="51.173556"><ele>18</ele><time>2022-05-08T06:25:15.000Z</time></trkpt><trkpt lon="5.862238" lat="51.173616"><ele>18</ele><time>2022-05-08T06:25:16.000Z</time></trkpt><trkpt lon="5.862287" lat="51.173675"><ele>18</ele><time>2022-05-08T06:25:17.000Z</time></trkpt><trkpt lon="5.862333" lat="51.173732"><ele>18</ele><time>2022-05-08T06:25:18.000Z</time></trkpt><trkpt lon="5.862378" lat="51.173789"><ele>18.2</ele><time>2022-05-08T06:25:19.000Z</time></trkpt><trkpt lon="5.862424" lat="51.173846"><ele>18.4</ele><time>2022-05-08T06:25:20.000Z</time></trkpt><trkpt lon="5.86247" lat="51.173903"><ele>18.4</ele><time>2022-05-08T06:25:21.000Z</time></trkpt><trkpt lon="5.862515" lat="51.17396"><ele>18.4</ele><time>2022-05-08T06:25:22.000Z</time></trkpt><trkpt lon="5.862562" lat="51.174017"><ele>18.6</ele><time>2022-05-08T06:25:23.000Z</time></trkpt><trkpt lon="5.862609" lat="51.174077"><ele>18.4</ele><time>2022-05-08T06:25:24.000Z</time></trkpt><trkpt lon="5.862657" lat="51.174138"><ele>18.4</ele><time>2022-05-08T06:25:25.000Z</time></trkpt><trkpt lon="5.862704" lat="51.174196"><ele>18.4</ele><time>2022-05-08T06:25:26.000Z</time></trkpt><trkpt lon="5.862752" lat="51.174253"><ele>18.4</ele><time>2022-05-08T06:25:27.000Z</time></trkpt><trkpt lon="5.862799" lat="51.174312"><ele>18.4</ele><time>2022-05-08T06:25:28.000Z</time></trkpt><trkpt lon="5.862845" lat="51.174369"><ele>18.6</ele><time>2022-05-08T06:25:29.000Z</time></trkpt><trkpt lon="5.862891" lat="51.174426"><ele>18.6</ele><time>2022-05-08T06:25:30.000Z</time></trkpt><trkpt lon="5.862936" lat="51.174486"><ele>18.6</ele><time>2022-05-08T06:25:31.000Z</time></trkpt><trkpt lon="5.862982" lat="51.174546"><ele>18.6</ele><time>2022-05-08T06:25:32.000Z</time></trkpt><trkpt lon="5.863032" lat="51.174605"><ele>18.4</ele><time>2022-05-08T06:25:33.000Z</time></trkpt><trkpt lon="5.863084" lat="51.174664"><ele>18.2</ele><time>2022-05-08T06:25:34.000Z</time></trkpt><trkpt lon="5.863138" lat="51.174727"><ele>18.2</ele><time>2022-05-08T06:25:35.000Z</time></trkpt><trkpt lon="5.863191" lat="51.17479"><ele>18</ele><time>2022-05-08T06:25:36.000Z</time></trkpt><trkpt lon="5.86324" lat="51.174851"><ele>17.8</ele><time>2022-05-08T06:25:37.000Z</time></trkpt><trkpt lon="5.863286" lat="51.174916"><ele>17.6</ele><time>2022-05-08T06:25:38.000Z</time></trkpt><trkpt lon="5.863329" lat="51.174983"><ele>17.6</ele><time>2022-05-08T06:25:39.000Z</time></trkpt><trkpt lon="5.863371" lat="51.175049"><ele>17.4</ele><time>2022-05-08T06:25:40.000Z</time></trkpt><trkpt lon="5.863412" lat="51.175111"><ele>17.4</ele><time>2022-05-08T06:25:41.000Z</time></trkpt><trkpt lon="5.86345" lat="51.175177"><ele>17.2</ele><time>2022-05-08T06:25:42.000Z</time></trkpt><trkpt lon="5.863486" lat="51.175243"><ele>17.2</ele><time>2022-05-08T06:25:43.000Z</time></trkpt><trkpt lon="5.863519" lat="51.175307"><ele>17.2</ele><time>2022-05-08T06:25:44.000Z</time></trkpt><trkpt lon="5.863553" lat="51.17537"><ele>17</ele><time>2022-05-08T06:25:45.000Z</time></trkpt><trkpt lon="5.863589" lat="51.175434"><ele>17</ele><time>2022-05-08T06:25:46.000Z</time></trkpt><trkpt lon="5.86363" lat="51.175496"><ele>16.8</ele><time>2022-05-08T06:25:47.000Z</time></trkpt><trkpt lon="5.863678" lat="51.175552"><ele>16.6</ele><time>2022-05-08T06:25:48.000Z</time></trkpt><trkpt lon="5.863731" lat="51.175608"><ele>16.4</ele><time>2022-05-08T06:25:49.000Z</time></trkpt><trkpt lon="5.863791" lat="51.175665"><ele>16.4</ele><time>2022-05-08T06:25:50.000Z</time></trkpt><trkpt lon="5.863859" lat="51.175718"><ele>16.4</ele><time>2022-05-08T06:25:51.000Z</time></trkpt><trkpt lon="5.863941" lat="51.175764"><ele>16.2</ele><time>2022-05-08T06:25:52.000Z</time></trkpt><trkpt lon="5.864036" lat="51.175801"><ele>16.2</ele><time>2022-05-08T06:25:53.000Z</time></trkpt><trkpt lon="5.864135" lat="51.175833"><ele>16.2</ele><time>2022-05-08T06:25:54.000Z</time></trkpt><trkpt lon="5.864237" lat="51.175864"><ele>16</ele><time>2022-05-08T06:25:55.000Z</time></trkpt><trkpt lon="5.864338" lat="51.17589"><ele>15.8</ele><time>2022-05-08T06:25:56.000Z</time></trkpt><trkpt lon="5.864442" lat="51.175908"><ele>15.6</ele><time>2022-05-08T06:25:57.000Z</time></trkpt><trkpt lon="5.86455" lat="51.175924"><ele>15.6</ele><time>2022-05-08T06:25:58.000Z</time></trkpt><trkpt lon="5.864658" lat="51.175937"><ele>15.4</ele><time>2022-05-08T06:25:59.000Z</time></trkpt><trkpt lon="5.864768" lat="51.175948"><ele>15.4</ele><time>2022-05-08T06:26:00.000Z</time></trkpt><trkpt lon="5.864879" lat="51.17596"><ele>15.2</ele><time>2022-05-08T06:26:01.000Z</time></trkpt><trkpt lon="5.864991" lat="51.175969"><ele>15.2</ele><time>2022-05-08T06:26:02.000Z</time></trkpt><trkpt lon="5.865106" lat="51.175979"><ele>15</ele><time>2022-05-08T06:26:03.000Z</time></trkpt><trkpt lon="5.865223" lat="51.17599"><ele>15</ele><time>2022-05-08T06:26:04.000Z</time></trkpt><trkpt lon="5.86534" lat="51.175997"><ele>14.8</ele><time>2022-05-08T06:26:05.000Z</time></trkpt><trkpt lon="5.865456" lat="51.176003"><ele>14.6</ele><time>2022-05-08T06:26:06.000Z</time></trkpt><trkpt lon="5.865573" lat="51.176011"><ele>14.6</ele><time>2022-05-08T06:26:07.000Z</time></trkpt><trkpt lon="5.86569" lat="51.176021"><ele>14.4</ele><time>2022-05-08T06:26:08.000Z</time></trkpt><trkpt lon="5.865806" lat="51.176032"><ele>14.2</ele><time>2022-05-08T06:26:09.000Z</time></trkpt><trkpt lon="5.865922" lat="51.176043"><ele>14</ele><time>2022-05-08T06:26:10.000Z</time></trkpt><trkpt lon="5.866036" lat="51.176055"><ele>14</ele><time>2022-05-08T06:26:11.000Z</time></trkpt><trkpt lon="5.86615" lat="51.176066"><ele>14</ele><time>2022-05-08T06:26:12.000Z</time></trkpt><trkpt lon="5.866265" lat="51.176078"><ele>14</ele><time>2022-05-08T06:26:13.000Z</time></trkpt><trkpt lon="5.866379" lat="51.176089"><ele>13.8</ele><time>2022-05-08T06:26:14.000Z</time></trkpt><trkpt lon="5.866491" lat="51.176098"><ele>13.8</ele><time>2022-05-08T06:26:15.000Z</time></trkpt><trkpt lon="5.866607" lat="51.176108"><ele>13.6</ele><time>2022-05-08T06:26:16.000Z</time></trkpt><trkpt lon="5.866721" lat="51.17612"><ele>13.6</ele><time>2022-05-08T06:26:17.000Z</time></trkpt><trkpt lon="5.866836" lat="51.176131"><ele>13.6</ele><time>2022-05-08T06:26:18.000Z</time></trkpt><trkpt lon="5.866952" lat="51.176145"><ele>13.4</ele><time>2022-05-08T06:26:19.000Z</time></trkpt><trkpt lon="5.867067" lat="51.176158"><ele>13.4</ele><time>2022-05-08T06:26:20.000Z</time></trkpt><trkpt lon="5.86718" lat="51.176167"><ele>13.4</ele><time>2022-05-08T06:26:21.000Z</time></trkpt><trkpt lon="5.867293" lat="51.176177"><ele>13.2</ele><time>2022-05-08T06:26:22.000Z</time></trkpt><trkpt lon="5.867408" lat="51.176186"><ele>13</ele><time>2022-05-08T06:26:23.000Z</time></trkpt><trkpt lon="5.867521" lat="51.176196"><ele>12.6</ele><time>2022-05-08T06:26:24.000Z</time></trkpt><trkpt lon="5.867633" lat="51.176205"><ele>12.4</ele><time>2022-05-08T06:26:25.000Z</time></trkpt><trkpt lon="5.867743" lat="51.176215"><ele>12.4</ele><time>2022-05-08T06:26:26.000Z</time></trkpt><trkpt lon="5.867851" lat="51.176227"><ele>12.2</ele><time>2022-05-08T06:26:27.000Z</time></trkpt><trkpt lon="5.867958" lat="51.176238"><ele>12.2</ele><time>2022-05-08T06:26:28.000Z</time></trkpt><trkpt lon="5.868062" lat="51.17625"><ele>12</ele><time>2022-05-08T06:26:29.000Z</time></trkpt><trkpt lon="5.868163" lat="51.176261"><ele>12</ele><time>2022-05-08T06:26:30.000Z</time></trkpt><trkpt lon="5.868263" lat="51.176272"><ele>12</ele><time>2022-05-08T06:26:31.000Z</time></trkpt><trkpt lon="5.868364" lat="51.176282"><ele>12</ele><time>2022-05-08T06:26:32.000Z</time></trkpt><trkpt lon="5.868463" lat="51.176289"><ele>12</ele><time>2022-05-08T06:26:33.000Z</time></trkpt><trkpt lon="5.868549" lat="51.176296"><ele>12</ele><time>2022-05-08T06:26:34.000Z</time></trkpt><trkpt lon="5.868635" lat="51.176302"><ele>12</ele><time>2022-05-08T06:26:35.000Z</time></trkpt><trkpt lon="5.868739" lat="51.176309"><ele>12</ele><time>2022-05-08T06:26:36.000Z</time></trkpt><trkpt lon="5.868834" lat="51.176314"><ele>12</ele><time>2022-05-08T06:26:37.000Z</time></trkpt><trkpt lon="5.868923" lat="51.176315"><ele>12</ele><time>2022-05-08T06:26:38.000Z</time></trkpt><trkpt lon="5.869013" lat="51.176315"><ele>12</ele><time>2022-05-08T06:26:39.000Z</time></trkpt><trkpt lon="5.869101" lat="51.176315"><ele>12</ele><time>2022-05-08T06:26:40.000Z</time></trkpt><trkpt lon="5.869183" lat="51.17632"><ele>12</ele><time>2022-05-08T06:26:41.000Z</time></trkpt><trkpt lon="5.869258" lat="51.176327"><ele>12</ele><time>2022-05-08T06:26:42.000Z</time></trkpt><trkpt lon="5.869333" lat="51.176337"><ele>12</ele><time>2022-05-08T06:26:43.000Z</time></trkpt><trkpt lon="5.869406" lat="51.176353"><ele>12</ele><time>2022-05-08T06:26:44.000Z</time></trkpt><trkpt lon="5.869483" lat="51.176365"><ele>12</ele><time>2022-05-08T06:26:45.000Z</time></trkpt><trkpt lon="5.869564" lat="51.176369"><ele>12</ele><time>2022-05-08T06:26:46.000Z</time></trkpt><trkpt lon="5.869647" lat="51.176369"><ele>12</ele><time>2022-05-08T06:26:47.000Z</time></trkpt><trkpt lon="5.869732" lat="51.176371"><ele>12</ele><time>2022-05-08T06:26:48.000Z</time></trkpt><trkpt lon="5.869818" lat="51.176372"><ele>12</ele><time>2022-05-08T06:26:49.000Z</time></trkpt><trkpt lon="5.869908" lat="51.176375"><ele>12</ele><time>2022-05-08T06:26:50.000Z</time></trkpt><trkpt lon="5.870003" lat="51.176374"><ele>12.2</ele><time>2022-05-08T06:26:51.000Z</time></trkpt><trkpt lon="5.870099" lat="51.17637"><ele>12.2</ele><time>2022-05-08T06:26:52.000Z</time></trkpt><trkpt lon="5.870196" lat="51.176364"><ele>12.2</ele><time>2022-05-08T06:26:53.000Z</time></trkpt><trkpt lon="5.870291" lat="51.176357"><ele>12.2</ele><time>2022-05-08T06:26:54.000Z</time></trkpt><trkpt lon="5.870388" lat="51.176345"><ele>12.2</ele><time>2022-05-08T06:26:55.000Z</time></trkpt><trkpt lon="5.870486" lat="51.176334"><ele>12.2</ele><time>2022-05-08T06:26:56.000Z</time></trkpt><trkpt lon="5.870582" lat="51.176324"><ele>12</ele><time>2022-05-08T06:26:57.000Z</time></trkpt><trkpt lon="5.870679" lat="51.176313"><ele>12</ele><time>2022-05-08T06:26:58.000Z</time></trkpt><trkpt lon="5.870778" lat="51.176301"><ele>12</ele><time>2022-05-08T06:26:59.000Z</time></trkpt><trkpt lon="5.870879" lat="51.17629"><ele>12</ele><time>2022-05-08T06:27:00.000Z</time></trkpt><trkpt lon="5.87098" lat="51.176278"><ele>12.2</ele><time>2022-05-08T06:27:01.000Z</time></trkpt><trkpt lon="5.871079" lat="51.176269"><ele>12.2</ele><time>2022-05-08T06:27:02.000Z</time></trkpt><trkpt lon="5.871177" lat="51.176261"><ele>12.2</ele><time>2022-05-08T06:27:03.000Z</time></trkpt><trkpt lon="5.871273" lat="51.176251"><ele>12.4</ele><time>2022-05-08T06:27:04.000Z</time></trkpt><trkpt lon="5.87137" lat="51.176242"><ele>12.4</ele><time>2022-05-08T06:27:05.000Z</time></trkpt><trkpt lon="5.871465" lat="51.176232"><ele>12.4</ele><time>2022-05-08T06:27:06.000Z</time></trkpt><trkpt lon="5.871559" lat="51.176221"><ele>12.4</ele><time>2022-05-08T06:27:07.000Z</time></trkpt><trkpt lon="5.871653" lat="51.176212"><ele>12.4</ele><time>2022-05-08T06:27:08.000Z</time></trkpt><trkpt lon="5.871746" lat="51.176202"><ele>12.6</ele><time>2022-05-08T06:27:09.000Z</time></trkpt><trkpt lon="5.871835" lat="51.176193"><ele>12.6</ele><time>2022-05-08T06:27:10.000Z</time></trkpt><trkpt lon="5.871921" lat="51.176185"><ele>12.8</ele><time>2022-05-08T06:27:11.000Z</time></trkpt><trkpt lon="5.872005" lat="51.17618"><ele>12.8</ele><time>2022-05-08T06:27:12.000Z</time></trkpt><trkpt lon="5.872088" lat="51.176174"><ele>13</ele><time>2022-05-08T06:27:13.000Z</time></trkpt><trkpt lon="5.87217" lat="51.176168"><ele>13</ele><time>2022-05-08T06:27:14.000Z</time></trkpt><trkpt lon="5.872249" lat="51.176169"><ele>13</ele><time>2022-05-08T06:27:15.000Z</time></trkpt><trkpt lon="5.872323" lat="51.176173"><ele>13</ele><time>2022-05-08T06:27:16.000Z</time></trkpt><trkpt lon="5.87239" lat="51.176176"><ele>13</ele><time>2022-05-08T06:27:17.000Z</time></trkpt><trkpt lon="5.872449" lat="51.17618"><ele>13</ele><time>2022-05-08T06:27:18.000Z</time></trkpt><trkpt lon="5.872503" lat="51.176175"><ele>13</ele><time>2022-05-08T06:27:19.000Z</time></trkpt><trkpt lon="5.872551" lat="51.17616"><ele>13</ele><time>2022-05-08T06:27:20.000Z</time></trkpt><trkpt lon="5.87259" lat="51.176132"><ele>13</ele><time>2022-05-08T06:27:21.000Z</time></trkpt><trkpt lon="5.872614" lat="51.176092"><ele>13</ele><time>2022-05-08T06:27:22.000Z</time></trkpt><trkpt lon="5.872633" lat="51.176051"><ele>12.8</ele><time>2022-05-08T06:27:23.000Z</time></trkpt><trkpt lon="5.872655" lat="51.176007"><ele>12.8</ele><time>2022-05-08T06:27:24.000Z</time></trkpt><trkpt lon="5.872676" lat="51.175961"><ele>12.8</ele><time>2022-05-08T06:27:25.000Z</time></trkpt><trkpt lon="5.872689" lat="51.175913"><ele>12.6</ele><time>2022-05-08T06:27:26.000Z</time></trkpt><trkpt lon="5.872698" lat="51.175859"><ele>12.6</ele><time>2022-05-08T06:27:27.000Z</time></trkpt><trkpt lon="5.872709" lat="51.1758"><ele>12.4</ele><time>2022-05-08T06:27:28.000Z</time></trkpt><trkpt lon="5.872723" lat="51.175734"><ele>12.2</ele><time>2022-05-08T06:27:29.000Z</time></trkpt><trkpt lon="5.872734" lat="51.175663"><ele>12.2</ele><time>2022-05-08T06:27:30.000Z</time></trkpt><trkpt lon="5.87274" lat="51.175586"><ele>12</ele><time>2022-05-08T06:27:31.000Z</time></trkpt><trkpt lon="5.872742" lat="51.175508"><ele>12</ele><time>2022-05-08T06:27:32.000Z</time></trkpt><trkpt lon="5.872741" lat="51.17543"><ele>12</ele><time>2022-05-08T06:27:33.000Z</time></trkpt><trkpt lon="5.872735" lat="51.175352"><ele>11.8</ele><time>2022-05-08T06:27:34.000Z</time></trkpt><trkpt lon="5.872729" lat="51.175273"><ele>11.8</ele><time>2022-05-08T06:27:35.000Z</time></trkpt><trkpt lon="5.872723" lat="51.175195"><ele>11.8</ele><time>2022-05-08T06:27:36.000Z</time></trkpt><trkpt lon="5.872717" lat="51.17512"><ele>11.6</ele><time>2022-05-08T06:27:37.000Z</time></trkpt><trkpt lon="5.872712" lat="51.175048"><ele>11.6</ele><time>2022-05-08T06:27:38.000Z</time></trkpt><trkpt lon="5.872707" lat="51.174976"><ele>11.6</ele><time>2022-05-08T06:27:39.000Z</time></trkpt><trkpt lon="5.872701" lat="51.174903"><ele>11.4</ele><time>2022-05-08T06:27:40.000Z</time></trkpt><trkpt lon="5.872694" lat="51.174833"><ele>11.4</ele><time>2022-05-08T06:27:41.000Z</time></trkpt><trkpt lon="5.872689" lat="51.174765"><ele>11.2</ele><time>2022-05-08T06:27:42.000Z</time></trkpt><trkpt lon="5.872683" lat="51.174699"><ele>11.2</ele><time>2022-05-08T06:27:43.000Z</time></trkpt><trkpt lon="5.872677" lat="51.174633"><ele>11.2</ele><time>2022-05-08T06:27:44.000Z</time></trkpt><trkpt lon="5.872672" lat="51.174566"><ele>11.2</ele><time>2022-05-08T06:27:45.000Z</time></trkpt><trkpt lon="5.872671" lat="51.174498"><ele>11.2</ele><time>2022-05-08T06:27:46.000Z</time></trkpt><trkpt lon="5.872674" lat="51.174432"><ele>11.2</ele><time>2022-05-08T06:27:47.000Z</time></trkpt><trkpt lon="5.87268" lat="51.174368"><ele>11.2</ele><time>2022-05-08T06:27:48.000Z</time></trkpt><trkpt lon="5.87269" lat="51.174301"><ele>11.2</ele><time>2022-05-08T06:27:49.000Z</time></trkpt><trkpt lon="5.872702" lat="51.174232"><ele>11.2</ele><time>2022-05-08T06:27:50.000Z</time></trkpt><trkpt lon="5.872715" lat="51.174165"><ele>11</ele><time>2022-05-08T06:27:51.000Z</time></trkpt><trkpt lon="5.872731" lat="51.174099"><ele>11</ele><time>2022-05-08T06:27:52.000Z</time></trkpt><trkpt lon="5.872745" lat="51.174036"><ele>11.2</ele><time>2022-05-08T06:27:53.000Z</time></trkpt><trkpt lon="5.872754" lat="51.173977"><ele>11.2</ele><time>2022-05-08T06:27:54.000Z</time></trkpt><trkpt lon="5.872762" lat="51.17392"><ele>11.2</ele><time>2022-05-08T06:27:55.000Z</time></trkpt><trkpt lon="5.872771" lat="51.173861"><ele>11.2</ele><time>2022-05-08T06:27:56.000Z</time></trkpt><trkpt lon="5.872781" lat="51.173803"><ele>11.2</ele><time>2022-05-08T06:27:57.000Z</time></trkpt><trkpt lon="5.872795" lat="51.173743"><ele>11.2</ele><time>2022-05-08T06:27:58.000Z</time></trkpt><trkpt lon="5.872817" lat="51.173683"><ele>11.2</ele><time>2022-05-08T06:27:59.000Z</time></trkpt><trkpt lon="5.872844" lat="51.173626"><ele>11.4</ele><time>2022-05-08T06:28:00.000Z</time></trkpt><trkpt lon="5.872876" lat="51.173572"><ele>11.4</ele><time>2022-05-08T06:28:01.000Z</time></trkpt><trkpt lon="5.872912" lat="51.173518"><ele>11.4</ele><time>2022-05-08T06:28:02.000Z</time></trkpt><trkpt lon="5.872954" lat="51.173458"><ele>11.4</ele><time>2022-05-08T06:28:03.000Z</time></trkpt><trkpt lon="5.872999" lat="51.173399"><ele>11.6</ele><time>2022-05-08T06:28:04.000Z</time></trkpt><trkpt lon="5.873045" lat="51.173339"><ele>11.6</ele><time>2022-05-08T06:28:05.000Z</time></trkpt><trkpt lon="5.873095" lat="51.173276"><ele>11.8</ele><time>2022-05-08T06:28:06.000Z</time></trkpt><trkpt lon="5.873146" lat="51.173212"><ele>12</ele><time>2022-05-08T06:28:07.000Z</time></trkpt><trkpt lon="5.8732" lat="51.173145"><ele>12</ele><time>2022-05-08T06:28:08.000Z</time></trkpt><trkpt lon="5.873258" lat="51.173075"><ele>12.2</ele><time>2022-05-08T06:28:09.000Z</time></trkpt><trkpt lon="5.873314" lat="51.173011"><ele>12.2</ele><time>2022-05-08T06:28:10.000Z</time></trkpt><trkpt lon="5.873371" lat="51.172945"><ele>12.4</ele><time>2022-05-08T06:28:11.000Z</time></trkpt><trkpt lon="5.87343" lat="51.172877"><ele>12.6</ele><time>2022-05-08T06:28:12.000Z</time></trkpt><trkpt lon="5.873486" lat="51.172813"><ele>12.6</ele><time>2022-05-08T06:28:13.000Z</time></trkpt><trkpt lon="5.873539" lat="51.172749"><ele>12.6</ele><time>2022-05-08T06:28:14.000Z</time></trkpt><trkpt lon="5.873589" lat="51.172686"><ele>12.8</ele><time>2022-05-08T06:28:15.000Z</time></trkpt><trkpt lon="5.873641" lat="51.172621"><ele>13</ele><time>2022-05-08T06:28:16.000Z</time></trkpt><trkpt lon="5.873693" lat="51.172559"><ele>13</ele><time>2022-05-08T06:28:17.000Z</time></trkpt><trkpt lon="5.873737" lat="51.172506"><ele>13.2</ele><time>2022-05-08T06:28:18.000Z</time></trkpt><trkpt lon="5.873785" lat="51.172446"><ele>13.4</ele><time>2022-05-08T06:28:19.000Z</time></trkpt><trkpt lon="5.873837" lat="51.172381"><ele>13.4</ele><time>2022-05-08T06:28:20.000Z</time></trkpt><trkpt lon="5.873887" lat="51.172318"><ele>13.6</ele><time>2022-05-08T06:28:21.000Z</time></trkpt><trkpt lon="5.873939" lat="51.172256"><ele>13.6</ele><time>2022-05-08T06:28:22.000Z</time></trkpt><trkpt lon="5.873988" lat="51.172197"><ele>13.8</ele><time>2022-05-08T06:28:23.000Z</time></trkpt><trkpt lon="5.874039" lat="51.172137"><ele>14</ele><time>2022-05-08T06:28:24.000Z</time></trkpt><trkpt lon="5.87409" lat="51.172078"><ele>14</ele><time>2022-05-08T06:28:25.000Z</time></trkpt><trkpt lon="5.87414" lat="51.172021"><ele>14.2</ele><time>2022-05-08T06:28:26.000Z</time></trkpt><trkpt lon="5.874189" lat="51.171964"><ele>14.4</ele><time>2022-05-08T06:28:27.000Z</time></trkpt><trkpt lon="5.874238" lat="51.171908"><ele>14.4</ele><time>2022-05-08T06:28:28.000Z</time></trkpt><trkpt lon="5.874291" lat="51.171852"><ele>14.6</ele><time>2022-05-08T06:28:29.000Z</time></trkpt><trkpt lon="5.874347" lat="51.171797"><ele>14.8</ele><time>2022-05-08T06:28:30.000Z</time></trkpt><trkpt lon="5.874401" lat="51.171744"><ele>14.8</ele><time>2022-05-08T06:28:31.000Z</time></trkpt><trkpt lon="5.874446" lat="51.171692"><ele>15</ele><time>2022-05-08T06:28:32.000Z</time></trkpt><trkpt lon="5.874483" lat="51.171645"><ele>15.2</ele><time>2022-05-08T06:28:33.000Z</time></trkpt><trkpt lon="5.874513" lat="51.171598"><ele>15.2</ele><time>2022-05-08T06:28:34.000Z</time></trkpt><trkpt lon="5.874536" lat="51.171553"><ele>15.4</ele><time>2022-05-08T06:28:35.000Z</time></trkpt><trkpt lon="5.874553" lat="51.171503"><ele>15.4</ele><time>2022-05-08T06:28:36.000Z</time></trkpt><trkpt lon="5.874562" lat="51.171448"><ele>15.6</ele><time>2022-05-08T06:28:37.000Z</time></trkpt><trkpt lon="5.874562" lat="51.171392"><ele>15.6</ele><time>2022-05-08T06:28:38.000Z</time></trkpt><trkpt lon="5.87455" lat="51.17133"><ele>15.8</ele><time>2022-05-08T06:28:39.000Z</time></trkpt><trkpt lon="5.874522" lat="51.171259"><ele>16</ele><time>2022-05-08T06:28:40.000Z</time></trkpt><trkpt lon="5.874492" lat="51.1712"><ele>16</ele><time>2022-05-08T06:28:41.000Z</time></trkpt><trkpt lon="5.874462" lat="51.171147"><ele>16.2</ele><time>2022-05-08T06:28:42.000Z</time></trkpt><trkpt lon="5.874429" lat="51.171091"><ele>16.4</ele><time>2022-05-08T06:28:43.000Z</time></trkpt><trkpt lon="5.874397" lat="51.171038"><ele>16.4</ele><time>2022-05-08T06:28:44.000Z</time></trkpt><trkpt lon="5.874365" lat="51.170991"><ele>16.6</ele><time>2022-05-08T06:28:45.000Z</time></trkpt><trkpt lon="5.874329" lat="51.170941"><ele>16.6</ele><time>2022-05-08T06:28:46.000Z</time></trkpt><trkpt lon="5.874288" lat="51.170884"><ele>16.8</ele><time>2022-05-08T06:28:47.000Z</time></trkpt><trkpt lon="5.874245" lat="51.170825"><ele>16.8</ele><time>2022-05-08T06:28:48.000Z</time></trkpt><trkpt lon="5.8742" lat="51.170765"><ele>16.8</ele><time>2022-05-08T06:28:49.000Z</time></trkpt><trkpt lon="5.874154" lat="51.170708"><ele>16.8</ele><time>2022-05-08T06:28:50.000Z</time></trkpt><trkpt lon="5.874109" lat="51.170652"><ele>16.8</ele><time>2022-05-08T06:28:51.000Z</time></trkpt><trkpt lon="5.874068" lat="51.1706"><ele>16.8</ele><time>2022-05-08T06:28:52.000Z</time></trkpt><trkpt lon="5.87403" lat="51.170552"><ele>16.8</ele><time>2022-05-08T06:28:53.000Z</time></trkpt><trkpt lon="5.873992" lat="51.170504"><ele>16.8</ele><time>2022-05-08T06:28:54.000Z</time></trkpt><trkpt lon="5.873956" lat="51.170459"><ele>16.8</ele><time>2022-05-08T06:28:55.000Z</time></trkpt><trkpt lon="5.873918" lat="51.170411"><ele>16.8</ele><time>2022-05-08T06:28:56.000Z</time></trkpt><trkpt lon="5.873877" lat="51.170365"><ele>16.6</ele><time>2022-05-08T06:28:57.000Z</time></trkpt><trkpt lon="5.873837" lat="51.170324"><ele>16.8</ele><time>2022-05-08T06:28:58.000Z</time></trkpt><trkpt lon="5.873806" lat="51.170281"><ele>16.8</ele><time>2022-05-08T06:28:59.000Z</time></trkpt><trkpt lon="5.873792" lat="51.170235"><ele>16.8</ele><time>2022-05-08T06:29:00.000Z</time></trkpt><trkpt lon="5.873792" lat="51.170178"><ele>16.6</ele><time>2022-05-08T06:29:01.000Z</time></trkpt><trkpt lon="5.873801" lat="51.170117"><ele>16.6</ele><time>2022-05-08T06:29:02.000Z</time></trkpt><trkpt lon="5.873821" lat="51.170055"><ele>16.4</ele><time>2022-05-08T06:29:03.000Z</time></trkpt><trkpt lon="5.873855" lat="51.169988"><ele>16</ele><time>2022-05-08T06:29:04.000Z</time></trkpt><trkpt lon="5.873898" lat="51.169919"><ele>15.8</ele><time>2022-05-08T06:29:05.000Z</time></trkpt><trkpt lon="5.873944" lat="51.169858"><ele>15.8</ele><time>2022-05-08T06:29:06.000Z</time></trkpt><trkpt lon="5.873998" lat="51.169795"><ele>15.8</ele><time>2022-05-08T06:29:07.000Z</time></trkpt><trkpt lon="5.874067" lat="51.169732"><ele>15.6</ele><time>2022-05-08T06:29:08.000Z</time></trkpt><trkpt lon="5.874141" lat="51.169676"><ele>15.6</ele><time>2022-05-08T06:29:09.000Z</time></trkpt><trkpt lon="5.874226" lat="51.169622"><ele>15.6</ele><time>2022-05-08T06:29:10.000Z</time></trkpt><trkpt lon="5.87432" lat="51.169574"><ele>15.4</ele><time>2022-05-08T06:29:11.000Z</time></trkpt><trkpt lon="5.874422" lat="51.169525"><ele>15.2</ele><time>2022-05-08T06:29:12.000Z</time></trkpt><trkpt lon="5.874525" lat="51.169476"><ele>15.2</ele><time>2022-05-08T06:29:13.000Z</time></trkpt><trkpt lon="5.874622" lat="51.169432"><ele>15</ele><time>2022-05-08T06:29:14.000Z</time></trkpt><trkpt lon="5.874716" lat="51.169392"><ele>14.8</ele><time>2022-05-08T06:29:15.000Z</time></trkpt><trkpt lon="5.87481" lat="51.169352"><ele>14.6</ele><time>2022-05-08T06:29:16.000Z</time></trkpt><trkpt lon="5.874904" lat="51.169312"><ele>14.6</ele><time>2022-05-08T06:29:17.000Z</time></trkpt><trkpt lon="5.875" lat="51.169272"><ele>14.4</ele><time>2022-05-08T06:29:18.000Z</time></trkpt><trkpt lon="5.875096" lat="51.16923"><ele>14.2</ele><time>2022-05-08T06:29:19.000Z</time></trkpt><trkpt lon="5.87519" lat="51.16919"><ele>14</ele><time>2022-05-08T06:29:20.000Z</time></trkpt><trkpt lon="5.87528" lat="51.16915"><ele>14</ele><time>2022-05-08T06:29:21.000Z</time></trkpt><trkpt lon="5.875375" lat="51.169112"><ele>13.8</ele><time>2022-05-08T06:29:22.000Z</time></trkpt><trkpt lon="5.875471" lat="51.169073"><ele>13.6</ele><time>2022-05-08T06:29:23.000Z</time></trkpt><trkpt lon="5.875566" lat="51.169029"><ele>13.4</ele><time>2022-05-08T06:29:24.000Z</time></trkpt><trkpt lon="5.875663" lat="51.168986"><ele>13.4</ele><time>2022-05-08T06:29:25.000Z</time></trkpt><trkpt lon="5.875762" lat="51.168944"><ele>13.2</ele><time>2022-05-08T06:29:26.000Z</time></trkpt><trkpt lon="5.875861" lat="51.1689"><ele>13</ele><time>2022-05-08T06:29:27.000Z</time></trkpt><trkpt lon="5.875961" lat="51.168856"><ele>13</ele><time>2022-05-08T06:29:28.000Z</time></trkpt><trkpt lon="5.876065" lat="51.168812"><ele>12.8</ele><time>2022-05-08T06:29:29.000Z</time></trkpt><trkpt lon="5.87617" lat="51.168768"><ele>12.6</ele><time>2022-05-08T06:29:30.000Z</time></trkpt><trkpt lon="5.876273" lat="51.168726"><ele>12.6</ele><time>2022-05-08T06:29:31.000Z</time></trkpt><trkpt lon="5.876371" lat="51.168687"><ele>12.4</ele><time>2022-05-08T06:29:32.000Z</time></trkpt><trkpt lon="5.876466" lat="51.168647"><ele>12.4</ele><time>2022-05-08T06:29:33.000Z</time></trkpt><trkpt lon="5.876562" lat="51.168604"><ele>12.2</ele><time>2022-05-08T06:29:34.000Z</time></trkpt><trkpt lon="5.876661" lat="51.168562"><ele>12</ele><time>2022-05-08T06:29:35.000Z</time></trkpt><trkpt lon="5.876762" lat="51.168518"><ele>11.8</ele><time>2022-05-08T06:29:36.000Z</time></trkpt><trkpt lon="5.876861" lat="51.168474"><ele>11.8</ele><time>2022-05-08T06:29:37.000Z</time></trkpt><trkpt lon="5.876962" lat="51.168433"><ele>11.6</ele><time>2022-05-08T06:29:38.000Z</time></trkpt><trkpt lon="5.877067" lat="51.168391"><ele>11.6</ele><time>2022-05-08T06:29:39.000Z</time></trkpt><trkpt lon="5.877169" lat="51.168351"><ele>11.6</ele><time>2022-05-08T06:29:40.000Z</time></trkpt><trkpt lon="5.877271" lat="51.168313"><ele>11.6</ele><time>2022-05-08T06:29:41.000Z</time></trkpt><trkpt lon="5.87737" lat="51.168276"><ele>11.6</ele><time>2022-05-08T06:29:42.000Z</time></trkpt><trkpt lon="5.877472" lat="51.16824"><ele>11.6</ele><time>2022-05-08T06:29:43.000Z</time></trkpt><trkpt lon="5.877572" lat="51.168204"><ele>11.6</ele><time>2022-05-08T06:29:44.000Z</time></trkpt><trkpt lon="5.877669" lat="51.168172"><ele>11.6</ele><time>2022-05-08T06:29:45.000Z</time></trkpt><trkpt lon="5.877767" lat="51.16814"><ele>11.8</ele><time>2022-05-08T06:29:46.000Z</time></trkpt><trkpt lon="5.877863" lat="51.168107"><ele>11.8</ele><time>2022-05-08T06:29:47.000Z</time></trkpt><trkpt lon="5.877956" lat="51.168075"><ele>11.8</ele><time>2022-05-08T06:29:48.000Z</time></trkpt><trkpt lon="5.878051" lat="51.168043"><ele>11.8</ele><time>2022-05-08T06:29:49.000Z</time></trkpt><trkpt lon="5.878146" lat="51.168014"><ele>11.8</ele><time>2022-05-08T06:29:50.000Z</time></trkpt><trkpt lon="5.878241" lat="51.167988"><ele>11.8</ele><time>2022-05-08T06:29:51.000Z</time></trkpt><trkpt lon="5.878334" lat="51.167959"><ele>12</ele><time>2022-05-08T06:29:52.000Z</time></trkpt><trkpt lon="5.878427" lat="51.167926"><ele>12</ele><time>2022-05-08T06:29:53.000Z</time></trkpt><trkpt lon="5.878519" lat="51.167889"><ele>12</ele><time>2022-05-08T06:29:54.000Z</time></trkpt><trkpt lon="5.878614" lat="51.167858"><ele>12</ele><time>2022-05-08T06:29:55.000Z</time></trkpt><trkpt lon="5.878714" lat="51.167831"><ele>12.2</ele><time>2022-05-08T06:29:56.000Z</time></trkpt><trkpt lon="5.878822" lat="51.167807"><ele>12.2</ele><time>2022-05-08T06:29:57.000Z</time></trkpt><trkpt lon="5.878934" lat="51.167782"><ele>12.2</ele><time>2022-05-08T06:29:58.000Z</time></trkpt><trkpt lon="5.879048" lat="51.167755"><ele>12.2</ele><time>2022-05-08T06:29:59.000Z</time></trkpt><trkpt lon="5.87916" lat="51.167726"><ele>12.2</ele><time>2022-05-08T06:30:00.000Z</time></trkpt><trkpt lon="5.879267" lat="51.167694"><ele>12.2</ele><time>2022-05-08T06:30:01.000Z</time></trkpt><trkpt lon="5.879376" lat="51.167661"><ele>12.2</ele><time>2022-05-08T06:30:02.000Z</time></trkpt><trkpt lon="5.879484" lat="51.167631"><ele>12.4</ele><time>2022-05-08T06:30:03.000Z</time></trkpt><trkpt lon="5.879586" lat="51.167601"><ele>12.4</ele><time>2022-05-08T06:30:04.000Z</time></trkpt><trkpt lon="5.879687" lat="51.16757"><ele>12.2</ele><time>2022-05-08T06:30:05.000Z</time></trkpt><trkpt lon="5.879785" lat="51.167542"><ele>12.2</ele><time>2022-05-08T06:30:06.000Z</time></trkpt><trkpt lon="5.879885" lat="51.167513"><ele>12.2</ele><time>2022-05-08T06:30:07.000Z</time></trkpt><trkpt lon="5.879986" lat="51.167482"><ele>12.2</ele><time>2022-05-08T06:30:08.000Z</time></trkpt><trkpt lon="5.880088" lat="51.167454"><ele>12.2</ele><time>2022-05-08T06:30:09.000Z</time></trkpt><trkpt lon="5.880191" lat="51.167425"><ele>12.4</ele><time>2022-05-08T06:30:10.000Z</time></trkpt><trkpt lon="5.880291" lat="51.167396"><ele>12.4</ele><time>2022-05-08T06:30:11.000Z</time></trkpt><trkpt lon="5.880387" lat="51.167367"><ele>12.4</ele><time>2022-05-08T06:30:12.000Z</time></trkpt><trkpt lon="5.880484" lat="51.167339"><ele>12.4</ele><time>2022-05-08T06:30:13.000Z</time></trkpt><trkpt lon="5.880585" lat="51.167312"><ele>12.4</ele><time>2022-05-08T06:30:14.000Z</time></trkpt><trkpt lon="5.880686" lat="51.167284"><ele>12.4</ele><time>2022-05-08T06:30:15.000Z</time></trkpt><trkpt lon="5.880785" lat="51.167253"><ele>12.4</ele><time>2022-05-08T06:30:16.000Z</time></trkpt><trkpt lon="5.880883" lat="51.167225"><ele>12.4</ele><time>2022-05-08T06:30:17.000Z</time></trkpt><trkpt lon="5.880982" lat="51.167196"><ele>12.4</ele><time>2022-05-08T06:30:18.000Z</time></trkpt><trkpt lon="5.881087" lat="51.167163"><ele>12.4</ele><time>2022-05-08T06:30:19.000Z</time></trkpt><trkpt lon="5.881193" lat="51.167133"><ele>12.4</ele><time>2022-05-08T06:30:20.000Z</time></trkpt><trkpt lon="5.8813" lat="51.167104"><ele>12.4</ele><time>2022-05-08T06:30:21.000Z</time></trkpt><trkpt lon="5.881404" lat="51.167074"><ele>12.4</ele><time>2022-05-08T06:30:22.000Z</time></trkpt><trkpt lon="5.881506" lat="51.167043"><ele>12.4</ele><time>2022-05-08T06:30:23.000Z</time></trkpt><trkpt lon="5.881608" lat="51.167013"><ele>12.4</ele><time>2022-05-08T06:30:24.000Z</time></trkpt><trkpt lon="5.881711" lat="51.166984"><ele>12.4</ele><time>2022-05-08T06:30:25.000Z</time></trkpt><trkpt lon="5.881813" lat="51.166955"><ele>12.4</ele><time>2022-05-08T06:30:26.000Z</time></trkpt><trkpt lon="5.881918" lat="51.166923"><ele>12.4</ele><time>2022-05-08T06:30:27.000Z</time></trkpt><trkpt lon="5.882023" lat="51.166891"><ele>12.4</ele><time>2022-05-08T06:30:28.000Z</time></trkpt><trkpt lon="5.882129" lat="51.166862"><ele>12.4</ele><time>2022-05-08T06:30:29.000Z</time></trkpt><trkpt lon="5.882233" lat="51.166834"><ele>12.4</ele><time>2022-05-08T06:30:30.000Z</time></trkpt><trkpt lon="5.882337" lat="51.166803"><ele>12.4</ele><time>2022-05-08T06:30:31.000Z</time></trkpt><trkpt lon="5.88244" lat="51.166772"><ele>12.4</ele><time>2022-05-08T06:30:32.000Z</time></trkpt><trkpt lon="5.882538" lat="51.166744"><ele>12.4</ele><time>2022-05-08T06:30:33.000Z</time></trkpt><trkpt lon="5.882634" lat="51.166715"><ele>12.4</ele><time>2022-05-08T06:30:34.000Z</time></trkpt><trkpt lon="5.882729" lat="51.166687"><ele>12.4</ele><time>2022-05-08T06:30:35.000Z</time></trkpt><trkpt lon="5.882826" lat="51.166658"><ele>12.4</ele><time>2022-05-08T06:30:36.000Z</time></trkpt><trkpt lon="5.882924" lat="51.16663"><ele>12.4</ele><time>2022-05-08T06:30:37.000Z</time></trkpt><trkpt lon="5.883019" lat="51.166598"><ele>12.4</ele><time>2022-05-08T06:30:38.000Z</time></trkpt><trkpt lon="5.883111" lat="51.166564"><ele>12.4</ele><time>2022-05-08T06:30:39.000Z</time></trkpt><trkpt lon="5.883199" lat="51.166528"><ele>12.4</ele><time>2022-05-08T06:30:40.000Z</time></trkpt><trkpt lon="5.883284" lat="51.166489"><ele>12.4</ele><time>2022-05-08T06:30:41.000Z</time></trkpt><trkpt lon="5.883367" lat="51.166447"><ele>12.4</ele><time>2022-05-08T06:30:42.000Z</time></trkpt><trkpt lon="5.883446" lat="51.166404"><ele>12.4</ele><time>2022-05-08T06:30:43.000Z</time></trkpt><trkpt lon="5.883517" lat="51.166359"><ele>12.4</ele><time>2022-05-08T06:30:44.000Z</time></trkpt><trkpt lon="5.883578" lat="51.166311"><ele>12.2</ele><time>2022-05-08T06:30:45.000Z</time></trkpt><trkpt lon="5.883632" lat="51.166264"><ele>12.4</ele><time>2022-05-08T06:30:46.000Z</time></trkpt><trkpt lon="5.883678" lat="51.166216"><ele>12.4</ele><time>2022-05-08T06:30:47.000Z</time></trkpt><trkpt lon="5.883718" lat="51.166168"><ele>12.4</ele><time>2022-05-08T06:30:48.000Z</time></trkpt><trkpt lon="5.883756" lat="51.166123"><ele>12.4</ele><time>2022-05-08T06:30:49.000Z</time></trkpt><trkpt lon="5.883788" lat="51.166079"><ele>12.2</ele><time>2022-05-08T06:30:50.000Z</time></trkpt><trkpt lon="5.883812" lat="51.166035"><ele>12.2</ele><time>2022-05-08T06:30:51.000Z</time></trkpt><trkpt lon="5.88383" lat="51.165993"><ele>12.2</ele><time>2022-05-08T06:30:52.000Z</time></trkpt><trkpt lon="5.883843" lat="51.165955"><ele>12.2</ele><time>2022-05-08T06:30:53.000Z</time></trkpt><trkpt lon="5.88385" lat="51.165915"><ele>12.2</ele><time>2022-05-08T06:30:54.000Z</time></trkpt><trkpt lon="5.883853" lat="51.165871"><ele>12.2</ele><time>2022-05-08T06:30:55.000Z</time></trkpt><trkpt lon="5.883854" lat="51.165826"><ele>12.2</ele><time>2022-05-08T06:30:56.000Z</time></trkpt><trkpt lon="5.883852" lat="51.165782"><ele>12.2</ele><time>2022-05-08T06:30:57.000Z</time></trkpt><trkpt lon="5.883851" lat="51.165742"><ele>12.2</ele><time>2022-05-08T06:30:58.000Z</time></trkpt><trkpt lon="5.883861" lat="51.16571"><ele>12.2</ele><time>2022-05-08T06:30:59.000Z</time></trkpt><trkpt lon="5.88389" lat="51.165688"><ele>12.2</ele><time>2022-05-08T06:31:00.000Z</time></trkpt><trkpt lon="5.883936" lat="51.165676"><ele>12.2</ele><time>2022-05-08T06:31:01.000Z</time></trkpt><trkpt lon="5.883997" lat="51.165677"><ele>12.2</ele><time>2022-05-08T06:31:02.000Z</time></trkpt><trkpt lon="5.884072" lat="51.165682"><ele>12.2</ele><time>2022-05-08T06:31:03.000Z</time></trkpt><trkpt lon="5.884162" lat="51.165691"><ele>12.2</ele><time>2022-05-08T06:31:04.000Z</time></trkpt><trkpt lon="5.88426" lat="51.1657"><ele>12.4</ele><time>2022-05-08T06:31:05.000Z</time></trkpt><trkpt lon="5.884365" lat="51.165712"><ele>12.4</ele><time>2022-05-08T06:31:06.000Z</time></trkpt><trkpt lon="5.884471" lat="51.165727"><ele>12.4</ele><time>2022-05-08T06:31:07.000Z</time></trkpt><trkpt lon="5.88458" lat="51.165744"><ele>12.4</ele><time>2022-05-08T06:31:08.000Z</time></trkpt><trkpt lon="5.88469" lat="51.165768"><ele>12.6</ele><time>2022-05-08T06:31:09.000Z</time></trkpt><trkpt lon="5.884795" lat="51.165797"><ele>12.8</ele><time>2022-05-08T06:31:10.000Z</time></trkpt><trkpt lon="5.884895" lat="51.16583"><ele>13</ele><time>2022-05-08T06:31:11.000Z</time></trkpt><trkpt lon="5.884991" lat="51.165866"><ele>13.2</ele><time>2022-05-08T06:31:12.000Z</time></trkpt><trkpt lon="5.885084" lat="51.165908"><ele>13.2</ele><time>2022-05-08T06:31:13.000Z</time></trkpt><trkpt lon="5.885167" lat="51.165954"><ele>13.4</ele><time>2022-05-08T06:31:14.000Z</time></trkpt><trkpt lon="5.88524" lat="51.166002"><ele>13.6</ele><time>2022-05-08T06:31:15.000Z</time></trkpt><trkpt lon="5.885305" lat="51.166054"><ele>13.8</ele><time>2022-05-08T06:31:16.000Z</time></trkpt><trkpt lon="5.885363" lat="51.16611"><ele>13.8</ele><time>2022-05-08T06:31:17.000Z</time></trkpt><trkpt lon="5.885418" lat="51.166169"><ele>13.8</ele><time>2022-05-08T06:31:18.000Z</time></trkpt><trkpt lon="5.885473" lat="51.166228"><ele>14</ele><time>2022-05-08T06:31:19.000Z</time></trkpt><trkpt lon="5.885527" lat="51.166287"><ele>14</ele><time>2022-05-08T06:31:20.000Z</time></trkpt><trkpt lon="5.885584" lat="51.166351"><ele>14.2</ele><time>2022-05-08T06:31:21.000Z</time></trkpt><trkpt lon="5.885638" lat="51.166416"><ele>14.4</ele><time>2022-05-08T06:31:22.000Z</time></trkpt><trkpt lon="5.885688" lat="51.166483"><ele>14.4</ele><time>2022-05-08T06:31:23.000Z</time></trkpt><trkpt lon="5.885737" lat="51.166548"><ele>14.4</ele><time>2022-05-08T06:31:24.000Z</time></trkpt><trkpt lon="5.885785" lat="51.166611"><ele>14.8</ele><time>2022-05-08T06:31:25.000Z</time></trkpt><trkpt lon="5.885832" lat="51.166672"><ele>15.2</ele><time>2022-05-08T06:31:26.000Z</time></trkpt><trkpt lon="5.885878" lat="51.166734"><ele>15.4</ele><time>2022-05-08T06:31:27.000Z</time></trkpt><trkpt lon="5.885922" lat="51.166795"><ele>15.6</ele><time>2022-05-08T06:31:28.000Z</time></trkpt><trkpt lon="5.885966" lat="51.166854"><ele>15.8</ele><time>2022-05-08T06:31:29.000Z</time></trkpt><trkpt lon="5.886011" lat="51.166911"><ele>16</ele><time>2022-05-08T06:31:30.000Z</time></trkpt><trkpt lon="5.886057" lat="51.166968"><ele>16.2</ele><time>2022-05-08T06:31:31.000Z</time></trkpt><trkpt lon="5.886105" lat="51.167028"><ele>16.4</ele><time>2022-05-08T06:31:32.000Z</time></trkpt><trkpt lon="5.886152" lat="51.167086"><ele>16.4</ele><time>2022-05-08T06:31:33.000Z</time></trkpt><trkpt lon="5.886199" lat="51.167144"><ele>16.6</ele><time>2022-05-08T06:31:34.000Z</time></trkpt><trkpt lon="5.886246" lat="51.167201"><ele>16.6</ele><time>2022-05-08T06:31:35.000Z</time></trkpt><trkpt lon="5.886291" lat="51.167258"><ele>16.8</ele><time>2022-05-08T06:31:36.000Z</time></trkpt><trkpt lon="5.886338" lat="51.167318"><ele>16.8</ele><time>2022-05-08T06:31:37.000Z</time></trkpt><trkpt lon="5.886386" lat="51.167376"><ele>16.8</ele><time>2022-05-08T06:31:38.000Z</time></trkpt><trkpt lon="5.886433" lat="51.167435"><ele>16.8</ele><time>2022-05-08T06:31:39.000Z</time></trkpt><trkpt lon="5.88648" lat="51.167497"><ele>16.8</ele><time>2022-05-08T06:31:40.000Z</time></trkpt><trkpt lon="5.886529" lat="51.167558"><ele>16.6</ele><time>2022-05-08T06:31:41.000Z</time></trkpt><trkpt lon="5.88658" lat="51.167621"><ele>16.6</ele><time>2022-05-08T06:31:42.000Z</time></trkpt><trkpt lon="5.886632" lat="51.167682"><ele>16.6</ele><time>2022-05-08T06:31:43.000Z</time></trkpt><trkpt lon="5.886683" lat="51.167739"><ele>16.6</ele><time>2022-05-08T06:31:44.000Z</time></trkpt><trkpt lon="5.886739" lat="51.167796"><ele>16.6</ele><time>2022-05-08T06:31:45.000Z</time></trkpt><trkpt lon="5.886801" lat="51.167849"><ele>16.6</ele><time>2022-05-08T06:31:46.000Z</time></trkpt><trkpt lon="5.886869" lat="51.167896"><ele>16.6</ele><time>2022-05-08T06:31:47.000Z</time></trkpt><trkpt lon="5.886942" lat="51.167944"><ele>16.6</ele><time>2022-05-08T06:31:48.000Z</time></trkpt><trkpt lon="5.887018" lat="51.167991"><ele>16.6</ele><time>2022-05-08T06:31:49.000Z</time></trkpt><trkpt lon="5.887098" lat="51.168037"><ele>16.6</ele><time>2022-05-08T06:31:50.000Z</time></trkpt><trkpt lon="5.887183" lat="51.168081"><ele>16.6</ele><time>2022-05-08T06:31:51.000Z</time></trkpt><trkpt lon="5.887267" lat="51.168123"><ele>16.6</ele><time>2022-05-08T06:31:52.000Z</time></trkpt><trkpt lon="5.88735" lat="51.168164"><ele>16.8</ele><time>2022-05-08T06:31:53.000Z</time></trkpt><trkpt lon="5.887433" lat="51.168204"><ele>16.8</ele><time>2022-05-08T06:31:54.000Z</time></trkpt><trkpt lon="5.887518" lat="51.168242"><ele>16.6</ele><time>2022-05-08T06:31:55.000Z</time></trkpt><trkpt lon="5.887604" lat="51.168281"><ele>16.6</ele><time>2022-05-08T06:31:56.000Z</time></trkpt><trkpt lon="5.887686" lat="51.168321"><ele>16.8</ele><time>2022-05-08T06:31:57.000Z</time></trkpt><trkpt lon="5.887766" lat="51.168361"><ele>16.8</ele><time>2022-05-08T06:31:58.000Z</time></trkpt><trkpt lon="5.887843" lat="51.168401"><ele>16.8</ele><time>2022-05-08T06:31:59.000Z</time></trkpt><trkpt lon="5.88792" lat="51.16844"><ele>16.8</ele><time>2022-05-08T06:32:00.000Z</time></trkpt><trkpt lon="5.887994" lat="51.168478"><ele>17</ele><time>2022-05-08T06:32:01.000Z</time></trkpt><trkpt lon="5.888073" lat="51.168514"><ele>17.2</ele><time>2022-05-08T06:32:02.000Z</time></trkpt><trkpt lon="5.888152" lat="51.168549"><ele>17.4</ele><time>2022-05-08T06:32:03.000Z</time></trkpt><trkpt lon="5.888229" lat="51.168581"><ele>17.4</ele><time>2022-05-08T06:32:04.000Z</time></trkpt><trkpt lon="5.888307" lat="51.168614"><ele>17.6</ele><time>2022-05-08T06:32:05.000Z</time></trkpt><trkpt lon="5.888382" lat="51.168651"><ele>17.6</ele><time>2022-05-08T06:32:06.000Z</time></trkpt><trkpt lon="5.888459" lat="51.168687"><ele>17.6</ele><time>2022-05-08T06:32:07.000Z</time></trkpt><trkpt lon="5.888541" lat="51.168723"><ele>17.6</ele><time>2022-05-08T06:32:08.000Z</time></trkpt><trkpt lon="5.888626" lat="51.168762"><ele>17.4</ele><time>2022-05-08T06:32:09.000Z</time></trkpt><trkpt lon="5.888713" lat="51.168799"><ele>17.4</ele><time>2022-05-08T06:32:10.000Z</time></trkpt><trkpt lon="5.888799" lat="51.16884"><ele>17.4</ele><time>2022-05-08T06:32:11.000Z</time></trkpt><trkpt lon="5.888881" lat="51.168877"><ele>17.2</ele><time>2022-05-08T06:32:12.000Z</time></trkpt><trkpt lon="5.888964" lat="51.168905"><ele>17</ele><time>2022-05-08T06:32:13.000Z</time></trkpt><trkpt lon="5.889054" lat="51.168924"><ele>17</ele><time>2022-05-08T06:32:14.000Z</time></trkpt><trkpt lon="5.889152" lat="51.168941"><ele>16.8</ele><time>2022-05-08T06:32:15.000Z</time></trkpt><trkpt lon="5.889259" lat="51.168964"><ele>16.6</ele><time>2022-05-08T06:32:16.000Z</time></trkpt><trkpt lon="5.889375" lat="51.168991"><ele>16.2</ele><time>2022-05-08T06:32:17.000Z</time></trkpt><trkpt lon="5.889497" lat="51.169013"><ele>16</ele><time>2022-05-08T06:32:18.000Z</time></trkpt><trkpt lon="5.889624" lat="51.169028"><ele>15.6</ele><time>2022-05-08T06:32:19.000Z</time></trkpt><trkpt lon="5.889757" lat="51.169035"><ele>15.2</ele><time>2022-05-08T06:32:20.000Z</time></trkpt><trkpt lon="5.889892" lat="51.169035"><ele>14.8</ele><time>2022-05-08T06:32:21.000Z</time></trkpt><trkpt lon="5.890027" lat="51.169026"><ele>14.4</ele><time>2022-05-08T06:32:22.000Z</time></trkpt><trkpt lon="5.890161" lat="51.16901"><ele>14</ele><time>2022-05-08T06:32:23.000Z</time></trkpt><trkpt lon="5.890292" lat="51.16899"><ele>13.6</ele><time>2022-05-08T06:32:24.000Z</time></trkpt><trkpt lon="5.890424" lat="51.168964"><ele>13.2</ele><time>2022-05-08T06:32:25.000Z</time></trkpt><trkpt lon="5.890559" lat="51.168935"><ele>12.8</ele><time>2022-05-08T06:32:26.000Z</time></trkpt><trkpt lon="5.890693" lat="51.168905"><ele>12.4</ele><time>2022-05-08T06:32:27.000Z</time></trkpt><trkpt lon="5.890826" lat="51.168874"><ele>12.2</ele><time>2022-05-08T06:32:28.000Z</time></trkpt><trkpt lon="5.89096" lat="51.168844"><ele>11.8</ele><time>2022-05-08T06:32:29.000Z</time></trkpt><trkpt lon="5.891091" lat="51.168815"><ele>11.8</ele><time>2022-05-08T06:32:30.000Z</time></trkpt><trkpt lon="5.891218" lat="51.168786"><ele>11.6</ele><time>2022-05-08T06:32:31.000Z</time></trkpt><trkpt lon="5.891343" lat="51.168756"><ele>11.4</ele><time>2022-05-08T06:32:32.000Z</time></trkpt><trkpt lon="5.891465" lat="51.168728"><ele>11.4</ele><time>2022-05-08T06:32:33.000Z</time></trkpt><trkpt lon="5.891583" lat="51.168699"><ele>11.2</ele><time>2022-05-08T06:32:34.000Z</time></trkpt><trkpt lon="5.891698" lat="51.168673"><ele>11.2</ele><time>2022-05-08T06:32:35.000Z</time></trkpt><trkpt lon="5.89181" lat="51.168647"><ele>11.2</ele><time>2022-05-08T06:32:36.000Z</time></trkpt><trkpt lon="5.891922" lat="51.168623"><ele>11.2</ele><time>2022-05-08T06:32:37.000Z</time></trkpt><trkpt lon="5.892028" lat="51.168598"><ele>11</ele><time>2022-05-08T06:32:38.000Z</time></trkpt><trkpt lon="5.892136" lat="51.168571"><ele>11</ele><time>2022-05-08T06:32:39.000Z</time></trkpt><trkpt lon="5.892245" lat="51.168545"><ele>11</ele><time>2022-05-08T06:32:40.000Z</time></trkpt><trkpt lon="5.892354" lat="51.16852"><ele>11</ele><time>2022-05-08T06:32:41.000Z</time></trkpt><trkpt lon="5.892457" lat="51.168497"><ele>11</ele><time>2022-05-08T06:32:42.000Z</time></trkpt><trkpt lon="5.89256" lat="51.168472"><ele>11</ele><time>2022-05-08T06:32:43.000Z</time></trkpt><trkpt lon="5.892668" lat="51.16845"><ele>11</ele><time>2022-05-08T06:32:44.000Z</time></trkpt><trkpt lon="5.892779" lat="51.168429"><ele>11</ele><time>2022-05-08T06:32:45.000Z</time></trkpt><trkpt lon="5.89289" lat="51.168406"><ele>11</ele><time>2022-05-08T06:32:46.000Z</time></trkpt><trkpt lon="5.893001" lat="51.168383"><ele>11</ele><time>2022-05-08T06:32:47.000Z</time></trkpt><trkpt lon="5.893111" lat="51.168358"><ele>11</ele><time>2022-05-08T06:32:48.000Z</time></trkpt><trkpt lon="5.89322" lat="51.168333"><ele>11.2</ele><time>2022-05-08T06:32:49.000Z</time></trkpt><trkpt lon="5.893327" lat="51.168308"><ele>11.2</ele><time>2022-05-08T06:32:50.000Z</time></trkpt><trkpt lon="5.893434" lat="51.168282"><ele>11.2</ele><time>2022-05-08T06:32:51.000Z</time></trkpt><trkpt lon="5.893542" lat="51.168259"><ele>11</ele><time>2022-05-08T06:32:52.000Z</time></trkpt><trkpt lon="5.893652" lat="51.168236"><ele>11</ele><time>2022-05-08T06:32:53.000Z</time></trkpt><trkpt lon="5.893765" lat="51.168211"><ele>11</ele><time>2022-05-08T06:32:54.000Z</time></trkpt><trkpt lon="5.893878" lat="51.168188"><ele>11</ele><time>2022-05-08T06:32:55.000Z</time></trkpt><trkpt lon="5.893989" lat="51.168168"><ele>11</ele><time>2022-05-08T06:32:56.000Z</time></trkpt><trkpt lon="5.894099" lat="51.168149"><ele>11</ele><time>2022-05-08T06:32:57.000Z</time></trkpt><trkpt lon="5.894205" lat="51.16813"><ele>11</ele><time>2022-05-08T06:32:58.000Z</time></trkpt><trkpt lon="5.894314" lat="51.168115"><ele>11</ele><time>2022-05-08T06:32:59.000Z</time></trkpt><trkpt lon="5.894422" lat="51.168103"><ele>11.2</ele><time>2022-05-08T06:33:00.000Z</time></trkpt><trkpt lon="5.89453" lat="51.168092"><ele>11.2</ele><time>2022-05-08T06:33:01.000Z</time></trkpt><trkpt lon="5.894637" lat="51.168078"><ele>11.4</ele><time>2022-05-08T06:33:02.000Z</time></trkpt><trkpt lon="5.894744" lat="51.168065"><ele>11.4</ele><time>2022-05-08T06:33:03.000Z</time></trkpt><trkpt lon="5.894851" lat="51.168056"><ele>11.4</ele><time>2022-05-08T06:33:04.000Z</time></trkpt><trkpt lon="5.894955" lat="51.168044"><ele>11.4</ele><time>2022-05-08T06:33:05.000Z</time></trkpt><trkpt lon="5.895058" lat="51.168031"><ele>11.6</ele><time>2022-05-08T06:33:06.000Z</time></trkpt><trkpt lon="5.895161" lat="51.168022"><ele>11.6</ele><time>2022-05-08T06:33:07.000Z</time></trkpt><trkpt lon="5.895264" lat="51.168012"><ele>11.4</ele><time>2022-05-08T06:33:08.000Z</time></trkpt><trkpt lon="5.895367" lat="51.168002"><ele>11.4</ele><time>2022-05-08T06:33:09.000Z</time></trkpt><trkpt lon="5.895467" lat="51.167993"><ele>11.2</ele><time>2022-05-08T06:33:10.000Z</time></trkpt><trkpt lon="5.895563" lat="51.167981"><ele>11</ele><time>2022-05-08T06:33:11.000Z</time></trkpt><trkpt lon="5.895654" lat="51.16797"><ele>10.8</ele><time>2022-05-08T06:33:12.000Z</time></trkpt><trkpt lon="5.895737" lat="51.16796"><ele>10.6</ele><time>2022-05-08T06:33:13.000Z</time></trkpt><trkpt lon="5.895809" lat="51.167953"><ele>10.4</ele><time>2022-05-08T06:33:14.000Z</time></trkpt><trkpt lon="5.89587" lat="51.167945"><ele>10.2</ele><time>2022-05-08T06:33:15.000Z</time></trkpt><trkpt lon="5.895924" lat="51.16794"><ele>10.2</ele><time>2022-05-08T06:33:16.000Z</time></trkpt><trkpt lon="5.895969" lat="51.16794"><ele>10</ele><time>2022-05-08T06:33:17.000Z</time></trkpt><trkpt lon="5.896004" lat="51.167951"><ele>10</ele><time>2022-05-08T06:33:18.000Z</time></trkpt><trkpt lon="5.896025" lat="51.167975"><ele>9.8</ele><time>2022-05-08T06:33:19.000Z</time></trkpt><trkpt lon="5.896042" lat="51.168005"><ele>9.8</ele><time>2022-05-08T06:33:20.000Z</time></trkpt><trkpt lon="5.896068" lat="51.168038"><ele>9.6</ele><time>2022-05-08T06:33:21.000Z</time></trkpt><trkpt lon="5.896109" lat="51.168073"><ele>9.6</ele><time>2022-05-08T06:33:22.000Z</time></trkpt><trkpt lon="5.896159" lat="51.168109"><ele>9.4</ele><time>2022-05-08T06:33:23.000Z</time></trkpt><trkpt lon="5.896206" lat="51.168155"><ele>9.4</ele><time>2022-05-08T06:33:24.000Z</time></trkpt><trkpt lon="5.89624" lat="51.168209"><ele>9.2</ele><time>2022-05-08T06:33:25.000Z</time></trkpt><trkpt lon="5.896263" lat="51.16827"><ele>9.2</ele><time>2022-05-08T06:33:26.000Z</time></trkpt><trkpt lon="5.896283" lat="51.168334"><ele>9.2</ele><time>2022-05-08T06:33:27.000Z</time></trkpt><trkpt lon="5.8963" lat="51.168399"><ele>9</ele><time>2022-05-08T06:33:28.000Z</time></trkpt><trkpt lon="5.896317" lat="51.168466"><ele>9</ele><time>2022-05-08T06:33:29.000Z</time></trkpt><trkpt lon="5.896338" lat="51.168537"><ele>9</ele><time>2022-05-08T06:33:30.000Z</time></trkpt><trkpt lon="5.896361" lat="51.168608"><ele>9</ele><time>2022-05-08T06:33:31.000Z</time></trkpt><trkpt lon="5.896384" lat="51.168674"><ele>8.8</ele><time>2022-05-08T06:33:32.000Z</time></trkpt><trkpt lon="5.896403" lat="51.168741"><ele>8.8</ele><time>2022-05-08T06:33:33.000Z</time></trkpt><trkpt lon="5.896421" lat="51.168809"><ele>8.8</ele><time>2022-05-08T06:33:34.000Z</time></trkpt><trkpt lon="5.896439" lat="51.168878"><ele>9</ele><time>2022-05-08T06:33:35.000Z</time></trkpt><trkpt lon="5.896457" lat="51.168947"><ele>9</ele><time>2022-05-08T06:33:36.000Z</time></trkpt><trkpt lon="5.896476" lat="51.169015"><ele>8.8</ele><time>2022-05-08T06:33:37.000Z</time></trkpt><trkpt lon="5.896496" lat="51.169084"><ele>8.8</ele><time>2022-05-08T06:33:38.000Z</time></trkpt><trkpt lon="5.896516" lat="51.169153"><ele>8.8</ele><time>2022-05-08T06:33:39.000Z</time></trkpt><trkpt lon="5.896535" lat="51.16922"><ele>8.8</ele><time>2022-05-08T06:33:40.000Z</time></trkpt><trkpt lon="5.896552" lat="51.169284"><ele>8.8</ele><time>2022-05-08T06:33:41.000Z</time></trkpt><trkpt lon="5.896567" lat="51.16935"><ele>8.8</ele><time>2022-05-08T06:33:42.000Z</time></trkpt><trkpt lon="5.896581" lat="51.169417"><ele>8.8</ele><time>2022-05-08T06:33:43.000Z</time></trkpt><trkpt lon="5.896597" lat="51.169484"><ele>8.8</ele><time>2022-05-08T06:33:44.000Z</time></trkpt><trkpt lon="5.896614" lat="51.169555"><ele>8.8</ele><time>2022-05-08T06:33:45.000Z</time></trkpt><trkpt lon="5.896629" lat="51.169624"><ele>8.8</ele><time>2022-05-08T06:33:46.000Z</time></trkpt><trkpt lon="5.896643" lat="51.169691"><ele>8.8</ele><time>2022-05-08T06:33:47.000Z</time></trkpt><trkpt lon="5.896656" lat="51.169758"><ele>8.8</ele><time>2022-05-08T06:33:48.000Z</time></trkpt><trkpt lon="5.896669" lat="51.169825"><ele>8.8</ele><time>2022-05-08T06:33:49.000Z</time></trkpt><trkpt lon="5.896683" lat="51.169893"><ele>8.8</ele><time>2022-05-08T06:33:50.000Z</time></trkpt><trkpt lon="5.896694" lat="51.16996"><ele>9</ele><time>2022-05-08T06:33:51.000Z</time></trkpt><trkpt lon="5.896704" lat="51.17002"><ele>9</ele><time>2022-05-08T06:33:52.000Z</time></trkpt><trkpt lon="5.896719" lat="51.170084"><ele>9</ele><time>2022-05-08T06:33:53.000Z</time></trkpt><trkpt lon="5.896736" lat="51.17015"><ele>9</ele><time>2022-05-08T06:33:54.000Z</time></trkpt><trkpt lon="5.896755" lat="51.170215"><ele>9.2</ele><time>2022-05-08T06:33:55.000Z</time></trkpt><trkpt lon="5.896774" lat="51.17028"><ele>9.2</ele><time>2022-05-08T06:33:56.000Z</time></trkpt><trkpt lon="5.896791" lat="51.170347"><ele>9</ele><time>2022-05-08T06:33:57.000Z</time></trkpt><trkpt lon="5.896809" lat="51.17041"><ele>9</ele><time>2022-05-08T06:33:58.000Z</time></trkpt><trkpt lon="5.896829" lat="51.170476"><ele>9</ele><time>2022-05-08T06:33:59.000Z</time></trkpt><trkpt lon="5.89685" lat="51.170546"><ele>9</ele><time>2022-05-08T06:34:00.000Z</time></trkpt><trkpt lon="5.896868" lat="51.170617"><ele>9</ele><time>2022-05-08T06:34:01.000Z</time></trkpt><trkpt lon="5.896886" lat="51.170687"><ele>9</ele><time>2022-05-08T06:34:02.000Z</time></trkpt><trkpt lon="5.896905" lat="51.170753"><ele>9</ele><time>2022-05-08T06:34:03.000Z</time></trkpt><trkpt lon="5.896923" lat="51.170815"><ele>9</ele><time>2022-05-08T06:34:04.000Z</time></trkpt><trkpt lon="5.89694" lat="51.170878"><ele>9</ele><time>2022-05-08T06:34:05.000Z</time></trkpt><trkpt lon="5.896957" lat="51.170941"><ele>9</ele><time>2022-05-08T06:34:06.000Z</time></trkpt><trkpt lon="5.896975" lat="51.171002"><ele>9.2</ele><time>2022-05-08T06:34:07.000Z</time></trkpt><trkpt lon="5.896993" lat="51.171063"><ele>9.2</ele><time>2022-05-08T06:34:08.000Z</time></trkpt><trkpt lon="5.897011" lat="51.171125"><ele>9.2</ele><time>2022-05-08T06:34:09.000Z</time></trkpt><trkpt lon="5.89703" lat="51.17119"><ele>9.2</ele><time>2022-05-08T06:34:10.000Z</time></trkpt><trkpt lon="5.897048" lat="51.171261"><ele>9.2</ele><time>2022-05-08T06:34:11.000Z</time></trkpt><trkpt lon="5.897065" lat="51.17133"><ele>9.2</ele><time>2022-05-08T06:34:12.000Z</time></trkpt><trkpt lon="5.897084" lat="51.171401"><ele>9</ele><time>2022-05-08T06:34:13.000Z</time></trkpt><trkpt lon="5.897104" lat="51.171471"><ele>9</ele><time>2022-05-08T06:34:14.000Z</time></trkpt><trkpt lon="5.897125" lat="51.17154"><ele>8.8</ele><time>2022-05-08T06:34:15.000Z</time></trkpt><trkpt lon="5.897146" lat="51.171609"><ele>8.8</ele><time>2022-05-08T06:34:16.000Z</time></trkpt><trkpt lon="5.897165" lat="51.17168"><ele>9</ele><time>2022-05-08T06:34:17.000Z</time></trkpt><trkpt lon="5.897184" lat="51.17175"><ele>9</ele><time>2022-05-08T06:34:18.000Z</time></trkpt><trkpt lon="5.897201" lat="51.171819"><ele>9</ele><time>2022-05-08T06:34:19.000Z</time></trkpt><trkpt lon="5.897218" lat="51.171888"><ele>9</ele><time>2022-05-08T06:34:20.000Z</time></trkpt><trkpt lon="5.897235" lat="51.171959"><ele>9.2</ele><time>2022-05-08T06:34:21.000Z</time></trkpt><trkpt lon="5.897252" lat="51.172029"><ele>9.2</ele><time>2022-05-08T06:34:22.000Z</time></trkpt><trkpt lon="5.897269" lat="51.172098"><ele>9.2</ele><time>2022-05-08T06:34:23.000Z</time></trkpt><trkpt lon="5.897284" lat="51.172168"><ele>9.2</ele><time>2022-05-08T06:34:24.000Z</time></trkpt><trkpt lon="5.8973" lat="51.172239"><ele>9.2</ele><time>2022-05-08T06:34:25.000Z</time></trkpt><trkpt lon="5.897317" lat="51.172307"><ele>9.2</ele><time>2022-05-08T06:34:26.000Z</time></trkpt><trkpt lon="5.897335" lat="51.172374"><ele>9.2</ele><time>2022-05-08T06:34:27.000Z</time></trkpt><trkpt lon="5.897352" lat="51.172442"><ele>9.2</ele><time>2022-05-08T06:34:28.000Z</time></trkpt><trkpt lon="5.897368" lat="51.172508"><ele>9.2</ele><time>2022-05-08T06:34:29.000Z</time></trkpt><trkpt lon="5.897386" lat="51.172572"><ele>9.2</ele><time>2022-05-08T06:34:30.000Z</time></trkpt><trkpt lon="5.897406" lat="51.17264"><ele>9.2</ele><time>2022-05-08T06:34:31.000Z</time></trkpt><trkpt lon="5.897428" lat="51.172708"><ele>9.2</ele><time>2022-05-08T06:34:32.000Z</time></trkpt><trkpt lon="5.897449" lat="51.172779"><ele>9.2</ele><time>2022-05-08T06:34:33.000Z</time></trkpt><trkpt lon="5.897469" lat="51.17285"><ele>9.2</ele><time>2022-05-08T06:34:34.000Z</time></trkpt><trkpt lon="5.897486" lat="51.172923"><ele>9.4</ele><time>2022-05-08T06:34:35.000Z</time></trkpt><trkpt lon="5.897502" lat="51.172997"><ele>9.2</ele><time>2022-05-08T06:34:36.000Z</time></trkpt><trkpt lon="5.897517" lat="51.173069"><ele>9.2</ele><time>2022-05-08T06:34:37.000Z</time></trkpt><trkpt lon="5.897532" lat="51.173142"><ele>9.2</ele><time>2022-05-08T06:34:38.000Z</time></trkpt><trkpt lon="5.897548" lat="51.173214"><ele>9.2</ele><time>2022-05-08T06:34:39.000Z</time></trkpt><trkpt lon="5.897563" lat="51.173284"><ele>9.2</ele><time>2022-05-08T06:34:40.000Z</time></trkpt><trkpt lon="5.897577" lat="51.17335"><ele>9</ele><time>2022-05-08T06:34:41.000Z</time></trkpt><trkpt lon="5.897591" lat="51.173413"><ele>9</ele><time>2022-05-08T06:34:42.000Z</time></trkpt><trkpt lon="5.897603" lat="51.173475"><ele>9</ele><time>2022-05-08T06:34:43.000Z</time></trkpt><trkpt lon="5.897612" lat="51.17353"><ele>9</ele><time>2022-05-08T06:34:44.000Z</time></trkpt><trkpt lon="5.897624" lat="51.173584"><ele>8.8</ele><time>2022-05-08T06:34:45.000Z</time></trkpt><trkpt lon="5.897637" lat="51.173636"><ele>8.8</ele><time>2022-05-08T06:34:46.000Z</time></trkpt><trkpt lon="5.897652" lat="51.173687"><ele>8.8</ele><time>2022-05-08T06:34:47.000Z</time></trkpt><trkpt lon="5.897682" lat="51.173743"><ele>8.8</ele><time>2022-05-08T06:34:48.000Z</time></trkpt><trkpt lon="5.897722" lat="51.173805"><ele>8.8</ele><time>2022-05-08T06:34:49.000Z</time></trkpt><trkpt lon="5.897758" lat="51.173874"><ele>8.8</ele><time>2022-05-08T06:34:50.000Z</time></trkpt><trkpt lon="5.897787" lat="51.173947"><ele>8.8</ele><time>2022-05-08T06:34:51.000Z</time></trkpt><trkpt lon="5.897814" lat="51.174022"><ele>8.8</ele><time>2022-05-08T06:34:52.000Z</time></trkpt><trkpt lon="5.897838" lat="51.174095"><ele>8.6</ele><time>2022-05-08T06:34:53.000Z</time></trkpt><trkpt lon="5.897859" lat="51.17417"><ele>8.6</ele><time>2022-05-08T06:34:54.000Z</time></trkpt><trkpt lon="5.897879" lat="51.174246"><ele>8.6</ele><time>2022-05-08T06:34:55.000Z</time></trkpt><trkpt lon="5.897897" lat="51.17432"><ele>8.6</ele><time>2022-05-08T06:34:56.000Z</time></trkpt><trkpt lon="5.897916" lat="51.174393"><ele>8.6</ele><time>2022-05-08T06:34:57.000Z</time></trkpt><trkpt lon="5.897935" lat="51.174465"><ele>8.6</ele><time>2022-05-08T06:34:58.000Z</time></trkpt><trkpt lon="5.89795" lat="51.174535"><ele>8.6</ele><time>2022-05-08T06:34:59.000Z</time></trkpt><trkpt lon="5.897965" lat="51.174604"><ele>8.6</ele><time>2022-05-08T06:35:00.000Z</time></trkpt><trkpt lon="5.897977" lat="51.174673"><ele>8.4</ele><time>2022-05-08T06:35:01.000Z</time></trkpt><trkpt lon="5.897987" lat="51.174739"><ele>8.4</ele><time>2022-05-08T06:35:02.000Z</time></trkpt><trkpt lon="5.897992" lat="51.174806"><ele>8.2</ele><time>2022-05-08T06:35:03.000Z</time></trkpt><trkpt lon="5.89799" lat="51.174871"><ele>8.2</ele><time>2022-05-08T06:35:04.000Z</time></trkpt><trkpt lon="5.897979" lat="51.174941"><ele>8</ele><time>2022-05-08T06:35:05.000Z</time></trkpt><trkpt lon="5.897962" lat="51.175015"><ele>8.2</ele><time>2022-05-08T06:35:06.000Z</time></trkpt><trkpt lon="5.897942" lat="51.175083"><ele>8.2</ele><time>2022-05-08T06:35:07.000Z</time></trkpt><trkpt lon="5.897922" lat="51.175149"><ele>8.2</ele><time>2022-05-08T06:35:08.000Z</time></trkpt><trkpt lon="5.897899" lat="51.175216"><ele>8.2</ele><time>2022-05-08T06:35:09.000Z</time></trkpt><trkpt lon="5.897874" lat="51.175279"><ele>8.2</ele><time>2022-05-08T06:35:10.000Z</time></trkpt><trkpt lon="5.897852" lat="51.17534"><ele>8.2</ele><time>2022-05-08T06:35:11.000Z</time></trkpt><trkpt lon="5.897829" lat="51.175403"><ele>8.2</ele><time>2022-05-08T06:35:12.000Z</time></trkpt><trkpt lon="5.897805" lat="51.175462"><ele>8.2</ele><time>2022-05-08T06:35:13.000Z</time></trkpt><trkpt lon="5.897782" lat="51.17552"><ele>8</ele><time>2022-05-08T06:35:14.000Z</time></trkpt><trkpt lon="5.897762" lat="51.175578"><ele>8</ele><time>2022-05-08T06:35:15.000Z</time></trkpt><trkpt lon="5.897738" lat="51.175633"><ele>8</ele><time>2022-05-08T06:35:16.000Z</time></trkpt><trkpt lon="5.897709" lat="51.175688"><ele>7.8</ele><time>2022-05-08T06:35:17.000Z</time></trkpt><trkpt lon="5.897681" lat="51.175746"><ele>7.8</ele><time>2022-05-08T06:35:18.000Z</time></trkpt><trkpt lon="5.897657" lat="51.175801"><ele>7.8</ele><time>2022-05-08T06:35:19.000Z</time></trkpt><trkpt lon="5.897633" lat="51.175859"><ele>8</ele><time>2022-05-08T06:35:20.000Z</time></trkpt><trkpt lon="5.897619" lat="51.17592"><ele>7.8</ele><time>2022-05-08T06:35:21.000Z</time></trkpt><trkpt lon="5.897628" lat="51.175983"><ele>8</ele><time>2022-05-08T06:35:22.000Z</time></trkpt><trkpt lon="5.897666" lat="51.176047"><ele>8</ele><time>2022-05-08T06:35:23.000Z</time></trkpt><trkpt lon="5.897727" lat="51.176112"><ele>8</ele><time>2022-05-08T06:35:24.000Z</time></trkpt><trkpt lon="5.897797" lat="51.176175"><ele>8</ele><time>2022-05-08T06:35:25.000Z</time></trkpt><trkpt lon="5.897862" lat="51.176237"><ele>8</ele><time>2022-05-08T06:35:26.000Z</time></trkpt><trkpt lon="5.897916" lat="51.1763"><ele>8</ele><time>2022-05-08T06:35:27.000Z</time></trkpt><trkpt lon="5.897958" lat="51.176364"><ele>8</ele><time>2022-05-08T06:35:28.000Z</time></trkpt><trkpt lon="5.897987" lat="51.17643"><ele>8</ele><time>2022-05-08T06:35:29.000Z</time></trkpt><trkpt lon="5.898001" lat="51.176492"><ele>8</ele><time>2022-05-08T06:35:30.000Z</time></trkpt><trkpt lon="5.898" lat="51.176551"><ele>8</ele><time>2022-05-08T06:35:31.000Z</time></trkpt><trkpt lon="5.897995" lat="51.176606"><ele>8</ele><time>2022-05-08T06:35:32.000Z</time></trkpt><trkpt lon="5.898005" lat="51.176659"><ele>8</ele><time>2022-05-08T06:35:33.000Z</time></trkpt><trkpt lon="5.898044" lat="51.176708"><ele>8.2</ele><time>2022-05-08T06:35:34.000Z</time></trkpt><trkpt lon="5.898107" lat="51.17675"><ele>8.2</ele><time>2022-05-08T06:35:35.000Z</time></trkpt><trkpt lon="5.898185" lat="51.176788"><ele>8.2</ele><time>2022-05-08T06:35:36.000Z</time></trkpt><trkpt lon="5.898271" lat="51.176828"><ele>8.2</ele><time>2022-05-08T06:35:37.000Z</time></trkpt><trkpt lon="5.898357" lat="51.176872"><ele>8.2</ele><time>2022-05-08T06:35:38.000Z</time></trkpt><trkpt lon="5.89844" lat="51.17692"><ele>8.2</ele><time>2022-05-08T06:35:39.000Z</time></trkpt><trkpt lon="5.898517" lat="51.176972"><ele>8.2</ele><time>2022-05-08T06:35:40.000Z</time></trkpt><trkpt lon="5.898594" lat="51.177024"><ele>8.2</ele><time>2022-05-08T06:35:41.000Z</time></trkpt><trkpt lon="5.89867" lat="51.177078"><ele>8.2</ele><time>2022-05-08T06:35:42.000Z</time></trkpt><trkpt lon="5.898743" lat="51.177132"><ele>8</ele><time>2022-05-08T06:35:43.000Z</time></trkpt><trkpt lon="5.898816" lat="51.177183"><ele>8</ele><time>2022-05-08T06:35:44.000Z</time></trkpt><trkpt lon="5.898889" lat="51.177234"><ele>8</ele><time>2022-05-08T06:35:45.000Z</time></trkpt><trkpt lon="5.898963" lat="51.177288"><ele>8</ele><time>2022-05-08T06:35:46.000Z</time></trkpt><trkpt lon="5.899042" lat="51.17734"><ele>8</ele><time>2022-05-08T06:35:47.000Z</time></trkpt><trkpt lon="5.899125" lat="51.177385"><ele>8.2</ele><time>2022-05-08T06:35:48.000Z</time></trkpt><trkpt lon="5.899216" lat="51.177422"><ele>8.2</ele><time>2022-05-08T06:35:49.000Z</time></trkpt><trkpt lon="5.899312" lat="51.177446"><ele>8.2</ele><time>2022-05-08T06:35:50.000Z</time></trkpt><trkpt lon="5.899415" lat="51.177459"><ele>8.2</ele><time>2022-05-08T06:35:51.000Z</time></trkpt><trkpt lon="5.899523" lat="51.177468"><ele>8.2</ele><time>2022-05-08T06:35:52.000Z</time></trkpt><trkpt lon="5.89963" lat="51.177476"><ele>8.2</ele><time>2022-05-08T06:35:53.000Z</time></trkpt><trkpt lon="5.899735" lat="51.177481"><ele>8.2</ele><time>2022-05-08T06:35:54.000Z</time></trkpt><trkpt lon="5.899839" lat="51.177485"><ele>8.2</ele><time>2022-05-08T06:35:55.000Z</time></trkpt><trkpt lon="5.89994" lat="51.177484"><ele>8.4</ele><time>2022-05-08T06:35:56.000Z</time></trkpt><trkpt lon="5.900035" lat="51.177474"><ele>8.4</ele><time>2022-05-08T06:35:57.000Z</time></trkpt><trkpt lon="5.900125" lat="51.17745"><ele>8.2</ele><time>2022-05-08T06:35:58.000Z</time></trkpt><trkpt lon="5.900216" lat="51.177417"><ele>8.4</ele><time>2022-05-08T06:35:59.000Z</time></trkpt><trkpt lon="5.90031" lat="51.177378"><ele>8.4</ele><time>2022-05-08T06:36:00.000Z</time></trkpt><trkpt lon="5.900405" lat="51.177336"><ele>8.4</ele><time>2022-05-08T06:36:01.000Z</time></trkpt><trkpt lon="5.900498" lat="51.177295"><ele>8.4</ele><time>2022-05-08T06:36:02.000Z</time></trkpt><trkpt lon="5.900594" lat="51.177252"><ele>8.4</ele><time>2022-05-08T06:36:03.000Z</time></trkpt><trkpt lon="5.900685" lat="51.177213"><ele>8.6</ele><time>2022-05-08T06:36:04.000Z</time></trkpt><trkpt lon="5.900781" lat="51.177171"><ele>8.6</ele><time>2022-05-08T06:36:05.000Z</time></trkpt><trkpt lon="5.900884" lat="51.177126"><ele>8.4</ele><time>2022-05-08T06:36:06.000Z</time></trkpt><trkpt lon="5.900983" lat="51.177086"><ele>8.4</ele><time>2022-05-08T06:36:07.000Z</time></trkpt><trkpt lon="5.901081" lat="51.177049"><ele>8.4</ele><time>2022-05-08T06:36:08.000Z</time></trkpt><trkpt lon="5.901184" lat="51.177013"><ele>8.4</ele><time>2022-05-08T06:36:09.000Z</time></trkpt><trkpt lon="5.901291" lat="51.176992"><ele>8.4</ele><time>2022-05-08T06:36:10.000Z</time></trkpt><trkpt lon="5.901401" lat="51.176987"><ele>8.4</ele><time>2022-05-08T06:36:11.000Z</time></trkpt><trkpt lon="5.901513" lat="51.176998"><ele>8.4</ele><time>2022-05-08T06:36:12.000Z</time></trkpt><trkpt lon="5.901625" lat="51.177021"><ele>8.4</ele><time>2022-05-08T06:36:13.000Z</time></trkpt><trkpt lon="5.901735" lat="51.177048"><ele>8.4</ele><time>2022-05-08T06:36:14.000Z</time></trkpt><trkpt lon="5.901843" lat="51.177075"><ele>8.6</ele><time>2022-05-08T06:36:15.000Z</time></trkpt><trkpt lon="5.901952" lat="51.177101"><ele>8.6</ele><time>2022-05-08T06:36:16.000Z</time></trkpt><trkpt lon="5.902058" lat="51.177128"><ele>8.6</ele><time>2022-05-08T06:36:17.000Z</time></trkpt><trkpt lon="5.902162" lat="51.177154"><ele>8.8</ele><time>2022-05-08T06:36:18.000Z</time></trkpt><trkpt lon="5.902266" lat="51.177179"><ele>8.8</ele><time>2022-05-08T06:36:19.000Z</time></trkpt><trkpt lon="5.902368" lat="51.177204"><ele>8.6</ele><time>2022-05-08T06:36:20.000Z</time></trkpt><trkpt lon="5.902467" lat="51.177231"><ele>8.6</ele><time>2022-05-08T06:36:21.000Z</time></trkpt><trkpt lon="5.902561" lat="51.177255"><ele>8.6</ele><time>2022-05-08T06:36:22.000Z</time></trkpt><trkpt lon="5.902649" lat="51.177278"><ele>8.6</ele><time>2022-05-08T06:36:23.000Z</time></trkpt><trkpt lon="5.902732" lat="51.177299"><ele>8.6</ele><time>2022-05-08T06:36:24.000Z</time></trkpt><trkpt lon="5.902812" lat="51.177316"><ele>8.6</ele><time>2022-05-08T06:36:25.000Z</time></trkpt><trkpt lon="5.902888" lat="51.17732"><ele>8.6</ele><time>2022-05-08T06:36:26.000Z</time></trkpt><trkpt lon="5.902957" lat="51.177306"><ele>8.8</ele><time>2022-05-08T06:36:27.000Z</time></trkpt><trkpt lon="5.903013" lat="51.177267"><ele>8.8</ele><time>2022-05-08T06:36:28.000Z</time></trkpt><trkpt lon="5.903054" lat="51.177213"><ele>8.8</ele><time>2022-05-08T06:36:29.000Z</time></trkpt><trkpt lon="5.903087" lat="51.177154"><ele>8.8</ele><time>2022-05-08T06:36:30.000Z</time></trkpt><trkpt lon="5.90312" lat="51.177093"><ele>8.8</ele><time>2022-05-08T06:36:31.000Z</time></trkpt><trkpt lon="5.903157" lat="51.177029"><ele>8.8</ele><time>2022-05-08T06:36:32.000Z</time></trkpt><trkpt lon="5.903195" lat="51.176967"><ele>8.8</ele><time>2022-05-08T06:36:33.000Z</time></trkpt><trkpt lon="5.903235" lat="51.176906"><ele>8.8</ele><time>2022-05-08T06:36:34.000Z</time></trkpt><trkpt lon="5.903278" lat="51.176839"><ele>9</ele><time>2022-05-08T06:36:35.000Z</time></trkpt><trkpt lon="5.903323" lat="51.176771"><ele>9</ele><time>2022-05-08T06:36:36.000Z</time></trkpt><trkpt lon="5.903367" lat="51.176703"><ele>9</ele><time>2022-05-08T06:36:37.000Z</time></trkpt><trkpt lon="5.903412" lat="51.176632"><ele>9</ele><time>2022-05-08T06:36:38.000Z</time></trkpt><trkpt lon="5.903459" lat="51.176561"><ele>9</ele><time>2022-05-08T06:36:39.000Z</time></trkpt><trkpt lon="5.903505" lat="51.176491"><ele>9</ele><time>2022-05-08T06:36:40.000Z</time></trkpt><trkpt lon="5.903551" lat="51.176418"><ele>9.2</ele><time>2022-05-08T06:36:41.000Z</time></trkpt><trkpt lon="5.903594" lat="51.176348"><ele>9.2</ele><time>2022-05-08T06:36:42.000Z</time></trkpt><trkpt lon="5.903636" lat="51.176279"><ele>9.4</ele><time>2022-05-08T06:36:43.000Z</time></trkpt><trkpt lon="5.903678" lat="51.176213"><ele>9.4</ele><time>2022-05-08T06:36:44.000Z</time></trkpt><trkpt lon="5.903723" lat="51.176145"><ele>9.4</ele><time>2022-05-08T06:36:45.000Z</time></trkpt><trkpt lon="5.903767" lat="51.176077"><ele>9.6</ele><time>2022-05-08T06:36:46.000Z</time></trkpt><trkpt lon="5.90381" lat="51.176011"><ele>9.6</ele><time>2022-05-08T06:36:47.000Z</time></trkpt><trkpt lon="5.903857" lat="51.175948"><ele>9.6</ele><time>2022-05-08T06:36:48.000Z</time></trkpt><trkpt lon="5.903914" lat="51.175889"><ele>9.6</ele><time>2022-05-08T06:36:49.000Z</time></trkpt><trkpt lon="5.903985" lat="51.175839"><ele>9.8</ele><time>2022-05-08T06:36:50.000Z</time></trkpt><trkpt lon="5.904069" lat="51.175795"><ele>9.8</ele><time>2022-05-08T06:36:51.000Z</time></trkpt><trkpt lon="5.904167" lat="51.175764"><ele>9.8</ele><time>2022-05-08T06:36:52.000Z</time></trkpt><trkpt lon="5.904275" lat="51.175748"><ele>9.8</ele><time>2022-05-08T06:36:53.000Z</time></trkpt><trkpt lon="5.904389" lat="51.175741"><ele>9.8</ele><time>2022-05-08T06:36:54.000Z</time></trkpt><trkpt lon="5.904504" lat="51.175739"><ele>9.8</ele><time>2022-05-08T06:36:55.000Z</time></trkpt><trkpt lon="5.904622" lat="51.175739"><ele>10</ele><time>2022-05-08T06:36:56.000Z</time></trkpt><trkpt lon="5.90474" lat="51.175737"><ele>10</ele><time>2022-05-08T06:36:57.000Z</time></trkpt><trkpt lon="5.904854" lat="51.175735"><ele>10</ele><time>2022-05-08T06:36:58.000Z</time></trkpt><trkpt lon="5.904966" lat="51.175735"><ele>10</ele><time>2022-05-08T06:36:59.000Z</time></trkpt><trkpt lon="5.905077" lat="51.175735"><ele>10.2</ele><time>2022-05-08T06:37:00.000Z</time></trkpt><trkpt lon="5.905187" lat="51.175735"><ele>10.2</ele><time>2022-05-08T06:37:01.000Z</time></trkpt><trkpt lon="5.905298" lat="51.175733"><ele>10.2</ele><time>2022-05-08T06:37:02.000Z</time></trkpt><trkpt lon="5.905409" lat="51.175732"><ele>10.4</ele><time>2022-05-08T06:37:03.000Z</time></trkpt><trkpt lon="5.905518" lat="51.175732"><ele>10.4</ele><time>2022-05-08T06:37:04.000Z</time></trkpt><trkpt lon="5.905628" lat="51.175732"><ele>10.4</ele><time>2022-05-08T06:37:05.000Z</time></trkpt><trkpt lon="5.90574" lat="51.175729"><ele>10.4</ele><time>2022-05-08T06:37:06.000Z</time></trkpt><trkpt lon="5.905851" lat="51.175728"><ele>10.6</ele><time>2022-05-08T06:37:07.000Z</time></trkpt><trkpt lon="5.905963" lat="51.17573"><ele>10.6</ele><time>2022-05-08T06:37:08.000Z</time></trkpt><trkpt lon="5.906076" lat="51.175734"><ele>10.4</ele><time>2022-05-08T06:37:09.000Z</time></trkpt><trkpt lon="5.906186" lat="51.175747"><ele>10.4</ele><time>2022-05-08T06:37:10.000Z</time></trkpt><trkpt lon="5.906289" lat="51.17577"><ele>10.4</ele><time>2022-05-08T06:37:11.000Z</time></trkpt><trkpt lon="5.906379" lat="51.175806"><ele>10.2</ele><time>2022-05-08T06:37:12.000Z</time></trkpt><trkpt lon="5.906458" lat="51.175848"><ele>10</ele><time>2022-05-08T06:37:13.000Z</time></trkpt><trkpt lon="5.906526" lat="51.175892"><ele>10.2</ele><time>2022-05-08T06:37:14.000Z</time></trkpt><trkpt lon="5.906587" lat="51.175935"><ele>10.2</ele><time>2022-05-08T06:37:15.000Z</time></trkpt><trkpt lon="5.90664" lat="51.175973"><ele>10.2</ele><time>2022-05-08T06:37:16.000Z</time></trkpt><trkpt lon="5.906688" lat="51.176007"><ele>10.2</ele><time>2022-05-08T06:37:17.000Z</time></trkpt><trkpt lon="5.906735" lat="51.176039"><ele>10.2</ele><time>2022-05-08T06:37:18.000Z</time></trkpt><trkpt lon="5.906789" lat="51.176061"><ele>10.4</ele><time>2022-05-08T06:37:19.000Z</time></trkpt><trkpt lon="5.906852" lat="51.176065"><ele>10.4</ele><time>2022-05-08T06:37:20.000Z</time></trkpt><trkpt lon="5.906923" lat="51.17605"><ele>10.4</ele><time>2022-05-08T06:37:21.000Z</time></trkpt><trkpt lon="5.906998" lat="51.176018"><ele>10.4</ele><time>2022-05-08T06:37:22.000Z</time></trkpt><trkpt lon="5.907078" lat="51.175978"><ele>10.6</ele><time>2022-05-08T06:37:23.000Z</time></trkpt><trkpt lon="5.907164" lat="51.175939"><ele>10.6</ele><time>2022-05-08T06:37:24.000Z</time></trkpt><trkpt lon="5.907261" lat="51.175905"><ele>10.8</ele><time>2022-05-08T06:37:25.000Z</time></trkpt><trkpt lon="5.907363" lat="51.175877"><ele>11</ele><time>2022-05-08T06:37:26.000Z</time></trkpt><trkpt lon="5.907468" lat="51.175857"><ele>11.2</ele><time>2022-05-08T06:37:27.000Z</time></trkpt><trkpt lon="5.907579" lat="51.175848"><ele>11.4</ele><time>2022-05-08T06:37:28.000Z</time></trkpt><trkpt lon="5.907689" lat="51.175848"><ele>11.4</ele><time>2022-05-08T06:37:29.000Z</time></trkpt><trkpt lon="5.907799" lat="51.17585"><ele>11.6</ele><time>2022-05-08T06:37:30.000Z</time></trkpt><trkpt lon="5.907913" lat="51.17585"><ele>11.6</ele><time>2022-05-08T06:37:31.000Z</time></trkpt><trkpt lon="5.908031" lat="51.175852"><ele>11.4</ele><time>2022-05-08T06:37:32.000Z</time></trkpt><trkpt lon="5.908148" lat="51.175856"><ele>11.4</ele><time>2022-05-08T06:37:33.000Z</time></trkpt><trkpt lon="5.908268" lat="51.17586"><ele>11.4</ele><time>2022-05-08T06:37:34.000Z</time></trkpt><trkpt lon="5.908389" lat="51.175864"><ele>11.2</ele><time>2022-05-08T06:37:35.000Z</time></trkpt><trkpt lon="5.908511" lat="51.175867"><ele>11</ele><time>2022-05-08T06:37:36.000Z</time></trkpt><trkpt lon="5.908632" lat="51.175871"><ele>10.8</ele><time>2022-05-08T06:37:37.000Z</time></trkpt><trkpt lon="5.908754" lat="51.175875"><ele>10.6</ele><time>2022-05-08T06:37:38.000Z</time></trkpt><trkpt lon="5.908877" lat="51.175877"><ele>10.2</ele><time>2022-05-08T06:37:39.000Z</time></trkpt><trkpt lon="5.909002" lat="51.175874"><ele>10</ele><time>2022-05-08T06:37:40.000Z</time></trkpt><trkpt lon="5.909128" lat="51.175868"><ele>9.6</ele><time>2022-05-08T06:37:41.000Z</time></trkpt><trkpt lon="5.909251" lat="51.175859"><ele>9.6</ele><time>2022-05-08T06:37:42.000Z</time></trkpt><trkpt lon="5.90937" lat="51.175847"><ele>9.6</ele><time>2022-05-08T06:37:43.000Z</time></trkpt><trkpt lon="5.909487" lat="51.175831"><ele>9.6</ele><time>2022-05-08T06:37:44.000Z</time></trkpt><trkpt lon="5.9096" lat="51.175817"><ele>9.6</ele><time>2022-05-08T06:37:45.000Z</time></trkpt><trkpt lon="5.909714" lat="51.175801"><ele>9.6</ele><time>2022-05-08T06:37:46.000Z</time></trkpt><trkpt lon="5.909826" lat="51.17578"><ele>9.6</ele><time>2022-05-08T06:37:47.000Z</time></trkpt><trkpt lon="5.909938" lat="51.175754"><ele>9.6</ele><time>2022-05-08T06:37:48.000Z</time></trkpt><trkpt lon="5.910049" lat="51.17573"><ele>9.6</ele><time>2022-05-08T06:37:49.000Z</time></trkpt><trkpt lon="5.910159" lat="51.175705"><ele>9.4</ele><time>2022-05-08T06:37:50.000Z</time></trkpt><trkpt lon="5.910267" lat="51.175678"><ele>9.4</ele><time>2022-05-08T06:37:51.000Z</time></trkpt><trkpt lon="5.910377" lat="51.175653"><ele>9.4</ele><time>2022-05-08T06:37:52.000Z</time></trkpt><trkpt lon="5.910482" lat="51.175629"><ele>9.4</ele><time>2022-05-08T06:37:53.000Z</time></trkpt><trkpt lon="5.910587" lat="51.175602"><ele>9.4</ele><time>2022-05-08T06:37:54.000Z</time></trkpt><trkpt lon="5.910693" lat="51.175577"><ele>9.4</ele><time>2022-05-08T06:37:55.000Z</time></trkpt><trkpt lon="5.910799" lat="51.175552"><ele>9.4</ele><time>2022-05-08T06:37:56.000Z</time></trkpt><trkpt lon="5.910907" lat="51.175526"><ele>9.4</ele><time>2022-05-08T06:37:57.000Z</time></trkpt><trkpt lon="5.911015" lat="51.175501"><ele>9.4</ele><time>2022-05-08T06:37:58.000Z</time></trkpt><trkpt lon="5.911119" lat="51.175478"><ele>9.4</ele><time>2022-05-08T06:37:59.000Z</time></trkpt><trkpt lon="5.911223" lat="51.175455"><ele>9.4</ele><time>2022-05-08T06:38:00.000Z</time></trkpt><trkpt lon="5.911328" lat="51.17543"><ele>9.4</ele><time>2022-05-08T06:38:01.000Z</time></trkpt><trkpt lon="5.911434" lat="51.175406"><ele>9.4</ele><time>2022-05-08T06:38:02.000Z</time></trkpt><trkpt lon="5.911543" lat="51.175381"><ele>9.4</ele><time>2022-05-08T06:38:03.000Z</time></trkpt><trkpt lon="5.911648" lat="51.175356"><ele>9.4</ele><time>2022-05-08T06:38:04.000Z</time></trkpt><trkpt lon="5.911761" lat="51.175331"><ele>9.4</ele><time>2022-05-08T06:38:05.000Z</time></trkpt><trkpt lon="5.911876" lat="51.175306"><ele>9.4</ele><time>2022-05-08T06:38:06.000Z</time></trkpt><trkpt lon="5.911983" lat="51.175286"><ele>9.6</ele><time>2022-05-08T06:38:07.000Z</time></trkpt><trkpt lon="5.91209" lat="51.175264"><ele>9.6</ele><time>2022-05-08T06:38:08.000Z</time></trkpt><trkpt lon="5.912198" lat="51.175242"><ele>9.6</ele><time>2022-05-08T06:38:09.000Z</time></trkpt><trkpt lon="5.912303" lat="51.175215"><ele>9.6</ele><time>2022-05-08T06:38:10.000Z</time></trkpt><trkpt lon="5.912411" lat="51.17518"><ele>9.6</ele><time>2022-05-08T06:38:11.000Z</time></trkpt><trkpt lon="5.912523" lat="51.175146"><ele>9.8</ele><time>2022-05-08T06:38:12.000Z</time></trkpt><trkpt lon="5.912633" lat="51.175113"><ele>9.6</ele><time>2022-05-08T06:38:13.000Z</time></trkpt><trkpt lon="5.912742" lat="51.175083"><ele>9.6</ele><time>2022-05-08T06:38:14.000Z</time></trkpt><trkpt lon="5.912848" lat="51.175054"><ele>9.6</ele><time>2022-05-08T06:38:15.000Z</time></trkpt><trkpt lon="5.912953" lat="51.175028"><ele>9.6</ele><time>2022-05-08T06:38:16.000Z</time></trkpt><trkpt lon="5.913057" lat="51.175003"><ele>9.6</ele><time>2022-05-08T06:38:17.000Z</time></trkpt><trkpt lon="5.913164" lat="51.174976"><ele>9.6</ele><time>2022-05-08T06:38:18.000Z</time></trkpt><trkpt lon="5.91327" lat="51.174947"><ele>9.4</ele><time>2022-05-08T06:38:19.000Z</time></trkpt><trkpt lon="5.913378" lat="51.174919"><ele>9.4</ele><time>2022-05-08T06:38:20.000Z</time></trkpt><trkpt lon="5.913485" lat="51.174894"><ele>9.4</ele><time>2022-05-08T06:38:21.000Z</time></trkpt><trkpt lon="5.913593" lat="51.174869"><ele>9.4</ele><time>2022-05-08T06:38:22.000Z</time></trkpt><trkpt lon="5.913701" lat="51.174845"><ele>9.4</ele><time>2022-05-08T06:38:23.000Z</time></trkpt><trkpt lon="5.913808" lat="51.17482"><ele>9.4</ele><time>2022-05-08T06:38:24.000Z</time></trkpt><trkpt lon="5.913914" lat="51.174795"><ele>9.4</ele><time>2022-05-08T06:38:25.000Z</time></trkpt><trkpt lon="5.914021" lat="51.17477"><ele>9.4</ele><time>2022-05-08T06:38:26.000Z</time></trkpt><trkpt lon="5.914128" lat="51.174744"><ele>9.4</ele><time>2022-05-08T06:38:27.000Z</time></trkpt><trkpt lon="5.914234" lat="51.174719"><ele>9.4</ele><time>2022-05-08T06:38:28.000Z</time></trkpt><trkpt lon="5.914342" lat="51.174694"><ele>9.4</ele><time>2022-05-08T06:38:29.000Z</time></trkpt><trkpt lon="5.914447" lat="51.174667"><ele>9.4</ele><time>2022-05-08T06:38:30.000Z</time></trkpt><trkpt lon="5.914553" lat="51.174641"><ele>9.4</ele><time>2022-05-08T06:38:31.000Z</time></trkpt><trkpt lon="5.914659" lat="51.174616"><ele>9.4</ele><time>2022-05-08T06:38:32.000Z</time></trkpt><trkpt lon="5.914765" lat="51.174591"><ele>9.4</ele><time>2022-05-08T06:38:33.000Z</time></trkpt><trkpt lon="5.914864" lat="51.174568"><ele>9.4</ele><time>2022-05-08T06:38:34.000Z</time></trkpt><trkpt lon="5.914971" lat="51.174543"><ele>9.4</ele><time>2022-05-08T06:38:35.000Z</time></trkpt><trkpt lon="5.915083" lat="51.174515"><ele>9.6</ele><time>2022-05-08T06:38:36.000Z</time></trkpt><trkpt lon="5.91519" lat="51.174488"><ele>9.4</ele><time>2022-05-08T06:38:37.000Z</time></trkpt><trkpt lon="5.915299" lat="51.174461"><ele>9.4</ele><time>2022-05-08T06:38:38.000Z</time></trkpt><trkpt lon="5.915405" lat="51.174437"><ele>9.4</ele><time>2022-05-08T06:38:39.000Z</time></trkpt><trkpt lon="5.915512" lat="51.174414"><ele>9.4</ele><time>2022-05-08T06:38:40.000Z</time></trkpt><trkpt lon="5.915616" lat="51.174389"><ele>9.4</ele><time>2022-05-08T06:38:41.000Z</time></trkpt><trkpt lon="5.915721" lat="51.174364"><ele>9.4</ele><time>2022-05-08T06:38:42.000Z</time></trkpt><trkpt lon="5.915828" lat="51.174341"><ele>9.4</ele><time>2022-05-08T06:38:43.000Z</time></trkpt><trkpt lon="5.915932" lat="51.174316"><ele>9.4</ele><time>2022-05-08T06:38:44.000Z</time></trkpt><trkpt lon="5.916034" lat="51.174292"><ele>9.4</ele><time>2022-05-08T06:38:45.000Z</time></trkpt><trkpt lon="5.916138" lat="51.174269"><ele>9.4</ele><time>2022-05-08T06:38:46.000Z</time></trkpt><trkpt lon="5.916244" lat="51.17425"><ele>9.4</ele><time>2022-05-08T06:38:47.000Z</time></trkpt><trkpt lon="5.916348" lat="51.174235"><ele>9.4</ele><time>2022-05-08T06:38:48.000Z</time></trkpt><trkpt lon="5.916454" lat="51.174229"><ele>9.4</ele><time>2022-05-08T06:38:49.000Z</time></trkpt><trkpt lon="5.916562" lat="51.174235"><ele>9.4</ele><time>2022-05-08T06:38:50.000Z</time></trkpt><trkpt lon="5.916668" lat="51.174256"><ele>9.4</ele><time>2022-05-08T06:38:51.000Z</time></trkpt><trkpt lon="5.916769" lat="51.174289"><ele>9.4</ele><time>2022-05-08T06:38:52.000Z</time></trkpt><trkpt lon="5.91686" lat="51.174331"><ele>9.4</ele><time>2022-05-08T06:38:53.000Z</time></trkpt><trkpt lon="5.916938" lat="51.174381"><ele>9.4</ele><time>2022-05-08T06:38:54.000Z</time></trkpt><trkpt lon="5.917004" lat="51.174438"><ele>9.4</ele><time>2022-05-08T06:38:55.000Z</time></trkpt><trkpt lon="5.917063" lat="51.174497"><ele>9.4</ele><time>2022-05-08T06:38:56.000Z</time></trkpt><trkpt lon="5.917115" lat="51.17456"><ele>9.4</ele><time>2022-05-08T06:38:57.000Z</time></trkpt><trkpt lon="5.917161" lat="51.174625"><ele>9.2</ele><time>2022-05-08T06:38:58.000Z</time></trkpt><trkpt lon="5.917204" lat="51.174687"><ele>9.2</ele><time>2022-05-08T06:38:59.000Z</time></trkpt><trkpt lon="5.917245" lat="51.174753"><ele>9.2</ele><time>2022-05-08T06:39:00.000Z</time></trkpt><trkpt lon="5.917286" lat="51.174822"><ele>9.2</ele><time>2022-05-08T06:39:01.000Z</time></trkpt><trkpt lon="5.91733" lat="51.174888"><ele>9.2</ele><time>2022-05-08T06:39:02.000Z</time></trkpt><trkpt lon="5.917372" lat="51.174953"><ele>9.2</ele><time>2022-05-08T06:39:03.000Z</time></trkpt><trkpt lon="5.917414" lat="51.175018"><ele>9.2</ele><time>2022-05-08T06:39:04.000Z</time></trkpt><trkpt lon="5.917454" lat="51.175081"><ele>9.4</ele><time>2022-05-08T06:39:05.000Z</time></trkpt><trkpt lon="5.917492" lat="51.17514"><ele>9.6</ele><time>2022-05-08T06:39:06.000Z</time></trkpt><trkpt lon="5.917533" lat="51.175199"><ele>9.6</ele><time>2022-05-08T06:39:07.000Z</time></trkpt><trkpt lon="5.917573" lat="51.175258"><ele>9.8</ele><time>2022-05-08T06:39:08.000Z</time></trkpt><trkpt lon="5.917612" lat="51.175317"><ele>9.8</ele><time>2022-05-08T06:39:09.000Z</time></trkpt><trkpt lon="5.917648" lat="51.175376"><ele>10</ele><time>2022-05-08T06:39:10.000Z</time></trkpt><trkpt lon="5.917682" lat="51.175433"><ele>10.2</ele><time>2022-05-08T06:39:11.000Z</time></trkpt><trkpt lon="5.917718" lat="51.175495"><ele>10.4</ele><time>2022-05-08T06:39:12.000Z</time></trkpt><trkpt lon="5.917758" lat="51.175557"><ele>10.6</ele><time>2022-05-08T06:39:13.000Z</time></trkpt><trkpt lon="5.9178" lat="51.17562"><ele>10.6</ele><time>2022-05-08T06:39:14.000Z</time></trkpt><trkpt lon="5.917839" lat="51.175686"><ele>10.8</ele><time>2022-05-08T06:39:15.000Z</time></trkpt><trkpt lon="5.917878" lat="51.175748"><ele>11</ele><time>2022-05-08T06:39:16.000Z</time></trkpt><trkpt lon="5.917919" lat="51.175811"><ele>11.2</ele><time>2022-05-08T06:39:17.000Z</time></trkpt><trkpt lon="5.917962" lat="51.175872"><ele>11.6</ele><time>2022-05-08T06:39:18.000Z</time></trkpt><trkpt lon="5.918005" lat="51.175928"><ele>11.8</ele><time>2022-05-08T06:39:19.000Z</time></trkpt><trkpt lon="5.918046" lat="51.175985"><ele>12</ele><time>2022-05-08T06:39:20.000Z</time></trkpt><trkpt lon="5.918083" lat="51.176043"><ele>12.2</ele><time>2022-05-08T06:39:21.000Z</time></trkpt><trkpt lon="5.918121" lat="51.176098"><ele>12.4</ele><time>2022-05-08T06:39:22.000Z</time></trkpt><trkpt lon="5.918158" lat="51.176149"><ele>12.6</ele><time>2022-05-08T06:39:23.000Z</time></trkpt><trkpt lon="5.918194" lat="51.176199"><ele>12.6</ele><time>2022-05-08T06:39:24.000Z</time></trkpt><trkpt lon="5.918229" lat="51.176248"><ele>12.8</ele><time>2022-05-08T06:39:25.000Z</time></trkpt><trkpt lon="5.918275" lat="51.176292"><ele>12.8</ele><time>2022-05-08T06:39:26.000Z</time></trkpt><trkpt lon="5.918334" lat="51.176319"><ele>12.8</ele><time>2022-05-08T06:39:27.000Z</time></trkpt><trkpt lon="5.918408" lat="51.176327"><ele>13</ele><time>2022-05-08T06:39:28.000Z</time></trkpt><trkpt lon="5.918495" lat="51.176318"><ele>13</ele><time>2022-05-08T06:39:29.000Z</time></trkpt><trkpt lon="5.918591" lat="51.176296"><ele>13</ele><time>2022-05-08T06:39:30.000Z</time></trkpt><trkpt lon="5.91869" lat="51.176272"><ele>13.2</ele><time>2022-05-08T06:39:31.000Z</time></trkpt><trkpt lon="5.918791" lat="51.176247"><ele>13.4</ele><time>2022-05-08T06:39:32.000Z</time></trkpt><trkpt lon="5.918889" lat="51.176222"><ele>13.6</ele><time>2022-05-08T06:39:33.000Z</time></trkpt><trkpt lon="5.918986" lat="51.176199"><ele>13.6</ele><time>2022-05-08T06:39:34.000Z</time></trkpt><trkpt lon="5.919081" lat="51.176176"><ele>13.8</ele><time>2022-05-08T06:39:35.000Z</time></trkpt><trkpt lon="5.919176" lat="51.176151"><ele>14</ele><time>2022-05-08T06:39:36.000Z</time></trkpt><trkpt lon="5.919269" lat="51.176127"><ele>14.2</ele><time>2022-05-08T06:39:37.000Z</time></trkpt><trkpt lon="5.919363" lat="51.176102"><ele>14.2</ele><time>2022-05-08T06:39:38.000Z</time></trkpt><trkpt lon="5.919459" lat="51.176077"><ele>13.8</ele><time>2022-05-08T06:39:39.000Z</time></trkpt><trkpt lon="5.919553" lat="51.176052"><ele>13.8</ele><time>2022-05-08T06:39:40.000Z</time></trkpt><trkpt lon="5.919644" lat="51.176027"><ele>13.8</ele><time>2022-05-08T06:39:41.000Z</time></trkpt><trkpt lon="5.919735" lat="51.176005"><ele>14</ele><time>2022-05-08T06:39:42.000Z</time></trkpt><trkpt lon="5.919827" lat="51.17598"><ele>14</ele><time>2022-05-08T06:39:43.000Z</time></trkpt><trkpt lon="5.919923" lat="51.175953"><ele>14</ele><time>2022-05-08T06:39:44.000Z</time></trkpt><trkpt lon="5.920018" lat="51.175927"><ele>14</ele><time>2022-05-08T06:39:45.000Z</time></trkpt><trkpt lon="5.920119" lat="51.175902"><ele>14</ele><time>2022-05-08T06:39:46.000Z</time></trkpt><trkpt lon="5.920222" lat="51.175876"><ele>14</ele><time>2022-05-08T06:39:47.000Z</time></trkpt><trkpt lon="5.920325" lat="51.17585"><ele>13.8</ele><time>2022-05-08T06:39:48.000Z</time></trkpt><trkpt lon="5.920425" lat="51.175824"><ele>13.8</ele><time>2022-05-08T06:39:49.000Z</time></trkpt><trkpt lon="5.920529" lat="51.175794"><ele>13.8</ele><time>2022-05-08T06:39:50.000Z</time></trkpt><trkpt lon="5.920631" lat="51.175766"><ele>13.6</ele><time>2022-05-08T06:39:51.000Z</time></trkpt><trkpt lon="5.920734" lat="51.175739"><ele>13.4</ele><time>2022-05-08T06:39:52.000Z</time></trkpt><trkpt lon="5.920839" lat="51.17571"><ele>13.2</ele><time>2022-05-08T06:39:53.000Z</time></trkpt><trkpt lon="5.920941" lat="51.175682"><ele>13.2</ele><time>2022-05-08T06:39:54.000Z</time></trkpt><trkpt lon="5.921045" lat="51.175653"><ele>13</ele><time>2022-05-08T06:39:55.000Z</time></trkpt><trkpt lon="5.921149" lat="51.175625"><ele>12.6</ele><time>2022-05-08T06:39:56.000Z</time></trkpt><trkpt lon="5.921247" lat="51.175596"><ele>12.4</ele><time>2022-05-08T06:39:57.000Z</time></trkpt><trkpt lon="5.921346" lat="51.175567"><ele>12.2</ele><time>2022-05-08T06:39:58.000Z</time></trkpt><trkpt lon="5.921443" lat="51.175539"><ele>12</ele><time>2022-05-08T06:39:59.000Z</time></trkpt><trkpt lon="5.92154" lat="51.175508"><ele>12</ele><time>2022-05-08T06:40:00.000Z</time></trkpt><trkpt lon="5.921639" lat="51.175477"><ele>11.8</ele><time>2022-05-08T06:40:01.000Z</time></trkpt><trkpt lon="5.921738" lat="51.175447"><ele>11.8</ele><time>2022-05-08T06:40:02.000Z</time></trkpt><trkpt lon="5.921835" lat="51.175423"><ele>11.8</ele><time>2022-05-08T06:40:03.000Z</time></trkpt><trkpt lon="5.921926" lat="51.175402"><ele>11.6</ele><time>2022-05-08T06:40:04.000Z</time></trkpt><trkpt lon="5.922013" lat="51.175379"><ele>11.6</ele><time>2022-05-08T06:40:05.000Z</time></trkpt><trkpt lon="5.922096" lat="51.175356"><ele>11.6</ele><time>2022-05-08T06:40:06.000Z</time></trkpt><trkpt lon="5.922176" lat="51.175335"><ele>11.6</ele><time>2022-05-08T06:40:07.000Z</time></trkpt><trkpt lon="5.922251" lat="51.175323"><ele>11.8</ele><time>2022-05-08T06:40:08.000Z</time></trkpt><trkpt lon="5.922319" lat="51.175324"><ele>11.8</ele><time>2022-05-08T06:40:09.000Z</time></trkpt><trkpt lon="5.922384" lat="51.175343"><ele>11.6</ele><time>2022-05-08T06:40:10.000Z</time></trkpt><trkpt lon="5.922448" lat="51.175385"><ele>11.6</ele><time>2022-05-08T06:40:11.000Z</time></trkpt><trkpt lon="5.922508" lat="51.175445"><ele>11.4</ele><time>2022-05-08T06:40:12.000Z</time></trkpt><trkpt lon="5.922559" lat="51.175512"><ele>11.4</ele><time>2022-05-08T06:40:13.000Z</time></trkpt><trkpt lon="5.922603" lat="51.175578"><ele>11.4</ele><time>2022-05-08T06:40:14.000Z</time></trkpt><trkpt lon="5.922645" lat="51.175641"><ele>11.4</ele><time>2022-05-08T06:40:15.000Z</time></trkpt><trkpt lon="5.922684" lat="51.175703"><ele>11.4</ele><time>2022-05-08T06:40:16.000Z</time></trkpt><trkpt lon="5.922723" lat="51.175763"><ele>11.4</ele><time>2022-05-08T06:40:17.000Z</time></trkpt><trkpt lon="5.922765" lat="51.175826"><ele>11.4</ele><time>2022-05-08T06:40:18.000Z</time></trkpt><trkpt lon="5.922814" lat="51.175893"><ele>11.4</ele><time>2022-05-08T06:40:19.000Z</time></trkpt><trkpt lon="5.922866" lat="51.175959"><ele>11.2</ele><time>2022-05-08T06:40:20.000Z</time></trkpt><trkpt lon="5.92292" lat="51.176026"><ele>11.2</ele><time>2022-05-08T06:40:21.000Z</time></trkpt><trkpt lon="5.92297" lat="51.176094"><ele>11.2</ele><time>2022-05-08T06:40:22.000Z</time></trkpt><trkpt lon="5.923016" lat="51.176158"><ele>11.2</ele><time>2022-05-08T06:40:23.000Z</time></trkpt><trkpt lon="5.923061" lat="51.17622"><ele>11.4</ele><time>2022-05-08T06:40:24.000Z</time></trkpt><trkpt lon="5.923109" lat="51.176284"><ele>11.4</ele><time>2022-05-08T06:40:25.000Z</time></trkpt><trkpt lon="5.923155" lat="51.176347"><ele>11.6</ele><time>2022-05-08T06:40:26.000Z</time></trkpt><trkpt lon="5.923199" lat="51.176408"><ele>11.6</ele><time>2022-05-08T06:40:27.000Z</time></trkpt><trkpt lon="5.923243" lat="51.176471"><ele>11.6</ele><time>2022-05-08T06:40:28.000Z</time></trkpt><trkpt lon="5.923287" lat="51.176536"><ele>11.6</ele><time>2022-05-08T06:40:29.000Z</time></trkpt><trkpt lon="5.923331" lat="51.1766"><ele>11.8</ele><time>2022-05-08T06:40:30.000Z</time></trkpt><trkpt lon="5.923374" lat="51.176666"><ele>11.8</ele><time>2022-05-08T06:40:31.000Z</time></trkpt><trkpt lon="5.923416" lat="51.176733"><ele>11.8</ele><time>2022-05-08T06:40:32.000Z</time></trkpt><trkpt lon="5.923459" lat="51.176799"><ele>11.8</ele><time>2022-05-08T06:40:33.000Z</time></trkpt><trkpt lon="5.923505" lat="51.176863"><ele>11.8</ele><time>2022-05-08T06:40:34.000Z</time></trkpt><trkpt lon="5.92355" lat="51.176928"><ele>11.8</ele><time>2022-05-08T06:40:35.000Z</time></trkpt><trkpt lon="5.923596" lat="51.176994"><ele>11.6</ele><time>2022-05-08T06:40:36.000Z</time></trkpt><trkpt lon="5.923641" lat="51.177059"><ele>11.6</ele><time>2022-05-08T06:40:37.000Z</time></trkpt><trkpt lon="5.923685" lat="51.177123"><ele>11.4</ele><time>2022-05-08T06:40:38.000Z</time></trkpt><trkpt lon="5.923728" lat="51.177188"><ele>11.2</ele><time>2022-05-08T06:40:39.000Z</time></trkpt><trkpt lon="5.923771" lat="51.177251"><ele>11.4</ele><time>2022-05-08T06:40:40.000Z</time></trkpt><trkpt lon="5.923808" lat="51.177314"><ele>11.6</ele><time>2022-05-08T06:40:41.000Z</time></trkpt><trkpt lon="5.923843" lat="51.177374"><ele>11.8</ele><time>2022-05-08T06:40:42.000Z</time></trkpt><trkpt lon="5.923877" lat="51.177432"><ele>12</ele><time>2022-05-08T06:40:43.000Z</time></trkpt><trkpt lon="5.923912" lat="51.177487"><ele>12.2</ele><time>2022-05-08T06:40:44.000Z</time></trkpt><trkpt lon="5.923946" lat="51.17754"><ele>12.4</ele><time>2022-05-08T06:40:45.000Z</time></trkpt><trkpt lon="5.923979" lat="51.177591"><ele>12.6</ele><time>2022-05-08T06:40:46.000Z</time></trkpt><trkpt lon="5.924012" lat="51.177639"><ele>12.6</ele><time>2022-05-08T06:40:47.000Z</time></trkpt><trkpt lon="5.924051" lat="51.17768"><ele>12.6</ele><time>2022-05-08T06:40:48.000Z</time></trkpt><trkpt lon="5.924106" lat="51.177707"><ele>12.8</ele><time>2022-05-08T06:40:49.000Z</time></trkpt><trkpt lon="5.924173" lat="51.177715"><ele>12.8</ele><time>2022-05-08T06:40:50.000Z</time></trkpt><trkpt lon="5.924249" lat="51.177709"><ele>13</ele><time>2022-05-08T06:40:51.000Z</time></trkpt><trkpt lon="5.924332" lat="51.177693"><ele>13.2</ele><time>2022-05-08T06:40:52.000Z</time></trkpt><trkpt lon="5.924416" lat="51.177674"><ele>13.4</ele><time>2022-05-08T06:40:53.000Z</time></trkpt><trkpt lon="5.924503" lat="51.177652"><ele>13.6</ele><time>2022-05-08T06:40:54.000Z</time></trkpt><trkpt lon="5.92459" lat="51.177632"><ele>13.8</ele><time>2022-05-08T06:40:55.000Z</time></trkpt><trkpt lon="5.924676" lat="51.177611"><ele>14.2</ele><time>2022-05-08T06:40:56.000Z</time></trkpt><trkpt lon="5.924759" lat="51.17759"><ele>14.4</ele><time>2022-05-08T06:40:57.000Z</time></trkpt><trkpt lon="5.924841" lat="51.177566"><ele>14.6</ele><time>2022-05-08T06:40:58.000Z</time></trkpt><trkpt lon="5.924927" lat="51.177544"><ele>15</ele><time>2022-05-08T06:40:59.000Z</time></trkpt><trkpt lon="5.925011" lat="51.177523"><ele>15.2</ele><time>2022-05-08T06:41:00.000Z</time></trkpt><trkpt lon="5.92509" lat="51.1775"><ele>15.4</ele><time>2022-05-08T06:41:01.000Z</time></trkpt><trkpt lon="5.925167" lat="51.177477"><ele>15.6</ele><time>2022-05-08T06:41:02.000Z</time></trkpt><trkpt lon="5.925245" lat="51.177455"><ele>15.8</ele><time>2022-05-08T06:41:03.000Z</time></trkpt><trkpt lon="5.925324" lat="51.177431"><ele>15.8</ele><time>2022-05-08T06:41:04.000Z</time></trkpt><trkpt lon="5.925401" lat="51.177408"><ele>15.8</ele><time>2022-05-08T06:41:05.000Z</time></trkpt><trkpt lon="5.925472" lat="51.177385"><ele>15.8</ele><time>2022-05-08T06:41:06.000Z</time></trkpt><trkpt lon="5.925537" lat="51.177358"><ele>15.8</ele><time>2022-05-08T06:41:07.000Z</time></trkpt><trkpt lon="5.925584" lat="51.177319"><ele>15.6</ele><time>2022-05-08T06:41:08.000Z</time></trkpt><trkpt lon="5.925602" lat="51.177264"><ele>15.6</ele><time>2022-05-08T06:41:09.000Z</time></trkpt><trkpt lon="5.925587" lat="51.177203"><ele>15.4</ele><time>2022-05-08T06:41:10.000Z</time></trkpt><trkpt lon="5.925551" lat="51.17714"><ele>15.2</ele><time>2022-05-08T06:41:11.000Z</time></trkpt><trkpt lon="5.925508" lat="51.177073"><ele>15</ele><time>2022-05-08T06:41:12.000Z</time></trkpt><trkpt lon="5.925464" lat="51.177003"><ele>14.6</ele><time>2022-05-08T06:41:13.000Z</time></trkpt><trkpt lon="5.925415" lat="51.17693"><ele>14.4</ele><time>2022-05-08T06:41:14.000Z</time></trkpt><trkpt lon="5.925363" lat="51.176855"><ele>14</ele><time>2022-05-08T06:41:15.000Z</time></trkpt><trkpt lon="5.92531" lat="51.176779"><ele>13.6</ele><time>2022-05-08T06:41:16.000Z</time></trkpt><trkpt lon="5.925256" lat="51.1767"><ele>13.2</ele><time>2022-05-08T06:41:17.000Z</time></trkpt><trkpt lon="5.925202" lat="51.176618"><ele>12.8</ele><time>2022-05-08T06:41:18.000Z</time></trkpt><trkpt lon="5.925148" lat="51.176536"><ele>12.6</ele><time>2022-05-08T06:41:19.000Z</time></trkpt><trkpt lon="5.925092" lat="51.176454"><ele>12.4</ele><time>2022-05-08T06:41:20.000Z</time></trkpt><trkpt lon="5.925037" lat="51.176372"><ele>12.2</ele><time>2022-05-08T06:41:21.000Z</time></trkpt><trkpt lon="5.924982" lat="51.17629"><ele>12</ele><time>2022-05-08T06:41:22.000Z</time></trkpt><trkpt lon="5.924927" lat="51.176208"><ele>11.6</ele><time>2022-05-08T06:41:23.000Z</time></trkpt><trkpt lon="5.924874" lat="51.176128"><ele>11.6</ele><time>2022-05-08T06:41:24.000Z</time></trkpt><trkpt lon="5.924822" lat="51.17605"><ele>11.2</ele><time>2022-05-08T06:41:25.000Z</time></trkpt><trkpt lon="5.92477" lat="51.175973"><ele>11</ele><time>2022-05-08T06:41:26.000Z</time></trkpt><trkpt lon="5.92472" lat="51.1759"><ele>11</ele><time>2022-05-08T06:41:27.000Z</time></trkpt><trkpt lon="5.924673" lat="51.175827"><ele>10.8</ele><time>2022-05-08T06:41:28.000Z</time></trkpt><trkpt lon="5.924626" lat="51.175754"><ele>10.8</ele><time>2022-05-08T06:41:29.000Z</time></trkpt><trkpt lon="5.924579" lat="51.175682"><ele>10.8</ele><time>2022-05-08T06:41:30.000Z</time></trkpt><trkpt lon="5.92453" lat="51.175608"><ele>11</ele><time>2022-05-08T06:41:31.000Z</time></trkpt><trkpt lon="5.924482" lat="51.175536"><ele>11</ele><time>2022-05-08T06:41:32.000Z</time></trkpt><trkpt lon="5.924433" lat="51.175464"><ele>11</ele><time>2022-05-08T06:41:33.000Z</time></trkpt><trkpt lon="5.924384" lat="51.175393"><ele>11</ele><time>2022-05-08T06:41:34.000Z</time></trkpt><trkpt lon="5.924338" lat="51.175321"><ele>11</ele><time>2022-05-08T06:41:35.000Z</time></trkpt><trkpt lon="5.924293" lat="51.175248"><ele>11</ele><time>2022-05-08T06:41:36.000Z</time></trkpt><trkpt lon="5.924244" lat="51.175174"><ele>11.2</ele><time>2022-05-08T06:41:37.000Z</time></trkpt><trkpt lon="5.924195" lat="51.175102"><ele>11</ele><time>2022-05-08T06:41:38.000Z</time></trkpt><trkpt lon="5.924148" lat="51.175032"><ele>11</ele><time>2022-05-08T06:41:39.000Z</time></trkpt><trkpt lon="5.924101" lat="51.174961"><ele>11</ele><time>2022-05-08T06:41:40.000Z</time></trkpt><trkpt lon="5.924056" lat="51.174891"><ele>11</ele><time>2022-05-08T06:41:41.000Z</time></trkpt><trkpt lon="5.924011" lat="51.174822"><ele>11</ele><time>2022-05-08T06:41:42.000Z</time></trkpt><trkpt lon="5.923966" lat="51.174756"><ele>11</ele><time>2022-05-08T06:41:43.000Z</time></trkpt><trkpt lon="5.923922" lat="51.17469"><ele>11</ele><time>2022-05-08T06:41:44.000Z</time></trkpt><trkpt lon="5.923879" lat="51.17462"><ele>11</ele><time>2022-05-08T06:41:45.000Z</time></trkpt><trkpt lon="5.923836" lat="51.174551"><ele>11</ele><time>2022-05-08T06:41:46.000Z</time></trkpt><trkpt lon="5.923794" lat="51.174482"><ele>11.2</ele><time>2022-05-08T06:41:47.000Z</time></trkpt><trkpt lon="5.923751" lat="51.174414"><ele>11.2</ele><time>2022-05-08T06:41:48.000Z</time></trkpt><trkpt lon="5.92371" lat="51.174348"><ele>11.2</ele><time>2022-05-08T06:41:49.000Z</time></trkpt><trkpt lon="5.923671" lat="51.17428"><ele>11.2</ele><time>2022-05-08T06:41:50.000Z</time></trkpt><trkpt lon="5.923631" lat="51.174209"><ele>11.2</ele><time>2022-05-08T06:41:51.000Z</time></trkpt><trkpt lon="5.923591" lat="51.17414"><ele>11.2</ele><time>2022-05-08T06:41:52.000Z</time></trkpt><trkpt lon="5.92355" lat="51.174071"><ele>11.4</ele><time>2022-05-08T06:41:53.000Z</time></trkpt><trkpt lon="5.92351" lat="51.174002"><ele>11.4</ele><time>2022-05-08T06:41:54.000Z</time></trkpt><trkpt lon="5.923471" lat="51.173933"><ele>11.4</ele><time>2022-05-08T06:41:55.000Z</time></trkpt><trkpt lon="5.923432" lat="51.173864"><ele>11.4</ele><time>2022-05-08T06:41:56.000Z</time></trkpt><trkpt lon="5.923395" lat="51.173796"><ele>11.4</ele><time>2022-05-08T06:41:57.000Z</time></trkpt><trkpt lon="5.923359" lat="51.173728"><ele>11.4</ele><time>2022-05-08T06:41:58.000Z</time></trkpt><trkpt lon="5.923321" lat="51.173659"><ele>11.4</ele><time>2022-05-08T06:41:59.000Z</time></trkpt><trkpt lon="5.923284" lat="51.173592"><ele>11.4</ele><time>2022-05-08T06:42:00.000Z</time></trkpt><trkpt lon="5.923247" lat="51.173527"><ele>11.2</ele><time>2022-05-08T06:42:01.000Z</time></trkpt><trkpt lon="5.92321" lat="51.17346"><ele>11.2</ele><time>2022-05-08T06:42:02.000Z</time></trkpt><trkpt lon="5.923174" lat="51.173392"><ele>11</ele><time>2022-05-08T06:42:03.000Z</time></trkpt><trkpt lon="5.923134" lat="51.173321"><ele>11</ele><time>2022-05-08T06:42:04.000Z</time></trkpt><trkpt lon="5.923091" lat="51.17325"><ele>10.8</ele><time>2022-05-08T06:42:05.000Z</time></trkpt><trkpt lon="5.923049" lat="51.173177"><ele>10.6</ele><time>2022-05-08T06:42:06.000Z</time></trkpt><trkpt lon="5.923007" lat="51.173103"><ele>10.4</ele><time>2022-05-08T06:42:07.000Z</time></trkpt><trkpt lon="5.922966" lat="51.173033"><ele>10.2</ele><time>2022-05-08T06:42:08.000Z</time></trkpt><trkpt lon="5.922927" lat="51.172965"><ele>10</ele><time>2022-05-08T06:42:09.000Z</time></trkpt><trkpt lon="5.922896" lat="51.172898"><ele>9.8</ele><time>2022-05-08T06:42:10.000Z</time></trkpt><trkpt lon="5.922879" lat="51.172838"><ele>9.6</ele><time>2022-05-08T06:42:11.000Z</time></trkpt><trkpt lon="5.922879" lat="51.172782"><ele>9.6</ele><time>2022-05-08T06:42:12.000Z</time></trkpt><trkpt lon="5.922895" lat="51.172731"><ele>9.4</ele><time>2022-05-08T06:42:13.000Z</time></trkpt><trkpt lon="5.922933" lat="51.172686"><ele>9.2</ele><time>2022-05-08T06:42:14.000Z</time></trkpt><trkpt lon="5.922995" lat="51.17264"><ele>9</ele><time>2022-05-08T06:42:15.000Z</time></trkpt><trkpt lon="5.923069" lat="51.172585"><ele>9</ele><time>2022-05-08T06:42:16.000Z</time></trkpt><trkpt lon="5.923137" lat="51.172524"><ele>8.8</ele><time>2022-05-08T06:42:17.000Z</time></trkpt><trkpt lon="5.923199" lat="51.172457"><ele>8.8</ele><time>2022-05-08T06:42:18.000Z</time></trkpt><trkpt lon="5.923258" lat="51.172384"><ele>8.8</ele><time>2022-05-08T06:42:19.000Z</time></trkpt><trkpt lon="5.923318" lat="51.172308"><ele>8.8</ele><time>2022-05-08T06:42:20.000Z</time></trkpt><trkpt lon="5.923377" lat="51.172232"><ele>8.8</ele><time>2022-05-08T06:42:21.000Z</time></trkpt><trkpt lon="5.923437" lat="51.172157"><ele>9</ele><time>2022-05-08T06:42:22.000Z</time></trkpt><trkpt lon="5.923501" lat="51.172087"><ele>9.2</ele><time>2022-05-08T06:42:23.000Z</time></trkpt><trkpt lon="5.923569" lat="51.172023"><ele>9.6</ele><time>2022-05-08T06:42:24.000Z</time></trkpt><trkpt lon="5.923643" lat="51.171964"><ele>10</ele><time>2022-05-08T06:42:25.000Z</time></trkpt><trkpt lon="5.923723" lat="51.171911"><ele>10.4</ele><time>2022-05-08T06:42:26.000Z</time></trkpt><trkpt lon="5.923808" lat="51.171866"><ele>10.8</ele><time>2022-05-08T06:42:27.000Z</time></trkpt><trkpt lon="5.923894" lat="51.171833"><ele>11.2</ele><time>2022-05-08T06:42:28.000Z</time></trkpt><trkpt lon="5.923984" lat="51.171806"><ele>11.4</ele><time>2022-05-08T06:42:29.000Z</time></trkpt><trkpt lon="5.924076" lat="51.171777"><ele>11.6</ele><time>2022-05-08T06:42:30.000Z</time></trkpt><trkpt lon="5.92417" lat="51.171747"><ele>11.8</ele><time>2022-05-08T06:42:31.000Z</time></trkpt><trkpt lon="5.924264" lat="51.171716"><ele>11.6</ele><time>2022-05-08T06:42:32.000Z</time></trkpt><trkpt lon="5.924359" lat="51.171686"><ele>11.4</ele><time>2022-05-08T06:42:33.000Z</time></trkpt><trkpt lon="5.924456" lat="51.171655"><ele>11.2</ele><time>2022-05-08T06:42:34.000Z</time></trkpt><trkpt lon="5.924555" lat="51.171625"><ele>10.8</ele><time>2022-05-08T06:42:35.000Z</time></trkpt><trkpt lon="5.924662" lat="51.171596"><ele>10.6</ele><time>2022-05-08T06:42:36.000Z</time></trkpt><trkpt lon="5.924769" lat="51.17157"><ele>10.6</ele><time>2022-05-08T06:42:37.000Z</time></trkpt><trkpt lon="5.924874" lat="51.171545"><ele>10.4</ele><time>2022-05-08T06:42:38.000Z</time></trkpt><trkpt lon="5.924975" lat="51.171522"><ele>10.4</ele><time>2022-05-08T06:42:39.000Z</time></trkpt><trkpt lon="5.925071" lat="51.1715"><ele>10.4</ele><time>2022-05-08T06:42:40.000Z</time></trkpt><trkpt lon="5.925165" lat="51.171477"><ele>10.4</ele><time>2022-05-08T06:42:41.000Z</time></trkpt><trkpt lon="5.925248" lat="51.171452"><ele>10.4</ele><time>2022-05-08T06:42:42.000Z</time></trkpt><trkpt lon="5.925311" lat="51.171418"><ele>10.4</ele><time>2022-05-08T06:42:43.000Z</time></trkpt><trkpt lon="5.925356" lat="51.171374"><ele>10.6</ele><time>2022-05-08T06:42:44.000Z</time></trkpt><trkpt lon="5.925379" lat="51.171318"><ele>10.4</ele><time>2022-05-08T06:42:45.000Z</time></trkpt><trkpt lon="5.925375" lat="51.171252"><ele>10.2</ele><time>2022-05-08T06:42:46.000Z</time></trkpt><trkpt lon="5.925341" lat="51.171183"><ele>9.6</ele><time>2022-05-08T06:42:47.000Z</time></trkpt><trkpt lon="5.925291" lat="51.171114"><ele>9.4</ele><time>2022-05-08T06:42:48.000Z</time></trkpt><trkpt lon="5.925236" lat="51.171045"><ele>9.2</ele><time>2022-05-08T06:42:49.000Z</time></trkpt><trkpt lon="5.92518" lat="51.170979"><ele>9.2</ele><time>2022-05-08T06:42:50.000Z</time></trkpt><trkpt lon="5.925123" lat="51.170913"><ele>9</ele><time>2022-05-08T06:42:51.000Z</time></trkpt><trkpt lon="5.925069" lat="51.170846"><ele>8.8</ele><time>2022-05-08T06:42:52.000Z</time></trkpt><trkpt lon="5.925016" lat="51.170778"><ele>8.8</ele><time>2022-05-08T06:42:53.000Z</time></trkpt><trkpt lon="5.924965" lat="51.170712"><ele>8.8</ele><time>2022-05-08T06:42:54.000Z</time></trkpt><trkpt lon="5.924913" lat="51.170645"><ele>8.8</ele><time>2022-05-08T06:42:55.000Z</time></trkpt><trkpt lon="5.92486" lat="51.170579"><ele>8.6</ele><time>2022-05-08T06:42:56.000Z</time></trkpt><trkpt lon="5.924808" lat="51.170512"><ele>8.6</ele><time>2022-05-08T06:42:57.000Z</time></trkpt><trkpt lon="5.924758" lat="51.170445"><ele>8.4</ele><time>2022-05-08T06:42:58.000Z</time></trkpt><trkpt lon="5.924708" lat="51.170379"><ele>8.4</ele><time>2022-05-08T06:42:59.000Z</time></trkpt><trkpt lon="5.924658" lat="51.170312"><ele>8.4</ele><time>2022-05-08T06:43:00.000Z</time></trkpt><trkpt lon="5.924608" lat="51.170247"><ele>8.4</ele><time>2022-05-08T06:43:01.000Z</time></trkpt><trkpt lon="5.92456" lat="51.170182"><ele>8.4</ele><time>2022-05-08T06:43:02.000Z</time></trkpt><trkpt lon="5.924514" lat="51.170117"><ele>8.4</ele><time>2022-05-08T06:43:03.000Z</time></trkpt><trkpt lon="5.924467" lat="51.17005"><ele>8.4</ele><time>2022-05-08T06:43:04.000Z</time></trkpt><trkpt lon="5.92442" lat="51.169986"><ele>8.4</ele><time>2022-05-08T06:43:05.000Z</time></trkpt><trkpt lon="5.924372" lat="51.169923"><ele>8.4</ele><time>2022-05-08T06:43:06.000Z</time></trkpt><trkpt lon="5.924325" lat="51.169858"><ele>8.4</ele><time>2022-05-08T06:43:07.000Z</time></trkpt><trkpt lon="5.92428" lat="51.169794"><ele>8.4</ele><time>2022-05-08T06:43:08.000Z</time></trkpt><trkpt lon="5.924234" lat="51.169729"><ele>8.4</ele><time>2022-05-08T06:43:09.000Z</time></trkpt><trkpt lon="5.924186" lat="51.169665"><ele>8.6</ele><time>2022-05-08T06:43:10.000Z</time></trkpt><trkpt lon="5.924143" lat="51.169602"><ele>8.6</ele><time>2022-05-08T06:43:11.000Z</time></trkpt><trkpt lon="5.924105" lat="51.169537"><ele>8.6</ele><time>2022-05-08T06:43:12.000Z</time></trkpt><trkpt lon="5.924076" lat="51.169475"><ele>8.8</ele><time>2022-05-08T06:43:13.000Z</time></trkpt><trkpt lon="5.924059" lat="51.169418"><ele>9</ele><time>2022-05-08T06:43:14.000Z</time></trkpt><trkpt lon="5.924049" lat="51.169369"><ele>9.6</ele><time>2022-05-08T06:43:15.000Z</time></trkpt><trkpt lon="5.924041" lat="51.169323"><ele>10</ele><time>2022-05-08T06:43:16.000Z</time></trkpt><trkpt lon="5.924023" lat="51.16928"><ele>10.4</ele><time>2022-05-08T06:43:17.000Z</time></trkpt><trkpt lon="5.923991" lat="51.16924"><ele>10.8</ele><time>2022-05-08T06:43:18.000Z</time></trkpt><trkpt lon="5.923948" lat="51.169206"><ele>11</ele><time>2022-05-08T06:43:19.000Z</time></trkpt><trkpt lon="5.923898" lat="51.169187"><ele>11.2</ele><time>2022-05-08T06:43:20.000Z</time></trkpt><trkpt lon="5.923846" lat="51.16918"><ele>11.2</ele><time>2022-05-08T06:43:21.000Z</time></trkpt><trkpt lon="5.923786" lat="51.16918"><ele>11.2</ele><time>2022-05-08T06:43:22.000Z</time></trkpt><trkpt lon="5.923715" lat="51.169188"><ele>11.2</ele><time>2022-05-08T06:43:23.000Z</time></trkpt><trkpt lon="5.923633" lat="51.169202"><ele>11.2</ele><time>2022-05-08T06:43:24.000Z</time></trkpt><trkpt lon="5.923541" lat="51.16922"><ele>11.2</ele><time>2022-05-08T06:43:25.000Z</time></trkpt><trkpt lon="5.923446" lat="51.169236"><ele>11</ele><time>2022-05-08T06:43:26.000Z</time></trkpt><trkpt lon="5.923352" lat="51.169252"><ele>11</ele><time>2022-05-08T06:43:27.000Z</time></trkpt><trkpt lon="5.92326" lat="51.169267"><ele>11</ele><time>2022-05-08T06:43:28.000Z</time></trkpt><trkpt lon="5.923167" lat="51.16928"><ele>11.2</ele><time>2022-05-08T06:43:29.000Z</time></trkpt><trkpt lon="5.923075" lat="51.169291"><ele>11.2</ele><time>2022-05-08T06:43:30.000Z</time></trkpt><trkpt lon="5.922984" lat="51.169298"><ele>11.2</ele><time>2022-05-08T06:43:31.000Z</time></trkpt><trkpt lon="5.922893" lat="51.169296"><ele>11.2</ele><time>2022-05-08T06:43:32.000Z</time></trkpt><trkpt lon="5.922804" lat="51.169281"><ele>11.4</ele><time>2022-05-08T06:43:33.000Z</time></trkpt><trkpt lon="5.922719" lat="51.169256"><ele>11.6</ele><time>2022-05-08T06:43:34.000Z</time></trkpt><trkpt lon="5.922644" lat="51.169223"><ele>11.8</ele><time>2022-05-08T06:43:35.000Z</time></trkpt><trkpt lon="5.92258" lat="51.169184"><ele>11.8</ele><time>2022-05-08T06:43:36.000Z</time></trkpt><trkpt lon="5.92253" lat="51.16914"><ele>12</ele><time>2022-05-08T06:43:37.000Z</time></trkpt><trkpt lon="5.922504" lat="51.169092"><ele>12.2</ele><time>2022-05-08T06:43:38.000Z</time></trkpt><trkpt lon="5.922496" lat="51.169045"><ele>12.2</ele><time>2022-05-08T06:43:39.000Z</time></trkpt><trkpt lon="5.922494" lat="51.169003"><ele>12.4</ele><time>2022-05-08T06:43:40.000Z</time></trkpt><trkpt lon="5.922505" lat="51.168967"><ele>12.6</ele><time>2022-05-08T06:43:41.000Z</time></trkpt><trkpt lon="5.922535" lat="51.16894"><ele>12.6</ele><time>2022-05-08T06:43:42.000Z</time></trkpt><trkpt lon="5.922566" lat="51.168917"><ele>12.8</ele><time>2022-05-08T06:43:43.000Z</time></trkpt><trkpt lon="5.922582" lat="51.168889"><ele>12.8</ele><time>2022-05-08T06:43:44.000Z</time></trkpt><trkpt lon="5.922583" lat="51.168857"><ele>13</ele><time>2022-05-08T06:43:45.000Z</time></trkpt><trkpt lon="5.922577" lat="51.16882"><ele>13</ele><time>2022-05-08T06:43:46.000Z</time></trkpt><trkpt lon="5.92257" lat="51.168778"><ele>13.2</ele><time>2022-05-08T06:43:47.000Z</time></trkpt><trkpt lon="5.922563" lat="51.168729"><ele>13.2</ele><time>2022-05-08T06:43:48.000Z</time></trkpt><trkpt lon="5.922557" lat="51.168678"><ele>13.2</ele><time>2022-05-08T06:43:49.000Z</time></trkpt><trkpt lon="5.922552" lat="51.168622"><ele>13.2</ele><time>2022-05-08T06:43:50.000Z</time></trkpt><trkpt lon="5.922547" lat="51.168561"><ele>13.2</ele><time>2022-05-08T06:43:51.000Z</time></trkpt><trkpt lon="5.922544" lat="51.168496"><ele>13.2</ele><time>2022-05-08T06:43:52.000Z</time></trkpt><trkpt lon="5.922542" lat="51.168431"><ele>13.4</ele><time>2022-05-08T06:43:53.000Z</time></trkpt><trkpt lon="5.922537" lat="51.168369"><ele>13.4</ele><time>2022-05-08T06:43:54.000Z</time></trkpt><trkpt lon="5.922529" lat="51.168307"><ele>13.2</ele><time>2022-05-08T06:43:55.000Z</time></trkpt><trkpt lon="5.922519" lat="51.168239"><ele>13.2</ele><time>2022-05-08T06:43:56.000Z</time></trkpt><trkpt lon="5.922509" lat="51.168167"><ele>13.2</ele><time>2022-05-08T06:43:57.000Z</time></trkpt><trkpt lon="5.922504" lat="51.168096"><ele>13.2</ele><time>2022-05-08T06:43:58.000Z</time></trkpt><trkpt lon="5.922502" lat="51.168026"><ele>13</ele><time>2022-05-08T06:43:59.000Z</time></trkpt><trkpt lon="5.922499" lat="51.167956"><ele>13</ele><time>2022-05-08T06:44:00.000Z</time></trkpt><trkpt lon="5.922496" lat="51.167889"><ele>13.2</ele><time>2022-05-08T06:44:01.000Z</time></trkpt><trkpt lon="5.922496" lat="51.167831"><ele>13.2</ele><time>2022-05-08T06:44:02.000Z</time></trkpt><trkpt lon="5.922501" lat="51.167777"><ele>13.2</ele><time>2022-05-08T06:44:03.000Z</time></trkpt><trkpt lon="5.922504" lat="51.167726"><ele>13.2</ele><time>2022-05-08T06:44:04.000Z</time></trkpt><trkpt lon="5.922512" lat="51.167681"><ele>13.2</ele><time>2022-05-08T06:44:05.000Z</time></trkpt><trkpt lon="5.922529" lat="51.167644"><ele>13.2</ele><time>2022-05-08T06:44:06.000Z</time></trkpt><trkpt lon="5.922561" lat="51.167609"><ele>13.2</ele><time>2022-05-08T06:44:07.000Z</time></trkpt><trkpt lon="5.922609" lat="51.167582"><ele>13.2</ele><time>2022-05-08T06:44:08.000Z</time></trkpt><trkpt lon="5.922672" lat="51.167561"><ele>13.2</ele><time>2022-05-08T06:44:09.000Z</time></trkpt><trkpt lon="5.922746" lat="51.167549"><ele>13.2</ele><time>2022-05-08T06:44:10.000Z</time></trkpt><trkpt lon="5.922821" lat="51.167539"><ele>13.2</ele><time>2022-05-08T06:44:11.000Z</time></trkpt><trkpt lon="5.922892" lat="51.167523"><ele>13</ele><time>2022-05-08T06:44:12.000Z</time></trkpt><trkpt lon="5.922953" lat="51.167495"><ele>13</ele><time>2022-05-08T06:44:13.000Z</time></trkpt><trkpt lon="5.922991" lat="51.167448"><ele>12.8</ele><time>2022-05-08T06:44:14.000Z</time></trkpt><trkpt lon="5.923004" lat="51.167389"><ele>12.8</ele><time>2022-05-08T06:44:15.000Z</time></trkpt><trkpt lon="5.923009" lat="51.167327"><ele>12.8</ele><time>2022-05-08T06:44:16.000Z</time></trkpt><trkpt lon="5.92301" lat="51.167262"><ele>12.6</ele><time>2022-05-08T06:44:17.000Z</time></trkpt><trkpt lon="5.923008" lat="51.167195"><ele>12.6</ele><time>2022-05-08T06:44:18.000Z</time></trkpt><trkpt lon="5.923005" lat="51.16713"><ele>12.6</ele><time>2022-05-08T06:44:19.000Z</time></trkpt><trkpt lon="5.922998" lat="51.167067"><ele>12.6</ele><time>2022-05-08T06:44:20.000Z</time></trkpt><trkpt lon="5.922982" lat="51.167009"><ele>12.6</ele><time>2022-05-08T06:44:21.000Z</time></trkpt><trkpt lon="5.922948" lat="51.166956"><ele>12.4</ele><time>2022-05-08T06:44:22.000Z</time></trkpt><trkpt lon="5.922891" lat="51.166917"><ele>12.2</ele><time>2022-05-08T06:44:23.000Z</time></trkpt><trkpt lon="5.922811" lat="51.166893"><ele>12</ele><time>2022-05-08T06:44:24.000Z</time></trkpt><trkpt lon="5.922712" lat="51.166883"><ele>11.8</ele><time>2022-05-08T06:44:25.000Z</time></trkpt><trkpt lon="5.922606" lat="51.166879"><ele>11.4</ele><time>2022-05-08T06:44:26.000Z</time></trkpt><trkpt lon="5.9225" lat="51.166876"><ele>11.2</ele><time>2022-05-08T06:44:27.000Z</time></trkpt><trkpt lon="5.922403" lat="51.16687"><ele>10.8</ele><time>2022-05-08T06:44:28.000Z</time></trkpt><trkpt lon="5.922313" lat="51.166857"><ele>10.6</ele><time>2022-05-08T06:44:29.000Z</time></trkpt><trkpt lon="5.922232" lat="51.166842"><ele>10.2</ele><time>2022-05-08T06:44:30.000Z</time></trkpt><trkpt lon="5.922168" lat="51.166821"><ele>10.2</ele><time>2022-05-08T06:44:31.000Z</time></trkpt><trkpt lon="5.922121" lat="51.16679"><ele>10</ele><time>2022-05-08T06:44:32.000Z</time></trkpt><trkpt lon="5.922088" lat="51.166753"><ele>9.8</ele><time>2022-05-08T06:44:33.000Z</time></trkpt><trkpt lon="5.922069" lat="51.166716"><ele>9.8</ele><time>2022-05-08T06:44:34.000Z</time></trkpt><trkpt lon="5.922064" lat="51.166675"><ele>9.8</ele><time>2022-05-08T06:44:35.000Z</time></trkpt><trkpt lon="5.92208" lat="51.166632"><ele>9.8</ele><time>2022-05-08T06:44:36.000Z</time></trkpt><trkpt lon="5.922121" lat="51.166595"><ele>9.8</ele><time>2022-05-08T06:44:37.000Z</time></trkpt><trkpt lon="5.922185" lat="51.166565"><ele>9.8</ele><time>2022-05-08T06:44:38.000Z</time></trkpt><trkpt lon="5.922257" lat="51.166536"><ele>9.8</ele><time>2022-05-08T06:44:39.000Z</time></trkpt><trkpt lon="5.922321" lat="51.166501"><ele>9.8</ele><time>2022-05-08T06:44:40.000Z</time></trkpt><trkpt lon="5.922361" lat="51.166454"><ele>9.8</ele><time>2022-05-08T06:44:41.000Z</time></trkpt><trkpt lon="5.922373" lat="51.166396"><ele>9.6</ele><time>2022-05-08T06:44:42.000Z</time></trkpt><trkpt lon="5.922366" lat="51.166335"><ele>9.6</ele><time>2022-05-08T06:44:43.000Z</time></trkpt><trkpt lon="5.92235" lat="51.16627"><ele>9.6</ele><time>2022-05-08T06:44:44.000Z</time></trkpt><trkpt lon="5.922335" lat="51.166203"><ele>9.6</ele><time>2022-05-08T06:44:45.000Z</time></trkpt><trkpt lon="5.922326" lat="51.166138"><ele>9.4</ele><time>2022-05-08T06:44:46.000Z</time></trkpt><trkpt lon="5.922322" lat="51.166073"><ele>9.4</ele><time>2022-05-08T06:44:47.000Z</time></trkpt><trkpt lon="5.922324" lat="51.166009"><ele>9.4</ele><time>2022-05-08T06:44:48.000Z</time></trkpt><trkpt lon="5.922332" lat="51.165944"><ele>9.2</ele><time>2022-05-08T06:44:49.000Z</time></trkpt><trkpt lon="5.922346" lat="51.165883"><ele>9.4</ele><time>2022-05-08T06:44:50.000Z</time></trkpt><trkpt lon="5.922367" lat="51.165827"><ele>9.2</ele><time>2022-05-08T06:44:51.000Z</time></trkpt><trkpt lon="5.922396" lat="51.165769"><ele>9.2</ele><time>2022-05-08T06:44:52.000Z</time></trkpt><trkpt lon="5.922429" lat="51.16571"><ele>9.2</ele><time>2022-05-08T06:44:53.000Z</time></trkpt><trkpt lon="5.922465" lat="51.165651"><ele>9</ele><time>2022-05-08T06:44:54.000Z</time></trkpt><trkpt lon="5.9225" lat="51.165593"><ele>9</ele><time>2022-05-08T06:44:55.000Z</time></trkpt><trkpt lon="5.922533" lat="51.165535"><ele>9</ele><time>2022-05-08T06:44:56.000Z</time></trkpt><trkpt lon="5.922555" lat="51.165471"><ele>9.2</ele><time>2022-05-08T06:44:57.000Z</time></trkpt><trkpt lon="5.922564" lat="51.165408"><ele>9.4</ele><time>2022-05-08T06:44:58.000Z</time></trkpt><trkpt lon="5.922562" lat="51.165345"><ele>9.2</ele><time>2022-05-08T06:44:59.000Z</time></trkpt><trkpt lon="5.922551" lat="51.165281"><ele>9.2</ele><time>2022-05-08T06:45:00.000Z</time></trkpt><trkpt lon="5.922529" lat="51.165218"><ele>9.2</ele><time>2022-05-08T06:45:01.000Z</time></trkpt><trkpt lon="5.922501" lat="51.165156"><ele>9.2</ele><time>2022-05-08T06:45:02.000Z</time></trkpt><trkpt lon="5.92247" lat="51.165096"><ele>9.2</ele><time>2022-05-08T06:45:03.000Z</time></trkpt><trkpt lon="5.922436" lat="51.165035"><ele>9.2</ele><time>2022-05-08T06:45:04.000Z</time></trkpt><trkpt lon="5.922402" lat="51.164975"><ele>9.2</ele><time>2022-05-08T06:45:05.000Z</time></trkpt><trkpt lon="5.92237" lat="51.164913"><ele>9.4</ele><time>2022-05-08T06:45:06.000Z</time></trkpt><trkpt lon="5.922339" lat="51.164853"><ele>9.4</ele><time>2022-05-08T06:45:07.000Z</time></trkpt><trkpt lon="5.922309" lat="51.164794"><ele>9.4</ele><time>2022-05-08T06:45:08.000Z</time></trkpt><trkpt lon="5.922276" lat="51.164733"><ele>9.4</ele><time>2022-05-08T06:45:09.000Z</time></trkpt><trkpt lon="5.922244" lat="51.164673"><ele>9.4</ele><time>2022-05-08T06:45:10.000Z</time></trkpt><trkpt lon="5.922213" lat="51.164614"><ele>9.4</ele><time>2022-05-08T06:45:11.000Z</time></trkpt><trkpt lon="5.922183" lat="51.164554"><ele>9.4</ele><time>2022-05-08T06:45:12.000Z</time></trkpt><trkpt lon="5.922153" lat="51.164493"><ele>9.4</ele><time>2022-05-08T06:45:13.000Z</time></trkpt><trkpt lon="5.922125" lat="51.164432"><ele>9.4</ele><time>2022-05-08T06:45:14.000Z</time></trkpt><trkpt lon="5.922098" lat="51.16437"><ele>9.4</ele><time>2022-05-08T06:45:15.000Z</time></trkpt><trkpt lon="5.922072" lat="51.164312"><ele>9.4</ele><time>2022-05-08T06:45:16.000Z</time></trkpt><trkpt lon="5.922046" lat="51.164252"><ele>9.2</ele><time>2022-05-08T06:45:17.000Z</time></trkpt><trkpt lon="5.92202" lat="51.164192"><ele>9.2</ele><time>2022-05-08T06:45:18.000Z</time></trkpt><trkpt lon="5.921995" lat="51.164131"><ele>9.4</ele><time>2022-05-08T06:45:19.000Z</time></trkpt><trkpt lon="5.921969" lat="51.16407"><ele>9.4</ele><time>2022-05-08T06:45:20.000Z</time></trkpt><trkpt lon="5.921941" lat="51.16401"><ele>9.4</ele><time>2022-05-08T06:45:21.000Z</time></trkpt><trkpt lon="5.921916" lat="51.163949"><ele>9.4</ele><time>2022-05-08T06:45:22.000Z</time></trkpt><trkpt lon="5.921892" lat="51.163884"><ele>9.4</ele><time>2022-05-08T06:45:23.000Z</time></trkpt><trkpt lon="5.921868" lat="51.163819"><ele>9.2</ele><time>2022-05-08T06:45:24.000Z</time></trkpt><trkpt lon="5.921849" lat="51.163754"><ele>9.2</ele><time>2022-05-08T06:45:25.000Z</time></trkpt><trkpt lon="5.921832" lat="51.163689"><ele>9.2</ele><time>2022-05-08T06:45:26.000Z</time></trkpt><trkpt lon="5.921815" lat="51.163623"><ele>9.2</ele><time>2022-05-08T06:45:27.000Z</time></trkpt><trkpt lon="5.921798" lat="51.163556"><ele>9.2</ele><time>2022-05-08T06:45:28.000Z</time></trkpt><trkpt lon="5.921786" lat="51.163488"><ele>9.2</ele><time>2022-05-08T06:45:29.000Z</time></trkpt><trkpt lon="5.921777" lat="51.163422"><ele>9.2</ele><time>2022-05-08T06:45:30.000Z</time></trkpt><trkpt lon="5.921771" lat="51.163358"><ele>9.2</ele><time>2022-05-08T06:45:31.000Z</time></trkpt><trkpt lon="5.921767" lat="51.163289"><ele>9.2</ele><time>2022-05-08T06:45:32.000Z</time></trkpt><trkpt lon="5.921766" lat="51.163218"><ele>9.2</ele><time>2022-05-08T06:45:33.000Z</time></trkpt><trkpt lon="5.921762" lat="51.163147"><ele>9.2</ele><time>2022-05-08T06:45:34.000Z</time></trkpt><trkpt lon="5.921758" lat="51.163078"><ele>9.2</ele><time>2022-05-08T06:45:35.000Z</time></trkpt><trkpt lon="5.921755" lat="51.163009"><ele>9</ele><time>2022-05-08T06:45:36.000Z</time></trkpt><trkpt lon="5.921752" lat="51.162939"><ele>9</ele><time>2022-05-08T06:45:37.000Z</time></trkpt><trkpt lon="5.921753" lat="51.162871"><ele>9</ele><time>2022-05-08T06:45:38.000Z</time></trkpt><trkpt lon="5.921755" lat="51.162803"><ele>9</ele><time>2022-05-08T06:45:39.000Z</time></trkpt><trkpt lon="5.921756" lat="51.162736"><ele>9</ele><time>2022-05-08T06:45:40.000Z</time></trkpt><trkpt lon="5.921758" lat="51.162669"><ele>9.2</ele><time>2022-05-08T06:45:41.000Z</time></trkpt><trkpt lon="5.921758" lat="51.162603"><ele>9.2</ele><time>2022-05-08T06:45:42.000Z</time></trkpt><trkpt lon="5.921754" lat="51.162545"><ele>9.2</ele><time>2022-05-08T06:45:43.000Z</time></trkpt><trkpt lon="5.921748" lat="51.162489"><ele>9.2</ele><time>2022-05-08T06:45:44.000Z</time></trkpt><trkpt lon="5.92174" lat="51.162431"><ele>9.2</ele><time>2022-05-08T06:45:45.000Z</time></trkpt><trkpt lon="5.921734" lat="51.162367"><ele>9.2</ele><time>2022-05-08T06:45:46.000Z</time></trkpt><trkpt lon="5.92173" lat="51.162299"><ele>9.2</ele><time>2022-05-08T06:45:47.000Z</time></trkpt><trkpt lon="5.921724" lat="51.16223"><ele>9.4</ele><time>2022-05-08T06:45:48.000Z</time></trkpt><trkpt lon="5.921719" lat="51.162161"><ele>9.4</ele><time>2022-05-08T06:45:49.000Z</time></trkpt><trkpt lon="5.921713" lat="51.162093"><ele>9.6</ele><time>2022-05-08T06:45:50.000Z</time></trkpt><trkpt lon="5.921704" lat="51.162027"><ele>9.6</ele><time>2022-05-08T06:45:51.000Z</time></trkpt><trkpt lon="5.921694" lat="51.161962"><ele>9.8</ele><time>2022-05-08T06:45:52.000Z</time></trkpt><trkpt lon="5.921683" lat="51.161892"><ele>9.8</ele><time>2022-05-08T06:45:53.000Z</time></trkpt><trkpt lon="5.921673" lat="51.16182"><ele>9.8</ele><time>2022-05-08T06:45:54.000Z</time></trkpt><trkpt lon="5.921665" lat="51.161749"><ele>9.8</ele><time>2022-05-08T06:45:55.000Z</time></trkpt><trkpt lon="5.921663" lat="51.161679"><ele>9.8</ele><time>2022-05-08T06:45:56.000Z</time></trkpt><trkpt lon="5.921667" lat="51.161604"><ele>9.8</ele><time>2022-05-08T06:45:57.000Z</time></trkpt><trkpt lon="5.921676" lat="51.161527"><ele>9.8</ele><time>2022-05-08T06:45:58.000Z</time></trkpt><trkpt lon="5.921685" lat="51.161454"><ele>9.8</ele><time>2022-05-08T06:45:59.000Z</time></trkpt><trkpt lon="5.921698" lat="51.161376"><ele>10</ele><time>2022-05-08T06:46:00.000Z</time></trkpt><trkpt lon="5.921712" lat="51.1613"><ele>10</ele><time>2022-05-08T06:46:01.000Z</time></trkpt><trkpt lon="5.92173" lat="51.161223"><ele>10</ele><time>2022-05-08T06:46:02.000Z</time></trkpt><trkpt lon="5.921749" lat="51.161143"><ele>9.8</ele><time>2022-05-08T06:46:03.000Z</time></trkpt><trkpt lon="5.921762" lat="51.161062"><ele>9.8</ele><time>2022-05-08T06:46:04.000Z</time></trkpt><trkpt lon="5.921769" lat="51.160979"><ele>9.8</ele><time>2022-05-08T06:46:05.000Z</time></trkpt><trkpt lon="5.921775" lat="51.160894"><ele>9.8</ele><time>2022-05-08T06:46:06.000Z</time></trkpt><trkpt lon="5.921778" lat="51.160814"><ele>9.6</ele><time>2022-05-08T06:46:07.000Z</time></trkpt><trkpt lon="5.921778" lat="51.160736"><ele>9.8</ele><time>2022-05-08T06:46:08.000Z</time></trkpt><trkpt lon="5.921779" lat="51.160657"><ele>9.8</ele><time>2022-05-08T06:46:09.000Z</time></trkpt><trkpt lon="5.921782" lat="51.160582"><ele>10</ele><time>2022-05-08T06:46:10.000Z</time></trkpt><trkpt lon="5.921785" lat="51.160517"><ele>10</ele><time>2022-05-08T06:46:11.000Z</time></trkpt><trkpt lon="5.921788" lat="51.160444"><ele>9.8</ele><time>2022-05-08T06:46:12.000Z</time></trkpt><trkpt lon="5.921794" lat="51.16035"><ele>9.8</ele><time>2022-05-08T06:46:13.000Z</time></trkpt><trkpt lon="5.921805" lat="51.160272"><ele>9.6</ele><time>2022-05-08T06:46:14.000Z</time></trkpt><trkpt lon="5.921817" lat="51.160199"><ele>9.8</ele><time>2022-05-08T06:46:15.000Z</time></trkpt><trkpt lon="5.921823" lat="51.160124"><ele>9.8</ele><time>2022-05-08T06:46:16.000Z</time></trkpt><trkpt lon="5.921838" lat="51.160047"><ele>9.8</ele><time>2022-05-08T06:46:17.000Z</time></trkpt><trkpt lon="5.921859" lat="51.159971"><ele>9.6</ele><time>2022-05-08T06:46:18.000Z</time></trkpt><trkpt lon="5.921884" lat="51.159895"><ele>9.6</ele><time>2022-05-08T06:46:19.000Z</time></trkpt><trkpt lon="5.921905" lat="51.159819"><ele>9.6</ele><time>2022-05-08T06:46:20.000Z</time></trkpt><trkpt lon="5.921922" lat="51.159743"><ele>9.6</ele><time>2022-05-08T06:46:21.000Z</time></trkpt><trkpt lon="5.921936" lat="51.159664"><ele>9.6</ele><time>2022-05-08T06:46:22.000Z</time></trkpt><trkpt lon="5.921944" lat="51.159586"><ele>9.6</ele><time>2022-05-08T06:46:23.000Z</time></trkpt><trkpt lon="5.921939" lat="51.159512"><ele>9.6</ele><time>2022-05-08T06:46:24.000Z</time></trkpt><trkpt lon="5.921923" lat="51.159438"><ele>9.6</ele><time>2022-05-08T06:46:25.000Z</time></trkpt><trkpt lon="5.921892" lat="51.159363"><ele>9.6</ele><time>2022-05-08T06:46:26.000Z</time></trkpt><trkpt lon="5.921852" lat="51.159295"><ele>9.6</ele><time>2022-05-08T06:46:27.000Z</time></trkpt><trkpt lon="5.921808" lat="51.159228"><ele>9.6</ele><time>2022-05-08T06:46:28.000Z</time></trkpt><trkpt lon="5.921762" lat="51.159156"><ele>9.4</ele><time>2022-05-08T06:46:29.000Z</time></trkpt><trkpt lon="5.92172" lat="51.159087"><ele>9.4</ele><time>2022-05-08T06:46:30.000Z</time></trkpt><trkpt lon="5.921686" lat="51.159018"><ele>9.4</ele><time>2022-05-08T06:46:31.000Z</time></trkpt><trkpt lon="5.921658" lat="51.158942"><ele>9.4</ele><time>2022-05-08T06:46:32.000Z</time></trkpt><trkpt lon="5.921633" lat="51.158867"><ele>9.2</ele><time>2022-05-08T06:46:33.000Z</time></trkpt><trkpt lon="5.921614" lat="51.158792"><ele>9.2</ele><time>2022-05-08T06:46:34.000Z</time></trkpt><trkpt lon="5.921602" lat="51.158716"><ele>9.4</ele><time>2022-05-08T06:46:35.000Z</time></trkpt><trkpt lon="5.921596" lat="51.158639"><ele>9.2</ele><time>2022-05-08T06:46:36.000Z</time></trkpt><trkpt lon="5.921592" lat="51.158561"><ele>9.2</ele><time>2022-05-08T06:46:37.000Z</time></trkpt><trkpt lon="5.921587" lat="51.158484"><ele>9.4</ele><time>2022-05-08T06:46:38.000Z</time></trkpt><trkpt lon="5.921584" lat="51.158406"><ele>9.2</ele><time>2022-05-08T06:46:39.000Z</time></trkpt><trkpt lon="5.921583" lat="51.158325"><ele>9.2</ele><time>2022-05-08T06:46:40.000Z</time></trkpt><trkpt lon="5.921582" lat="51.158248"><ele>9.2</ele><time>2022-05-08T06:46:41.000Z</time></trkpt><trkpt lon="5.921586" lat="51.158171"><ele>9.2</ele><time>2022-05-08T06:46:42.000Z</time></trkpt><trkpt lon="5.921597" lat="51.158097"><ele>9.4</ele><time>2022-05-08T06:46:43.000Z</time></trkpt><trkpt lon="5.921617" lat="51.158023"><ele>9.4</ele><time>2022-05-08T06:46:44.000Z</time></trkpt><trkpt lon="5.921646" lat="51.157948"><ele>9.6</ele><time>2022-05-08T06:46:45.000Z</time></trkpt><trkpt lon="5.921682" lat="51.15788"><ele>9.6</ele><time>2022-05-08T06:46:46.000Z</time></trkpt><trkpt lon="5.921725" lat="51.157817"><ele>9.8</ele><time>2022-05-08T06:46:47.000Z</time></trkpt><trkpt lon="5.921779" lat="51.157756"><ele>9.8</ele><time>2022-05-08T06:46:48.000Z</time></trkpt><trkpt lon="5.92184" lat="51.157693"><ele>10</ele><time>2022-05-08T06:46:49.000Z</time></trkpt><trkpt lon="5.921898" lat="51.157632"><ele>10</ele><time>2022-05-08T06:46:50.000Z</time></trkpt><trkpt lon="5.921955" lat="51.157576"><ele>10</ele><time>2022-05-08T06:46:51.000Z</time></trkpt><trkpt lon="5.922015" lat="51.157521"><ele>10</ele><time>2022-05-08T06:46:52.000Z</time></trkpt><trkpt lon="5.922077" lat="51.157465"><ele>10</ele><time>2022-05-08T06:46:53.000Z</time></trkpt><trkpt lon="5.92214" lat="51.157412"><ele>10</ele><time>2022-05-08T06:46:54.000Z</time></trkpt><trkpt lon="5.922201" lat="51.157362"><ele>10</ele><time>2022-05-08T06:46:55.000Z</time></trkpt><trkpt lon="5.922256" lat="51.157314"><ele>10.2</ele><time>2022-05-08T06:46:56.000Z</time></trkpt><trkpt lon="5.92231" lat="51.157271"><ele>10.2</ele><time>2022-05-08T06:46:57.000Z</time></trkpt><trkpt lon="5.922366" lat="51.157233"><ele>10.2</ele><time>2022-05-08T06:46:58.000Z</time></trkpt><trkpt lon="5.922426" lat="51.157195"><ele>10.2</ele><time>2022-05-08T06:46:59.000Z</time></trkpt><trkpt lon="5.922498" lat="51.157153"><ele>10.2</ele><time>2022-05-08T06:47:00.000Z</time></trkpt><trkpt lon="5.922574" lat="51.157114"><ele>10.2</ele><time>2022-05-08T06:47:01.000Z</time></trkpt><trkpt lon="5.922654" lat="51.157077"><ele>10.2</ele><time>2022-05-08T06:47:02.000Z</time></trkpt><trkpt lon="5.922741" lat="51.157042"><ele>10.4</ele><time>2022-05-08T06:47:03.000Z</time></trkpt><trkpt lon="5.922833" lat="51.157011"><ele>10.4</ele><time>2022-05-08T06:47:04.000Z</time></trkpt><trkpt lon="5.922933" lat="51.15698"><ele>10.6</ele><time>2022-05-08T06:47:05.000Z</time></trkpt><trkpt lon="5.923037" lat="51.15695"><ele>10.6</ele><time>2022-05-08T06:47:06.000Z</time></trkpt><trkpt lon="5.923139" lat="51.156917"><ele>10.6</ele><time>2022-05-08T06:47:07.000Z</time></trkpt><trkpt lon="5.923249" lat="51.156885"><ele>10.8</ele><time>2022-05-08T06:47:08.000Z</time></trkpt><trkpt lon="5.923374" lat="51.156848"><ele>10.8</ele><time>2022-05-08T06:47:09.000Z</time></trkpt><trkpt lon="5.923498" lat="51.156812"><ele>11</ele><time>2022-05-08T06:47:10.000Z</time></trkpt><trkpt lon="5.92362" lat="51.156787"><ele>11</ele><time>2022-05-08T06:47:11.000Z</time></trkpt><trkpt lon="5.923747" lat="51.156764"><ele>11</ele><time>2022-05-08T06:47:12.000Z</time></trkpt><trkpt lon="5.92387" lat="51.156745"><ele>11</ele><time>2022-05-08T06:47:13.000Z</time></trkpt><trkpt lon="5.923987" lat="51.156727"><ele>10.8</ele><time>2022-05-08T06:47:14.000Z</time></trkpt><trkpt lon="5.924105" lat="51.156708"><ele>10.8</ele><time>2022-05-08T06:47:15.000Z</time></trkpt><trkpt lon="5.924225" lat="51.156689"><ele>10.6</ele><time>2022-05-08T06:47:16.000Z</time></trkpt><trkpt lon="5.924348" lat="51.15667"><ele>10.4</ele><time>2022-05-08T06:47:17.000Z</time></trkpt><trkpt lon="5.924473" lat="51.156651"><ele>10.4</ele><time>2022-05-08T06:47:18.000Z</time></trkpt><trkpt lon="5.924594" lat="51.15663"><ele>10.4</ele><time>2022-05-08T06:47:19.000Z</time></trkpt><trkpt lon="5.924714" lat="51.156609"><ele>10.4</ele><time>2022-05-08T06:47:20.000Z</time></trkpt><trkpt lon="5.924829" lat="51.15659"><ele>10.2</ele><time>2022-05-08T06:47:21.000Z</time></trkpt><trkpt lon="5.924942" lat="51.156573"><ele>10.2</ele><time>2022-05-08T06:47:22.000Z</time></trkpt><trkpt lon="5.925053" lat="51.156556"><ele>10.2</ele><time>2022-05-08T06:47:23.000Z</time></trkpt><trkpt lon="5.925166" lat="51.156537"><ele>10.2</ele><time>2022-05-08T06:47:24.000Z</time></trkpt><trkpt lon="5.925283" lat="51.15652"><ele>10.2</ele><time>2022-05-08T06:47:25.000Z</time></trkpt><trkpt lon="5.9254" lat="51.156504"><ele>10.2</ele><time>2022-05-08T06:47:26.000Z</time></trkpt><trkpt lon="5.925519" lat="51.156489"><ele>10.2</ele><time>2022-05-08T06:47:27.000Z</time></trkpt><trkpt lon="5.925637" lat="51.156476"><ele>10</ele><time>2022-05-08T06:47:28.000Z</time></trkpt><trkpt lon="5.925753" lat="51.15646"><ele>10</ele><time>2022-05-08T06:47:29.000Z</time></trkpt><trkpt lon="5.925868" lat="51.156446"><ele>9.8</ele><time>2022-05-08T06:47:30.000Z</time></trkpt><trkpt lon="5.925981" lat="51.156432"><ele>9.6</ele><time>2022-05-08T06:47:31.000Z</time></trkpt><trkpt lon="5.926097" lat="51.156419"><ele>9.6</ele><time>2022-05-08T06:47:32.000Z</time></trkpt><trkpt lon="5.926214" lat="51.156407"><ele>9.6</ele><time>2022-05-08T06:47:33.000Z</time></trkpt><trkpt lon="5.926326" lat="51.156398"><ele>9.6</ele><time>2022-05-08T06:47:34.000Z</time></trkpt><trkpt lon="5.92643" lat="51.156389"><ele>9.6</ele><time>2022-05-08T06:47:35.000Z</time></trkpt><trkpt lon="5.926547" lat="51.15638"><ele>9.6</ele><time>2022-05-08T06:47:36.000Z</time></trkpt><trkpt lon="5.926674" lat="51.156372"><ele>9.6</ele><time>2022-05-08T06:47:37.000Z</time></trkpt><trkpt lon="5.926788" lat="51.156366"><ele>9.8</ele><time>2022-05-08T06:47:38.000Z</time></trkpt><trkpt lon="5.926899" lat="51.15636"><ele>9.6</ele><time>2022-05-08T06:47:39.000Z</time></trkpt><trkpt lon="5.927013" lat="51.156355"><ele>9.8</ele><time>2022-05-08T06:47:40.000Z</time></trkpt><trkpt lon="5.927125" lat="51.156349"><ele>9.8</ele><time>2022-05-08T06:47:41.000Z</time></trkpt><trkpt lon="5.92724" lat="51.156343"><ele>9.8</ele><time>2022-05-08T06:47:42.000Z</time></trkpt><trkpt lon="5.927355" lat="51.156337"><ele>9.8</ele><time>2022-05-08T06:47:43.000Z</time></trkpt><trkpt lon="5.927473" lat="51.156332"><ele>10</ele><time>2022-05-08T06:47:44.000Z</time></trkpt><trkpt lon="5.927592" lat="51.156328"><ele>10</ele><time>2022-05-08T06:47:45.000Z</time></trkpt><trkpt lon="5.927707" lat="51.156326"><ele>10</ele><time>2022-05-08T06:47:46.000Z</time></trkpt><trkpt lon="5.927826" lat="51.156324"><ele>10</ele><time>2022-05-08T06:47:47.000Z</time></trkpt><trkpt lon="5.927949" lat="51.15632"><ele>10</ele><time>2022-05-08T06:47:48.000Z</time></trkpt><trkpt lon="5.928074" lat="51.156316"><ele>9.8</ele><time>2022-05-08T06:47:49.000Z</time></trkpt><trkpt lon="5.928195" lat="51.156315"><ele>9.8</ele><time>2022-05-08T06:47:50.000Z</time></trkpt><trkpt lon="5.928311" lat="51.156313"><ele>9.8</ele><time>2022-05-08T06:47:51.000Z</time></trkpt><trkpt lon="5.928429" lat="51.156313"><ele>9.8</ele><time>2022-05-08T06:47:52.000Z</time></trkpt><trkpt lon="5.928548" lat="51.156319"><ele>9.6</ele><time>2022-05-08T06:47:53.000Z</time></trkpt><trkpt lon="5.928658" lat="51.156327"><ele>9.4</ele><time>2022-05-08T06:47:54.000Z</time></trkpt><trkpt lon="5.928768" lat="51.156332"><ele>9.2</ele><time>2022-05-08T06:47:55.000Z</time></trkpt><trkpt lon="5.928884" lat="51.156338"><ele>9.2</ele><time>2022-05-08T06:47:56.000Z</time></trkpt><trkpt lon="5.928999" lat="51.156344"><ele>9.4</ele><time>2022-05-08T06:47:57.000Z</time></trkpt><trkpt lon="5.929112" lat="51.156352"><ele>9.4</ele><time>2022-05-08T06:47:58.000Z</time></trkpt><trkpt lon="5.929219" lat="51.156363"><ele>9.4</ele><time>2022-05-08T06:47:59.000Z</time></trkpt><trkpt lon="5.929317" lat="51.156379"><ele>9.4</ele><time>2022-05-08T06:48:00.000Z</time></trkpt><trkpt lon="5.929404" lat="51.1564"><ele>9.4</ele><time>2022-05-08T06:48:01.000Z</time></trkpt><trkpt lon="5.92949" lat="51.156421"><ele>9.4</ele><time>2022-05-08T06:48:02.000Z</time></trkpt><trkpt lon="5.92958" lat="51.15644"><ele>9.4</ele><time>2022-05-08T06:48:03.000Z</time></trkpt><trkpt lon="5.929676" lat="51.156459"><ele>9.2</ele><time>2022-05-08T06:48:04.000Z</time></trkpt><trkpt lon="5.929767" lat="51.156477"><ele>9.4</ele><time>2022-05-08T06:48:05.000Z</time></trkpt><trkpt lon="5.929866" lat="51.156496"><ele>9.4</ele><time>2022-05-08T06:48:06.000Z</time></trkpt><trkpt lon="5.929972" lat="51.156515"><ele>9.2</ele><time>2022-05-08T06:48:07.000Z</time></trkpt><trkpt lon="5.930072" lat="51.15653"><ele>9.2</ele><time>2022-05-08T06:48:08.000Z</time></trkpt><trkpt lon="5.930175" lat="51.156547"><ele>9.2</ele><time>2022-05-08T06:48:09.000Z</time></trkpt><trkpt lon="5.930274" lat="51.156564"><ele>9</ele><time>2022-05-08T06:48:10.000Z</time></trkpt><trkpt lon="5.930368" lat="51.156579"><ele>9</ele><time>2022-05-08T06:48:11.000Z</time></trkpt><trkpt lon="5.930462" lat="51.156592"><ele>8.8</ele><time>2022-05-08T06:48:12.000Z</time></trkpt><trkpt lon="5.930557" lat="51.156606"><ele>8.8</ele><time>2022-05-08T06:48:13.000Z</time></trkpt><trkpt lon="5.930647" lat="51.156621"><ele>8.8</ele><time>2022-05-08T06:48:14.000Z</time></trkpt><trkpt lon="5.930734" lat="51.156638"><ele>9</ele><time>2022-05-08T06:48:15.000Z</time></trkpt><trkpt lon="5.930829" lat="51.156653"><ele>9</ele><time>2022-05-08T06:48:16.000Z</time></trkpt><trkpt lon="5.930919" lat="51.156667"><ele>8.8</ele><time>2022-05-08T06:48:17.000Z</time></trkpt><trkpt lon="5.931003" lat="51.156682"><ele>8.8</ele><time>2022-05-08T06:48:18.000Z</time></trkpt><trkpt lon="5.931097" lat="51.156695"><ele>8.8</ele><time>2022-05-08T06:48:19.000Z</time></trkpt><trkpt lon="5.931196" lat="51.156706"><ele>8.8</ele><time>2022-05-08T06:48:20.000Z</time></trkpt><trkpt lon="5.931289" lat="51.156718"><ele>8.8</ele><time>2022-05-08T06:48:21.000Z</time></trkpt><trkpt lon="5.93139" lat="51.156727"><ele>8.8</ele><time>2022-05-08T06:48:22.000Z</time></trkpt><trkpt lon="5.931501" lat="51.156737"><ele>8.8</ele><time>2022-05-08T06:48:23.000Z</time></trkpt><trkpt lon="5.931612" lat="51.156751"><ele>8.8</ele><time>2022-05-08T06:48:24.000Z</time></trkpt><trkpt lon="5.931721" lat="51.156766"><ele>8.8</ele><time>2022-05-08T06:48:25.000Z</time></trkpt><trkpt lon="5.931832" lat="51.156777"><ele>9</ele><time>2022-05-08T06:48:26.000Z</time></trkpt><trkpt lon="5.931952" lat="51.156787"><ele>9.2</ele><time>2022-05-08T06:48:27.000Z</time></trkpt><trkpt lon="5.932068" lat="51.156803"><ele>9.4</ele><time>2022-05-08T06:48:28.000Z</time></trkpt><trkpt lon="5.932176" lat="51.156819"><ele>9.4</ele><time>2022-05-08T06:48:29.000Z</time></trkpt><trkpt lon="5.93229" lat="51.156832"><ele>9.4</ele><time>2022-05-08T06:48:30.000Z</time></trkpt><trkpt lon="5.932408" lat="51.156852"><ele>9.6</ele><time>2022-05-08T06:48:31.000Z</time></trkpt><trkpt lon="5.932533" lat="51.156873"><ele>9.4</ele><time>2022-05-08T06:48:32.000Z</time></trkpt><trkpt lon="5.932658" lat="51.156893"><ele>9.4</ele><time>2022-05-08T06:48:33.000Z</time></trkpt><trkpt lon="5.93278" lat="51.156916"><ele>9.2</ele><time>2022-05-08T06:48:34.000Z</time></trkpt><trkpt lon="5.932895" lat="51.156936"><ele>9.2</ele><time>2022-05-08T06:48:35.000Z</time></trkpt><trkpt lon="5.933007" lat="51.156957"><ele>9.2</ele><time>2022-05-08T06:48:36.000Z</time></trkpt><trkpt lon="5.933127" lat="51.15698"><ele>9.2</ele><time>2022-05-08T06:48:37.000Z</time></trkpt><trkpt lon="5.933245" lat="51.157001"><ele>9.4</ele><time>2022-05-08T06:48:38.000Z</time></trkpt><trkpt lon="5.933355" lat="51.15702"><ele>9.4</ele><time>2022-05-08T06:48:39.000Z</time></trkpt><trkpt lon="5.933464" lat="51.157039"><ele>9.4</ele><time>2022-05-08T06:48:40.000Z</time></trkpt><trkpt lon="5.933569" lat="51.157058"><ele>9.4</ele><time>2022-05-08T06:48:41.000Z</time></trkpt><trkpt lon="5.933669" lat="51.157075"><ele>9.6</ele><time>2022-05-08T06:48:42.000Z</time></trkpt><trkpt lon="5.933767" lat="51.157092"><ele>9.6</ele><time>2022-05-08T06:48:43.000Z</time></trkpt><trkpt lon="5.933868" lat="51.157115"><ele>9.8</ele><time>2022-05-08T06:48:44.000Z</time></trkpt><trkpt lon="5.933969" lat="51.157142"><ele>9.8</ele><time>2022-05-08T06:48:45.000Z</time></trkpt><trkpt lon="5.934076" lat="51.157169"><ele>9.6</ele><time>2022-05-08T06:48:46.000Z</time></trkpt><trkpt lon="5.934184" lat="51.157196"><ele>9.6</ele><time>2022-05-08T06:48:47.000Z</time></trkpt><trkpt lon="5.934292" lat="51.157222"><ele>9.6</ele><time>2022-05-08T06:48:48.000Z</time></trkpt><trkpt lon="5.934383" lat="51.157251"><ele>9.8</ele><time>2022-05-08T06:48:49.000Z</time></trkpt><trkpt lon="5.934473" lat="51.157288"><ele>9.8</ele><time>2022-05-08T06:48:50.000Z</time></trkpt><trkpt lon="5.934558" lat="51.157327"><ele>9.8</ele><time>2022-05-08T06:48:51.000Z</time></trkpt><trkpt lon="5.934638" lat="51.157376"><ele>9.6</ele><time>2022-05-08T06:48:52.000Z</time></trkpt><trkpt lon="5.934727" lat="51.15743"><ele>9.6</ele><time>2022-05-08T06:48:53.000Z</time></trkpt><trkpt lon="5.93481" lat="51.157475"><ele>9.8</ele><time>2022-05-08T06:48:54.000Z</time></trkpt><trkpt lon="5.934898" lat="51.157515"><ele>9.8</ele><time>2022-05-08T06:48:55.000Z</time></trkpt><trkpt lon="5.93498" lat="51.157553"><ele>9.8</ele><time>2022-05-08T06:48:56.000Z</time></trkpt><trkpt lon="5.935047" lat="51.157591"><ele>9.8</ele><time>2022-05-08T06:48:57.000Z</time></trkpt><trkpt lon="5.935108" lat="51.157625"><ele>9.8</ele><time>2022-05-08T06:48:58.000Z</time></trkpt><trkpt lon="5.935171" lat="51.157651"><ele>10</ele><time>2022-05-08T06:48:59.000Z</time></trkpt><trkpt lon="5.93525" lat="51.157676"><ele>10.2</ele><time>2022-05-08T06:49:00.000Z</time></trkpt><trkpt lon="5.935353" lat="51.157701"><ele>10.4</ele><time>2022-05-08T06:49:01.000Z</time></trkpt><trkpt lon="5.935463" lat="51.15772"><ele>10.6</ele><time>2022-05-08T06:49:02.000Z</time></trkpt><trkpt lon="5.935579" lat="51.157731"><ele>10.8</ele><time>2022-05-08T06:49:03.000Z</time></trkpt><trkpt lon="5.935691" lat="51.157732"><ele>11</ele><time>2022-05-08T06:49:04.000Z</time></trkpt><trkpt lon="5.935801" lat="51.157728"><ele>11.4</ele><time>2022-05-08T06:49:05.000Z</time></trkpt><trkpt lon="5.935916" lat="51.157713"><ele>11.6</ele><time>2022-05-08T06:49:06.000Z</time></trkpt><trkpt lon="5.936026" lat="51.157686"><ele>12</ele><time>2022-05-08T06:49:07.000Z</time></trkpt><trkpt lon="5.93613" lat="51.157653"><ele>12.4</ele><time>2022-05-08T06:49:08.000Z</time></trkpt><trkpt lon="5.936232" lat="51.157619"><ele>12.6</ele><time>2022-05-08T06:49:09.000Z</time></trkpt><trkpt lon="5.936333" lat="51.157591"><ele>12.8</ele><time>2022-05-08T06:49:10.000Z</time></trkpt><trkpt lon="5.936431" lat="51.157562"><ele>13.2</ele><time>2022-05-08T06:49:11.000Z</time></trkpt><trkpt lon="5.936522" lat="51.157531"><ele>13.4</ele><time>2022-05-08T06:49:12.000Z</time></trkpt><trkpt lon="5.936612" lat="51.157502"><ele>13.8</ele><time>2022-05-08T06:49:13.000Z</time></trkpt><trkpt lon="5.936705" lat="51.157473"><ele>14</ele><time>2022-05-08T06:49:14.000Z</time></trkpt><trkpt lon="5.936793" lat="51.157438"><ele>14</ele><time>2022-05-08T06:49:15.000Z</time></trkpt><trkpt lon="5.936876" lat="51.157398"><ele>14.2</ele><time>2022-05-08T06:49:16.000Z</time></trkpt><trkpt lon="5.936957" lat="51.15736"><ele>14.2</ele><time>2022-05-08T06:49:17.000Z</time></trkpt><trkpt lon="5.937032" lat="51.157324"><ele>14.4</ele><time>2022-05-08T06:49:18.000Z</time></trkpt><trkpt lon="5.937109" lat="51.157288"><ele>14.4</ele><time>2022-05-08T06:49:19.000Z</time></trkpt><trkpt lon="5.937193" lat="51.157252"><ele>14.4</ele><time>2022-05-08T06:49:20.000Z</time></trkpt><trkpt lon="5.937276" lat="51.157214"><ele>14.6</ele><time>2022-05-08T06:49:21.000Z</time></trkpt><trkpt lon="5.937357" lat="51.157175"><ele>14.6</ele><time>2022-05-08T06:49:22.000Z</time></trkpt><trkpt lon="5.937437" lat="51.157135"><ele>14.8</ele><time>2022-05-08T06:49:23.000Z</time></trkpt><trkpt lon="5.937516" lat="51.157095"><ele>14.8</ele><time>2022-05-08T06:49:24.000Z</time></trkpt><trkpt lon="5.937594" lat="51.157053"><ele>15</ele><time>2022-05-08T06:49:25.000Z</time></trkpt><trkpt lon="5.937669" lat="51.157009"><ele>15</ele><time>2022-05-08T06:49:26.000Z</time></trkpt><trkpt lon="5.937743" lat="51.156969"><ele>15.2</ele><time>2022-05-08T06:49:27.000Z</time></trkpt><trkpt lon="5.937814" lat="51.156931"><ele>15.2</ele><time>2022-05-08T06:49:28.000Z</time></trkpt><trkpt lon="5.937876" lat="51.156897"><ele>15.4</ele><time>2022-05-08T06:49:29.000Z</time></trkpt><trkpt lon="5.937928" lat="51.156866"><ele>15.4</ele><time>2022-05-08T06:49:30.000Z</time></trkpt><trkpt lon="5.937979" lat="51.156838"><ele>15.4</ele><time>2022-05-08T06:49:31.000Z</time></trkpt><trkpt lon="5.938032" lat="51.156809"><ele>15.6</ele><time>2022-05-08T06:49:32.000Z</time></trkpt><trkpt lon="5.93809" lat="51.156779"><ele>15.6</ele><time>2022-05-08T06:49:33.000Z</time></trkpt><trkpt lon="5.938152" lat="51.156744"><ele>15.6</ele><time>2022-05-08T06:49:34.000Z</time></trkpt><trkpt lon="5.938217" lat="51.156703"><ele>15.4</ele><time>2022-05-08T06:49:35.000Z</time></trkpt><trkpt lon="5.938288" lat="51.156661"><ele>15.4</ele><time>2022-05-08T06:49:36.000Z</time></trkpt><trkpt lon="5.938362" lat="51.156615"><ele>15.2</ele><time>2022-05-08T06:49:37.000Z</time></trkpt><trkpt lon="5.938435" lat="51.156568"><ele>15.2</ele><time>2022-05-08T06:49:38.000Z</time></trkpt><trkpt lon="5.938508" lat="51.156522"><ele>15.2</ele><time>2022-05-08T06:49:39.000Z</time></trkpt><trkpt lon="5.938584" lat="51.156479"><ele>15.2</ele><time>2022-05-08T06:49:40.000Z</time></trkpt><trkpt lon="5.938663" lat="51.156438"><ele>15</ele><time>2022-05-08T06:49:41.000Z</time></trkpt><trkpt lon="5.938745" lat="51.156395"><ele>15</ele><time>2022-05-08T06:49:42.000Z</time></trkpt><trkpt lon="5.938827" lat="51.15635"><ele>14.8</ele><time>2022-05-08T06:49:43.000Z</time></trkpt><trkpt lon="5.938909" lat="51.156306"><ele>14.8</ele><time>2022-05-08T06:49:44.000Z</time></trkpt><trkpt lon="5.938989" lat="51.156262"><ele>14.8</ele><time>2022-05-08T06:49:45.000Z</time></trkpt><trkpt lon="5.939074" lat="51.156214"><ele>14.8</ele><time>2022-05-08T06:49:46.000Z</time></trkpt><trkpt lon="5.93916" lat="51.156164"><ele>14.8</ele><time>2022-05-08T06:49:47.000Z</time></trkpt><trkpt lon="5.939242" lat="51.15612"><ele>14.8</ele><time>2022-05-08T06:49:48.000Z</time></trkpt><trkpt lon="5.939321" lat="51.156079"><ele>14.8</ele><time>2022-05-08T06:49:49.000Z</time></trkpt><trkpt lon="5.939402" lat="51.156035"><ele>14.8</ele><time>2022-05-08T06:49:50.000Z</time></trkpt><trkpt lon="5.939484" lat="51.155989"><ele>14.8</ele><time>2022-05-08T06:49:51.000Z</time></trkpt><trkpt lon="5.939566" lat="51.155945"><ele>14.8</ele><time>2022-05-08T06:49:52.000Z</time></trkpt><trkpt lon="5.939652" lat="51.155903"><ele>14.6</ele><time>2022-05-08T06:49:53.000Z</time></trkpt><trkpt lon="5.93974" lat="51.15586"><ele>14.6</ele><time>2022-05-08T06:49:54.000Z</time></trkpt><trkpt lon="5.939826" lat="51.155818"><ele>14.6</ele><time>2022-05-08T06:49:55.000Z</time></trkpt><trkpt lon="5.939911" lat="51.155779"><ele>14.6</ele><time>2022-05-08T06:49:56.000Z</time></trkpt><trkpt lon="5.940001" lat="51.15574"><ele>14.6</ele><time>2022-05-08T06:49:57.000Z</time></trkpt><trkpt lon="5.940095" lat="51.155702"><ele>14.6</ele><time>2022-05-08T06:49:58.000Z</time></trkpt><trkpt lon="5.940187" lat="51.155663"><ele>14.6</ele><time>2022-05-08T06:49:59.000Z</time></trkpt><trkpt lon="5.940277" lat="51.155625"><ele>14.8</ele><time>2022-05-08T06:50:00.000Z</time></trkpt><trkpt lon="5.940367" lat="51.155589"><ele>15</ele><time>2022-05-08T06:50:01.000Z</time></trkpt><trkpt lon="5.940454" lat="51.155555"><ele>15</ele><time>2022-05-08T06:50:02.000Z</time></trkpt><trkpt lon="5.940536" lat="51.155518"><ele>15</ele><time>2022-05-08T06:50:03.000Z</time></trkpt><trkpt lon="5.94061" lat="51.155485"><ele>15</ele><time>2022-05-08T06:50:04.000Z</time></trkpt><trkpt lon="5.940673" lat="51.155456"><ele>15</ele><time>2022-05-08T06:50:05.000Z</time></trkpt><trkpt lon="5.940728" lat="51.155429"><ele>15.2</ele><time>2022-05-08T06:50:06.000Z</time></trkpt><trkpt lon="5.940781" lat="51.155403"><ele>15.2</ele><time>2022-05-08T06:50:07.000Z</time></trkpt><trkpt lon="5.940836" lat="51.155376"><ele>15.4</ele><time>2022-05-08T06:50:08.000Z</time></trkpt><trkpt lon="5.940904" lat="51.155349"><ele>15.6</ele><time>2022-05-08T06:50:09.000Z</time></trkpt><trkpt lon="5.940981" lat="51.155323"><ele>15.6</ele><time>2022-05-08T06:50:10.000Z</time></trkpt><trkpt lon="5.941065" lat="51.15529"><ele>15.4</ele><time>2022-05-08T06:50:11.000Z</time></trkpt><trkpt lon="5.941155" lat="51.155252"><ele>15.2</ele><time>2022-05-08T06:50:12.000Z</time></trkpt><trkpt lon="5.941249" lat="51.155213"><ele>15</ele><time>2022-05-08T06:50:13.000Z</time></trkpt><trkpt lon="5.941342" lat="51.155174"><ele>14.6</ele><time>2022-05-08T06:50:14.000Z</time></trkpt><trkpt lon="5.941436" lat="51.155134"><ele>14.8</ele><time>2022-05-08T06:50:15.000Z</time></trkpt><trkpt lon="5.941528" lat="51.155094"><ele>14.8</ele><time>2022-05-08T06:50:16.000Z</time></trkpt><trkpt lon="5.941621" lat="51.155053"><ele>15</ele><time>2022-05-08T06:50:17.000Z</time></trkpt><trkpt lon="5.941715" lat="51.155015"><ele>15</ele><time>2022-05-08T06:50:18.000Z</time></trkpt><trkpt lon="5.941804" lat="51.154974"><ele>15</ele><time>2022-05-08T06:50:19.000Z</time></trkpt><trkpt lon="5.94189" lat="51.154932"><ele>15</ele><time>2022-05-08T06:50:20.000Z</time></trkpt><trkpt lon="5.941971" lat="51.154888"><ele>15</ele><time>2022-05-08T06:50:21.000Z</time></trkpt><trkpt lon="5.942051" lat="51.154843"><ele>15</ele><time>2022-05-08T06:50:22.000Z</time></trkpt><trkpt lon="5.942131" lat="51.154797"><ele>15</ele><time>2022-05-08T06:50:23.000Z</time></trkpt><trkpt lon="5.94221" lat="51.154753"><ele>15</ele><time>2022-05-08T06:50:24.000Z</time></trkpt><trkpt lon="5.942285" lat="51.154714"><ele>15</ele><time>2022-05-08T06:50:25.000Z</time></trkpt><trkpt lon="5.94235" lat="51.15468"><ele>15</ele><time>2022-05-08T06:50:26.000Z</time></trkpt><trkpt lon="5.942407" lat="51.154649"><ele>15.2</ele><time>2022-05-08T06:50:27.000Z</time></trkpt><trkpt lon="5.942465" lat="51.154619"><ele>15.2</ele><time>2022-05-08T06:50:28.000Z</time></trkpt><trkpt lon="5.942532" lat="51.154588"><ele>15.2</ele><time>2022-05-08T06:50:29.000Z</time></trkpt><trkpt lon="5.942613" lat="51.154557"><ele>15.2</ele><time>2022-05-08T06:50:30.000Z</time></trkpt><trkpt lon="5.942699" lat="51.154524"><ele>15.2</ele><time>2022-05-08T06:50:31.000Z</time></trkpt><trkpt lon="5.94279" lat="51.154491"><ele>15.2</ele><time>2022-05-08T06:50:32.000Z</time></trkpt><trkpt lon="5.942887" lat="51.154456"><ele>15</ele><time>2022-05-08T06:50:33.000Z</time></trkpt><trkpt lon="5.942986" lat="51.154424"><ele>15</ele><time>2022-05-08T06:50:34.000Z</time></trkpt><trkpt lon="5.943088" lat="51.154392"><ele>15</ele><time>2022-05-08T06:50:35.000Z</time></trkpt><trkpt lon="5.943193" lat="51.154359"><ele>15</ele><time>2022-05-08T06:50:36.000Z</time></trkpt><trkpt lon="5.943296" lat="51.154329"><ele>15</ele><time>2022-05-08T06:50:37.000Z</time></trkpt><trkpt lon="5.943394" lat="51.154298"><ele>15</ele><time>2022-05-08T06:50:38.000Z</time></trkpt><trkpt lon="5.943493" lat="51.154268"><ele>15.2</ele><time>2022-05-08T06:50:39.000Z</time></trkpt><trkpt lon="5.943588" lat="51.154237"><ele>15.2</ele><time>2022-05-08T06:50:40.000Z</time></trkpt><trkpt lon="5.943676" lat="51.154205"><ele>15</ele><time>2022-05-08T06:50:41.000Z</time></trkpt><trkpt lon="5.943763" lat="51.154169"><ele>15.2</ele><time>2022-05-08T06:50:42.000Z</time></trkpt><trkpt lon="5.943855" lat="51.154134"><ele>15.2</ele><time>2022-05-08T06:50:43.000Z</time></trkpt><trkpt lon="5.943945" lat="51.154101"><ele>15.2</ele><time>2022-05-08T06:50:44.000Z</time></trkpt><trkpt lon="5.944031" lat="51.154067"><ele>15.2</ele><time>2022-05-08T06:50:45.000Z</time></trkpt><trkpt lon="5.944114" lat="51.154033"><ele>15.4</ele><time>2022-05-08T06:50:46.000Z</time></trkpt><trkpt lon="5.944194" lat="51.153999"><ele>15.4</ele><time>2022-05-08T06:50:47.000Z</time></trkpt><trkpt lon="5.944263" lat="51.153962"><ele>15.4</ele><time>2022-05-08T06:50:48.000Z</time></trkpt><trkpt lon="5.944319" lat="51.153922"><ele>15.4</ele><time>2022-05-08T06:50:49.000Z</time></trkpt><trkpt lon="5.944364" lat="51.153877"><ele>15.2</ele><time>2022-05-08T06:50:50.000Z</time></trkpt><trkpt lon="5.94441" lat="51.15383"><ele>15.2</ele><time>2022-05-08T06:50:51.000Z</time></trkpt><trkpt lon="5.944461" lat="51.153782"><ele>15.4</ele><time>2022-05-08T06:50:52.000Z</time></trkpt><trkpt lon="5.944514" lat="51.153734"><ele>15.2</ele><time>2022-05-08T06:50:53.000Z</time></trkpt><trkpt lon="5.944568" lat="51.153687"><ele>15.2</ele><time>2022-05-08T06:50:54.000Z</time></trkpt><trkpt lon="5.944617" lat="51.153643"><ele>15.2</ele><time>2022-05-08T06:50:55.000Z</time></trkpt><trkpt lon="5.944658" lat="51.153599"><ele>15.2</ele><time>2022-05-08T06:50:56.000Z</time></trkpt><trkpt lon="5.944683" lat="51.153553"><ele>15.2</ele><time>2022-05-08T06:50:57.000Z</time></trkpt><trkpt lon="5.944689" lat="51.15351"><ele>15.2</ele><time>2022-05-08T06:50:58.000Z</time></trkpt><trkpt lon="5.944686" lat="51.153469"><ele>15.2</ele><time>2022-05-08T06:50:59.000Z</time></trkpt><trkpt lon="5.944692" lat="51.15343"><ele>15.2</ele><time>2022-05-08T06:51:00.000Z</time></trkpt><trkpt lon="5.944716" lat="51.153398"><ele>15.4</ele><time>2022-05-08T06:51:01.000Z</time></trkpt><trkpt lon="5.944755" lat="51.15337"><ele>15.4</ele><time>2022-05-08T06:51:02.000Z</time></trkpt><trkpt lon="5.9448" lat="51.153347"><ele>15.6</ele><time>2022-05-08T06:51:03.000Z</time></trkpt><trkpt lon="5.944851" lat="51.153331"><ele>15.6</ele><time>2022-05-08T06:51:04.000Z</time></trkpt><trkpt lon="5.944906" lat="51.153324"><ele>15.6</ele><time>2022-05-08T06:51:05.000Z</time></trkpt><trkpt lon="5.944963" lat="51.153331"><ele>15.6</ele><time>2022-05-08T06:51:06.000Z</time></trkpt><trkpt lon="5.945022" lat="51.15334"><ele>15.6</ele><time>2022-05-08T06:51:07.000Z</time></trkpt><trkpt lon="5.945088" lat="51.153343"><ele>15.6</ele><time>2022-05-08T06:51:08.000Z</time></trkpt><trkpt lon="5.945153" lat="51.15333"><ele>15.8</ele><time>2022-05-08T06:51:09.000Z</time></trkpt><trkpt lon="5.945215" lat="51.153305"><ele>15.8</ele><time>2022-05-08T06:51:10.000Z</time></trkpt><trkpt lon="5.945271" lat="51.153278"><ele>16</ele><time>2022-05-08T06:51:11.000Z</time></trkpt><trkpt lon="5.945322" lat="51.153252"><ele>16</ele><time>2022-05-08T06:51:12.000Z</time></trkpt><trkpt lon="5.94537" lat="51.153225"><ele>16.2</ele><time>2022-05-08T06:51:13.000Z</time></trkpt><trkpt lon="5.94542" lat="51.1532"><ele>16.2</ele><time>2022-05-08T06:51:14.000Z</time></trkpt><trkpt lon="5.945473" lat="51.153175"><ele>16.4</ele><time>2022-05-08T06:51:15.000Z</time></trkpt><trkpt lon="5.945528" lat="51.153146"><ele>16.4</ele><time>2022-05-08T06:51:16.000Z</time></trkpt><trkpt lon="5.945584" lat="51.153111"><ele>16.6</ele><time>2022-05-08T06:51:17.000Z</time></trkpt><trkpt lon="5.945643" lat="51.153075"><ele>16.6</ele><time>2022-05-08T06:51:18.000Z</time></trkpt><trkpt lon="5.945704" lat="51.153037"><ele>16.8</ele><time>2022-05-08T06:51:19.000Z</time></trkpt><trkpt lon="5.945767" lat="51.153"><ele>16.8</ele><time>2022-05-08T06:51:20.000Z</time></trkpt><trkpt lon="5.945831" lat="51.152963"><ele>16.8</ele><time>2022-05-08T06:51:21.000Z</time></trkpt><trkpt lon="5.945897" lat="51.152922"><ele>16.8</ele><time>2022-05-08T06:51:22.000Z</time></trkpt><trkpt lon="5.945968" lat="51.152885"><ele>16.8</ele><time>2022-05-08T06:51:23.000Z</time></trkpt><trkpt lon="5.946044" lat="51.152848"><ele>17</ele><time>2022-05-08T06:51:24.000Z</time></trkpt><trkpt lon="5.946121" lat="51.152808"><ele>17</ele><time>2022-05-08T06:51:25.000Z</time></trkpt><trkpt lon="5.946194" lat="51.152761"><ele>17</ele><time>2022-05-08T06:51:26.000Z</time></trkpt><trkpt lon="5.946264" lat="51.152714"><ele>17.2</ele><time>2022-05-08T06:51:27.000Z</time></trkpt><trkpt lon="5.946334" lat="51.152668"><ele>17.2</ele><time>2022-05-08T06:51:28.000Z</time></trkpt><trkpt lon="5.946405" lat="51.152623"><ele>17.4</ele><time>2022-05-08T06:51:29.000Z</time></trkpt><trkpt lon="5.946474" lat="51.152575"><ele>17.4</ele><time>2022-05-08T06:51:30.000Z</time></trkpt><trkpt lon="5.946542" lat="51.15253"><ele>17.6</ele><time>2022-05-08T06:51:31.000Z</time></trkpt><trkpt lon="5.946614" lat="51.152511"><ele>17.6</ele><time>2022-05-08T06:51:32.000Z</time></trkpt><trkpt lon="5.946694" lat="51.152509"><ele>17.6</ele><time>2022-05-08T06:51:33.000Z</time></trkpt><trkpt lon="5.946773" lat="51.152508"><ele>17.6</ele><time>2022-05-08T06:51:34.000Z</time></trkpt><trkpt lon="5.946846" lat="51.152385"><ele>17.6</ele><time>2022-05-08T06:51:35.000Z</time></trkpt><trkpt lon="5.946945" lat="51.152333"><ele>17.6</ele><time>2022-05-08T06:51:36.000Z</time></trkpt><trkpt lon="5.947043" lat="51.152302"><ele>17.4</ele><time>2022-05-08T06:51:37.000Z</time></trkpt><trkpt lon="5.947136" lat="51.152298"><ele>17.4</ele><time>2022-05-08T06:51:38.000Z</time></trkpt><trkpt lon="5.947263" lat="51.15229"><ele>17.2</ele><time>2022-05-08T06:51:39.000Z</time></trkpt><trkpt lon="5.947377" lat="51.152294"><ele>17.2</ele><time>2022-05-08T06:51:40.000Z</time></trkpt><trkpt lon="5.947489" lat="51.152298"><ele>17.2</ele><time>2022-05-08T06:51:41.000Z</time></trkpt><trkpt lon="5.947599" lat="51.152294"><ele>17</ele><time>2022-05-08T06:51:42.000Z</time></trkpt><trkpt lon="5.947714" lat="51.152287"><ele>17</ele><time>2022-05-08T06:51:43.000Z</time></trkpt><trkpt lon="5.947825" lat="51.152287"><ele>16.8</ele><time>2022-05-08T06:51:44.000Z</time></trkpt><trkpt lon="5.947932" lat="51.152284"><ele>16.8</ele><time>2022-05-08T06:51:45.000Z</time></trkpt><trkpt lon="5.948036" lat="51.152283"><ele>16.6</ele><time>2022-05-08T06:51:46.000Z</time></trkpt><trkpt lon="5.948137" lat="51.15228"><ele>16.6</ele><time>2022-05-08T06:51:47.000Z</time></trkpt><trkpt lon="5.948237" lat="51.152274"><ele>16.6</ele><time>2022-05-08T06:51:48.000Z</time></trkpt><trkpt lon="5.948337" lat="51.152265"><ele>16.4</ele><time>2022-05-08T06:51:49.000Z</time></trkpt><trkpt lon="5.948429" lat="51.152249"><ele>16.4</ele><time>2022-05-08T06:51:50.000Z</time></trkpt><trkpt lon="5.948518" lat="51.152227"><ele>16.4</ele><time>2022-05-08T06:51:51.000Z</time></trkpt><trkpt lon="5.9486" lat="51.152198"><ele>16.4</ele><time>2022-05-08T06:51:52.000Z</time></trkpt><trkpt lon="5.948672" lat="51.152163"><ele>16.4</ele><time>2022-05-08T06:51:53.000Z</time></trkpt><trkpt lon="5.948736" lat="51.152129"><ele>16.6</ele><time>2022-05-08T06:51:54.000Z</time></trkpt><trkpt lon="5.948795" lat="51.152092"><ele>16.6</ele><time>2022-05-08T06:51:55.000Z</time></trkpt><trkpt lon="5.948845" lat="51.152057"><ele>16.6</ele><time>2022-05-08T06:51:56.000Z</time></trkpt><trkpt lon="5.948888" lat="51.152025"><ele>16.8</ele><time>2022-05-08T06:51:57.000Z</time></trkpt><trkpt lon="5.948923" lat="51.151996"><ele>16.8</ele><time>2022-05-08T06:51:58.000Z</time></trkpt><trkpt lon="5.948945" lat="51.151969"><ele>16.8</ele><time>2022-05-08T06:51:59.000Z</time></trkpt><trkpt lon="5.948962" lat="51.151947"><ele>16.8</ele><time>2022-05-08T06:52:00.000Z</time></trkpt><trkpt lon="5.948985" lat="51.151933"><ele>16.8</ele><time>2022-05-08T06:52:01.000Z</time></trkpt><trkpt lon="5.94902" lat="51.151928"><ele>16.8</ele><time>2022-05-08T06:52:02.000Z</time></trkpt><trkpt lon="5.949068" lat="51.151937"><ele>16.8</ele><time>2022-05-08T06:52:03.000Z</time></trkpt><trkpt lon="5.949129" lat="51.151952"><ele>16.8</ele><time>2022-05-08T06:52:04.000Z</time></trkpt><trkpt lon="5.949204" lat="51.151969"><ele>16.6</ele><time>2022-05-08T06:52:05.000Z</time></trkpt><trkpt lon="5.949292" lat="51.151984"><ele>16.6</ele><time>2022-05-08T06:52:06.000Z</time></trkpt><trkpt lon="5.949386" lat="51.151993"><ele>16.6</ele><time>2022-05-08T06:52:07.000Z</time></trkpt><trkpt lon="5.949484" lat="51.151999"><ele>16.6</ele><time>2022-05-08T06:52:08.000Z</time></trkpt><trkpt lon="5.949585" lat="51.152007"><ele>16.8</ele><time>2022-05-08T06:52:09.000Z</time></trkpt><trkpt lon="5.949687" lat="51.152016"><ele>16.8</ele><time>2022-05-08T06:52:10.000Z</time></trkpt><trkpt lon="5.949791" lat="51.152026"><ele>17</ele><time>2022-05-08T06:52:11.000Z</time></trkpt><trkpt lon="5.949898" lat="51.152035"><ele>17</ele><time>2022-05-08T06:52:12.000Z</time></trkpt><trkpt lon="5.950003" lat="51.152045"><ele>17</ele><time>2022-05-08T06:52:13.000Z</time></trkpt><trkpt lon="5.950105" lat="51.152057"><ele>17.2</ele><time>2022-05-08T06:52:14.000Z</time></trkpt><trkpt lon="5.950209" lat="51.152066"><ele>17.2</ele><time>2022-05-08T06:52:15.000Z</time></trkpt><trkpt lon="5.950314" lat="51.152076"><ele>17.2</ele><time>2022-05-08T06:52:16.000Z</time></trkpt><trkpt lon="5.950418" lat="51.152087"><ele>17.2</ele><time>2022-05-08T06:52:17.000Z</time></trkpt><trkpt lon="5.950522" lat="51.152099"><ele>17.2</ele><time>2022-05-08T06:52:18.000Z</time></trkpt><trkpt lon="5.950625" lat="51.15211"><ele>17</ele><time>2022-05-08T06:52:19.000Z</time></trkpt><trkpt lon="5.95073" lat="51.152122"><ele>17</ele><time>2022-05-08T06:52:20.000Z</time></trkpt><trkpt lon="5.950834" lat="51.152131"><ele>17</ele><time>2022-05-08T06:52:21.000Z</time></trkpt><trkpt lon="5.95094" lat="51.152141"><ele>17</ele><time>2022-05-08T06:52:22.000Z</time></trkpt><trkpt lon="5.951048" lat="51.152152"><ele>17</ele><time>2022-05-08T06:52:23.000Z</time></trkpt><trkpt lon="5.951154" lat="51.152161"><ele>17</ele><time>2022-05-08T06:52:24.000Z</time></trkpt><trkpt lon="5.951258" lat="51.152169"><ele>16.8</ele><time>2022-05-08T06:52:25.000Z</time></trkpt><trkpt lon="5.951365" lat="51.152179"><ele>16.8</ele><time>2022-05-08T06:52:26.000Z</time></trkpt><trkpt lon="5.951474" lat="51.152188"><ele>16.8</ele><time>2022-05-08T06:52:27.000Z</time></trkpt><trkpt lon="5.951579" lat="51.152196"><ele>16.8</ele><time>2022-05-08T06:52:28.000Z</time></trkpt><trkpt lon="5.951686" lat="51.152205"><ele>16.8</ele><time>2022-05-08T06:52:29.000Z</time></trkpt><trkpt lon="5.951794" lat="51.152212"><ele>16.8</ele><time>2022-05-08T06:52:30.000Z</time></trkpt><trkpt lon="5.9519" lat="51.152219"><ele>16.8</ele><time>2022-05-08T06:52:31.000Z</time></trkpt><trkpt lon="5.952006" lat="51.152224"><ele>16.8</ele><time>2022-05-08T06:52:32.000Z</time></trkpt><trkpt lon="5.952112" lat="51.152228"><ele>16.8</ele><time>2022-05-08T06:52:33.000Z</time></trkpt><trkpt lon="5.952218" lat="51.152229"><ele>16.6</ele><time>2022-05-08T06:52:34.000Z</time></trkpt><trkpt lon="5.952324" lat="51.152229"><ele>16.6</ele><time>2022-05-08T06:52:35.000Z</time></trkpt><trkpt lon="5.952431" lat="51.152229"><ele>16.6</ele><time>2022-05-08T06:52:36.000Z</time></trkpt><trkpt lon="5.952535" lat="51.152227"><ele>16.6</ele><time>2022-05-08T06:52:37.000Z</time></trkpt><trkpt lon="5.952637" lat="51.152223"><ele>16.6</ele><time>2022-05-08T06:52:38.000Z</time></trkpt><trkpt lon="5.952739" lat="51.152217"><ele>16.6</ele><time>2022-05-08T06:52:39.000Z</time></trkpt><trkpt lon="5.952845" lat="51.152212"><ele>16.6</ele><time>2022-05-08T06:52:40.000Z</time></trkpt><trkpt lon="5.952952" lat="51.152204"><ele>16.6</ele><time>2022-05-08T06:52:41.000Z</time></trkpt><trkpt lon="5.953059" lat="51.152192"><ele>16.4</ele><time>2022-05-08T06:52:42.000Z</time></trkpt><trkpt lon="5.953165" lat="51.152181"><ele>16.4</ele><time>2022-05-08T06:52:43.000Z</time></trkpt><trkpt lon="5.953272" lat="51.152167"><ele>16.4</ele><time>2022-05-08T06:52:44.000Z</time></trkpt><trkpt lon="5.953379" lat="51.152152"><ele>16.6</ele><time>2022-05-08T06:52:45.000Z</time></trkpt><trkpt lon="5.953482" lat="51.152134"><ele>16.6</ele><time>2022-05-08T06:52:46.000Z</time></trkpt><trkpt lon="5.953585" lat="51.152113"><ele>16.6</ele><time>2022-05-08T06:52:47.000Z</time></trkpt><trkpt lon="5.953689" lat="51.15209"><ele>16.6</ele><time>2022-05-08T06:52:48.000Z</time></trkpt><trkpt lon="5.95379" lat="51.15207"><ele>16.6</ele><time>2022-05-08T06:52:49.000Z</time></trkpt><trkpt lon="5.953892" lat="51.152048"><ele>16.6</ele><time>2022-05-08T06:52:50.000Z</time></trkpt><trkpt lon="5.953997" lat="51.152025"><ele>16.8</ele><time>2022-05-08T06:52:51.000Z</time></trkpt><trkpt lon="5.9541" lat="51.152005"><ele>16.8</ele><time>2022-05-08T06:52:52.000Z</time></trkpt><trkpt lon="5.954204" lat="51.151986"><ele>16.8</ele><time>2022-05-08T06:52:53.000Z</time></trkpt><trkpt lon="5.954307" lat="51.151966"><ele>16.8</ele><time>2022-05-08T06:52:54.000Z</time></trkpt><trkpt lon="5.954409" lat="51.151945"><ele>16.6</ele><time>2022-05-08T06:52:55.000Z</time></trkpt><trkpt lon="5.954511" lat="51.151925"><ele>16.8</ele><time>2022-05-08T06:52:56.000Z</time></trkpt><trkpt lon="5.954615" lat="51.151903"><ele>16.8</ele><time>2022-05-08T06:52:57.000Z</time></trkpt><trkpt lon="5.954721" lat="51.15188"><ele>16.8</ele><time>2022-05-08T06:52:58.000Z</time></trkpt><trkpt lon="5.954825" lat="51.15186"><ele>16.8</ele><time>2022-05-08T06:52:59.000Z</time></trkpt><trkpt lon="5.954929" lat="51.151838"><ele>16.8</ele><time>2022-05-08T06:53:00.000Z</time></trkpt><trkpt lon="5.955034" lat="51.151818"><ele>16.8</ele><time>2022-05-08T06:53:01.000Z</time></trkpt><trkpt lon="5.955139" lat="51.151799"><ele>16.6</ele><time>2022-05-08T06:53:02.000Z</time></trkpt><trkpt lon="5.955245" lat="51.151779"><ele>16.8</ele><time>2022-05-08T06:53:03.000Z</time></trkpt><trkpt lon="5.955349" lat="51.151758"><ele>16.8</ele><time>2022-05-08T06:53:04.000Z</time></trkpt><trkpt lon="5.955455" lat="51.15174"><ele>16.6</ele><time>2022-05-08T06:53:05.000Z</time></trkpt><trkpt lon="5.955561" lat="51.151722"><ele>16.6</ele><time>2022-05-08T06:53:06.000Z</time></trkpt><trkpt lon="5.955665" lat="51.151705"><ele>16.8</ele><time>2022-05-08T06:53:07.000Z</time></trkpt><trkpt lon="5.955768" lat="51.15169"><ele>17</ele><time>2022-05-08T06:53:08.000Z</time></trkpt><trkpt lon="5.955871" lat="51.151675"><ele>17</ele><time>2022-05-08T06:53:09.000Z</time></trkpt><trkpt lon="5.955973" lat="51.15166"><ele>17.2</ele><time>2022-05-08T06:53:10.000Z</time></trkpt><trkpt lon="5.956078" lat="51.151647"><ele>17.2</ele><time>2022-05-08T06:53:11.000Z</time></trkpt><trkpt lon="5.956185" lat="51.151633"><ele>17.2</ele><time>2022-05-08T06:53:12.000Z</time></trkpt><trkpt lon="5.956288" lat="51.151618"><ele>17.4</ele><time>2022-05-08T06:53:13.000Z</time></trkpt><trkpt lon="5.956392" lat="51.151603"><ele>17.4</ele><time>2022-05-08T06:53:14.000Z</time></trkpt><trkpt lon="5.956495" lat="51.151587"><ele>17.4</ele><time>2022-05-08T06:53:15.000Z</time></trkpt><trkpt lon="5.956599" lat="51.151572"><ele>17.4</ele><time>2022-05-08T06:53:16.000Z</time></trkpt><trkpt lon="5.956703" lat="51.151557"><ele>17.4</ele><time>2022-05-08T06:53:17.000Z</time></trkpt><trkpt lon="5.956807" lat="51.151544"><ele>17.4</ele><time>2022-05-08T06:53:18.000Z</time></trkpt><trkpt lon="5.956909" lat="51.15153"><ele>17.2</ele><time>2022-05-08T06:53:19.000Z</time></trkpt><trkpt lon="5.957009" lat="51.151515"><ele>17.2</ele><time>2022-05-08T06:53:20.000Z</time></trkpt><trkpt lon="5.957109" lat="51.1515"><ele>17.4</ele><time>2022-05-08T06:53:21.000Z</time></trkpt><trkpt lon="5.95721" lat="51.151487"><ele>17.4</ele><time>2022-05-08T06:53:22.000Z</time></trkpt><trkpt lon="5.957315" lat="51.151475"><ele>17.6</ele><time>2022-05-08T06:53:23.000Z</time></trkpt><trkpt lon="5.957421" lat="51.151461"><ele>17.6</ele><time>2022-05-08T06:53:24.000Z</time></trkpt><trkpt lon="5.957525" lat="51.15145"><ele>17.8</ele><time>2022-05-08T06:53:25.000Z</time></trkpt><trkpt lon="5.957628" lat="51.151441"><ele>17.8</ele><time>2022-05-08T06:53:26.000Z</time></trkpt><trkpt lon="5.957732" lat="51.151429"><ele>18</ele><time>2022-05-08T06:53:27.000Z</time></trkpt><trkpt lon="5.957835" lat="51.151418"><ele>18</ele><time>2022-05-08T06:53:28.000Z</time></trkpt><trkpt lon="5.957939" lat="51.151406"><ele>18.2</ele><time>2022-05-08T06:53:29.000Z</time></trkpt><trkpt lon="5.958043" lat="51.151395"><ele>18.2</ele><time>2022-05-08T06:53:30.000Z</time></trkpt><trkpt lon="5.95815" lat="51.151381"><ele>18.4</ele><time>2022-05-08T06:53:31.000Z</time></trkpt><trkpt lon="5.958258" lat="51.151368"><ele>18.4</ele><time>2022-05-08T06:53:32.000Z</time></trkpt><trkpt lon="5.958366" lat="51.151357"><ele>18.2</ele><time>2022-05-08T06:53:33.000Z</time></trkpt><trkpt lon="5.958471" lat="51.151345"><ele>18.2</ele><time>2022-05-08T06:53:34.000Z</time></trkpt><trkpt lon="5.958578" lat="51.151332"><ele>18.2</ele><time>2022-05-08T06:53:35.000Z</time></trkpt><trkpt lon="5.958684" lat="51.151319"><ele>18.2</ele><time>2022-05-08T06:53:36.000Z</time></trkpt><trkpt lon="5.958792" lat="51.151307"><ele>18</ele><time>2022-05-08T06:53:37.000Z</time></trkpt><trkpt lon="5.958897" lat="51.151296"><ele>18</ele><time>2022-05-08T06:53:38.000Z</time></trkpt><trkpt lon="5.959004" lat="51.151285"><ele>17.8</ele><time>2022-05-08T06:53:39.000Z</time></trkpt><trkpt lon="5.959114" lat="51.151273"><ele>17.8</ele><time>2022-05-08T06:53:40.000Z</time></trkpt><trkpt lon="5.95922" lat="51.151259"><ele>17.8</ele><time>2022-05-08T06:53:41.000Z</time></trkpt><trkpt lon="5.959324" lat="51.151244"><ele>17.6</ele><time>2022-05-08T06:53:42.000Z</time></trkpt><trkpt lon="5.959428" lat="51.151229"><ele>17.6</ele><time>2022-05-08T06:53:43.000Z</time></trkpt><trkpt lon="5.959533" lat="51.151213"><ele>17.6</ele><time>2022-05-08T06:53:44.000Z</time></trkpt><trkpt lon="5.959638" lat="51.151198"><ele>17.4</ele><time>2022-05-08T06:53:45.000Z</time></trkpt><trkpt lon="5.959743" lat="51.151183"><ele>17.2</ele><time>2022-05-08T06:53:46.000Z</time></trkpt><trkpt lon="5.959848" lat="51.151168"><ele>17</ele><time>2022-05-08T06:53:47.000Z</time></trkpt><trkpt lon="5.959955" lat="51.151155"><ele>17</ele><time>2022-05-08T06:53:48.000Z</time></trkpt><trkpt lon="5.960059" lat="51.151141"><ele>17</ele><time>2022-05-08T06:53:49.000Z</time></trkpt><trkpt lon="5.960169" lat="51.151126"><ele>16.8</ele><time>2022-05-08T06:53:50.000Z</time></trkpt><trkpt lon="5.960279" lat="51.15111"><ele>16.8</ele><time>2022-05-08T06:53:51.000Z</time></trkpt><trkpt lon="5.960385" lat="51.151095"><ele>16.8</ele><time>2022-05-08T06:53:52.000Z</time></trkpt><trkpt lon="5.960495" lat="51.15108"><ele>16.8</ele><time>2022-05-08T06:53:53.000Z</time></trkpt><trkpt lon="5.960608" lat="51.151067"><ele>16.8</ele><time>2022-05-08T06:53:54.000Z</time></trkpt><trkpt lon="5.960721" lat="51.151053"><ele>16.6</ele><time>2022-05-08T06:53:55.000Z</time></trkpt><trkpt lon="5.960829" lat="51.151038"><ele>16.4</ele><time>2022-05-08T06:53:56.000Z</time></trkpt><trkpt lon="5.96094" lat="51.151025"><ele>16.2</ele><time>2022-05-08T06:53:57.000Z</time></trkpt><trkpt lon="5.961052" lat="51.151009"><ele>16.2</ele><time>2022-05-08T06:53:58.000Z</time></trkpt><trkpt lon="5.96116" lat="51.150992"><ele>16.2</ele><time>2022-05-08T06:53:59.000Z</time></trkpt><trkpt lon="5.961269" lat="51.150977"><ele>16.2</ele><time>2022-05-08T06:54:00.000Z</time></trkpt><trkpt lon="5.961376" lat="51.150962"><ele>16.2</ele><time>2022-05-08T06:54:01.000Z</time></trkpt><trkpt lon="5.961486" lat="51.150947"><ele>16.2</ele><time>2022-05-08T06:54:02.000Z</time></trkpt><trkpt lon="5.961596" lat="51.150931"><ele>16.4</ele><time>2022-05-08T06:54:03.000Z</time></trkpt><trkpt lon="5.961704" lat="51.150918"><ele>16.4</ele><time>2022-05-08T06:54:04.000Z</time></trkpt><trkpt lon="5.961812" lat="51.150907"><ele>16.4</ele><time>2022-05-08T06:54:05.000Z</time></trkpt><trkpt lon="5.961919" lat="51.150893"><ele>16.6</ele><time>2022-05-08T06:54:06.000Z</time></trkpt><trkpt lon="5.962026" lat="51.150878"><ele>16.6</ele><time>2022-05-08T06:54:07.000Z</time></trkpt><trkpt lon="5.962133" lat="51.150858"><ele>16.6</ele><time>2022-05-08T06:54:08.000Z</time></trkpt><trkpt lon="5.962237" lat="51.150835"><ele>16.8</ele><time>2022-05-08T06:54:09.000Z</time></trkpt><trkpt lon="5.962342" lat="51.150812"><ele>16.6</ele><time>2022-05-08T06:54:10.000Z</time></trkpt><trkpt lon="5.962445" lat="51.150787"><ele>16.6</ele><time>2022-05-08T06:54:11.000Z</time></trkpt><trkpt lon="5.962552" lat="51.150763"><ele>16.6</ele><time>2022-05-08T06:54:12.000Z</time></trkpt><trkpt lon="5.962664" lat="51.15074"><ele>16.6</ele><time>2022-05-08T06:54:13.000Z</time></trkpt><trkpt lon="5.962773" lat="51.150719"><ele>16.6</ele><time>2022-05-08T06:54:14.000Z</time></trkpt><trkpt lon="5.962883" lat="51.150698"><ele>16.6</ele><time>2022-05-08T06:54:15.000Z</time></trkpt><trkpt lon="5.962995" lat="51.150675"><ele>16.6</ele><time>2022-05-08T06:54:16.000Z</time></trkpt><trkpt lon="5.963108" lat="51.150652"><ele>16.6</ele><time>2022-05-08T06:54:17.000Z</time></trkpt><trkpt lon="5.963221" lat="51.150627"><ele>16.4</ele><time>2022-05-08T06:54:18.000Z</time></trkpt><trkpt lon="5.963332" lat="51.150602"><ele>16.2</ele><time>2022-05-08T06:54:19.000Z</time></trkpt><trkpt lon="5.963442" lat="51.150578"><ele>16.2</ele><time>2022-05-08T06:54:20.000Z</time></trkpt><trkpt lon="5.963554" lat="51.150551"><ele>16</ele><time>2022-05-08T06:54:21.000Z</time></trkpt><trkpt lon="5.963666" lat="51.150524"><ele>15.8</ele><time>2022-05-08T06:54:22.000Z</time></trkpt><trkpt lon="5.963778" lat="51.150497"><ele>15.8</ele><time>2022-05-08T06:54:23.000Z</time></trkpt><trkpt lon="5.963887" lat="51.150471"><ele>15.8</ele><time>2022-05-08T06:54:24.000Z</time></trkpt><trkpt lon="5.963999" lat="51.150444"><ele>15.8</ele><time>2022-05-08T06:54:25.000Z</time></trkpt><trkpt lon="5.964112" lat="51.150417"><ele>15.8</ele><time>2022-05-08T06:54:26.000Z</time></trkpt><trkpt lon="5.964224" lat="51.150393"><ele>15.6</ele><time>2022-05-08T06:54:27.000Z</time></trkpt><trkpt lon="5.964332" lat="51.150368"><ele>15.6</ele><time>2022-05-08T06:54:28.000Z</time></trkpt><trkpt lon="5.964441" lat="51.150341"><ele>15.6</ele><time>2022-05-08T06:54:29.000Z</time></trkpt><trkpt lon="5.964551" lat="51.150314"><ele>15.4</ele><time>2022-05-08T06:54:30.000Z</time></trkpt><trkpt lon="5.96466" lat="51.150287"><ele>15.4</ele><time>2022-05-08T06:54:31.000Z</time></trkpt><trkpt lon="5.964768" lat="51.150261"><ele>15.4</ele><time>2022-05-08T06:54:32.000Z</time></trkpt><trkpt lon="5.964874" lat="51.150234"><ele>15.4</ele><time>2022-05-08T06:54:33.000Z</time></trkpt><trkpt lon="5.964981" lat="51.150205"><ele>15.6</ele><time>2022-05-08T06:54:34.000Z</time></trkpt><trkpt lon="5.965089" lat="51.150177"><ele>15.6</ele><time>2022-05-08T06:54:35.000Z</time></trkpt><trkpt lon="5.965196" lat="51.15015"><ele>15.6</ele><time>2022-05-08T06:54:36.000Z</time></trkpt><trkpt lon="5.965303" lat="51.150123"><ele>15.6</ele><time>2022-05-08T06:54:37.000Z</time></trkpt><trkpt lon="5.965409" lat="51.150099"><ele>15.6</ele><time>2022-05-08T06:54:38.000Z</time></trkpt><trkpt lon="5.965513" lat="51.150074"><ele>15.6</ele><time>2022-05-08T06:54:39.000Z</time></trkpt><trkpt lon="5.965617" lat="51.150047"><ele>15.8</ele><time>2022-05-08T06:54:40.000Z</time></trkpt><trkpt lon="5.965722" lat="51.15002"><ele>15.8</ele><time>2022-05-08T06:54:41.000Z</time></trkpt><trkpt lon="5.965825" lat="51.149996"><ele>15.8</ele><time>2022-05-08T06:54:42.000Z</time></trkpt><trkpt lon="5.965926" lat="51.149971"><ele>15.8</ele><time>2022-05-08T06:54:43.000Z</time></trkpt><trkpt lon="5.96603" lat="51.149945"><ele>16</ele><time>2022-05-08T06:54:44.000Z</time></trkpt><trkpt lon="5.966132" lat="51.14992"><ele>16</ele><time>2022-05-08T06:54:45.000Z</time></trkpt><trkpt lon="5.966233" lat="51.149895"><ele>15.8</ele><time>2022-05-08T06:54:46.000Z</time></trkpt><trkpt lon="5.966335" lat="51.14987"><ele>15.8</ele><time>2022-05-08T06:54:47.000Z</time></trkpt><trkpt lon="5.966437" lat="51.149845"><ele>15.8</ele><time>2022-05-08T06:54:48.000Z</time></trkpt><trkpt lon="5.966539" lat="51.14982"><ele>15.8</ele><time>2022-05-08T06:54:49.000Z</time></trkpt><trkpt lon="5.966641" lat="51.149795"><ele>15.8</ele><time>2022-05-08T06:54:50.000Z</time></trkpt><trkpt lon="5.966745" lat="51.149771"><ele>15.8</ele><time>2022-05-08T06:54:51.000Z</time></trkpt><trkpt lon="5.966847" lat="51.149748"><ele>16</ele><time>2022-05-08T06:54:52.000Z</time></trkpt><trkpt lon="5.966947" lat="51.149724"><ele>16</ele><time>2022-05-08T06:54:53.000Z</time></trkpt><trkpt lon="5.967051" lat="51.149697"><ele>16</ele><time>2022-05-08T06:54:54.000Z</time></trkpt><trkpt lon="5.967154" lat="51.149669"><ele>16</ele><time>2022-05-08T06:54:55.000Z</time></trkpt><trkpt lon="5.967254" lat="51.149643"><ele>16.2</ele><time>2022-05-08T06:54:56.000Z</time></trkpt><trkpt lon="5.967357" lat="51.149619"><ele>16.2</ele><time>2022-05-08T06:54:57.000Z</time></trkpt><trkpt lon="5.96746" lat="51.149593"><ele>16.4</ele><time>2022-05-08T06:54:58.000Z</time></trkpt><trkpt lon="5.967562" lat="51.149569"><ele>16.4</ele><time>2022-05-08T06:54:59.000Z</time></trkpt><trkpt lon="5.967666" lat="51.149543"><ele>16.4</ele><time>2022-05-08T06:55:00.000Z</time></trkpt><trkpt lon="5.967772" lat="51.149519"><ele>16.6</ele><time>2022-05-08T06:55:01.000Z</time></trkpt><trkpt lon="5.96788" lat="51.149496"><ele>16.6</ele><time>2022-05-08T06:55:02.000Z</time></trkpt><trkpt lon="5.967987" lat="51.149471"><ele>16.4</ele><time>2022-05-08T06:55:03.000Z</time></trkpt><trkpt lon="5.968095" lat="51.149442"><ele>16.6</ele><time>2022-05-08T06:55:04.000Z</time></trkpt><trkpt lon="5.968202" lat="51.149416"><ele>16.6</ele><time>2022-05-08T06:55:05.000Z</time></trkpt><trkpt lon="5.968308" lat="51.149391"><ele>16.6</ele><time>2022-05-08T06:55:06.000Z</time></trkpt><trkpt lon="5.968412" lat="51.149364"><ele>16.4</ele><time>2022-05-08T06:55:07.000Z</time></trkpt><trkpt lon="5.968516" lat="51.149338"><ele>16.4</ele><time>2022-05-08T06:55:08.000Z</time></trkpt><trkpt lon="5.968622" lat="51.149311"><ele>16.4</ele><time>2022-05-08T06:55:09.000Z</time></trkpt><trkpt lon="5.968729" lat="51.149284"><ele>16.2</ele><time>2022-05-08T06:55:10.000Z</time></trkpt><trkpt lon="5.968836" lat="51.149257"><ele>16.2</ele><time>2022-05-08T06:55:11.000Z</time></trkpt><trkpt lon="5.968946" lat="51.149231"><ele>16</ele><time>2022-05-08T06:55:12.000Z</time></trkpt><trkpt lon="5.969053" lat="51.149202"><ele>16</ele><time>2022-05-08T06:55:13.000Z</time></trkpt><trkpt lon="5.969161" lat="51.149174"><ele>15.8</ele><time>2022-05-08T06:55:14.000Z</time></trkpt><trkpt lon="5.969267" lat="51.149147"><ele>15.8</ele><time>2022-05-08T06:55:15.000Z</time></trkpt><trkpt lon="5.96937" lat="51.149122"><ele>15.8</ele><time>2022-05-08T06:55:16.000Z</time></trkpt><trkpt lon="5.969472" lat="51.149097"><ele>15.8</ele><time>2022-05-08T06:55:17.000Z</time></trkpt><trkpt lon="5.969572" lat="51.149073"><ele>15.8</ele><time>2022-05-08T06:55:18.000Z</time></trkpt><trkpt lon="5.969674" lat="51.149048"><ele>15.8</ele><time>2022-05-08T06:55:19.000Z</time></trkpt><trkpt lon="5.969776" lat="51.149023"><ele>16</ele><time>2022-05-08T06:55:20.000Z</time></trkpt><trkpt lon="5.969879" lat="51.148998"><ele>16</ele><time>2022-05-08T06:55:21.000Z</time></trkpt><trkpt lon="5.969982" lat="51.148971"><ele>16</ele><time>2022-05-08T06:55:22.000Z</time></trkpt><trkpt lon="5.970086" lat="51.148945"><ele>16</ele><time>2022-05-08T06:55:23.000Z</time></trkpt><trkpt lon="5.970191" lat="51.148918"><ele>15.8</ele><time>2022-05-08T06:55:24.000Z</time></trkpt><trkpt lon="5.970295" lat="51.148891"><ele>15.8</ele><time>2022-05-08T06:55:25.000Z</time></trkpt><trkpt lon="5.970401" lat="51.148865"><ele>15.8</ele><time>2022-05-08T06:55:26.000Z</time></trkpt><trkpt lon="5.970507" lat="51.148838"><ele>15.8</ele><time>2022-05-08T06:55:27.000Z</time></trkpt><trkpt lon="5.970612" lat="51.148811"><ele>15.6</ele><time>2022-05-08T06:55:28.000Z</time></trkpt><trkpt lon="5.970716" lat="51.148787"><ele>15.8</ele><time>2022-05-08T06:55:29.000Z</time></trkpt><trkpt lon="5.970821" lat="51.148762"><ele>15.8</ele><time>2022-05-08T06:55:30.000Z</time></trkpt><trkpt lon="5.970925" lat="51.148737"><ele>15.8</ele><time>2022-05-08T06:55:31.000Z</time></trkpt><trkpt lon="5.97103" lat="51.148712"><ele>15.6</ele><time>2022-05-08T06:55:32.000Z</time></trkpt><trkpt lon="5.971132" lat="51.148685"><ele>15.6</ele><time>2022-05-08T06:55:33.000Z</time></trkpt><trkpt lon="5.971234" lat="51.148661"><ele>15.6</ele><time>2022-05-08T06:55:34.000Z</time></trkpt><trkpt lon="5.971333" lat="51.148636"><ele>15.6</ele><time>2022-05-08T06:55:35.000Z</time></trkpt><trkpt lon="5.971435" lat="51.148611"><ele>15.6</ele><time>2022-05-08T06:55:36.000Z</time></trkpt><trkpt lon="5.971537" lat="51.148586"><ele>15.6</ele><time>2022-05-08T06:55:37.000Z</time></trkpt><trkpt lon="5.971636" lat="51.148561"><ele>15.6</ele><time>2022-05-08T06:55:38.000Z</time></trkpt><trkpt lon="5.971735" lat="51.148539"><ele>15.6</ele><time>2022-05-08T06:55:39.000Z</time></trkpt><trkpt lon="5.971837" lat="51.148516"><ele>15.6</ele><time>2022-05-08T06:55:40.000Z</time></trkpt><trkpt lon="5.971939" lat="51.148491"><ele>15.6</ele><time>2022-05-08T06:55:41.000Z</time></trkpt><trkpt lon="5.972043" lat="51.148464"><ele>15.6</ele><time>2022-05-08T06:55:42.000Z</time></trkpt><trkpt lon="5.972144" lat="51.148438"><ele>15.6</ele><time>2022-05-08T06:55:43.000Z</time></trkpt><trkpt lon="5.972247" lat="51.148411"><ele>15.6</ele><time>2022-05-08T06:55:44.000Z</time></trkpt><trkpt lon="5.972352" lat="51.148385"><ele>15.6</ele><time>2022-05-08T06:55:45.000Z</time></trkpt><trkpt lon="5.972456" lat="51.148357"><ele>15.6</ele><time>2022-05-08T06:55:46.000Z</time></trkpt><trkpt lon="5.972558" lat="51.148331"><ele>15.6</ele><time>2022-05-08T06:55:47.000Z</time></trkpt><trkpt lon="5.972659" lat="51.148304"><ele>15.6</ele><time>2022-05-08T06:55:48.000Z</time></trkpt><trkpt lon="5.97276" lat="51.148277"><ele>15.6</ele><time>2022-05-08T06:55:49.000Z</time></trkpt><trkpt lon="5.972859" lat="51.148251"><ele>15.6</ele><time>2022-05-08T06:55:50.000Z</time></trkpt><trkpt lon="5.972959" lat="51.148224"><ele>15.6</ele><time>2022-05-08T06:55:51.000Z</time></trkpt><trkpt lon="5.973059" lat="51.148199"><ele>15.6</ele><time>2022-05-08T06:55:52.000Z</time></trkpt><trkpt lon="5.973158" lat="51.148174"><ele>15.6</ele><time>2022-05-08T06:55:53.000Z</time></trkpt><trkpt lon="5.973258" lat="51.148148"><ele>15.6</ele><time>2022-05-08T06:55:54.000Z</time></trkpt><trkpt lon="5.973359" lat="51.148121"><ele>15.6</ele><time>2022-05-08T06:55:55.000Z</time></trkpt><trkpt lon="5.973459" lat="51.148094"><ele>15.6</ele><time>2022-05-08T06:55:56.000Z</time></trkpt><trkpt lon="5.973561" lat="51.14807"><ele>15.8</ele><time>2022-05-08T06:55:57.000Z</time></trkpt><trkpt lon="5.973664" lat="51.148047"><ele>15.8</ele><time>2022-05-08T06:55:58.000Z</time></trkpt><trkpt lon="5.973765" lat="51.148024"><ele>15.8</ele><time>2022-05-08T06:55:59.000Z</time></trkpt><trkpt lon="5.973868" lat="51.147999"><ele>15.8</ele><time>2022-05-08T06:56:00.000Z</time></trkpt><trkpt lon="5.973973" lat="51.147974"><ele>16</ele><time>2022-05-08T06:56:01.000Z</time></trkpt><trkpt lon="5.974077" lat="51.147949"><ele>16</ele><time>2022-05-08T06:56:02.000Z</time></trkpt><trkpt lon="5.97418" lat="51.147925"><ele>16</ele><time>2022-05-08T06:56:03.000Z</time></trkpt><trkpt lon="5.974281" lat="51.1479"><ele>16.2</ele><time>2022-05-08T06:56:04.000Z</time></trkpt><trkpt lon="5.97438" lat="51.147873"><ele>16.4</ele><time>2022-05-08T06:56:05.000Z</time></trkpt><trkpt lon="5.974476" lat="51.147849"><ele>16.8</ele><time>2022-05-08T06:56:06.000Z</time></trkpt><trkpt lon="5.974574" lat="51.147826"><ele>16.8</ele><time>2022-05-08T06:56:07.000Z</time></trkpt><trkpt lon="5.974674" lat="51.147803"><ele>17</ele><time>2022-05-08T06:56:08.000Z</time></trkpt><trkpt lon="5.974775" lat="51.14778"><ele>17</ele><time>2022-05-08T06:56:09.000Z</time></trkpt><trkpt lon="5.974876" lat="51.147755"><ele>17</ele><time>2022-05-08T06:56:10.000Z</time></trkpt><trkpt lon="5.974977" lat="51.14773"><ele>17</ele><time>2022-05-08T06:56:11.000Z</time></trkpt><trkpt lon="5.97508" lat="51.147705"><ele>17</ele><time>2022-05-08T06:56:12.000Z</time></trkpt><trkpt lon="5.975182" lat="51.147681"><ele>17</ele><time>2022-05-08T06:56:13.000Z</time></trkpt><trkpt lon="5.975283" lat="51.147655"><ele>17</ele><time>2022-05-08T06:56:14.000Z</time></trkpt><trkpt lon="5.975384" lat="51.147631"><ele>17</ele><time>2022-05-08T06:56:15.000Z</time></trkpt><trkpt lon="5.975483" lat="51.147606"><ele>17</ele><time>2022-05-08T06:56:16.000Z</time></trkpt><trkpt lon="5.975584" lat="51.147582"><ele>17</ele><time>2022-05-08T06:56:17.000Z</time></trkpt><trkpt lon="5.975688" lat="51.147556"><ele>17</ele><time>2022-05-08T06:56:18.000Z</time></trkpt><trkpt lon="5.97579" lat="51.147529"><ele>17</ele><time>2022-05-08T06:56:19.000Z</time></trkpt><trkpt lon="5.975893" lat="51.147505"><ele>17</ele><time>2022-05-08T06:56:20.000Z</time></trkpt><trkpt lon="5.975995" lat="51.14748"><ele>17</ele><time>2022-05-08T06:56:21.000Z</time></trkpt><trkpt lon="5.976098" lat="51.147455"><ele>17</ele><time>2022-05-08T06:56:22.000Z</time></trkpt><trkpt lon="5.976201" lat="51.14743"><ele>17</ele><time>2022-05-08T06:56:23.000Z</time></trkpt><trkpt lon="5.976304" lat="51.147406"><ele>16.8</ele><time>2022-05-08T06:56:24.000Z</time></trkpt><trkpt lon="5.976405" lat="51.147381"><ele>17</ele><time>2022-05-08T06:56:25.000Z</time></trkpt><trkpt lon="5.976507" lat="51.147357"><ele>17</ele><time>2022-05-08T06:56:26.000Z</time></trkpt><trkpt lon="5.976609" lat="51.147331"><ele>17</ele><time>2022-05-08T06:56:27.000Z</time></trkpt><trkpt lon="5.976709" lat="51.147306"><ele>17</ele><time>2022-05-08T06:56:28.000Z</time></trkpt><trkpt lon="5.976808" lat="51.147281"><ele>17</ele><time>2022-05-08T06:56:29.000Z</time></trkpt><trkpt lon="5.976908" lat="51.147257"><ele>17.2</ele><time>2022-05-08T06:56:30.000Z</time></trkpt><trkpt lon="5.977009" lat="51.147234"><ele>17.2</ele><time>2022-05-08T06:56:31.000Z</time></trkpt><trkpt lon="5.977109" lat="51.147209"><ele>17.2</ele><time>2022-05-08T06:56:32.000Z</time></trkpt><trkpt lon="5.977209" lat="51.147182"><ele>17.2</ele><time>2022-05-08T06:56:33.000Z</time></trkpt><trkpt lon="5.977308" lat="51.147158"><ele>17.2</ele><time>2022-05-08T06:56:34.000Z</time></trkpt><trkpt lon="5.977409" lat="51.147133"><ele>17.2</ele><time>2022-05-08T06:56:35.000Z</time></trkpt><trkpt lon="5.977512" lat="51.147108"><ele>17.2</ele><time>2022-05-08T06:56:36.000Z</time></trkpt><trkpt lon="5.977614" lat="51.147083"><ele>17.4</ele><time>2022-05-08T06:56:37.000Z</time></trkpt><trkpt lon="5.977716" lat="51.147059"><ele>17.4</ele><time>2022-05-08T06:56:38.000Z</time></trkpt><trkpt lon="5.977816" lat="51.147034"><ele>17.2</ele><time>2022-05-08T06:56:39.000Z</time></trkpt><trkpt lon="5.977916" lat="51.147009"><ele>17.2</ele><time>2022-05-08T06:56:40.000Z</time></trkpt><trkpt lon="5.978017" lat="51.146984"><ele>17</ele><time>2022-05-08T06:56:41.000Z</time></trkpt><trkpt lon="5.978117" lat="51.146959"><ele>17</ele><time>2022-05-08T06:56:42.000Z</time></trkpt><trkpt lon="5.978215" lat="51.146935"><ele>17</ele><time>2022-05-08T06:56:43.000Z</time></trkpt><trkpt lon="5.978319" lat="51.146908"><ele>17</ele><time>2022-05-08T06:56:44.000Z</time></trkpt><trkpt lon="5.978422" lat="51.146883"><ele>17</ele><time>2022-05-08T06:56:45.000Z</time></trkpt><trkpt lon="5.978524" lat="51.146856"><ele>16.8</ele><time>2022-05-08T06:56:46.000Z</time></trkpt><trkpt lon="5.978624" lat="51.146827"><ele>16.8</ele><time>2022-05-08T06:56:47.000Z</time></trkpt><trkpt lon="5.978723" lat="51.146801"><ele>16.8</ele><time>2022-05-08T06:56:48.000Z</time></trkpt><trkpt lon="5.978822" lat="51.146774"><ele>16.8</ele><time>2022-05-08T06:56:49.000Z</time></trkpt><trkpt lon="5.978921" lat="51.14675"><ele>16.8</ele><time>2022-05-08T06:56:50.000Z</time></trkpt><trkpt lon="5.979021" lat="51.146727"><ele>16.8</ele><time>2022-05-08T06:56:51.000Z</time></trkpt><trkpt lon="5.979118" lat="51.146702"><ele>16.8</ele><time>2022-05-08T06:56:52.000Z</time></trkpt><trkpt lon="5.979217" lat="51.146677"><ele>16.8</ele><time>2022-05-08T06:56:53.000Z</time></trkpt><trkpt lon="5.97932" lat="51.146654"><ele>16.6</ele><time>2022-05-08T06:56:54.000Z</time></trkpt><trkpt lon="5.979423" lat="51.146631"><ele>16.6</ele><time>2022-05-08T06:56:55.000Z</time></trkpt><trkpt lon="5.979525" lat="51.146606"><ele>16.6</ele><time>2022-05-08T06:56:56.000Z</time></trkpt><trkpt lon="5.979627" lat="51.146582"><ele>16.6</ele><time>2022-05-08T06:56:57.000Z</time></trkpt><trkpt lon="5.979731" lat="51.146561"><ele>16.6</ele><time>2022-05-08T06:56:58.000Z</time></trkpt><trkpt lon="5.979835" lat="51.146538"><ele>16.6</ele><time>2022-05-08T06:56:59.000Z</time></trkpt><trkpt lon="5.979938" lat="51.146509"><ele>16.6</ele><time>2022-05-08T06:57:00.000Z</time></trkpt><trkpt lon="5.980039" lat="51.14648"><ele>16.6</ele><time>2022-05-08T06:57:01.000Z</time></trkpt><trkpt lon="5.98014" lat="51.146454"><ele>16.6</ele><time>2022-05-08T06:57:02.000Z</time></trkpt><trkpt lon="5.980238" lat="51.146425"><ele>16.6</ele><time>2022-05-08T06:57:03.000Z</time></trkpt><trkpt lon="5.980334" lat="51.146392"><ele>16.6</ele><time>2022-05-08T06:57:04.000Z</time></trkpt><trkpt lon="5.98043" lat="51.146363"><ele>16.6</ele><time>2022-05-08T06:57:05.000Z</time></trkpt><trkpt lon="5.980527" lat="51.146334"><ele>16.6</ele><time>2022-05-08T06:57:06.000Z</time></trkpt><trkpt lon="5.980619" lat="51.146307"><ele>16.6</ele><time>2022-05-08T06:57:07.000Z</time></trkpt><trkpt lon="5.980715" lat="51.146282"><ele>16.4</ele><time>2022-05-08T06:57:08.000Z</time></trkpt><trkpt lon="5.980818" lat="51.146259"><ele>16.2</ele><time>2022-05-08T06:57:09.000Z</time></trkpt><trkpt lon="5.980923" lat="51.146238"><ele>16</ele><time>2022-05-08T06:57:10.000Z</time></trkpt><trkpt lon="5.981035" lat="51.146216"><ele>15.6</ele><time>2022-05-08T06:57:11.000Z</time></trkpt><trkpt lon="5.981151" lat="51.14619"><ele>15.4</ele><time>2022-05-08T06:57:12.000Z</time></trkpt><trkpt lon="5.981265" lat="51.146161"><ele>15.2</ele><time>2022-05-08T06:57:13.000Z</time></trkpt><trkpt lon="5.981376" lat="51.146131"><ele>15.2</ele><time>2022-05-08T06:57:14.000Z</time></trkpt><trkpt lon="5.981482" lat="51.146103"><ele>15.2</ele><time>2022-05-08T06:57:15.000Z</time></trkpt><trkpt lon="5.981585" lat="51.146071"><ele>15.2</ele><time>2022-05-08T06:57:16.000Z</time></trkpt><trkpt lon="5.981683" lat="51.146042"><ele>15.2</ele><time>2022-05-08T06:57:17.000Z</time></trkpt><trkpt lon="5.981779" lat="51.146013"><ele>15.2</ele><time>2022-05-08T06:57:18.000Z</time></trkpt><trkpt lon="5.981869" lat="51.145985"><ele>15.2</ele><time>2022-05-08T06:57:19.000Z</time></trkpt><trkpt lon="5.981955" lat="51.145958"><ele>15.4</ele><time>2022-05-08T06:57:20.000Z</time></trkpt><trkpt lon="5.982035" lat="51.145936"><ele>15.4</ele><time>2022-05-08T06:57:21.000Z</time></trkpt><trkpt lon="5.98211" lat="51.145917"><ele>15.6</ele><time>2022-05-08T06:57:22.000Z</time></trkpt><trkpt lon="5.982185" lat="51.145897"><ele>15.6</ele><time>2022-05-08T06:57:23.000Z</time></trkpt><trkpt lon="5.982266" lat="51.145881"><ele>15.6</ele><time>2022-05-08T06:57:24.000Z</time></trkpt><trkpt lon="5.982355" lat="51.145863"><ele>15.6</ele><time>2022-05-08T06:57:25.000Z</time></trkpt><trkpt lon="5.982446" lat="51.14584"><ele>15.4</ele><time>2022-05-08T06:57:26.000Z</time></trkpt><trkpt lon="5.982537" lat="51.145813"><ele>15.2</ele><time>2022-05-08T06:57:27.000Z</time></trkpt><trkpt lon="5.982627" lat="51.145786"><ele>15</ele><time>2022-05-08T06:57:28.000Z</time></trkpt><trkpt lon="5.982718" lat="51.145759"><ele>14.6</ele><time>2022-05-08T06:57:29.000Z</time></trkpt><trkpt lon="5.982802" lat="51.145737"><ele>14.4</ele><time>2022-05-08T06:57:30.000Z</time></trkpt><trkpt lon="5.982874" lat="51.14572"><ele>14.2</ele><time>2022-05-08T06:57:31.000Z</time></trkpt><trkpt lon="5.982942" lat="51.145707"><ele>14</ele><time>2022-05-08T06:57:32.000Z</time></trkpt><trkpt lon="5.983016" lat="51.145694"><ele>13.8</ele><time>2022-05-08T06:57:33.000Z</time></trkpt><trkpt lon="5.98308" lat="51.14567"><ele>13.6</ele><time>2022-05-08T06:57:34.000Z</time></trkpt><trkpt lon="5.983122" lat="51.14563"><ele>13.6</ele><time>2022-05-08T06:57:35.000Z</time></trkpt><trkpt lon="5.983151" lat="51.145587"><ele>13.6</ele><time>2022-05-08T06:57:36.000Z</time></trkpt><trkpt lon="5.983181" lat="51.145536"><ele>13.4</ele><time>2022-05-08T06:57:37.000Z</time></trkpt><trkpt lon="5.983213" lat="51.145472"><ele>13.2</ele><time>2022-05-08T06:57:38.000Z</time></trkpt><trkpt lon="5.983243" lat="51.145399"><ele>13.2</ele><time>2022-05-08T06:57:39.000Z</time></trkpt><trkpt lon="5.98327" lat="51.14532"><ele>13</ele><time>2022-05-08T06:57:40.000Z</time></trkpt><trkpt lon="5.983298" lat="51.14524"><ele>13</ele><time>2022-05-08T06:57:41.000Z</time></trkpt><trkpt lon="5.983325" lat="51.145162"><ele>12.8</ele><time>2022-05-08T06:57:42.000Z</time></trkpt><trkpt lon="5.98335" lat="51.145085"><ele>12.6</ele><time>2022-05-08T06:57:43.000Z</time></trkpt><trkpt lon="5.98337" lat="51.145007"><ele>12.6</ele><time>2022-05-08T06:57:44.000Z</time></trkpt><trkpt lon="5.98339" lat="51.144931"><ele>12.4</ele><time>2022-05-08T06:57:45.000Z</time></trkpt><trkpt lon="5.983413" lat="51.144857"><ele>12.6</ele><time>2022-05-08T06:57:46.000Z</time></trkpt><trkpt lon="5.983436" lat="51.144784"><ele>12.6</ele><time>2022-05-08T06:57:47.000Z</time></trkpt><trkpt lon="5.983459" lat="51.144711"><ele>12.8</ele><time>2022-05-08T06:57:48.000Z</time></trkpt><trkpt lon="5.983484" lat="51.14464"><ele>12.8</ele><time>2022-05-08T06:57:49.000Z</time></trkpt><trkpt lon="5.983504" lat="51.144576"><ele>13</ele><time>2022-05-08T06:57:50.000Z</time></trkpt><trkpt lon="5.983522" lat="51.144515"><ele>13.2</ele><time>2022-05-08T06:57:51.000Z</time></trkpt><trkpt lon="5.98354" lat="51.144454"><ele>13.4</ele><time>2022-05-08T06:57:52.000Z</time></trkpt><trkpt lon="5.983551" lat="51.144398"><ele>13.6</ele><time>2022-05-08T06:57:53.000Z</time></trkpt><trkpt lon="5.983561" lat="51.14434"><ele>14</ele><time>2022-05-08T06:57:54.000Z</time></trkpt><trkpt lon="5.983571" lat="51.144281"><ele>14.2</ele><time>2022-05-08T06:57:55.000Z</time></trkpt><trkpt lon="5.983584" lat="51.144222"><ele>14.4</ele><time>2022-05-08T06:57:56.000Z</time></trkpt><trkpt lon="5.983592" lat="51.14416"><ele>14.6</ele><time>2022-05-08T06:57:57.000Z</time></trkpt><trkpt lon="5.983596" lat="51.144099"><ele>15</ele><time>2022-05-08T06:57:58.000Z</time></trkpt><trkpt lon="5.983602" lat="51.144042"><ele>15.2</ele><time>2022-05-08T06:57:59.000Z</time></trkpt><trkpt lon="5.983607" lat="51.143989"><ele>15.4</ele><time>2022-05-08T06:58:00.000Z</time></trkpt><trkpt lon="5.983613" lat="51.143933"><ele>15.8</ele><time>2022-05-08T06:58:01.000Z</time></trkpt><trkpt lon="5.983621" lat="51.143885"><ele>16</ele><time>2022-05-08T06:58:02.000Z</time></trkpt><trkpt lon="5.983632" lat="51.143848"><ele>16.2</ele><time>2022-05-08T06:58:03.000Z</time></trkpt><trkpt lon="5.983652" lat="51.143818"><ele>16.4</ele><time>2022-05-08T06:58:04.000Z</time></trkpt><trkpt lon="5.98369" lat="51.143806"><ele>16.6</ele><time>2022-05-08T06:58:05.000Z</time></trkpt><trkpt lon="5.983736" lat="51.143813"><ele>16.8</ele><time>2022-05-08T06:58:06.000Z</time></trkpt><trkpt lon="5.98379" lat="51.143826"><ele>17</ele><time>2022-05-08T06:58:07.000Z</time></trkpt><trkpt lon="5.983847" lat="51.143849"><ele>17</ele><time>2022-05-08T06:58:08.000Z</time></trkpt><trkpt lon="5.983903" lat="51.143873"><ele>17.2</ele><time>2022-05-08T06:58:09.000Z</time></trkpt><trkpt lon="5.983964" lat="51.143898"><ele>17.2</ele><time>2022-05-08T06:58:10.000Z</time></trkpt><trkpt lon="5.984028" lat="51.143925"><ele>17.2</ele><time>2022-05-08T06:58:11.000Z</time></trkpt><trkpt lon="5.984097" lat="51.143954"><ele>17.4</ele><time>2022-05-08T06:58:12.000Z</time></trkpt><trkpt lon="5.98417" lat="51.143982"><ele>17.4</ele><time>2022-05-08T06:58:13.000Z</time></trkpt><trkpt lon="5.98425" lat="51.144007"><ele>17.4</ele><time>2022-05-08T06:58:14.000Z</time></trkpt><trkpt lon="5.984334" lat="51.144034"><ele>17.4</ele><time>2022-05-08T06:58:15.000Z</time></trkpt><trkpt lon="5.984415" lat="51.144062"><ele>17.6</ele><time>2022-05-08T06:58:16.000Z</time></trkpt><trkpt lon="5.984495" lat="51.144089"><ele>17.6</ele><time>2022-05-08T06:58:17.000Z</time></trkpt><trkpt lon="5.984573" lat="51.14412"><ele>17.6</ele><time>2022-05-08T06:58:18.000Z</time></trkpt><trkpt lon="5.984652" lat="51.144149"><ele>17.6</ele><time>2022-05-08T06:58:19.000Z</time></trkpt><trkpt lon="5.984731" lat="51.144179"><ele>17.8</ele><time>2022-05-08T06:58:20.000Z</time></trkpt><trkpt lon="5.98481" lat="51.144214"><ele>17.8</ele><time>2022-05-08T06:58:21.000Z</time></trkpt><trkpt lon="5.984893" lat="51.144252"><ele>18</ele><time>2022-05-08T06:58:22.000Z</time></trkpt><trkpt lon="5.984977" lat="51.144286"><ele>18</ele><time>2022-05-08T06:58:23.000Z</time></trkpt><trkpt lon="5.985066" lat="51.144316"><ele>18</ele><time>2022-05-08T06:58:24.000Z</time></trkpt><trkpt lon="5.985159" lat="51.144345"><ele>17.8</ele><time>2022-05-08T06:58:25.000Z</time></trkpt><trkpt lon="5.985257" lat="51.144367"><ele>17.8</ele><time>2022-05-08T06:58:26.000Z</time></trkpt><trkpt lon="5.985371" lat="51.144381"><ele>17.8</ele><time>2022-05-08T06:58:27.000Z</time></trkpt><trkpt lon="5.985494" lat="51.144388"><ele>17.8</ele><time>2022-05-08T06:58:28.000Z</time></trkpt><trkpt lon="5.985606" lat="51.144394"><ele>17.8</ele><time>2022-05-08T06:58:29.000Z</time></trkpt><trkpt lon="5.985708" lat="51.144398"><ele>17.8</ele><time>2022-05-08T06:58:30.000Z</time></trkpt><trkpt lon="5.985816" lat="51.1444"><ele>17.8</ele><time>2022-05-08T06:58:31.000Z</time></trkpt><trkpt lon="5.985929" lat="51.144406"><ele>17.8</ele><time>2022-05-08T06:58:32.000Z</time></trkpt><trkpt lon="5.986038" lat="51.144416"><ele>17.6</ele><time>2022-05-08T06:58:33.000Z</time></trkpt><trkpt lon="5.986139" lat="51.144425"><ele>17.6</ele><time>2022-05-08T06:58:34.000Z</time></trkpt><trkpt lon="5.986244" lat="51.144433"><ele>17.6</ele><time>2022-05-08T06:58:35.000Z</time></trkpt><trkpt lon="5.986346" lat="51.14444"><ele>17.6</ele><time>2022-05-08T06:58:36.000Z</time></trkpt><trkpt lon="5.98645" lat="51.14445"><ele>17.6</ele><time>2022-05-08T06:58:37.000Z</time></trkpt><trkpt lon="5.986546" lat="51.144462"><ele>17.6</ele><time>2022-05-08T06:58:38.000Z</time></trkpt><trkpt lon="5.986636" lat="51.144471"><ele>17.6</ele><time>2022-05-08T06:58:39.000Z</time></trkpt><trkpt lon="5.986739" lat="51.144474"><ele>17.6</ele><time>2022-05-08T06:58:40.000Z</time></trkpt><trkpt lon="5.986842" lat="51.144478"><ele>17.6</ele><time>2022-05-08T06:58:41.000Z</time></trkpt><trkpt lon="5.986943" lat="51.144486"><ele>17.6</ele><time>2022-05-08T06:58:42.000Z</time></trkpt><trkpt lon="5.987063" lat="51.144489"><ele>17.6</ele><time>2022-05-08T06:58:43.000Z</time></trkpt><trkpt lon="5.98719" lat="51.144491"><ele>17.6</ele><time>2022-05-08T06:58:44.000Z</time></trkpt><trkpt lon="5.987314" lat="51.144489"><ele>17.6</ele><time>2022-05-08T06:58:45.000Z</time></trkpt><trkpt lon="5.987444" lat="51.144477"><ele>17.4</ele><time>2022-05-08T06:58:46.000Z</time></trkpt><trkpt lon="5.987582" lat="51.144459"><ele>17.2</ele><time>2022-05-08T06:58:47.000Z</time></trkpt><trkpt lon="5.987716" lat="51.14444"><ele>17.2</ele><time>2022-05-08T06:58:48.000Z</time></trkpt><trkpt lon="5.987846" lat="51.144419"><ele>17</ele><time>2022-05-08T06:58:49.000Z</time></trkpt><trkpt lon="5.987978" lat="51.144389"><ele>16.8</ele><time>2022-05-08T06:58:50.000Z</time></trkpt><trkpt lon="5.988105" lat="51.144357"><ele>16.8</ele><time>2022-05-08T06:58:51.000Z</time></trkpt><trkpt lon="5.988225" lat="51.14432"><ele>16.8</ele><time>2022-05-08T06:58:52.000Z</time></trkpt><trkpt lon="5.988333" lat="51.144278"><ele>16.6</ele><time>2022-05-08T06:58:53.000Z</time></trkpt><trkpt lon="5.988435" lat="51.144236"><ele>16.6</ele><time>2022-05-08T06:58:54.000Z</time></trkpt><trkpt lon="5.988535" lat="51.144199"><ele>16.6</ele><time>2022-05-08T06:58:55.000Z</time></trkpt><trkpt lon="5.988635" lat="51.144162"><ele>16.6</ele><time>2022-05-08T06:58:56.000Z</time></trkpt><trkpt lon="5.988731" lat="51.144126"><ele>16.6</ele><time>2022-05-08T06:58:57.000Z</time></trkpt><trkpt lon="5.988824" lat="51.14409"><ele>16.8</ele><time>2022-05-08T06:58:58.000Z</time></trkpt><trkpt lon="5.988919" lat="51.144056"><ele>16.8</ele><time>2022-05-08T06:58:59.000Z</time></trkpt><trkpt lon="5.989012" lat="51.144023"><ele>16.8</ele><time>2022-05-08T06:59:00.000Z</time></trkpt><trkpt lon="5.989102" lat="51.143989"><ele>16.8</ele><time>2022-05-08T06:59:01.000Z</time></trkpt><trkpt lon="5.989192" lat="51.143955"><ele>17</ele><time>2022-05-08T06:59:02.000Z</time></trkpt><trkpt lon="5.989281" lat="51.143918"><ele>17</ele><time>2022-05-08T06:59:03.000Z</time></trkpt><trkpt lon="5.989369" lat="51.143884"><ele>17</ele><time>2022-05-08T06:59:04.000Z</time></trkpt><trkpt lon="5.989458" lat="51.143856"><ele>17</ele><time>2022-05-08T06:59:05.000Z</time></trkpt><trkpt lon="5.989544" lat="51.143828"><ele>17</ele><time>2022-05-08T06:59:06.000Z</time></trkpt><trkpt lon="5.989639" lat="51.143802"><ele>17.2</ele><time>2022-05-08T06:59:07.000Z</time></trkpt><trkpt lon="5.989741" lat="51.143778"><ele>17.2</ele><time>2022-05-08T06:59:08.000Z</time></trkpt><trkpt lon="5.989841" lat="51.143755"><ele>17.2</ele><time>2022-05-08T06:59:09.000Z</time></trkpt><trkpt lon="5.989941" lat="51.14373"><ele>17.4</ele><time>2022-05-08T06:59:10.000Z</time></trkpt><trkpt lon="5.990041" lat="51.143708"><ele>17.4</ele><time>2022-05-08T06:59:11.000Z</time></trkpt><trkpt lon="5.990139" lat="51.143687"><ele>17.4</ele><time>2022-05-08T06:59:12.000Z</time></trkpt><trkpt lon="5.99024" lat="51.143666"><ele>17.4</ele><time>2022-05-08T06:59:13.000Z</time></trkpt><trkpt lon="5.990343" lat="51.143644"><ele>17.2</ele><time>2022-05-08T06:59:14.000Z</time></trkpt><trkpt lon="5.990445" lat="51.143624"><ele>17.2</ele><time>2022-05-08T06:59:15.000Z</time></trkpt><trkpt lon="5.990544" lat="51.143605"><ele>17.2</ele><time>2022-05-08T06:59:16.000Z</time></trkpt><trkpt lon="5.990643" lat="51.143583"><ele>17.4</ele><time>2022-05-08T06:59:17.000Z</time></trkpt><trkpt lon="5.990743" lat="51.143561"><ele>17.4</ele><time>2022-05-08T06:59:18.000Z</time></trkpt><trkpt lon="5.990843" lat="51.143538"><ele>17.4</ele><time>2022-05-08T06:59:19.000Z</time></trkpt><trkpt lon="5.990943" lat="51.143515"><ele>17.6</ele><time>2022-05-08T06:59:20.000Z</time></trkpt><trkpt lon="5.991043" lat="51.143496"><ele>17.6</ele><time>2022-05-08T06:59:21.000Z</time></trkpt><trkpt lon="5.991144" lat="51.143476"><ele>17.6</ele><time>2022-05-08T06:59:22.000Z</time></trkpt><trkpt lon="5.991243" lat="51.143458"><ele>17.8</ele><time>2022-05-08T06:59:23.000Z</time></trkpt><trkpt lon="5.99134" lat="51.143443"><ele>17.8</ele><time>2022-05-08T06:59:24.000Z</time></trkpt><trkpt lon="5.991439" lat="51.143434"><ele>17.8</ele><time>2022-05-08T06:59:25.000Z</time></trkpt><trkpt lon="5.991536" lat="51.14343"><ele>17.8</ele><time>2022-05-08T06:59:26.000Z</time></trkpt><trkpt lon="5.991631" lat="51.143429"><ele>17.8</ele><time>2022-05-08T06:59:27.000Z</time></trkpt><trkpt lon="5.991724" lat="51.143427"><ele>18</ele><time>2022-05-08T06:59:28.000Z</time></trkpt><trkpt lon="5.991816" lat="51.143421"><ele>18</ele><time>2022-05-08T06:59:29.000Z</time></trkpt><trkpt lon="5.991906" lat="51.143404"><ele>18</ele><time>2022-05-08T06:59:30.000Z</time></trkpt><trkpt lon="5.991993" lat="51.143373"><ele>18</ele><time>2022-05-08T06:59:31.000Z</time></trkpt><trkpt lon="5.992067" lat="51.143321"><ele>18</ele><time>2022-05-08T06:59:32.000Z</time></trkpt><trkpt lon="5.992117" lat="51.143256"><ele>18</ele><time>2022-05-08T06:59:33.000Z</time></trkpt><trkpt lon="5.992141" lat="51.143186"><ele>18.2</ele><time>2022-05-08T06:59:34.000Z</time></trkpt><trkpt lon="5.99215" lat="51.143111"><ele>18.2</ele><time>2022-05-08T06:59:35.000Z</time></trkpt><trkpt lon="5.992158" lat="51.143035"><ele>18.2</ele><time>2022-05-08T06:59:36.000Z</time></trkpt><trkpt lon="5.992166" lat="51.14296"><ele>18.4</ele><time>2022-05-08T06:59:37.000Z</time></trkpt><trkpt lon="5.992175" lat="51.142889"><ele>18.4</ele><time>2022-05-08T06:59:38.000Z</time></trkpt><trkpt lon="5.992182" lat="51.142823"><ele>18.4</ele><time>2022-05-08T06:59:39.000Z</time></trkpt><trkpt lon="5.992187" lat="51.142758"><ele>18.4</ele><time>2022-05-08T06:59:40.000Z</time></trkpt><trkpt lon="5.992185" lat="51.142697"><ele>18.4</ele><time>2022-05-08T06:59:41.000Z</time></trkpt><trkpt lon="5.992178" lat="51.142647"><ele>18.4</ele><time>2022-05-08T06:59:42.000Z</time></trkpt><trkpt lon="5.992173" lat="51.142603"><ele>18.2</ele><time>2022-05-08T06:59:43.000Z</time></trkpt><trkpt lon="5.99217" lat="51.142564"><ele>18.2</ele><time>2022-05-08T06:59:44.000Z</time></trkpt><trkpt lon="5.992167" lat="51.142528"><ele>18.2</ele><time>2022-05-08T06:59:45.000Z</time></trkpt><trkpt lon="5.992163" lat="51.142498"><ele>18.2</ele><time>2022-05-08T06:59:46.000Z</time></trkpt><trkpt lon="5.992162" lat="51.142471"><ele>18.2</ele><time>2022-05-08T06:59:47.000Z</time></trkpt><trkpt lon="5.992168" lat="51.142451"><ele>18.2</ele><time>2022-05-08T06:59:48.000Z</time></trkpt><trkpt lon="5.992186" lat="51.142436"><ele>18.2</ele><time>2022-05-08T06:59:49.000Z</time></trkpt><trkpt lon="5.992219" lat="51.142429"><ele>18.2</ele><time>2022-05-08T06:59:50.000Z</time></trkpt><trkpt lon="5.992267" lat="51.142434"><ele>18.2</ele><time>2022-05-08T06:59:51.000Z</time></trkpt><trkpt lon="5.992325" lat="51.142444"><ele>18</ele><time>2022-05-08T06:59:52.000Z</time></trkpt><trkpt lon="5.992389" lat="51.142451"><ele>18</ele><time>2022-05-08T06:59:53.000Z</time></trkpt><trkpt lon="5.992455" lat="51.14245"><ele>18</ele><time>2022-05-08T06:59:54.000Z</time></trkpt><trkpt lon="5.992525" lat="51.142444"><ele>18</ele><time>2022-05-08T06:59:55.000Z</time></trkpt><trkpt lon="5.992596" lat="51.142437"><ele>18</ele><time>2022-05-08T06:59:56.000Z</time></trkpt><trkpt lon="5.992669" lat="51.142441"><ele>18</ele><time>2022-05-08T06:59:57.000Z</time></trkpt><trkpt lon="5.992745" lat="51.142466"><ele>17.8</ele><time>2022-05-08T06:59:58.000Z</time></trkpt><trkpt lon="5.992827" lat="51.142501"><ele>17.8</ele><time>2022-05-08T06:59:59.000Z</time></trkpt><trkpt lon="5.992916" lat="51.142539"><ele>17.6</ele><time>2022-05-08T07:00:00.000Z</time></trkpt><trkpt lon="5.99301" lat="51.142577"><ele>17.6</ele><time>2022-05-08T07:00:01.000Z</time></trkpt><trkpt lon="5.993107" lat="51.142613"><ele>17.6</ele><time>2022-05-08T07:00:02.000Z</time></trkpt><trkpt lon="5.993206" lat="51.142648"><ele>17.6</ele><time>2022-05-08T07:00:03.000Z</time></trkpt><trkpt lon="5.993301" lat="51.142684"><ele>17.6</ele><time>2022-05-08T07:00:04.000Z</time></trkpt><trkpt lon="5.993395" lat="51.142722"><ele>17.4</ele><time>2022-05-08T07:00:05.000Z</time></trkpt><trkpt lon="5.99349" lat="51.14276"><ele>17.4</ele><time>2022-05-08T07:00:06.000Z</time></trkpt><trkpt lon="5.993582" lat="51.142801"><ele>17.4</ele><time>2022-05-08T07:00:07.000Z</time></trkpt><trkpt lon="5.993672" lat="51.142843"><ele>17.6</ele><time>2022-05-08T07:00:08.000Z</time></trkpt><trkpt lon="5.993764" lat="51.142887"><ele>17.6</ele><time>2022-05-08T07:00:09.000Z</time></trkpt><trkpt lon="5.993855" lat="51.142931"><ele>17.4</ele><time>2022-05-08T07:00:10.000Z</time></trkpt><trkpt lon="5.993945" lat="51.142974"><ele>17.6</ele><time>2022-05-08T07:00:11.000Z</time></trkpt><trkpt lon="5.994032" lat="51.14302"><ele>17.6</ele><time>2022-05-08T07:00:12.000Z</time></trkpt><trkpt lon="5.994119" lat="51.143066"><ele>17.8</ele><time>2022-05-08T07:00:13.000Z</time></trkpt><trkpt lon="5.994204" lat="51.143112"><ele>17.8</ele><time>2022-05-08T07:00:14.000Z</time></trkpt><trkpt lon="5.994288" lat="51.143158"><ele>17.8</ele><time>2022-05-08T07:00:15.000Z</time></trkpt><trkpt lon="5.994373" lat="51.143204"><ele>17.8</ele><time>2022-05-08T07:00:16.000Z</time></trkpt><trkpt lon="5.994454" lat="51.143249"><ele>17.8</ele><time>2022-05-08T07:00:17.000Z</time></trkpt><trkpt lon="5.994536" lat="51.143297"><ele>17.8</ele><time>2022-05-08T07:00:18.000Z</time></trkpt><trkpt lon="5.994619" lat="51.143347"><ele>17.8</ele><time>2022-05-08T07:00:19.000Z</time></trkpt><trkpt lon="5.994697" lat="51.143392"><ele>17.8</ele><time>2022-05-08T07:00:20.000Z</time></trkpt><trkpt lon="5.99478" lat="51.143441"><ele>17.8</ele><time>2022-05-08T07:00:21.000Z</time></trkpt><trkpt lon="5.994862" lat="51.143492"><ele>17.8</ele><time>2022-05-08T07:00:22.000Z</time></trkpt><trkpt lon="5.994941" lat="51.143541"><ele>17.8</ele><time>2022-05-08T07:00:23.000Z</time></trkpt><trkpt lon="5.995021" lat="51.143593"><ele>17.8</ele><time>2022-05-08T07:00:24.000Z</time></trkpt><trkpt lon="5.995102" lat="51.143644"><ele>17.8</ele><time>2022-05-08T07:00:25.000Z</time></trkpt><trkpt lon="5.995187" lat="51.143692"><ele>17.8</ele><time>2022-05-08T07:00:26.000Z</time></trkpt><trkpt lon="5.995273" lat="51.143738"><ele>17.8</ele><time>2022-05-08T07:00:27.000Z</time></trkpt><trkpt lon="5.995358" lat="51.143785"><ele>17.8</ele><time>2022-05-08T07:00:28.000Z</time></trkpt><trkpt lon="5.995446" lat="51.143832"><ele>17.8</ele><time>2022-05-08T07:00:29.000Z</time></trkpt><trkpt lon="5.995539" lat="51.143876"><ele>17.8</ele><time>2022-05-08T07:00:30.000Z</time></trkpt><trkpt lon="5.995631" lat="51.143919"><ele>17.8</ele><time>2022-05-08T07:00:31.000Z</time></trkpt><trkpt lon="5.995721" lat="51.143961"><ele>17.8</ele><time>2022-05-08T07:00:32.000Z</time></trkpt><trkpt lon="5.995811" lat="51.144002"><ele>17.6</ele><time>2022-05-08T07:00:33.000Z</time></trkpt><trkpt lon="5.995898" lat="51.144038"><ele>17.6</ele><time>2022-05-08T07:00:34.000Z</time></trkpt><trkpt lon="5.995979" lat="51.144068"><ele>17.4</ele><time>2022-05-08T07:00:35.000Z</time></trkpt><trkpt lon="5.996061" lat="51.144098"><ele>17.6</ele><time>2022-05-08T07:00:36.000Z</time></trkpt><trkpt lon="5.996155" lat="51.144127"><ele>17.6</ele><time>2022-05-08T07:00:37.000Z</time></trkpt><trkpt lon="5.996258" lat="51.144154"><ele>17.6</ele><time>2022-05-08T07:00:38.000Z</time></trkpt><trkpt lon="5.996368" lat="51.144178"><ele>17.6</ele><time>2022-05-08T07:00:39.000Z</time></trkpt><trkpt lon="5.996481" lat="51.144201"><ele>17.6</ele><time>2022-05-08T07:00:40.000Z</time></trkpt><trkpt lon="5.996597" lat="51.144222"><ele>17.6</ele><time>2022-05-08T07:00:41.000Z</time></trkpt><trkpt lon="5.996712" lat="51.144239"><ele>17.4</ele><time>2022-05-08T07:00:42.000Z</time></trkpt><trkpt lon="5.996822" lat="51.144254"><ele>17.4</ele><time>2022-05-08T07:00:43.000Z</time></trkpt><trkpt lon="5.996933" lat="51.144271"><ele>17.4</ele><time>2022-05-08T07:00:44.000Z</time></trkpt><trkpt lon="5.997047" lat="51.144286"><ele>17.4</ele><time>2022-05-08T07:00:45.000Z</time></trkpt><trkpt lon="5.997169" lat="51.144295"><ele>17.4</ele><time>2022-05-08T07:00:46.000Z</time></trkpt><trkpt lon="5.997289" lat="51.144299"><ele>17.4</ele><time>2022-05-08T07:00:47.000Z</time></trkpt><trkpt lon="5.997405" lat="51.144299"><ele>17.4</ele><time>2022-05-08T07:00:48.000Z</time></trkpt><trkpt lon="5.997524" lat="51.144299"><ele>17.4</ele><time>2022-05-08T07:00:49.000Z</time></trkpt><trkpt lon="5.997645" lat="51.144299"><ele>17.4</ele><time>2022-05-08T07:00:50.000Z</time></trkpt><trkpt lon="5.997768" lat="51.144299"><ele>17.4</ele><time>2022-05-08T07:00:51.000Z</time></trkpt><trkpt lon="5.997891" lat="51.144301"><ele>17.4</ele><time>2022-05-08T07:00:52.000Z</time></trkpt><trkpt lon="5.998014" lat="51.144305"><ele>17.4</ele><time>2022-05-08T07:00:53.000Z</time></trkpt><trkpt lon="5.998134" lat="51.144306"><ele>17.2</ele><time>2022-05-08T07:00:54.000Z</time></trkpt><trkpt lon="5.998254" lat="51.144306"><ele>17</ele><time>2022-05-08T07:00:55.000Z</time></trkpt><trkpt lon="5.998373" lat="51.144308"><ele>16.8</ele><time>2022-05-08T07:00:56.000Z</time></trkpt><trkpt lon="5.99849" lat="51.14431"><ele>16.8</ele><time>2022-05-08T07:00:57.000Z</time></trkpt><trkpt lon="5.998608" lat="51.14431"><ele>16.6</ele><time>2022-05-08T07:00:58.000Z</time></trkpt><trkpt lon="5.998723" lat="51.14431"><ele>16.4</ele><time>2022-05-08T07:00:59.000Z</time></trkpt><trkpt lon="5.998835" lat="51.144312"><ele>16.2</ele><time>2022-05-08T07:01:00.000Z</time></trkpt><trkpt lon="5.998943" lat="51.144318"><ele>16</ele><time>2022-05-08T07:01:01.000Z</time></trkpt><trkpt lon="5.999046" lat="51.144326"><ele>16</ele><time>2022-05-08T07:01:02.000Z</time></trkpt><trkpt lon="5.999145" lat="51.144334"><ele>15.8</ele><time>2022-05-08T07:01:03.000Z</time></trkpt><trkpt lon="5.999247" lat="51.144339"><ele>15.6</ele><time>2022-05-08T07:01:04.000Z</time></trkpt><trkpt lon="5.99935" lat="51.144338"><ele>15.4</ele><time>2022-05-08T07:01:05.000Z</time></trkpt><trkpt lon="5.999452" lat="51.144332"><ele>15.2</ele><time>2022-05-08T07:01:06.000Z</time></trkpt><trkpt lon="5.999559" lat="51.144327"><ele>15</ele><time>2022-05-08T07:01:07.000Z</time></trkpt><trkpt lon="5.999671" lat="51.144323"><ele>14.8</ele><time>2022-05-08T07:01:08.000Z</time></trkpt><trkpt lon="5.999783" lat="51.144326"><ele>14.8</ele><time>2022-05-08T07:01:09.000Z</time></trkpt><trkpt lon="5.999895" lat="51.14434"><ele>14.6</ele><time>2022-05-08T07:01:10.000Z</time></trkpt><trkpt lon="6.000005" lat="51.144366"><ele>14.4</ele><time>2022-05-08T07:01:11.000Z</time></trkpt><trkpt lon="6.000109" lat="51.144403"><ele>14.4</ele><time>2022-05-08T07:01:12.000Z</time></trkpt><trkpt lon="6.00021" lat="51.144447"><ele>14.2</ele><time>2022-05-08T07:01:13.000Z</time></trkpt><trkpt lon="6.000305" lat="51.144497"><ele>14</ele><time>2022-05-08T07:01:14.000Z</time></trkpt><trkpt lon="6.000397" lat="51.144551"><ele>14</ele><time>2022-05-08T07:01:15.000Z</time></trkpt><trkpt lon="6.00048" lat="51.144606"><ele>14</ele><time>2022-05-08T07:01:16.000Z</time></trkpt><trkpt lon="6.000553" lat="51.144666"><ele>14</ele><time>2022-05-08T07:01:17.000Z</time></trkpt><trkpt lon="6.000615" lat="51.144727"><ele>13.8</ele><time>2022-05-08T07:01:18.000Z</time></trkpt><trkpt lon="6.000669" lat="51.144791"><ele>13.8</ele><time>2022-05-08T07:01:19.000Z</time></trkpt><trkpt lon="6.000716" lat="51.14486"><ele>13.8</ele><time>2022-05-08T07:01:20.000Z</time></trkpt><trkpt lon="6.000756" lat="51.144928"><ele>13.8</ele><time>2022-05-08T07:01:21.000Z</time></trkpt><trkpt lon="6.00079" lat="51.144992"><ele>13.6</ele><time>2022-05-08T07:01:22.000Z</time></trkpt><trkpt lon="6.000818" lat="51.145055"><ele>13.6</ele><time>2022-05-08T07:01:23.000Z</time></trkpt><trkpt lon="6.000839" lat="51.145113"><ele>13.4</ele><time>2022-05-08T07:01:24.000Z</time></trkpt><trkpt lon="6.000857" lat="51.145164"><ele>13.4</ele><time>2022-05-08T07:01:25.000Z</time></trkpt><trkpt lon="6.000872" lat="51.14521"><ele>13.4</ele><time>2022-05-08T07:01:26.000Z</time></trkpt><trkpt lon="6.000883" lat="51.145251"><ele>13.4</ele><time>2022-05-08T07:01:27.000Z</time></trkpt><trkpt lon="6.000892" lat="51.145289"><ele>13.4</ele><time>2022-05-08T07:01:28.000Z</time></trkpt><trkpt lon="6.0009" lat="51.145327"><ele>13.4</ele><time>2022-05-08T07:01:29.000Z</time></trkpt><trkpt lon="6.000908" lat="51.145367"><ele>13.4</ele><time>2022-05-08T07:01:30.000Z</time></trkpt><trkpt lon="6.000916" lat="51.145412"><ele>13.4</ele><time>2022-05-08T07:01:31.000Z</time></trkpt><trkpt lon="6.000927" lat="51.145458"><ele>13.4</ele><time>2022-05-08T07:01:32.000Z</time></trkpt><trkpt lon="6.000938" lat="51.145506"><ele>13.2</ele><time>2022-05-08T07:01:33.000Z</time></trkpt><trkpt lon="6.000948" lat="51.145558"><ele>13.2</ele><time>2022-05-08T07:01:34.000Z</time></trkpt><trkpt lon="6.000959" lat="51.145613"><ele>13.2</ele><time>2022-05-08T07:01:35.000Z</time></trkpt><trkpt lon="6.000969" lat="51.145664"><ele>13.2</ele><time>2022-05-08T07:01:36.000Z</time></trkpt><trkpt lon="6.000978" lat="51.145716"><ele>13</ele><time>2022-05-08T07:01:37.000Z</time></trkpt><trkpt lon="6.000988" lat="51.145787"><ele>13</ele><time>2022-05-08T07:01:38.000Z</time></trkpt><trkpt lon="6.000993" lat="51.145855"><ele>13</ele><time>2022-05-08T07:01:39.000Z</time></trkpt><trkpt lon="6.000995" lat="51.145918"><ele>13</ele><time>2022-05-08T07:01:40.000Z</time></trkpt><trkpt lon="6.001" lat="51.145981"><ele>13</ele><time>2022-05-08T07:01:41.000Z</time></trkpt><trkpt lon="6.001008" lat="51.146045"><ele>12.8</ele><time>2022-05-08T07:01:42.000Z</time></trkpt><trkpt lon="6.001014" lat="51.146106"><ele>13</ele><time>2022-05-08T07:01:43.000Z</time></trkpt><trkpt lon="6.001015" lat="51.146162"><ele>13</ele><time>2022-05-08T07:01:44.000Z</time></trkpt><trkpt lon="6.001014" lat="51.146217"><ele>13.2</ele><time>2022-05-08T07:01:45.000Z</time></trkpt><trkpt lon="6.001013" lat="51.146272"><ele>13.2</ele><time>2022-05-08T07:01:46.000Z</time></trkpt><trkpt lon="6.001013" lat="51.146325"><ele>13</ele><time>2022-05-08T07:01:47.000Z</time></trkpt><trkpt lon="6.00102" lat="51.146373"><ele>13</ele><time>2022-05-08T07:01:48.000Z</time></trkpt><trkpt lon="6.001044" lat="51.146417"><ele>13.2</ele><time>2022-05-08T07:01:49.000Z</time></trkpt><trkpt lon="6.001086" lat="51.14645"><ele>13.2</ele><time>2022-05-08T07:01:50.000Z</time></trkpt><trkpt lon="6.001135" lat="51.146476"><ele>13.2</ele><time>2022-05-08T07:01:51.000Z</time></trkpt><trkpt lon="6.001187" lat="51.146508"><ele>13.2</ele><time>2022-05-08T07:01:52.000Z</time></trkpt><trkpt lon="6.001234" lat="51.146549"><ele>13.4</ele><time>2022-05-08T07:01:53.000Z</time></trkpt><trkpt lon="6.00128" lat="51.1466"><ele>13.4</ele><time>2022-05-08T07:01:54.000Z</time></trkpt><trkpt lon="6.001327" lat="51.146653"><ele>13.4</ele><time>2022-05-08T07:01:55.000Z</time></trkpt><trkpt lon="6.001375" lat="51.146706"><ele>13.4</ele><time>2022-05-08T07:01:56.000Z</time></trkpt><trkpt lon="6.001422" lat="51.146761"><ele>13.6</ele><time>2022-05-08T07:01:57.000Z</time></trkpt><trkpt lon="6.001468" lat="51.146818"><ele>13.8</ele><time>2022-05-08T07:01:58.000Z</time></trkpt><trkpt lon="6.001517" lat="51.146873"><ele>14</ele><time>2022-05-08T07:01:59.000Z</time></trkpt><trkpt lon="6.001572" lat="51.146925"><ele>14.2</ele><time>2022-05-08T07:02:00.000Z</time></trkpt><trkpt lon="6.001631" lat="51.146972"><ele>14.4</ele><time>2022-05-08T07:02:01.000Z</time></trkpt><trkpt lon="6.001692" lat="51.14702"><ele>14.6</ele><time>2022-05-08T07:02:02.000Z</time></trkpt><trkpt lon="6.001755" lat="51.14707"><ele>14.8</ele><time>2022-05-08T07:02:03.000Z</time></trkpt><trkpt lon="6.001814" lat="51.147117"><ele>14.8</ele><time>2022-05-08T07:02:04.000Z</time></trkpt><trkpt lon="6.001868" lat="51.147161"><ele>15</ele><time>2022-05-08T07:02:05.000Z</time></trkpt><trkpt lon="6.001922" lat="51.147199"><ele>15.2</ele><time>2022-05-08T07:02:06.000Z</time></trkpt><trkpt lon="6.001975" lat="51.147231"><ele>15.4</ele><time>2022-05-08T07:02:07.000Z</time></trkpt><trkpt lon="6.002026" lat="51.147255"><ele>15.4</ele><time>2022-05-08T07:02:08.000Z</time></trkpt><trkpt lon="6.002076" lat="51.147265"><ele>15.6</ele><time>2022-05-08T07:02:09.000Z</time></trkpt><trkpt lon="6.002123" lat="51.147264"><ele>15.6</ele><time>2022-05-08T07:02:10.000Z</time></trkpt><trkpt lon="6.002162" lat="51.147265"><ele>15.8</ele><time>2022-05-08T07:02:11.000Z</time></trkpt><trkpt lon="6.002191" lat="51.147275"><ele>15.8</ele><time>2022-05-08T07:02:12.000Z</time></trkpt><trkpt lon="6.002213" lat="51.147295"><ele>15.8</ele><time>2022-05-08T07:02:13.000Z</time></trkpt><trkpt lon="6.00223" lat="51.147319"><ele>15.8</ele><time>2022-05-08T07:02:14.000Z</time></trkpt><trkpt lon="6.002241" lat="51.147342"><ele>15.8</ele><time>2022-05-08T07:02:15.000Z</time></trkpt><trkpt lon="6.002246" lat="51.147361"><ele>15.8</ele><time>2022-05-08T07:02:16.000Z</time></trkpt><trkpt lon="6.002247" lat="51.147378"><ele>15.6</ele><time>2022-05-08T07:02:17.000Z</time></trkpt><trkpt lon="6.002245" lat="51.147391"><ele>15.6</ele><time>2022-05-08T07:02:18.000Z</time></trkpt><trkpt lon="6.002241" lat="51.1474"><ele>15.6</ele><time>2022-05-08T07:02:19.000Z</time></trkpt><trkpt lon="6.002238" lat="51.147408"><ele>15.6</ele><time>2022-05-08T07:02:20.000Z</time></trkpt><trkpt lon="6.002236" lat="51.147414"><ele>15.6</ele><time>2022-05-08T07:02:21.000Z</time></trkpt><trkpt lon="6.002235" lat="51.147415"><ele>15.6</ele><time>2022-05-08T07:02:22.000Z</time></trkpt><trkpt lon="6.002235" lat="51.147415"><ele>15.6</ele><time>2022-05-08T07:02:23.000Z</time></trkpt><trkpt lon="6.002346" lat="51.147524"><ele>15.6</ele><time>2022-05-08T07:05:50.000Z</time></trkpt><trkpt lon="6.002377" lat="51.147549"><ele>15.6</ele><time>2022-05-08T07:05:51.000Z</time></trkpt><trkpt lon="6.002416" lat="51.147576"><ele>15.6</ele><time>2022-05-08T07:05:52.000Z</time></trkpt><trkpt lon="6.002458" lat="51.147603"><ele>15.6</ele><time>2022-05-08T07:05:53.000Z</time></trkpt><trkpt lon="6.002502" lat="51.147632"><ele>15.6</ele><time>2022-05-08T07:05:54.000Z</time></trkpt><trkpt lon="6.00255" lat="51.14766"><ele>15.6</ele><time>2022-05-08T07:05:55.000Z</time></trkpt><trkpt lon="6.002598" lat="51.147686"><ele>15.4</ele><time>2022-05-08T07:05:56.000Z</time></trkpt><trkpt lon="6.002647" lat="51.147713"><ele>15.4</ele><time>2022-05-08T07:05:57.000Z</time></trkpt><trkpt lon="6.002695" lat="51.147739"><ele>15.4</ele><time>2022-05-08T07:05:58.000Z</time></trkpt><trkpt lon="6.002741" lat="51.147768"><ele>15.4</ele><time>2022-05-08T07:05:59.000Z</time></trkpt><trkpt lon="6.002782" lat="51.147797"><ele>15.2</ele><time>2022-05-08T07:06:00.000Z</time></trkpt><trkpt lon="6.002816" lat="51.147823"><ele>15.2</ele><time>2022-05-08T07:06:01.000Z</time></trkpt><trkpt lon="6.002854" lat="51.147848"><ele>15</ele><time>2022-05-08T07:06:02.000Z</time></trkpt><trkpt lon="6.002903" lat="51.147869"><ele>15</ele><time>2022-05-08T07:06:03.000Z</time></trkpt><trkpt lon="6.002961" lat="51.147883"><ele>14.8</ele><time>2022-05-08T07:06:04.000Z</time></trkpt><trkpt lon="6.003026" lat="51.14789"><ele>14.8</ele><time>2022-05-08T07:06:05.000Z</time></trkpt><trkpt lon="6.003094" lat="51.147894"><ele>14.8</ele><time>2022-05-08T07:06:06.000Z</time></trkpt><trkpt lon="6.003163" lat="51.147896"><ele>14.6</ele><time>2022-05-08T07:06:07.000Z</time></trkpt><trkpt lon="6.003228" lat="51.147898"><ele>14.6</ele><time>2022-05-08T07:06:08.000Z</time></trkpt><trkpt lon="6.003291" lat="51.147904"><ele>14.6</ele><time>2022-05-08T07:06:09.000Z</time></trkpt><trkpt lon="6.003346" lat="51.147919"><ele>14.6</ele><time>2022-05-08T07:06:10.000Z</time></trkpt><trkpt lon="6.003382" lat="51.147946"><ele>14.6</ele><time>2022-05-08T07:06:11.000Z</time></trkpt><trkpt lon="6.003396" lat="51.147983"><ele>14.4</ele><time>2022-05-08T07:06:12.000Z</time></trkpt><trkpt lon="6.003399" lat="51.148028"><ele>14.4</ele><time>2022-05-08T07:06:13.000Z</time></trkpt><trkpt lon="6.003401" lat="51.14808"><ele>14.2</ele><time>2022-05-08T07:06:14.000Z</time></trkpt><trkpt lon="6.003404" lat="51.148136"><ele>14.2</ele><time>2022-05-08T07:06:15.000Z</time></trkpt><trkpt lon="6.003408" lat="51.148195"><ele>14.2</ele><time>2022-05-08T07:06:16.000Z</time></trkpt><trkpt lon="6.003415" lat="51.148256"><ele>14.2</ele><time>2022-05-08T07:06:17.000Z</time></trkpt><trkpt lon="6.003427" lat="51.148318"><ele>14.2</ele><time>2022-05-08T07:06:18.000Z</time></trkpt><trkpt lon="6.003446" lat="51.148381"><ele>14.4</ele><time>2022-05-08T07:06:19.000Z</time></trkpt><trkpt lon="6.003472" lat="51.148445"><ele>14.4</ele><time>2022-05-08T07:06:20.000Z</time></trkpt><trkpt lon="6.003503" lat="51.14851"><ele>14.6</ele><time>2022-05-08T07:06:21.000Z</time></trkpt><trkpt lon="6.003536" lat="51.148573"><ele>14.6</ele><time>2022-05-08T07:06:22.000Z</time></trkpt><trkpt lon="6.003569" lat="51.148636"><ele>14.8</ele><time>2022-05-08T07:06:23.000Z</time></trkpt><trkpt lon="6.0036" lat="51.148698"><ele>15</ele><time>2022-05-08T07:06:24.000Z</time></trkpt><trkpt lon="6.003633" lat="51.148761"><ele>15</ele><time>2022-05-08T07:06:25.000Z</time></trkpt><trkpt lon="6.003665" lat="51.148824"><ele>15</ele><time>2022-05-08T07:06:26.000Z</time></trkpt><trkpt lon="6.003696" lat="51.148884"><ele>14.8</ele><time>2022-05-08T07:06:27.000Z</time></trkpt><trkpt lon="6.003728" lat="51.148945"><ele>14.6</ele><time>2022-05-08T07:06:28.000Z</time></trkpt><trkpt lon="6.00376" lat="51.149012"><ele>14.4</ele><time>2022-05-08T07:06:29.000Z</time></trkpt><trkpt lon="6.003793" lat="51.149078"><ele>14.2</ele><time>2022-05-08T07:06:30.000Z</time></trkpt><trkpt lon="6.003827" lat="51.149145"><ele>14</ele><time>2022-05-08T07:06:31.000Z</time></trkpt><trkpt lon="6.003863" lat="51.149215"><ele>13.8</ele><time>2022-05-08T07:06:32.000Z</time></trkpt><trkpt lon="6.003899" lat="51.149286"><ele>13.6</ele><time>2022-05-08T07:06:33.000Z</time></trkpt><trkpt lon="6.003937" lat="51.149357"><ele>13.4</ele><time>2022-05-08T07:06:34.000Z</time></trkpt><trkpt lon="6.003977" lat="51.14943"><ele>13.2</ele><time>2022-05-08T07:06:35.000Z</time></trkpt><trkpt lon="6.004017" lat="51.1495"><ele>13</ele><time>2022-05-08T07:06:36.000Z</time></trkpt><trkpt lon="6.004057" lat="51.149571"><ele>13</ele><time>2022-05-08T07:06:37.000Z</time></trkpt><trkpt lon="6.004095" lat="51.149638"><ele>13</ele><time>2022-05-08T07:06:38.000Z</time></trkpt><trkpt lon="6.004135" lat="51.149709"><ele>13</ele><time>2022-05-08T07:06:39.000Z</time></trkpt><trkpt lon="6.004175" lat="51.149783"><ele>13.2</ele><time>2022-05-08T07:06:40.000Z</time></trkpt><trkpt lon="6.004208" lat="51.149849"><ele>13.2</ele><time>2022-05-08T07:06:41.000Z</time></trkpt><trkpt lon="6.004241" lat="51.149919"><ele>13.2</ele><time>2022-05-08T07:06:42.000Z</time></trkpt><trkpt lon="6.004277" lat="51.149993"><ele>13.2</ele><time>2022-05-08T07:06:43.000Z</time></trkpt><trkpt lon="6.004313" lat="51.150064"><ele>13.4</ele><time>2022-05-08T07:06:44.000Z</time></trkpt><trkpt lon="6.004351" lat="51.150131"><ele>13.2</ele><time>2022-05-08T07:06:45.000Z</time></trkpt><trkpt lon="6.004386" lat="51.150196"><ele>12.8</ele><time>2022-05-08T07:06:46.000Z</time></trkpt><trkpt lon="6.00442" lat="51.15026"><ele>12.6</ele><time>2022-05-08T07:06:47.000Z</time></trkpt><trkpt lon="6.004455" lat="51.150328"><ele>12.4</ele><time>2022-05-08T07:06:48.000Z</time></trkpt><trkpt lon="6.004491" lat="51.150396"><ele>12.2</ele><time>2022-05-08T07:06:49.000Z</time></trkpt><trkpt lon="6.004526" lat="51.150464"><ele>12</ele><time>2022-05-08T07:06:50.000Z</time></trkpt><trkpt lon="6.004559" lat="51.150536"><ele>12</ele><time>2022-05-08T07:06:51.000Z</time></trkpt><trkpt lon="6.004594" lat="51.15061"><ele>12</ele><time>2022-05-08T07:06:52.000Z</time></trkpt><trkpt lon="6.004631" lat="51.150687"><ele>12</ele><time>2022-05-08T07:06:53.000Z</time></trkpt><trkpt lon="6.004668" lat="51.150763"><ele>12.2</ele><time>2022-05-08T07:06:54.000Z</time></trkpt><trkpt lon="6.004702" lat="51.150842"><ele>12.2</ele><time>2022-05-08T07:06:55.000Z</time></trkpt><trkpt lon="6.004732" lat="51.150924"><ele>12.2</ele><time>2022-05-08T07:06:56.000Z</time></trkpt><trkpt lon="6.004761" lat="51.151006"><ele>12</ele><time>2022-05-08T07:06:57.000Z</time></trkpt><trkpt lon="6.004789" lat="51.151086"><ele>12</ele><time>2022-05-08T07:06:58.000Z</time></trkpt><trkpt lon="6.004813" lat="51.151164"><ele>12</ele><time>2022-05-08T07:06:59.000Z</time></trkpt><trkpt lon="6.004837" lat="51.151242"><ele>12</ele><time>2022-05-08T07:07:00.000Z</time></trkpt><trkpt lon="6.004859" lat="51.151323"><ele>12</ele><time>2022-05-08T07:07:01.000Z</time></trkpt><trkpt lon="6.004881" lat="51.1514"><ele>11.8</ele><time>2022-05-08T07:07:02.000Z</time></trkpt><trkpt lon="6.004903" lat="51.151479"><ele>11.6</ele><time>2022-05-08T07:07:03.000Z</time></trkpt><trkpt lon="6.004927" lat="51.151562"><ele>11.4</ele><time>2022-05-08T07:07:04.000Z</time></trkpt><trkpt lon="6.004951" lat="51.151646"><ele>11.2</ele><time>2022-05-08T07:07:05.000Z</time></trkpt><trkpt lon="6.004976" lat="51.151732"><ele>11.2</ele><time>2022-05-08T07:07:06.000Z</time></trkpt><trkpt lon="6.004999" lat="51.151824"><ele>11.4</ele><time>2022-05-08T07:07:07.000Z</time></trkpt><trkpt lon="6.005025" lat="51.151915"><ele>11.4</ele><time>2022-05-08T07:07:08.000Z</time></trkpt><trkpt lon="6.005057" lat="51.151999"><ele>11.4</ele><time>2022-05-08T07:07:09.000Z</time></trkpt><trkpt lon="6.005087" lat="51.152079"><ele>11.6</ele><time>2022-05-08T07:07:10.000Z</time></trkpt><trkpt lon="6.005109" lat="51.152153"><ele>11.6</ele><time>2022-05-08T07:07:11.000Z</time></trkpt><trkpt lon="6.005125" lat="51.152228"><ele>11.6</ele><time>2022-05-08T07:07:12.000Z</time></trkpt><trkpt lon="6.005138" lat="51.152302"><ele>11.6</ele><time>2022-05-08T07:07:13.000Z</time></trkpt><trkpt lon="6.005152" lat="51.152375"><ele>11.6</ele><time>2022-05-08T07:07:14.000Z</time></trkpt><trkpt lon="6.005167" lat="51.152447"><ele>11.8</ele><time>2022-05-08T07:07:15.000Z</time></trkpt><trkpt lon="6.005184" lat="51.152517"><ele>11.8</ele><time>2022-05-08T07:07:16.000Z</time></trkpt><trkpt lon="6.005201" lat="51.152586"><ele>12</ele><time>2022-05-08T07:07:17.000Z</time></trkpt><trkpt lon="6.005216" lat="51.152655"><ele>12</ele><time>2022-05-08T07:07:18.000Z</time></trkpt><trkpt lon="6.005231" lat="51.152725"><ele>12.2</ele><time>2022-05-08T07:07:19.000Z</time></trkpt><trkpt lon="6.005249" lat="51.152798"><ele>12.4</ele><time>2022-05-08T07:07:20.000Z</time></trkpt><trkpt lon="6.005269" lat="51.152873"><ele>12.4</ele><time>2022-05-08T07:07:21.000Z</time></trkpt><trkpt lon="6.005291" lat="51.152947"><ele>12.4</ele><time>2022-05-08T07:07:22.000Z</time></trkpt><trkpt lon="6.005315" lat="51.153022"><ele>12.4</ele><time>2022-05-08T07:07:23.000Z</time></trkpt><trkpt lon="6.00534" lat="51.153093"><ele>12.4</ele><time>2022-05-08T07:07:24.000Z</time></trkpt><trkpt lon="6.005363" lat="51.153164"><ele>12.4</ele><time>2022-05-08T07:07:25.000Z</time></trkpt><trkpt lon="6.005386" lat="51.153237"><ele>12.4</ele><time>2022-05-08T07:07:26.000Z</time></trkpt><trkpt lon="6.005412" lat="51.153305"><ele>12.4</ele><time>2022-05-08T07:07:27.000Z</time></trkpt><trkpt lon="6.005441" lat="51.153374"><ele>12.6</ele><time>2022-05-08T07:07:28.000Z</time></trkpt><trkpt lon="6.005474" lat="51.153444"><ele>12.6</ele><time>2022-05-08T07:07:29.000Z</time></trkpt><trkpt lon="6.005514" lat="51.153511"><ele>12.6</ele><time>2022-05-08T07:07:30.000Z</time></trkpt><trkpt lon="6.005557" lat="51.153573"><ele>12.6</ele><time>2022-05-08T07:07:31.000Z</time></trkpt><trkpt lon="6.005602" lat="51.153637"><ele>12.6</ele><time>2022-05-08T07:07:32.000Z</time></trkpt><trkpt lon="6.005648" lat="51.153702"><ele>12.6</ele><time>2022-05-08T07:07:33.000Z</time></trkpt><trkpt lon="6.005695" lat="51.153765"><ele>12.6</ele><time>2022-05-08T07:07:34.000Z</time></trkpt><trkpt lon="6.005746" lat="51.153831"><ele>12.4</ele><time>2022-05-08T07:07:35.000Z</time></trkpt><trkpt lon="6.005797" lat="51.153893"><ele>12.4</ele><time>2022-05-08T07:07:36.000Z</time></trkpt><trkpt lon="6.005845" lat="51.153954"><ele>12.6</ele><time>2022-05-08T07:07:37.000Z</time></trkpt><trkpt lon="6.005889" lat="51.154015"><ele>12.6</ele><time>2022-05-08T07:07:38.000Z</time></trkpt><trkpt lon="6.00593" lat="51.154073"><ele>12.4</ele><time>2022-05-08T07:07:39.000Z</time></trkpt><trkpt lon="6.005974" lat="51.154131"><ele>12.4</ele><time>2022-05-08T07:07:40.000Z</time></trkpt><trkpt lon="6.006023" lat="51.154189"><ele>12.6</ele><time>2022-05-08T07:07:41.000Z</time></trkpt><trkpt lon="6.006071" lat="51.154246"><ele>12.4</ele><time>2022-05-08T07:07:42.000Z</time></trkpt><trkpt lon="6.006119" lat="51.154302"><ele>12.4</ele><time>2022-05-08T07:07:43.000Z</time></trkpt><trkpt lon="6.006166" lat="51.154355"><ele>12.4</ele><time>2022-05-08T07:07:44.000Z</time></trkpt><trkpt lon="6.006213" lat="51.15441"><ele>12.4</ele><time>2022-05-08T07:07:45.000Z</time></trkpt><trkpt lon="6.006261" lat="51.154468"><ele>12.4</ele><time>2022-05-08T07:07:46.000Z</time></trkpt><trkpt lon="6.006304" lat="51.154525"><ele>12.4</ele><time>2022-05-08T07:07:47.000Z</time></trkpt><trkpt lon="6.006345" lat="51.154584"><ele>12.4</ele><time>2022-05-08T07:07:48.000Z</time></trkpt><trkpt lon="6.006379" lat="51.154643"><ele>12.4</ele><time>2022-05-08T07:07:49.000Z</time></trkpt><trkpt lon="6.006404" lat="51.1547"><ele>12.4</ele><time>2022-05-08T07:07:50.000Z</time></trkpt><trkpt lon="6.006421" lat="51.154757"><ele>12.4</ele><time>2022-05-08T07:07:51.000Z</time></trkpt><trkpt lon="6.006431" lat="51.154812"><ele>12.4</ele><time>2022-05-08T07:07:52.000Z</time></trkpt><trkpt lon="6.006438" lat="51.15487"><ele>12.6</ele><time>2022-05-08T07:07:53.000Z</time></trkpt><trkpt lon="6.006449" lat="51.154931"><ele>12.8</ele><time>2022-05-08T07:07:54.000Z</time></trkpt><trkpt lon="6.006464" lat="51.154992"><ele>12.8</ele><time>2022-05-08T07:07:55.000Z</time></trkpt><trkpt lon="6.006486" lat="51.155055"><ele>13</ele><time>2022-05-08T07:07:56.000Z</time></trkpt><trkpt lon="6.006515" lat="51.155116"><ele>13</ele><time>2022-05-08T07:07:57.000Z</time></trkpt><trkpt lon="6.006551" lat="51.155176"><ele>13</ele><time>2022-05-08T07:07:58.000Z</time></trkpt><trkpt lon="6.006591" lat="51.155236"><ele>13.2</ele><time>2022-05-08T07:07:59.000Z</time></trkpt><trkpt lon="6.006632" lat="51.155297"><ele>13.2</ele><time>2022-05-08T07:08:00.000Z</time></trkpt><trkpt lon="6.006673" lat="51.155357"><ele>13.2</ele><time>2022-05-08T07:08:01.000Z</time></trkpt><trkpt lon="6.006715" lat="51.155416"><ele>13.2</ele><time>2022-05-08T07:08:02.000Z</time></trkpt><trkpt lon="6.006757" lat="51.155475"><ele>13.2</ele><time>2022-05-08T07:08:03.000Z</time></trkpt><trkpt lon="6.006798" lat="51.155534"><ele>13.4</ele><time>2022-05-08T07:08:04.000Z</time></trkpt><trkpt lon="6.006839" lat="51.155593"><ele>13.4</ele><time>2022-05-08T07:08:05.000Z</time></trkpt><trkpt lon="6.00688" lat="51.15565"><ele>13.4</ele><time>2022-05-08T07:08:06.000Z</time></trkpt><trkpt lon="6.00692" lat="51.155707"><ele>13.4</ele><time>2022-05-08T07:08:07.000Z</time></trkpt><trkpt lon="6.006959" lat="51.15576"><ele>13.6</ele><time>2022-05-08T07:08:08.000Z</time></trkpt><trkpt lon="6.007" lat="51.155809"><ele>13.6</ele><time>2022-05-08T07:08:09.000Z</time></trkpt><trkpt lon="6.007043" lat="51.155857"><ele>13.6</ele><time>2022-05-08T07:08:10.000Z</time></trkpt><trkpt lon="6.007087" lat="51.155901"><ele>13.6</ele><time>2022-05-08T07:08:11.000Z</time></trkpt><trkpt lon="6.007128" lat="51.155945"><ele>13.6</ele><time>2022-05-08T07:08:12.000Z</time></trkpt><trkpt lon="6.007168" lat="51.155989"><ele>13.6</ele><time>2022-05-08T07:08:13.000Z</time></trkpt><trkpt lon="6.007203" lat="51.156033"><ele>13.6</ele><time>2022-05-08T07:08:14.000Z</time></trkpt><trkpt lon="6.007234" lat="51.156076"><ele>13.8</ele><time>2022-05-08T07:08:15.000Z</time></trkpt><trkpt lon="6.007262" lat="51.156116"><ele>13.8</ele><time>2022-05-08T07:08:16.000Z</time></trkpt><trkpt lon="6.007285" lat="51.156153"><ele>13.8</ele><time>2022-05-08T07:08:17.000Z</time></trkpt><trkpt lon="6.007308" lat="51.156189"><ele>13.8</ele><time>2022-05-08T07:08:18.000Z</time></trkpt><trkpt lon="6.00734" lat="51.156224"><ele>13.8</ele><time>2022-05-08T07:08:19.000Z</time></trkpt><trkpt lon="6.007388" lat="51.15625"><ele>13.8</ele><time>2022-05-08T07:08:20.000Z</time></trkpt><trkpt lon="6.007458" lat="51.156266"><ele>13.8</ele><time>2022-05-08T07:08:21.000Z</time></trkpt><trkpt lon="6.007543" lat="51.156282"><ele>13.6</ele><time>2022-05-08T07:08:22.000Z</time></trkpt><trkpt lon="6.007635" lat="51.156302"><ele>13.6</ele><time>2022-05-08T07:08:23.000Z</time></trkpt><trkpt lon="6.007731" lat="51.156327"><ele>13.4</ele><time>2022-05-08T07:08:24.000Z</time></trkpt><trkpt lon="6.007832" lat="51.156356"><ele>13.4</ele><time>2022-05-08T07:08:25.000Z</time></trkpt><trkpt lon="6.007936" lat="51.156391"><ele>13.2</ele><time>2022-05-08T07:08:26.000Z</time></trkpt><trkpt lon="6.00804" lat="51.156426"><ele>13.2</ele><time>2022-05-08T07:08:27.000Z</time></trkpt><trkpt lon="6.008146" lat="51.156458"><ele>13</ele><time>2022-05-08T07:08:28.000Z</time></trkpt><trkpt lon="6.008251" lat="51.156489"><ele>12.8</ele><time>2022-05-08T07:08:29.000Z</time></trkpt><trkpt lon="6.008357" lat="51.156524"><ele>12.8</ele><time>2022-05-08T07:08:30.000Z</time></trkpt><trkpt lon="6.00846" lat="51.156559"><ele>12.6</ele><time>2022-05-08T07:08:31.000Z</time></trkpt><trkpt lon="6.008565" lat="51.156591"><ele>12.6</ele><time>2022-05-08T07:08:32.000Z</time></trkpt><trkpt lon="6.008676" lat="51.15662"><ele>12.6</ele><time>2022-05-08T07:08:33.000Z</time></trkpt><trkpt lon="6.008788" lat="51.156645"><ele>12.6</ele><time>2022-05-08T07:08:34.000Z</time></trkpt><trkpt lon="6.0089" lat="51.156666"><ele>12.6</ele><time>2022-05-08T07:08:35.000Z</time></trkpt><trkpt lon="6.009012" lat="51.156682"><ele>12.4</ele><time>2022-05-08T07:08:36.000Z</time></trkpt><trkpt lon="6.009126" lat="51.156698"><ele>12.4</ele><time>2022-05-08T07:08:37.000Z</time></trkpt><trkpt lon="6.00924" lat="51.156708"><ele>12.4</ele><time>2022-05-08T07:08:38.000Z</time></trkpt><trkpt lon="6.009352" lat="51.156718"><ele>12.4</ele><time>2022-05-08T07:08:39.000Z</time></trkpt><trkpt lon="6.009463" lat="51.156725"><ele>12.6</ele><time>2022-05-08T07:08:40.000Z</time></trkpt><trkpt lon="6.009574" lat="51.156731"><ele>12.6</ele><time>2022-05-08T07:08:41.000Z</time></trkpt><trkpt lon="6.009686" lat="51.156739"><ele>12.6</ele><time>2022-05-08T07:08:42.000Z</time></trkpt><trkpt lon="6.009798" lat="51.156744"><ele>12.6</ele><time>2022-05-08T07:08:43.000Z</time></trkpt><trkpt lon="6.009911" lat="51.156748"><ele>12.6</ele><time>2022-05-08T07:08:44.000Z</time></trkpt><trkpt lon="6.010024" lat="51.15675"><ele>12.6</ele><time>2022-05-08T07:08:45.000Z</time></trkpt><trkpt lon="6.010138" lat="51.156748"><ele>12.6</ele><time>2022-05-08T07:08:46.000Z</time></trkpt><trkpt lon="6.01025" lat="51.156741"><ele>12.4</ele><time>2022-05-08T07:08:47.000Z</time></trkpt><trkpt lon="6.010355" lat="51.156736"><ele>12.4</ele><time>2022-05-08T07:08:48.000Z</time></trkpt><trkpt lon="6.010467" lat="51.156731"><ele>12.6</ele><time>2022-05-08T07:08:49.000Z</time></trkpt><trkpt lon="6.010586" lat="51.156725"><ele>12.6</ele><time>2022-05-08T07:08:50.000Z</time></trkpt><trkpt lon="6.010693" lat="51.156719"><ele>12.8</ele><time>2022-05-08T07:08:51.000Z</time></trkpt><trkpt lon="6.0108" lat="51.156711"><ele>13</ele><time>2022-05-08T07:08:52.000Z</time></trkpt><trkpt lon="6.010907" lat="51.156703"><ele>13</ele><time>2022-05-08T07:08:53.000Z</time></trkpt><trkpt lon="6.011015" lat="51.156698"><ele>13</ele><time>2022-05-08T07:08:54.000Z</time></trkpt><trkpt lon="6.011124" lat="51.156694"><ele>13</ele><time>2022-05-08T07:08:55.000Z</time></trkpt><trkpt lon="6.011233" lat="51.15669"><ele>13.2</ele><time>2022-05-08T07:08:56.000Z</time></trkpt><trkpt lon="6.011342" lat="51.156686"><ele>13.4</ele><time>2022-05-08T07:08:57.000Z</time></trkpt><trkpt lon="6.011451" lat="51.15668"><ele>13.4</ele><time>2022-05-08T07:08:58.000Z</time></trkpt><trkpt lon="6.011561" lat="51.156675"><ele>13.6</ele><time>2022-05-08T07:08:59.000Z</time></trkpt><trkpt lon="6.011668" lat="51.156673"><ele>13.6</ele><time>2022-05-08T07:09:00.000Z</time></trkpt><trkpt lon="6.011772" lat="51.156673"><ele>13.8</ele><time>2022-05-08T07:09:01.000Z</time></trkpt><trkpt lon="6.011874" lat="51.156673"><ele>14.2</ele><time>2022-05-08T07:09:02.000Z</time></trkpt><trkpt lon="6.011977" lat="51.156673"><ele>14.2</ele><time>2022-05-08T07:09:03.000Z</time></trkpt><trkpt lon="6.012075" lat="51.156676"><ele>14.2</ele><time>2022-05-08T07:09:04.000Z</time></trkpt><trkpt lon="6.012172" lat="51.156684"><ele>14.4</ele><time>2022-05-08T07:09:05.000Z</time></trkpt><trkpt lon="6.012267" lat="51.156695"><ele>14.6</ele><time>2022-05-08T07:09:06.000Z</time></trkpt><trkpt lon="6.012363" lat="51.156709"><ele>15</ele><time>2022-05-08T07:09:07.000Z</time></trkpt><trkpt lon="6.01246" lat="51.156727"><ele>15</ele><time>2022-05-08T07:09:08.000Z</time></trkpt><trkpt lon="6.012555" lat="51.156743"><ele>15.2</ele><time>2022-05-08T07:09:09.000Z</time></trkpt><trkpt lon="6.012653" lat="51.156759"><ele>15.2</ele><time>2022-05-08T07:09:10.000Z</time></trkpt><trkpt lon="6.012751" lat="51.156776"><ele>15.4</ele><time>2022-05-08T07:09:11.000Z</time></trkpt><trkpt lon="6.012849" lat="51.156793"><ele>15.4</ele><time>2022-05-08T07:09:12.000Z</time></trkpt><trkpt lon="6.012946" lat="51.156806"><ele>15.6</ele><time>2022-05-08T07:09:13.000Z</time></trkpt><trkpt lon="6.013038" lat="51.156822"><ele>15.8</ele><time>2022-05-08T07:09:14.000Z</time></trkpt><trkpt lon="6.01313" lat="51.156839"><ele>15.8</ele><time>2022-05-08T07:09:15.000Z</time></trkpt><trkpt lon="6.013224" lat="51.156854"><ele>16</ele><time>2022-05-08T07:09:16.000Z</time></trkpt><trkpt lon="6.013321" lat="51.156869"><ele>16</ele><time>2022-05-08T07:09:17.000Z</time></trkpt><trkpt lon="6.013419" lat="51.156882"><ele>16.2</ele><time>2022-05-08T07:09:18.000Z</time></trkpt><trkpt lon="6.01352" lat="51.156896"><ele>16.2</ele><time>2022-05-08T07:09:19.000Z</time></trkpt><trkpt lon="6.013623" lat="51.156913"><ele>16.2</ele><time>2022-05-08T07:09:20.000Z</time></trkpt><trkpt lon="6.013728" lat="51.15693"><ele>16.2</ele><time>2022-05-08T07:09:21.000Z</time></trkpt><trkpt lon="6.013834" lat="51.156945"><ele>16.2</ele><time>2022-05-08T07:09:22.000Z</time></trkpt><trkpt lon="6.013939" lat="51.156961"><ele>16.2</ele><time>2022-05-08T07:09:23.000Z</time></trkpt><trkpt lon="6.014042" lat="51.156976"><ele>16</ele><time>2022-05-08T07:09:24.000Z</time></trkpt><trkpt lon="6.014146" lat="51.156991"><ele>16</ele><time>2022-05-08T07:09:25.000Z</time></trkpt><trkpt lon="6.014253" lat="51.157007"><ele>16.2</ele><time>2022-05-08T07:09:26.000Z</time></trkpt><trkpt lon="6.014362" lat="51.157024"><ele>16.2</ele><time>2022-05-08T07:09:27.000Z</time></trkpt><trkpt lon="6.01447" lat="51.157043"><ele>16.2</ele><time>2022-05-08T07:09:28.000Z</time></trkpt><trkpt lon="6.014577" lat="51.157062"><ele>16.4</ele><time>2022-05-08T07:09:29.000Z</time></trkpt><trkpt lon="6.014686" lat="51.157081"><ele>16.4</ele><time>2022-05-08T07:09:30.000Z</time></trkpt><trkpt lon="6.014793" lat="51.1571"><ele>16.4</ele><time>2022-05-08T07:09:31.000Z</time></trkpt><trkpt lon="6.014897" lat="51.157119"><ele>16.4</ele><time>2022-05-08T07:09:32.000Z</time></trkpt><trkpt lon="6.015001" lat="51.157141"><ele>16.4</ele><time>2022-05-08T07:09:33.000Z</time></trkpt><trkpt lon="6.015105" lat="51.157164"><ele>16.4</ele><time>2022-05-08T07:09:34.000Z</time></trkpt><trkpt lon="6.015208" lat="51.157187"><ele>16.4</ele><time>2022-05-08T07:09:35.000Z</time></trkpt><trkpt lon="6.015308" lat="51.157207"><ele>16.4</ele><time>2022-05-08T07:09:36.000Z</time></trkpt><trkpt lon="6.015407" lat="51.157231"><ele>16.4</ele><time>2022-05-08T07:09:37.000Z</time></trkpt><trkpt lon="6.01551" lat="51.157255"><ele>16.4</ele><time>2022-05-08T07:09:38.000Z</time></trkpt><trkpt lon="6.015616" lat="51.15728"><ele>16.4</ele><time>2022-05-08T07:09:39.000Z</time></trkpt><trkpt lon="6.015724" lat="51.157305"><ele>16.4</ele><time>2022-05-08T07:09:40.000Z</time></trkpt><trkpt lon="6.01583" lat="51.15733"><ele>16.4</ele><time>2022-05-08T07:09:41.000Z</time></trkpt><trkpt lon="6.015927" lat="51.157352"><ele>16.4</ele><time>2022-05-08T07:09:42.000Z</time></trkpt><trkpt lon="6.016026" lat="51.157373"><ele>16.4</ele><time>2022-05-08T07:09:43.000Z</time></trkpt><trkpt lon="6.016128" lat="51.157392"><ele>16.4</ele><time>2022-05-08T07:09:44.000Z</time></trkpt><trkpt lon="6.016233" lat="51.157412"><ele>16.4</ele><time>2022-05-08T07:09:45.000Z</time></trkpt><trkpt lon="6.016343" lat="51.157432"><ele>16.4</ele><time>2022-05-08T07:09:46.000Z</time></trkpt><trkpt lon="6.016454" lat="51.157454"><ele>16.2</ele><time>2022-05-08T07:09:47.000Z</time></trkpt><trkpt lon="6.016566" lat="51.157474"><ele>16.2</ele><time>2022-05-08T07:09:48.000Z</time></trkpt><trkpt lon="6.016679" lat="51.157491"><ele>16.2</ele><time>2022-05-08T07:09:49.000Z</time></trkpt><trkpt lon="6.016789" lat="51.157509"><ele>16.2</ele><time>2022-05-08T07:09:50.000Z</time></trkpt><trkpt lon="6.016894" lat="51.157525"><ele>16.2</ele><time>2022-05-08T07:09:51.000Z</time></trkpt><trkpt lon="6.016995" lat="51.157542"><ele>16.2</ele><time>2022-05-08T07:09:52.000Z</time></trkpt><trkpt lon="6.017099" lat="51.157561"><ele>16.2</ele><time>2022-05-08T07:09:53.000Z</time></trkpt><trkpt lon="6.017205" lat="51.157579"><ele>16.4</ele><time>2022-05-08T07:09:54.000Z</time></trkpt><trkpt lon="6.017312" lat="51.157596"><ele>16.4</ele><time>2022-05-08T07:09:55.000Z</time></trkpt><trkpt lon="6.017417" lat="51.157611"><ele>16.4</ele><time>2022-05-08T07:09:56.000Z</time></trkpt><trkpt lon="6.017522" lat="51.157624"><ele>16.4</ele><time>2022-05-08T07:09:57.000Z</time></trkpt><trkpt lon="6.017631" lat="51.15764"><ele>16.4</ele><time>2022-05-08T07:09:58.000Z</time></trkpt><trkpt lon="6.01774" lat="51.157657"><ele>16.4</ele><time>2022-05-08T07:09:59.000Z</time></trkpt><trkpt lon="6.017847" lat="51.157672"><ele>16.4</ele><time>2022-05-08T07:10:00.000Z</time></trkpt><trkpt lon="6.017956" lat="51.157688"><ele>16.4</ele><time>2022-05-08T07:10:01.000Z</time></trkpt><trkpt lon="6.018065" lat="51.157707"><ele>16.4</ele><time>2022-05-08T07:10:02.000Z</time></trkpt><trkpt lon="6.018173" lat="51.157724"><ele>16.4</ele><time>2022-05-08T07:10:03.000Z</time></trkpt><trkpt lon="6.018282" lat="51.157741"><ele>16.4</ele><time>2022-05-08T07:10:04.000Z</time></trkpt><trkpt lon="6.018388" lat="51.15776"><ele>16.4</ele><time>2022-05-08T07:10:05.000Z</time></trkpt><trkpt lon="6.018492" lat="51.157779"><ele>16.6</ele><time>2022-05-08T07:10:06.000Z</time></trkpt><trkpt lon="6.018597" lat="51.157801"><ele>16.6</ele><time>2022-05-08T07:10:07.000Z</time></trkpt><trkpt lon="6.018703" lat="51.157824"><ele>16.6</ele><time>2022-05-08T07:10:08.000Z</time></trkpt><trkpt lon="6.018808" lat="51.157846"><ele>16.8</ele><time>2022-05-08T07:10:09.000Z</time></trkpt><trkpt lon="6.018911" lat="51.157867"><ele>16.8</ele><time>2022-05-08T07:10:10.000Z</time></trkpt><trkpt lon="6.019012" lat="51.157888"><ele>16.8</ele><time>2022-05-08T07:10:11.000Z</time></trkpt><trkpt lon="6.019112" lat="51.157911"><ele>16.6</ele><time>2022-05-08T07:10:12.000Z</time></trkpt><trkpt lon="6.019219" lat="51.157932"><ele>16.6</ele><time>2022-05-08T07:10:13.000Z</time></trkpt><trkpt lon="6.019328" lat="51.157953"><ele>16.8</ele><time>2022-05-08T07:10:14.000Z</time></trkpt><trkpt lon="6.019433" lat="51.157974"><ele>16.8</ele><time>2022-05-08T07:10:15.000Z</time></trkpt><trkpt lon="6.019539" lat="51.157995"><ele>16.6</ele><time>2022-05-08T07:10:16.000Z</time></trkpt><trkpt lon="6.019646" lat="51.158016"><ele>16.6</ele><time>2022-05-08T07:10:17.000Z</time></trkpt><trkpt lon="6.019751" lat="51.158037"><ele>16.6</ele><time>2022-05-08T07:10:18.000Z</time></trkpt><trkpt lon="6.019857" lat="51.158058"><ele>16.6</ele><time>2022-05-08T07:10:19.000Z</time></trkpt><trkpt lon="6.019963" lat="51.158079"><ele>16.6</ele><time>2022-05-08T07:10:20.000Z</time></trkpt><trkpt lon="6.020068" lat="51.158102"><ele>16.8</ele><time>2022-05-08T07:10:21.000Z</time></trkpt><trkpt lon="6.020174" lat="51.158125"><ele>16.8</ele><time>2022-05-08T07:10:22.000Z</time></trkpt><trkpt lon="6.020281" lat="51.158148"><ele>16.8</ele><time>2022-05-08T07:10:23.000Z</time></trkpt><trkpt lon="6.020389" lat="51.158169"><ele>16.8</ele><time>2022-05-08T07:10:24.000Z</time></trkpt><trkpt lon="6.020495" lat="51.158188"><ele>16.8</ele><time>2022-05-08T07:10:25.000Z</time></trkpt><trkpt lon="6.020599" lat="51.158208"><ele>17</ele><time>2022-05-08T07:10:26.000Z</time></trkpt><trkpt lon="6.020708" lat="51.158234"><ele>17</ele><time>2022-05-08T07:10:27.000Z</time></trkpt><trkpt lon="6.020817" lat="51.158258"><ele>17.2</ele><time>2022-05-08T07:10:28.000Z</time></trkpt><trkpt lon="6.020925" lat="51.158281"><ele>17.2</ele><time>2022-05-08T07:10:29.000Z</time></trkpt><trkpt lon="6.021035" lat="51.158304"><ele>17.2</ele><time>2022-05-08T07:10:30.000Z</time></trkpt><trkpt lon="6.021145" lat="51.158327"><ele>17.2</ele><time>2022-05-08T07:10:31.000Z</time></trkpt><trkpt lon="6.021255" lat="51.15835"><ele>17.2</ele><time>2022-05-08T07:10:32.000Z</time></trkpt><trkpt lon="6.021364" lat="51.158373"><ele>17.2</ele><time>2022-05-08T07:10:33.000Z</time></trkpt><trkpt lon="6.021474" lat="51.158396"><ele>17</ele><time>2022-05-08T07:10:34.000Z</time></trkpt><trkpt lon="6.021583" lat="51.158419"><ele>17</ele><time>2022-05-08T07:10:35.000Z</time></trkpt><trkpt lon="6.021691" lat="51.158442"><ele>17</ele><time>2022-05-08T07:10:36.000Z</time></trkpt><trkpt lon="6.0218" lat="51.158464"><ele>17</ele><time>2022-05-08T07:10:37.000Z</time></trkpt><trkpt lon="6.021908" lat="51.158487"><ele>17</ele><time>2022-05-08T07:10:38.000Z</time></trkpt><trkpt lon="6.022016" lat="51.158512"><ele>17.2</ele><time>2022-05-08T07:10:39.000Z</time></trkpt><trkpt lon="6.022124" lat="51.158535"><ele>17.2</ele><time>2022-05-08T07:10:40.000Z</time></trkpt><trkpt lon="6.02223" lat="51.158556"><ele>17.2</ele><time>2022-05-08T07:10:41.000Z</time></trkpt><trkpt lon="6.022335" lat="51.158579"><ele>17.2</ele><time>2022-05-08T07:10:42.000Z</time></trkpt><trkpt lon="6.022439" lat="51.1586"><ele>17.2</ele><time>2022-05-08T07:10:43.000Z</time></trkpt><trkpt lon="6.022543" lat="51.158619"><ele>17.2</ele><time>2022-05-08T07:10:44.000Z</time></trkpt><trkpt lon="6.022646" lat="51.15864"><ele>17.2</ele><time>2022-05-08T07:10:45.000Z</time></trkpt><trkpt lon="6.022752" lat="51.158663"><ele>17.2</ele><time>2022-05-08T07:10:46.000Z</time></trkpt><trkpt lon="6.022859" lat="51.158683"><ele>17.2</ele><time>2022-05-08T07:10:47.000Z</time></trkpt><trkpt lon="6.022962" lat="51.158704"><ele>17.2</ele><time>2022-05-08T07:10:48.000Z</time></trkpt><trkpt lon="6.023066" lat="51.158728"><ele>17.2</ele><time>2022-05-08T07:10:49.000Z</time></trkpt><trkpt lon="6.023168" lat="51.158751"><ele>17.2</ele><time>2022-05-08T07:10:50.000Z</time></trkpt><trkpt lon="6.023272" lat="51.158774"><ele>17.2</ele><time>2022-05-08T07:10:51.000Z</time></trkpt><trkpt lon="6.023376" lat="51.158794"><ele>17.2</ele><time>2022-05-08T07:10:52.000Z</time></trkpt><trkpt lon="6.023479" lat="51.158815"><ele>17.4</ele><time>2022-05-08T07:10:53.000Z</time></trkpt><trkpt lon="6.023584" lat="51.158836"><ele>17.2</ele><time>2022-05-08T07:10:54.000Z</time></trkpt><trkpt lon="6.023688" lat="51.158857"><ele>17.4</ele><time>2022-05-08T07:10:55.000Z</time></trkpt><trkpt lon="6.023793" lat="51.15888"><ele>17.2</ele><time>2022-05-08T07:10:56.000Z</time></trkpt><trkpt lon="6.023902" lat="51.158903"><ele>17.2</ele><time>2022-05-08T07:10:57.000Z</time></trkpt><trkpt lon="6.024012" lat="51.158926"><ele>17.2</ele><time>2022-05-08T07:10:58.000Z</time></trkpt><trkpt lon="6.024122" lat="51.158949"><ele>17.2</ele><time>2022-05-08T07:10:59.000Z</time></trkpt><trkpt lon="6.02423" lat="51.158972"><ele>17.2</ele><time>2022-05-08T07:11:00.000Z</time></trkpt><trkpt lon="6.024336" lat="51.158995"><ele>17.2</ele><time>2022-05-08T07:11:01.000Z</time></trkpt><trkpt lon="6.024433" lat="51.159018"><ele>17.2</ele><time>2022-05-08T07:11:02.000Z</time></trkpt><trkpt lon="6.024538" lat="51.159042"><ele>17.2</ele><time>2022-05-08T07:11:03.000Z</time></trkpt><trkpt lon="6.024653" lat="51.159067"><ele>17.2</ele><time>2022-05-08T07:11:04.000Z</time></trkpt><trkpt lon="6.024758" lat="51.159092"><ele>17</ele><time>2022-05-08T07:11:05.000Z</time></trkpt><trkpt lon="6.024863" lat="51.159121"><ele>17</ele><time>2022-05-08T07:11:06.000Z</time></trkpt><trkpt lon="6.024965" lat="51.159152"><ele>16.8</ele><time>2022-05-08T07:11:07.000Z</time></trkpt><trkpt lon="6.025062" lat="51.159182"><ele>16.6</ele><time>2022-05-08T07:11:08.000Z</time></trkpt><trkpt lon="6.02516" lat="51.159217"><ele>16.6</ele><time>2022-05-08T07:11:09.000Z</time></trkpt><trkpt lon="6.025261" lat="51.159251"><ele>16.6</ele><time>2022-05-08T07:11:10.000Z</time></trkpt><trkpt lon="6.025363" lat="51.159286"><ele>16.4</ele><time>2022-05-08T07:11:11.000Z</time></trkpt><trkpt lon="6.025467" lat="51.159322"><ele>16.4</ele><time>2022-05-08T07:11:12.000Z</time></trkpt><trkpt lon="6.025571" lat="51.159356"><ele>16.2</ele><time>2022-05-08T07:11:13.000Z</time></trkpt><trkpt lon="6.025677" lat="51.159393"><ele>16</ele><time>2022-05-08T07:11:14.000Z</time></trkpt><trkpt lon="6.025783" lat="51.159431"><ele>15.8</ele><time>2022-05-08T07:11:15.000Z</time></trkpt><trkpt lon="6.025884" lat="51.159469"><ele>15.8</ele><time>2022-05-08T07:11:16.000Z</time></trkpt><trkpt lon="6.025981" lat="51.159509"><ele>15.6</ele><time>2022-05-08T07:11:17.000Z</time></trkpt><trkpt lon="6.026077" lat="51.159549"><ele>15.6</ele><time>2022-05-08T07:11:18.000Z</time></trkpt><trkpt lon="6.026172" lat="51.15959"><ele>15.6</ele><time>2022-05-08T07:11:19.000Z</time></trkpt><trkpt lon="6.026267" lat="51.159634"><ele>15.4</ele><time>2022-05-08T07:11:20.000Z</time></trkpt><trkpt lon="6.026358" lat="51.159679"><ele>15.4</ele><time>2022-05-08T07:11:21.000Z</time></trkpt><trkpt lon="6.02645" lat="51.159725"><ele>15.4</ele><time>2022-05-08T07:11:22.000Z</time></trkpt><trkpt lon="6.026544" lat="51.159771"><ele>15.4</ele><time>2022-05-08T07:11:23.000Z</time></trkpt><trkpt lon="6.026636" lat="51.159815"><ele>15.6</ele><time>2022-05-08T07:11:24.000Z</time></trkpt><trkpt lon="6.026725" lat="51.159857"><ele>15.6</ele><time>2022-05-08T07:11:25.000Z</time></trkpt><trkpt lon="6.026819" lat="51.159903"><ele>15.6</ele><time>2022-05-08T07:11:26.000Z</time></trkpt><trkpt lon="6.026914" lat="51.159948"><ele>15.6</ele><time>2022-05-08T07:11:27.000Z</time></trkpt><trkpt lon="6.027011" lat="51.159988"><ele>15.6</ele><time>2022-05-08T07:11:28.000Z</time></trkpt><trkpt lon="6.027111" lat="51.160024"><ele>15.6</ele><time>2022-05-08T07:11:29.000Z</time></trkpt><trkpt lon="6.027216" lat="51.160054"><ele>15.4</ele><time>2022-05-08T07:11:30.000Z</time></trkpt><trkpt lon="6.027322" lat="51.160078"><ele>15.6</ele><time>2022-05-08T07:11:31.000Z</time></trkpt><trkpt lon="6.027431" lat="51.160098"><ele>15.6</ele><time>2022-05-08T07:11:32.000Z</time></trkpt><trkpt lon="6.027543" lat="51.160115"><ele>15.6</ele><time>2022-05-08T07:11:33.000Z</time></trkpt><trkpt lon="6.027657" lat="51.160128"><ele>15.6</ele><time>2022-05-08T07:11:34.000Z</time></trkpt><trkpt lon="6.027771" lat="51.16014"><ele>15.6</ele><time>2022-05-08T07:11:35.000Z</time></trkpt><trkpt lon="6.027882" lat="51.160149"><ele>15.6</ele><time>2022-05-08T07:11:36.000Z</time></trkpt><trkpt lon="6.027989" lat="51.160155"><ele>15.6</ele><time>2022-05-08T07:11:37.000Z</time></trkpt><trkpt lon="6.028099" lat="51.160161"><ele>15.6</ele><time>2022-05-08T07:11:38.000Z</time></trkpt><trkpt lon="6.028205" lat="51.160168"><ele>15.8</ele><time>2022-05-08T07:11:39.000Z</time></trkpt><trkpt lon="6.028314" lat="51.160176"><ele>15.8</ele><time>2022-05-08T07:11:40.000Z</time></trkpt><trkpt lon="6.028426" lat="51.160186"><ele>15.8</ele><time>2022-05-08T07:11:41.000Z</time></trkpt><trkpt lon="6.028535" lat="51.160195"><ele>15.8</ele><time>2022-05-08T07:11:42.000Z</time></trkpt><trkpt lon="6.028642" lat="51.160205"><ele>16</ele><time>2022-05-08T07:11:43.000Z</time></trkpt><trkpt lon="6.028748" lat="51.160214"><ele>16</ele><time>2022-05-08T07:11:44.000Z</time></trkpt><trkpt lon="6.028854" lat="51.160222"><ele>16</ele><time>2022-05-08T07:11:45.000Z</time></trkpt><trkpt lon="6.02896" lat="51.160229"><ele>16</ele><time>2022-05-08T07:11:46.000Z</time></trkpt><trkpt lon="6.029066" lat="51.160237"><ele>16</ele><time>2022-05-08T07:11:47.000Z</time></trkpt><trkpt lon="6.029171" lat="51.160242"><ele>16</ele><time>2022-05-08T07:11:48.000Z</time></trkpt><trkpt lon="6.029277" lat="51.160246"><ele>16</ele><time>2022-05-08T07:11:49.000Z</time></trkpt><trkpt lon="6.029384" lat="51.16025"><ele>16.2</ele><time>2022-05-08T07:11:50.000Z</time></trkpt><trkpt lon="6.029492" lat="51.160252"><ele>16.2</ele><time>2022-05-08T07:11:51.000Z</time></trkpt><trkpt lon="6.029599" lat="51.160254"><ele>16.2</ele><time>2022-05-08T07:11:52.000Z</time></trkpt><trkpt lon="6.029709" lat="51.160253"><ele>16.4</ele><time>2022-05-08T07:11:53.000Z</time></trkpt><trkpt lon="6.029818" lat="51.160252"><ele>16.4</ele><time>2022-05-08T07:11:54.000Z</time></trkpt><trkpt lon="6.029925" lat="51.160247"><ele>16.4</ele><time>2022-05-08T07:11:55.000Z</time></trkpt><trkpt lon="6.030032" lat="51.160242"><ele>16.6</ele><time>2022-05-08T07:11:56.000Z</time></trkpt><trkpt lon="6.030139" lat="51.160236"><ele>16.6</ele><time>2022-05-08T07:11:57.000Z</time></trkpt><trkpt lon="6.030249" lat="51.160228"><ele>16.6</ele><time>2022-05-08T07:11:58.000Z</time></trkpt><trkpt lon="6.03036" lat="51.160218"><ele>16.6</ele><time>2022-05-08T07:11:59.000Z</time></trkpt><trkpt lon="6.030467" lat="51.160207"><ele>16.6</ele><time>2022-05-08T07:12:00.000Z</time></trkpt><trkpt lon="6.030573" lat="51.160193"><ele>16.6</ele><time>2022-05-08T07:12:01.000Z</time></trkpt><trkpt lon="6.030679" lat="51.160178"><ele>16.8</ele><time>2022-05-08T07:12:02.000Z</time></trkpt><trkpt lon="6.030785" lat="51.16016"><ele>16.8</ele><time>2022-05-08T07:12:03.000Z</time></trkpt><trkpt lon="6.03089" lat="51.160139"><ele>16.8</ele><time>2022-05-08T07:12:04.000Z</time></trkpt><trkpt lon="6.030995" lat="51.160116"><ele>16.8</ele><time>2022-05-08T07:12:05.000Z</time></trkpt><trkpt lon="6.031096" lat="51.160091"><ele>16.8</ele><time>2022-05-08T07:12:06.000Z</time></trkpt><trkpt lon="6.031197" lat="51.160064"><ele>16.8</ele><time>2022-05-08T07:12:07.000Z</time></trkpt><trkpt lon="6.031297" lat="51.160038"><ele>16.8</ele><time>2022-05-08T07:12:08.000Z</time></trkpt><trkpt lon="6.031395" lat="51.160011"><ele>16.8</ele><time>2022-05-08T07:12:09.000Z</time></trkpt><trkpt lon="6.031493" lat="51.159984"><ele>17</ele><time>2022-05-08T07:12:10.000Z</time></trkpt><trkpt lon="6.031589" lat="51.15996"><ele>17</ele><time>2022-05-08T07:12:11.000Z</time></trkpt><trkpt lon="6.031683" lat="51.159939"><ele>17</ele><time>2022-05-08T07:12:12.000Z</time></trkpt><trkpt lon="6.03178" lat="51.15992"><ele>17.2</ele><time>2022-05-08T07:12:13.000Z</time></trkpt><trkpt lon="6.031883" lat="51.15991"><ele>17.2</ele><time>2022-05-08T07:12:14.000Z</time></trkpt><trkpt lon="6.031989" lat="51.159908"><ele>17.2</ele><time>2022-05-08T07:12:15.000Z</time></trkpt><trkpt lon="6.032095" lat="51.159908"><ele>17</ele><time>2022-05-08T07:12:16.000Z</time></trkpt><trkpt lon="6.032204" lat="51.159908"><ele>17</ele><time>2022-05-08T07:12:17.000Z</time></trkpt><trkpt lon="6.032319" lat="51.159908"><ele>17</ele><time>2022-05-08T07:12:18.000Z</time></trkpt><trkpt lon="6.032433" lat="51.159908"><ele>17</ele><time>2022-05-08T07:12:19.000Z</time></trkpt><trkpt lon="6.032543" lat="51.159911"><ele>17</ele><time>2022-05-08T07:12:20.000Z</time></trkpt><trkpt lon="6.03265" lat="51.159919"><ele>17</ele><time>2022-05-08T07:12:21.000Z</time></trkpt><trkpt lon="6.03275" lat="51.159928"><ele>17</ele><time>2022-05-08T07:12:22.000Z</time></trkpt><trkpt lon="6.03285" lat="51.159938"><ele>17.2</ele><time>2022-05-08T07:12:23.000Z</time></trkpt><trkpt lon="6.032946" lat="51.159949"><ele>17.2</ele><time>2022-05-08T07:12:24.000Z</time></trkpt><trkpt lon="6.033032" lat="51.159963"><ele>17.4</ele><time>2022-05-08T07:12:25.000Z</time></trkpt><trkpt lon="6.033109" lat="51.159976"><ele>17.4</ele><time>2022-05-08T07:12:26.000Z</time></trkpt><trkpt lon="6.033179" lat="51.159985"><ele>17.4</ele><time>2022-05-08T07:12:27.000Z</time></trkpt><trkpt lon="6.033248" lat="51.159993"><ele>17.4</ele><time>2022-05-08T07:12:28.000Z</time></trkpt><trkpt lon="6.033314" lat="51.159992"><ele>17.4</ele><time>2022-05-08T07:12:29.000Z</time></trkpt><trkpt lon="6.033376" lat="51.159982"><ele>17.6</ele><time>2022-05-08T07:12:30.000Z</time></trkpt><trkpt lon="6.033438" lat="51.159975"><ele>17.6</ele><time>2022-05-08T07:12:31.000Z</time></trkpt><trkpt lon="6.033503" lat="51.159977"><ele>17.4</ele><time>2022-05-08T07:12:32.000Z</time></trkpt><trkpt lon="6.033575" lat="51.159985"><ele>17.2</ele><time>2022-05-08T07:12:33.000Z</time></trkpt><trkpt lon="6.033659" lat="51.159997"><ele>17.2</ele><time>2022-05-08T07:12:34.000Z</time></trkpt><trkpt lon="6.033756" lat="51.16001"><ele>17.2</ele><time>2022-05-08T07:12:35.000Z</time></trkpt><trkpt lon="6.033862" lat="51.16002"><ele>17.2</ele><time>2022-05-08T07:12:36.000Z</time></trkpt><trkpt lon="6.033971" lat="51.160025"><ele>17</ele><time>2022-05-08T07:12:37.000Z</time></trkpt><trkpt lon="6.034083" lat="51.160029"><ele>17</ele><time>2022-05-08T07:12:38.000Z</time></trkpt><trkpt lon="6.034204" lat="51.160035"><ele>17</ele><time>2022-05-08T07:12:39.000Z</time></trkpt><trkpt lon="6.034328" lat="51.160038"><ele>17</ele><time>2022-05-08T07:12:40.000Z</time></trkpt><trkpt lon="6.034456" lat="51.160036"><ele>17</ele><time>2022-05-08T07:12:41.000Z</time></trkpt><trkpt lon="6.034585" lat="51.160032"><ele>16.8</ele><time>2022-05-08T07:12:42.000Z</time></trkpt><trkpt lon="6.034712" lat="51.160024"><ele>16.8</ele><time>2022-05-08T07:12:43.000Z</time></trkpt><trkpt lon="6.034839" lat="51.160012"><ele>16.6</ele><time>2022-05-08T07:12:44.000Z</time></trkpt><trkpt lon="6.034958" lat="51.159998"><ele>16.4</ele><time>2022-05-08T07:12:45.000Z</time></trkpt><trkpt lon="6.03507" lat="51.159983"><ele>16.2</ele><time>2022-05-08T07:12:46.000Z</time></trkpt><trkpt lon="6.035181" lat="51.159968"><ele>15.8</ele><time>2022-05-08T07:12:47.000Z</time></trkpt><trkpt lon="6.035298" lat="51.159953"><ele>15.6</ele><time>2022-05-08T07:12:48.000Z</time></trkpt><trkpt lon="6.035423" lat="51.159935"><ele>15.6</ele><time>2022-05-08T07:12:49.000Z</time></trkpt><trkpt lon="6.035543" lat="51.159914"><ele>15.4</ele><time>2022-05-08T07:12:50.000Z</time></trkpt><trkpt lon="6.035648" lat="51.159891"><ele>15.4</ele><time>2022-05-08T07:12:51.000Z</time></trkpt><trkpt lon="6.035747" lat="51.159867"><ele>15.4</ele><time>2022-05-08T07:12:52.000Z</time></trkpt><trkpt lon="6.035849" lat="51.159835"><ele>15.2</ele><time>2022-05-08T07:12:53.000Z</time></trkpt><trkpt lon="6.035951" lat="51.159805"><ele>15.2</ele><time>2022-05-08T07:12:54.000Z</time></trkpt><trkpt lon="6.036053" lat="51.159776"><ele>15.4</ele><time>2022-05-08T07:12:55.000Z</time></trkpt><trkpt lon="6.03615" lat="51.159748"><ele>15.2</ele><time>2022-05-08T07:12:56.000Z</time></trkpt><trkpt lon="6.036235" lat="51.159723"><ele>15.2</ele><time>2022-05-08T07:12:57.000Z</time></trkpt><trkpt lon="6.036319" lat="51.159701"><ele>15</ele><time>2022-05-08T07:12:58.000Z</time></trkpt><trkpt lon="6.036409" lat="51.159675"><ele>14.8</ele><time>2022-05-08T07:12:59.000Z</time></trkpt><trkpt lon="6.0365" lat="51.159648"><ele>14.8</ele><time>2022-05-08T07:13:00.000Z</time></trkpt><trkpt lon="6.036598" lat="51.159622"><ele>15</ele><time>2022-05-08T07:13:01.000Z</time></trkpt><trkpt lon="6.036695" lat="51.1596"><ele>15</ele><time>2022-05-08T07:13:02.000Z</time></trkpt><trkpt lon="6.036788" lat="51.159578"><ele>15</ele><time>2022-05-08T07:13:03.000Z</time></trkpt><trkpt lon="6.036879" lat="51.159551"><ele>15</ele><time>2022-05-08T07:13:04.000Z</time></trkpt><trkpt lon="6.036964" lat="51.15952"><ele>15</ele><time>2022-05-08T07:13:05.000Z</time></trkpt><trkpt lon="6.037048" lat="51.159488"><ele>15.2</ele><time>2022-05-08T07:13:06.000Z</time></trkpt><trkpt lon="6.03713" lat="51.159456"><ele>15.2</ele><time>2022-05-08T07:13:07.000Z</time></trkpt><trkpt lon="6.037211" lat="51.159427"><ele>15.2</ele><time>2022-05-08T07:13:08.000Z</time></trkpt><trkpt lon="6.037295" lat="51.159404"><ele>15.4</ele><time>2022-05-08T07:13:09.000Z</time></trkpt><trkpt lon="6.037383" lat="51.159379"><ele>15.4</ele><time>2022-05-08T07:13:10.000Z</time></trkpt><trkpt lon="6.037478" lat="51.159352"><ele>15.4</ele><time>2022-05-08T07:13:11.000Z</time></trkpt><trkpt lon="6.037576" lat="51.159325"><ele>15.6</ele><time>2022-05-08T07:13:12.000Z</time></trkpt><trkpt lon="6.037677" lat="51.159295"><ele>15.6</ele><time>2022-05-08T07:13:13.000Z</time></trkpt><trkpt lon="6.037779" lat="51.159265"><ele>15.6</ele><time>2022-05-08T07:13:14.000Z</time></trkpt><trkpt lon="6.037874" lat="51.159237"><ele>15.6</ele><time>2022-05-08T07:13:15.000Z</time></trkpt><trkpt lon="6.037961" lat="51.159212"><ele>15.8</ele><time>2022-05-08T07:13:16.000Z</time></trkpt><trkpt lon="6.038048" lat="51.159187"><ele>15.8</ele><time>2022-05-08T07:13:17.000Z</time></trkpt><trkpt lon="6.038136" lat="51.15916"><ele>16</ele><time>2022-05-08T07:13:18.000Z</time></trkpt><trkpt lon="6.038236" lat="51.159131"><ele>16.2</ele><time>2022-05-08T07:13:19.000Z</time></trkpt><trkpt lon="6.038337" lat="51.159103"><ele>16.2</ele><time>2022-05-08T07:13:20.000Z</time></trkpt><trkpt lon="6.03843" lat="51.159077"><ele>16.4</ele><time>2022-05-08T07:13:21.000Z</time></trkpt><trkpt lon="6.038524" lat="51.15905"><ele>16.6</ele><time>2022-05-08T07:13:22.000Z</time></trkpt><trkpt lon="6.038624" lat="51.159023"><ele>16.6</ele><time>2022-05-08T07:13:23.000Z</time></trkpt><trkpt lon="6.038723" lat="51.158994"><ele>16.8</ele><time>2022-05-08T07:13:24.000Z</time></trkpt><trkpt lon="6.038817" lat="51.158964"><ele>17</ele><time>2022-05-08T07:13:25.000Z</time></trkpt><trkpt lon="6.038909" lat="51.158935"><ele>17</ele><time>2022-05-08T07:13:26.000Z</time></trkpt><trkpt lon="6.039003" lat="51.158904"><ele>17.2</ele><time>2022-05-08T07:13:27.000Z</time></trkpt><trkpt lon="6.039098" lat="51.158874"><ele>17.2</ele><time>2022-05-08T07:13:28.000Z</time></trkpt><trkpt lon="6.039189" lat="51.158845"><ele>17.4</ele><time>2022-05-08T07:13:29.000Z</time></trkpt><trkpt lon="6.039278" lat="51.158815"><ele>17.6</ele><time>2022-05-08T07:13:30.000Z</time></trkpt><trkpt lon="6.039367" lat="51.158784"><ele>17.8</ele><time>2022-05-08T07:13:31.000Z</time></trkpt><trkpt lon="6.039456" lat="51.158752"><ele>17.8</ele><time>2022-05-08T07:13:32.000Z</time></trkpt><trkpt lon="6.039544" lat="51.15872"><ele>18</ele><time>2022-05-08T07:13:33.000Z</time></trkpt><trkpt lon="6.039634" lat="51.158689"><ele>18</ele><time>2022-05-08T07:13:34.000Z</time></trkpt><trkpt lon="6.039723" lat="51.158658"><ele>18.2</ele><time>2022-05-08T07:13:35.000Z</time></trkpt><trkpt lon="6.039814" lat="51.15863"><ele>18.2</ele><time>2022-05-08T07:13:36.000Z</time></trkpt><trkpt lon="6.039905" lat="51.158603"><ele>18.4</ele><time>2022-05-08T07:13:37.000Z</time></trkpt><trkpt lon="6.039996" lat="51.158579"><ele>18.4</ele><time>2022-05-08T07:13:38.000Z</time></trkpt><trkpt lon="6.040085" lat="51.158556"><ele>18.6</ele><time>2022-05-08T07:13:39.000Z</time></trkpt><trkpt lon="6.04017" lat="51.158533"><ele>18.8</ele><time>2022-05-08T07:13:40.000Z</time></trkpt><trkpt lon="6.040253" lat="51.158512"><ele>18.8</ele><time>2022-05-08T07:13:41.000Z</time></trkpt><trkpt lon="6.040338" lat="51.158493"><ele>18.8</ele><time>2022-05-08T07:13:42.000Z</time></trkpt><trkpt lon="6.040429" lat="51.158472"><ele>19</ele><time>2022-05-08T07:13:43.000Z</time></trkpt><trkpt lon="6.040516" lat="51.158449"><ele>19</ele><time>2022-05-08T07:13:44.000Z</time></trkpt><trkpt lon="6.040604" lat="51.158429"><ele>19</ele><time>2022-05-08T07:13:45.000Z</time></trkpt><trkpt lon="6.040704" lat="51.158407"><ele>19</ele><time>2022-05-08T07:13:46.000Z</time></trkpt><trkpt lon="6.040808" lat="51.158384"><ele>19</ele><time>2022-05-08T07:13:47.000Z</time></trkpt><trkpt lon="6.040907" lat="51.158363"><ele>19</ele><time>2022-05-08T07:13:48.000Z</time></trkpt><trkpt lon="6.041002" lat="51.158342"><ele>19</ele><time>2022-05-08T07:13:49.000Z</time></trkpt><trkpt lon="6.041098" lat="51.158319"><ele>19</ele><time>2022-05-08T07:13:50.000Z</time></trkpt><trkpt lon="6.041192" lat="51.158297"><ele>19.2</ele><time>2022-05-08T07:13:51.000Z</time></trkpt><trkpt lon="6.041278" lat="51.158276"><ele>19.4</ele><time>2022-05-08T07:13:52.000Z</time></trkpt><trkpt lon="6.041355" lat="51.158255"><ele>19.4</ele><time>2022-05-08T07:13:53.000Z</time></trkpt><trkpt lon="6.04144" lat="51.158236"><ele>19.6</ele><time>2022-05-08T07:13:54.000Z</time></trkpt><trkpt lon="6.041529" lat="51.158221"><ele>19.6</ele><time>2022-05-08T07:13:55.000Z</time></trkpt><trkpt lon="6.041618" lat="51.158206"><ele>19.6</ele><time>2022-05-08T07:13:56.000Z</time></trkpt><trkpt lon="6.041709" lat="51.158188"><ele>19.6</ele><time>2022-05-08T07:13:57.000Z</time></trkpt><trkpt lon="6.041802" lat="51.158178"><ele>19.6</ele><time>2022-05-08T07:13:58.000Z</time></trkpt><trkpt lon="6.041898" lat="51.158172"><ele>19.6</ele><time>2022-05-08T07:13:59.000Z</time></trkpt><trkpt lon="6.042001" lat="51.158162"><ele>19.8</ele><time>2022-05-08T07:14:00.000Z</time></trkpt><trkpt lon="6.042104" lat="51.158151"><ele>19.8</ele><time>2022-05-08T07:14:01.000Z</time></trkpt><trkpt lon="6.042207" lat="51.158135"><ele>19.8</ele><time>2022-05-08T07:14:02.000Z</time></trkpt><trkpt lon="6.042311" lat="51.158118"><ele>19.8</ele><time>2022-05-08T07:14:03.000Z</time></trkpt><trkpt lon="6.042422" lat="51.1581"><ele>19.8</ele><time>2022-05-08T07:14:04.000Z</time></trkpt><trkpt lon="6.042547" lat="51.158079"><ele>19.8</ele><time>2022-05-08T07:14:05.000Z</time></trkpt><trkpt lon="6.042668" lat="51.158056"><ele>19.8</ele><time>2022-05-08T07:14:06.000Z</time></trkpt><trkpt lon="6.042784" lat="51.158038"><ele>19.8</ele><time>2022-05-08T07:14:07.000Z</time></trkpt><trkpt lon="6.042896" lat="51.158018"><ele>19.8</ele><time>2022-05-08T07:14:08.000Z</time></trkpt><trkpt lon="6.043013" lat="51.157998"><ele>19.8</ele><time>2022-05-08T07:14:09.000Z</time></trkpt><trkpt lon="6.043135" lat="51.157978"><ele>19.8</ele><time>2022-05-08T07:14:10.000Z</time></trkpt><trkpt lon="6.043255" lat="51.157959"><ele>19.6</ele><time>2022-05-08T07:14:11.000Z</time></trkpt><trkpt lon="6.043369" lat="51.157942"><ele>19.6</ele><time>2022-05-08T07:14:12.000Z</time></trkpt><trkpt lon="6.043477" lat="51.157927"><ele>19.6</ele><time>2022-05-08T07:14:13.000Z</time></trkpt><trkpt lon="6.043576" lat="51.157912"><ele>19.6</ele><time>2022-05-08T07:14:14.000Z</time></trkpt><trkpt lon="6.043669" lat="51.157897"><ele>19.6</ele><time>2022-05-08T07:14:15.000Z</time></trkpt><trkpt lon="6.04376" lat="51.157884"><ele>19.4</ele><time>2022-05-08T07:14:16.000Z</time></trkpt><trkpt lon="6.04385" lat="51.157872"><ele>19.4</ele><time>2022-05-08T07:14:17.000Z</time></trkpt><trkpt lon="6.043938" lat="51.157859"><ele>19.2</ele><time>2022-05-08T07:14:18.000Z</time></trkpt><trkpt lon="6.044022" lat="51.157843"><ele>19.2</ele><time>2022-05-08T07:14:19.000Z</time></trkpt><trkpt lon="6.044103" lat="51.157828"><ele>19.2</ele><time>2022-05-08T07:14:20.000Z</time></trkpt><trkpt lon="6.04418" lat="51.157815"><ele>19.4</ele><time>2022-05-08T07:14:21.000Z</time></trkpt><trkpt lon="6.044262" lat="51.157801"><ele>19.4</ele><time>2022-05-08T07:14:22.000Z</time></trkpt><trkpt lon="6.044347" lat="51.15779"><ele>19.4</ele><time>2022-05-08T07:14:23.000Z</time></trkpt><trkpt lon="6.044441" lat="51.157776"><ele>19.2</ele><time>2022-05-08T07:14:24.000Z</time></trkpt><trkpt lon="6.044538" lat="51.157759"><ele>19.2</ele><time>2022-05-08T07:14:25.000Z</time></trkpt><trkpt lon="6.044641" lat="51.15774"><ele>19.4</ele><time>2022-05-08T07:14:26.000Z</time></trkpt><trkpt lon="6.044754" lat="51.157715"><ele>19.4</ele><time>2022-05-08T07:14:27.000Z</time></trkpt><trkpt lon="6.044863" lat="51.157692"><ele>19.4</ele><time>2022-05-08T07:14:28.000Z</time></trkpt><trkpt lon="6.044973" lat="51.157671"><ele>19.4</ele><time>2022-05-08T07:14:29.000Z</time></trkpt><trkpt lon="6.045093" lat="51.157646"><ele>19.4</ele><time>2022-05-08T07:14:30.000Z</time></trkpt><trkpt lon="6.045223" lat="51.157617"><ele>19.4</ele><time>2022-05-08T07:14:31.000Z</time></trkpt><trkpt lon="6.045358" lat="51.157589"><ele>19.4</ele><time>2022-05-08T07:14:32.000Z</time></trkpt><trkpt lon="6.045494" lat="51.157566"><ele>19.4</ele><time>2022-05-08T07:14:33.000Z</time></trkpt><trkpt lon="6.045643" lat="51.15754"><ele>19.4</ele><time>2022-05-08T07:14:34.000Z</time></trkpt><trkpt lon="6.045793" lat="51.157514"><ele>19.2</ele><time>2022-05-08T07:14:35.000Z</time></trkpt><trkpt lon="6.045934" lat="51.157494"><ele>19.2</ele><time>2022-05-08T07:14:36.000Z</time></trkpt><trkpt lon="6.04607" lat="51.157477"><ele>19.2</ele><time>2022-05-08T07:14:37.000Z</time></trkpt><trkpt lon="6.046201" lat="51.157464"><ele>19.2</ele><time>2022-05-08T07:14:38.000Z</time></trkpt><trkpt lon="6.046318" lat="51.157455"><ele>19.2</ele><time>2022-05-08T07:14:39.000Z</time></trkpt><trkpt lon="6.046425" lat="51.157449"><ele>19.2</ele><time>2022-05-08T07:14:40.000Z</time></trkpt><trkpt lon="6.046533" lat="51.157443"><ele>19.2</ele><time>2022-05-08T07:14:41.000Z</time></trkpt><trkpt lon="6.046643" lat="51.157438"><ele>19</ele><time>2022-05-08T07:14:42.000Z</time></trkpt><trkpt lon="6.046754" lat="51.157432"><ele>19</ele><time>2022-05-08T07:14:43.000Z</time></trkpt><trkpt lon="6.046867" lat="51.157422"><ele>19</ele><time>2022-05-08T07:14:44.000Z</time></trkpt><trkpt lon="6.046985" lat="51.157413"><ele>19</ele><time>2022-05-08T07:14:45.000Z</time></trkpt><trkpt lon="6.047099" lat="51.157405"><ele>19</ele><time>2022-05-08T07:14:46.000Z</time></trkpt><trkpt lon="6.047209" lat="51.1574"><ele>19</ele><time>2022-05-08T07:14:47.000Z</time></trkpt><trkpt lon="6.047319" lat="51.157396"><ele>19</ele><time>2022-05-08T07:14:48.000Z</time></trkpt><trkpt lon="6.04743" lat="51.15739"><ele>19</ele><time>2022-05-08T07:14:49.000Z</time></trkpt><trkpt lon="6.047539" lat="51.15738"><ele>18.8</ele><time>2022-05-08T07:14:50.000Z</time></trkpt><trkpt lon="6.047649" lat="51.157373"><ele>18.8</ele><time>2022-05-08T07:14:51.000Z</time></trkpt><trkpt lon="6.047757" lat="51.157369"><ele>18.8</ele><time>2022-05-08T07:14:52.000Z</time></trkpt><trkpt lon="6.047866" lat="51.157365"><ele>18.8</ele><time>2022-05-08T07:14:53.000Z</time></trkpt><trkpt lon="6.047977" lat="51.157362"><ele>18.8</ele><time>2022-05-08T07:14:54.000Z</time></trkpt><trkpt lon="6.048091" lat="51.157358"><ele>18.6</ele><time>2022-05-08T07:14:55.000Z</time></trkpt><trkpt lon="6.048205" lat="51.157352"><ele>18.6</ele><time>2022-05-08T07:14:56.000Z</time></trkpt><trkpt lon="6.048318" lat="51.157344"><ele>18.6</ele><time>2022-05-08T07:14:57.000Z</time></trkpt><trkpt lon="6.04843" lat="51.157337"><ele>18.6</ele><time>2022-05-08T07:14:58.000Z</time></trkpt><trkpt lon="6.048545" lat="51.157327"><ele>18.6</ele><time>2022-05-08T07:14:59.000Z</time></trkpt><trkpt lon="6.048659" lat="51.157317"><ele>18.6</ele><time>2022-05-08T07:15:00.000Z</time></trkpt><trkpt lon="6.048775" lat="51.157308"><ele>18.6</ele><time>2022-05-08T07:15:01.000Z</time></trkpt><trkpt lon="6.048894" lat="51.157294"><ele>18.6</ele><time>2022-05-08T07:15:02.000Z</time></trkpt><trkpt lon="6.049011" lat="51.157277"><ele>18.8</ele><time>2022-05-08T07:15:03.000Z</time></trkpt><trkpt lon="6.049125" lat="51.15726"><ele>18.8</ele><time>2022-05-08T07:15:04.000Z</time></trkpt><trkpt lon="6.049239" lat="51.157242"><ele>18.8</ele><time>2022-05-08T07:15:05.000Z</time></trkpt><trkpt lon="6.049348" lat="51.157221"><ele>18.6</ele><time>2022-05-08T07:15:06.000Z</time></trkpt><trkpt lon="6.049458" lat="51.157201"><ele>18.6</ele><time>2022-05-08T07:15:07.000Z</time></trkpt><trkpt lon="6.049571" lat="51.157179"><ele>18.6</ele><time>2022-05-08T07:15:08.000Z</time></trkpt><trkpt lon="6.04968" lat="51.157156"><ele>18.6</ele><time>2022-05-08T07:15:09.000Z</time></trkpt><trkpt lon="6.049788" lat="51.157133"><ele>18.6</ele><time>2022-05-08T07:15:10.000Z</time></trkpt><trkpt lon="6.049894" lat="51.157108"><ele>18.4</ele><time>2022-05-08T07:15:11.000Z</time></trkpt><trkpt lon="6.049999" lat="51.157084"><ele>18.4</ele><time>2022-05-08T07:15:12.000Z</time></trkpt><trkpt lon="6.050101" lat="51.157061"><ele>18.4</ele><time>2022-05-08T07:15:13.000Z</time></trkpt><trkpt lon="6.050198" lat="51.157038"><ele>18.4</ele><time>2022-05-08T07:15:14.000Z</time></trkpt><trkpt lon="6.050294" lat="51.157013"><ele>18.4</ele><time>2022-05-08T07:15:15.000Z</time></trkpt><trkpt lon="6.050392" lat="51.156986"><ele>18.4</ele><time>2022-05-08T07:15:16.000Z</time></trkpt><trkpt lon="6.050493" lat="51.156959"><ele>18.4</ele><time>2022-05-08T07:15:17.000Z</time></trkpt><trkpt lon="6.050595" lat="51.15693"><ele>18.4</ele><time>2022-05-08T07:15:18.000Z</time></trkpt><trkpt lon="6.050696" lat="51.156902"><ele>18.4</ele><time>2022-05-08T07:15:19.000Z</time></trkpt><trkpt lon="6.050798" lat="51.156873"><ele>18.4</ele><time>2022-05-08T07:15:20.000Z</time></trkpt><trkpt lon="6.050896" lat="51.156845"><ele>18.4</ele><time>2022-05-08T07:15:21.000Z</time></trkpt><trkpt lon="6.050989" lat="51.156816"><ele>18.4</ele><time>2022-05-08T07:15:22.000Z</time></trkpt><trkpt lon="6.051081" lat="51.156788"><ele>18.4</ele><time>2022-05-08T07:15:23.000Z</time></trkpt><trkpt lon="6.051175" lat="51.156759"><ele>18.4</ele><time>2022-05-08T07:15:24.000Z</time></trkpt><trkpt lon="6.05127" lat="51.156728"><ele>18.4</ele><time>2022-05-08T07:15:25.000Z</time></trkpt><trkpt lon="6.051364" lat="51.156698"><ele>18.4</ele><time>2022-05-08T07:15:26.000Z</time></trkpt><trkpt lon="6.051464" lat="51.156667"><ele>18.4</ele><time>2022-05-08T07:15:27.000Z</time></trkpt><trkpt lon="6.051568" lat="51.156636"><ele>18.4</ele><time>2022-05-08T07:15:28.000Z</time></trkpt><trkpt lon="6.051673" lat="51.156605"><ele>18.4</ele><time>2022-05-08T07:15:29.000Z</time></trkpt><trkpt lon="6.051778" lat="51.156568"><ele>18.4</ele><time>2022-05-08T07:15:30.000Z</time></trkpt><trkpt lon="6.051882" lat="51.15653"><ele>18.4</ele><time>2022-05-08T07:15:31.000Z</time></trkpt><trkpt lon="6.051983" lat="51.156491"><ele>18.2</ele><time>2022-05-08T07:15:32.000Z</time></trkpt><trkpt lon="6.052081" lat="51.156453"><ele>18.4</ele><time>2022-05-08T07:15:33.000Z</time></trkpt><trkpt lon="6.052174" lat="51.156415"><ele>18.4</ele><time>2022-05-08T07:15:34.000Z</time></trkpt><trkpt lon="6.052266" lat="51.156377"><ele>18.4</ele><time>2022-05-08T07:15:35.000Z</time></trkpt><trkpt lon="6.052359" lat="51.156339"><ele>18.6</ele><time>2022-05-08T07:15:36.000Z</time></trkpt><trkpt lon="6.052447" lat="51.156302"><ele>18.6</ele><time>2022-05-08T07:15:37.000Z</time></trkpt><trkpt lon="6.052532" lat="51.156266"><ele>18.8</ele><time>2022-05-08T07:15:38.000Z</time></trkpt><trkpt lon="6.052615" lat="51.156229"><ele>18.8</ele><time>2022-05-08T07:15:39.000Z</time></trkpt><trkpt lon="6.052702" lat="51.156188"><ele>18.8</ele><time>2022-05-08T07:15:40.000Z</time></trkpt><trkpt lon="6.052789" lat="51.15615"><ele>18.8</ele><time>2022-05-08T07:15:41.000Z</time></trkpt><trkpt lon="6.052871" lat="51.156116"><ele>19</ele><time>2022-05-08T07:15:42.000Z</time></trkpt><trkpt lon="6.052953" lat="51.156081"><ele>19</ele><time>2022-05-08T07:15:43.000Z</time></trkpt><trkpt lon="6.053037" lat="51.156047"><ele>19.2</ele><time>2022-05-08T07:15:44.000Z</time></trkpt><trkpt lon="6.053123" lat="51.15601"><ele>19.2</ele><time>2022-05-08T07:15:45.000Z</time></trkpt><trkpt lon="6.053214" lat="51.155972"><ele>19.2</ele><time>2022-05-08T07:15:46.000Z</time></trkpt><trkpt lon="6.053303" lat="51.155932"><ele>19.2</ele><time>2022-05-08T07:15:47.000Z</time></trkpt><trkpt lon="6.053388" lat="51.15589"><ele>19.2</ele><time>2022-05-08T07:15:48.000Z</time></trkpt><trkpt lon="6.053472" lat="51.155851"><ele>19.2</ele><time>2022-05-08T07:15:49.000Z</time></trkpt><trkpt lon="6.053553" lat="51.155812"><ele>19.4</ele><time>2022-05-08T07:15:50.000Z</time></trkpt><trkpt lon="6.053631" lat="51.155774"><ele>19.4</ele><time>2022-05-08T07:15:51.000Z</time></trkpt><trkpt lon="6.053706" lat="51.155738"><ele>19.4</ele><time>2022-05-08T07:15:52.000Z</time></trkpt><trkpt lon="6.05378" lat="51.155706"><ele>19.4</ele><time>2022-05-08T07:15:53.000Z</time></trkpt><trkpt lon="6.05386" lat="51.155671"><ele>19.4</ele><time>2022-05-08T07:15:54.000Z</time></trkpt><trkpt lon="6.05394" lat="51.155635"><ele>19.6</ele><time>2022-05-08T07:15:55.000Z</time></trkpt><trkpt lon="6.054019" lat="51.155603"><ele>19.6</ele><time>2022-05-08T07:15:56.000Z</time></trkpt><trkpt lon="6.054097" lat="51.155568"><ele>19.6</ele><time>2022-05-08T07:15:57.000Z</time></trkpt><trkpt lon="6.054175" lat="51.155534"><ele>19.6</ele><time>2022-05-08T07:15:58.000Z</time></trkpt><trkpt lon="6.054256" lat="51.155499"><ele>19.6</ele><time>2022-05-08T07:15:59.000Z</time></trkpt><trkpt lon="6.054341" lat="51.155463"><ele>19.6</ele><time>2022-05-08T07:16:00.000Z</time></trkpt><trkpt lon="6.054428" lat="51.155427"><ele>19.8</ele><time>2022-05-08T07:16:01.000Z</time></trkpt><trkpt lon="6.054514" lat="51.155389"><ele>19.6</ele><time>2022-05-08T07:16:02.000Z</time></trkpt><trkpt lon="6.054594" lat="51.155353"><ele>19.6</ele><time>2022-05-08T07:16:03.000Z</time></trkpt><trkpt lon="6.054671" lat="51.155319"><ele>19.6</ele><time>2022-05-08T07:16:04.000Z</time></trkpt><trkpt lon="6.054746" lat="51.155286"><ele>19.6</ele><time>2022-05-08T07:16:05.000Z</time></trkpt><trkpt lon="6.054821" lat="51.155253"><ele>19.6</ele><time>2022-05-08T07:16:06.000Z</time></trkpt><trkpt lon="6.054896" lat="51.155219"><ele>19.4</ele><time>2022-05-08T07:16:07.000Z</time></trkpt><trkpt lon="6.054972" lat="51.155187"><ele>19.4</ele><time>2022-05-08T07:16:08.000Z</time></trkpt><trkpt lon="6.055045" lat="51.155156"><ele>19.4</ele><time>2022-05-08T07:16:09.000Z</time></trkpt><trkpt lon="6.055113" lat="51.155128"><ele>19.4</ele><time>2022-05-08T07:16:10.000Z</time></trkpt><trkpt lon="6.055175" lat="51.155104"><ele>19.4</ele><time>2022-05-08T07:16:11.000Z</time></trkpt><trkpt lon="6.055233" lat="51.155079"><ele>19.4</ele><time>2022-05-08T07:16:12.000Z</time></trkpt><trkpt lon="6.055288" lat="51.155052"><ele>19.4</ele><time>2022-05-08T07:16:13.000Z</time></trkpt><trkpt lon="6.055343" lat="51.155025"><ele>19.2</ele><time>2022-05-08T07:16:14.000Z</time></trkpt><trkpt lon="6.055396" lat="51.154997"><ele>19.2</ele><time>2022-05-08T07:16:15.000Z</time></trkpt><trkpt lon="6.055447" lat="51.154969"><ele>19.2</ele><time>2022-05-08T07:16:16.000Z</time></trkpt><trkpt lon="6.055496" lat="51.154943"><ele>19.2</ele><time>2022-05-08T07:16:17.000Z</time></trkpt><trkpt lon="6.055542" lat="51.154916"><ele>19.2</ele><time>2022-05-08T07:16:18.000Z</time></trkpt><trkpt lon="6.055589" lat="51.154888"><ele>19.2</ele><time>2022-05-08T07:16:19.000Z</time></trkpt><trkpt lon="6.05564" lat="51.154864"><ele>19</ele><time>2022-05-08T07:16:20.000Z</time></trkpt><trkpt lon="6.055694" lat="51.154845"><ele>19</ele><time>2022-05-08T07:16:21.000Z</time></trkpt><trkpt lon="6.055756" lat="51.154836"><ele>19</ele><time>2022-05-08T07:16:22.000Z</time></trkpt><trkpt lon="6.055828" lat="51.154841"><ele>19</ele><time>2022-05-08T07:16:23.000Z</time></trkpt><trkpt lon="6.055907" lat="51.154857"><ele>18.8</ele><time>2022-05-08T07:16:24.000Z</time></trkpt><trkpt lon="6.055986" lat="51.154885"><ele>18.6</ele><time>2022-05-08T07:16:25.000Z</time></trkpt><trkpt lon="6.056063" lat="51.15492"><ele>18.4</ele><time>2022-05-08T07:16:26.000Z</time></trkpt><trkpt lon="6.056139" lat="51.154961"><ele>18.4</ele><time>2022-05-08T07:16:27.000Z</time></trkpt><trkpt lon="6.056213" lat="51.155006"><ele>18.2</ele><time>2022-05-08T07:16:28.000Z</time></trkpt><trkpt lon="6.056285" lat="51.155054"><ele>18.2</ele><time>2022-05-08T07:16:29.000Z</time></trkpt><trkpt lon="6.056356" lat="51.155104"><ele>18</ele><time>2022-05-08T07:16:30.000Z</time></trkpt><trkpt lon="6.056425" lat="51.155153"><ele>18</ele><time>2022-05-08T07:16:31.000Z</time></trkpt><trkpt lon="6.056494" lat="51.155205"><ele>18</ele><time>2022-05-08T07:16:32.000Z</time></trkpt><trkpt lon="6.056564" lat="51.155256"><ele>18</ele><time>2022-05-08T07:16:33.000Z</time></trkpt><trkpt lon="6.056633" lat="51.155308"><ele>18</ele><time>2022-05-08T07:16:34.000Z</time></trkpt><trkpt lon="6.0567" lat="51.155362"><ele>18</ele><time>2022-05-08T07:16:35.000Z</time></trkpt><trkpt lon="6.056763" lat="51.155417"><ele>18</ele><time>2022-05-08T07:16:36.000Z</time></trkpt><trkpt lon="6.056826" lat="51.155473"><ele>18.2</ele><time>2022-05-08T07:16:37.000Z</time></trkpt><trkpt lon="6.056885" lat="51.155526"><ele>18</ele><time>2022-05-08T07:16:38.000Z</time></trkpt><trkpt lon="6.056936" lat="51.155582"><ele>18</ele><time>2022-05-08T07:16:39.000Z</time></trkpt><trkpt lon="6.056982" lat="51.155643"><ele>18</ele><time>2022-05-08T07:16:40.000Z</time></trkpt><trkpt lon="6.05702" lat="51.155705"><ele>17.6</ele><time>2022-05-08T07:16:41.000Z</time></trkpt><trkpt lon="6.057046" lat="51.155767"><ele>17.4</ele><time>2022-05-08T07:16:42.000Z</time></trkpt><trkpt lon="6.057063" lat="51.15583"><ele>17.4</ele><time>2022-05-08T07:16:43.000Z</time></trkpt><trkpt lon="6.057074" lat="51.155895"><ele>17.4</ele><time>2022-05-08T07:16:44.000Z</time></trkpt><trkpt lon="6.057084" lat="51.155959"><ele>17.6</ele><time>2022-05-08T07:16:45.000Z</time></trkpt><trkpt lon="6.057092" lat="51.156024"><ele>17.6</ele><time>2022-05-08T07:16:46.000Z</time></trkpt><trkpt lon="6.057099" lat="51.156092"><ele>17.8</ele><time>2022-05-08T07:16:47.000Z</time></trkpt><trkpt lon="6.057105" lat="51.156158"><ele>18</ele><time>2022-05-08T07:16:48.000Z</time></trkpt><trkpt lon="6.05711" lat="51.156223"><ele>18</ele><time>2022-05-08T07:16:49.000Z</time></trkpt><trkpt lon="6.057116" lat="51.15629"><ele>18</ele><time>2022-05-08T07:16:50.000Z</time></trkpt><trkpt lon="6.057122" lat="51.156359"><ele>18</ele><time>2022-05-08T07:16:51.000Z</time></trkpt><trkpt lon="6.057131" lat="51.156429"><ele>17.8</ele><time>2022-05-08T07:16:52.000Z</time></trkpt><trkpt lon="6.05714" lat="51.1565"><ele>17.6</ele><time>2022-05-08T07:16:53.000Z</time></trkpt><trkpt lon="6.05715" lat="51.15657"><ele>17.4</ele><time>2022-05-08T07:16:54.000Z</time></trkpt><trkpt lon="6.057163" lat="51.156641"><ele>17.4</ele><time>2022-05-08T07:16:55.000Z</time></trkpt><trkpt lon="6.057174" lat="51.156709"><ele>17.2</ele><time>2022-05-08T07:16:56.000Z</time></trkpt><trkpt lon="6.057184" lat="51.156776"><ele>17.2</ele><time>2022-05-08T07:16:57.000Z</time></trkpt><trkpt lon="6.057192" lat="51.156843"><ele>17.2</ele><time>2022-05-08T07:16:58.000Z</time></trkpt><trkpt lon="6.057199" lat="51.156912"><ele>17.2</ele><time>2022-05-08T07:16:59.000Z</time></trkpt><trkpt lon="6.057206" lat="51.156981"><ele>17.2</ele><time>2022-05-08T07:17:00.000Z</time></trkpt><trkpt lon="6.057213" lat="51.157051"><ele>17.2</ele><time>2022-05-08T07:17:01.000Z</time></trkpt><trkpt lon="6.057221" lat="51.157122"><ele>17.2</ele><time>2022-05-08T07:17:02.000Z</time></trkpt><trkpt lon="6.057227" lat="51.157191"><ele>17.2</ele><time>2022-05-08T07:17:03.000Z</time></trkpt><trkpt lon="6.057234" lat="51.157257"><ele>17.4</ele><time>2022-05-08T07:17:04.000Z</time></trkpt><trkpt lon="6.057243" lat="51.157324"><ele>17.2</ele><time>2022-05-08T07:17:05.000Z</time></trkpt><trkpt lon="6.057251" lat="51.157392"><ele>17.2</ele><time>2022-05-08T07:17:06.000Z</time></trkpt><trkpt lon="6.057261" lat="51.15746"><ele>17</ele><time>2022-05-08T07:17:07.000Z</time></trkpt><trkpt lon="6.057271" lat="51.157529"><ele>17</ele><time>2022-05-08T07:17:08.000Z</time></trkpt><trkpt lon="6.057283" lat="51.157596"><ele>17</ele><time>2022-05-08T07:17:09.000Z</time></trkpt><trkpt lon="6.057295" lat="51.157662"><ele>17</ele><time>2022-05-08T07:17:10.000Z</time></trkpt><trkpt lon="6.057308" lat="51.157732"><ele>17</ele><time>2022-05-08T07:17:11.000Z</time></trkpt><trkpt lon="6.057321" lat="51.157803"><ele>17</ele><time>2022-05-08T07:17:12.000Z</time></trkpt><trkpt lon="6.057336" lat="51.157871"><ele>16.6</ele><time>2022-05-08T07:17:13.000Z</time></trkpt><trkpt lon="6.057353" lat="51.157938"><ele>16.4</ele><time>2022-05-08T07:17:14.000Z</time></trkpt><trkpt lon="6.057371" lat="51.158007"><ele>16.2</ele><time>2022-05-08T07:17:15.000Z</time></trkpt><trkpt lon="6.057391" lat="51.158073"><ele>16.2</ele><time>2022-05-08T07:17:16.000Z</time></trkpt><trkpt lon="6.057413" lat="51.15814"><ele>16.2</ele><time>2022-05-08T07:17:17.000Z</time></trkpt><trkpt lon="6.057432" lat="51.158211"><ele>16.2</ele><time>2022-05-08T07:17:18.000Z</time></trkpt><trkpt lon="6.057451" lat="51.158281"><ele>16.2</ele><time>2022-05-08T07:17:19.000Z</time></trkpt><trkpt lon="6.057471" lat="51.158349"><ele>16</ele><time>2022-05-08T07:17:20.000Z</time></trkpt><trkpt lon="6.057493" lat="51.158418"><ele>16</ele><time>2022-05-08T07:17:21.000Z</time></trkpt><trkpt lon="6.057517" lat="51.158487"><ele>16</ele><time>2022-05-08T07:17:22.000Z</time></trkpt><trkpt lon="6.057541" lat="51.158556"><ele>15.8</ele><time>2022-05-08T07:17:23.000Z</time></trkpt><trkpt lon="6.057564" lat="51.158626"><ele>15.8</ele><time>2022-05-08T07:17:24.000Z</time></trkpt><trkpt lon="6.057587" lat="51.158696"><ele>15.8</ele><time>2022-05-08T07:17:25.000Z</time></trkpt><trkpt lon="6.057611" lat="51.158765"><ele>15.8</ele><time>2022-05-08T07:17:26.000Z</time></trkpt><trkpt lon="6.057637" lat="51.158837"><ele>15.8</ele><time>2022-05-08T07:17:27.000Z</time></trkpt><trkpt lon="6.057664" lat="51.158907"><ele>15.8</ele><time>2022-05-08T07:17:28.000Z</time></trkpt><trkpt lon="6.057691" lat="51.158977"><ele>15.6</ele><time>2022-05-08T07:17:29.000Z</time></trkpt><trkpt lon="6.05772" lat="51.159048"><ele>15.6</ele><time>2022-05-08T07:17:30.000Z</time></trkpt><trkpt lon="6.05775" lat="51.159119"><ele>15.6</ele><time>2022-05-08T07:17:31.000Z</time></trkpt><trkpt lon="6.057779" lat="51.159189"><ele>15.4</ele><time>2022-05-08T07:17:32.000Z</time></trkpt><trkpt lon="6.057806" lat="51.15926"><ele>15.4</ele><time>2022-05-08T07:17:33.000Z</time></trkpt><trkpt lon="6.057835" lat="51.15933"><ele>15.4</ele><time>2022-05-08T07:17:34.000Z</time></trkpt><trkpt lon="6.057862" lat="51.159401"><ele>15.2</ele><time>2022-05-08T07:17:35.000Z</time></trkpt><trkpt lon="6.057888" lat="51.159472"><ele>15</ele><time>2022-05-08T07:17:36.000Z</time></trkpt><trkpt lon="6.057915" lat="51.159545"><ele>14.8</ele><time>2022-05-08T07:17:37.000Z</time></trkpt><trkpt lon="6.057942" lat="51.159616"><ele>14.8</ele><time>2022-05-08T07:17:38.000Z</time></trkpt><trkpt lon="6.057967" lat="51.159686"><ele>14.8</ele><time>2022-05-08T07:17:39.000Z</time></trkpt><trkpt lon="6.057991" lat="51.159757"><ele>14.6</ele><time>2022-05-08T07:17:40.000Z</time></trkpt><trkpt lon="6.058015" lat="51.159826"><ele>14.6</ele><time>2022-05-08T07:17:41.000Z</time></trkpt><trkpt lon="6.058036" lat="51.159895"><ele>14.4</ele><time>2022-05-08T07:17:42.000Z</time></trkpt><trkpt lon="6.058049" lat="51.159963"><ele>14.6</ele><time>2022-05-08T07:17:43.000Z</time></trkpt><trkpt lon="6.058055" lat="51.160035"><ele>14.6</ele><time>2022-05-08T07:17:44.000Z</time></trkpt><trkpt lon="6.058058" lat="51.160105"><ele>14.8</ele><time>2022-05-08T07:17:45.000Z</time></trkpt><trkpt lon="6.058056" lat="51.16017"><ele>14.8</ele><time>2022-05-08T07:17:46.000Z</time></trkpt><trkpt lon="6.058052" lat="51.160237"><ele>14.6</ele><time>2022-05-08T07:17:47.000Z</time></trkpt><trkpt lon="6.058048" lat="51.160304"><ele>14.6</ele><time>2022-05-08T07:17:48.000Z</time></trkpt><trkpt lon="6.058048" lat="51.160372"><ele>14.6</ele><time>2022-05-08T07:17:49.000Z</time></trkpt><trkpt lon="6.058053" lat="51.160441"><ele>14.6</ele><time>2022-05-08T07:17:50.000Z</time></trkpt><trkpt lon="6.058065" lat="51.160505"><ele>14.4</ele><time>2022-05-08T07:17:51.000Z</time></trkpt><trkpt lon="6.058084" lat="51.160568"><ele>14.4</ele><time>2022-05-08T07:17:52.000Z</time></trkpt><trkpt lon="6.058112" lat="51.160628"><ele>14.4</ele><time>2022-05-08T07:17:53.000Z</time></trkpt><trkpt lon="6.058148" lat="51.160681"><ele>14.4</ele><time>2022-05-08T07:17:54.000Z</time></trkpt><trkpt lon="6.058197" lat="51.160731"><ele>14.6</ele><time>2022-05-08T07:17:55.000Z</time></trkpt><trkpt lon="6.058257" lat="51.160774"><ele>14.6</ele><time>2022-05-08T07:17:56.000Z</time></trkpt><trkpt lon="6.058324" lat="51.160807"><ele>14.8</ele><time>2022-05-08T07:17:57.000Z</time></trkpt><trkpt lon="6.058391" lat="51.160838"><ele>15</ele><time>2022-05-08T07:17:58.000Z</time></trkpt><trkpt lon="6.058453" lat="51.160868"><ele>15.2</ele><time>2022-05-08T07:17:59.000Z</time></trkpt><trkpt lon="6.058509" lat="51.160899"><ele>15.4</ele><time>2022-05-08T07:18:00.000Z</time></trkpt><trkpt lon="6.058559" lat="51.160929"><ele>15.6</ele><time>2022-05-08T07:18:01.000Z</time></trkpt><trkpt lon="6.05861" lat="51.160957"><ele>15.8</ele><time>2022-05-08T07:18:02.000Z</time></trkpt><trkpt lon="6.058669" lat="51.160978"><ele>15.8</ele><time>2022-05-08T07:18:03.000Z</time></trkpt><trkpt lon="6.05874" lat="51.16098"><ele>16</ele><time>2022-05-08T07:18:04.000Z</time></trkpt><trkpt lon="6.058822" lat="51.160966"><ele>16</ele><time>2022-05-08T07:18:05.000Z</time></trkpt><trkpt lon="6.058912" lat="51.160942"><ele>16</ele><time>2022-05-08T07:18:06.000Z</time></trkpt><trkpt lon="6.059005" lat="51.160915"><ele>16</ele><time>2022-05-08T07:18:07.000Z</time></trkpt><trkpt lon="6.059096" lat="51.160888"><ele>16.2</ele><time>2022-05-08T07:18:08.000Z</time></trkpt><trkpt lon="6.05918" lat="51.160865"><ele>16.2</ele><time>2022-05-08T07:18:09.000Z</time></trkpt><trkpt lon="6.059272" lat="51.16084"><ele>16.2</ele><time>2022-05-08T07:18:10.000Z</time></trkpt><trkpt lon="6.059367" lat="51.160813"><ele>16</ele><time>2022-05-08T07:18:11.000Z</time></trkpt><trkpt lon="6.05946" lat="51.160786"><ele>16</ele><time>2022-05-08T07:18:12.000Z</time></trkpt><trkpt lon="6.059557" lat="51.160759"><ele>16</ele><time>2022-05-08T07:18:13.000Z</time></trkpt><trkpt lon="6.059651" lat="51.160734"><ele>16</ele><time>2022-05-08T07:18:14.000Z</time></trkpt><trkpt lon="6.059745" lat="51.160711"><ele>16</ele><time>2022-05-08T07:18:15.000Z</time></trkpt><trkpt lon="6.059838" lat="51.160686"><ele>16.2</ele><time>2022-05-08T07:18:16.000Z</time></trkpt><trkpt lon="6.05993" lat="51.160662"><ele>16.2</ele><time>2022-05-08T07:18:17.000Z</time></trkpt><trkpt lon="6.060023" lat="51.160637"><ele>16.2</ele><time>2022-05-08T07:18:18.000Z</time></trkpt><trkpt lon="6.060118" lat="51.160612"><ele>16.2</ele><time>2022-05-08T07:18:19.000Z</time></trkpt><trkpt lon="6.060214" lat="51.160589"><ele>16.2</ele><time>2022-05-08T07:18:20.000Z</time></trkpt><trkpt lon="6.060312" lat="51.160566"><ele>16.4</ele><time>2022-05-08T07:18:21.000Z</time></trkpt><trkpt lon="6.06041" lat="51.160541"><ele>16.2</ele><time>2022-05-08T07:18:22.000Z</time></trkpt><trkpt lon="6.06051" lat="51.160517"><ele>16.2</ele><time>2022-05-08T07:18:23.000Z</time></trkpt><trkpt lon="6.060613" lat="51.160494"><ele>16.2</ele><time>2022-05-08T07:18:24.000Z</time></trkpt><trkpt lon="6.060718" lat="51.160471"><ele>16.2</ele><time>2022-05-08T07:18:25.000Z</time></trkpt><trkpt lon="6.060823" lat="51.160448"><ele>16</ele><time>2022-05-08T07:18:26.000Z</time></trkpt><trkpt lon="6.060926" lat="51.160428"><ele>16</ele><time>2022-05-08T07:18:27.000Z</time></trkpt><trkpt lon="6.06103" lat="51.160408"><ele>16</ele><time>2022-05-08T07:18:28.000Z</time></trkpt><trkpt lon="6.061134" lat="51.160389"><ele>16</ele><time>2022-05-08T07:18:29.000Z</time></trkpt><trkpt lon="6.061239" lat="51.160368"><ele>16</ele><time>2022-05-08T07:18:30.000Z</time></trkpt><trkpt lon="6.061344" lat="51.160345"><ele>16</ele><time>2022-05-08T07:18:31.000Z</time></trkpt><trkpt lon="6.061449" lat="51.160324"><ele>16</ele><time>2022-05-08T07:18:32.000Z</time></trkpt><trkpt lon="6.061553" lat="51.160305"><ele>16</ele><time>2022-05-08T07:18:33.000Z</time></trkpt><trkpt lon="6.061658" lat="51.160286"><ele>16</ele><time>2022-05-08T07:18:34.000Z</time></trkpt><trkpt lon="6.061764" lat="51.160269"><ele>16</ele><time>2022-05-08T07:18:35.000Z</time></trkpt><trkpt lon="6.061869" lat="51.16025"><ele>16.2</ele><time>2022-05-08T07:18:36.000Z</time></trkpt><trkpt lon="6.061974" lat="51.160231"><ele>16.2</ele><time>2022-05-08T07:18:37.000Z</time></trkpt><trkpt lon="6.062082" lat="51.160216"><ele>16.2</ele><time>2022-05-08T07:18:38.000Z</time></trkpt><trkpt lon="6.062191" lat="51.160201"><ele>16.2</ele><time>2022-05-08T07:18:39.000Z</time></trkpt><trkpt lon="6.0623" lat="51.160188"><ele>16.2</ele><time>2022-05-08T07:18:40.000Z</time></trkpt><trkpt lon="6.06241" lat="51.160172"><ele>16.2</ele><time>2022-05-08T07:18:41.000Z</time></trkpt><trkpt lon="6.062516" lat="51.160155"><ele>16.2</ele><time>2022-05-08T07:18:42.000Z</time></trkpt><trkpt lon="6.062621" lat="51.160137"><ele>16.2</ele><time>2022-05-08T07:18:43.000Z</time></trkpt><trkpt lon="6.062726" lat="51.160118"><ele>16.2</ele><time>2022-05-08T07:18:44.000Z</time></trkpt><trkpt lon="6.062828" lat="51.160102"><ele>16.2</ele><time>2022-05-08T07:18:45.000Z</time></trkpt><trkpt lon="6.062931" lat="51.160086"><ele>16.2</ele><time>2022-05-08T07:18:46.000Z</time></trkpt><trkpt lon="6.063034" lat="51.160078"><ele>16.2</ele><time>2022-05-08T07:18:47.000Z</time></trkpt><trkpt lon="6.063139" lat="51.160072"><ele>16.2</ele><time>2022-05-08T07:18:48.000Z</time></trkpt><trkpt lon="6.063247" lat="51.160071"><ele>16.2</ele><time>2022-05-08T07:18:49.000Z</time></trkpt><trkpt lon="6.063356" lat="51.160075"><ele>16</ele><time>2022-05-08T07:18:50.000Z</time></trkpt><trkpt lon="6.063465" lat="51.160076"><ele>15.6</ele><time>2022-05-08T07:18:51.000Z</time></trkpt><trkpt lon="6.063577" lat="51.160072"><ele>15.4</ele><time>2022-05-08T07:18:52.000Z</time></trkpt><trkpt lon="6.063687" lat="51.160066"><ele>15.4</ele><time>2022-05-08T07:18:53.000Z</time></trkpt><trkpt lon="6.063793" lat="51.16006"><ele>15.4</ele><time>2022-05-08T07:18:54.000Z</time></trkpt><trkpt lon="6.063898" lat="51.160053"><ele>15.4</ele><time>2022-05-08T07:18:55.000Z</time></trkpt><trkpt lon="6.064004" lat="51.160045"><ele>15.4</ele><time>2022-05-08T07:18:56.000Z</time></trkpt><trkpt lon="6.064109" lat="51.160042"><ele>15.6</ele><time>2022-05-08T07:18:57.000Z</time></trkpt><trkpt lon="6.064215" lat="51.16004"><ele>15.4</ele><time>2022-05-08T07:18:58.000Z</time></trkpt><trkpt lon="6.064321" lat="51.160036"><ele>15.4</ele><time>2022-05-08T07:18:59.000Z</time></trkpt><trkpt lon="6.064428" lat="51.160032"><ele>15.4</ele><time>2022-05-08T07:19:00.000Z</time></trkpt><trkpt lon="6.064532" lat="51.16003"><ele>15.6</ele><time>2022-05-08T07:19:01.000Z</time></trkpt><trkpt lon="6.064635" lat="51.160028"><ele>15.6</ele><time>2022-05-08T07:19:02.000Z</time></trkpt><trkpt lon="6.064738" lat="51.160027"><ele>15.6</ele><time>2022-05-08T07:19:03.000Z</time></trkpt><trkpt lon="6.06484" lat="51.160024"><ele>15.8</ele><time>2022-05-08T07:19:04.000Z</time></trkpt><trkpt lon="6.06494" lat="51.160018"><ele>15.8</ele><time>2022-05-08T07:19:05.000Z</time></trkpt><trkpt lon="6.06504" lat="51.160013"><ele>15.6</ele><time>2022-05-08T07:19:06.000Z</time></trkpt><trkpt lon="6.065144" lat="51.160011"><ele>15.8</ele><time>2022-05-08T07:19:07.000Z</time></trkpt><trkpt lon="6.06525" lat="51.160009"><ele>15.8</ele><time>2022-05-08T07:19:08.000Z</time></trkpt><trkpt lon="6.065347" lat="51.160007"><ele>15.8</ele><time>2022-05-08T07:19:09.000Z</time></trkpt><trkpt lon="6.065449" lat="51.160007"><ele>15.8</ele><time>2022-05-08T07:19:10.000Z</time></trkpt><trkpt lon="6.065557" lat="51.160007"><ele>15.8</ele><time>2022-05-08T07:19:11.000Z</time></trkpt><trkpt lon="6.065662" lat="51.160005"><ele>15.8</ele><time>2022-05-08T07:19:12.000Z</time></trkpt><trkpt lon="6.065766" lat="51.160004"><ele>15.8</ele><time>2022-05-08T07:19:13.000Z</time></trkpt><trkpt lon="6.065871" lat="51.160004"><ele>15.6</ele><time>2022-05-08T07:19:14.000Z</time></trkpt><trkpt lon="6.065974" lat="51.160006"><ele>15.6</ele><time>2022-05-08T07:19:15.000Z</time></trkpt><trkpt lon="6.066075" lat="51.160007"><ele>15.8</ele><time>2022-05-08T07:19:16.000Z</time></trkpt><trkpt lon="6.066173" lat="51.160005"><ele>15.8</ele><time>2022-05-08T07:19:17.000Z</time></trkpt><trkpt lon="6.06627" lat="51.160001"><ele>15.8</ele><time>2022-05-08T07:19:18.000Z</time></trkpt><trkpt lon="6.066364" lat="51.159998"><ele>15.8</ele><time>2022-05-08T07:19:19.000Z</time></trkpt><trkpt lon="6.066454" lat="51.159994"><ele>16</ele><time>2022-05-08T07:19:20.000Z</time></trkpt><trkpt lon="6.066541" lat="51.15999"><ele>16</ele><time>2022-05-08T07:19:21.000Z</time></trkpt><trkpt lon="6.066623" lat="51.159979"><ele>16.2</ele><time>2022-05-08T07:19:22.000Z</time></trkpt><trkpt lon="6.066694" lat="51.15996"><ele>16.2</ele><time>2022-05-08T07:19:23.000Z</time></trkpt><trkpt lon="6.066753" lat="51.159932"><ele>16.4</ele><time>2022-05-08T07:19:24.000Z</time></trkpt><trkpt lon="6.0668" lat="51.159898"><ele>16.4</ele><time>2022-05-08T07:19:25.000Z</time></trkpt><trkpt lon="6.066837" lat="51.15986"><ele>16.6</ele><time>2022-05-08T07:19:26.000Z</time></trkpt><trkpt lon="6.066868" lat="51.159826"><ele>16.6</ele><time>2022-05-08T07:19:27.000Z</time></trkpt><trkpt lon="6.06691" lat="51.159804"><ele>16.8</ele><time>2022-05-08T07:19:28.000Z</time></trkpt><trkpt lon="6.066966" lat="51.159793"><ele>16.8</ele><time>2022-05-08T07:19:29.000Z</time></trkpt><trkpt lon="6.067025" lat="51.15979"><ele>17</ele><time>2022-05-08T07:19:30.000Z</time></trkpt><trkpt lon="6.067075" lat="51.159797"><ele>17</ele><time>2022-05-08T07:19:31.000Z</time></trkpt><trkpt lon="6.067109" lat="51.159812"><ele>17</ele><time>2022-05-08T07:19:32.000Z</time></trkpt><trkpt lon="6.067134" lat="51.159838"><ele>16.8</ele><time>2022-05-08T07:19:33.000Z</time></trkpt><trkpt lon="6.067163" lat="51.159869"><ele>16.6</ele><time>2022-05-08T07:19:34.000Z</time></trkpt><trkpt lon="6.067208" lat="51.159904"><ele>16.6</ele><time>2022-05-08T07:19:35.000Z</time></trkpt><trkpt lon="6.067274" lat="51.159935"><ele>16.4</ele><time>2022-05-08T07:19:36.000Z</time></trkpt><trkpt lon="6.067359" lat="51.15996"><ele>16.4</ele><time>2022-05-08T07:19:37.000Z</time></trkpt><trkpt lon="6.067455" lat="51.159974"><ele>16.4</ele><time>2022-05-08T07:19:38.000Z</time></trkpt><trkpt lon="6.067554" lat="51.159983"><ele>16.4</ele><time>2022-05-08T07:19:39.000Z</time></trkpt><trkpt lon="6.067661" lat="51.159991"><ele>16.4</ele><time>2022-05-08T07:19:40.000Z</time></trkpt><trkpt lon="6.06777" lat="51.159997"><ele>16.4</ele><time>2022-05-08T07:19:41.000Z</time></trkpt><trkpt lon="6.067874" lat="51.16"><ele>16.4</ele><time>2022-05-08T07:19:42.000Z</time></trkpt><trkpt lon="6.067978" lat="51.16"><ele>16.4</ele><time>2022-05-08T07:19:43.000Z</time></trkpt><trkpt lon="6.068079" lat="51.16"><ele>16.2</ele><time>2022-05-08T07:19:44.000Z</time></trkpt><trkpt lon="6.068176" lat="51.159998"><ele>16.2</ele><time>2022-05-08T07:19:45.000Z</time></trkpt><trkpt lon="6.068271" lat="51.159994"><ele>16.2</ele><time>2022-05-08T07:19:46.000Z</time></trkpt><trkpt lon="6.068366" lat="51.15999"><ele>16.2</ele><time>2022-05-08T07:19:47.000Z</time></trkpt><trkpt lon="6.068455" lat="51.159987"><ele>16.2</ele><time>2022-05-08T07:19:48.000Z</time></trkpt><trkpt lon="6.068551" lat="51.159985"><ele>16.2</ele><time>2022-05-08T07:19:49.000Z</time></trkpt><trkpt lon="6.068656" lat="51.159982"><ele>16.2</ele><time>2022-05-08T07:19:50.000Z</time></trkpt><trkpt lon="6.068753" lat="51.159979"><ele>16.2</ele><time>2022-05-08T07:19:51.000Z</time></trkpt><trkpt lon="6.068852" lat="51.159979"><ele>16</ele><time>2022-05-08T07:19:52.000Z</time></trkpt><trkpt lon="6.068952" lat="51.159981"><ele>16</ele><time>2022-05-08T07:19:53.000Z</time></trkpt><trkpt lon="6.069055" lat="51.159983"><ele>16.2</ele><time>2022-05-08T07:19:54.000Z</time></trkpt><trkpt lon="6.069159" lat="51.159987"><ele>16.2</ele><time>2022-05-08T07:19:55.000Z</time></trkpt><trkpt lon="6.069263" lat="51.159988"><ele>16.2</ele><time>2022-05-08T07:19:56.000Z</time></trkpt><trkpt lon="6.069365" lat="51.159988"><ele>16.2</ele><time>2022-05-08T07:19:57.000Z</time></trkpt><trkpt lon="6.069467" lat="51.159988"><ele>15.8</ele><time>2022-05-08T07:19:58.000Z</time></trkpt><trkpt lon="6.069568" lat="51.159988"><ele>15.6</ele><time>2022-05-08T07:19:59.000Z</time></trkpt><trkpt lon="6.069666" lat="51.159986"><ele>15.4</ele><time>2022-05-08T07:20:00.000Z</time></trkpt><trkpt lon="6.069766" lat="51.159985"><ele>15.2</ele><time>2022-05-08T07:20:01.000Z</time></trkpt><trkpt lon="6.069867" lat="51.15998"><ele>15.2</ele><time>2022-05-08T07:20:02.000Z</time></trkpt><trkpt lon="6.069966" lat="51.159973"><ele>15</ele><time>2022-05-08T07:20:03.000Z</time></trkpt><trkpt lon="6.070065" lat="51.159965"><ele>15.2</ele><time>2022-05-08T07:20:04.000Z</time></trkpt><trkpt lon="6.070165" lat="51.159957"><ele>15.4</ele><time>2022-05-08T07:20:05.000Z</time></trkpt><trkpt lon="6.070264" lat="51.15995"><ele>15.2</ele><time>2022-05-08T07:20:06.000Z</time></trkpt><trkpt lon="6.070364" lat="51.159942"><ele>15.2</ele><time>2022-05-08T07:20:07.000Z</time></trkpt><trkpt lon="6.070466" lat="51.159932"><ele>15.2</ele><time>2022-05-08T07:20:08.000Z</time></trkpt><trkpt lon="6.070568" lat="51.159925"><ele>15.4</ele><time>2022-05-08T07:20:09.000Z</time></trkpt><trkpt lon="6.07067" lat="51.159917"><ele>15.6</ele><time>2022-05-08T07:20:10.000Z</time></trkpt><trkpt lon="6.070774" lat="51.159905"><ele>15.6</ele><time>2022-05-08T07:20:11.000Z</time></trkpt><trkpt lon="6.070877" lat="51.159894"><ele>15.6</ele><time>2022-05-08T07:20:12.000Z</time></trkpt><trkpt lon="6.07098" lat="51.159883"><ele>15.6</ele><time>2022-05-08T07:20:13.000Z</time></trkpt><trkpt lon="6.071084" lat="51.159869"><ele>15.6</ele><time>2022-05-08T07:20:14.000Z</time></trkpt><trkpt lon="6.071186" lat="51.159851"><ele>15.6</ele><time>2022-05-08T07:20:15.000Z</time></trkpt><trkpt lon="6.071286" lat="51.15983"><ele>15.8</ele><time>2022-05-08T07:20:16.000Z</time></trkpt><trkpt lon="6.071388" lat="51.159807"><ele>15.8</ele><time>2022-05-08T07:20:17.000Z</time></trkpt><trkpt lon="6.07149" lat="51.159784"><ele>15.8</ele><time>2022-05-08T07:20:18.000Z</time></trkpt><trkpt lon="6.071589" lat="51.159759"><ele>15.8</ele><time>2022-05-08T07:20:19.000Z</time></trkpt><trkpt lon="6.071687" lat="51.159735"><ele>15.8</ele><time>2022-05-08T07:20:20.000Z</time></trkpt><trkpt lon="6.071782" lat="51.15971"><ele>15.8</ele><time>2022-05-08T07:20:21.000Z</time></trkpt><trkpt lon="6.071873" lat="51.159681"><ele>16</ele><time>2022-05-08T07:20:22.000Z</time></trkpt><trkpt lon="6.071957" lat="51.159655"><ele>16.2</ele><time>2022-05-08T07:20:23.000Z</time></trkpt><trkpt lon="6.072028" lat="51.159632"><ele>16.2</ele><time>2022-05-08T07:20:24.000Z</time></trkpt><trkpt lon="6.072084" lat="51.159607"><ele>16.4</ele><time>2022-05-08T07:20:25.000Z</time></trkpt><trkpt lon="6.072131" lat="51.15958"><ele>16.6</ele><time>2022-05-08T07:20:26.000Z</time></trkpt><trkpt lon="6.072179" lat="51.159553"><ele>16.6</ele><time>2022-05-08T07:20:27.000Z</time></trkpt><trkpt lon="6.072233" lat="51.159531"><ele>16.8</ele><time>2022-05-08T07:20:28.000Z</time></trkpt><trkpt lon="6.0723" lat="51.159512"><ele>16.8</ele><time>2022-05-08T07:20:29.000Z</time></trkpt><trkpt lon="6.072375" lat="51.159502"><ele>17</ele><time>2022-05-08T07:20:30.000Z</time></trkpt><trkpt lon="6.072457" lat="51.1595"><ele>17</ele><time>2022-05-08T07:20:31.000Z</time></trkpt><trkpt lon="6.072543" lat="51.159496"><ele>17</ele><time>2022-05-08T07:20:32.000Z</time></trkpt><trkpt lon="6.072632" lat="51.159484"><ele>16.8</ele><time>2022-05-08T07:20:33.000Z</time></trkpt><trkpt lon="6.072721" lat="51.159464"><ele>16.8</ele><time>2022-05-08T07:20:34.000Z</time></trkpt><trkpt lon="6.072816" lat="51.159439"><ele>16.8</ele><time>2022-05-08T07:20:35.000Z</time></trkpt><trkpt lon="6.072914" lat="51.15941"><ele>16.6</ele><time>2022-05-08T07:20:36.000Z</time></trkpt><trkpt lon="6.073009" lat="51.159379"><ele>16.6</ele><time>2022-05-08T07:20:37.000Z</time></trkpt><trkpt lon="6.073104" lat="51.159349"><ele>16.8</ele><time>2022-05-08T07:20:38.000Z</time></trkpt><trkpt lon="6.073203" lat="51.159318"><ele>16.6</ele><time>2022-05-08T07:20:39.000Z</time></trkpt><trkpt lon="6.073304" lat="51.159288"><ele>16.6</ele><time>2022-05-08T07:20:40.000Z</time></trkpt><trkpt lon="6.073407" lat="51.159259"><ele>16.4</ele><time>2022-05-08T07:20:41.000Z</time></trkpt><trkpt lon="6.073511" lat="51.15923"><ele>16.4</ele><time>2022-05-08T07:20:42.000Z</time></trkpt><trkpt lon="6.073613" lat="51.1592"><ele>16.4</ele><time>2022-05-08T07:20:43.000Z</time></trkpt><trkpt lon="6.073715" lat="51.159172"><ele>16.4</ele><time>2022-05-08T07:20:44.000Z</time></trkpt><trkpt lon="6.073814" lat="51.159143"><ele>16.4</ele><time>2022-05-08T07:20:45.000Z</time></trkpt><trkpt lon="6.07391" lat="51.159109"><ele>16.4</ele><time>2022-05-08T07:20:46.000Z</time></trkpt><trkpt lon="6.07401" lat="51.159072"><ele>16.4</ele><time>2022-05-08T07:20:47.000Z</time></trkpt><trkpt lon="6.074112" lat="51.159037"><ele>16.4</ele><time>2022-05-08T07:20:48.000Z</time></trkpt><trkpt lon="6.074216" lat="51.159003"><ele>16.4</ele><time>2022-05-08T07:20:49.000Z</time></trkpt><trkpt lon="6.074322" lat="51.158971"><ele>16.4</ele><time>2022-05-08T07:20:50.000Z</time></trkpt><trkpt lon="6.074426" lat="51.158937"><ele>16.2</ele><time>2022-05-08T07:20:51.000Z</time></trkpt><trkpt lon="6.074527" lat="51.1589"><ele>16.2</ele><time>2022-05-08T07:20:52.000Z</time></trkpt><trkpt lon="6.074622" lat="51.158866"><ele>16.2</ele><time>2022-05-08T07:20:53.000Z</time></trkpt><trkpt lon="6.074712" lat="51.158834"><ele>16.2</ele><time>2022-05-08T07:20:54.000Z</time></trkpt><trkpt lon="6.074801" lat="51.158801"><ele>16.2</ele><time>2022-05-08T07:20:55.000Z</time></trkpt><trkpt lon="6.07489" lat="51.158769"><ele>16.2</ele><time>2022-05-08T07:20:56.000Z</time></trkpt><trkpt lon="6.074976" lat="51.158738"><ele>16.2</ele><time>2022-05-08T07:20:57.000Z</time></trkpt><trkpt lon="6.075057" lat="51.158706"><ele>16.2</ele><time>2022-05-08T07:20:58.000Z</time></trkpt><trkpt lon="6.075136" lat="51.158673"><ele>16.2</ele><time>2022-05-08T07:20:59.000Z</time></trkpt><trkpt lon="6.075216" lat="51.15864"><ele>16.2</ele><time>2022-05-08T07:21:00.000Z</time></trkpt><trkpt lon="6.075297" lat="51.158606"><ele>16.2</ele><time>2022-05-08T07:21:01.000Z</time></trkpt><trkpt lon="6.075379" lat="51.158568"><ele>16.2</ele><time>2022-05-08T07:21:02.000Z</time></trkpt><trkpt lon="6.075459" lat="51.158531"><ele>16.2</ele><time>2022-05-08T07:21:03.000Z</time></trkpt><trkpt lon="6.075537" lat="51.158496"><ele>16.2</ele><time>2022-05-08T07:21:04.000Z</time></trkpt><trkpt lon="6.075615" lat="51.158458"><ele>16.2</ele><time>2022-05-08T07:21:05.000Z</time></trkpt><trkpt lon="6.075697" lat="51.158418"><ele>16.4</ele><time>2022-05-08T07:21:06.000Z</time></trkpt><trkpt lon="6.075785" lat="51.158373"><ele>16.4</ele><time>2022-05-08T07:21:07.000Z</time></trkpt><trkpt lon="6.075876" lat="51.158328"><ele>16.4</ele><time>2022-05-08T07:21:08.000Z</time></trkpt><trkpt lon="6.075964" lat="51.158283"><ele>16.2</ele><time>2022-05-08T07:21:09.000Z</time></trkpt><trkpt lon="6.076051" lat="51.158239"><ele>16.2</ele><time>2022-05-08T07:21:10.000Z</time></trkpt><trkpt lon="6.07614" lat="51.158191"><ele>16</ele><time>2022-05-08T07:21:11.000Z</time></trkpt><trkpt lon="6.076226" lat="51.158141"><ele>16</ele><time>2022-05-08T07:21:12.000Z</time></trkpt><trkpt lon="6.076316" lat="51.158093"><ele>16.2</ele><time>2022-05-08T07:21:13.000Z</time></trkpt><trkpt lon="6.076403" lat="51.158047"><ele>16</ele><time>2022-05-08T07:21:14.000Z</time></trkpt><trkpt lon="6.076477" lat="51.158"><ele>16</ele><time>2022-05-08T07:21:15.000Z</time></trkpt><trkpt lon="6.076567" lat="51.157948"><ele>16</ele><time>2022-05-08T07:21:16.000Z</time></trkpt><trkpt lon="6.076655" lat="51.157898"><ele>15.8</ele><time>2022-05-08T07:21:17.000Z</time></trkpt><trkpt lon="6.076739" lat="51.157846"><ele>16</ele><time>2022-05-08T07:21:18.000Z</time></trkpt><trkpt lon="6.076819" lat="51.15779"><ele>16</ele><time>2022-05-08T07:21:19.000Z</time></trkpt><trkpt lon="6.076894" lat="51.157739"><ele>16</ele><time>2022-05-08T07:21:20.000Z</time></trkpt><trkpt lon="6.076971" lat="51.157685"><ele>16</ele><time>2022-05-08T07:21:21.000Z</time></trkpt><trkpt lon="6.077047" lat="51.157635"><ele>16</ele><time>2022-05-08T07:21:22.000Z</time></trkpt><trkpt lon="6.077121" lat="51.157584"><ele>16</ele><time>2022-05-08T07:21:23.000Z</time></trkpt><trkpt lon="6.077205" lat="51.157531"><ele>16</ele><time>2022-05-08T07:21:24.000Z</time></trkpt><trkpt lon="6.077293" lat="51.157478"><ele>16</ele><time>2022-05-08T07:21:25.000Z</time></trkpt><trkpt lon="6.077375" lat="51.157429"><ele>16</ele><time>2022-05-08T07:21:26.000Z</time></trkpt><trkpt lon="6.077454" lat="51.157381"><ele>16</ele><time>2022-05-08T07:21:27.000Z</time></trkpt><trkpt lon="6.077531" lat="51.157332"><ele>16</ele><time>2022-05-08T07:21:28.000Z</time></trkpt><trkpt lon="6.077602" lat="51.15728"><ele>16</ele><time>2022-05-08T07:21:29.000Z</time></trkpt><trkpt lon="6.07767" lat="51.157226"><ele>16</ele><time>2022-05-08T07:21:30.000Z</time></trkpt><trkpt lon="6.077736" lat="51.157173"><ele>16</ele><time>2022-05-08T07:21:31.000Z</time></trkpt><trkpt lon="6.077804" lat="51.157118"><ele>16.2</ele><time>2022-05-08T07:21:32.000Z</time></trkpt><trkpt lon="6.077874" lat="51.15706"><ele>16.2</ele><time>2022-05-08T07:21:33.000Z</time></trkpt><trkpt lon="6.07794" lat="51.157002"><ele>16.2</ele><time>2022-05-08T07:21:34.000Z</time></trkpt><trkpt lon="6.078009" lat="51.156943"><ele>16.4</ele><time>2022-05-08T07:21:35.000Z</time></trkpt><trkpt lon="6.078075" lat="51.15689"><ele>16.4</ele><time>2022-05-08T07:21:36.000Z</time></trkpt><trkpt lon="6.078141" lat="51.15684"><ele>16.4</ele><time>2022-05-08T07:21:37.000Z</time></trkpt><trkpt lon="6.078212" lat="51.156792"><ele>16.4</ele><time>2022-05-08T07:21:38.000Z</time></trkpt><trkpt lon="6.078282" lat="51.156742"><ele>16.6</ele><time>2022-05-08T07:21:39.000Z</time></trkpt><trkpt lon="6.078347" lat="51.156692"><ele>16.6</ele><time>2022-05-08T07:21:40.000Z</time></trkpt><trkpt lon="6.078413" lat="51.156642"><ele>16.6</ele><time>2022-05-08T07:21:41.000Z</time></trkpt><trkpt lon="6.078482" lat="51.156591"><ele>16.4</ele><time>2022-05-08T07:21:42.000Z</time></trkpt><trkpt lon="6.078547" lat="51.156544"><ele>16.6</ele><time>2022-05-08T07:21:43.000Z</time></trkpt><trkpt lon="6.078611" lat="51.156492"><ele>16.6</ele><time>2022-05-08T07:21:44.000Z</time></trkpt><trkpt lon="6.078687" lat="51.156438"><ele>16.6</ele><time>2022-05-08T07:21:45.000Z</time></trkpt><trkpt lon="6.078772" lat="51.156389"><ele>16.6</ele><time>2022-05-08T07:21:46.000Z</time></trkpt><trkpt lon="6.078853" lat="51.156338"><ele>16.6</ele><time>2022-05-08T07:21:47.000Z</time></trkpt><trkpt lon="6.078926" lat="51.15629"><ele>16.6</ele><time>2022-05-08T07:21:48.000Z</time></trkpt><trkpt lon="6.078991" lat="51.156243"><ele>16.6</ele><time>2022-05-08T07:21:49.000Z</time></trkpt><trkpt lon="6.07906" lat="51.156201"><ele>16.6</ele><time>2022-05-08T07:21:50.000Z</time></trkpt><trkpt lon="6.079131" lat="51.156165"><ele>16.6</ele><time>2022-05-08T07:21:51.000Z</time></trkpt><trkpt lon="6.079204" lat="51.156131"><ele>16.8</ele><time>2022-05-08T07:21:52.000Z</time></trkpt><trkpt lon="6.079282" lat="51.156094"><ele>17</ele><time>2022-05-08T07:21:53.000Z</time></trkpt><trkpt lon="6.079369" lat="51.156045"><ele>16.8</ele><time>2022-05-08T07:21:54.000Z</time></trkpt><trkpt lon="6.079455" lat="51.155995"><ele>16.8</ele><time>2022-05-08T07:21:55.000Z</time></trkpt><trkpt lon="6.07954" lat="51.155953"><ele>16.6</ele><time>2022-05-08T07:21:56.000Z</time></trkpt><trkpt lon="6.079639" lat="51.155909"><ele>16.8</ele><time>2022-05-08T07:21:57.000Z</time></trkpt><trkpt lon="6.079749" lat="51.155855"><ele>16.8</ele><time>2022-05-08T07:21:58.000Z</time></trkpt><trkpt lon="6.079852" lat="51.155806"><ele>16.8</ele><time>2022-05-08T07:21:59.000Z</time></trkpt><trkpt lon="6.079949" lat="51.155759"><ele>16.8</ele><time>2022-05-08T07:22:00.000Z</time></trkpt><trkpt lon="6.080044" lat="51.155712"><ele>16.8</ele><time>2022-05-08T07:22:01.000Z</time></trkpt><trkpt lon="6.080137" lat="51.155669"><ele>16.8</ele><time>2022-05-08T07:22:02.000Z</time></trkpt><trkpt lon="6.080237" lat="51.155625"><ele>17</ele><time>2022-05-08T07:22:03.000Z</time></trkpt><trkpt lon="6.080348" lat="51.155572"><ele>17</ele><time>2022-05-08T07:22:04.000Z</time></trkpt><trkpt lon="6.080461" lat="51.155517"><ele>17.2</ele><time>2022-05-08T07:22:05.000Z</time></trkpt><trkpt lon="6.080577" lat="51.155466"><ele>17.2</ele><time>2022-05-08T07:22:06.000Z</time></trkpt><trkpt lon="6.080693" lat="51.155421"><ele>17.2</ele><time>2022-05-08T07:22:07.000Z</time></trkpt><trkpt lon="6.0808" lat="51.155382"><ele>17.2</ele><time>2022-05-08T07:22:08.000Z</time></trkpt><trkpt lon="6.080909" lat="51.155342"><ele>17.2</ele><time>2022-05-08T07:22:09.000Z</time></trkpt><trkpt lon="6.081024" lat="51.155301"><ele>17.2</ele><time>2022-05-08T07:22:10.000Z</time></trkpt><trkpt lon="6.081131" lat="51.155265"><ele>17</ele><time>2022-05-08T07:22:11.000Z</time></trkpt><trkpt lon="6.08123" lat="51.155235"><ele>17</ele><time>2022-05-08T07:22:12.000Z</time></trkpt><trkpt lon="6.081339" lat="51.155202"><ele>17</ele><time>2022-05-08T07:22:13.000Z</time></trkpt><trkpt lon="6.08145" lat="51.155166"><ele>17</ele><time>2022-05-08T07:22:14.000Z</time></trkpt><trkpt lon="6.081559" lat="51.155131"><ele>17</ele><time>2022-05-08T07:22:15.000Z</time></trkpt><trkpt lon="6.081671" lat="51.155095"><ele>16.8</ele><time>2022-05-08T07:22:16.000Z</time></trkpt><trkpt lon="6.081785" lat="51.155057"><ele>16.8</ele><time>2022-05-08T07:22:17.000Z</time></trkpt><trkpt lon="6.081897" lat="51.155021"><ele>16.8</ele><time>2022-05-08T07:22:18.000Z</time></trkpt><trkpt lon="6.082006" lat="51.154984"><ele>17</ele><time>2022-05-08T07:22:19.000Z</time></trkpt><trkpt lon="6.082119" lat="51.15495"><ele>17</ele><time>2022-05-08T07:22:20.000Z</time></trkpt><trkpt lon="6.082231" lat="51.15492"><ele>17.2</ele><time>2022-05-08T07:22:21.000Z</time></trkpt><trkpt lon="6.082345" lat="51.15489"><ele>17.2</ele><time>2022-05-08T07:22:22.000Z</time></trkpt><trkpt lon="6.082459" lat="51.154857"><ele>17.2</ele><time>2022-05-08T07:22:23.000Z</time></trkpt><trkpt lon="6.082571" lat="51.154823"><ele>17.4</ele><time>2022-05-08T07:22:24.000Z</time></trkpt><trkpt lon="6.082681" lat="51.154786"><ele>17.4</ele><time>2022-05-08T07:22:25.000Z</time></trkpt><trkpt lon="6.082789" lat="51.15475"><ele>17.6</ele><time>2022-05-08T07:22:26.000Z</time></trkpt><trkpt lon="6.082896" lat="51.154718"><ele>17.6</ele><time>2022-05-08T07:22:27.000Z</time></trkpt><trkpt lon="6.083005" lat="51.154685"><ele>17.4</ele><time>2022-05-08T07:22:28.000Z</time></trkpt><trkpt lon="6.083113" lat="51.154651"><ele>17.6</ele><time>2022-05-08T07:22:29.000Z</time></trkpt><trkpt lon="6.083219" lat="51.154616"><ele>17.6</ele><time>2022-05-08T07:22:30.000Z</time></trkpt><trkpt lon="6.08332" lat="51.154586"><ele>17.6</ele><time>2022-05-08T07:22:31.000Z</time></trkpt><trkpt lon="6.08343" lat="51.154553"><ele>17.8</ele><time>2022-05-08T07:22:32.000Z</time></trkpt><trkpt lon="6.083542" lat="51.15452"><ele>17.8</ele><time>2022-05-08T07:22:33.000Z</time></trkpt><trkpt lon="6.083642" lat="51.154489"><ele>17.8</ele><time>2022-05-08T07:22:34.000Z</time></trkpt><trkpt lon="6.083749" lat="51.154457"><ele>17.8</ele><time>2022-05-08T07:22:35.000Z</time></trkpt><trkpt lon="6.083862" lat="51.154425"><ele>17.8</ele><time>2022-05-08T07:22:36.000Z</time></trkpt><trkpt lon="6.08397" lat="51.154392"><ele>17.8</ele><time>2022-05-08T07:22:37.000Z</time></trkpt><trkpt lon="6.084076" lat="51.15436"><ele>17.8</ele><time>2022-05-08T07:22:38.000Z</time></trkpt><trkpt lon="6.084181" lat="51.154329"><ele>17.8</ele><time>2022-05-08T07:22:39.000Z</time></trkpt><trkpt lon="6.084289" lat="51.154296"><ele>17.8</ele><time>2022-05-08T07:22:40.000Z</time></trkpt><trkpt lon="6.084394" lat="51.154266"><ele>17.8</ele><time>2022-05-08T07:22:41.000Z</time></trkpt><trkpt lon="6.084498" lat="51.154235"><ele>18</ele><time>2022-05-08T07:22:42.000Z</time></trkpt><trkpt lon="6.084604" lat="51.154203"><ele>18</ele><time>2022-05-08T07:22:43.000Z</time></trkpt><trkpt lon="6.084708" lat="51.154172"><ele>18</ele><time>2022-05-08T07:22:44.000Z</time></trkpt><trkpt lon="6.084812" lat="51.154142"><ele>18</ele><time>2022-05-08T07:22:45.000Z</time></trkpt><trkpt lon="6.084915" lat="51.154111"><ele>18</ele><time>2022-05-08T07:22:46.000Z</time></trkpt><trkpt lon="6.085018" lat="51.154081"><ele>18</ele><time>2022-05-08T07:22:47.000Z</time></trkpt><trkpt lon="6.085107" lat="51.154053"><ele>18</ele><time>2022-05-08T07:22:48.000Z</time></trkpt><trkpt lon="6.085205" lat="51.154021"><ele>18</ele><time>2022-05-08T07:22:49.000Z</time></trkpt><trkpt lon="6.085326" lat="51.153985"><ele>18.2</ele><time>2022-05-08T07:22:50.000Z</time></trkpt><trkpt lon="6.085426" lat="51.153955"><ele>18.2</ele><time>2022-05-08T07:22:51.000Z</time></trkpt><trkpt lon="6.085527" lat="51.153925"><ele>18.2</ele><time>2022-05-08T07:22:52.000Z</time></trkpt><trkpt lon="6.085627" lat="51.153894"><ele>18.4</ele><time>2022-05-08T07:22:53.000Z</time></trkpt><trkpt lon="6.085728" lat="51.153861"><ele>18.4</ele><time>2022-05-08T07:22:54.000Z</time></trkpt><trkpt lon="6.085827" lat="51.153832"><ele>18.4</ele><time>2022-05-08T07:22:55.000Z</time></trkpt><trkpt lon="6.085931" lat="51.153803"><ele>18.4</ele><time>2022-05-08T07:22:56.000Z</time></trkpt><trkpt lon="6.086036" lat="51.153772"><ele>18.4</ele><time>2022-05-08T07:22:57.000Z</time></trkpt><trkpt lon="6.08614" lat="51.153741"><ele>18.4</ele><time>2022-05-08T07:22:58.000Z</time></trkpt><trkpt lon="6.086241" lat="51.153711"><ele>18.4</ele><time>2022-05-08T07:22:59.000Z</time></trkpt><trkpt lon="6.086343" lat="51.153681"><ele>18.2</ele><time>2022-05-08T07:23:00.000Z</time></trkpt><trkpt lon="6.086444" lat="51.153651"><ele>18.2</ele><time>2022-05-08T07:23:01.000Z</time></trkpt><trkpt lon="6.086547" lat="51.15362"><ele>18.4</ele><time>2022-05-08T07:23:02.000Z</time></trkpt><trkpt lon="6.08665" lat="51.153589"><ele>18.4</ele><time>2022-05-08T07:23:03.000Z</time></trkpt><trkpt lon="6.086752" lat="51.153558"><ele>18.4</ele><time>2022-05-08T07:23:04.000Z</time></trkpt><trkpt lon="6.086853" lat="51.153528"><ele>18.4</ele><time>2022-05-08T07:23:05.000Z</time></trkpt><trkpt lon="6.086953" lat="51.153499"><ele>18.4</ele><time>2022-05-08T07:23:06.000Z</time></trkpt><trkpt lon="6.087053" lat="51.15347"><ele>18.2</ele><time>2022-05-08T07:23:07.000Z</time></trkpt><trkpt lon="6.087155" lat="51.153437"><ele>18.2</ele><time>2022-05-08T07:23:08.000Z</time></trkpt><trkpt lon="6.087256" lat="51.153408"><ele>18.4</ele><time>2022-05-08T07:23:09.000Z</time></trkpt><trkpt lon="6.087356" lat="51.153379"><ele>18.2</ele><time>2022-05-08T07:23:10.000Z</time></trkpt><trkpt lon="6.087458" lat="51.153349"><ele>18.2</ele><time>2022-05-08T07:23:11.000Z</time></trkpt><trkpt lon="6.087562" lat="51.153318"><ele>18.2</ele><time>2022-05-08T07:23:12.000Z</time></trkpt><trkpt lon="6.087664" lat="51.153285"><ele>18</ele><time>2022-05-08T07:23:13.000Z</time></trkpt><trkpt lon="6.087767" lat="51.153253"><ele>18</ele><time>2022-05-08T07:23:14.000Z</time></trkpt><trkpt lon="6.087868" lat="51.153225"><ele>17.8</ele><time>2022-05-08T07:23:15.000Z</time></trkpt><trkpt lon="6.087969" lat="51.153196"><ele>17.6</ele><time>2022-05-08T07:23:16.000Z</time></trkpt><trkpt lon="6.088069" lat="51.153164"><ele>17.6</ele><time>2022-05-08T07:23:17.000Z</time></trkpt><trkpt lon="6.088173" lat="51.153131"><ele>17.4</ele><time>2022-05-08T07:23:18.000Z</time></trkpt><trkpt lon="6.088274" lat="51.153101"><ele>17.4</ele><time>2022-05-08T07:23:19.000Z</time></trkpt><trkpt lon="6.088375" lat="51.153068"><ele>17.2</ele><time>2022-05-08T07:23:20.000Z</time></trkpt><trkpt lon="6.088474" lat="51.153039"><ele>17.2</ele><time>2022-05-08T07:23:21.000Z</time></trkpt><trkpt lon="6.088578" lat="51.153008"><ele>17.2</ele><time>2022-05-08T07:23:22.000Z</time></trkpt><trkpt lon="6.088685" lat="51.152972"><ele>17</ele><time>2022-05-08T07:23:23.000Z</time></trkpt><trkpt lon="6.088789" lat="51.152938"><ele>17</ele><time>2022-05-08T07:23:24.000Z</time></trkpt><trkpt lon="6.088892" lat="51.152901"><ele>17</ele><time>2022-05-08T07:23:25.000Z</time></trkpt><trkpt lon="6.088993" lat="51.152866"><ele>17</ele><time>2022-05-08T07:23:26.000Z</time></trkpt><trkpt lon="6.089089" lat="51.152834"><ele>17</ele><time>2022-05-08T07:23:27.000Z</time></trkpt><trkpt lon="6.089193" lat="51.152799"><ele>17</ele><time>2022-05-08T07:23:28.000Z</time></trkpt><trkpt lon="6.089299" lat="51.152763"><ele>17.2</ele><time>2022-05-08T07:23:29.000Z</time></trkpt><trkpt lon="6.0894" lat="51.15273"><ele>17</ele><time>2022-05-08T07:23:30.000Z</time></trkpt><trkpt lon="6.089499" lat="51.152701"><ele>17</ele><time>2022-05-08T07:23:31.000Z</time></trkpt><trkpt lon="6.089604" lat="51.15267"><ele>17</ele><time>2022-05-08T07:23:32.000Z</time></trkpt><trkpt lon="6.089712" lat="51.152639"><ele>17</ele><time>2022-05-08T07:23:33.000Z</time></trkpt><trkpt lon="6.089819" lat="51.152606"><ele>17</ele><time>2022-05-08T07:23:34.000Z</time></trkpt><trkpt lon="6.089927" lat="51.152574"><ele>16.8</ele><time>2022-05-08T07:23:35.000Z</time></trkpt><trkpt lon="6.090034" lat="51.152544"><ele>16.8</ele><time>2022-05-08T07:23:36.000Z</time></trkpt><trkpt lon="6.090142" lat="51.152513"><ele>16.6</ele><time>2022-05-08T07:23:37.000Z</time></trkpt><trkpt lon="6.090251" lat="51.15248"><ele>16.6</ele><time>2022-05-08T07:23:38.000Z</time></trkpt><trkpt lon="6.090356" lat="51.152448"><ele>16.6</ele><time>2022-05-08T07:23:39.000Z</time></trkpt><trkpt lon="6.090459" lat="51.152418"><ele>16.6</ele><time>2022-05-08T07:23:40.000Z</time></trkpt><trkpt lon="6.090561" lat="51.152387"><ele>16.6</ele><time>2022-05-08T07:23:41.000Z</time></trkpt><trkpt lon="6.09066" lat="51.152359"><ele>16.4</ele><time>2022-05-08T07:23:42.000Z</time></trkpt><trkpt lon="6.090756" lat="51.15233"><ele>16.4</ele><time>2022-05-08T07:23:43.000Z</time></trkpt><trkpt lon="6.09085" lat="51.152302"><ele>16.4</ele><time>2022-05-08T07:23:44.000Z</time></trkpt><trkpt lon="6.090943" lat="51.152273"><ele>16.4</ele><time>2022-05-08T07:23:45.000Z</time></trkpt><trkpt lon="6.091034" lat="51.152242"><ele>16.4</ele><time>2022-05-08T07:23:46.000Z</time></trkpt><trkpt lon="6.091125" lat="51.152212"><ele>16.4</ele><time>2022-05-08T07:23:47.000Z</time></trkpt><trkpt lon="6.091207" lat="51.152187"><ele>16.6</ele><time>2022-05-08T07:23:48.000Z</time></trkpt><trkpt lon="6.091293" lat="51.15216"><ele>16.6</ele><time>2022-05-08T07:23:49.000Z</time></trkpt><trkpt lon="6.091386" lat="51.152127"><ele>16.6</ele><time>2022-05-08T07:23:50.000Z</time></trkpt><trkpt lon="6.091467" lat="51.152094"><ele>16.6</ele><time>2022-05-08T07:23:51.000Z</time></trkpt><trkpt lon="6.091554" lat="51.152057"><ele>16.4</ele><time>2022-05-08T07:23:52.000Z</time></trkpt><trkpt lon="6.091643" lat="51.152021"><ele>16.4</ele><time>2022-05-08T07:23:53.000Z</time></trkpt><trkpt lon="6.091731" lat="51.151983"><ele>16.6</ele><time>2022-05-08T07:23:54.000Z</time></trkpt><trkpt lon="6.091817" lat="51.151942"><ele>16.6</ele><time>2022-05-08T07:23:55.000Z</time></trkpt><trkpt lon="6.091902" lat="51.151903"><ele>16.6</ele><time>2022-05-08T07:23:56.000Z</time></trkpt><trkpt lon="6.091992" lat="51.15186"><ele>16.6</ele><time>2022-05-08T07:23:57.000Z</time></trkpt><trkpt lon="6.092085" lat="51.151816"><ele>16.8</ele><time>2022-05-08T07:23:58.000Z</time></trkpt><trkpt lon="6.092172" lat="51.151776"><ele>16.8</ele><time>2022-05-08T07:23:59.000Z</time></trkpt><trkpt lon="6.092256" lat="51.151736"><ele>16.8</ele><time>2022-05-08T07:24:00.000Z</time></trkpt><trkpt lon="6.092339" lat="51.151692"><ele>16.8</ele><time>2022-05-08T07:24:01.000Z</time></trkpt><trkpt lon="6.092417" lat="51.151649"><ele>17</ele><time>2022-05-08T07:24:02.000Z</time></trkpt><trkpt lon="6.092498" lat="51.151604"><ele>17</ele><time>2022-05-08T07:24:03.000Z</time></trkpt><trkpt lon="6.092586" lat="51.151556"><ele>17</ele><time>2022-05-08T07:24:04.000Z</time></trkpt><trkpt lon="6.092672" lat="51.151506"><ele>17</ele><time>2022-05-08T07:24:05.000Z</time></trkpt><trkpt lon="6.092755" lat="51.151456"><ele>17</ele><time>2022-05-08T07:24:06.000Z</time></trkpt><trkpt lon="6.092835" lat="51.151402"><ele>17.2</ele><time>2022-05-08T07:24:07.000Z</time></trkpt><trkpt lon="6.092916" lat="51.151347"><ele>17.2</ele><time>2022-05-08T07:24:08.000Z</time></trkpt><trkpt lon="6.092994" lat="51.151293"><ele>17.2</ele><time>2022-05-08T07:24:09.000Z</time></trkpt><trkpt lon="6.093071" lat="51.151234"><ele>17.4</ele><time>2022-05-08T07:24:10.000Z</time></trkpt><trkpt lon="6.093148" lat="51.151174"><ele>17.4</ele><time>2022-05-08T07:24:11.000Z</time></trkpt><trkpt lon="6.093226" lat="51.151112"><ele>17.4</ele><time>2022-05-08T07:24:12.000Z</time></trkpt><trkpt lon="6.093302" lat="51.151051"><ele>17.4</ele><time>2022-05-08T07:24:13.000Z</time></trkpt><trkpt lon="6.093372" lat="51.150995"><ele>17.6</ele><time>2022-05-08T07:24:14.000Z</time></trkpt><trkpt lon="6.093443" lat="51.150938"><ele>17.6</ele><time>2022-05-08T07:24:15.000Z</time></trkpt><trkpt lon="6.093512" lat="51.150877"><ele>17.6</ele><time>2022-05-08T07:24:16.000Z</time></trkpt><trkpt lon="6.093579" lat="51.150814"><ele>17.6</ele><time>2022-05-08T07:24:17.000Z</time></trkpt><trkpt lon="6.093646" lat="51.150755"><ele>17.6</ele><time>2022-05-08T07:24:18.000Z</time></trkpt><trkpt lon="6.093706" lat="51.150702"><ele>17.8</ele><time>2022-05-08T07:24:19.000Z</time></trkpt><trkpt lon="6.093772" lat="51.150644"><ele>17.6</ele><time>2022-05-08T07:24:20.000Z</time></trkpt><trkpt lon="6.093845" lat="51.150581"><ele>17.6</ele><time>2022-05-08T07:24:21.000Z</time></trkpt><trkpt lon="6.093912" lat="51.150521"><ele>17.6</ele><time>2022-05-08T07:24:22.000Z</time></trkpt><trkpt lon="6.093979" lat="51.150463"><ele>17.6</ele><time>2022-05-08T07:24:23.000Z</time></trkpt><trkpt lon="6.094045" lat="51.150405"><ele>17.6</ele><time>2022-05-08T07:24:24.000Z</time></trkpt><trkpt lon="6.094111" lat="51.150346"><ele>17.8</ele><time>2022-05-08T07:24:25.000Z</time></trkpt><trkpt lon="6.094177" lat="51.150289"><ele>17.8</ele><time>2022-05-08T07:24:26.000Z</time></trkpt><trkpt lon="6.094243" lat="51.15023"><ele>17.8</ele><time>2022-05-08T07:24:27.000Z</time></trkpt><trkpt lon="6.094308" lat="51.150172"><ele>17.8</ele><time>2022-05-08T07:24:28.000Z</time></trkpt><trkpt lon="6.094375" lat="51.150114"><ele>17.8</ele><time>2022-05-08T07:24:29.000Z</time></trkpt><trkpt lon="6.094441" lat="51.150056"><ele>17.6</ele><time>2022-05-08T07:24:30.000Z</time></trkpt><trkpt lon="6.094506" lat="51.15"><ele>17.6</ele><time>2022-05-08T07:24:31.000Z</time></trkpt><trkpt lon="6.09457" lat="51.149943"><ele>17.6</ele><time>2022-05-08T07:24:32.000Z</time></trkpt><trkpt lon="6.094635" lat="51.149884"><ele>17.6</ele><time>2022-05-08T07:24:33.000Z</time></trkpt><trkpt lon="6.094702" lat="51.149827"><ele>17.6</ele><time>2022-05-08T07:24:34.000Z</time></trkpt><trkpt lon="6.094767" lat="51.149771"><ele>17.8</ele><time>2022-05-08T07:24:35.000Z</time></trkpt><trkpt lon="6.094833" lat="51.149711"><ele>17.6</ele><time>2022-05-08T07:24:36.000Z</time></trkpt><trkpt lon="6.094898" lat="51.149651"><ele>17.6</ele><time>2022-05-08T07:24:37.000Z</time></trkpt><trkpt lon="6.094962" lat="51.149594"><ele>17.6</ele><time>2022-05-08T07:24:38.000Z</time></trkpt><trkpt lon="6.095026" lat="51.149538"><ele>17.4</ele><time>2022-05-08T07:24:39.000Z</time></trkpt><trkpt lon="6.09509" lat="51.149481"><ele>17.4</ele><time>2022-05-08T07:24:40.000Z</time></trkpt><trkpt lon="6.095157" lat="51.149421"><ele>17.4</ele><time>2022-05-08T07:24:41.000Z</time></trkpt><trkpt lon="6.095223" lat="51.149366"><ele>17.4</ele><time>2022-05-08T07:24:42.000Z</time></trkpt><trkpt lon="6.09529" lat="51.14931"><ele>17.4</ele><time>2022-05-08T07:24:43.000Z</time></trkpt><trkpt lon="6.095354" lat="51.149255"><ele>17.4</ele><time>2022-05-08T07:24:44.000Z</time></trkpt><trkpt lon="6.095418" lat="51.1492"><ele>17.4</ele><time>2022-05-08T07:24:45.000Z</time></trkpt><trkpt lon="6.095485" lat="51.149141"><ele>17.6</ele><time>2022-05-08T07:24:46.000Z</time></trkpt><trkpt lon="6.095553" lat="51.149083"><ele>17.8</ele><time>2022-05-08T07:24:47.000Z</time></trkpt><trkpt lon="6.095622" lat="51.149023"><ele>17.8</ele><time>2022-05-08T07:24:48.000Z</time></trkpt><trkpt lon="6.095687" lat="51.148966"><ele>17.8</ele><time>2022-05-08T07:24:49.000Z</time></trkpt><trkpt lon="6.095753" lat="51.148908"><ele>18</ele><time>2022-05-08T07:24:50.000Z</time></trkpt><trkpt lon="6.095817" lat="51.148852"><ele>18</ele><time>2022-05-08T07:24:51.000Z</time></trkpt><trkpt lon="6.095881" lat="51.148792"><ele>18</ele><time>2022-05-08T07:24:52.000Z</time></trkpt><trkpt lon="6.095947" lat="51.148732"><ele>18</ele><time>2022-05-08T07:24:53.000Z</time></trkpt><trkpt lon="6.096013" lat="51.148673"><ele>18</ele><time>2022-05-08T07:24:54.000Z</time></trkpt><trkpt lon="6.096078" lat="51.148614"><ele>18</ele><time>2022-05-08T07:24:55.000Z</time></trkpt><trkpt lon="6.096143" lat="51.148557"><ele>18</ele><time>2022-05-08T07:24:56.000Z</time></trkpt><trkpt lon="6.096207" lat="51.148498"><ele>18.2</ele><time>2022-05-08T07:24:57.000Z</time></trkpt><trkpt lon="6.096273" lat="51.148439"><ele>18.2</ele><time>2022-05-08T07:24:58.000Z</time></trkpt><trkpt lon="6.096339" lat="51.148382"><ele>18.2</ele><time>2022-05-08T07:24:59.000Z</time></trkpt><trkpt lon="6.096401" lat="51.148326"><ele>18.2</ele><time>2022-05-08T07:25:00.000Z</time></trkpt><trkpt lon="6.096467" lat="51.148266"><ele>18.2</ele><time>2022-05-08T07:25:01.000Z</time></trkpt><trkpt lon="6.096535" lat="51.148206"><ele>18.2</ele><time>2022-05-08T07:25:02.000Z</time></trkpt><trkpt lon="6.0966" lat="51.148149"><ele>18.4</ele><time>2022-05-08T07:25:03.000Z</time></trkpt><trkpt lon="6.096665" lat="51.14809"><ele>18.4</ele><time>2022-05-08T07:25:04.000Z</time></trkpt><trkpt lon="6.096731" lat="51.148031"><ele>18.4</ele><time>2022-05-08T07:25:05.000Z</time></trkpt><trkpt lon="6.096797" lat="51.147974"><ele>18.4</ele><time>2022-05-08T07:25:06.000Z</time></trkpt><trkpt lon="6.096862" lat="51.147917"><ele>18.4</ele><time>2022-05-08T07:25:07.000Z</time></trkpt><trkpt lon="6.096928" lat="51.147859"><ele>18.6</ele><time>2022-05-08T07:25:08.000Z</time></trkpt><trkpt lon="6.096984" lat="51.147807"><ele>18.6</ele><time>2022-05-08T07:25:09.000Z</time></trkpt><trkpt lon="6.097044" lat="51.147752"><ele>18.4</ele><time>2022-05-08T07:25:10.000Z</time></trkpt><trkpt lon="6.097121" lat="51.147685"><ele>18.4</ele><time>2022-05-08T07:25:11.000Z</time></trkpt><trkpt lon="6.097182" lat="51.147632"><ele>18.4</ele><time>2022-05-08T07:25:12.000Z</time></trkpt><trkpt lon="6.097246" lat="51.147575"><ele>18.4</ele><time>2022-05-08T07:25:13.000Z</time></trkpt><trkpt lon="6.097317" lat="51.147512"><ele>18.4</ele><time>2022-05-08T07:25:14.000Z</time></trkpt><trkpt lon="6.097383" lat="51.147452"><ele>18.4</ele><time>2022-05-08T07:25:15.000Z</time></trkpt><trkpt lon="6.097451" lat="51.147393"><ele>18.4</ele><time>2022-05-08T07:25:16.000Z</time></trkpt><trkpt lon="6.09752" lat="51.147334"><ele>18.4</ele><time>2022-05-08T07:25:17.000Z</time></trkpt><trkpt lon="6.097585" lat="51.147278"><ele>18.4</ele><time>2022-05-08T07:25:18.000Z</time></trkpt><trkpt lon="6.09765" lat="51.147223"><ele>18.4</ele><time>2022-05-08T07:25:19.000Z</time></trkpt><trkpt lon="6.097719" lat="51.147163"><ele>18.4</ele><time>2022-05-08T07:25:20.000Z</time></trkpt><trkpt lon="6.097787" lat="51.147106"><ele>18.6</ele><time>2022-05-08T07:25:21.000Z</time></trkpt><trkpt lon="6.097855" lat="51.14705"><ele>18.6</ele><time>2022-05-08T07:25:22.000Z</time></trkpt><trkpt lon="6.097923" lat="51.146992"><ele>18.6</ele><time>2022-05-08T07:25:23.000Z</time></trkpt><trkpt lon="6.097991" lat="51.146935"><ele>18.8</ele><time>2022-05-08T07:25:24.000Z</time></trkpt><trkpt lon="6.098059" lat="51.146881"><ele>18.8</ele><time>2022-05-08T07:25:25.000Z</time></trkpt><trkpt lon="6.098128" lat="51.146828"><ele>18.8</ele><time>2022-05-08T07:25:26.000Z</time></trkpt><trkpt lon="6.098199" lat="51.146773"><ele>19</ele><time>2022-05-08T07:25:27.000Z</time></trkpt><trkpt lon="6.098273" lat="51.146718"><ele>19</ele><time>2022-05-08T07:25:28.000Z</time></trkpt><trkpt lon="6.098348" lat="51.146663"><ele>19</ele><time>2022-05-08T07:25:29.000Z</time></trkpt><trkpt lon="6.098423" lat="51.146612"><ele>19</ele><time>2022-05-08T07:25:30.000Z</time></trkpt><trkpt lon="6.098496" lat="51.146561"><ele>19</ele><time>2022-05-08T07:25:31.000Z</time></trkpt><trkpt lon="6.09857" lat="51.146508"><ele>19</ele><time>2022-05-08T07:25:32.000Z</time></trkpt><trkpt lon="6.098645" lat="51.146456"><ele>18.8</ele><time>2022-05-08T07:25:33.000Z</time></trkpt><trkpt lon="6.098722" lat="51.146403"><ele>18.8</ele><time>2022-05-08T07:25:34.000Z</time></trkpt><trkpt lon="6.098798" lat="51.146353"><ele>18.8</ele><time>2022-05-08T07:25:35.000Z</time></trkpt><trkpt lon="6.098872" lat="51.146302"><ele>18.8</ele><time>2022-05-08T07:25:36.000Z</time></trkpt><trkpt lon="6.098939" lat="51.146258"><ele>18.8</ele><time>2022-05-08T07:25:37.000Z</time></trkpt><trkpt lon="6.099013" lat="51.146212"><ele>18.8</ele><time>2022-05-08T07:25:38.000Z</time></trkpt><trkpt lon="6.099104" lat="51.146157"><ele>18.8</ele><time>2022-05-08T07:25:39.000Z</time></trkpt><trkpt lon="6.099184" lat="51.146107"><ele>18.8</ele><time>2022-05-08T07:25:40.000Z</time></trkpt><trkpt lon="6.099268" lat="51.146055"><ele>18.8</ele><time>2022-05-08T07:25:41.000Z</time></trkpt><trkpt lon="6.099346" lat="51.146009"><ele>18.8</ele><time>2022-05-08T07:25:42.000Z</time></trkpt><trkpt lon="6.099422" lat="51.145962"><ele>18.8</ele><time>2022-05-08T07:25:43.000Z</time></trkpt><trkpt lon="6.099498" lat="51.145915"><ele>18.6</ele><time>2022-05-08T07:25:44.000Z</time></trkpt><trkpt lon="6.099577" lat="51.145865"><ele>18.4</ele><time>2022-05-08T07:25:45.000Z</time></trkpt><trkpt lon="6.099651" lat="51.145819"><ele>18.4</ele><time>2022-05-08T07:25:46.000Z</time></trkpt><trkpt lon="6.099724" lat="51.145775"><ele>18.6</ele><time>2022-05-08T07:25:47.000Z</time></trkpt><trkpt lon="6.099797" lat="51.145729"><ele>18.6</ele><time>2022-05-08T07:25:48.000Z</time></trkpt><trkpt lon="6.099872" lat="51.145686"><ele>18.6</ele><time>2022-05-08T07:25:49.000Z</time></trkpt><trkpt lon="6.099948" lat="51.14564"><ele>18.8</ele><time>2022-05-08T07:25:50.000Z</time></trkpt><trkpt lon="6.100019" lat="51.145593"><ele>18.8</ele><time>2022-05-08T07:25:51.000Z</time></trkpt><trkpt lon="6.10009" lat="51.145543"><ele>18.8</ele><time>2022-05-08T07:25:52.000Z</time></trkpt><trkpt lon="6.100163" lat="51.145488"><ele>18.8</ele><time>2022-05-08T07:25:53.000Z</time></trkpt><trkpt lon="6.100239" lat="51.145439"><ele>18.8</ele><time>2022-05-08T07:25:54.000Z</time></trkpt><trkpt lon="6.100317" lat="51.145394"><ele>18.8</ele><time>2022-05-08T07:25:55.000Z</time></trkpt><trkpt lon="6.100399" lat="51.14535"><ele>19</ele><time>2022-05-08T07:25:56.000Z</time></trkpt><trkpt lon="6.100482" lat="51.145308"><ele>18.8</ele><time>2022-05-08T07:25:57.000Z</time></trkpt><trkpt lon="6.100565" lat="51.145266"><ele>18.8</ele><time>2022-05-08T07:25:58.000Z</time></trkpt><trkpt lon="6.100644" lat="51.145221"><ele>19</ele><time>2022-05-08T07:25:59.000Z</time></trkpt><trkpt lon="6.100721" lat="51.145173"><ele>19</ele><time>2022-05-08T07:26:00.000Z</time></trkpt><trkpt lon="6.100794" lat="51.145129"><ele>19</ele><time>2022-05-08T07:26:01.000Z</time></trkpt><trkpt lon="6.100863" lat="51.145089"><ele>19.2</ele><time>2022-05-08T07:26:02.000Z</time></trkpt><trkpt lon="6.100925" lat="51.145054"><ele>19.2</ele><time>2022-05-08T07:26:03.000Z</time></trkpt><trkpt lon="6.10099" lat="51.145015"><ele>19.2</ele><time>2022-05-08T07:26:04.000Z</time></trkpt><trkpt lon="6.101059" lat="51.144972"><ele>19.2</ele><time>2022-05-08T07:26:05.000Z</time></trkpt><trkpt lon="6.101123" lat="51.144927"><ele>19.2</ele><time>2022-05-08T07:26:06.000Z</time></trkpt><trkpt lon="6.101188" lat="51.144879"><ele>19.2</ele><time>2022-05-08T07:26:07.000Z</time></trkpt><trkpt lon="6.10126" lat="51.144833"><ele>19.4</ele><time>2022-05-08T07:26:08.000Z</time></trkpt><trkpt lon="6.101338" lat="51.144785"><ele>19.4</ele><time>2022-05-08T07:26:09.000Z</time></trkpt><trkpt lon="6.10142" lat="51.14474"><ele>19.4</ele><time>2022-05-08T07:26:10.000Z</time></trkpt><trkpt lon="6.101507" lat="51.144699"><ele>19.4</ele><time>2022-05-08T07:26:11.000Z</time></trkpt><trkpt lon="6.101597" lat="51.144652"><ele>19.4</ele><time>2022-05-08T07:26:12.000Z</time></trkpt><trkpt lon="6.101685" lat="51.144602"><ele>19.4</ele><time>2022-05-08T07:26:13.000Z</time></trkpt><trkpt lon="6.101771" lat="51.144552"><ele>19.4</ele><time>2022-05-08T07:26:14.000Z</time></trkpt><trkpt lon="6.101857" lat="51.144503"><ele>19.6</ele><time>2022-05-08T07:26:15.000Z</time></trkpt><trkpt lon="6.101945" lat="51.144454"><ele>19.6</ele><time>2022-05-08T07:26:16.000Z</time></trkpt><trkpt lon="6.102031" lat="51.144404"><ele>19.8</ele><time>2022-05-08T07:26:17.000Z</time></trkpt><trkpt lon="6.102116" lat="51.144355"><ele>19.8</ele><time>2022-05-08T07:26:18.000Z</time></trkpt><trkpt lon="6.102199" lat="51.144307"><ele>19.8</ele><time>2022-05-08T07:26:19.000Z</time></trkpt><trkpt lon="6.102281" lat="51.144264"><ele>19.8</ele><time>2022-05-08T07:26:20.000Z</time></trkpt><trkpt lon="6.102365" lat="51.144222"><ele>19.6</ele><time>2022-05-08T07:26:21.000Z</time></trkpt><trkpt lon="6.10245" lat="51.144179"><ele>19.6</ele><time>2022-05-08T07:26:22.000Z</time></trkpt><trkpt lon="6.102536" lat="51.144135"><ele>19.6</ele><time>2022-05-08T07:26:23.000Z</time></trkpt><trkpt lon="6.102618" lat="51.144089"><ele>19.6</ele><time>2022-05-08T07:26:24.000Z</time></trkpt><trkpt lon="6.102695" lat="51.144036"><ele>19.6</ele><time>2022-05-08T07:26:25.000Z</time></trkpt><trkpt lon="6.102768" lat="51.14398"><ele>19.6</ele><time>2022-05-08T07:26:26.000Z</time></trkpt><trkpt lon="6.102839" lat="51.14392"><ele>19.6</ele><time>2022-05-08T07:26:27.000Z</time></trkpt><trkpt lon="6.102915" lat="51.143866"><ele>19.6</ele><time>2022-05-08T07:26:28.000Z</time></trkpt><trkpt lon="6.102992" lat="51.143823"><ele>19.6</ele><time>2022-05-08T07:26:29.000Z</time></trkpt><trkpt lon="6.103078" lat="51.143782"><ele>19.6</ele><time>2022-05-08T07:26:30.000Z</time></trkpt><trkpt lon="6.103187" lat="51.143737"><ele>19.6</ele><time>2022-05-08T07:26:31.000Z</time></trkpt><trkpt lon="6.103287" lat="51.143698"><ele>19.2</ele><time>2022-05-08T07:26:32.000Z</time></trkpt><trkpt lon="6.103386" lat="51.143661"><ele>19</ele><time>2022-05-08T07:26:33.000Z</time></trkpt><trkpt lon="6.103489" lat="51.143631"><ele>19</ele><time>2022-05-08T07:26:34.000Z</time></trkpt><trkpt lon="6.103598" lat="51.143608"><ele>18.8</ele><time>2022-05-08T07:26:35.000Z</time></trkpt><trkpt lon="6.103713" lat="51.143589"><ele>19</ele><time>2022-05-08T07:26:36.000Z</time></trkpt><trkpt lon="6.10383" lat="51.143568"><ele>19</ele><time>2022-05-08T07:26:37.000Z</time></trkpt><trkpt lon="6.103947" lat="51.143543"><ele>19.2</ele><time>2022-05-08T07:26:38.000Z</time></trkpt><trkpt lon="6.104058" lat="51.143514"><ele>19.4</ele><time>2022-05-08T07:26:39.000Z</time></trkpt><trkpt lon="6.104166" lat="51.143482"><ele>19.6</ele><time>2022-05-08T07:26:40.000Z</time></trkpt><trkpt lon="6.10427" lat="51.143447"><ele>19.6</ele><time>2022-05-08T07:26:41.000Z</time></trkpt><trkpt lon="6.104371" lat="51.143415"><ele>19.8</ele><time>2022-05-08T07:26:42.000Z</time></trkpt><trkpt lon="6.104469" lat="51.143384"><ele>19.8</ele><time>2022-05-08T07:26:43.000Z</time></trkpt><trkpt lon="6.104564" lat="51.143354"><ele>20</ele><time>2022-05-08T07:26:44.000Z</time></trkpt><trkpt lon="6.10466" lat="51.143321"><ele>20</ele><time>2022-05-08T07:26:45.000Z</time></trkpt><trkpt lon="6.104754" lat="51.143291"><ele>20</ele><time>2022-05-08T07:26:46.000Z</time></trkpt><trkpt lon="6.104847" lat="51.143264"><ele>20.2</ele><time>2022-05-08T07:26:47.000Z</time></trkpt><trkpt lon="6.104941" lat="51.143238"><ele>20.2</ele><time>2022-05-08T07:26:48.000Z</time></trkpt><trkpt lon="6.105038" lat="51.143211"><ele>20.2</ele><time>2022-05-08T07:26:49.000Z</time></trkpt><trkpt lon="6.105137" lat="51.14318"><ele>20</ele><time>2022-05-08T07:26:50.000Z</time></trkpt><trkpt lon="6.105235" lat="51.143151"><ele>20.2</ele><time>2022-05-08T07:26:51.000Z</time></trkpt><trkpt lon="6.10534" lat="51.143122"><ele>20.2</ele><time>2022-05-08T07:26:52.000Z</time></trkpt><trkpt lon="6.105447" lat="51.143093"><ele>20.2</ele><time>2022-05-08T07:26:53.000Z</time></trkpt><trkpt lon="6.105551" lat="51.143064"><ele>20.4</ele><time>2022-05-08T07:26:54.000Z</time></trkpt><trkpt lon="6.105654" lat="51.143036"><ele>20.4</ele><time>2022-05-08T07:26:55.000Z</time></trkpt><trkpt lon="6.105755" lat="51.143011"><ele>20.4</ele><time>2022-05-08T07:26:56.000Z</time></trkpt><trkpt lon="6.105857" lat="51.142986"><ele>20.6</ele><time>2022-05-08T07:26:57.000Z</time></trkpt><trkpt lon="6.105961" lat="51.14296"><ele>20.6</ele><time>2022-05-08T07:26:58.000Z</time></trkpt><trkpt lon="6.106063" lat="51.142935"><ele>20.6</ele><time>2022-05-08T07:26:59.000Z</time></trkpt><trkpt lon="6.106169" lat="51.142915"><ele>20.6</ele><time>2022-05-08T07:27:00.000Z</time></trkpt><trkpt lon="6.106274" lat="51.142893"><ele>20.6</ele><time>2022-05-08T07:27:01.000Z</time></trkpt><trkpt lon="6.106377" lat="51.142877"><ele>20.8</ele><time>2022-05-08T07:27:02.000Z</time></trkpt><trkpt lon="6.106484" lat="51.142859"><ele>20.8</ele><time>2022-05-08T07:27:03.000Z</time></trkpt><trkpt lon="6.106593" lat="51.14284"><ele>20.8</ele><time>2022-05-08T07:27:04.000Z</time></trkpt><trkpt lon="6.1067" lat="51.142825"><ele>20.8</ele><time>2022-05-08T07:27:05.000Z</time></trkpt><trkpt lon="6.106805" lat="51.14281"><ele>20.8</ele><time>2022-05-08T07:27:06.000Z</time></trkpt><trkpt lon="6.106911" lat="51.142797"><ele>20.8</ele><time>2022-05-08T07:27:07.000Z</time></trkpt><trkpt lon="6.107017" lat="51.142781"><ele>21</ele><time>2022-05-08T07:27:08.000Z</time></trkpt><trkpt lon="6.107121" lat="51.142762"><ele>21</ele><time>2022-05-08T07:27:09.000Z</time></trkpt><trkpt lon="6.107217" lat="51.142743"><ele>20.8</ele><time>2022-05-08T07:27:10.000Z</time></trkpt><trkpt lon="6.107319" lat="51.142722"><ele>20.8</ele><time>2022-05-08T07:27:11.000Z</time></trkpt><trkpt lon="6.107425" lat="51.1427"><ele>21</ele><time>2022-05-08T07:27:12.000Z</time></trkpt><trkpt lon="6.107526" lat="51.142679"><ele>21</ele><time>2022-05-08T07:27:13.000Z</time></trkpt><trkpt lon="6.107627" lat="51.142657"><ele>21</ele><time>2022-05-08T07:27:14.000Z</time></trkpt><trkpt lon="6.107731" lat="51.142638"><ele>20.8</ele><time>2022-05-08T07:27:15.000Z</time></trkpt><trkpt lon="6.107833" lat="51.142623"><ele>20.8</ele><time>2022-05-08T07:27:16.000Z</time></trkpt><trkpt lon="6.107934" lat="51.142605"><ele>20.8</ele><time>2022-05-08T07:27:17.000Z</time></trkpt><trkpt lon="6.108035" lat="51.142588"><ele>21</ele><time>2022-05-08T07:27:18.000Z</time></trkpt><trkpt lon="6.108138" lat="51.142571"><ele>21</ele><time>2022-05-08T07:27:19.000Z</time></trkpt><trkpt lon="6.108243" lat="51.142554"><ele>21</ele><time>2022-05-08T07:27:20.000Z</time></trkpt><trkpt lon="6.108352" lat="51.142539"><ele>21</ele><time>2022-05-08T07:27:21.000Z</time></trkpt><trkpt lon="6.10846" lat="51.142522"><ele>21.2</ele><time>2022-05-08T07:27:22.000Z</time></trkpt><trkpt lon="6.108568" lat="51.142504"><ele>21.2</ele><time>2022-05-08T07:27:23.000Z</time></trkpt><trkpt lon="6.108674" lat="51.142487"><ele>21.2</ele><time>2022-05-08T07:27:24.000Z</time></trkpt><trkpt lon="6.108777" lat="51.142466"><ele>21.2</ele><time>2022-05-08T07:27:25.000Z</time></trkpt><trkpt lon="6.10888" lat="51.142445"><ele>21.2</ele><time>2022-05-08T07:27:26.000Z</time></trkpt><trkpt lon="6.108984" lat="51.142426"><ele>21.4</ele><time>2022-05-08T07:27:27.000Z</time></trkpt><trkpt lon="6.109091" lat="51.142409"><ele>21.4</ele><time>2022-05-08T07:27:28.000Z</time></trkpt><trkpt lon="6.109196" lat="51.142392"><ele>21.4</ele><time>2022-05-08T07:27:29.000Z</time></trkpt><trkpt lon="6.109298" lat="51.142375"><ele>21.4</ele><time>2022-05-08T07:27:30.000Z</time></trkpt><trkpt lon="6.109403" lat="51.142362"><ele>21.4</ele><time>2022-05-08T07:27:31.000Z</time></trkpt><trkpt lon="6.109511" lat="51.14235"><ele>21.4</ele><time>2022-05-08T07:27:32.000Z</time></trkpt><trkpt lon="6.10962" lat="51.142337"><ele>21.4</ele><time>2022-05-08T07:27:33.000Z</time></trkpt><trkpt lon="6.109731" lat="51.142324"><ele>21.4</ele><time>2022-05-08T07:27:34.000Z</time></trkpt><trkpt lon="6.109842" lat="51.14231"><ele>21.4</ele><time>2022-05-08T07:27:35.000Z</time></trkpt><trkpt lon="6.109949" lat="51.142292"><ele>21.6</ele><time>2022-05-08T07:27:36.000Z</time></trkpt><trkpt lon="6.110058" lat="51.142271"><ele>21.6</ele><time>2022-05-08T07:27:37.000Z</time></trkpt><trkpt lon="6.110167" lat="51.142251"><ele>21.6</ele><time>2022-05-08T07:27:38.000Z</time></trkpt><trkpt lon="6.110276" lat="51.142231"><ele>21.6</ele><time>2022-05-08T07:27:39.000Z</time></trkpt><trkpt lon="6.110368" lat="51.142214"><ele>21.8</ele><time>2022-05-08T07:27:40.000Z</time></trkpt><trkpt lon="6.110459" lat="51.142196"><ele>21.8</ele><time>2022-05-08T07:27:41.000Z</time></trkpt><trkpt lon="6.110598" lat="51.142172"><ele>21.8</ele><time>2022-05-08T07:27:42.000Z</time></trkpt><trkpt lon="6.11072" lat="51.142151"><ele>22</ele><time>2022-05-08T07:27:43.000Z</time></trkpt><trkpt lon="6.110836" lat="51.14213"><ele>22</ele><time>2022-05-08T07:27:44.000Z</time></trkpt><trkpt lon="6.110949" lat="51.142109"><ele>22</ele><time>2022-05-08T07:27:45.000Z</time></trkpt><trkpt lon="6.111063" lat="51.142093"><ele>22.2</ele><time>2022-05-08T07:27:46.000Z</time></trkpt><trkpt lon="6.11118" lat="51.142077"><ele>22.2</ele><time>2022-05-08T07:27:47.000Z</time></trkpt><trkpt lon="6.111296" lat="51.142062"><ele>22.2</ele><time>2022-05-08T07:27:48.000Z</time></trkpt><trkpt lon="6.11141" lat="51.142045"><ele>22.4</ele><time>2022-05-08T07:27:49.000Z</time></trkpt><trkpt lon="6.111525" lat="51.142028"><ele>22.4</ele><time>2022-05-08T07:27:50.000Z</time></trkpt><trkpt lon="6.11164" lat="51.14201"><ele>22.4</ele><time>2022-05-08T07:27:51.000Z</time></trkpt><trkpt lon="6.111754" lat="51.141993"><ele>22.4</ele><time>2022-05-08T07:27:52.000Z</time></trkpt><trkpt lon="6.11187" lat="51.141978"><ele>22.4</ele><time>2022-05-08T07:27:53.000Z</time></trkpt><trkpt lon="6.111982" lat="51.14196"><ele>22.4</ele><time>2022-05-08T07:27:54.000Z</time></trkpt><trkpt lon="6.112091" lat="51.141941"><ele>22.4</ele><time>2022-05-08T07:27:55.000Z</time></trkpt><trkpt lon="6.1122" lat="51.141925"><ele>22.2</ele><time>2022-05-08T07:27:56.000Z</time></trkpt><trkpt lon="6.112312" lat="51.141908"><ele>22.2</ele><time>2022-05-08T07:27:57.000Z</time></trkpt><trkpt lon="6.112425" lat="51.141888"><ele>22.4</ele><time>2022-05-08T07:27:58.000Z</time></trkpt><trkpt lon="6.112535" lat="51.141871"><ele>22.4</ele><time>2022-05-08T07:27:59.000Z</time></trkpt><trkpt lon="6.112646" lat="51.141854"><ele>22.2</ele><time>2022-05-08T07:28:00.000Z</time></trkpt><trkpt lon="6.112756" lat="51.141835"><ele>22.2</ele><time>2022-05-08T07:28:01.000Z</time></trkpt><trkpt lon="6.112866" lat="51.141816"><ele>22.2</ele><time>2022-05-08T07:28:02.000Z</time></trkpt><trkpt lon="6.112979" lat="51.141796"><ele>22.4</ele><time>2022-05-08T07:28:03.000Z</time></trkpt><trkpt lon="6.113091" lat="51.141777"><ele>22.4</ele><time>2022-05-08T07:28:04.000Z</time></trkpt><trkpt lon="6.113199" lat="51.141758"><ele>22.6</ele><time>2022-05-08T07:28:05.000Z</time></trkpt><trkpt lon="6.113306" lat="51.141742"><ele>22.6</ele><time>2022-05-08T07:28:06.000Z</time></trkpt><trkpt lon="6.113414" lat="51.141724"><ele>22.6</ele><time>2022-05-08T07:28:07.000Z</time></trkpt><trkpt lon="6.113522" lat="51.141707"><ele>22.6</ele><time>2022-05-08T07:28:08.000Z</time></trkpt><trkpt lon="6.113628" lat="51.14169"><ele>22.8</ele><time>2022-05-08T07:28:09.000Z</time></trkpt><trkpt lon="6.113732" lat="51.141673"><ele>22.8</ele><time>2022-05-08T07:28:10.000Z</time></trkpt><trkpt lon="6.113838" lat="51.141656"><ele>22.8</ele><time>2022-05-08T07:28:11.000Z</time></trkpt><trkpt lon="6.113945" lat="51.141636"><ele>22.8</ele><time>2022-05-08T07:28:12.000Z</time></trkpt><trkpt lon="6.114053" lat="51.141619"><ele>22.8</ele><time>2022-05-08T07:28:13.000Z</time></trkpt><trkpt lon="6.114163" lat="51.141604"><ele>22.8</ele><time>2022-05-08T07:28:14.000Z</time></trkpt><trkpt lon="6.114274" lat="51.141587"><ele>22.8</ele><time>2022-05-08T07:28:15.000Z</time></trkpt><trkpt lon="6.114383" lat="51.141568"><ele>22.8</ele><time>2022-05-08T07:28:16.000Z</time></trkpt><trkpt lon="6.114488" lat="51.141549"><ele>22.8</ele><time>2022-05-08T07:28:17.000Z</time></trkpt><trkpt lon="6.114595" lat="51.14153"><ele>22.8</ele><time>2022-05-08T07:28:18.000Z</time></trkpt><trkpt lon="6.114702" lat="51.14151"><ele>22.8</ele><time>2022-05-08T07:28:19.000Z</time></trkpt><trkpt lon="6.114808" lat="51.141491"><ele>23</ele><time>2022-05-08T07:28:20.000Z</time></trkpt><trkpt lon="6.114914" lat="51.141474"><ele>23</ele><time>2022-05-08T07:28:21.000Z</time></trkpt><trkpt lon="6.115019" lat="51.141457"><ele>23</ele><time>2022-05-08T07:28:22.000Z</time></trkpt><trkpt lon="6.115127" lat="51.141438"><ele>23</ele><time>2022-05-08T07:28:23.000Z</time></trkpt><trkpt lon="6.115236" lat="51.141421"><ele>23</ele><time>2022-05-08T07:28:24.000Z</time></trkpt><trkpt lon="6.115344" lat="51.141404"><ele>23</ele><time>2022-05-08T07:28:25.000Z</time></trkpt><trkpt lon="6.115452" lat="51.141382"><ele>23</ele><time>2022-05-08T07:28:26.000Z</time></trkpt><trkpt lon="6.115561" lat="51.141362"><ele>23</ele><time>2022-05-08T07:28:27.000Z</time></trkpt><trkpt lon="6.115668" lat="51.141343"><ele>23</ele><time>2022-05-08T07:28:28.000Z</time></trkpt><trkpt lon="6.115775" lat="51.141323"><ele>23</ele><time>2022-05-08T07:28:29.000Z</time></trkpt><trkpt lon="6.115882" lat="51.141307"><ele>23.2</ele><time>2022-05-08T07:28:30.000Z</time></trkpt><trkpt lon="6.115991" lat="51.141289"><ele>23.2</ele><time>2022-05-08T07:28:31.000Z</time></trkpt><trkpt lon="6.1161" lat="51.141272"><ele>23.4</ele><time>2022-05-08T07:28:32.000Z</time></trkpt><trkpt lon="6.11621" lat="51.141255"><ele>23.4</ele><time>2022-05-08T07:28:33.000Z</time></trkpt><trkpt lon="6.116322" lat="51.141238"><ele>23.4</ele><time>2022-05-08T07:28:34.000Z</time></trkpt><trkpt lon="6.116433" lat="51.141223"><ele>23.4</ele><time>2022-05-08T07:28:35.000Z</time></trkpt><trkpt lon="6.116538" lat="51.141203"><ele>23.4</ele><time>2022-05-08T07:28:36.000Z</time></trkpt><trkpt lon="6.116639" lat="51.141182"><ele>23.4</ele><time>2022-05-08T07:28:37.000Z</time></trkpt><trkpt lon="6.116736" lat="51.141164"><ele>23.4</ele><time>2022-05-08T07:28:38.000Z</time></trkpt><trkpt lon="6.116836" lat="51.141145"><ele>23.4</ele><time>2022-05-08T07:28:39.000Z</time></trkpt><trkpt lon="6.116939" lat="51.141125"><ele>23.4</ele><time>2022-05-08T07:28:40.000Z</time></trkpt><trkpt lon="6.117044" lat="51.141104"><ele>23.6</ele><time>2022-05-08T07:28:41.000Z</time></trkpt><trkpt lon="6.117146" lat="51.141081"><ele>23.6</ele><time>2022-05-08T07:28:42.000Z</time></trkpt><trkpt lon="6.117248" lat="51.141056"><ele>23.6</ele><time>2022-05-08T07:28:43.000Z</time></trkpt><trkpt lon="6.117347" lat="51.141029"><ele>23.6</ele><time>2022-05-08T07:28:44.000Z</time></trkpt><trkpt lon="6.117443" lat="51.141"><ele>23.6</ele><time>2022-05-08T07:28:45.000Z</time></trkpt><trkpt lon="6.117538" lat="51.14097"><ele>23.6</ele><time>2022-05-08T07:28:46.000Z</time></trkpt><trkpt lon="6.117635" lat="51.140937"><ele>23.6</ele><time>2022-05-08T07:28:47.000Z</time></trkpt><trkpt lon="6.117734" lat="51.140903"><ele>23.6</ele><time>2022-05-08T07:28:48.000Z</time></trkpt><trkpt lon="6.117832" lat="51.140866"><ele>23.6</ele><time>2022-05-08T07:28:49.000Z</time></trkpt><trkpt lon="6.11793" lat="51.140828"><ele>23.6</ele><time>2022-05-08T07:28:50.000Z</time></trkpt><trkpt lon="6.118027" lat="51.140788"><ele>23.6</ele><time>2022-05-08T07:28:51.000Z</time></trkpt><trkpt lon="6.118122" lat="51.140746"><ele>23.8</ele><time>2022-05-08T07:28:52.000Z</time></trkpt><trkpt lon="6.118215" lat="51.140702"><ele>23.8</ele><time>2022-05-08T07:28:53.000Z</time></trkpt><trkpt lon="6.11831" lat="51.140656"><ele>23.8</ele><time>2022-05-08T07:28:54.000Z</time></trkpt><trkpt lon="6.118402" lat="51.14061"><ele>24</ele><time>2022-05-08T07:28:55.000Z</time></trkpt><trkpt lon="6.118492" lat="51.140563"><ele>24</ele><time>2022-05-08T07:28:56.000Z</time></trkpt><trkpt lon="6.118584" lat="51.140515"><ele>24</ele><time>2022-05-08T07:28:57.000Z</time></trkpt><trkpt lon="6.118675" lat="51.140467"><ele>24</ele><time>2022-05-08T07:28:58.000Z</time></trkpt><trkpt lon="6.118763" lat="51.14042"><ele>24</ele><time>2022-05-08T07:28:59.000Z</time></trkpt><trkpt lon="6.118853" lat="51.140374"><ele>23.8</ele><time>2022-05-08T07:29:00.000Z</time></trkpt><trkpt lon="6.118941" lat="51.140328"><ele>23.8</ele><time>2022-05-08T07:29:01.000Z</time></trkpt><trkpt lon="6.119025" lat="51.140278"><ele>23.8</ele><time>2022-05-08T07:29:02.000Z</time></trkpt><trkpt lon="6.119103" lat="51.140224"><ele>24</ele><time>2022-05-08T07:29:03.000Z</time></trkpt><trkpt lon="6.119176" lat="51.140171"><ele>24</ele><time>2022-05-08T07:29:04.000Z</time></trkpt><trkpt lon="6.119244" lat="51.140115"><ele>24.2</ele><time>2022-05-08T07:29:05.000Z</time></trkpt><trkpt lon="6.119311" lat="51.140058"><ele>24.2</ele><time>2022-05-08T07:29:06.000Z</time></trkpt><trkpt lon="6.119378" lat="51.140003"><ele>24.2</ele><time>2022-05-08T07:29:07.000Z</time></trkpt><trkpt lon="6.119445" lat="51.13995"><ele>24.4</ele><time>2022-05-08T07:29:08.000Z</time></trkpt><trkpt lon="6.119512" lat="51.139894"><ele>24.4</ele><time>2022-05-08T07:29:09.000Z</time></trkpt><trkpt lon="6.11958" lat="51.139837"><ele>24.2</ele><time>2022-05-08T07:29:10.000Z</time></trkpt><trkpt lon="6.11965" lat="51.139779"><ele>24.2</ele><time>2022-05-08T07:29:11.000Z</time></trkpt><trkpt lon="6.119718" lat="51.139723"><ele>24.2</ele><time>2022-05-08T07:29:12.000Z</time></trkpt><trkpt lon="6.119787" lat="51.139665"><ele>24</ele><time>2022-05-08T07:29:13.000Z</time></trkpt><trkpt lon="6.119855" lat="51.139608"><ele>24</ele><time>2022-05-08T07:29:14.000Z</time></trkpt><trkpt lon="6.119923" lat="51.139553"><ele>24.2</ele><time>2022-05-08T07:29:15.000Z</time></trkpt><trkpt lon="6.119989" lat="51.139496"><ele>24.2</ele><time>2022-05-08T07:29:16.000Z</time></trkpt><trkpt lon="6.120055" lat="51.139437"><ele>24.2</ele><time>2022-05-08T07:29:17.000Z</time></trkpt><trkpt lon="6.120125" lat="51.139381"><ele>24.4</ele><time>2022-05-08T07:29:18.000Z</time></trkpt><trkpt lon="6.120195" lat="51.139325"><ele>24.4</ele><time>2022-05-08T07:29:19.000Z</time></trkpt><trkpt lon="6.120264" lat="51.139268"><ele>24.4</ele><time>2022-05-08T07:29:20.000Z</time></trkpt><trkpt lon="6.120329" lat="51.139212"><ele>24.4</ele><time>2022-05-08T07:29:21.000Z</time></trkpt><trkpt lon="6.120396" lat="51.139154"><ele>24.4</ele><time>2022-05-08T07:29:22.000Z</time></trkpt><trkpt lon="6.120464" lat="51.139097"><ele>24.4</ele><time>2022-05-08T07:29:23.000Z</time></trkpt><trkpt lon="6.120528" lat="51.139039"><ele>24.4</ele><time>2022-05-08T07:29:24.000Z</time></trkpt><trkpt lon="6.120588" lat="51.138979"><ele>24.4</ele><time>2022-05-08T07:29:25.000Z</time></trkpt><trkpt lon="6.120645" lat="51.138921"><ele>24.4</ele><time>2022-05-08T07:29:26.000Z</time></trkpt><trkpt lon="6.120704" lat="51.138866"><ele>24.4</ele><time>2022-05-08T07:29:27.000Z</time></trkpt><trkpt lon="6.120763" lat="51.13881"><ele>24.4</ele><time>2022-05-08T07:29:28.000Z</time></trkpt><trkpt lon="6.120822" lat="51.138757"><ele>24.4</ele><time>2022-05-08T07:29:29.000Z</time></trkpt><trkpt lon="6.120882" lat="51.138706"><ele>24.4</ele><time>2022-05-08T07:29:30.000Z</time></trkpt><trkpt lon="6.120942" lat="51.138652"><ele>24.4</ele><time>2022-05-08T07:29:31.000Z</time></trkpt><trkpt lon="6.121002" lat="51.138599"><ele>24.4</ele><time>2022-05-08T07:29:32.000Z</time></trkpt><trkpt lon="6.121059" lat="51.138543"><ele>24.4</ele><time>2022-05-08T07:29:33.000Z</time></trkpt><trkpt lon="6.121119" lat="51.138486"><ele>24.4</ele><time>2022-05-08T07:29:34.000Z</time></trkpt><trkpt lon="6.121181" lat="51.138433"><ele>24.4</ele><time>2022-05-08T07:29:35.000Z</time></trkpt><trkpt lon="6.121244" lat="51.138382"><ele>24.4</ele><time>2022-05-08T07:29:36.000Z</time></trkpt><trkpt lon="6.121309" lat="51.138331"><ele>24.2</ele><time>2022-05-08T07:29:37.000Z</time></trkpt><trkpt lon="6.121374" lat="51.138281"><ele>24.2</ele><time>2022-05-08T07:29:38.000Z</time></trkpt><trkpt lon="6.121439" lat="51.138229"><ele>24.2</ele><time>2022-05-08T07:29:39.000Z</time></trkpt><trkpt lon="6.121506" lat="51.138176"><ele>24.2</ele><time>2022-05-08T07:29:40.000Z</time></trkpt><trkpt lon="6.121574" lat="51.138123"><ele>24.2</ele><time>2022-05-08T07:29:41.000Z</time></trkpt><trkpt lon="6.121649" lat="51.138067"><ele>24</ele><time>2022-05-08T07:29:42.000Z</time></trkpt><trkpt lon="6.121729" lat="51.13801"><ele>24.2</ele><time>2022-05-08T07:29:43.000Z</time></trkpt><trkpt lon="6.121803" lat="51.13795"><ele>24.2</ele><time>2022-05-08T07:29:44.000Z</time></trkpt><trkpt lon="6.121876" lat="51.137892"><ele>24</ele><time>2022-05-08T07:29:45.000Z</time></trkpt><trkpt lon="6.12195" lat="51.137836"><ele>24</ele><time>2022-05-08T07:29:46.000Z</time></trkpt><trkpt lon="6.12202" lat="51.137778"><ele>24</ele><time>2022-05-08T07:29:47.000Z</time></trkpt><trkpt lon="6.122086" lat="51.13772"><ele>24</ele><time>2022-05-08T07:29:48.000Z</time></trkpt><trkpt lon="6.122153" lat="51.137663"><ele>24</ele><time>2022-05-08T07:29:49.000Z</time></trkpt><trkpt lon="6.122221" lat="51.137603"><ele>23.8</ele><time>2022-05-08T07:29:50.000Z</time></trkpt><trkpt lon="6.122292" lat="51.137542"><ele>23.6</ele><time>2022-05-08T07:29:51.000Z</time></trkpt><trkpt lon="6.12236" lat="51.137483"><ele>23.4</ele><time>2022-05-08T07:29:52.000Z</time></trkpt><trkpt lon="6.122426" lat="51.137426"><ele>23.6</ele><time>2022-05-08T07:29:53.000Z</time></trkpt><trkpt lon="6.122492" lat="51.137371"><ele>23.6</ele><time>2022-05-08T07:29:54.000Z</time></trkpt><trkpt lon="6.12256" lat="51.137314"><ele>23.6</ele><time>2022-05-08T07:29:55.000Z</time></trkpt><trkpt lon="6.122631" lat="51.137254"><ele>23.6</ele><time>2022-05-08T07:29:56.000Z</time></trkpt><trkpt lon="6.122701" lat="51.137194"><ele>23.6</ele><time>2022-05-08T07:29:57.000Z</time></trkpt><trkpt lon="6.122771" lat="51.137134"><ele>23.6</ele><time>2022-05-08T07:29:58.000Z</time></trkpt><trkpt lon="6.122842" lat="51.137075"><ele>23.6</ele><time>2022-05-08T07:29:59.000Z</time></trkpt><trkpt lon="6.122914" lat="51.137018"><ele>23.8</ele><time>2022-05-08T07:30:00.000Z</time></trkpt><trkpt lon="6.122984" lat="51.136963"><ele>23.8</ele><time>2022-05-08T07:30:01.000Z</time></trkpt><trkpt lon="6.123053" lat="51.136907"><ele>23.6</ele><time>2022-05-08T07:30:02.000Z</time></trkpt><trkpt lon="6.123122" lat="51.13685"><ele>23.6</ele><time>2022-05-08T07:30:03.000Z</time></trkpt><trkpt lon="6.123192" lat="51.136793"><ele>23.6</ele><time>2022-05-08T07:30:04.000Z</time></trkpt><trkpt lon="6.123263" lat="51.136738"><ele>23.6</ele><time>2022-05-08T07:30:05.000Z</time></trkpt><trkpt lon="6.123332" lat="51.13668"><ele>23.8</ele><time>2022-05-08T07:30:06.000Z</time></trkpt><trkpt lon="6.123398" lat="51.136621"><ele>23.8</ele><time>2022-05-08T07:30:07.000Z</time></trkpt><trkpt lon="6.123462" lat="51.136562"><ele>23.8</ele><time>2022-05-08T07:30:08.000Z</time></trkpt><trkpt lon="6.123528" lat="51.136501"><ele>23.6</ele><time>2022-05-08T07:30:09.000Z</time></trkpt><trkpt lon="6.123596" lat="51.136439"><ele>23.6</ele><time>2022-05-08T07:30:10.000Z</time></trkpt><trkpt lon="6.123663" lat="51.136383"><ele>23.6</ele><time>2022-05-08T07:30:11.000Z</time></trkpt><trkpt lon="6.123728" lat="51.136327"><ele>23.6</ele><time>2022-05-08T07:30:12.000Z</time></trkpt><trkpt lon="6.123792" lat="51.136272"><ele>23.6</ele><time>2022-05-08T07:30:13.000Z</time></trkpt><trkpt lon="6.123861" lat="51.136215"><ele>23.6</ele><time>2022-05-08T07:30:14.000Z</time></trkpt><trkpt lon="6.123934" lat="51.136158"><ele>23.6</ele><time>2022-05-08T07:30:15.000Z</time></trkpt><trkpt lon="6.124004" lat="51.1361"><ele>23.4</ele><time>2022-05-08T07:30:16.000Z</time></trkpt><trkpt lon="6.124072" lat="51.136042"><ele>23.4</ele><time>2022-05-08T07:30:17.000Z</time></trkpt><trkpt lon="6.124141" lat="51.13598"><ele>23.6</ele><time>2022-05-08T07:30:18.000Z</time></trkpt><trkpt lon="6.124214" lat="51.135919"><ele>23.6</ele><time>2022-05-08T07:30:19.000Z</time></trkpt><trkpt lon="6.124287" lat="51.135859"><ele>23.6</ele><time>2022-05-08T07:30:20.000Z</time></trkpt><trkpt lon="6.124357" lat="51.135799"><ele>23.4</ele><time>2022-05-08T07:30:21.000Z</time></trkpt><trkpt lon="6.124428" lat="51.13574"><ele>23.4</ele><time>2022-05-08T07:30:22.000Z</time></trkpt><trkpt lon="6.124498" lat="51.135683"><ele>23.4</ele><time>2022-05-08T07:30:23.000Z</time></trkpt><trkpt lon="6.124566" lat="51.135626"><ele>23.4</ele><time>2022-05-08T07:30:24.000Z</time></trkpt><trkpt lon="6.124632" lat="51.135571"><ele>23.6</ele><time>2022-05-08T07:30:25.000Z</time></trkpt><trkpt lon="6.124696" lat="51.135517"><ele>23.6</ele><time>2022-05-08T07:30:26.000Z</time></trkpt><trkpt lon="6.124758" lat="51.135465"><ele>23.8</ele><time>2022-05-08T07:30:27.000Z</time></trkpt><trkpt lon="6.124819" lat="51.13541"><ele>23.8</ele><time>2022-05-08T07:30:28.000Z</time></trkpt><trkpt lon="6.12488" lat="51.135357"><ele>23.8</ele><time>2022-05-08T07:30:29.000Z</time></trkpt><trkpt lon="6.124948" lat="51.135301"><ele>23.8</ele><time>2022-05-08T07:30:30.000Z</time></trkpt><trkpt lon="6.125019" lat="51.135238"><ele>23.8</ele><time>2022-05-08T07:30:31.000Z</time></trkpt><trkpt lon="6.125085" lat="51.135179"><ele>23.8</ele><time>2022-05-08T07:30:32.000Z</time></trkpt><trkpt lon="6.125149" lat="51.13512"><ele>23.8</ele><time>2022-05-08T07:30:33.000Z</time></trkpt><trkpt lon="6.125215" lat="51.135061"><ele>23.8</ele><time>2022-05-08T07:30:34.000Z</time></trkpt><trkpt lon="6.125282" lat="51.135001"><ele>23.8</ele><time>2022-05-08T07:30:35.000Z</time></trkpt><trkpt lon="6.125347" lat="51.134943"><ele>23.8</ele><time>2022-05-08T07:30:36.000Z</time></trkpt><trkpt lon="6.125412" lat="51.134888"><ele>23.8</ele><time>2022-05-08T07:30:37.000Z</time></trkpt><trkpt lon="6.125478" lat="51.134832"><ele>24</ele><time>2022-05-08T07:30:38.000Z</time></trkpt><trkpt lon="6.125546" lat="51.134773"><ele>24</ele><time>2022-05-08T07:30:39.000Z</time></trkpt><trkpt lon="6.125614" lat="51.134716"><ele>24.2</ele><time>2022-05-08T07:30:40.000Z</time></trkpt><trkpt lon="6.12568" lat="51.134659"><ele>24.4</ele><time>2022-05-08T07:30:41.000Z</time></trkpt><trkpt lon="6.125745" lat="51.134602"><ele>24.6</ele><time>2022-05-08T07:30:42.000Z</time></trkpt><trkpt lon="6.125805" lat="51.134546"><ele>24.6</ele><time>2022-05-08T07:30:43.000Z</time></trkpt><trkpt lon="6.125864" lat="51.134493"><ele>24.8</ele><time>2022-05-08T07:30:44.000Z</time></trkpt><trkpt lon="6.125916" lat="51.134447"><ele>25</ele><time>2022-05-08T07:30:45.000Z</time></trkpt><trkpt lon="6.125975" lat="51.134395"><ele>25.2</ele><time>2022-05-08T07:30:46.000Z</time></trkpt><trkpt lon="6.126044" lat="51.134338"><ele>25.4</ele><time>2022-05-08T07:30:47.000Z</time></trkpt><trkpt lon="6.1261" lat="51.134292"><ele>25.4</ele><time>2022-05-08T07:30:48.000Z</time></trkpt><trkpt lon="6.126171" lat="51.134232"><ele>25.4</ele><time>2022-05-08T07:30:49.000Z</time></trkpt><trkpt lon="6.126235" lat="51.134177"><ele>25.6</ele><time>2022-05-08T07:30:50.000Z</time></trkpt><trkpt lon="6.126292" lat="51.134125"><ele>25.6</ele><time>2022-05-08T07:30:51.000Z</time></trkpt><trkpt lon="6.126344" lat="51.134077"><ele>25.8</ele><time>2022-05-08T07:30:52.000Z</time></trkpt><trkpt lon="6.126392" lat="51.134029"><ele>26</ele><time>2022-05-08T07:30:53.000Z</time></trkpt><trkpt lon="6.126441" lat="51.133981"><ele>26</ele><time>2022-05-08T07:30:54.000Z</time></trkpt><trkpt lon="6.126493" lat="51.133937"><ele>26.2</ele><time>2022-05-08T07:30:55.000Z</time></trkpt><trkpt lon="6.126545" lat="51.133894"><ele>26.2</ele><time>2022-05-08T07:30:56.000Z</time></trkpt><trkpt lon="6.126587" lat="51.133846"><ele>26.4</ele><time>2022-05-08T07:30:57.000Z</time></trkpt><trkpt lon="6.126609" lat="51.133796"><ele>26.4</ele><time>2022-05-08T07:30:58.000Z</time></trkpt><trkpt lon="6.126609" lat="51.133747"><ele>26.4</ele><time>2022-05-08T07:30:59.000Z</time></trkpt><trkpt lon="6.126595" lat="51.133698"><ele>26.6</ele><time>2022-05-08T07:31:00.000Z</time></trkpt><trkpt lon="6.126567" lat="51.133648"><ele>26.6</ele><time>2022-05-08T07:31:01.000Z</time></trkpt><trkpt lon="6.126517" lat="51.133603"><ele>26.6</ele><time>2022-05-08T07:31:02.000Z</time></trkpt><trkpt lon="6.126449" lat="51.133563"><ele>26.8</ele><time>2022-05-08T07:31:03.000Z</time></trkpt><trkpt lon="6.126369" lat="51.133523"><ele>26.6</ele><time>2022-05-08T07:31:04.000Z</time></trkpt><trkpt lon="6.126284" lat="51.133482"><ele>26.6</ele><time>2022-05-08T07:31:05.000Z</time></trkpt><trkpt lon="6.126192" lat="51.133434"><ele>26.6</ele><time>2022-05-08T07:31:06.000Z</time></trkpt><trkpt lon="6.126096" lat="51.133387"><ele>26.4</ele><time>2022-05-08T07:31:07.000Z</time></trkpt><trkpt lon="6.125999" lat="51.133341"><ele>26.4</ele><time>2022-05-08T07:31:08.000Z</time></trkpt><trkpt lon="6.1259" lat="51.133298"><ele>26.2</ele><time>2022-05-08T07:31:09.000Z</time></trkpt><trkpt lon="6.125803" lat="51.133259"><ele>26.2</ele><time>2022-05-08T07:31:10.000Z</time></trkpt><trkpt lon="6.125705" lat="51.133215"><ele>26</ele><time>2022-05-08T07:31:11.000Z</time></trkpt><trkpt lon="6.125602" lat="51.133169"><ele>25.8</ele><time>2022-05-08T07:31:12.000Z</time></trkpt><trkpt lon="6.1255" lat="51.133123"><ele>25.6</ele><time>2022-05-08T07:31:13.000Z</time></trkpt><trkpt lon="6.125404" lat="51.13308"><ele>25.6</ele><time>2022-05-08T07:31:14.000Z</time></trkpt><trkpt lon="6.125313" lat="51.133042"><ele>25.4</ele><time>2022-05-08T07:31:15.000Z</time></trkpt><trkpt lon="6.125223" lat="51.133009"><ele>25.2</ele><time>2022-05-08T07:31:16.000Z</time></trkpt><trkpt lon="6.125136" lat="51.132979"><ele>25.2</ele><time>2022-05-08T07:31:17.000Z</time></trkpt><trkpt lon="6.125051" lat="51.132951"><ele>25</ele><time>2022-05-08T07:31:18.000Z</time></trkpt><trkpt lon="6.124962" lat="51.132916"><ele>25</ele><time>2022-05-08T07:31:19.000Z</time></trkpt><trkpt lon="6.124871" lat="51.132876"><ele>25</ele><time>2022-05-08T07:31:20.000Z</time></trkpt><trkpt lon="6.124775" lat="51.132836"><ele>25</ele><time>2022-05-08T07:31:21.000Z</time></trkpt><trkpt lon="6.124674" lat="51.132794"><ele>24.8</ele><time>2022-05-08T07:31:22.000Z</time></trkpt><trkpt lon="6.12457" lat="51.132752"><ele>24.8</ele><time>2022-05-08T07:31:23.000Z</time></trkpt><trkpt lon="6.124466" lat="51.132709"><ele>24.6</ele><time>2022-05-08T07:31:24.000Z</time></trkpt><trkpt lon="6.124366" lat="51.132667"><ele>24.4</ele><time>2022-05-08T07:31:25.000Z</time></trkpt><trkpt lon="6.124265" lat="51.132625"><ele>24.4</ele><time>2022-05-08T07:31:26.000Z</time></trkpt><trkpt lon="6.124164" lat="51.132581"><ele>24.4</ele><time>2022-05-08T07:31:27.000Z</time></trkpt><trkpt lon="6.124068" lat="51.132536"><ele>24.4</ele><time>2022-05-08T07:31:28.000Z</time></trkpt><trkpt lon="6.123976" lat="51.132496"><ele>24.4</ele><time>2022-05-08T07:31:29.000Z</time></trkpt><trkpt lon="6.123881" lat="51.132455"><ele>24.4</ele><time>2022-05-08T07:31:30.000Z</time></trkpt><trkpt lon="6.123792" lat="51.132418"><ele>24.4</ele><time>2022-05-08T07:31:31.000Z</time></trkpt><trkpt lon="6.123703" lat="51.132383"><ele>24.4</ele><time>2022-05-08T07:31:32.000Z</time></trkpt><trkpt lon="6.123603" lat="51.132343"><ele>24.2</ele><time>2022-05-08T07:31:33.000Z</time></trkpt><trkpt lon="6.123508" lat="51.132303"><ele>24.2</ele><time>2022-05-08T07:31:34.000Z</time></trkpt><trkpt lon="6.123417" lat="51.132264"><ele>24.2</ele><time>2022-05-08T07:31:35.000Z</time></trkpt><trkpt lon="6.123325" lat="51.132222"><ele>24</ele><time>2022-05-08T07:31:36.000Z</time></trkpt><trkpt lon="6.123229" lat="51.13218"><ele>24</ele><time>2022-05-08T07:31:37.000Z</time></trkpt><trkpt lon="6.12313" lat="51.132136"><ele>24</ele><time>2022-05-08T07:31:38.000Z</time></trkpt><trkpt lon="6.123033" lat="51.132089"><ele>24</ele><time>2022-05-08T07:31:39.000Z</time></trkpt><trkpt lon="6.122939" lat="51.132045"><ele>23.8</ele><time>2022-05-08T07:31:40.000Z</time></trkpt><trkpt lon="6.122844" lat="51.132004"><ele>23.8</ele><time>2022-05-08T07:31:41.000Z</time></trkpt><trkpt lon="6.122749" lat="51.131961"><ele>23.6</ele><time>2022-05-08T07:31:42.000Z</time></trkpt><trkpt lon="6.122658" lat="51.131919"><ele>23.6</ele><time>2022-05-08T07:31:43.000Z</time></trkpt><trkpt lon="6.122569" lat="51.13188"><ele>23.4</ele><time>2022-05-08T07:31:44.000Z</time></trkpt><trkpt lon="6.122483" lat="51.131845"><ele>23.4</ele><time>2022-05-08T07:31:45.000Z</time></trkpt><trkpt lon="6.122402" lat="51.131815"><ele>23.2</ele><time>2022-05-08T07:31:46.000Z</time></trkpt><trkpt lon="6.122326" lat="51.131787"><ele>23.2</ele><time>2022-05-08T07:31:47.000Z</time></trkpt><trkpt lon="6.122253" lat="51.13176"><ele>23</ele><time>2022-05-08T07:31:48.000Z</time></trkpt><trkpt lon="6.122178" lat="51.131729"><ele>23</ele><time>2022-05-08T07:31:49.000Z</time></trkpt><trkpt lon="6.122097" lat="51.131693"><ele>23</ele><time>2022-05-08T07:31:50.000Z</time></trkpt><trkpt lon="6.122005" lat="51.131655"><ele>22.8</ele><time>2022-05-08T07:31:51.000Z</time></trkpt><trkpt lon="6.121911" lat="51.131619"><ele>22.8</ele><time>2022-05-08T07:31:52.000Z</time></trkpt><trkpt lon="6.121818" lat="51.131582"><ele>22.8</ele><time>2022-05-08T07:31:53.000Z</time></trkpt><trkpt lon="6.121726" lat="51.131544"><ele>22.8</ele><time>2022-05-08T07:31:54.000Z</time></trkpt><trkpt lon="6.121629" lat="51.131504"><ele>22.8</ele><time>2022-05-08T07:31:55.000Z</time></trkpt><trkpt lon="6.121536" lat="51.131465"><ele>22.8</ele><time>2022-05-08T07:31:56.000Z</time></trkpt><trkpt lon="6.121449" lat="51.131424"><ele>22.8</ele><time>2022-05-08T07:31:57.000Z</time></trkpt><trkpt lon="6.121359" lat="51.131381"><ele>22.8</ele><time>2022-05-08T07:31:58.000Z</time></trkpt><trkpt lon="6.12127" lat="51.131339"><ele>22.6</ele><time>2022-05-08T07:31:59.000Z</time></trkpt><trkpt lon="6.121184" lat="51.131296"><ele>22.6</ele><time>2022-05-08T07:32:00.000Z</time></trkpt><trkpt lon="6.121096" lat="51.131256"><ele>22.6</ele><time>2022-05-08T07:32:01.000Z</time></trkpt><trkpt lon="6.121006" lat="51.131217"><ele>22.6</ele><time>2022-05-08T07:32:02.000Z</time></trkpt><trkpt lon="6.120913" lat="51.131176"><ele>22.4</ele><time>2022-05-08T07:32:03.000Z</time></trkpt><trkpt lon="6.120822" lat="51.131138"><ele>22.4</ele><time>2022-05-08T07:32:04.000Z</time></trkpt><trkpt lon="6.120733" lat="51.131104"><ele>22.4</ele><time>2022-05-08T07:32:05.000Z</time></trkpt><trkpt lon="6.120645" lat="51.131068"><ele>22.4</ele><time>2022-05-08T07:32:06.000Z</time></trkpt><trkpt lon="6.120564" lat="51.131035"><ele>22.4</ele><time>2022-05-08T07:32:07.000Z</time></trkpt><trkpt lon="6.120484" lat="51.131005"><ele>22.2</ele><time>2022-05-08T07:32:08.000Z</time></trkpt><trkpt lon="6.120396" lat="51.130972"><ele>22.2</ele><time>2022-05-08T07:32:09.000Z</time></trkpt><trkpt lon="6.120309" lat="51.130938"><ele>22.2</ele><time>2022-05-08T07:32:10.000Z</time></trkpt><trkpt lon="6.120224" lat="51.130912"><ele>22.2</ele><time>2022-05-08T07:32:11.000Z</time></trkpt><trkpt lon="6.120136" lat="51.130885"><ele>22.2</ele><time>2022-05-08T07:32:12.000Z</time></trkpt><trkpt lon="6.12005" lat="51.130856"><ele>22.2</ele><time>2022-05-08T07:32:13.000Z</time></trkpt><trkpt lon="6.119966" lat="51.130827"><ele>22.2</ele><time>2022-05-08T07:32:14.000Z</time></trkpt><trkpt lon="6.119881" lat="51.13079"><ele>22.2</ele><time>2022-05-08T07:32:15.000Z</time></trkpt><trkpt lon="6.119797" lat="51.130756"><ele>22.2</ele><time>2022-05-08T07:32:16.000Z</time></trkpt><trkpt lon="6.119714" lat="51.130727"><ele>22</ele><time>2022-05-08T07:32:17.000Z</time></trkpt><trkpt lon="6.119628" lat="51.130697"><ele>22</ele><time>2022-05-08T07:32:18.000Z</time></trkpt><trkpt lon="6.119538" lat="51.130663"><ele>22</ele><time>2022-05-08T07:32:19.000Z</time></trkpt><trkpt lon="6.119445" lat="51.130624"><ele>22</ele><time>2022-05-08T07:32:20.000Z</time></trkpt><trkpt lon="6.119343" lat="51.130583"><ele>22.2</ele><time>2022-05-08T07:32:21.000Z</time></trkpt><trkpt lon="6.119238" lat="51.13054"><ele>22.2</ele><time>2022-05-08T07:32:22.000Z</time></trkpt><trkpt lon="6.119137" lat="51.130495"><ele>22.2</ele><time>2022-05-08T07:32:23.000Z</time></trkpt><trkpt lon="6.119038" lat="51.13045"><ele>22</ele><time>2022-05-08T07:32:24.000Z</time></trkpt><trkpt lon="6.118928" lat="51.130404"><ele>22</ele><time>2022-05-08T07:32:25.000Z</time></trkpt><trkpt lon="6.118815" lat="51.130358"><ele>22</ele><time>2022-05-08T07:32:26.000Z</time></trkpt><trkpt lon="6.118711" lat="51.130315"><ele>21.8</ele><time>2022-05-08T07:32:27.000Z</time></trkpt><trkpt lon="6.118603" lat="51.130273"><ele>21.8</ele><time>2022-05-08T07:32:28.000Z</time></trkpt><trkpt lon="6.118492" lat="51.130226"><ele>21.6</ele><time>2022-05-08T07:32:29.000Z</time></trkpt><trkpt lon="6.118384" lat="51.130182"><ele>21.6</ele><time>2022-05-08T07:32:30.000Z</time></trkpt><trkpt lon="6.118289" lat="51.130144"><ele>21.4</ele><time>2022-05-08T07:32:31.000Z</time></trkpt><trkpt lon="6.118188" lat="51.130097"><ele>21.2</ele><time>2022-05-08T07:32:32.000Z</time></trkpt><trkpt lon="6.118082" lat="51.130042"><ele>21</ele><time>2022-05-08T07:32:33.000Z</time></trkpt><trkpt lon="6.117977" lat="51.129989"><ele>21</ele><time>2022-05-08T07:32:34.000Z</time></trkpt><trkpt lon="6.117872" lat="51.129941"><ele>20.8</ele><time>2022-05-08T07:32:35.000Z</time></trkpt><trkpt lon="6.11777" lat="51.129894"><ele>20.8</ele><time>2022-05-08T07:32:36.000Z</time></trkpt><trkpt lon="6.117669" lat="51.12985"><ele>20.6</ele><time>2022-05-08T07:32:37.000Z</time></trkpt><trkpt lon="6.117553" lat="51.129801"><ele>20.4</ele><time>2022-05-08T07:32:38.000Z</time></trkpt><trkpt lon="6.117424" lat="51.129741"><ele>20.2</ele><time>2022-05-08T07:32:39.000Z</time></trkpt><trkpt lon="6.11732" lat="51.129692"><ele>20.2</ele><time>2022-05-08T07:32:40.000Z</time></trkpt><trkpt lon="6.117223" lat="51.129644"><ele>20.2</ele><time>2022-05-08T07:32:41.000Z</time></trkpt><trkpt lon="6.117125" lat="51.129589"><ele>20.2</ele><time>2022-05-08T07:32:42.000Z</time></trkpt><trkpt lon="6.117027" lat="51.129537"><ele>20</ele><time>2022-05-08T07:32:43.000Z</time></trkpt><trkpt lon="6.116918" lat="51.129481"><ele>20</ele><time>2022-05-08T07:32:44.000Z</time></trkpt><trkpt lon="6.116804" lat="51.129422"><ele>20</ele><time>2022-05-08T07:32:45.000Z</time></trkpt><trkpt lon="6.116691" lat="51.129363"><ele>19.8</ele><time>2022-05-08T07:32:46.000Z</time></trkpt><trkpt lon="6.116581" lat="51.129306"><ele>19.8</ele><time>2022-05-08T07:32:47.000Z</time></trkpt><trkpt lon="6.116472" lat="51.129253"><ele>19.8</ele><time>2022-05-08T07:32:48.000Z</time></trkpt><trkpt lon="6.116364" lat="51.129199"><ele>19.8</ele><time>2022-05-08T07:32:49.000Z</time></trkpt><trkpt lon="6.116262" lat="51.129147"><ele>19.8</ele><time>2022-05-08T07:32:50.000Z</time></trkpt><trkpt lon="6.116157" lat="51.129094"><ele>19.8</ele><time>2022-05-08T07:32:51.000Z</time></trkpt><trkpt lon="6.116051" lat="51.129042"><ele>19.8</ele><time>2022-05-08T07:32:52.000Z</time></trkpt><trkpt lon="6.115948" lat="51.12899"><ele>19.8</ele><time>2022-05-08T07:32:53.000Z</time></trkpt><trkpt lon="6.115847" lat="51.128938"><ele>19.8</ele><time>2022-05-08T07:32:54.000Z</time></trkpt><trkpt lon="6.115748" lat="51.128889"><ele>19.8</ele><time>2022-05-08T07:32:55.000Z</time></trkpt><trkpt lon="6.115649" lat="51.12884"><ele>19.8</ele><time>2022-05-08T07:32:56.000Z</time></trkpt><trkpt lon="6.11555" lat="51.128788"><ele>19.8</ele><time>2022-05-08T07:32:57.000Z</time></trkpt><trkpt lon="6.115449" lat="51.128734"><ele>19.8</ele><time>2022-05-08T07:32:58.000Z</time></trkpt><trkpt lon="6.115349" lat="51.128683"><ele>19.8</ele><time>2022-05-08T07:32:59.000Z</time></trkpt><trkpt lon="6.115251" lat="51.128633"><ele>19.8</ele><time>2022-05-08T07:33:00.000Z</time></trkpt><trkpt lon="6.115154" lat="51.128584"><ele>19.8</ele><time>2022-05-08T07:33:01.000Z</time></trkpt><trkpt lon="6.115056" lat="51.128534"><ele>19.8</ele><time>2022-05-08T07:33:02.000Z</time></trkpt><trkpt lon="6.114959" lat="51.128485"><ele>19.6</ele><time>2022-05-08T07:33:03.000Z</time></trkpt><trkpt lon="6.114864" lat="51.128435"><ele>19.6</ele><time>2022-05-08T07:33:04.000Z</time></trkpt><trkpt lon="6.114771" lat="51.128388"><ele>19.6</ele><time>2022-05-08T07:33:05.000Z</time></trkpt><trkpt lon="6.114679" lat="51.128342"><ele>19.6</ele><time>2022-05-08T07:33:06.000Z</time></trkpt><trkpt lon="6.114584" lat="51.128294"><ele>19.8</ele><time>2022-05-08T07:33:07.000Z</time></trkpt><trkpt lon="6.114489" lat="51.128247"><ele>20</ele><time>2022-05-08T07:33:08.000Z</time></trkpt><trkpt lon="6.114394" lat="51.128198"><ele>20.2</ele><time>2022-05-08T07:33:09.000Z</time></trkpt><trkpt lon="6.114297" lat="51.128151"><ele>20.2</ele><time>2022-05-08T07:33:10.000Z</time></trkpt><trkpt lon="6.114201" lat="51.128103"><ele>20.2</ele><time>2022-05-08T07:33:11.000Z</time></trkpt><trkpt lon="6.114103" lat="51.128056"><ele>20.4</ele><time>2022-05-08T07:33:12.000Z</time></trkpt><trkpt lon="6.114004" lat="51.128008"><ele>20.4</ele><time>2022-05-08T07:33:13.000Z</time></trkpt><trkpt lon="6.113907" lat="51.12796"><ele>20.4</ele><time>2022-05-08T07:33:14.000Z</time></trkpt><trkpt lon="6.113811" lat="51.127912"><ele>20.4</ele><time>2022-05-08T07:33:15.000Z</time></trkpt><trkpt lon="6.113718" lat="51.127863"><ele>20.4</ele><time>2022-05-08T07:33:16.000Z</time></trkpt><trkpt lon="6.113625" lat="51.127813"><ele>20.4</ele><time>2022-05-08T07:33:17.000Z</time></trkpt><trkpt lon="6.113535" lat="51.127763"><ele>20.4</ele><time>2022-05-08T07:33:18.000Z</time></trkpt><trkpt lon="6.113444" lat="51.127716"><ele>20.4</ele><time>2022-05-08T07:33:19.000Z</time></trkpt><trkpt lon="6.113352" lat="51.12767"><ele>20.4</ele><time>2022-05-08T07:33:20.000Z</time></trkpt><trkpt lon="6.11326" lat="51.127625"><ele>20.4</ele><time>2022-05-08T07:33:21.000Z</time></trkpt><trkpt lon="6.113169" lat="51.127579"><ele>20.2</ele><time>2022-05-08T07:33:22.000Z</time></trkpt><trkpt lon="6.113079" lat="51.127533"><ele>20.2</ele><time>2022-05-08T07:33:23.000Z</time></trkpt><trkpt lon="6.112989" lat="51.127487"><ele>20</ele><time>2022-05-08T07:33:24.000Z</time></trkpt><trkpt lon="6.1129" lat="51.127444"><ele>20</ele><time>2022-05-08T07:33:25.000Z</time></trkpt><trkpt lon="6.112813" lat="51.127399"><ele>20</ele><time>2022-05-08T07:33:26.000Z</time></trkpt><trkpt lon="6.112725" lat="51.127356"><ele>19.8</ele><time>2022-05-08T07:33:27.000Z</time></trkpt><trkpt lon="6.112637" lat="51.127312"><ele>19.8</ele><time>2022-05-08T07:33:28.000Z</time></trkpt><trkpt lon="6.112547" lat="51.127268"><ele>19.8</ele><time>2022-05-08T07:33:29.000Z</time></trkpt><trkpt lon="6.112453" lat="51.127229"><ele>19.8</ele><time>2022-05-08T07:33:30.000Z</time></trkpt><trkpt lon="6.112351" lat="51.127191"><ele>19.8</ele><time>2022-05-08T07:33:31.000Z</time></trkpt><trkpt lon="6.112245" lat="51.127152"><ele>19.8</ele><time>2022-05-08T07:33:32.000Z</time></trkpt><trkpt lon="6.11214" lat="51.127112"><ele>20</ele><time>2022-05-08T07:33:33.000Z</time></trkpt><trkpt lon="6.112036" lat="51.127066"><ele>20</ele><time>2022-05-08T07:33:34.000Z</time></trkpt><trkpt lon="6.111933" lat="51.127016"><ele>20.2</ele><time>2022-05-08T07:33:35.000Z</time></trkpt><trkpt lon="6.111832" lat="51.126969"><ele>20.2</ele><time>2022-05-08T07:33:36.000Z</time></trkpt><trkpt lon="6.111736" lat="51.126923"><ele>20.2</ele><time>2022-05-08T07:33:37.000Z</time></trkpt><trkpt lon="6.111635" lat="51.126877"><ele>20.2</ele><time>2022-05-08T07:33:38.000Z</time></trkpt><trkpt lon="6.111528" lat="51.126836"><ele>20.2</ele><time>2022-05-08T07:33:39.000Z</time></trkpt><trkpt lon="6.111421" lat="51.126797"><ele>20.2</ele><time>2022-05-08T07:33:40.000Z</time></trkpt><trkpt lon="6.111313" lat="51.126764"><ele>20.2</ele><time>2022-05-08T07:33:41.000Z</time></trkpt><trkpt lon="6.111201" lat="51.126736"><ele>20.2</ele><time>2022-05-08T07:33:42.000Z</time></trkpt><trkpt lon="6.111083" lat="51.126713"><ele>20.2</ele><time>2022-05-08T07:33:43.000Z</time></trkpt><trkpt lon="6.110963" lat="51.126694"><ele>20</ele><time>2022-05-08T07:33:44.000Z</time></trkpt><trkpt lon="6.110846" lat="51.126677"><ele>20.2</ele><time>2022-05-08T07:33:45.000Z</time></trkpt><trkpt lon="6.110728" lat="51.126664"><ele>20.2</ele><time>2022-05-08T07:33:46.000Z</time></trkpt><trkpt lon="6.110615" lat="51.126653"><ele>20.2</ele><time>2022-05-08T07:33:47.000Z</time></trkpt><trkpt lon="6.110503" lat="51.126639"><ele>20.2</ele><time>2022-05-08T07:33:48.000Z</time></trkpt><trkpt lon="6.110389" lat="51.126624"><ele>20.2</ele><time>2022-05-08T07:33:49.000Z</time></trkpt><trkpt lon="6.110277" lat="51.126609"><ele>20.2</ele><time>2022-05-08T07:33:50.000Z</time></trkpt><trkpt lon="6.110166" lat="51.126591"><ele>20.2</ele><time>2022-05-08T07:33:51.000Z</time></trkpt><trkpt lon="6.110055" lat="51.12657"><ele>20.2</ele><time>2022-05-08T07:33:52.000Z</time></trkpt><trkpt lon="6.109944" lat="51.126547"><ele>20.2</ele><time>2022-05-08T07:33:53.000Z</time></trkpt><trkpt lon="6.109833" lat="51.126524"><ele>20.2</ele><time>2022-05-08T07:33:54.000Z</time></trkpt><trkpt lon="6.10972" lat="51.126501"><ele>20.2</ele><time>2022-05-08T07:33:55.000Z</time></trkpt><trkpt lon="6.10961" lat="51.126476"><ele>20</ele><time>2022-05-08T07:33:56.000Z</time></trkpt><trkpt lon="6.109503" lat="51.126449"><ele>19.8</ele><time>2022-05-08T07:33:57.000Z</time></trkpt><trkpt lon="6.109396" lat="51.126423"><ele>19.8</ele><time>2022-05-08T07:33:58.000Z</time></trkpt><trkpt lon="6.109288" lat="51.126394"><ele>19.6</ele><time>2022-05-08T07:33:59.000Z</time></trkpt><trkpt lon="6.109183" lat="51.126366"><ele>19.6</ele><time>2022-05-08T07:34:00.000Z</time></trkpt><trkpt lon="6.109078" lat="51.126341"><ele>19.6</ele><time>2022-05-08T07:34:01.000Z</time></trkpt><trkpt lon="6.108973" lat="51.126316"><ele>19.8</ele><time>2022-05-08T07:34:02.000Z</time></trkpt><trkpt lon="6.108872" lat="51.126289"><ele>19.8</ele><time>2022-05-08T07:34:03.000Z</time></trkpt><trkpt lon="6.108771" lat="51.126263"><ele>19.8</ele><time>2022-05-08T07:34:04.000Z</time></trkpt><trkpt lon="6.10867" lat="51.126236"><ele>19.8</ele><time>2022-05-08T07:34:05.000Z</time></trkpt><trkpt lon="6.108569" lat="51.126211"><ele>20</ele><time>2022-05-08T07:34:06.000Z</time></trkpt><trkpt lon="6.10847" lat="51.126184"><ele>19.8</ele><time>2022-05-08T07:34:07.000Z</time></trkpt><trkpt lon="6.108372" lat="51.126153"><ele>19.8</ele><time>2022-05-08T07:34:08.000Z</time></trkpt><trkpt lon="6.108277" lat="51.126123"><ele>19.8</ele><time>2022-05-08T07:34:09.000Z</time></trkpt><trkpt lon="6.108184" lat="51.126092"><ele>20</ele><time>2022-05-08T07:34:10.000Z</time></trkpt><trkpt lon="6.108089" lat="51.126062"><ele>20</ele><time>2022-05-08T07:34:11.000Z</time></trkpt><trkpt lon="6.107998" lat="51.126033"><ele>20</ele><time>2022-05-08T07:34:12.000Z</time></trkpt><trkpt lon="6.107911" lat="51.126007"><ele>20</ele><time>2022-05-08T07:34:13.000Z</time></trkpt><trkpt lon="6.107826" lat="51.125985"><ele>20</ele><time>2022-05-08T07:34:14.000Z</time></trkpt><trkpt lon="6.107744" lat="51.125963"><ele>20</ele><time>2022-05-08T07:34:15.000Z</time></trkpt><trkpt lon="6.107664" lat="51.12594"><ele>20</ele><time>2022-05-08T07:34:16.000Z</time></trkpt><trkpt lon="6.107583" lat="51.125918"><ele>20</ele><time>2022-05-08T07:34:17.000Z</time></trkpt><trkpt lon="6.107497" lat="51.125895"><ele>20</ele><time>2022-05-08T07:34:18.000Z</time></trkpt><trkpt lon="6.107407" lat="51.12587"><ele>19.8</ele><time>2022-05-08T07:34:19.000Z</time></trkpt><trkpt lon="6.107315" lat="51.125845"><ele>20</ele><time>2022-05-08T07:34:20.000Z</time></trkpt><trkpt lon="6.107227" lat="51.125824"><ele>20</ele><time>2022-05-08T07:34:21.000Z</time></trkpt><trkpt lon="6.107145" lat="51.125803"><ele>20</ele><time>2022-05-08T07:34:22.000Z</time></trkpt><trkpt lon="6.107071" lat="51.125783"><ele>20</ele><time>2022-05-08T07:34:23.000Z</time></trkpt><trkpt lon="6.107" lat="51.125761"><ele>20</ele><time>2022-05-08T07:34:24.000Z</time></trkpt><trkpt lon="6.106929" lat="51.12574"><ele>20</ele><time>2022-05-08T07:34:25.000Z</time></trkpt><trkpt lon="6.106858" lat="51.125723"><ele>20</ele><time>2022-05-08T07:34:26.000Z</time></trkpt><trkpt lon="6.106791" lat="51.125711"><ele>20</ele><time>2022-05-08T07:34:27.000Z</time></trkpt><trkpt lon="6.106737" lat="51.125704"><ele>20</ele><time>2022-05-08T07:34:28.000Z</time></trkpt><trkpt lon="6.106703" lat="51.125698"><ele>20</ele><time>2022-05-08T07:34:29.000Z</time></trkpt><trkpt lon="6.106613" lat="51.125678"><ele>20.2</ele><time>2022-05-08T07:34:37.000Z</time></trkpt><trkpt lon="6.106579" lat="51.125669"><ele>20.2</ele><time>2022-05-08T07:34:38.000Z</time></trkpt><trkpt lon="6.106533" lat="51.125657"><ele>20.2</ele><time>2022-05-08T07:34:39.000Z</time></trkpt><trkpt lon="6.106481" lat="51.125646"><ele>20</ele><time>2022-05-08T07:34:40.000Z</time></trkpt><trkpt lon="6.106419" lat="51.125633"><ele>20</ele><time>2022-05-08T07:34:41.000Z</time></trkpt><trkpt lon="6.106345" lat="51.125617"><ele>19.8</ele><time>2022-05-08T07:34:42.000Z</time></trkpt><trkpt lon="6.106268" lat="51.125601"><ele>19.8</ele><time>2022-05-08T07:34:43.000Z</time></trkpt><trkpt lon="6.106186" lat="51.125586"><ele>19.6</ele><time>2022-05-08T07:34:44.000Z</time></trkpt><trkpt lon="6.106103" lat="51.125569"><ele>19.6</ele><time>2022-05-08T07:34:45.000Z</time></trkpt><trkpt lon="6.106019" lat="51.12555"><ele>19.6</ele><time>2022-05-08T07:34:46.000Z</time></trkpt><trkpt lon="6.105933" lat="51.125533"><ele>19.8</ele><time>2022-05-08T07:34:47.000Z</time></trkpt><trkpt lon="6.105846" lat="51.125513"><ele>19.8</ele><time>2022-05-08T07:34:48.000Z</time></trkpt><trkpt lon="6.105758" lat="51.125493"><ele>19.8</ele><time>2022-05-08T07:34:49.000Z</time></trkpt><trkpt lon="6.10567" lat="51.125471"><ele>19.8</ele><time>2022-05-08T07:34:50.000Z</time></trkpt><trkpt lon="6.105581" lat="51.125453"><ele>20</ele><time>2022-05-08T07:34:51.000Z</time></trkpt><trkpt lon="6.105487" lat="51.125433"><ele>19.8</ele><time>2022-05-08T07:34:52.000Z</time></trkpt><trkpt lon="6.105391" lat="51.125408"><ele>19.4</ele><time>2022-05-08T07:34:53.000Z</time></trkpt><trkpt lon="6.105294" lat="51.125377"><ele>19.4</ele><time>2022-05-08T07:34:54.000Z</time></trkpt><trkpt lon="6.105199" lat="51.12534"><ele>19.4</ele><time>2022-05-08T07:34:55.000Z</time></trkpt><trkpt lon="6.105107" lat="51.1253"><ele>19.4</ele><time>2022-05-08T07:34:56.000Z</time></trkpt><trkpt lon="6.105018" lat="51.125256"><ele>19.4</ele><time>2022-05-08T07:34:57.000Z</time></trkpt><trkpt lon="6.104932" lat="51.125214"><ele>19.6</ele><time>2022-05-08T07:34:58.000Z</time></trkpt><trkpt lon="6.104849" lat="51.125172"><ele>19.6</ele><time>2022-05-08T07:34:59.000Z</time></trkpt><trkpt lon="6.104768" lat="51.125124"><ele>19.4</ele><time>2022-05-08T07:35:00.000Z</time></trkpt><trkpt lon="6.104685" lat="51.125074"><ele>19.2</ele><time>2022-05-08T07:35:01.000Z</time></trkpt><trkpt lon="6.104604" lat="51.125021"><ele>19.2</ele><time>2022-05-08T07:35:02.000Z</time></trkpt><trkpt lon="6.104527" lat="51.124961"><ele>19.2</ele><time>2022-05-08T07:35:03.000Z</time></trkpt><trkpt lon="6.104462" lat="51.124897"><ele>19.2</ele><time>2022-05-08T07:35:04.000Z</time></trkpt><trkpt lon="6.104408" lat="51.12483"><ele>19.2</ele><time>2022-05-08T07:35:05.000Z</time></trkpt><trkpt lon="6.104368" lat="51.124762"><ele>19.2</ele><time>2022-05-08T07:35:06.000Z</time></trkpt><trkpt lon="6.104342" lat="51.124692"><ele>19.2</ele><time>2022-05-08T07:35:07.000Z</time></trkpt><trkpt lon="6.104327" lat="51.124621"><ele>19.2</ele><time>2022-05-08T07:35:08.000Z</time></trkpt><trkpt lon="6.104317" lat="51.12455"><ele>19.2</ele><time>2022-05-08T07:35:09.000Z</time></trkpt><trkpt lon="6.104306" lat="51.124479"><ele>19.2</ele><time>2022-05-08T07:35:10.000Z</time></trkpt><trkpt lon="6.104286" lat="51.124413"><ele>19.2</ele><time>2022-05-08T07:35:11.000Z</time></trkpt><trkpt lon="6.104247" lat="51.124351"><ele>19.2</ele><time>2022-05-08T07:35:12.000Z</time></trkpt><trkpt lon="6.104188" lat="51.124296"><ele>19</ele><time>2022-05-08T07:35:13.000Z</time></trkpt><trkpt lon="6.104112" lat="51.124246"><ele>19</ele><time>2022-05-08T07:35:14.000Z</time></trkpt><trkpt lon="6.104024" lat="51.124201"><ele>19</ele><time>2022-05-08T07:35:15.000Z</time></trkpt><trkpt lon="6.103934" lat="51.124161"><ele>18.8</ele><time>2022-05-08T07:35:16.000Z</time></trkpt><trkpt lon="6.103847" lat="51.124123"><ele>19</ele><time>2022-05-08T07:35:17.000Z</time></trkpt><trkpt lon="6.103761" lat="51.12409"><ele>19</ele><time>2022-05-08T07:35:18.000Z</time></trkpt><trkpt lon="6.103671" lat="51.124062"><ele>19</ele><time>2022-05-08T07:35:19.000Z</time></trkpt><trkpt lon="6.103574" lat="51.124037"><ele>19</ele><time>2022-05-08T07:35:20.000Z</time></trkpt><trkpt lon="6.103473" lat="51.124016"><ele>18.8</ele><time>2022-05-08T07:35:21.000Z</time></trkpt><trkpt lon="6.103371" lat="51.124004"><ele>18.8</ele><time>2022-05-08T07:35:22.000Z</time></trkpt><trkpt lon="6.103258" lat="51.124001"><ele>18.8</ele><time>2022-05-08T07:35:23.000Z</time></trkpt><trkpt lon="6.103136" lat="51.124003"><ele>18.8</ele><time>2022-05-08T07:35:24.000Z</time></trkpt><trkpt lon="6.103013" lat="51.124007"><ele>18.8</ele><time>2022-05-08T07:35:25.000Z</time></trkpt><trkpt lon="6.102894" lat="51.124006"><ele>18.8</ele><time>2022-05-08T07:35:26.000Z</time></trkpt><trkpt lon="6.102781" lat="51.123998"><ele>18.6</ele><time>2022-05-08T07:35:27.000Z</time></trkpt><trkpt lon="6.102674" lat="51.12398"><ele>18.4</ele><time>2022-05-08T07:35:28.000Z</time></trkpt><trkpt lon="6.102576" lat="51.123948"><ele>18.4</ele><time>2022-05-08T07:35:29.000Z</time></trkpt><trkpt lon="6.102488" lat="51.123905"><ele>18.4</ele><time>2022-05-08T07:35:30.000Z</time></trkpt><trkpt lon="6.10241" lat="51.123857"><ele>18.6</ele><time>2022-05-08T07:35:31.000Z</time></trkpt><trkpt lon="6.102337" lat="51.123805"><ele>18.6</ele><time>2022-05-08T07:35:32.000Z</time></trkpt><trkpt lon="6.102264" lat="51.123754"><ele>18.6</ele><time>2022-05-08T07:35:33.000Z</time></trkpt><trkpt lon="6.102188" lat="51.123704"><ele>18.6</ele><time>2022-05-08T07:35:34.000Z</time></trkpt><trkpt lon="6.102108" lat="51.123657"><ele>18.6</ele><time>2022-05-08T07:35:35.000Z</time></trkpt><trkpt lon="6.102023" lat="51.123614"><ele>18.6</ele><time>2022-05-08T07:35:36.000Z</time></trkpt><trkpt lon="6.101937" lat="51.123569"><ele>18.6</ele><time>2022-05-08T07:35:37.000Z</time></trkpt><trkpt lon="6.101849" lat="51.123521"><ele>18.6</ele><time>2022-05-08T07:35:38.000Z</time></trkpt><trkpt lon="6.101766" lat="51.123471"><ele>18.8</ele><time>2022-05-08T07:35:39.000Z</time></trkpt><trkpt lon="6.101689" lat="51.123416"><ele>18.8</ele><time>2022-05-08T07:35:40.000Z</time></trkpt><trkpt lon="6.101627" lat="51.123357"><ele>19</ele><time>2022-05-08T07:35:41.000Z</time></trkpt><trkpt lon="6.101579" lat="51.123294"><ele>19</ele><time>2022-05-08T07:35:42.000Z</time></trkpt><trkpt lon="6.10154" lat="51.123225"><ele>19</ele><time>2022-05-08T07:35:43.000Z</time></trkpt><trkpt lon="6.101509" lat="51.123156"><ele>19</ele><time>2022-05-08T07:35:44.000Z</time></trkpt><trkpt lon="6.101488" lat="51.123087"><ele>19</ele><time>2022-05-08T07:35:45.000Z</time></trkpt><trkpt lon="6.101479" lat="51.123018"><ele>19</ele><time>2022-05-08T07:35:46.000Z</time></trkpt><trkpt lon="6.101481" lat="51.122947"><ele>19</ele><time>2022-05-08T07:35:47.000Z</time></trkpt><trkpt lon="6.101496" lat="51.122878"><ele>18.8</ele><time>2022-05-08T07:35:48.000Z</time></trkpt><trkpt lon="6.101524" lat="51.122807"><ele>18.8</ele><time>2022-05-08T07:35:49.000Z</time></trkpt><trkpt lon="6.101567" lat="51.122736"><ele>18.8</ele><time>2022-05-08T07:35:50.000Z</time></trkpt><trkpt lon="6.101618" lat="51.12267"><ele>18.6</ele><time>2022-05-08T07:35:51.000Z</time></trkpt><trkpt lon="6.101673" lat="51.122603"><ele>18.6</ele><time>2022-05-08T07:35:52.000Z</time></trkpt><trkpt lon="6.10173" lat="51.122536"><ele>18.6</ele><time>2022-05-08T07:35:53.000Z</time></trkpt><trkpt lon="6.101786" lat="51.122469"><ele>18.6</ele><time>2022-05-08T07:35:54.000Z</time></trkpt><trkpt lon="6.10184" lat="51.122405"><ele>18.6</ele><time>2022-05-08T07:35:55.000Z</time></trkpt><trkpt lon="6.101898" lat="51.122344"><ele>18.4</ele><time>2022-05-08T07:35:56.000Z</time></trkpt><trkpt lon="6.101959" lat="51.12228"><ele>18.4</ele><time>2022-05-08T07:35:57.000Z</time></trkpt><trkpt lon="6.102018" lat="51.122218"><ele>18.4</ele><time>2022-05-08T07:35:58.000Z</time></trkpt><trkpt lon="6.102072" lat="51.122159"><ele>18.4</ele><time>2022-05-08T07:35:59.000Z</time></trkpt><trkpt lon="6.102118" lat="51.1221"><ele>18.4</ele><time>2022-05-08T07:36:00.000Z</time></trkpt><trkpt lon="6.102153" lat="51.122035"><ele>18.4</ele><time>2022-05-08T07:36:01.000Z</time></trkpt><trkpt lon="6.102183" lat="51.121967"><ele>18.6</ele><time>2022-05-08T07:36:02.000Z</time></trkpt><trkpt lon="6.102205" lat="51.121895"><ele>18.6</ele><time>2022-05-08T07:36:03.000Z</time></trkpt><trkpt lon="6.102214" lat="51.121818"><ele>18.6</ele><time>2022-05-08T07:36:04.000Z</time></trkpt><trkpt lon="6.102211" lat="51.12174"><ele>18.6</ele><time>2022-05-08T07:36:05.000Z</time></trkpt><trkpt lon="6.1022" lat="51.121661"><ele>18.4</ele><time>2022-05-08T07:36:06.000Z</time></trkpt><trkpt lon="6.102182" lat="51.121584"><ele>18.6</ele><time>2022-05-08T07:36:07.000Z</time></trkpt><trkpt lon="6.102155" lat="51.121507"><ele>18.6</ele><time>2022-05-08T07:36:08.000Z</time></trkpt><trkpt lon="6.102117" lat="51.121433"><ele>18.6</ele><time>2022-05-08T07:36:09.000Z</time></trkpt><trkpt lon="6.102069" lat="51.121361"><ele>18.6</ele><time>2022-05-08T07:36:10.000Z</time></trkpt><trkpt lon="6.102014" lat="51.12129"><ele>18.6</ele><time>2022-05-08T07:36:11.000Z</time></trkpt><trkpt lon="6.10196" lat="51.121223"><ele>18.6</ele><time>2022-05-08T07:36:12.000Z</time></trkpt><trkpt lon="6.101907" lat="51.121156"><ele>18.6</ele><time>2022-05-08T07:36:13.000Z</time></trkpt><trkpt lon="6.101852" lat="51.121088"><ele>18.8</ele><time>2022-05-08T07:36:14.000Z</time></trkpt><trkpt lon="6.101796" lat="51.121021"><ele>18.8</ele><time>2022-05-08T07:36:15.000Z</time></trkpt><trkpt lon="6.101741" lat="51.120957"><ele>18.8</ele><time>2022-05-08T07:36:16.000Z</time></trkpt><trkpt lon="6.101686" lat="51.12089"><ele>19</ele><time>2022-05-08T07:36:17.000Z</time></trkpt><trkpt lon="6.10163" lat="51.120821"><ele>19</ele><time>2022-05-08T07:36:18.000Z</time></trkpt><trkpt lon="6.101572" lat="51.120752"><ele>19</ele><time>2022-05-08T07:36:19.000Z</time></trkpt><trkpt lon="6.101514" lat="51.120686"><ele>19</ele><time>2022-05-08T07:36:20.000Z</time></trkpt><trkpt lon="6.101456" lat="51.120619"><ele>19</ele><time>2022-05-08T07:36:21.000Z</time></trkpt><trkpt lon="6.101399" lat="51.12055"><ele>19.2</ele><time>2022-05-08T07:36:22.000Z</time></trkpt><trkpt lon="6.101344" lat="51.12048"><ele>19.2</ele><time>2022-05-08T07:36:23.000Z</time></trkpt><trkpt lon="6.101291" lat="51.120413"><ele>19.2</ele><time>2022-05-08T07:36:24.000Z</time></trkpt><trkpt lon="6.101237" lat="51.120346"><ele>19</ele><time>2022-05-08T07:36:25.000Z</time></trkpt><trkpt lon="6.101181" lat="51.120278"><ele>19</ele><time>2022-05-08T07:36:26.000Z</time></trkpt><trkpt lon="6.101124" lat="51.120215"><ele>19</ele><time>2022-05-08T07:36:27.000Z</time></trkpt><trkpt lon="6.101069" lat="51.120152"><ele>19</ele><time>2022-05-08T07:36:28.000Z</time></trkpt><trkpt lon="6.101015" lat="51.120085"><ele>19</ele><time>2022-05-08T07:36:29.000Z</time></trkpt><trkpt lon="6.100959" lat="51.120019"><ele>19</ele><time>2022-05-08T07:36:30.000Z</time></trkpt><trkpt lon="6.100904" lat="51.119953"><ele>19</ele><time>2022-05-08T07:36:31.000Z</time></trkpt><trkpt lon="6.100848" lat="51.119889"><ele>19</ele><time>2022-05-08T07:36:32.000Z</time></trkpt><trkpt lon="6.100791" lat="51.119824"><ele>19</ele><time>2022-05-08T07:36:33.000Z</time></trkpt><trkpt lon="6.100734" lat="51.119761"><ele>19</ele><time>2022-05-08T07:36:34.000Z</time></trkpt><trkpt lon="6.100679" lat="51.119702"><ele>19</ele><time>2022-05-08T07:36:35.000Z</time></trkpt><trkpt lon="6.100628" lat="51.11965"><ele>19</ele><time>2022-05-08T07:36:36.000Z</time></trkpt><trkpt lon="6.100582" lat="51.119605"><ele>19</ele><time>2022-05-08T07:36:37.000Z</time></trkpt><trkpt lon="6.100532" lat="51.119569"><ele>19.2</ele><time>2022-05-08T07:36:38.000Z</time></trkpt><trkpt lon="6.100478" lat="51.119536"><ele>19.2</ele><time>2022-05-08T07:36:39.000Z</time></trkpt><trkpt lon="6.100424" lat="51.1195"><ele>19.2</ele><time>2022-05-08T07:36:40.000Z</time></trkpt><trkpt lon="6.100371" lat="51.119455"><ele>19.2</ele><time>2022-05-08T07:36:41.000Z</time></trkpt><trkpt lon="6.100314" lat="51.119401"><ele>19.2</ele><time>2022-05-08T07:36:42.000Z</time></trkpt><trkpt lon="6.100253" lat="51.119341"><ele>19.2</ele><time>2022-05-08T07:36:43.000Z</time></trkpt><trkpt lon="6.10019" lat="51.11928"><ele>19.2</ele><time>2022-05-08T07:36:44.000Z</time></trkpt><trkpt lon="6.100127" lat="51.11922"><ele>19.2</ele><time>2022-05-08T07:36:45.000Z</time></trkpt><trkpt lon="6.100065" lat="51.119161"><ele>19.2</ele><time>2022-05-08T07:36:46.000Z</time></trkpt><trkpt lon="6.100003" lat="51.119105"><ele>19.2</ele><time>2022-05-08T07:36:47.000Z</time></trkpt><trkpt lon="6.09994" lat="51.119045"><ele>19.2</ele><time>2022-05-08T07:36:48.000Z</time></trkpt><trkpt lon="6.099877" lat="51.118988"><ele>19.2</ele><time>2022-05-08T07:36:49.000Z</time></trkpt><trkpt lon="6.099818" lat="51.118934"><ele>19.4</ele><time>2022-05-08T07:36:50.000Z</time></trkpt><trkpt lon="6.099757" lat="51.118876"><ele>19.4</ele><time>2022-05-08T07:36:51.000Z</time></trkpt><trkpt lon="6.099694" lat="51.118817"><ele>19.4</ele><time>2022-05-08T07:36:52.000Z</time></trkpt><trkpt lon="6.099632" lat="51.118762"><ele>19.4</ele><time>2022-05-08T07:36:53.000Z</time></trkpt><trkpt lon="6.099569" lat="51.118705"><ele>19.4</ele><time>2022-05-08T07:36:54.000Z</time></trkpt><trkpt lon="6.099503" lat="51.118646"><ele>19.4</ele><time>2022-05-08T07:36:55.000Z</time></trkpt><trkpt lon="6.099436" lat="51.118586"><ele>19.4</ele><time>2022-05-08T07:36:56.000Z</time></trkpt><trkpt lon="6.099372" lat="51.118524"><ele>19.4</ele><time>2022-05-08T07:36:57.000Z</time></trkpt><trkpt lon="6.099307" lat="51.118458"><ele>19.4</ele><time>2022-05-08T07:36:58.000Z</time></trkpt><trkpt lon="6.099237" lat="51.118391"><ele>19.2</ele><time>2022-05-08T07:36:59.000Z</time></trkpt><trkpt lon="6.099165" lat="51.118322"><ele>19.2</ele><time>2022-05-08T07:37:00.000Z</time></trkpt><trkpt lon="6.099092" lat="51.118254"><ele>19.2</ele><time>2022-05-08T07:37:01.000Z</time></trkpt><trkpt lon="6.09902" lat="51.118188"><ele>19.2</ele><time>2022-05-08T07:37:02.000Z</time></trkpt><trkpt lon="6.098952" lat="51.118123"><ele>19.2</ele><time>2022-05-08T07:37:03.000Z</time></trkpt><trkpt lon="6.098883" lat="51.118058"><ele>19.4</ele><time>2022-05-08T07:37:04.000Z</time></trkpt><trkpt lon="6.098813" lat="51.117993"><ele>19.4</ele><time>2022-05-08T07:37:05.000Z</time></trkpt><trkpt lon="6.098744" lat="51.117928"><ele>19.4</ele><time>2022-05-08T07:37:06.000Z</time></trkpt><trkpt lon="6.098675" lat="51.117866"><ele>19.4</ele><time>2022-05-08T07:37:07.000Z</time></trkpt><trkpt lon="6.098609" lat="51.117802"><ele>19.4</ele><time>2022-05-08T07:37:08.000Z</time></trkpt><trkpt lon="6.098547" lat="51.117738"><ele>19.4</ele><time>2022-05-08T07:37:09.000Z</time></trkpt><trkpt lon="6.098491" lat="51.117671"><ele>19.4</ele><time>2022-05-08T07:37:10.000Z</time></trkpt><trkpt lon="6.098435" lat="51.117604"><ele>19.4</ele><time>2022-05-08T07:37:11.000Z</time></trkpt><trkpt lon="6.098382" lat="51.117541"><ele>19.4</ele><time>2022-05-08T07:37:12.000Z</time></trkpt><trkpt lon="6.098325" lat="51.117472"><ele>19.4</ele><time>2022-05-08T07:37:13.000Z</time></trkpt><trkpt lon="6.098264" lat="51.117399"><ele>19.4</ele><time>2022-05-08T07:37:14.000Z</time></trkpt><trkpt lon="6.098207" lat="51.117333"><ele>19.4</ele><time>2022-05-08T07:37:15.000Z</time></trkpt><trkpt lon="6.098151" lat="51.117265"><ele>19.4</ele><time>2022-05-08T07:37:16.000Z</time></trkpt><trkpt lon="6.098096" lat="51.117197"><ele>19.4</ele><time>2022-05-08T07:37:17.000Z</time></trkpt><trkpt lon="6.098041" lat="51.117129"><ele>19.4</ele><time>2022-05-08T07:37:18.000Z</time></trkpt><trkpt lon="6.097987" lat="51.117058"><ele>19.4</ele><time>2022-05-08T07:37:19.000Z</time></trkpt><trkpt lon="6.097932" lat="51.11699"><ele>19.4</ele><time>2022-05-08T07:37:20.000Z</time></trkpt><trkpt lon="6.097876" lat="51.116925"><ele>19.4</ele><time>2022-05-08T07:37:21.000Z</time></trkpt><trkpt lon="6.09782" lat="51.11686"><ele>19.2</ele><time>2022-05-08T07:37:22.000Z</time></trkpt><trkpt lon="6.097765" lat="51.116794"><ele>19.2</ele><time>2022-05-08T07:37:23.000Z</time></trkpt><trkpt lon="6.097708" lat="51.116729"><ele>19.2</ele><time>2022-05-08T07:37:24.000Z</time></trkpt><trkpt lon="6.097653" lat="51.116665"><ele>19.2</ele><time>2022-05-08T07:37:25.000Z</time></trkpt><trkpt lon="6.097597" lat="51.1166"><ele>19.2</ele><time>2022-05-08T07:37:26.000Z</time></trkpt><trkpt lon="6.09754" lat="51.116536"><ele>19.2</ele><time>2022-05-08T07:37:27.000Z</time></trkpt><trkpt lon="6.097485" lat="51.116471"><ele>19.2</ele><time>2022-05-08T07:37:28.000Z</time></trkpt><trkpt lon="6.09743" lat="51.116406"><ele>19.2</ele><time>2022-05-08T07:37:29.000Z</time></trkpt><trkpt lon="6.097378" lat="51.116341"><ele>19.2</ele><time>2022-05-08T07:37:30.000Z</time></trkpt><trkpt lon="6.097327" lat="51.116276"><ele>19</ele><time>2022-05-08T07:37:31.000Z</time></trkpt><trkpt lon="6.097274" lat="51.116212"><ele>19</ele><time>2022-05-08T07:37:32.000Z</time></trkpt><trkpt lon="6.097221" lat="51.116147"><ele>19</ele><time>2022-05-08T07:37:33.000Z</time></trkpt><trkpt lon="6.097171" lat="51.116083"><ele>19</ele><time>2022-05-08T07:37:34.000Z</time></trkpt><trkpt lon="6.097126" lat="51.116015"><ele>19</ele><time>2022-05-08T07:37:35.000Z</time></trkpt><trkpt lon="6.097087" lat="51.115948"><ele>19</ele><time>2022-05-08T07:37:36.000Z</time></trkpt><trkpt lon="6.097052" lat="51.115883"><ele>19</ele><time>2022-05-08T07:37:37.000Z</time></trkpt><trkpt lon="6.097022" lat="51.115819"><ele>19</ele><time>2022-05-08T07:37:38.000Z</time></trkpt><trkpt lon="6.096997" lat="51.115754"><ele>19</ele><time>2022-05-08T07:37:39.000Z</time></trkpt><trkpt lon="6.096977" lat="51.115691"><ele>19</ele><time>2022-05-08T07:37:40.000Z</time></trkpt><trkpt lon="6.096961" lat="51.115633"><ele>19</ele><time>2022-05-08T07:37:41.000Z</time></trkpt><trkpt lon="6.096952" lat="51.11558"><ele>18.8</ele><time>2022-05-08T07:37:42.000Z</time></trkpt><trkpt lon="6.096957" lat="51.115528"><ele>18.8</ele><time>2022-05-08T07:37:43.000Z</time></trkpt><trkpt lon="6.09697" lat="51.115471"><ele>18.8</ele><time>2022-05-08T07:37:44.000Z</time></trkpt><trkpt lon="6.096981" lat="51.115409"><ele>18.8</ele><time>2022-05-08T07:37:45.000Z</time></trkpt><trkpt lon="6.096982" lat="51.115343"><ele>18.8</ele><time>2022-05-08T07:37:46.000Z</time></trkpt><trkpt lon="6.096972" lat="51.115277"><ele>18.8</ele><time>2022-05-08T07:37:47.000Z</time></trkpt><trkpt lon="6.096957" lat="51.115212"><ele>18.6</ele><time>2022-05-08T07:37:48.000Z</time></trkpt><trkpt lon="6.096939" lat="51.115145"><ele>18.6</ele><time>2022-05-08T07:37:49.000Z</time></trkpt><trkpt lon="6.096922" lat="51.115074"><ele>18.6</ele><time>2022-05-08T07:37:50.000Z</time></trkpt><trkpt lon="6.096906" lat="51.115004"><ele>18.6</ele><time>2022-05-08T07:37:51.000Z</time></trkpt><trkpt lon="6.096894" lat="51.114933"><ele>18.6</ele><time>2022-05-08T07:37:52.000Z</time></trkpt><trkpt lon="6.096881" lat="51.114861"><ele>18.6</ele><time>2022-05-08T07:37:53.000Z</time></trkpt><trkpt lon="6.096864" lat="51.114788"><ele>18.4</ele><time>2022-05-08T07:37:54.000Z</time></trkpt><trkpt lon="6.096838" lat="51.114715"><ele>18.4</ele><time>2022-05-08T07:37:55.000Z</time></trkpt><trkpt lon="6.096805" lat="51.114647"><ele>18.4</ele><time>2022-05-08T07:37:56.000Z</time></trkpt><trkpt lon="6.09677" lat="51.11458"><ele>18.4</ele><time>2022-05-08T07:37:57.000Z</time></trkpt><trkpt lon="6.096741" lat="51.114512"><ele>18.4</ele><time>2022-05-08T07:37:58.000Z</time></trkpt><trkpt lon="6.096725" lat="51.114441"><ele>18.4</ele><time>2022-05-08T07:37:59.000Z</time></trkpt><trkpt lon="6.096727" lat="51.114372"><ele>18.4</ele><time>2022-05-08T07:38:00.000Z</time></trkpt><trkpt lon="6.096752" lat="51.114305"><ele>18.4</ele><time>2022-05-08T07:38:01.000Z</time></trkpt><trkpt lon="6.096797" lat="51.114239"><ele>18.4</ele><time>2022-05-08T07:38:02.000Z</time></trkpt><trkpt lon="6.096856" lat="51.114179"><ele>18.4</ele><time>2022-05-08T07:38:03.000Z</time></trkpt><trkpt lon="6.09692" lat="51.114123"><ele>18.4</ele><time>2022-05-08T07:38:04.000Z</time></trkpt><trkpt lon="6.096987" lat="51.114064"><ele>18.4</ele><time>2022-05-08T07:38:05.000Z</time></trkpt><trkpt lon="6.097053" lat="51.114002"><ele>18.4</ele><time>2022-05-08T07:38:06.000Z</time></trkpt><trkpt lon="6.097111" lat="51.113941"><ele>18.4</ele><time>2022-05-08T07:38:07.000Z</time></trkpt><trkpt lon="6.09716" lat="51.113882"><ele>18.6</ele><time>2022-05-08T07:38:08.000Z</time></trkpt><trkpt lon="6.097199" lat="51.113817"><ele>18.6</ele><time>2022-05-08T07:38:09.000Z</time></trkpt><trkpt lon="6.097229" lat="51.113744"><ele>18.6</ele><time>2022-05-08T07:38:10.000Z</time></trkpt><trkpt lon="6.09725" lat="51.113668"><ele>18.6</ele><time>2022-05-08T07:38:11.000Z</time></trkpt><trkpt lon="6.097261" lat="51.113594"><ele>18.6</ele><time>2022-05-08T07:38:12.000Z</time></trkpt><trkpt lon="6.097266" lat="51.113522"><ele>18.6</ele><time>2022-05-08T07:38:13.000Z</time></trkpt><trkpt lon="6.097268" lat="51.113447"><ele>18.8</ele><time>2022-05-08T07:38:14.000Z</time></trkpt><trkpt lon="6.097271" lat="51.113373"><ele>18.8</ele><time>2022-05-08T07:38:15.000Z</time></trkpt><trkpt lon="6.097288" lat="51.1133"><ele>19</ele><time>2022-05-08T07:38:16.000Z</time></trkpt><trkpt lon="6.097319" lat="51.113228"><ele>19</ele><time>2022-05-08T07:38:17.000Z</time></trkpt><trkpt lon="6.097359" lat="51.113158"><ele>19.2</ele><time>2022-05-08T07:38:18.000Z</time></trkpt><trkpt lon="6.097409" lat="51.113093"><ele>19.2</ele><time>2022-05-08T07:38:19.000Z</time></trkpt><trkpt lon="6.097468" lat="51.113032"><ele>19.2</ele><time>2022-05-08T07:38:20.000Z</time></trkpt><trkpt lon="6.097534" lat="51.112971"><ele>19.2</ele><time>2022-05-08T07:38:21.000Z</time></trkpt><trkpt lon="6.097602" lat="51.112912"><ele>19.2</ele><time>2022-05-08T07:38:22.000Z</time></trkpt><trkpt lon="6.097673" lat="51.112857"><ele>19.2</ele><time>2022-05-08T07:38:23.000Z</time></trkpt><trkpt lon="6.097746" lat="51.112802"><ele>19.2</ele><time>2022-05-08T07:38:24.000Z</time></trkpt><trkpt lon="6.097824" lat="51.112744"><ele>19.4</ele><time>2022-05-08T07:38:25.000Z</time></trkpt><trkpt lon="6.097905" lat="51.112692"><ele>19.4</ele><time>2022-05-08T07:38:26.000Z</time></trkpt><trkpt lon="6.097991" lat="51.112644"><ele>19.4</ele><time>2022-05-08T07:38:27.000Z</time></trkpt><trkpt lon="6.098083" lat="51.112596"><ele>19.4</ele><time>2022-05-08T07:38:28.000Z</time></trkpt><trkpt lon="6.098176" lat="51.112551"><ele>19.4</ele><time>2022-05-08T07:38:29.000Z</time></trkpt><trkpt lon="6.09827" lat="51.112507"><ele>19.4</ele><time>2022-05-08T07:38:30.000Z</time></trkpt><trkpt lon="6.098364" lat="51.112463"><ele>19.4</ele><time>2022-05-08T07:38:31.000Z</time></trkpt><trkpt lon="6.098457" lat="51.112424"><ele>19.4</ele><time>2022-05-08T07:38:32.000Z</time></trkpt><trkpt lon="6.098549" lat="51.112384"><ele>19.6</ele><time>2022-05-08T07:38:33.000Z</time></trkpt><trkpt lon="6.098644" lat="51.112342"><ele>19.6</ele><time>2022-05-08T07:38:34.000Z</time></trkpt><trkpt lon="6.098741" lat="51.112302"><ele>19.6</ele><time>2022-05-08T07:38:35.000Z</time></trkpt><trkpt lon="6.098837" lat="51.112262"><ele>19.6</ele><time>2022-05-08T07:38:36.000Z</time></trkpt><trkpt lon="6.098934" lat="51.11222"><ele>19.6</ele><time>2022-05-08T07:38:37.000Z</time></trkpt><trkpt lon="6.09903" lat="51.112177"><ele>19.6</ele><time>2022-05-08T07:38:38.000Z</time></trkpt><trkpt lon="6.099125" lat="51.112135"><ele>19.6</ele><time>2022-05-08T07:38:39.000Z</time></trkpt><trkpt lon="6.099219" lat="51.112094"><ele>19.6</ele><time>2022-05-08T07:38:40.000Z</time></trkpt><trkpt lon="6.099315" lat="51.112052"><ele>19.8</ele><time>2022-05-08T07:38:41.000Z</time></trkpt><trkpt lon="6.099406" lat="51.11201"><ele>19.8</ele><time>2022-05-08T07:38:42.000Z</time></trkpt><trkpt lon="6.099494" lat="51.111963"><ele>19.8</ele><time>2022-05-08T07:38:43.000Z</time></trkpt><trkpt lon="6.09958" lat="51.111913"><ele>20</ele><time>2022-05-08T07:38:44.000Z</time></trkpt><trkpt lon="6.099665" lat="51.111864"><ele>20</ele><time>2022-05-08T07:38:45.000Z</time></trkpt><trkpt lon="6.099751" lat="51.111816"><ele>20</ele><time>2022-05-08T07:38:46.000Z</time></trkpt><trkpt lon="6.099838" lat="51.111771"><ele>20</ele><time>2022-05-08T07:38:47.000Z</time></trkpt><trkpt lon="6.099928" lat="51.111723"><ele>20</ele><time>2022-05-08T07:38:48.000Z</time></trkpt><trkpt lon="6.100019" lat="51.111675"><ele>20</ele><time>2022-05-08T07:38:49.000Z</time></trkpt><trkpt lon="6.100112" lat="51.111627"><ele>20</ele><time>2022-05-08T07:38:50.000Z</time></trkpt><trkpt lon="6.100207" lat="51.111575"><ele>20.2</ele><time>2022-05-08T07:38:51.000Z</time></trkpt><trkpt lon="6.100307" lat="51.111524"><ele>20.2</ele><time>2022-05-08T07:38:52.000Z</time></trkpt><trkpt lon="6.100409" lat="51.111472"><ele>20.2</ele><time>2022-05-08T07:38:53.000Z</time></trkpt><trkpt lon="6.10051" lat="51.111419"><ele>20</ele><time>2022-05-08T07:38:54.000Z</time></trkpt><trkpt lon="6.100609" lat="51.111368"><ele>20</ele><time>2022-05-08T07:38:55.000Z</time></trkpt><trkpt lon="6.100708" lat="51.111318"><ele>20</ele><time>2022-05-08T07:38:56.000Z</time></trkpt><trkpt lon="6.100803" lat="51.111267"><ele>19.8</ele><time>2022-05-08T07:38:57.000Z</time></trkpt><trkpt lon="6.100895" lat="51.111215"><ele>19.8</ele><time>2022-05-08T07:38:58.000Z</time></trkpt><trkpt lon="6.100981" lat="51.111161"><ele>19.6</ele><time>2022-05-08T07:38:59.000Z</time></trkpt><trkpt lon="6.10106" lat="51.111104"><ele>19.6</ele><time>2022-05-08T07:39:00.000Z</time></trkpt><trkpt lon="6.101135" lat="51.111043"><ele>19.4</ele><time>2022-05-08T07:39:01.000Z</time></trkpt><trkpt lon="6.101202" lat="51.110975"><ele>19.4</ele><time>2022-05-08T07:39:02.000Z</time></trkpt><trkpt lon="6.10126" lat="51.110907"><ele>19.2</ele><time>2022-05-08T07:39:03.000Z</time></trkpt><trkpt lon="6.101315" lat="51.110838"><ele>19</ele><time>2022-05-08T07:39:04.000Z</time></trkpt><trkpt lon="6.101366" lat="51.110767"><ele>19</ele><time>2022-05-08T07:39:05.000Z</time></trkpt><trkpt lon="6.101411" lat="51.110694"><ele>19</ele><time>2022-05-08T07:39:06.000Z</time></trkpt><trkpt lon="6.101456" lat="51.110624"><ele>19</ele><time>2022-05-08T07:39:07.000Z</time></trkpt><trkpt lon="6.101499" lat="51.110553"><ele>19</ele><time>2022-05-08T07:39:08.000Z</time></trkpt><trkpt lon="6.101538" lat="51.110483"><ele>19.2</ele><time>2022-05-08T07:39:09.000Z</time></trkpt><trkpt lon="6.101576" lat="51.110412"><ele>19.2</ele><time>2022-05-08T07:39:10.000Z</time></trkpt><trkpt lon="6.101613" lat="51.11034"><ele>19.2</ele><time>2022-05-08T07:39:11.000Z</time></trkpt><trkpt lon="6.101653" lat="51.110268"><ele>19.2</ele><time>2022-05-08T07:39:12.000Z</time></trkpt><trkpt lon="6.101702" lat="51.110197"><ele>19.2</ele><time>2022-05-08T07:39:13.000Z</time></trkpt><trkpt lon="6.101755" lat="51.110131"><ele>19.2</ele><time>2022-05-08T07:39:14.000Z</time></trkpt><trkpt lon="6.101811" lat="51.110066"><ele>19</ele><time>2022-05-08T07:39:15.000Z</time></trkpt><trkpt lon="6.101867" lat="51.109999"><ele>19</ele><time>2022-05-08T07:39:16.000Z</time></trkpt><trkpt lon="6.101924" lat="51.109935"><ele>19</ele><time>2022-05-08T07:39:17.000Z</time></trkpt><trkpt lon="6.101983" lat="51.109874"><ele>18.8</ele><time>2022-05-08T07:39:18.000Z</time></trkpt><trkpt lon="6.102045" lat="51.109808"><ele>18.8</ele><time>2022-05-08T07:39:19.000Z</time></trkpt><trkpt lon="6.102108" lat="51.109741"><ele>18.6</ele><time>2022-05-08T07:39:20.000Z</time></trkpt><trkpt lon="6.102173" lat="51.109679"><ele>18.8</ele><time>2022-05-08T07:39:21.000Z</time></trkpt><trkpt lon="6.102239" lat="51.109615"><ele>18.8</ele><time>2022-05-08T07:39:22.000Z</time></trkpt><trkpt lon="6.102302" lat="51.109553"><ele>18.8</ele><time>2022-05-08T07:39:23.000Z</time></trkpt><trkpt lon="6.102364" lat="51.10949"><ele>19</ele><time>2022-05-08T07:39:24.000Z</time></trkpt><trkpt lon="6.102424" lat="51.109428"><ele>19</ele><time>2022-05-08T07:39:25.000Z</time></trkpt><trkpt lon="6.10248" lat="51.109367"><ele>19.2</ele><time>2022-05-08T07:39:26.000Z</time></trkpt><trkpt lon="6.102526" lat="51.109308"><ele>19.2</ele><time>2022-05-08T07:39:27.000Z</time></trkpt><trkpt lon="6.102556" lat="51.109243"><ele>19.2</ele><time>2022-05-08T07:39:28.000Z</time></trkpt><trkpt lon="6.102549" lat="51.109179"><ele>19.2</ele><time>2022-05-08T07:39:29.000Z</time></trkpt><trkpt lon="6.102499" lat="51.109125"><ele>19.4</ele><time>2022-05-08T07:39:30.000Z</time></trkpt><trkpt lon="6.102417" lat="51.109075"><ele>19.4</ele><time>2022-05-08T07:39:31.000Z</time></trkpt><trkpt lon="6.102323" lat="51.109026"><ele>19.4</ele><time>2022-05-08T07:39:32.000Z</time></trkpt><trkpt lon="6.102232" lat="51.108974"><ele>19.4</ele><time>2022-05-08T07:39:33.000Z</time></trkpt><trkpt lon="6.102148" lat="51.108919"><ele>19.4</ele><time>2022-05-08T07:39:34.000Z</time></trkpt><trkpt lon="6.102069" lat="51.108859"><ele>19.4</ele><time>2022-05-08T07:39:35.000Z</time></trkpt><trkpt lon="6.102003" lat="51.108795"><ele>19.4</ele><time>2022-05-08T07:39:36.000Z</time></trkpt><trkpt lon="6.101963" lat="51.108728"><ele>19.4</ele><time>2022-05-08T07:39:37.000Z</time></trkpt><trkpt lon="6.10195" lat="51.108651"><ele>19.4</ele><time>2022-05-08T07:39:38.000Z</time></trkpt><trkpt lon="6.101958" lat="51.10857"><ele>19.4</ele><time>2022-05-08T07:39:39.000Z</time></trkpt><trkpt lon="6.101982" lat="51.108494"><ele>19.4</ele><time>2022-05-08T07:39:40.000Z</time></trkpt><trkpt lon="6.102011" lat="51.10842"><ele>19.4</ele><time>2022-05-08T07:39:41.000Z</time></trkpt><trkpt lon="6.102045" lat="51.108345"><ele>19.2</ele><time>2022-05-08T07:39:42.000Z</time></trkpt><trkpt lon="6.102083" lat="51.10827"><ele>19.2</ele><time>2022-05-08T07:39:43.000Z</time></trkpt><trkpt lon="6.102127" lat="51.108198"><ele>19.2</ele><time>2022-05-08T07:39:44.000Z</time></trkpt><trkpt lon="6.102175" lat="51.108132"><ele>19</ele><time>2022-05-08T07:39:45.000Z</time></trkpt><trkpt lon="6.102221" lat="51.108067"><ele>19</ele><time>2022-05-08T07:39:46.000Z</time></trkpt><trkpt lon="6.102271" lat="51.108002"><ele>19</ele><time>2022-05-08T07:39:47.000Z</time></trkpt><trkpt lon="6.102328" lat="51.107939"><ele>19</ele><time>2022-05-08T07:39:48.000Z</time></trkpt><trkpt lon="6.102394" lat="51.107881"><ele>19</ele><time>2022-05-08T07:39:49.000Z</time></trkpt><trkpt lon="6.10247" lat="51.107824"><ele>18.8</ele><time>2022-05-08T07:39:50.000Z</time></trkpt><trkpt lon="6.102549" lat="51.107771"><ele>18.8</ele><time>2022-05-08T07:39:51.000Z</time></trkpt><trkpt lon="6.102624" lat="51.107719"><ele>19</ele><time>2022-05-08T07:39:52.000Z</time></trkpt><trkpt lon="6.102692" lat="51.107665"><ele>19</ele><time>2022-05-08T07:39:53.000Z</time></trkpt><trkpt lon="6.10275" lat="51.10761"><ele>19</ele><time>2022-05-08T07:39:54.000Z</time></trkpt><trkpt lon="6.102795" lat="51.10755"><ele>19</ele><time>2022-05-08T07:39:55.000Z</time></trkpt><trkpt lon="6.102824" lat="51.107485"><ele>19</ele><time>2022-05-08T07:39:56.000Z</time></trkpt><trkpt lon="6.102835" lat="51.107414"><ele>19</ele><time>2022-05-08T07:39:57.000Z</time></trkpt><trkpt lon="6.102836" lat="51.107344"><ele>19</ele><time>2022-05-08T07:39:58.000Z</time></trkpt><trkpt lon="6.102833" lat="51.10727"><ele>19</ele><time>2022-05-08T07:39:59.000Z</time></trkpt><trkpt lon="6.102826" lat="51.107194"><ele>19</ele><time>2022-05-08T07:40:00.000Z</time></trkpt><trkpt lon="6.102814" lat="51.107116"><ele>19</ele><time>2022-05-08T07:40:01.000Z</time></trkpt><trkpt lon="6.1028" lat="51.107036"><ele>19</ele><time>2022-05-08T07:40:02.000Z</time></trkpt><trkpt lon="6.102785" lat="51.106954"><ele>18.8</ele><time>2022-05-08T07:40:03.000Z</time></trkpt><trkpt lon="6.102771" lat="51.106872"><ele>18.8</ele><time>2022-05-08T07:40:04.000Z</time></trkpt><trkpt lon="6.102757" lat="51.106792"><ele>18.8</ele><time>2022-05-08T07:40:05.000Z</time></trkpt><trkpt lon="6.102744" lat="51.106714"><ele>18.8</ele><time>2022-05-08T07:40:06.000Z</time></trkpt><trkpt lon="6.102731" lat="51.106637"><ele>18.8</ele><time>2022-05-08T07:40:07.000Z</time></trkpt><trkpt lon="6.102716" lat="51.106561"><ele>18.8</ele><time>2022-05-08T07:40:08.000Z</time></trkpt><trkpt lon="6.102702" lat="51.106485"><ele>18.8</ele><time>2022-05-08T07:40:09.000Z</time></trkpt><trkpt lon="6.10269" lat="51.106409"><ele>18.8</ele><time>2022-05-08T07:40:10.000Z</time></trkpt><trkpt lon="6.102677" lat="51.106333"><ele>18.6</ele><time>2022-05-08T07:40:11.000Z</time></trkpt><trkpt lon="6.102664" lat="51.106256"><ele>18.6</ele><time>2022-05-08T07:40:12.000Z</time></trkpt><trkpt lon="6.102651" lat="51.106183"><ele>18.6</ele><time>2022-05-08T07:40:13.000Z</time></trkpt><trkpt lon="6.102636" lat="51.106109"><ele>18.4</ele><time>2022-05-08T07:40:14.000Z</time></trkpt><trkpt lon="6.102619" lat="51.106034"><ele>18.4</ele><time>2022-05-08T07:40:15.000Z</time></trkpt><trkpt lon="6.102597" lat="51.105961"><ele>18.4</ele><time>2022-05-08T07:40:16.000Z</time></trkpt><trkpt lon="6.102572" lat="51.105889"><ele>18.4</ele><time>2022-05-08T07:40:17.000Z</time></trkpt><trkpt lon="6.102545" lat="51.105814"><ele>18.4</ele><time>2022-05-08T07:40:18.000Z</time></trkpt><trkpt lon="6.102517" lat="51.105739"><ele>18.4</ele><time>2022-05-08T07:40:19.000Z</time></trkpt><trkpt lon="6.102491" lat="51.105667"><ele>18.4</ele><time>2022-05-08T07:40:20.000Z</time></trkpt><trkpt lon="6.102464" lat="51.105595"><ele>18.6</ele><time>2022-05-08T07:40:21.000Z</time></trkpt><trkpt lon="6.102436" lat="51.105522"><ele>18.6</ele><time>2022-05-08T07:40:22.000Z</time></trkpt><trkpt lon="6.10241" lat="51.105454"><ele>18.8</ele><time>2022-05-08T07:40:23.000Z</time></trkpt><trkpt lon="6.102386" lat="51.105394"><ele>18.8</ele><time>2022-05-08T07:40:24.000Z</time></trkpt><trkpt lon="6.102369" lat="51.105336"><ele>19</ele><time>2022-05-08T07:40:25.000Z</time></trkpt><trkpt lon="6.102363" lat="51.105279"><ele>19</ele><time>2022-05-08T07:40:26.000Z</time></trkpt><trkpt lon="6.102364" lat="51.105222"><ele>19</ele><time>2022-05-08T07:40:27.000Z</time></trkpt><trkpt lon="6.102362" lat="51.105165"><ele>19</ele><time>2022-05-08T07:40:28.000Z</time></trkpt><trkpt lon="6.102354" lat="51.105105"><ele>19</ele><time>2022-05-08T07:40:29.000Z</time></trkpt><trkpt lon="6.102341" lat="51.105041"><ele>19</ele><time>2022-05-08T07:40:30.000Z</time></trkpt><trkpt lon="6.102324" lat="51.104977"><ele>19</ele><time>2022-05-08T07:40:31.000Z</time></trkpt><trkpt lon="6.102308" lat="51.104913"><ele>19.2</ele><time>2022-05-08T07:40:32.000Z</time></trkpt><trkpt lon="6.102295" lat="51.10485"><ele>19.2</ele><time>2022-05-08T07:40:33.000Z</time></trkpt><trkpt lon="6.102281" lat="51.104783"><ele>19.2</ele><time>2022-05-08T07:40:34.000Z</time></trkpt><trkpt lon="6.102264" lat="51.104714"><ele>19.2</ele><time>2022-05-08T07:40:35.000Z</time></trkpt><trkpt lon="6.102246" lat="51.104649"><ele>19.2</ele><time>2022-05-08T07:40:36.000Z</time></trkpt><trkpt lon="6.102228" lat="51.104586"><ele>19.2</ele><time>2022-05-08T07:40:37.000Z</time></trkpt><trkpt lon="6.102215" lat="51.104525"><ele>19.2</ele><time>2022-05-08T07:40:38.000Z</time></trkpt><trkpt lon="6.102204" lat="51.104464"><ele>19.2</ele><time>2022-05-08T07:40:39.000Z</time></trkpt><trkpt lon="6.102196" lat="51.104401"><ele>19.2</ele><time>2022-05-08T07:40:40.000Z</time></trkpt><trkpt lon="6.102192" lat="51.104332"><ele>19.2</ele><time>2022-05-08T07:40:41.000Z</time></trkpt><trkpt lon="6.102197" lat="51.104259"><ele>19.2</ele><time>2022-05-08T07:40:42.000Z</time></trkpt><trkpt lon="6.102216" lat="51.104188"><ele>19.2</ele><time>2022-05-08T07:40:43.000Z</time></trkpt><trkpt lon="6.102253" lat="51.10412"><ele>19.2</ele><time>2022-05-08T07:40:44.000Z</time></trkpt><trkpt lon="6.102308" lat="51.104056"><ele>19.2</ele><time>2022-05-08T07:40:45.000Z</time></trkpt><trkpt lon="6.102374" lat="51.104002"><ele>19.2</ele><time>2022-05-08T07:40:46.000Z</time></trkpt><trkpt lon="6.102447" lat="51.103952"><ele>19.2</ele><time>2022-05-08T07:40:47.000Z</time></trkpt><trkpt lon="6.102524" lat="51.103903"><ele>19.4</ele><time>2022-05-08T07:40:48.000Z</time></trkpt><trkpt lon="6.102603" lat="51.103855"><ele>19.4</ele><time>2022-05-08T07:40:49.000Z</time></trkpt><trkpt lon="6.102682" lat="51.103807"><ele>19.4</ele><time>2022-05-08T07:40:50.000Z</time></trkpt><trkpt lon="6.102761" lat="51.103762"><ele>19.4</ele><time>2022-05-08T07:40:51.000Z</time></trkpt><trkpt lon="6.102838" lat="51.103718"><ele>19.4</ele><time>2022-05-08T07:40:52.000Z</time></trkpt><trkpt lon="6.102913" lat="51.103674"><ele>19.4</ele><time>2022-05-08T07:40:53.000Z</time></trkpt><trkpt lon="6.102986" lat="51.103633"><ele>19.4</ele><time>2022-05-08T07:40:54.000Z</time></trkpt><trkpt lon="6.10306" lat="51.103593"><ele>19.4</ele><time>2022-05-08T07:40:55.000Z</time></trkpt><trkpt lon="6.103132" lat="51.103555"><ele>19.6</ele><time>2022-05-08T07:40:56.000Z</time></trkpt><trkpt lon="6.103202" lat="51.103514"><ele>19.6</ele><time>2022-05-08T07:40:57.000Z</time></trkpt><trkpt lon="6.10327" lat="51.103474"><ele>19.6</ele><time>2022-05-08T07:40:58.000Z</time></trkpt><trkpt lon="6.103338" lat="51.103439"><ele>19.6</ele><time>2022-05-08T07:40:59.000Z</time></trkpt><trkpt lon="6.103406" lat="51.103404"><ele>19.8</ele><time>2022-05-08T07:41:00.000Z</time></trkpt><trkpt lon="6.103478" lat="51.103372"><ele>19.8</ele><time>2022-05-08T07:41:01.000Z</time></trkpt><trkpt lon="6.103554" lat="51.10335"><ele>19.8</ele><time>2022-05-08T07:41:02.000Z</time></trkpt><trkpt lon="6.103633" lat="51.103337"><ele>20</ele><time>2022-05-08T07:41:03.000Z</time></trkpt><trkpt lon="6.10371" lat="51.103324"><ele>20</ele><time>2022-05-08T07:41:04.000Z</time></trkpt><trkpt lon="6.103779" lat="51.103304"><ele>20</ele><time>2022-05-08T07:41:05.000Z</time></trkpt><trkpt lon="6.103837" lat="51.103279"><ele>20</ele><time>2022-05-08T07:41:06.000Z</time></trkpt><trkpt lon="6.103888" lat="51.103255"><ele>20</ele><time>2022-05-08T07:41:07.000Z</time></trkpt><trkpt lon="6.103938" lat="51.10323"><ele>20</ele><time>2022-05-08T07:41:08.000Z</time></trkpt><trkpt lon="6.103977" lat="51.103198"><ele>20</ele><time>2022-05-08T07:41:09.000Z</time></trkpt><trkpt lon="6.103995" lat="51.103159"><ele>20</ele><time>2022-05-08T07:41:10.000Z</time></trkpt><trkpt lon="6.103995" lat="51.103119"><ele>20</ele><time>2022-05-08T07:41:11.000Z</time></trkpt><trkpt lon="6.103984" lat="51.103081"><ele>20</ele><time>2022-05-08T07:41:12.000Z</time></trkpt><trkpt lon="6.103953" lat="51.103046"><ele>20</ele><time>2022-05-08T07:41:13.000Z</time></trkpt><trkpt lon="6.103901" lat="51.103013"><ele>19.8</ele><time>2022-05-08T07:41:14.000Z</time></trkpt><trkpt lon="6.103837" lat="51.102973"><ele>19.8</ele><time>2022-05-08T07:41:15.000Z</time></trkpt><trkpt lon="6.103786" lat="51.102921"><ele>19.6</ele><time>2022-05-08T07:41:16.000Z</time></trkpt><trkpt lon="6.103758" lat="51.102858"><ele>19.6</ele><time>2022-05-08T07:41:17.000Z</time></trkpt><trkpt lon="6.103742" lat="51.102787"><ele>19.6</ele><time>2022-05-08T07:41:18.000Z</time></trkpt><trkpt lon="6.103729" lat="51.102712"><ele>19.6</ele><time>2022-05-08T07:41:19.000Z</time></trkpt><trkpt lon="6.103716" lat="51.102636"><ele>19.6</ele><time>2022-05-08T07:41:20.000Z</time></trkpt><trkpt lon="6.103701" lat="51.102559"><ele>19.6</ele><time>2022-05-08T07:41:21.000Z</time></trkpt><trkpt lon="6.103686" lat="51.102483"><ele>19.6</ele><time>2022-05-08T07:41:22.000Z</time></trkpt><trkpt lon="6.103669" lat="51.102407"><ele>19.6</ele><time>2022-05-08T07:41:23.000Z</time></trkpt><trkpt lon="6.103644" lat="51.102335"><ele>19.6</ele><time>2022-05-08T07:41:24.000Z</time></trkpt><trkpt lon="6.103615" lat="51.102264"><ele>19.8</ele><time>2022-05-08T07:41:25.000Z</time></trkpt><trkpt lon="6.10358" lat="51.102194"><ele>19.8</ele><time>2022-05-08T07:41:26.000Z</time></trkpt><trkpt lon="6.10354" lat="51.102128"><ele>19.8</ele><time>2022-05-08T07:41:27.000Z</time></trkpt><trkpt lon="6.103494" lat="51.102063"><ele>19.8</ele><time>2022-05-08T07:41:28.000Z</time></trkpt><trkpt lon="6.103442" lat="51.101998"><ele>19.8</ele><time>2022-05-08T07:41:29.000Z</time></trkpt><trkpt lon="6.103389" lat="51.101933"><ele>19.8</ele><time>2022-05-08T07:41:30.000Z</time></trkpt><trkpt lon="6.103336" lat="51.10187"><ele>19.8</ele><time>2022-05-08T07:41:31.000Z</time></trkpt><trkpt lon="6.103282" lat="51.101808"><ele>19.8</ele><time>2022-05-08T07:41:32.000Z</time></trkpt><trkpt lon="6.103226" lat="51.101745"><ele>19.8</ele><time>2022-05-08T07:41:33.000Z</time></trkpt><trkpt lon="6.10317" lat="51.101683"><ele>19.8</ele><time>2022-05-08T07:41:34.000Z</time></trkpt><trkpt lon="6.103115" lat="51.101622"><ele>19.8</ele><time>2022-05-08T07:41:35.000Z</time></trkpt><trkpt lon="6.103063" lat="51.101563"><ele>19.6</ele><time>2022-05-08T07:41:36.000Z</time></trkpt><trkpt lon="6.103014" lat="51.101501"><ele>19.6</ele><time>2022-05-08T07:41:37.000Z</time></trkpt><trkpt lon="6.102968" lat="51.101439"><ele>19.4</ele><time>2022-05-08T07:41:38.000Z</time></trkpt><trkpt lon="6.102933" lat="51.101378"><ele>19.4</ele><time>2022-05-08T07:41:39.000Z</time></trkpt><trkpt lon="6.102909" lat="51.101311"><ele>19.4</ele><time>2022-05-08T07:41:40.000Z</time></trkpt><trkpt lon="6.102897" lat="51.101241"><ele>19.4</ele><time>2022-05-08T07:41:41.000Z</time></trkpt><trkpt lon="6.102896" lat="51.101167"><ele>19.4</ele><time>2022-05-08T07:41:42.000Z</time></trkpt><trkpt lon="6.102905" lat="51.101094"><ele>19.4</ele><time>2022-05-08T07:41:43.000Z</time></trkpt><trkpt lon="6.10292" lat="51.101019"><ele>19.4</ele><time>2022-05-08T07:41:44.000Z</time></trkpt><trkpt lon="6.10294" lat="51.100944"><ele>19.4</ele><time>2022-05-08T07:41:45.000Z</time></trkpt><trkpt lon="6.102962" lat="51.10087"><ele>19.4</ele><time>2022-05-08T07:41:46.000Z</time></trkpt><trkpt lon="6.102986" lat="51.100796"><ele>19.6</ele><time>2022-05-08T07:41:47.000Z</time></trkpt><trkpt lon="6.103011" lat="51.100724"><ele>19.6</ele><time>2022-05-08T07:41:48.000Z</time></trkpt><trkpt lon="6.103036" lat="51.100651"><ele>19.6</ele><time>2022-05-08T07:41:49.000Z</time></trkpt><trkpt lon="6.103061" lat="51.100578"><ele>19.8</ele><time>2022-05-08T07:41:50.000Z</time></trkpt><trkpt lon="6.103086" lat="51.100506"><ele>19.8</ele><time>2022-05-08T07:41:51.000Z</time></trkpt><trkpt lon="6.10311" lat="51.100435"><ele>19.8</ele><time>2022-05-08T07:41:52.000Z</time></trkpt><trkpt lon="6.103135" lat="51.100364"><ele>19.8</ele><time>2022-05-08T07:41:53.000Z</time></trkpt><trkpt lon="6.103159" lat="51.100292"><ele>19.8</ele><time>2022-05-08T07:41:54.000Z</time></trkpt><trkpt lon="6.103182" lat="51.100224"><ele>19.8</ele><time>2022-05-08T07:41:55.000Z</time></trkpt><trkpt lon="6.103206" lat="51.100157"><ele>19.8</ele><time>2022-05-08T07:41:56.000Z</time></trkpt><trkpt lon="6.10323" lat="51.100086"><ele>19.8</ele><time>2022-05-08T07:41:57.000Z</time></trkpt><trkpt lon="6.103252" lat="51.100014"><ele>19.8</ele><time>2022-05-08T07:41:58.000Z</time></trkpt><trkpt lon="6.103274" lat="51.099943"><ele>19.8</ele><time>2022-05-08T07:41:59.000Z</time></trkpt><trkpt lon="6.103298" lat="51.099874"><ele>19.8</ele><time>2022-05-08T07:42:00.000Z</time></trkpt><trkpt lon="6.103322" lat="51.099806"><ele>20</ele><time>2022-05-08T07:42:01.000Z</time></trkpt><trkpt lon="6.103345" lat="51.099737"><ele>20</ele><time>2022-05-08T07:42:02.000Z</time></trkpt><trkpt lon="6.103371" lat="51.099668"><ele>20</ele><time>2022-05-08T07:42:03.000Z</time></trkpt><trkpt lon="6.103402" lat="51.0996"><ele>20</ele><time>2022-05-08T07:42:04.000Z</time></trkpt><trkpt lon="6.103443" lat="51.099536"><ele>20</ele><time>2022-05-08T07:42:05.000Z</time></trkpt><trkpt lon="6.103493" lat="51.099473"><ele>20.2</ele><time>2022-05-08T07:42:06.000Z</time></trkpt><trkpt lon="6.10355" lat="51.099413"><ele>20.2</ele><time>2022-05-08T07:42:07.000Z</time></trkpt><trkpt lon="6.103614" lat="51.099355"><ele>20.2</ele><time>2022-05-08T07:42:08.000Z</time></trkpt><trkpt lon="6.103684" lat="51.099297"><ele>20.4</ele><time>2022-05-08T07:42:09.000Z</time></trkpt><trkpt lon="6.103752" lat="51.099238"><ele>20.4</ele><time>2022-05-08T07:42:10.000Z</time></trkpt><trkpt lon="6.10382" lat="51.099179"><ele>20.4</ele><time>2022-05-08T07:42:11.000Z</time></trkpt><trkpt lon="6.103888" lat="51.099122"><ele>20.4</ele><time>2022-05-08T07:42:12.000Z</time></trkpt><trkpt lon="6.103956" lat="51.099065"><ele>20.4</ele><time>2022-05-08T07:42:13.000Z</time></trkpt><trkpt lon="6.104025" lat="51.099008"><ele>20.4</ele><time>2022-05-08T07:42:14.000Z</time></trkpt><trkpt lon="6.104094" lat="51.098951"><ele>20.4</ele><time>2022-05-08T07:42:15.000Z</time></trkpt><trkpt lon="6.104164" lat="51.098893"><ele>20.4</ele><time>2022-05-08T07:42:16.000Z</time></trkpt><trkpt lon="6.104232" lat="51.098836"><ele>20.2</ele><time>2022-05-08T07:42:17.000Z</time></trkpt><trkpt lon="6.104299" lat="51.098779"><ele>20.2</ele><time>2022-05-08T07:42:18.000Z</time></trkpt><trkpt lon="6.104367" lat="51.098724"><ele>20.2</ele><time>2022-05-08T07:42:19.000Z</time></trkpt><trkpt lon="6.104433" lat="51.09867"><ele>20.4</ele><time>2022-05-08T07:42:20.000Z</time></trkpt><trkpt lon="6.104499" lat="51.098617"><ele>20.4</ele><time>2022-05-08T07:42:21.000Z</time></trkpt><trkpt lon="6.104563" lat="51.098564"><ele>20.6</ele><time>2022-05-08T07:42:22.000Z</time></trkpt><trkpt lon="6.104621" lat="51.098508"><ele>20.8</ele><time>2022-05-08T07:42:23.000Z</time></trkpt><trkpt lon="6.104675" lat="51.098451"><ele>21</ele><time>2022-05-08T07:42:24.000Z</time></trkpt><trkpt lon="6.104725" lat="51.098389"><ele>21.2</ele><time>2022-05-08T07:42:25.000Z</time></trkpt><trkpt lon="6.104769" lat="51.098329"><ele>21.4</ele><time>2022-05-08T07:42:26.000Z</time></trkpt><trkpt lon="6.104807" lat="51.098267"><ele>21.6</ele><time>2022-05-08T07:42:27.000Z</time></trkpt><trkpt lon="6.104838" lat="51.098206"><ele>21.8</ele><time>2022-05-08T07:42:28.000Z</time></trkpt><trkpt lon="6.104863" lat="51.098147"><ele>22</ele><time>2022-05-08T07:42:29.000Z</time></trkpt><trkpt lon="6.104885" lat="51.098086"><ele>22.2</ele><time>2022-05-08T07:42:30.000Z</time></trkpt><trkpt lon="6.104903" lat="51.098025"><ele>22.2</ele><time>2022-05-08T07:42:31.000Z</time></trkpt><trkpt lon="6.104919" lat="51.097964"><ele>22.4</ele><time>2022-05-08T07:42:32.000Z</time></trkpt><trkpt lon="6.104934" lat="51.097901"><ele>22.4</ele><time>2022-05-08T07:42:33.000Z</time></trkpt><trkpt lon="6.104947" lat="51.097836"><ele>22.4</ele><time>2022-05-08T07:42:34.000Z</time></trkpt><trkpt lon="6.104957" lat="51.097769"><ele>22.4</ele><time>2022-05-08T07:42:35.000Z</time></trkpt><trkpt lon="6.104964" lat="51.097702"><ele>22.4</ele><time>2022-05-08T07:42:36.000Z</time></trkpt><trkpt lon="6.10497" lat="51.09764"><ele>22.4</ele><time>2022-05-08T07:42:37.000Z</time></trkpt><trkpt lon="6.104977" lat="51.097577"><ele>22.4</ele><time>2022-05-08T07:42:38.000Z</time></trkpt><trkpt lon="6.104985" lat="51.097515"><ele>22.4</ele><time>2022-05-08T07:42:39.000Z</time></trkpt><trkpt lon="6.104992" lat="51.097451"><ele>22.2</ele><time>2022-05-08T07:42:40.000Z</time></trkpt><trkpt lon="6.104998" lat="51.097386"><ele>22.2</ele><time>2022-05-08T07:42:41.000Z</time></trkpt><trkpt lon="6.105001" lat="51.097322"><ele>22</ele><time>2022-05-08T07:42:42.000Z</time></trkpt><trkpt lon="6.105003" lat="51.097259"><ele>21.8</ele><time>2022-05-08T07:42:43.000Z</time></trkpt><trkpt lon="6.105003" lat="51.097193"><ele>21.8</ele><time>2022-05-08T07:42:44.000Z</time></trkpt><trkpt lon="6.105006" lat="51.097127"><ele>21.4</ele><time>2022-05-08T07:42:45.000Z</time></trkpt><trkpt lon="6.105009" lat="51.097061"><ele>21.2</ele><time>2022-05-08T07:42:46.000Z</time></trkpt><trkpt lon="6.105011" lat="51.096994"><ele>21</ele><time>2022-05-08T07:42:47.000Z</time></trkpt><trkpt lon="6.105017" lat="51.096928"><ele>20.8</ele><time>2022-05-08T07:42:48.000Z</time></trkpt><trkpt lon="6.105028" lat="51.096865"><ele>20.8</ele><time>2022-05-08T07:42:49.000Z</time></trkpt><trkpt lon="6.105039" lat="51.096802"><ele>20.6</ele><time>2022-05-08T07:42:50.000Z</time></trkpt><trkpt lon="6.105046" lat="51.096738"><ele>20.6</ele><time>2022-05-08T07:42:51.000Z</time></trkpt><trkpt lon="6.105048" lat="51.096673"><ele>20.4</ele><time>2022-05-08T07:42:52.000Z</time></trkpt><trkpt lon="6.105045" lat="51.096612"><ele>20.4</ele><time>2022-05-08T07:42:53.000Z</time></trkpt><trkpt lon="6.105036" lat="51.096554"><ele>20.4</ele><time>2022-05-08T07:42:54.000Z</time></trkpt><trkpt lon="6.105022" lat="51.096504"><ele>20.4</ele><time>2022-05-08T07:42:55.000Z</time></trkpt><trkpt lon="6.105006" lat="51.096458"><ele>20.4</ele><time>2022-05-08T07:42:56.000Z</time></trkpt><trkpt lon="6.10499" lat="51.096415"><ele>20.4</ele><time>2022-05-08T07:42:57.000Z</time></trkpt><trkpt lon="6.10497" lat="51.096378"><ele>20.4</ele><time>2022-05-08T07:42:58.000Z</time></trkpt><trkpt lon="6.104937" lat="51.096348"><ele>20.4</ele><time>2022-05-08T07:42:59.000Z</time></trkpt><trkpt lon="6.104891" lat="51.096323"><ele>20.2</ele><time>2022-05-08T07:43:00.000Z</time></trkpt><trkpt lon="6.10484" lat="51.096298"><ele>20.2</ele><time>2022-05-08T07:43:01.000Z</time></trkpt><trkpt lon="6.104797" lat="51.096262"><ele>20.2</ele><time>2022-05-08T07:43:02.000Z</time></trkpt><trkpt lon="6.104762" lat="51.096216"><ele>20</ele><time>2022-05-08T07:43:03.000Z</time></trkpt><trkpt lon="6.104728" lat="51.096162"><ele>20</ele><time>2022-05-08T07:43:04.000Z</time></trkpt><trkpt lon="6.104691" lat="51.096104"><ele>20</ele><time>2022-05-08T07:43:05.000Z</time></trkpt><trkpt lon="6.104651" lat="51.096045"><ele>20</ele><time>2022-05-08T07:43:06.000Z</time></trkpt><trkpt lon="6.104606" lat="51.095982"><ele>20</ele><time>2022-05-08T07:43:07.000Z</time></trkpt><trkpt lon="6.104561" lat="51.095918"><ele>20</ele><time>2022-05-08T07:43:08.000Z</time></trkpt><trkpt lon="6.104517" lat="51.095853"><ele>20</ele><time>2022-05-08T07:43:09.000Z</time></trkpt><trkpt lon="6.104475" lat="51.095786"><ele>20</ele><time>2022-05-08T07:43:10.000Z</time></trkpt><trkpt lon="6.104433" lat="51.095717"><ele>20</ele><time>2022-05-08T07:43:11.000Z</time></trkpt><trkpt lon="6.104391" lat="51.095648"><ele>19.8</ele><time>2022-05-08T07:43:12.000Z</time></trkpt><trkpt lon="6.104349" lat="51.095579"><ele>19.8</ele><time>2022-05-08T07:43:13.000Z</time></trkpt><trkpt lon="6.104307" lat="51.095511"><ele>19.8</ele><time>2022-05-08T07:43:14.000Z</time></trkpt><trkpt lon="6.104265" lat="51.095444"><ele>19.6</ele><time>2022-05-08T07:43:15.000Z</time></trkpt><trkpt lon="6.104223" lat="51.095379"><ele>19.6</ele><time>2022-05-08T07:43:16.000Z</time></trkpt><trkpt lon="6.104183" lat="51.095314"><ele>19.6</ele><time>2022-05-08T07:43:17.000Z</time></trkpt><trkpt lon="6.104143" lat="51.095252"><ele>19.6</ele><time>2022-05-08T07:43:18.000Z</time></trkpt><trkpt lon="6.104105" lat="51.095191"><ele>19.6</ele><time>2022-05-08T07:43:19.000Z</time></trkpt><trkpt lon="6.104071" lat="51.095128"><ele>19.6</ele><time>2022-05-08T07:43:20.000Z</time></trkpt><trkpt lon="6.10404" lat="51.095065"><ele>19.6</ele><time>2022-05-08T07:43:21.000Z</time></trkpt><trkpt lon="6.10401" lat="51.095005"><ele>19.6</ele><time>2022-05-08T07:43:22.000Z</time></trkpt><trkpt lon="6.10398" lat="51.094947"><ele>19.6</ele><time>2022-05-08T07:43:23.000Z</time></trkpt><trkpt lon="6.103954" lat="51.094891"><ele>19.6</ele><time>2022-05-08T07:43:24.000Z</time></trkpt><trkpt lon="6.10393" lat="51.094835"><ele>19.6</ele><time>2022-05-08T07:43:25.000Z</time></trkpt><trkpt lon="6.103908" lat="51.09478"><ele>19.6</ele><time>2022-05-08T07:43:26.000Z</time></trkpt><trkpt lon="6.103887" lat="51.094728"><ele>19.6</ele><time>2022-05-08T07:43:27.000Z</time></trkpt><trkpt lon="6.10387" lat="51.094676"><ele>19.8</ele><time>2022-05-08T07:43:28.000Z</time></trkpt><trkpt lon="6.10386" lat="51.094623"><ele>19.8</ele><time>2022-05-08T07:43:29.000Z</time></trkpt><trkpt lon="6.103855" lat="51.094567"><ele>19.8</ele><time>2022-05-08T07:43:30.000Z</time></trkpt><trkpt lon="6.103845" lat="51.094503"><ele>19.8</ele><time>2022-05-08T07:43:31.000Z</time></trkpt><trkpt lon="6.103826" lat="51.094437"><ele>19.8</ele><time>2022-05-08T07:43:32.000Z</time></trkpt><trkpt lon="6.103799" lat="51.09437"><ele>19.8</ele><time>2022-05-08T07:43:33.000Z</time></trkpt><trkpt lon="6.103769" lat="51.0943"><ele>19.8</ele><time>2022-05-08T07:43:34.000Z</time></trkpt><trkpt lon="6.10374" lat="51.094229"><ele>19.8</ele><time>2022-05-08T07:43:35.000Z</time></trkpt><trkpt lon="6.103713" lat="51.094158"><ele>20</ele><time>2022-05-08T07:43:36.000Z</time></trkpt><trkpt lon="6.103686" lat="51.094088"><ele>20</ele><time>2022-05-08T07:43:37.000Z</time></trkpt><trkpt lon="6.103661" lat="51.094017"><ele>20</ele><time>2022-05-08T07:43:38.000Z</time></trkpt><trkpt lon="6.103636" lat="51.093949"><ele>20</ele><time>2022-05-08T07:43:39.000Z</time></trkpt><trkpt lon="6.103605" lat="51.093884"><ele>20</ele><time>2022-05-08T07:43:40.000Z</time></trkpt><trkpt lon="6.103565" lat="51.093824"><ele>20</ele><time>2022-05-08T07:43:41.000Z</time></trkpt><trkpt lon="6.103501" lat="51.093773"><ele>20</ele><time>2022-05-08T07:43:42.000Z</time></trkpt><trkpt lon="6.103405" lat="51.093736"><ele>20</ele><time>2022-05-08T07:43:43.000Z</time></trkpt><trkpt lon="6.103289" lat="51.093708"><ele>20</ele><time>2022-05-08T07:43:44.000Z</time></trkpt><trkpt lon="6.103171" lat="51.093683"><ele>20</ele><time>2022-05-08T07:43:45.000Z</time></trkpt><trkpt lon="6.103054" lat="51.09366"><ele>20</ele><time>2022-05-08T07:43:46.000Z</time></trkpt><trkpt lon="6.102939" lat="51.093635"><ele>20</ele><time>2022-05-08T07:43:47.000Z</time></trkpt><trkpt lon="6.102828" lat="51.093611"><ele>20.2</ele><time>2022-05-08T07:43:48.000Z</time></trkpt><trkpt lon="6.102715" lat="51.093588"><ele>20</ele><time>2022-05-08T07:43:49.000Z</time></trkpt><trkpt lon="6.102602" lat="51.093565"><ele>20</ele><time>2022-05-08T07:43:50.000Z</time></trkpt><trkpt lon="6.102492" lat="51.09354"><ele>20</ele><time>2022-05-08T07:43:51.000Z</time></trkpt><trkpt lon="6.102385" lat="51.093515"><ele>19.8</ele><time>2022-05-08T07:43:52.000Z</time></trkpt><trkpt lon="6.102282" lat="51.093493"><ele>19.8</ele><time>2022-05-08T07:43:53.000Z</time></trkpt><trkpt lon="6.102182" lat="51.09347"><ele>19.8</ele><time>2022-05-08T07:43:54.000Z</time></trkpt><trkpt lon="6.102087" lat="51.093447"><ele>19.8</ele><time>2022-05-08T07:43:55.000Z</time></trkpt><trkpt lon="6.101999" lat="51.093431"><ele>19.8</ele><time>2022-05-08T07:43:56.000Z</time></trkpt><trkpt lon="6.101915" lat="51.093428"><ele>19.6</ele><time>2022-05-08T07:43:57.000Z</time></trkpt><trkpt lon="6.101839" lat="51.093443"><ele>19.6</ele><time>2022-05-08T07:43:58.000Z</time></trkpt><trkpt lon="6.101778" lat="51.093473"><ele>19.6</ele><time>2022-05-08T07:43:59.000Z</time></trkpt><trkpt lon="6.101735" lat="51.093509"><ele>19.8</ele><time>2022-05-08T07:44:00.000Z</time></trkpt><trkpt lon="6.101702" lat="51.09356"><ele>19.8</ele><time>2022-05-08T07:44:01.000Z</time></trkpt><trkpt lon="6.101665" lat="51.093619"><ele>19.8</ele><time>2022-05-08T07:44:02.000Z</time></trkpt><trkpt lon="6.101615" lat="51.093674"><ele>19.6</ele><time>2022-05-08T07:44:03.000Z</time></trkpt><trkpt lon="6.101544" lat="51.093725"><ele>19.6</ele><time>2022-05-08T07:44:04.000Z</time></trkpt><trkpt lon="6.101458" lat="51.093768"><ele>19.4</ele><time>2022-05-08T07:44:05.000Z</time></trkpt><trkpt lon="6.101361" lat="51.093802"><ele>19.2</ele><time>2022-05-08T07:44:06.000Z</time></trkpt><trkpt lon="6.10126" lat="51.09383"><ele>19</ele><time>2022-05-08T07:44:07.000Z</time></trkpt><trkpt lon="6.101159" lat="51.093857"><ele>18.8</ele><time>2022-05-08T07:44:08.000Z</time></trkpt><trkpt lon="6.101056" lat="51.093877"><ele>19</ele><time>2022-05-08T07:44:09.000Z</time></trkpt><trkpt lon="6.100947" lat="51.09389"><ele>19</ele><time>2022-05-08T07:44:10.000Z</time></trkpt><trkpt lon="6.100833" lat="51.093899"><ele>19</ele><time>2022-05-08T07:44:11.000Z</time></trkpt><trkpt lon="6.10072" lat="51.093903"><ele>19.2</ele><time>2022-05-08T07:44:12.000Z</time></trkpt><trkpt lon="6.100606" lat="51.093898"><ele>19.4</ele><time>2022-05-08T07:44:13.000Z</time></trkpt><trkpt lon="6.100494" lat="51.093886"><ele>19.4</ele><time>2022-05-08T07:44:14.000Z</time></trkpt><trkpt lon="6.100387" lat="51.093866"><ele>19.4</ele><time>2022-05-08T07:44:15.000Z</time></trkpt><trkpt lon="6.100281" lat="51.093844"><ele>19.4</ele><time>2022-05-08T07:44:16.000Z</time></trkpt><trkpt lon="6.100173" lat="51.093823"><ele>19.4</ele><time>2022-05-08T07:44:17.000Z</time></trkpt><trkpt lon="6.100063" lat="51.093804"><ele>19.6</ele><time>2022-05-08T07:44:18.000Z</time></trkpt><trkpt lon="6.099955" lat="51.093785"><ele>19.6</ele><time>2022-05-08T07:44:19.000Z</time></trkpt><trkpt lon="6.099848" lat="51.09377"><ele>19.4</ele><time>2022-05-08T07:44:20.000Z</time></trkpt><trkpt lon="6.099737" lat="51.093757"><ele>19.4</ele><time>2022-05-08T07:44:21.000Z</time></trkpt><trkpt lon="6.099627" lat="51.093748"><ele>19.2</ele><time>2022-05-08T07:44:22.000Z</time></trkpt><trkpt lon="6.099521" lat="51.093751"><ele>19.2</ele><time>2022-05-08T07:44:23.000Z</time></trkpt><trkpt lon="6.099415" lat="51.093767"><ele>19.2</ele><time>2022-05-08T07:44:24.000Z</time></trkpt><trkpt lon="6.099319" lat="51.093801"><ele>19.2</ele><time>2022-05-08T07:44:25.000Z</time></trkpt><trkpt lon="6.099235" lat="51.09385"><ele>19.4</ele><time>2022-05-08T07:44:26.000Z</time></trkpt><trkpt lon="6.099156" lat="51.093903"><ele>19.4</ele><time>2022-05-08T07:44:27.000Z</time></trkpt><trkpt lon="6.099079" lat="51.093957"><ele>19.4</ele><time>2022-05-08T07:44:28.000Z</time></trkpt><trkpt lon="6.099005" lat="51.094014"><ele>19.6</ele><time>2022-05-08T07:44:29.000Z</time></trkpt><trkpt lon="6.098935" lat="51.094071"><ele>19.4</ele><time>2022-05-08T07:44:30.000Z</time></trkpt><trkpt lon="6.098871" lat="51.094127"><ele>19.6</ele><time>2022-05-08T07:44:31.000Z</time></trkpt><trkpt lon="6.098811" lat="51.094186"><ele>19.6</ele><time>2022-05-08T07:44:32.000Z</time></trkpt><trkpt lon="6.098753" lat="51.094246"><ele>19.6</ele><time>2022-05-08T07:44:33.000Z</time></trkpt><trkpt lon="6.098696" lat="51.094308"><ele>19.8</ele><time>2022-05-08T07:44:34.000Z</time></trkpt><trkpt lon="6.098643" lat="51.094369"><ele>19.8</ele><time>2022-05-08T07:44:35.000Z</time></trkpt><trkpt lon="6.098597" lat="51.094432"><ele>19.8</ele><time>2022-05-08T07:44:36.000Z</time></trkpt><trkpt lon="6.098559" lat="51.094497"><ele>19.8</ele><time>2022-05-08T07:44:37.000Z</time></trkpt><trkpt lon="6.098529" lat="51.094564"><ele>19.6</ele><time>2022-05-08T07:44:38.000Z</time></trkpt><trkpt lon="6.098506" lat="51.094635"><ele>19.6</ele><time>2022-05-08T07:44:39.000Z</time></trkpt><trkpt lon="6.098484" lat="51.094705"><ele>19.6</ele><time>2022-05-08T07:44:40.000Z</time></trkpt><trkpt lon="6.098463" lat="51.094776"><ele>19.6</ele><time>2022-05-08T07:44:41.000Z</time></trkpt><trkpt lon="6.098441" lat="51.094846"><ele>19.6</ele><time>2022-05-08T07:44:42.000Z</time></trkpt><trkpt lon="6.098416" lat="51.094915"><ele>19.6</ele><time>2022-05-08T07:44:43.000Z</time></trkpt><trkpt lon="6.098385" lat="51.094984"><ele>19.6</ele><time>2022-05-08T07:44:44.000Z</time></trkpt><trkpt lon="6.09834" lat="51.095051"><ele>19.4</ele><time>2022-05-08T07:44:45.000Z</time></trkpt><trkpt lon="6.098278" lat="51.095111"><ele>19.4</ele><time>2022-05-08T07:44:46.000Z</time></trkpt><trkpt lon="6.098202" lat="51.095162"><ele>19.4</ele><time>2022-05-08T07:44:47.000Z</time></trkpt><trkpt lon="6.09811" lat="51.095198"><ele>19.6</ele><time>2022-05-08T07:44:48.000Z</time></trkpt><trkpt lon="6.098005" lat="51.095222"><ele>19.6</ele><time>2022-05-08T07:44:49.000Z</time></trkpt><trkpt lon="6.097896" lat="51.09523"><ele>19.6</ele><time>2022-05-08T07:44:50.000Z</time></trkpt><trkpt lon="6.097789" lat="51.095221"><ele>19.6</ele><time>2022-05-08T07:44:51.000Z</time></trkpt><trkpt lon="6.097685" lat="51.095206"><ele>19.6</ele><time>2022-05-08T07:44:52.000Z</time></trkpt><trkpt lon="6.09758" lat="51.095186"><ele>19.6</ele><time>2022-05-08T07:44:53.000Z</time></trkpt><trkpt lon="6.097475" lat="51.095161"><ele>19.6</ele><time>2022-05-08T07:44:54.000Z</time></trkpt><trkpt lon="6.097371" lat="51.095134"><ele>19.6</ele><time>2022-05-08T07:44:55.000Z</time></trkpt><trkpt lon="6.097267" lat="51.095108"><ele>19.8</ele><time>2022-05-08T07:44:56.000Z</time></trkpt><trkpt lon="6.097162" lat="51.095083"><ele>19.8</ele><time>2022-05-08T07:44:57.000Z</time></trkpt><trkpt lon="6.097054" lat="51.095058"><ele>19.8</ele><time>2022-05-08T07:44:58.000Z</time></trkpt><trkpt lon="6.096945" lat="51.095034"><ele>19.8</ele><time>2022-05-08T07:44:59.000Z</time></trkpt><trkpt lon="6.096836" lat="51.095011"><ele>19.8</ele><time>2022-05-08T07:45:00.000Z</time></trkpt><trkpt lon="6.096726" lat="51.094988"><ele>19.6</ele><time>2022-05-08T07:45:01.000Z</time></trkpt><trkpt lon="6.096618" lat="51.094967"><ele>19.6</ele><time>2022-05-08T07:45:02.000Z</time></trkpt><trkpt lon="6.096514" lat="51.094946"><ele>19.6</ele><time>2022-05-08T07:45:03.000Z</time></trkpt><trkpt lon="6.096412" lat="51.094928"><ele>19.8</ele><time>2022-05-08T07:45:04.000Z</time></trkpt><trkpt lon="6.096309" lat="51.094912"><ele>20</ele><time>2022-05-08T07:45:05.000Z</time></trkpt><trkpt lon="6.096205" lat="51.094901"><ele>20</ele><time>2022-05-08T07:45:06.000Z</time></trkpt><trkpt lon="6.0961" lat="51.094894"><ele>20</ele><time>2022-05-08T07:45:07.000Z</time></trkpt><trkpt lon="6.095992" lat="51.094888"><ele>20.2</ele><time>2022-05-08T07:45:08.000Z</time></trkpt><trkpt lon="6.095881" lat="51.094887"><ele>20.2</ele><time>2022-05-08T07:45:09.000Z</time></trkpt><trkpt lon="6.095768" lat="51.094887"><ele>20.2</ele><time>2022-05-08T07:45:10.000Z</time></trkpt><trkpt lon="6.095653" lat="51.094889"><ele>20.2</ele><time>2022-05-08T07:45:11.000Z</time></trkpt><trkpt lon="6.095536" lat="51.094897"><ele>20.2</ele><time>2022-05-08T07:45:12.000Z</time></trkpt><trkpt lon="6.095416" lat="51.094906"><ele>20.2</ele><time>2022-05-08T07:45:13.000Z</time></trkpt><trkpt lon="6.095296" lat="51.094916"><ele>20.4</ele><time>2022-05-08T07:45:14.000Z</time></trkpt><trkpt lon="6.095176" lat="51.094926"><ele>20.4</ele><time>2022-05-08T07:45:15.000Z</time></trkpt><trkpt lon="6.095057" lat="51.094936"><ele>20.4</ele><time>2022-05-08T07:45:16.000Z</time></trkpt><trkpt lon="6.094939" lat="51.094945"><ele>20.4</ele><time>2022-05-08T07:45:17.000Z</time></trkpt><trkpt lon="6.094823" lat="51.09495"><ele>20.6</ele><time>2022-05-08T07:45:18.000Z</time></trkpt><trkpt lon="6.09471" lat="51.094954"><ele>20.6</ele><time>2022-05-08T07:45:19.000Z</time></trkpt><trkpt lon="6.094595" lat="51.094951"><ele>20.6</ele><time>2022-05-08T07:45:20.000Z</time></trkpt><trkpt lon="6.094481" lat="51.094941"><ele>20.4</ele><time>2022-05-08T07:45:21.000Z</time></trkpt><trkpt lon="6.094368" lat="51.09493"><ele>20.4</ele><time>2022-05-08T07:45:22.000Z</time></trkpt><trkpt lon="6.094253" lat="51.094916"><ele>20.4</ele><time>2022-05-08T07:45:23.000Z</time></trkpt><trkpt lon="6.094137" lat="51.094901"><ele>20.6</ele><time>2022-05-08T07:45:24.000Z</time></trkpt><trkpt lon="6.094023" lat="51.094886"><ele>20.8</ele><time>2022-05-08T07:45:25.000Z</time></trkpt><trkpt lon="6.09391" lat="51.09487"><ele>20.8</ele><time>2022-05-08T07:45:26.000Z</time></trkpt><trkpt lon="6.093796" lat="51.094855"><ele>20.6</ele><time>2022-05-08T07:45:27.000Z</time></trkpt><trkpt lon="6.093683" lat="51.094842"><ele>20.4</ele><time>2022-05-08T07:45:28.000Z</time></trkpt><trkpt lon="6.093569" lat="51.094828"><ele>20.2</ele><time>2022-05-08T07:45:29.000Z</time></trkpt><trkpt lon="6.093456" lat="51.094813"><ele>20</ele><time>2022-05-08T07:45:30.000Z</time></trkpt><trkpt lon="6.09334" lat="51.094798"><ele>20</ele><time>2022-05-08T07:45:31.000Z</time></trkpt><trkpt lon="6.093226" lat="51.09478"><ele>20</ele><time>2022-05-08T07:45:32.000Z</time></trkpt><trkpt lon="6.093113" lat="51.094764"><ele>20</ele><time>2022-05-08T07:45:33.000Z</time></trkpt><trkpt lon="6.093" lat="51.09475"><ele>20</ele><time>2022-05-08T07:45:34.000Z</time></trkpt><trkpt lon="6.092885" lat="51.094739"><ele>20</ele><time>2022-05-08T07:45:35.000Z</time></trkpt><trkpt lon="6.092772" lat="51.09473"><ele>20</ele><time>2022-05-08T07:45:36.000Z</time></trkpt><trkpt lon="6.092658" lat="51.09472"><ele>19.8</ele><time>2022-05-08T07:45:37.000Z</time></trkpt><trkpt lon="6.092545" lat="51.094706"><ele>19.6</ele><time>2022-05-08T07:45:38.000Z</time></trkpt><trkpt lon="6.092431" lat="51.094696"><ele>19.6</ele><time>2022-05-08T07:45:39.000Z</time></trkpt><trkpt lon="6.092315" lat="51.094686"><ele>19.4</ele><time>2022-05-08T07:45:40.000Z</time></trkpt><trkpt lon="6.092198" lat="51.094676"><ele>19.4</ele><time>2022-05-08T07:45:41.000Z</time></trkpt><trkpt lon="6.092079" lat="51.094667"><ele>19.2</ele><time>2022-05-08T07:45:42.000Z</time></trkpt><trkpt lon="6.091955" lat="51.094655"><ele>19.2</ele><time>2022-05-08T07:45:43.000Z</time></trkpt><trkpt lon="6.091834" lat="51.094642"><ele>19.2</ele><time>2022-05-08T07:45:44.000Z</time></trkpt><trkpt lon="6.091711" lat="51.094629"><ele>19.2</ele><time>2022-05-08T07:45:45.000Z</time></trkpt><trkpt lon="6.091586" lat="51.094617"><ele>19.2</ele><time>2022-05-08T07:45:46.000Z</time></trkpt><trkpt lon="6.091465" lat="51.094604"><ele>19.2</ele><time>2022-05-08T07:45:47.000Z</time></trkpt><trkpt lon="6.091344" lat="51.094588"><ele>19.2</ele><time>2022-05-08T07:45:48.000Z</time></trkpt><trkpt lon="6.091223" lat="51.094575"><ele>19.2</ele><time>2022-05-08T07:45:49.000Z</time></trkpt><trkpt lon="6.091103" lat="51.094561"><ele>19</ele><time>2022-05-08T07:45:50.000Z</time></trkpt><trkpt lon="6.090982" lat="51.094546"><ele>19</ele><time>2022-05-08T07:45:51.000Z</time></trkpt><trkpt lon="6.090865" lat="51.094531"><ele>19</ele><time>2022-05-08T07:45:52.000Z</time></trkpt><trkpt lon="6.09075" lat="51.094515"><ele>19</ele><time>2022-05-08T07:45:53.000Z</time></trkpt><trkpt lon="6.090639" lat="51.0945"><ele>19</ele><time>2022-05-08T07:45:54.000Z</time></trkpt><trkpt lon="6.090529" lat="51.094487"><ele>19.2</ele><time>2022-05-08T07:45:55.000Z</time></trkpt><trkpt lon="6.090422" lat="51.094476"><ele>19.4</ele><time>2022-05-08T07:45:56.000Z</time></trkpt><trkpt lon="6.090319" lat="51.094467"><ele>19.4</ele><time>2022-05-08T07:45:57.000Z</time></trkpt><trkpt lon="6.090218" lat="51.094459"><ele>19.6</ele><time>2022-05-08T07:45:58.000Z</time></trkpt><trkpt lon="6.090118" lat="51.094458"><ele>19.6</ele><time>2022-05-08T07:45:59.000Z</time></trkpt><trkpt lon="6.090016" lat="51.094468"><ele>19.6</ele><time>2022-05-08T07:46:00.000Z</time></trkpt><trkpt lon="6.089921" lat="51.094492"><ele>19.6</ele><time>2022-05-08T07:46:01.000Z</time></trkpt><trkpt lon="6.089847" lat="51.094536"><ele>19.6</ele><time>2022-05-08T07:46:02.000Z</time></trkpt><trkpt lon="6.089803" lat="51.094599"><ele>19.6</ele><time>2022-05-08T07:46:03.000Z</time></trkpt><trkpt lon="6.089783" lat="51.094669"><ele>19.4</ele><time>2022-05-08T07:46:04.000Z</time></trkpt><trkpt lon="6.08977" lat="51.094739"><ele>19.2</ele><time>2022-05-08T07:46:05.000Z</time></trkpt><trkpt lon="6.089758" lat="51.09481"><ele>19.2</ele><time>2022-05-08T07:46:06.000Z</time></trkpt><trkpt lon="6.089745" lat="51.094881"><ele>19.2</ele><time>2022-05-08T07:46:07.000Z</time></trkpt><trkpt lon="6.08973" lat="51.094949"><ele>19.2</ele><time>2022-05-08T07:46:08.000Z</time></trkpt><trkpt lon="6.089713" lat="51.09502"><ele>19.2</ele><time>2022-05-08T07:46:09.000Z</time></trkpt><trkpt lon="6.089692" lat="51.095093"><ele>19</ele><time>2022-05-08T07:46:10.000Z</time></trkpt><trkpt lon="6.089667" lat="51.095162"><ele>19</ele><time>2022-05-08T07:46:11.000Z</time></trkpt><trkpt lon="6.089637" lat="51.095231"><ele>19</ele><time>2022-05-08T07:46:12.000Z</time></trkpt><trkpt lon="6.089603" lat="51.095301"><ele>18.8</ele><time>2022-05-08T07:46:13.000Z</time></trkpt><trkpt lon="6.089568" lat="51.095371"><ele>18.8</ele><time>2022-05-08T07:46:14.000Z</time></trkpt><trkpt lon="6.08953" lat="51.095439"><ele>18.8</ele><time>2022-05-08T07:46:15.000Z</time></trkpt><trkpt lon="6.089489" lat="51.095507"><ele>18.6</ele><time>2022-05-08T07:46:16.000Z</time></trkpt><trkpt lon="6.089447" lat="51.095573"><ele>18.6</ele><time>2022-05-08T07:46:17.000Z</time></trkpt><trkpt lon="6.089402" lat="51.09564"><ele>18.6</ele><time>2022-05-08T07:46:18.000Z</time></trkpt><trkpt lon="6.089356" lat="51.095709"><ele>18.6</ele><time>2022-05-08T07:46:19.000Z</time></trkpt><trkpt lon="6.08931" lat="51.095778"><ele>18.6</ele><time>2022-05-08T07:46:20.000Z</time></trkpt><trkpt lon="6.089262" lat="51.095844"><ele>18.4</ele><time>2022-05-08T07:46:21.000Z</time></trkpt><trkpt lon="6.089213" lat="51.095909"><ele>18.4</ele><time>2022-05-08T07:46:22.000Z</time></trkpt><trkpt lon="6.089164" lat="51.095974"><ele>18.4</ele><time>2022-05-08T07:46:23.000Z</time></trkpt><trkpt lon="6.089112" lat="51.096036"><ele>18.4</ele><time>2022-05-08T07:46:24.000Z</time></trkpt><trkpt lon="6.089061" lat="51.096099"><ele>18.4</ele><time>2022-05-08T07:46:25.000Z</time></trkpt><trkpt lon="6.08901" lat="51.096164"><ele>18.4</ele><time>2022-05-08T07:46:26.000Z</time></trkpt><trkpt lon="6.088958" lat="51.096229"><ele>18.4</ele><time>2022-05-08T07:46:27.000Z</time></trkpt><trkpt lon="6.088906" lat="51.096292"><ele>18.4</ele><time>2022-05-08T07:46:28.000Z</time></trkpt><trkpt lon="6.088855" lat="51.096355"><ele>18.4</ele><time>2022-05-08T07:46:29.000Z</time></trkpt><trkpt lon="6.088804" lat="51.09642"><ele>18.4</ele><time>2022-05-08T07:46:30.000Z</time></trkpt><trkpt lon="6.08875" lat="51.096484"><ele>18.6</ele><time>2022-05-08T07:46:31.000Z</time></trkpt><trkpt lon="6.088694" lat="51.096547"><ele>18.6</ele><time>2022-05-08T07:46:32.000Z</time></trkpt><trkpt lon="6.088641" lat="51.096609"><ele>18.8</ele><time>2022-05-08T07:46:33.000Z</time></trkpt><trkpt lon="6.088585" lat="51.096672"><ele>18.8</ele><time>2022-05-08T07:46:34.000Z</time></trkpt><trkpt lon="6.088528" lat="51.096737"><ele>18.8</ele><time>2022-05-08T07:46:35.000Z</time></trkpt><trkpt lon="6.088472" lat="51.096801"><ele>19</ele><time>2022-05-08T07:46:36.000Z</time></trkpt><trkpt lon="6.088414" lat="51.096866"><ele>19</ele><time>2022-05-08T07:46:37.000Z</time></trkpt><trkpt lon="6.088354" lat="51.096931"><ele>19</ele><time>2022-05-08T07:46:38.000Z</time></trkpt><trkpt lon="6.088296" lat="51.096996"><ele>19</ele><time>2022-05-08T07:46:39.000Z</time></trkpt><trkpt lon="6.088238" lat="51.09706"><ele>19.2</ele><time>2022-05-08T07:46:40.000Z</time></trkpt><trkpt lon="6.088184" lat="51.097127"><ele>19.4</ele><time>2022-05-08T07:46:41.000Z</time></trkpt><trkpt lon="6.088134" lat="51.097192"><ele>19.4</ele><time>2022-05-08T07:46:42.000Z</time></trkpt><trkpt lon="6.088085" lat="51.09726"><ele>19.4</ele><time>2022-05-08T07:46:43.000Z</time></trkpt><trkpt lon="6.088037" lat="51.09733"><ele>19.6</ele><time>2022-05-08T07:46:44.000Z</time></trkpt><trkpt lon="6.087987" lat="51.097396"><ele>19.6</ele><time>2022-05-08T07:46:45.000Z</time></trkpt><trkpt lon="6.087935" lat="51.097461"><ele>19.6</ele><time>2022-05-08T07:46:46.000Z</time></trkpt><trkpt lon="6.087883" lat="51.097526"><ele>19.6</ele><time>2022-05-08T07:46:47.000Z</time></trkpt><trkpt lon="6.08783" lat="51.097588"><ele>19.6</ele><time>2022-05-08T07:46:48.000Z</time></trkpt><trkpt lon="6.087776" lat="51.097652"><ele>19.6</ele><time>2022-05-08T07:46:49.000Z</time></trkpt><trkpt lon="6.087722" lat="51.097715"><ele>19.4</ele><time>2022-05-08T07:46:50.000Z</time></trkpt><trkpt lon="6.087666" lat="51.097776"><ele>19.4</ele><time>2022-05-08T07:46:51.000Z</time></trkpt><trkpt lon="6.087605" lat="51.097835"><ele>19.4</ele><time>2022-05-08T07:46:52.000Z</time></trkpt><trkpt lon="6.087541" lat="51.097894"><ele>19.4</ele><time>2022-05-08T07:46:53.000Z</time></trkpt><trkpt lon="6.087481" lat="51.097953"><ele>19.4</ele><time>2022-05-08T07:46:54.000Z</time></trkpt><trkpt lon="6.087427" lat="51.098015"><ele>19.4</ele><time>2022-05-08T07:46:55.000Z</time></trkpt><trkpt lon="6.087377" lat="51.098074"><ele>19.6</ele><time>2022-05-08T07:46:56.000Z</time></trkpt><trkpt lon="6.087322" lat="51.098134"><ele>19.4</ele><time>2022-05-08T07:46:57.000Z</time></trkpt><trkpt lon="6.08726" lat="51.098193"><ele>19.6</ele><time>2022-05-08T07:46:58.000Z</time></trkpt><trkpt lon="6.087193" lat="51.09825"><ele>19.6</ele><time>2022-05-08T07:46:59.000Z</time></trkpt><trkpt lon="6.087126" lat="51.098307"><ele>19.6</ele><time>2022-05-08T07:47:00.000Z</time></trkpt><trkpt lon="6.087062" lat="51.098367"><ele>19.6</ele><time>2022-05-08T07:47:01.000Z</time></trkpt><trkpt lon="6.087004" lat="51.098432"><ele>19.8</ele><time>2022-05-08T07:47:02.000Z</time></trkpt><trkpt lon="6.086949" lat="51.0985"><ele>19.6</ele><time>2022-05-08T07:47:03.000Z</time></trkpt><trkpt lon="6.086895" lat="51.098567"><ele>19.4</ele><time>2022-05-08T07:47:04.000Z</time></trkpt><trkpt lon="6.086836" lat="51.098632"><ele>19</ele><time>2022-05-08T07:47:05.000Z</time></trkpt><trkpt lon="6.086773" lat="51.098697"><ele>18.8</ele><time>2022-05-08T07:47:06.000Z</time></trkpt><trkpt lon="6.086708" lat="51.098758"><ele>18.8</ele><time>2022-05-08T07:47:07.000Z</time></trkpt><trkpt lon="6.086639" lat="51.098817"><ele>18.6</ele><time>2022-05-08T07:47:08.000Z</time></trkpt><trkpt lon="6.086571" lat="51.098876"><ele>18.6</ele><time>2022-05-08T07:47:09.000Z</time></trkpt><trkpt lon="6.086503" lat="51.098936"><ele>18.4</ele><time>2022-05-08T07:47:10.000Z</time></trkpt><trkpt lon="6.086436" lat="51.098992"><ele>18.2</ele><time>2022-05-08T07:47:11.000Z</time></trkpt><trkpt lon="6.086368" lat="51.099051"><ele>18</ele><time>2022-05-08T07:47:12.000Z</time></trkpt><trkpt lon="6.086299" lat="51.099111"><ele>18</ele><time>2022-05-08T07:47:13.000Z</time></trkpt><trkpt lon="6.086231" lat="51.09917"><ele>18</ele><time>2022-05-08T07:47:14.000Z</time></trkpt><trkpt lon="6.086163" lat="51.099227"><ele>18</ele><time>2022-05-08T07:47:15.000Z</time></trkpt><trkpt lon="6.086092" lat="51.099284"><ele>18</ele><time>2022-05-08T07:47:16.000Z</time></trkpt><trkpt lon="6.086016" lat="51.099339"><ele>18.2</ele><time>2022-05-08T07:47:17.000Z</time></trkpt><trkpt lon="6.085934" lat="51.099393"><ele>18.2</ele><time>2022-05-08T07:47:18.000Z</time></trkpt><trkpt lon="6.085847" lat="51.099444"><ele>18.2</ele><time>2022-05-08T07:47:19.000Z</time></trkpt><trkpt lon="6.085754" lat="51.099491"><ele>18.4</ele><time>2022-05-08T07:47:20.000Z</time></trkpt><trkpt lon="6.08566" lat="51.099538"><ele>18.8</ele><time>2022-05-08T07:47:21.000Z</time></trkpt><trkpt lon="6.085564" lat="51.099585"><ele>18.8</ele><time>2022-05-08T07:47:22.000Z</time></trkpt><trkpt lon="6.085466" lat="51.099634"><ele>18.8</ele><time>2022-05-08T07:47:23.000Z</time></trkpt><trkpt lon="6.085368" lat="51.099682"><ele>18.8</ele><time>2022-05-08T07:47:24.000Z</time></trkpt><trkpt lon="6.085274" lat="51.099728"><ele>18.8</ele><time>2022-05-08T07:47:25.000Z</time></trkpt><trkpt lon="6.08518" lat="51.099773"><ele>19</ele><time>2022-05-08T07:47:26.000Z</time></trkpt><trkpt lon="6.085086" lat="51.099819"><ele>19.2</ele><time>2022-05-08T07:47:27.000Z</time></trkpt><trkpt lon="6.084994" lat="51.099863"><ele>19.4</ele><time>2022-05-08T07:47:28.000Z</time></trkpt><trkpt lon="6.084902" lat="51.099904"><ele>19.4</ele><time>2022-05-08T07:47:29.000Z</time></trkpt><trkpt lon="6.08481" lat="51.099949"><ele>19.6</ele><time>2022-05-08T07:47:30.000Z</time></trkpt><trkpt lon="6.084719" lat="51.099992"><ele>19.6</ele><time>2022-05-08T07:47:31.000Z</time></trkpt><trkpt lon="6.084631" lat="51.100034"><ele>19.6</ele><time>2022-05-08T07:47:32.000Z</time></trkpt><trkpt lon="6.084542" lat="51.100074"><ele>19.4</ele><time>2022-05-08T07:47:33.000Z</time></trkpt><trkpt lon="6.084452" lat="51.100112"><ele>19.4</ele><time>2022-05-08T07:47:34.000Z</time></trkpt><trkpt lon="6.084359" lat="51.10015"><ele>19.4</ele><time>2022-05-08T07:47:35.000Z</time></trkpt><trkpt lon="6.084266" lat="51.100184"><ele>19.4</ele><time>2022-05-08T07:47:36.000Z</time></trkpt><trkpt lon="6.084179" lat="51.100212"><ele>19.6</ele><time>2022-05-08T07:47:37.000Z</time></trkpt><trkpt lon="6.084109" lat="51.100235"><ele>19.6</ele><time>2022-05-08T07:47:38.000Z</time></trkpt><trkpt lon="6.084061" lat="51.100251"><ele>19.8</ele><time>2022-05-08T07:47:39.000Z</time></trkpt><trkpt lon="6.084035" lat="51.100264"><ele>19.8</ele><time>2022-05-08T07:47:40.000Z</time></trkpt><trkpt lon="6.08402" lat="51.100275"><ele>20</ele><time>2022-05-08T07:47:41.000Z</time></trkpt><trkpt lon="6.084008" lat="51.100285"><ele>20</ele><time>2022-05-08T07:47:42.000Z</time></trkpt><trkpt lon="6.083995" lat="51.100288"><ele>20</ele><time>2022-05-08T07:47:43.000Z</time></trkpt><trkpt lon="6.083978" lat="51.100291"><ele>20.2</ele><time>2022-05-08T07:47:44.000Z</time></trkpt><trkpt lon="6.083959" lat="51.100294"><ele>20.2</ele><time>2022-05-08T07:47:45.000Z</time></trkpt><trkpt lon="6.083939" lat="51.100298"><ele>20.2</ele><time>2022-05-08T07:47:46.000Z</time></trkpt><trkpt lon="6.083913" lat="51.100306"><ele>20.2</ele><time>2022-05-08T07:47:47.000Z</time></trkpt><trkpt lon="6.083878" lat="51.100316"><ele>20.2</ele><time>2022-05-08T07:47:48.000Z</time></trkpt><trkpt lon="6.083838" lat="51.100326"><ele>20</ele><time>2022-05-08T07:47:49.000Z</time></trkpt><trkpt lon="6.083795" lat="51.100339"><ele>20</ele><time>2022-05-08T07:47:50.000Z</time></trkpt><trkpt lon="6.083746" lat="51.100357"><ele>20</ele><time>2022-05-08T07:47:51.000Z</time></trkpt><trkpt lon="6.083692" lat="51.100373"><ele>20</ele><time>2022-05-08T07:47:52.000Z</time></trkpt><trkpt lon="6.083628" lat="51.100389"><ele>19.8</ele><time>2022-05-08T07:47:53.000Z</time></trkpt><trkpt lon="6.083558" lat="51.100406"><ele>20</ele><time>2022-05-08T07:47:54.000Z</time></trkpt><trkpt lon="6.083488" lat="51.100427"><ele>20</ele><time>2022-05-08T07:47:55.000Z</time></trkpt><trkpt lon="6.083417" lat="51.100453"><ele>20</ele><time>2022-05-08T07:47:56.000Z</time></trkpt><trkpt lon="6.083344" lat="51.100479"><ele>20</ele><time>2022-05-08T07:47:57.000Z</time></trkpt><trkpt lon="6.083267" lat="51.100506"><ele>20</ele><time>2022-05-08T07:47:58.000Z</time></trkpt><trkpt lon="6.083187" lat="51.10053"><ele>20</ele><time>2022-05-08T07:47:59.000Z</time></trkpt><trkpt lon="6.083108" lat="51.100551"><ele>19.8</ele><time>2022-05-08T07:48:00.000Z</time></trkpt><trkpt lon="6.083029" lat="51.100568"><ele>20</ele><time>2022-05-08T07:48:01.000Z</time></trkpt><trkpt lon="6.08295" lat="51.100585"><ele>20</ele><time>2022-05-08T07:48:02.000Z</time></trkpt><trkpt lon="6.082871" lat="51.100607"><ele>20</ele><time>2022-05-08T07:48:03.000Z</time></trkpt><trkpt lon="6.082788" lat="51.10063"><ele>19.8</ele><time>2022-05-08T07:48:04.000Z</time></trkpt><trkpt lon="6.082705" lat="51.10065"><ele>19.8</ele><time>2022-05-08T07:48:05.000Z</time></trkpt><trkpt lon="6.082622" lat="51.100674"><ele>19.8</ele><time>2022-05-08T07:48:06.000Z</time></trkpt><trkpt lon="6.082542" lat="51.100698"><ele>19.8</ele><time>2022-05-08T07:48:07.000Z</time></trkpt><trkpt lon="6.082467" lat="51.100721"><ele>20</ele><time>2022-05-08T07:48:08.000Z</time></trkpt><trkpt lon="6.082394" lat="51.100746"><ele>20</ele><time>2022-05-08T07:48:09.000Z</time></trkpt><trkpt lon="6.082325" lat="51.100773"><ele>20</ele><time>2022-05-08T07:48:10.000Z</time></trkpt><trkpt lon="6.082261" lat="51.100801"><ele>20</ele><time>2022-05-08T07:48:11.000Z</time></trkpt><trkpt lon="6.082198" lat="51.100836"><ele>20</ele><time>2022-05-08T07:48:12.000Z</time></trkpt><trkpt lon="6.082137" lat="51.100875"><ele>20</ele><time>2022-05-08T07:48:13.000Z</time></trkpt><trkpt lon="6.082079" lat="51.100913"><ele>19.8</ele><time>2022-05-08T07:48:14.000Z</time></trkpt><trkpt lon="6.082023" lat="51.100953"><ele>19.8</ele><time>2022-05-08T07:48:15.000Z</time></trkpt><trkpt lon="6.081968" lat="51.101"><ele>19.4</ele><time>2022-05-08T07:48:16.000Z</time></trkpt><trkpt lon="6.081913" lat="51.101047"><ele>19.2</ele><time>2022-05-08T07:48:17.000Z</time></trkpt><trkpt lon="6.081862" lat="51.101095"><ele>19.2</ele><time>2022-05-08T07:48:18.000Z</time></trkpt><trkpt lon="6.081816" lat="51.101147"><ele>19.2</ele><time>2022-05-08T07:48:19.000Z</time></trkpt><trkpt lon="6.081773" lat="51.101203"><ele>19.2</ele><time>2022-05-08T07:48:20.000Z</time></trkpt><trkpt lon="6.081734" lat="51.10126"><ele>19.2</ele><time>2022-05-08T07:48:21.000Z</time></trkpt><trkpt lon="6.0817" lat="51.101317"><ele>19.2</ele><time>2022-05-08T07:48:22.000Z</time></trkpt><trkpt lon="6.081669" lat="51.101374"><ele>19.4</ele><time>2022-05-08T07:48:23.000Z</time></trkpt><trkpt lon="6.081639" lat="51.101431"><ele>19.4</ele><time>2022-05-08T07:48:24.000Z</time></trkpt><trkpt lon="6.081609" lat="51.101489"><ele>19.6</ele><time>2022-05-08T07:48:25.000Z</time></trkpt><trkpt lon="6.08158" lat="51.101546"><ele>19.6</ele><time>2022-05-08T07:48:26.000Z</time></trkpt><trkpt lon="6.081554" lat="51.101605"><ele>19.6</ele><time>2022-05-08T07:48:27.000Z</time></trkpt><trkpt lon="6.081531" lat="51.101664"><ele>19.8</ele><time>2022-05-08T07:48:28.000Z</time></trkpt><trkpt lon="6.081507" lat="51.101721"><ele>19.8</ele><time>2022-05-08T07:48:29.000Z</time></trkpt><trkpt lon="6.081482" lat="51.101781"><ele>19.8</ele><time>2022-05-08T07:48:30.000Z</time></trkpt><trkpt lon="6.081456" lat="51.101841"><ele>19.8</ele><time>2022-05-08T07:48:31.000Z</time></trkpt><trkpt lon="6.081429" lat="51.1019"><ele>19.6</ele><time>2022-05-08T07:48:32.000Z</time></trkpt><trkpt lon="6.081401" lat="51.10196"><ele>19.6</ele><time>2022-05-08T07:48:33.000Z</time></trkpt><trkpt lon="6.081377" lat="51.102022"><ele>19.6</ele><time>2022-05-08T07:48:34.000Z</time></trkpt><trkpt lon="6.081351" lat="51.102085"><ele>19.8</ele><time>2022-05-08T07:48:35.000Z</time></trkpt><trkpt lon="6.081315" lat="51.102145"><ele>19.8</ele><time>2022-05-08T07:48:36.000Z</time></trkpt><trkpt lon="6.081276" lat="51.102205"><ele>19.8</ele><time>2022-05-08T07:48:37.000Z</time></trkpt><trkpt lon="6.081236" lat="51.102265"><ele>19.8</ele><time>2022-05-08T07:48:38.000Z</time></trkpt><trkpt lon="6.081192" lat="51.102326"><ele>19.8</ele><time>2022-05-08T07:48:39.000Z</time></trkpt><trkpt lon="6.08115" lat="51.102387"><ele>19.8</ele><time>2022-05-08T07:48:40.000Z</time></trkpt><trkpt lon="6.081116" lat="51.102441"><ele>19.8</ele><time>2022-05-08T07:48:41.000Z</time></trkpt><trkpt lon="6.081079" lat="51.102494"><ele>19.8</ele><time>2022-05-08T07:48:42.000Z</time></trkpt><trkpt lon="6.081021" lat="51.102569"><ele>19.8</ele><time>2022-05-08T07:48:43.000Z</time></trkpt><trkpt lon="6.080961" lat="51.102634"><ele>19.6</ele><time>2022-05-08T07:48:44.000Z</time></trkpt><trkpt lon="6.080898" lat="51.102689"><ele>19.6</ele><time>2022-05-08T07:48:45.000Z</time></trkpt><trkpt lon="6.080829" lat="51.102737"><ele>19.4</ele><time>2022-05-08T07:48:46.000Z</time></trkpt><trkpt lon="6.080752" lat="51.102785"><ele>19.4</ele><time>2022-05-08T07:48:47.000Z</time></trkpt><trkpt lon="6.080673" lat="51.102833"><ele>19.4</ele><time>2022-05-08T07:48:48.000Z</time></trkpt><trkpt lon="6.080595" lat="51.102878"><ele>19.2</ele><time>2022-05-08T07:48:49.000Z</time></trkpt><trkpt lon="6.080518" lat="51.102925"><ele>19</ele><time>2022-05-08T07:48:50.000Z</time></trkpt><trkpt lon="6.080439" lat="51.102973"><ele>19</ele><time>2022-05-08T07:48:51.000Z</time></trkpt><trkpt lon="6.08036" lat="51.10302"><ele>19</ele><time>2022-05-08T07:48:52.000Z</time></trkpt><trkpt lon="6.080283" lat="51.103066"><ele>19</ele><time>2022-05-08T07:48:53.000Z</time></trkpt><trkpt lon="6.080206" lat="51.103109"><ele>19</ele><time>2022-05-08T07:48:54.000Z</time></trkpt><trkpt lon="6.080133" lat="51.103151"><ele>19</ele><time>2022-05-08T07:48:55.000Z</time></trkpt><trkpt lon="6.080064" lat="51.103193"><ele>19</ele><time>2022-05-08T07:48:56.000Z</time></trkpt><trkpt lon="6.080006" lat="51.103239"><ele>19.2</ele><time>2022-05-08T07:48:57.000Z</time></trkpt><trkpt lon="6.079971" lat="51.103293"><ele>19.2</ele><time>2022-05-08T07:48:58.000Z</time></trkpt><trkpt lon="6.079945" lat="51.103351"><ele>19.4</ele><time>2022-05-08T07:48:59.000Z</time></trkpt><trkpt lon="6.079922" lat="51.103412"><ele>19.4</ele><time>2022-05-08T07:49:00.000Z</time></trkpt><trkpt lon="6.079901" lat="51.103477"><ele>19.2</ele><time>2022-05-08T07:49:01.000Z</time></trkpt><trkpt lon="6.079881" lat="51.103544"><ele>19.2</ele><time>2022-05-08T07:49:02.000Z</time></trkpt><trkpt lon="6.079863" lat="51.103613"><ele>19.2</ele><time>2022-05-08T07:49:03.000Z</time></trkpt><trkpt lon="6.079843" lat="51.103684"><ele>19.2</ele><time>2022-05-08T07:49:04.000Z</time></trkpt><trkpt lon="6.079821" lat="51.103752"><ele>19.4</ele><time>2022-05-08T07:49:05.000Z</time></trkpt><trkpt lon="6.079801" lat="51.103819"><ele>19.4</ele><time>2022-05-08T07:49:06.000Z</time></trkpt><trkpt lon="6.079784" lat="51.10389"><ele>19.2</ele><time>2022-05-08T07:49:07.000Z</time></trkpt><trkpt lon="6.079768" lat="51.10396"><ele>19.2</ele><time>2022-05-08T07:49:08.000Z</time></trkpt><trkpt lon="6.079752" lat="51.104032"><ele>19.2</ele><time>2022-05-08T07:49:09.000Z</time></trkpt><trkpt lon="6.079737" lat="51.104105"><ele>19.4</ele><time>2022-05-08T07:49:10.000Z</time></trkpt><trkpt lon="6.079724" lat="51.104173"><ele>19.2</ele><time>2022-05-08T07:49:11.000Z</time></trkpt><trkpt lon="6.079713" lat="51.104244"><ele>19.2</ele><time>2022-05-08T07:49:12.000Z</time></trkpt><trkpt lon="6.079707" lat="51.104311"><ele>19.2</ele><time>2022-05-08T07:49:13.000Z</time></trkpt><trkpt lon="6.079701" lat="51.104383"><ele>19.2</ele><time>2022-05-08T07:49:14.000Z</time></trkpt><trkpt lon="6.079695" lat="51.104458"><ele>19.2</ele><time>2022-05-08T07:49:15.000Z</time></trkpt><trkpt lon="6.079683" lat="51.10453"><ele>19.4</ele><time>2022-05-08T07:49:16.000Z</time></trkpt><trkpt lon="6.079666" lat="51.104598"><ele>19.4</ele><time>2022-05-08T07:49:17.000Z</time></trkpt><trkpt lon="6.07965" lat="51.104668"><ele>19.4</ele><time>2022-05-08T07:49:18.000Z</time></trkpt><trkpt lon="6.079635" lat="51.104738"><ele>19</ele><time>2022-05-08T07:49:19.000Z</time></trkpt><trkpt lon="6.07962" lat="51.104807"><ele>19</ele><time>2022-05-08T07:49:20.000Z</time></trkpt><trkpt lon="6.079605" lat="51.104875"><ele>19.2</ele><time>2022-05-08T07:49:21.000Z</time></trkpt><trkpt lon="6.07959" lat="51.104946"><ele>19</ele><time>2022-05-08T07:49:22.000Z</time></trkpt><trkpt lon="6.079575" lat="51.105015"><ele>19</ele><time>2022-05-08T07:49:23.000Z</time></trkpt><trkpt lon="6.079562" lat="51.105084"><ele>19</ele><time>2022-05-08T07:49:24.000Z</time></trkpt><trkpt lon="6.079552" lat="51.105154"><ele>18.8</ele><time>2022-05-08T07:49:25.000Z</time></trkpt><trkpt lon="6.079548" lat="51.105225"><ele>18.8</ele><time>2022-05-08T07:49:26.000Z</time></trkpt><trkpt lon="6.079547" lat="51.105297"><ele>18.8</ele><time>2022-05-08T07:49:27.000Z</time></trkpt><trkpt lon="6.079544" lat="51.105367"><ele>18.8</ele><time>2022-05-08T07:49:28.000Z</time></trkpt><trkpt lon="6.079539" lat="51.105438"><ele>18.8</ele><time>2022-05-08T07:49:29.000Z</time></trkpt><trkpt lon="6.079535" lat="51.105509"><ele>18.8</ele><time>2022-05-08T07:49:30.000Z</time></trkpt><trkpt lon="6.079533" lat="51.10558"><ele>18.6</ele><time>2022-05-08T07:49:31.000Z</time></trkpt><trkpt lon="6.079532" lat="51.10565"><ele>18.6</ele><time>2022-05-08T07:49:32.000Z</time></trkpt><trkpt lon="6.07953" lat="51.105721"><ele>18.6</ele><time>2022-05-08T07:49:33.000Z</time></trkpt><trkpt lon="6.079528" lat="51.105793"><ele>18.6</ele><time>2022-05-08T07:49:34.000Z</time></trkpt><trkpt lon="6.079527" lat="51.105866"><ele>18.6</ele><time>2022-05-08T07:49:35.000Z</time></trkpt><trkpt lon="6.079527" lat="51.105938"><ele>18.4</ele><time>2022-05-08T07:49:36.000Z</time></trkpt><trkpt lon="6.079525" lat="51.106009"><ele>18.4</ele><time>2022-05-08T07:49:37.000Z</time></trkpt><trkpt lon="6.079522" lat="51.106077"><ele>18.6</ele><time>2022-05-08T07:49:38.000Z</time></trkpt><trkpt lon="6.079517" lat="51.106146"><ele>18.6</ele><time>2022-05-08T07:49:39.000Z</time></trkpt><trkpt lon="6.079514" lat="51.106215"><ele>18.4</ele><time>2022-05-08T07:49:40.000Z</time></trkpt><trkpt lon="6.079512" lat="51.106285"><ele>18.4</ele><time>2022-05-08T07:49:41.000Z</time></trkpt><trkpt lon="6.079508" lat="51.106357"><ele>18.4</ele><time>2022-05-08T07:49:42.000Z</time></trkpt><trkpt lon="6.079505" lat="51.106426"><ele>18.4</ele><time>2022-05-08T07:49:43.000Z</time></trkpt><trkpt lon="6.079501" lat="51.106495"><ele>18.6</ele><time>2022-05-08T07:49:44.000Z</time></trkpt><trkpt lon="6.079496" lat="51.106566"><ele>18.8</ele><time>2022-05-08T07:49:45.000Z</time></trkpt><trkpt lon="6.079491" lat="51.106632"><ele>19</ele><time>2022-05-08T07:49:46.000Z</time></trkpt><trkpt lon="6.07948" lat="51.106699"><ele>19.2</ele><time>2022-05-08T07:49:47.000Z</time></trkpt><trkpt lon="6.079459" lat="51.106765"><ele>19</ele><time>2022-05-08T07:49:48.000Z</time></trkpt><trkpt lon="6.079431" lat="51.106832"><ele>18.8</ele><time>2022-05-08T07:49:49.000Z</time></trkpt><trkpt lon="6.079397" lat="51.106901"><ele>19</ele><time>2022-05-08T07:49:50.000Z</time></trkpt><trkpt lon="6.079357" lat="51.106968"><ele>19</ele><time>2022-05-08T07:49:51.000Z</time></trkpt><trkpt lon="6.079316" lat="51.107033"><ele>19</ele><time>2022-05-08T07:49:52.000Z</time></trkpt><trkpt lon="6.079276" lat="51.107097"><ele>19</ele><time>2022-05-08T07:49:53.000Z</time></trkpt><trkpt lon="6.079239" lat="51.107163"><ele>18.8</ele><time>2022-05-08T07:49:54.000Z</time></trkpt><trkpt lon="6.079204" lat="51.107233"><ele>18.8</ele><time>2022-05-08T07:49:55.000Z</time></trkpt><trkpt lon="6.079174" lat="51.107304"><ele>19</ele><time>2022-05-08T07:49:56.000Z</time></trkpt><trkpt lon="6.079147" lat="51.107376"><ele>18.8</ele><time>2022-05-08T07:49:57.000Z</time></trkpt><trkpt lon="6.079123" lat="51.107449"><ele>18.8</ele><time>2022-05-08T07:49:58.000Z</time></trkpt><trkpt lon="6.079104" lat="51.107521"><ele>18.8</ele><time>2022-05-08T07:49:59.000Z</time></trkpt><trkpt lon="6.079087" lat="51.107593"><ele>18.8</ele><time>2022-05-08T07:50:00.000Z</time></trkpt><trkpt lon="6.079071" lat="51.107666"><ele>18.8</ele><time>2022-05-08T07:50:01.000Z</time></trkpt><trkpt lon="6.079056" lat="51.10774"><ele>18.8</ele><time>2022-05-08T07:50:02.000Z</time></trkpt><trkpt lon="6.07904" lat="51.107812"><ele>18.8</ele><time>2022-05-08T07:50:03.000Z</time></trkpt><trkpt lon="6.079025" lat="51.107883"><ele>18.6</ele><time>2022-05-08T07:50:04.000Z</time></trkpt><trkpt lon="6.079009" lat="51.107956"><ele>18.4</ele><time>2022-05-08T07:50:05.000Z</time></trkpt><trkpt lon="6.078993" lat="51.108028"><ele>18.4</ele><time>2022-05-08T07:50:06.000Z</time></trkpt><trkpt lon="6.078978" lat="51.108101"><ele>18.4</ele><time>2022-05-08T07:50:07.000Z</time></trkpt><trkpt lon="6.078963" lat="51.108171"><ele>18.6</ele><time>2022-05-08T07:50:08.000Z</time></trkpt><trkpt lon="6.078946" lat="51.108243"><ele>18.6</ele><time>2022-05-08T07:50:09.000Z</time></trkpt><trkpt lon="6.078927" lat="51.108313"><ele>18.8</ele><time>2022-05-08T07:50:10.000Z</time></trkpt><trkpt lon="6.078906" lat="51.108381"><ele>19</ele><time>2022-05-08T07:50:11.000Z</time></trkpt><trkpt lon="6.078884" lat="51.108452"><ele>19</ele><time>2022-05-08T07:50:12.000Z</time></trkpt><trkpt lon="6.078862" lat="51.108523"><ele>19</ele><time>2022-05-08T07:50:13.000Z</time></trkpt><trkpt lon="6.078839" lat="51.108589"><ele>19.2</ele><time>2022-05-08T07:50:14.000Z</time></trkpt><trkpt lon="6.078815" lat="51.108656"><ele>19.2</ele><time>2022-05-08T07:50:15.000Z</time></trkpt><trkpt lon="6.078791" lat="51.108722"><ele>19.4</ele><time>2022-05-08T07:50:16.000Z</time></trkpt><trkpt lon="6.078766" lat="51.108789"><ele>19.4</ele><time>2022-05-08T07:50:17.000Z</time></trkpt><trkpt lon="6.078739" lat="51.108858"><ele>19.2</ele><time>2022-05-08T07:50:18.000Z</time></trkpt><trkpt lon="6.078708" lat="51.108924"><ele>19.2</ele><time>2022-05-08T07:50:19.000Z</time></trkpt><trkpt lon="6.078669" lat="51.10899"><ele>19.4</ele><time>2022-05-08T07:50:20.000Z</time></trkpt><trkpt lon="6.078623" lat="51.109055"><ele>19.6</ele><time>2022-05-08T07:50:21.000Z</time></trkpt><trkpt lon="6.078571" lat="51.109117"><ele>19.6</ele><time>2022-05-08T07:50:22.000Z</time></trkpt><trkpt lon="6.078514" lat="51.109178"><ele>19.6</ele><time>2022-05-08T07:50:23.000Z</time></trkpt><trkpt lon="6.078455" lat="51.109237"><ele>19.6</ele><time>2022-05-08T07:50:24.000Z</time></trkpt><trkpt lon="6.078393" lat="51.109294"><ele>19.6</ele><time>2022-05-08T07:50:25.000Z</time></trkpt><trkpt lon="6.078328" lat="51.109349"><ele>19.4</ele><time>2022-05-08T07:50:26.000Z</time></trkpt><trkpt lon="6.078259" lat="51.109404"><ele>19.2</ele><time>2022-05-08T07:50:27.000Z</time></trkpt><trkpt lon="6.078187" lat="51.109459"><ele>19.2</ele><time>2022-05-08T07:50:28.000Z</time></trkpt><trkpt lon="6.078114" lat="51.109513"><ele>19.2</ele><time>2022-05-08T07:50:29.000Z</time></trkpt><trkpt lon="6.078042" lat="51.109564"><ele>19.2</ele><time>2022-05-08T07:50:30.000Z</time></trkpt><trkpt lon="6.077971" lat="51.10962"><ele>19.2</ele><time>2022-05-08T07:50:31.000Z</time></trkpt><trkpt lon="6.077904" lat="51.109679"><ele>19.4</ele><time>2022-05-08T07:50:32.000Z</time></trkpt><trkpt lon="6.077842" lat="51.109736"><ele>19.4</ele><time>2022-05-08T07:50:33.000Z</time></trkpt><trkpt lon="6.077782" lat="51.109793"><ele>19.4</ele><time>2022-05-08T07:50:34.000Z</time></trkpt><trkpt lon="6.07772" lat="51.109853"><ele>19.4</ele><time>2022-05-08T07:50:35.000Z</time></trkpt><trkpt lon="6.077655" lat="51.109912"><ele>19.4</ele><time>2022-05-08T07:50:36.000Z</time></trkpt><trkpt lon="6.077588" lat="51.109971"><ele>19.2</ele><time>2022-05-08T07:50:37.000Z</time></trkpt><trkpt lon="6.077521" lat="51.11003"><ele>19.2</ele><time>2022-05-08T07:50:38.000Z</time></trkpt><trkpt lon="6.077454" lat="51.110089"><ele>19.2</ele><time>2022-05-08T07:50:39.000Z</time></trkpt><trkpt lon="6.077384" lat="51.110146"><ele>19</ele><time>2022-05-08T07:50:40.000Z</time></trkpt><trkpt lon="6.077314" lat="51.110202"><ele>18.8</ele><time>2022-05-08T07:50:41.000Z</time></trkpt><trkpt lon="6.077245" lat="51.110259"><ele>18.8</ele><time>2022-05-08T07:50:42.000Z</time></trkpt><trkpt lon="6.077179" lat="51.110315"><ele>18.8</ele><time>2022-05-08T07:50:43.000Z</time></trkpt><trkpt lon="6.077114" lat="51.11037"><ele>18.6</ele><time>2022-05-08T07:50:44.000Z</time></trkpt><trkpt lon="6.077051" lat="51.110427"><ele>18.6</ele><time>2022-05-08T07:50:45.000Z</time></trkpt><trkpt lon="6.076987" lat="51.110482"><ele>18.8</ele><time>2022-05-08T07:50:46.000Z</time></trkpt><trkpt lon="6.076919" lat="51.110538"><ele>18.8</ele><time>2022-05-08T07:50:47.000Z</time></trkpt><trkpt lon="6.07685" lat="51.110595"><ele>18.6</ele><time>2022-05-08T07:50:48.000Z</time></trkpt><trkpt lon="6.076784" lat="51.110652"><ele>18.6</ele><time>2022-05-08T07:50:49.000Z</time></trkpt><trkpt lon="6.076718" lat="51.110709"><ele>18.6</ele><time>2022-05-08T07:50:50.000Z</time></trkpt><trkpt lon="6.076652" lat="51.110766"><ele>18.6</ele><time>2022-05-08T07:50:51.000Z</time></trkpt><trkpt lon="6.076588" lat="51.110823"><ele>18.6</ele><time>2022-05-08T07:50:52.000Z</time></trkpt><trkpt lon="6.076522" lat="51.11088"><ele>18.4</ele><time>2022-05-08T07:50:53.000Z</time></trkpt><trkpt lon="6.076455" lat="51.110938"><ele>18.4</ele><time>2022-05-08T07:50:54.000Z</time></trkpt><trkpt lon="6.076388" lat="51.110995"><ele>18.4</ele><time>2022-05-08T07:50:55.000Z</time></trkpt><trkpt lon="6.076322" lat="51.111052"><ele>18.6</ele><time>2022-05-08T07:50:56.000Z</time></trkpt><trkpt lon="6.076257" lat="51.111107"><ele>18.4</ele><time>2022-05-08T07:50:57.000Z</time></trkpt><trkpt lon="6.076192" lat="51.111163"><ele>18.2</ele><time>2022-05-08T07:50:58.000Z</time></trkpt><trkpt lon="6.076129" lat="51.11122"><ele>18.4</ele><time>2022-05-08T07:50:59.000Z</time></trkpt><trkpt lon="6.076067" lat="51.111275"><ele>18.6</ele><time>2022-05-08T07:51:00.000Z</time></trkpt><trkpt lon="6.076001" lat="51.111331"><ele>18.6</ele><time>2022-05-08T07:51:01.000Z</time></trkpt><trkpt lon="6.075934" lat="51.111388"><ele>18.6</ele><time>2022-05-08T07:51:02.000Z</time></trkpt><trkpt lon="6.075869" lat="51.111448"><ele>18.4</ele><time>2022-05-08T07:51:03.000Z</time></trkpt><trkpt lon="6.075804" lat="51.111504"><ele>18</ele><time>2022-05-08T07:51:04.000Z</time></trkpt><trkpt lon="6.07574" lat="51.111561"><ele>17.8</ele><time>2022-05-08T07:51:05.000Z</time></trkpt><trkpt lon="6.075676" lat="51.111621"><ele>17.8</ele><time>2022-05-08T07:51:06.000Z</time></trkpt><trkpt lon="6.075615" lat="51.111676"><ele>17.8</ele><time>2022-05-08T07:51:07.000Z</time></trkpt><trkpt lon="6.075553" lat="51.111729"><ele>18</ele><time>2022-05-08T07:51:08.000Z</time></trkpt><trkpt lon="6.075495" lat="51.111778"><ele>18.2</ele><time>2022-05-08T07:51:09.000Z</time></trkpt><trkpt lon="6.075429" lat="51.111832"><ele>18.4</ele><time>2022-05-08T07:51:10.000Z</time></trkpt><trkpt lon="6.075356" lat="51.11189"><ele>18.6</ele><time>2022-05-08T07:51:11.000Z</time></trkpt><trkpt lon="6.075286" lat="51.111942"><ele>18.8</ele><time>2022-05-08T07:51:12.000Z</time></trkpt><trkpt lon="6.075215" lat="51.111994"><ele>18.8</ele><time>2022-05-08T07:51:13.000Z</time></trkpt><trkpt lon="6.075142" lat="51.112046"><ele>18.8</ele><time>2022-05-08T07:51:14.000Z</time></trkpt><trkpt lon="6.075069" lat="51.112097"><ele>18.8</ele><time>2022-05-08T07:51:15.000Z</time></trkpt><trkpt lon="6.074996" lat="51.112144"><ele>18.8</ele><time>2022-05-08T07:51:16.000Z</time></trkpt><trkpt lon="6.074922" lat="51.112192"><ele>18.8</ele><time>2022-05-08T07:51:17.000Z</time></trkpt><trkpt lon="6.07485" lat="51.112244"><ele>18.8</ele><time>2022-05-08T07:51:18.000Z</time></trkpt><trkpt lon="6.074777" lat="51.112295"><ele>18.8</ele><time>2022-05-08T07:51:19.000Z</time></trkpt><trkpt lon="6.074704" lat="51.112347"><ele>18.8</ele><time>2022-05-08T07:51:20.000Z</time></trkpt><trkpt lon="6.074632" lat="51.112398"><ele>18.8</ele><time>2022-05-08T07:51:21.000Z</time></trkpt><trkpt lon="6.074559" lat="51.11245"><ele>18.8</ele><time>2022-05-08T07:51:22.000Z</time></trkpt><trkpt lon="6.074487" lat="51.112501"><ele>18.6</ele><time>2022-05-08T07:51:23.000Z</time></trkpt><trkpt lon="6.074412" lat="51.112553"><ele>18.6</ele><time>2022-05-08T07:51:24.000Z</time></trkpt><trkpt lon="6.074336" lat="51.112606"><ele>18.6</ele><time>2022-05-08T07:51:25.000Z</time></trkpt><trkpt lon="6.074259" lat="51.11266"><ele>18.6</ele><time>2022-05-08T07:51:26.000Z</time></trkpt><trkpt lon="6.074182" lat="51.112715"><ele>18.4</ele><time>2022-05-08T07:51:27.000Z</time></trkpt><trkpt lon="6.074105" lat="51.112771"><ele>18.2</ele><time>2022-05-08T07:51:28.000Z</time></trkpt><trkpt lon="6.07403" lat="51.112824"><ele>18.2</ele><time>2022-05-08T07:51:29.000Z</time></trkpt><trkpt lon="6.073954" lat="51.112878"><ele>18</ele><time>2022-05-08T07:51:30.000Z</time></trkpt><trkpt lon="6.073878" lat="51.112931"><ele>18</ele><time>2022-05-08T07:51:31.000Z</time></trkpt><trkpt lon="6.073803" lat="51.112985"><ele>18</ele><time>2022-05-08T07:51:32.000Z</time></trkpt><trkpt lon="6.073739" lat="51.113048"><ele>17.8</ele><time>2022-05-08T07:51:33.000Z</time></trkpt><trkpt lon="6.073683" lat="51.113118"><ele>17.8</ele><time>2022-05-08T07:51:34.000Z</time></trkpt><trkpt lon="6.073628" lat="51.113189"><ele>17.6</ele><time>2022-05-08T07:51:35.000Z</time></trkpt><trkpt lon="6.073569" lat="51.113249"><ele>17.6</ele><time>2022-05-08T07:51:36.000Z</time></trkpt><trkpt lon="6.073495" lat="51.113263"><ele>17.4</ele><time>2022-05-08T07:51:37.000Z</time></trkpt><trkpt lon="6.073429" lat="51.113289"><ele>17.4</ele><time>2022-05-08T07:51:38.000Z</time></trkpt><trkpt lon="6.073363" lat="51.113332"><ele>17.4</ele><time>2022-05-08T07:51:39.000Z</time></trkpt><trkpt lon="6.073288" lat="51.113393"><ele>17.2</ele><time>2022-05-08T07:51:40.000Z</time></trkpt><trkpt lon="6.073208" lat="51.113461"><ele>17.2</ele><time>2022-05-08T07:51:41.000Z</time></trkpt><trkpt lon="6.073135" lat="51.113523"><ele>17</ele><time>2022-05-08T07:51:42.000Z</time></trkpt><trkpt lon="6.073063" lat="51.113585"><ele>17</ele><time>2022-05-08T07:51:43.000Z</time></trkpt><trkpt lon="6.072991" lat="51.113648"><ele>17</ele><time>2022-05-08T07:51:44.000Z</time></trkpt><trkpt lon="6.072918" lat="51.113708"><ele>16.8</ele><time>2022-05-08T07:51:45.000Z</time></trkpt><trkpt lon="6.072846" lat="51.113768"><ele>16.8</ele><time>2022-05-08T07:51:46.000Z</time></trkpt><trkpt lon="6.072776" lat="51.113828"><ele>16.6</ele><time>2022-05-08T07:51:47.000Z</time></trkpt><trkpt lon="6.072711" lat="51.113889"><ele>16.6</ele><time>2022-05-08T07:51:48.000Z</time></trkpt><trkpt lon="6.072653" lat="51.113952"><ele>16.2</ele><time>2022-05-08T07:51:49.000Z</time></trkpt><trkpt lon="6.072604" lat="51.114017"><ele>16</ele><time>2022-05-08T07:51:50.000Z</time></trkpt><trkpt lon="6.072558" lat="51.114086"><ele>16</ele><time>2022-05-08T07:51:51.000Z</time></trkpt><trkpt lon="6.072514" lat="51.114155"><ele>15.8</ele><time>2022-05-08T07:51:52.000Z</time></trkpt><trkpt lon="6.072476" lat="51.114224"><ele>15.8</ele><time>2022-05-08T07:51:53.000Z</time></trkpt><trkpt lon="6.072441" lat="51.114292"><ele>15.6</ele><time>2022-05-08T07:51:54.000Z</time></trkpt><trkpt lon="6.072408" lat="51.114357"><ele>15.6</ele><time>2022-05-08T07:51:55.000Z</time></trkpt><trkpt lon="6.072379" lat="51.114422"><ele>15.6</ele><time>2022-05-08T07:51:56.000Z</time></trkpt><trkpt lon="6.072353" lat="51.114485"><ele>15.8</ele><time>2022-05-08T07:51:57.000Z</time></trkpt><trkpt lon="6.072327" lat="51.11455"><ele>16</ele><time>2022-05-08T07:51:58.000Z</time></trkpt><trkpt lon="6.0723" lat="51.114616"><ele>16.2</ele><time>2022-05-08T07:51:59.000Z</time></trkpt><trkpt lon="6.07227" lat="51.114683"><ele>16.2</ele><time>2022-05-08T07:52:00.000Z</time></trkpt><trkpt lon="6.072238" lat="51.11475"><ele>16.4</ele><time>2022-05-08T07:52:01.000Z</time></trkpt><trkpt lon="6.072204" lat="51.114817"><ele>16.4</ele><time>2022-05-08T07:52:02.000Z</time></trkpt><trkpt lon="6.072171" lat="51.114881"><ele>16.2</ele><time>2022-05-08T07:52:03.000Z</time></trkpt><trkpt lon="6.072137" lat="51.114948"><ele>16</ele><time>2022-05-08T07:52:04.000Z</time></trkpt><trkpt lon="6.0721" lat="51.115017"><ele>16</ele><time>2022-05-08T07:52:05.000Z</time></trkpt><trkpt lon="6.072065" lat="51.115082"><ele>16.2</ele><time>2022-05-08T07:52:06.000Z</time></trkpt><trkpt lon="6.072032" lat="51.115141"><ele>16.2</ele><time>2022-05-08T07:52:07.000Z</time></trkpt><trkpt lon="6.072001" lat="51.115198"><ele>16.4</ele><time>2022-05-08T07:52:08.000Z</time></trkpt><trkpt lon="6.071972" lat="51.115253"><ele>16.4</ele><time>2022-05-08T07:52:09.000Z</time></trkpt><trkpt lon="6.071943" lat="51.115307"><ele>16.6</ele><time>2022-05-08T07:52:10.000Z</time></trkpt><trkpt lon="6.071914" lat="51.115358"><ele>16.6</ele><time>2022-05-08T07:52:11.000Z</time></trkpt><trkpt lon="6.071885" lat="51.115407"><ele>16.8</ele><time>2022-05-08T07:52:12.000Z</time></trkpt><trkpt lon="6.071855" lat="51.115457"><ele>16.8</ele><time>2022-05-08T07:52:13.000Z</time></trkpt><trkpt lon="6.07182" lat="51.115505"><ele>16.8</ele><time>2022-05-08T07:52:14.000Z</time></trkpt><trkpt lon="6.071773" lat="51.115542"><ele>16.8</ele><time>2022-05-08T07:52:15.000Z</time></trkpt><trkpt lon="6.071707" lat="51.115559"><ele>17</ele><time>2022-05-08T07:52:16.000Z</time></trkpt><trkpt lon="6.071629" lat="51.115558"><ele>17</ele><time>2022-05-08T07:52:17.000Z</time></trkpt><trkpt lon="6.071545" lat="51.115546"><ele>17.2</ele><time>2022-05-08T07:52:18.000Z</time></trkpt><trkpt lon="6.071454" lat="51.115526"><ele>17.4</ele><time>2022-05-08T07:52:19.000Z</time></trkpt><trkpt lon="6.071357" lat="51.115505"><ele>17.6</ele><time>2022-05-08T07:52:20.000Z</time></trkpt><trkpt lon="6.071256" lat="51.115484"><ele>17.6</ele><time>2022-05-08T07:52:21.000Z</time></trkpt><trkpt lon="6.071151" lat="51.115461"><ele>17.8</ele><time>2022-05-08T07:52:22.000Z</time></trkpt><trkpt lon="6.071056" lat="51.11544"><ele>18</ele><time>2022-05-08T07:52:23.000Z</time></trkpt><trkpt lon="6.070951" lat="51.115417"><ele>18.2</ele><time>2022-05-08T07:52:24.000Z</time></trkpt><trkpt lon="6.07084" lat="51.115392"><ele>18.4</ele><time>2022-05-08T07:52:25.000Z</time></trkpt><trkpt lon="6.070741" lat="51.11537"><ele>18.6</ele><time>2022-05-08T07:52:26.000Z</time></trkpt><trkpt lon="6.070641" lat="51.115349"><ele>18.6</ele><time>2022-05-08T07:52:27.000Z</time></trkpt><trkpt lon="6.070538" lat="51.115328"><ele>18.6</ele><time>2022-05-08T07:52:28.000Z</time></trkpt><trkpt lon="6.070434" lat="51.115307"><ele>18.8</ele><time>2022-05-08T07:52:29.000Z</time></trkpt><trkpt lon="6.070329" lat="51.115286"><ele>18.8</ele><time>2022-05-08T07:52:30.000Z</time></trkpt><trkpt lon="6.070227" lat="51.115264"><ele>18.8</ele><time>2022-05-08T07:52:31.000Z</time></trkpt><trkpt lon="6.070121" lat="51.115243"><ele>18.8</ele><time>2022-05-08T07:52:32.000Z</time></trkpt><trkpt lon="6.070015" lat="51.115221"><ele>18.6</ele><time>2022-05-08T07:52:33.000Z</time></trkpt><trkpt lon="6.069914" lat="51.1152"><ele>18.6</ele><time>2022-05-08T07:52:34.000Z</time></trkpt><trkpt lon="6.069813" lat="51.115181"><ele>18.4</ele><time>2022-05-08T07:52:35.000Z</time></trkpt><trkpt lon="6.069713" lat="51.11516"><ele>18.4</ele><time>2022-05-08T07:52:36.000Z</time></trkpt><trkpt lon="6.069611" lat="51.115137"><ele>18.6</ele><time>2022-05-08T07:52:37.000Z</time></trkpt><trkpt lon="6.069509" lat="51.115114"><ele>18.6</ele><time>2022-05-08T07:52:38.000Z</time></trkpt><trkpt lon="6.069408" lat="51.115087"><ele>18.6</ele><time>2022-05-08T07:52:39.000Z</time></trkpt><trkpt lon="6.069309" lat="51.115054"><ele>18.6</ele><time>2022-05-08T07:52:40.000Z</time></trkpt><trkpt lon="6.069211" lat="51.115022"><ele>18.8</ele><time>2022-05-08T07:52:41.000Z</time></trkpt><trkpt lon="6.069114" lat="51.114987"><ele>19</ele><time>2022-05-08T07:52:42.000Z</time></trkpt><trkpt lon="6.069016" lat="51.114951"><ele>19</ele><time>2022-05-08T07:52:43.000Z</time></trkpt><trkpt lon="6.068918" lat="51.114915"><ele>19</ele><time>2022-05-08T07:52:44.000Z</time></trkpt><trkpt lon="6.06882" lat="51.114878"><ele>19</ele><time>2022-05-08T07:52:45.000Z</time></trkpt><trkpt lon="6.068721" lat="51.114844"><ele>19</ele><time>2022-05-08T07:52:46.000Z</time></trkpt><trkpt lon="6.068622" lat="51.114808"><ele>19</ele><time>2022-05-08T07:52:47.000Z</time></trkpt><trkpt lon="6.068525" lat="51.114772"><ele>18.8</ele><time>2022-05-08T07:52:48.000Z</time></trkpt><trkpt lon="6.068431" lat="51.114738"><ele>18.8</ele><time>2022-05-08T07:52:49.000Z</time></trkpt><trkpt lon="6.068334" lat="51.114702"><ele>18.8</ele><time>2022-05-08T07:52:50.000Z</time></trkpt><trkpt lon="6.068236" lat="51.114665"><ele>18.8</ele><time>2022-05-08T07:52:51.000Z</time></trkpt><trkpt lon="6.068142" lat="51.114631"><ele>19</ele><time>2022-05-08T07:52:52.000Z</time></trkpt><trkpt lon="6.068049" lat="51.114597"><ele>19.2</ele><time>2022-05-08T07:52:53.000Z</time></trkpt><trkpt lon="6.067956" lat="51.114562"><ele>19.4</ele><time>2022-05-08T07:52:54.000Z</time></trkpt><trkpt lon="6.067863" lat="51.114528"><ele>19.6</ele><time>2022-05-08T07:52:55.000Z</time></trkpt><trkpt lon="6.067772" lat="51.114494"><ele>19.6</ele><time>2022-05-08T07:52:56.000Z</time></trkpt><trkpt lon="6.067681" lat="51.114459"><ele>19.6</ele><time>2022-05-08T07:52:57.000Z</time></trkpt><trkpt lon="6.067588" lat="51.114423"><ele>19.6</ele><time>2022-05-08T07:52:58.000Z</time></trkpt><trkpt lon="6.067496" lat="51.114387"><ele>19.8</ele><time>2022-05-08T07:52:59.000Z</time></trkpt><trkpt lon="6.067403" lat="51.114353"><ele>20</ele><time>2022-05-08T07:53:00.000Z</time></trkpt><trkpt lon="6.067307" lat="51.114318"><ele>20</ele><time>2022-05-08T07:53:01.000Z</time></trkpt><trkpt lon="6.067213" lat="51.114283"><ele>20</ele><time>2022-05-08T07:53:02.000Z</time></trkpt><trkpt lon="6.067122" lat="51.11425"><ele>20</ele><time>2022-05-08T07:53:03.000Z</time></trkpt><trkpt lon="6.067029" lat="51.114213"><ele>20</ele><time>2022-05-08T07:53:04.000Z</time></trkpt><trkpt lon="6.066931" lat="51.114177"><ele>20</ele><time>2022-05-08T07:53:05.000Z</time></trkpt><trkpt lon="6.066836" lat="51.11414"><ele>19.8</ele><time>2022-05-08T07:53:06.000Z</time></trkpt><trkpt lon="6.066743" lat="51.114105"><ele>19.6</ele><time>2022-05-08T07:53:07.000Z</time></trkpt><trkpt lon="6.066648" lat="51.114068"><ele>19.6</ele><time>2022-05-08T07:53:08.000Z</time></trkpt><trkpt lon="6.066557" lat="51.114025"><ele>19.4</ele><time>2022-05-08T07:53:09.000Z</time></trkpt><trkpt lon="6.066468" lat="51.113977"><ele>19.4</ele><time>2022-05-08T07:53:10.000Z</time></trkpt><trkpt lon="6.066383" lat="51.11393"><ele>19.2</ele><time>2022-05-08T07:53:11.000Z</time></trkpt><trkpt lon="6.066297" lat="51.11388"><ele>19.2</ele><time>2022-05-08T07:53:12.000Z</time></trkpt><trkpt lon="6.066211" lat="51.113827"><ele>19</ele><time>2022-05-08T07:53:13.000Z</time></trkpt><trkpt lon="6.066127" lat="51.113773"><ele>19</ele><time>2022-05-08T07:53:14.000Z</time></trkpt><trkpt lon="6.066043" lat="51.113719"><ele>18.8</ele><time>2022-05-08T07:53:15.000Z</time></trkpt><trkpt lon="6.06596" lat="51.113668"><ele>18.8</ele><time>2022-05-08T07:53:16.000Z</time></trkpt><trkpt lon="6.065876" lat="51.113617"><ele>18.6</ele><time>2022-05-08T07:53:17.000Z</time></trkpt><trkpt lon="6.065792" lat="51.113566"><ele>18.4</ele><time>2022-05-08T07:53:18.000Z</time></trkpt><trkpt lon="6.065701" lat="51.113519"><ele>18</ele><time>2022-05-08T07:53:19.000Z</time></trkpt><trkpt lon="6.065598" lat="51.113481"><ele>18</ele><time>2022-05-08T07:53:20.000Z</time></trkpt><trkpt lon="6.06549" lat="51.113453"><ele>18</ele><time>2022-05-08T07:53:21.000Z</time></trkpt><trkpt lon="6.065381" lat="51.113428"><ele>18</ele><time>2022-05-08T07:53:22.000Z</time></trkpt><trkpt lon="6.065276" lat="51.113405"><ele>17.8</ele><time>2022-05-08T07:53:23.000Z</time></trkpt><trkpt lon="6.065166" lat="51.11338"><ele>17.6</ele><time>2022-05-08T07:53:24.000Z</time></trkpt><trkpt lon="6.065053" lat="51.113356"><ele>17.6</ele><time>2022-05-08T07:53:25.000Z</time></trkpt><trkpt lon="6.064948" lat="51.113331"><ele>17.8</ele><time>2022-05-08T07:53:26.000Z</time></trkpt><trkpt lon="6.064844" lat="51.113307"><ele>17.8</ele><time>2022-05-08T07:53:27.000Z</time></trkpt><trkpt lon="6.064739" lat="51.113283"><ele>18</ele><time>2022-05-08T07:53:28.000Z</time></trkpt><trkpt lon="6.064633" lat="51.113258"><ele>18</ele><time>2022-05-08T07:53:29.000Z</time></trkpt><trkpt lon="6.06453" lat="51.113229"><ele>18</ele><time>2022-05-08T07:53:30.000Z</time></trkpt><trkpt lon="6.064435" lat="51.113197"><ele>18</ele><time>2022-05-08T07:53:31.000Z</time></trkpt><trkpt lon="6.064338" lat="51.113158"><ele>17.8</ele><time>2022-05-08T07:53:32.000Z</time></trkpt><trkpt lon="6.064242" lat="51.113118"><ele>17.8</ele><time>2022-05-08T07:53:33.000Z</time></trkpt><trkpt lon="6.064148" lat="51.113078"><ele>17.8</ele><time>2022-05-08T07:53:34.000Z</time></trkpt><trkpt lon="6.064056" lat="51.113033"><ele>18</ele><time>2022-05-08T07:53:35.000Z</time></trkpt><trkpt lon="6.063965" lat="51.112987"><ele>18</ele><time>2022-05-08T07:53:36.000Z</time></trkpt><trkpt lon="6.063878" lat="51.11294"><ele>18</ele><time>2022-05-08T07:53:37.000Z</time></trkpt><trkpt lon="6.063792" lat="51.112893"><ele>18</ele><time>2022-05-08T07:53:38.000Z</time></trkpt><trkpt lon="6.063705" lat="51.112848"><ele>18.2</ele><time>2022-05-08T07:53:39.000Z</time></trkpt><trkpt lon="6.063615" lat="51.112801"><ele>18.2</ele><time>2022-05-08T07:53:40.000Z</time></trkpt><trkpt lon="6.063526" lat="51.112755"><ele>18.4</ele><time>2022-05-08T07:53:41.000Z</time></trkpt><trkpt lon="6.063439" lat="51.112709"><ele>18.4</ele><time>2022-05-08T07:53:42.000Z</time></trkpt><trkpt lon="6.063355" lat="51.112666"><ele>18.4</ele><time>2022-05-08T07:53:43.000Z</time></trkpt><trkpt lon="6.063271" lat="51.112622"><ele>18.6</ele><time>2022-05-08T07:53:44.000Z</time></trkpt><trkpt lon="6.063187" lat="51.112578"><ele>18.6</ele><time>2022-05-08T07:53:45.000Z</time></trkpt><trkpt lon="6.063105" lat="51.112536"><ele>18.8</ele><time>2022-05-08T07:53:46.000Z</time></trkpt><trkpt lon="6.063025" lat="51.112496"><ele>18.8</ele><time>2022-05-08T07:53:47.000Z</time></trkpt><trkpt lon="6.062944" lat="51.112456"><ele>18.8</ele><time>2022-05-08T07:53:48.000Z</time></trkpt><trkpt lon="6.062865" lat="51.112414"><ele>18.8</ele><time>2022-05-08T07:53:49.000Z</time></trkpt><trkpt lon="6.062786" lat="51.112371"><ele>18.8</ele><time>2022-05-08T07:53:50.000Z</time></trkpt><trkpt lon="6.062703" lat="51.112327"><ele>18.8</ele><time>2022-05-08T07:53:51.000Z</time></trkpt><trkpt lon="6.062619" lat="51.112284"><ele>18.8</ele><time>2022-05-08T07:53:52.000Z</time></trkpt><trkpt lon="6.062539" lat="51.112243"><ele>18.8</ele><time>2022-05-08T07:53:53.000Z</time></trkpt><trkpt lon="6.062462" lat="51.112203"><ele>18.6</ele><time>2022-05-08T07:53:54.000Z</time></trkpt><trkpt lon="6.062383" lat="51.112158"><ele>18.6</ele><time>2022-05-08T07:53:55.000Z</time></trkpt><trkpt lon="6.062304" lat="51.112111"><ele>18.6</ele><time>2022-05-08T07:53:56.000Z</time></trkpt><trkpt lon="6.062236" lat="51.11206"><ele>18.6</ele><time>2022-05-08T07:53:57.000Z</time></trkpt><trkpt lon="6.062169" lat="51.112009"><ele>18.6</ele><time>2022-05-08T07:53:58.000Z</time></trkpt><trkpt lon="6.062098" lat="51.11196"><ele>18.6</ele><time>2022-05-08T07:53:59.000Z</time></trkpt><trkpt lon="6.062022" lat="51.111914"><ele>18.6</ele><time>2022-05-08T07:54:00.000Z</time></trkpt><trkpt lon="6.061945" lat="51.111873"><ele>18.6</ele><time>2022-05-08T07:54:01.000Z</time></trkpt><trkpt lon="6.061869" lat="51.111833"><ele>18.8</ele><time>2022-05-08T07:54:02.000Z</time></trkpt><trkpt lon="6.061797" lat="51.111795"><ele>18.8</ele><time>2022-05-08T07:54:03.000Z</time></trkpt><trkpt lon="6.061724" lat="51.111757"><ele>18.8</ele><time>2022-05-08T07:54:04.000Z</time></trkpt><trkpt lon="6.061656" lat="51.11172"><ele>18.8</ele><time>2022-05-08T07:54:05.000Z</time></trkpt><trkpt lon="6.061597" lat="51.111686"><ele>18.8</ele><time>2022-05-08T07:54:06.000Z</time></trkpt><trkpt lon="6.061549" lat="51.111656"><ele>18.8</ele><time>2022-05-08T07:54:07.000Z</time></trkpt><trkpt lon="6.061511" lat="51.111632"><ele>19</ele><time>2022-05-08T07:54:08.000Z</time></trkpt><trkpt lon="6.06148" lat="51.111611"><ele>19</ele><time>2022-05-08T07:54:09.000Z</time></trkpt><trkpt lon="6.061456" lat="51.111594"><ele>19</ele><time>2022-05-08T07:54:10.000Z</time></trkpt><trkpt lon="6.061439" lat="51.111583"><ele>19</ele><time>2022-05-08T07:54:11.000Z</time></trkpt><trkpt lon="6.06143" lat="51.111576"><ele>19</ele><time>2022-05-08T07:54:12.000Z</time></trkpt><trkpt lon="6.06137" lat="51.111529"><ele>19.2</ele><time>2022-05-08T07:54:18.000Z</time></trkpt><trkpt lon="6.061339" lat="51.111518"><ele>19.2</ele><time>2022-05-08T07:54:19.000Z</time></trkpt><trkpt lon="6.061299" lat="51.111517"><ele>19</ele><time>2022-05-08T07:54:20.000Z</time></trkpt><trkpt lon="6.06126" lat="51.111527"><ele>19</ele><time>2022-05-08T07:54:21.000Z</time></trkpt><trkpt lon="6.061216" lat="51.111549"><ele>18.8</ele><time>2022-05-08T07:54:22.000Z</time></trkpt><trkpt lon="6.061164" lat="51.111578"><ele>18.8</ele><time>2022-05-08T07:54:23.000Z</time></trkpt><trkpt lon="6.061104" lat="51.111609"><ele>18.6</ele><time>2022-05-08T07:54:24.000Z</time></trkpt><trkpt lon="6.061038" lat="51.111639"><ele>18.6</ele><time>2022-05-08T07:54:25.000Z</time></trkpt><trkpt lon="6.060971" lat="51.111672"><ele>18.8</ele><time>2022-05-08T07:54:26.000Z</time></trkpt><trkpt lon="6.060899" lat="51.111706"><ele>18.8</ele><time>2022-05-08T07:54:27.000Z</time></trkpt><trkpt lon="6.060823" lat="51.11174"><ele>18.8</ele><time>2022-05-08T07:54:28.000Z</time></trkpt><trkpt lon="6.060744" lat="51.111776"><ele>18.6</ele><time>2022-05-08T07:54:29.000Z</time></trkpt><trkpt lon="6.06066" lat="51.111815"><ele>18.4</ele><time>2022-05-08T07:54:30.000Z</time></trkpt><trkpt lon="6.060576" lat="51.111854"><ele>18.2</ele><time>2022-05-08T07:54:31.000Z</time></trkpt><trkpt lon="6.060491" lat="51.111892"><ele>18</ele><time>2022-05-08T07:54:32.000Z</time></trkpt><trkpt lon="6.060409" lat="51.111927"><ele>18</ele><time>2022-05-08T07:54:33.000Z</time></trkpt><trkpt lon="6.060326" lat="51.111962"><ele>18</ele><time>2022-05-08T07:54:34.000Z</time></trkpt><trkpt lon="6.060247" lat="51.111998"><ele>18.2</ele><time>2022-05-08T07:54:35.000Z</time></trkpt><trkpt lon="6.060167" lat="51.112034"><ele>18.2</ele><time>2022-05-08T07:54:36.000Z</time></trkpt><trkpt lon="6.060085" lat="51.112071"><ele>18.2</ele><time>2022-05-08T07:54:37.000Z</time></trkpt><trkpt lon="6.060003" lat="51.112109"><ele>18.2</ele><time>2022-05-08T07:54:38.000Z</time></trkpt><trkpt lon="6.059919" lat="51.11215"><ele>18.2</ele><time>2022-05-08T07:54:39.000Z</time></trkpt><trkpt lon="6.059834" lat="51.112189"><ele>18.2</ele><time>2022-05-08T07:54:40.000Z</time></trkpt><trkpt lon="6.05975" lat="51.112227"><ele>18.2</ele><time>2022-05-08T07:54:41.000Z</time></trkpt><trkpt lon="6.059663" lat="51.11227"><ele>18.4</ele><time>2022-05-08T07:54:42.000Z</time></trkpt><trkpt lon="6.059578" lat="51.112309"><ele>18.4</ele><time>2022-05-08T07:54:43.000Z</time></trkpt><trkpt lon="6.059496" lat="51.112346"><ele>18.4</ele><time>2022-05-08T07:54:44.000Z</time></trkpt><trkpt lon="6.059415" lat="51.112384"><ele>18.6</ele><time>2022-05-08T07:54:45.000Z</time></trkpt><trkpt lon="6.059332" lat="51.112422"><ele>18.6</ele><time>2022-05-08T07:54:46.000Z</time></trkpt><trkpt lon="6.059249" lat="51.112462"><ele>18.6</ele><time>2022-05-08T07:54:47.000Z</time></trkpt><trkpt lon="6.059166" lat="51.112502"><ele>18.4</ele><time>2022-05-08T07:54:48.000Z</time></trkpt><trkpt lon="6.059075" lat="51.112545"><ele>18.6</ele><time>2022-05-08T07:54:49.000Z</time></trkpt><trkpt lon="6.058983" lat="51.112588"><ele>18.6</ele><time>2022-05-08T07:54:50.000Z</time></trkpt><trkpt lon="6.058895" lat="51.112629"><ele>18.8</ele><time>2022-05-08T07:54:51.000Z</time></trkpt><trkpt lon="6.058809" lat="51.11267"><ele>19</ele><time>2022-05-08T07:54:52.000Z</time></trkpt><trkpt lon="6.058727" lat="51.112705"><ele>19</ele><time>2022-05-08T07:54:53.000Z</time></trkpt><trkpt lon="6.058643" lat="51.112739"><ele>19</ele><time>2022-05-08T07:54:54.000Z</time></trkpt><trkpt lon="6.058558" lat="51.112777"><ele>19</ele><time>2022-05-08T07:54:55.000Z</time></trkpt><trkpt lon="6.058475" lat="51.112815"><ele>19.2</ele><time>2022-05-08T07:54:56.000Z</time></trkpt><trkpt lon="6.058392" lat="51.11285"><ele>19.2</ele><time>2022-05-08T07:54:57.000Z</time></trkpt><trkpt lon="6.05831" lat="51.112887"><ele>19.4</ele><time>2022-05-08T07:54:58.000Z</time></trkpt><trkpt lon="6.058232" lat="51.112923"><ele>19.6</ele><time>2022-05-08T07:54:59.000Z</time></trkpt><trkpt lon="6.058157" lat="51.112957"><ele>19.6</ele><time>2022-05-08T07:55:00.000Z</time></trkpt><trkpt lon="6.058087" lat="51.112991"><ele>19.8</ele><time>2022-05-08T07:55:01.000Z</time></trkpt><trkpt lon="6.058019" lat="51.113026"><ele>20</ele><time>2022-05-08T07:55:02.000Z</time></trkpt><trkpt lon="6.057956" lat="51.11306"><ele>20</ele><time>2022-05-08T07:55:03.000Z</time></trkpt><trkpt lon="6.057902" lat="51.113097"><ele>20</ele><time>2022-05-08T07:55:04.000Z</time></trkpt><trkpt lon="6.057855" lat="51.113139"><ele>20</ele><time>2022-05-08T07:55:05.000Z</time></trkpt><trkpt lon="6.057813" lat="51.113185"><ele>20</ele><time>2022-05-08T07:55:06.000Z</time></trkpt><trkpt lon="6.057779" lat="51.113229"><ele>20</ele><time>2022-05-08T07:55:07.000Z</time></trkpt><trkpt lon="6.05775" lat="51.113275"><ele>20</ele><time>2022-05-08T07:55:08.000Z</time></trkpt><trkpt lon="6.057714" lat="51.11332"><ele>19.6</ele><time>2022-05-08T07:55:09.000Z</time></trkpt><trkpt lon="6.057661" lat="51.11336"><ele>19.4</ele><time>2022-05-08T07:55:10.000Z</time></trkpt><trkpt lon="6.057588" lat="51.113396"><ele>19.2</ele><time>2022-05-08T07:55:11.000Z</time></trkpt><trkpt lon="6.057501" lat="51.113422"><ele>19</ele><time>2022-05-08T07:55:12.000Z</time></trkpt><trkpt lon="6.057405" lat="51.113444"><ele>19</ele><time>2022-05-08T07:55:13.000Z</time></trkpt><trkpt lon="6.057301" lat="51.113471"><ele>19</ele><time>2022-05-08T07:55:14.000Z</time></trkpt><trkpt lon="6.057194" lat="51.113499"><ele>18.6</ele><time>2022-05-08T07:55:15.000Z</time></trkpt><trkpt lon="6.057084" lat="51.11353"><ele>18.6</ele><time>2022-05-08T07:55:16.000Z</time></trkpt><trkpt lon="6.05697" lat="51.113562"><ele>18.6</ele><time>2022-05-08T07:55:17.000Z</time></trkpt><trkpt lon="6.056851" lat="51.11359"><ele>18.6</ele><time>2022-05-08T07:55:18.000Z</time></trkpt><trkpt lon="6.056728" lat="51.113617"><ele>18.6</ele><time>2022-05-08T07:55:19.000Z</time></trkpt><trkpt lon="6.056604" lat="51.113643"><ele>18.6</ele><time>2022-05-08T07:55:20.000Z</time></trkpt><trkpt lon="6.056482" lat="51.113667"><ele>18.4</ele><time>2022-05-08T07:55:21.000Z</time></trkpt><trkpt lon="6.056355" lat="51.113689"><ele>18.4</ele><time>2022-05-08T07:55:22.000Z</time></trkpt><trkpt lon="6.056235" lat="51.113708"><ele>18.2</ele><time>2022-05-08T07:55:23.000Z</time></trkpt><trkpt lon="6.056109" lat="51.113728"><ele>18.2</ele><time>2022-05-08T07:55:24.000Z</time></trkpt><trkpt lon="6.05598" lat="51.113741"><ele>18</ele><time>2022-05-08T07:55:25.000Z</time></trkpt><trkpt lon="6.055857" lat="51.113755"><ele>18.2</ele><time>2022-05-08T07:55:26.000Z</time></trkpt><trkpt lon="6.055733" lat="51.113768"><ele>18.2</ele><time>2022-05-08T07:55:27.000Z</time></trkpt><trkpt lon="6.05561" lat="51.11378"><ele>18.2</ele><time>2022-05-08T07:55:28.000Z</time></trkpt><trkpt lon="6.055485" lat="51.113789"><ele>18.4</ele><time>2022-05-08T07:55:29.000Z</time></trkpt><trkpt lon="6.055363" lat="51.113799"><ele>18.4</ele><time>2022-05-08T07:55:30.000Z</time></trkpt><trkpt lon="6.055243" lat="51.113808"><ele>18.2</ele><time>2022-05-08T07:55:31.000Z</time></trkpt><trkpt lon="6.05512" lat="51.113814"><ele>18.2</ele><time>2022-05-08T07:55:32.000Z</time></trkpt><trkpt lon="6.055002" lat="51.113817"><ele>18</ele><time>2022-05-08T07:55:33.000Z</time></trkpt><trkpt lon="6.054883" lat="51.113821"><ele>18</ele><time>2022-05-08T07:55:34.000Z</time></trkpt><trkpt lon="6.05476" lat="51.113823"><ele>18.2</ele><time>2022-05-08T07:55:35.000Z</time></trkpt><trkpt lon="6.054641" lat="51.113823"><ele>18.2</ele><time>2022-05-08T07:55:36.000Z</time></trkpt><trkpt lon="6.054522" lat="51.113825"><ele>18.4</ele><time>2022-05-08T07:55:37.000Z</time></trkpt><trkpt lon="6.054404" lat="51.113827"><ele>18.6</ele><time>2022-05-08T07:55:38.000Z</time></trkpt><trkpt lon="6.054291" lat="51.113831"><ele>18.8</ele><time>2022-05-08T07:55:39.000Z</time></trkpt><trkpt lon="6.054173" lat="51.113836"><ele>18.8</ele><time>2022-05-08T07:55:40.000Z</time></trkpt><trkpt lon="6.054053" lat="51.113838"><ele>18.8</ele><time>2022-05-08T07:55:41.000Z</time></trkpt><trkpt lon="6.053937" lat="51.113838"><ele>19</ele><time>2022-05-08T07:55:42.000Z</time></trkpt><trkpt lon="6.053826" lat="51.113838"><ele>19</ele><time>2022-05-08T07:55:43.000Z</time></trkpt><trkpt lon="6.053712" lat="51.11384"><ele>19</ele><time>2022-05-08T07:55:44.000Z</time></trkpt><trkpt lon="6.053597" lat="51.113844"><ele>19</ele><time>2022-05-08T07:55:45.000Z</time></trkpt><trkpt lon="6.053483" lat="51.113846"><ele>19</ele><time>2022-05-08T07:55:46.000Z</time></trkpt><trkpt lon="6.053368" lat="51.113846"><ele>19.2</ele><time>2022-05-08T07:55:47.000Z</time></trkpt><trkpt lon="6.05325" lat="51.113848"><ele>19.2</ele><time>2022-05-08T07:55:48.000Z</time></trkpt><trkpt lon="6.053133" lat="51.11385"><ele>19.2</ele><time>2022-05-08T07:55:49.000Z</time></trkpt><trkpt lon="6.053017" lat="51.113852"><ele>19</ele><time>2022-05-08T07:55:50.000Z</time></trkpt><trkpt lon="6.052905" lat="51.113855"><ele>18.8</ele><time>2022-05-08T07:55:51.000Z</time></trkpt><trkpt lon="6.052788" lat="51.113859"><ele>19</ele><time>2022-05-08T07:55:52.000Z</time></trkpt><trkpt lon="6.052671" lat="51.113863"><ele>19</ele><time>2022-05-08T07:55:53.000Z</time></trkpt><trkpt lon="6.052554" lat="51.113865"><ele>19</ele><time>2022-05-08T07:55:54.000Z</time></trkpt><trkpt lon="6.052437" lat="51.113865"><ele>19.2</ele><time>2022-05-08T07:55:55.000Z</time></trkpt><trkpt lon="6.052318" lat="51.113865"><ele>19.2</ele><time>2022-05-08T07:55:56.000Z</time></trkpt><trkpt lon="6.052205" lat="51.113865"><ele>19.2</ele><time>2022-05-08T07:55:57.000Z</time></trkpt><trkpt lon="6.052091" lat="51.113865"><ele>19.4</ele><time>2022-05-08T07:55:58.000Z</time></trkpt><trkpt lon="6.051977" lat="51.113867"><ele>19.4</ele><time>2022-05-08T07:55:59.000Z</time></trkpt><trkpt lon="6.051865" lat="51.113871"><ele>19.6</ele><time>2022-05-08T07:56:00.000Z</time></trkpt><trkpt lon="6.051752" lat="51.113875"><ele>19.6</ele><time>2022-05-08T07:56:01.000Z</time></trkpt><trkpt lon="6.051639" lat="51.113876"><ele>19.6</ele><time>2022-05-08T07:56:02.000Z</time></trkpt><trkpt lon="6.051526" lat="51.113876"><ele>19.6</ele><time>2022-05-08T07:56:03.000Z</time></trkpt><trkpt lon="6.051411" lat="51.113876"><ele>19.6</ele><time>2022-05-08T07:56:04.000Z</time></trkpt><trkpt lon="6.051297" lat="51.113878"><ele>19.6</ele><time>2022-05-08T07:56:05.000Z</time></trkpt><trkpt lon="6.051183" lat="51.113882"><ele>19.6</ele><time>2022-05-08T07:56:06.000Z</time></trkpt><trkpt lon="6.051074" lat="51.113884"><ele>19.4</ele><time>2022-05-08T07:56:07.000Z</time></trkpt><trkpt lon="6.050965" lat="51.113886"><ele>19.4</ele><time>2022-05-08T07:56:08.000Z</time></trkpt><trkpt lon="6.050849" lat="51.113884"><ele>19.4</ele><time>2022-05-08T07:56:09.000Z</time></trkpt><trkpt lon="6.050729" lat="51.11388"><ele>19.4</ele><time>2022-05-08T07:56:10.000Z</time></trkpt><trkpt lon="6.050615" lat="51.11388"><ele>19.4</ele><time>2022-05-08T07:56:11.000Z</time></trkpt><trkpt lon="6.050496" lat="51.11388"><ele>19.2</ele><time>2022-05-08T07:56:12.000Z</time></trkpt><trkpt lon="6.050378" lat="51.11388"><ele>19.2</ele><time>2022-05-08T07:56:13.000Z</time></trkpt><trkpt lon="6.050261" lat="51.11388"><ele>19.2</ele><time>2022-05-08T07:56:14.000Z</time></trkpt><trkpt lon="6.050141" lat="51.113884"><ele>19</ele><time>2022-05-08T07:56:15.000Z</time></trkpt><trkpt lon="6.050021" lat="51.11389"><ele>18.8</ele><time>2022-05-08T07:56:16.000Z</time></trkpt><trkpt lon="6.049903" lat="51.113892"><ele>19</ele><time>2022-05-08T07:56:17.000Z</time></trkpt><trkpt lon="6.049785" lat="51.11389"><ele>19</ele><time>2022-05-08T07:56:18.000Z</time></trkpt><trkpt lon="6.049662" lat="51.113888"><ele>19</ele><time>2022-05-08T07:56:19.000Z</time></trkpt><trkpt lon="6.049539" lat="51.113886"><ele>18.8</ele><time>2022-05-08T07:56:20.000Z</time></trkpt><trkpt lon="6.049419" lat="51.113886"><ele>18.8</ele><time>2022-05-08T07:56:21.000Z</time></trkpt><trkpt lon="6.0493" lat="51.11389"><ele>18.8</ele><time>2022-05-08T07:56:22.000Z</time></trkpt><trkpt lon="6.049183" lat="51.113892"><ele>18.8</ele><time>2022-05-08T07:56:23.000Z</time></trkpt><trkpt lon="6.049057" lat="51.113894"><ele>18.6</ele><time>2022-05-08T07:56:24.000Z</time></trkpt><trkpt lon="6.048926" lat="51.113895"><ele>18.4</ele><time>2022-05-08T07:56:25.000Z</time></trkpt><trkpt lon="6.0488" lat="51.113895"><ele>18.2</ele><time>2022-05-08T07:56:26.000Z</time></trkpt><trkpt lon="6.048675" lat="51.113898"><ele>17.8</ele><time>2022-05-08T07:56:27.000Z</time></trkpt><trkpt lon="6.048555" lat="51.113901"><ele>17.4</ele><time>2022-05-08T07:56:28.000Z</time></trkpt><trkpt lon="6.04843" lat="51.113905"><ele>17.2</ele><time>2022-05-08T07:56:29.000Z</time></trkpt><trkpt lon="6.048299" lat="51.113909"><ele>17</ele><time>2022-05-08T07:56:30.000Z</time></trkpt><trkpt lon="6.048177" lat="51.113915"><ele>16.8</ele><time>2022-05-08T07:56:31.000Z</time></trkpt><trkpt lon="6.04805" lat="51.11392"><ele>16.6</ele><time>2022-05-08T07:56:32.000Z</time></trkpt><trkpt lon="6.047926" lat="51.113926"><ele>16.4</ele><time>2022-05-08T07:56:33.000Z</time></trkpt><trkpt lon="6.047801" lat="51.113934"><ele>16.2</ele><time>2022-05-08T07:56:34.000Z</time></trkpt><trkpt lon="6.047675" lat="51.113944"><ele>16.2</ele><time>2022-05-08T07:56:35.000Z</time></trkpt><trkpt lon="6.047551" lat="51.113953"><ele>16</ele><time>2022-05-08T07:56:36.000Z</time></trkpt><trkpt lon="6.047426" lat="51.113963"><ele>15.8</ele><time>2022-05-08T07:56:37.000Z</time></trkpt><trkpt lon="6.047301" lat="51.113974"><ele>15.6</ele><time>2022-05-08T07:56:38.000Z</time></trkpt><trkpt lon="6.047172" lat="51.113987"><ele>15.4</ele><time>2022-05-08T07:56:39.000Z</time></trkpt><trkpt lon="6.047042" lat="51.114003"><ele>15.4</ele><time>2022-05-08T07:56:40.000Z</time></trkpt><trkpt lon="6.046918" lat="51.114018"><ele>15.4</ele><time>2022-05-08T07:56:41.000Z</time></trkpt><trkpt lon="6.046789" lat="51.114031"><ele>15.6</ele><time>2022-05-08T07:56:42.000Z</time></trkpt><trkpt lon="6.04666" lat="51.114044"><ele>15.6</ele><time>2022-05-08T07:56:43.000Z</time></trkpt><trkpt lon="6.046536" lat="51.114058"><ele>15.6</ele><time>2022-05-08T07:56:44.000Z</time></trkpt><trkpt lon="6.04641" lat="51.114072"><ele>15.8</ele><time>2022-05-08T07:56:45.000Z</time></trkpt><trkpt lon="6.046284" lat="51.114085"><ele>15.8</ele><time>2022-05-08T07:56:46.000Z</time></trkpt><trkpt lon="6.046158" lat="51.114099"><ele>15.8</ele><time>2022-05-08T07:56:47.000Z</time></trkpt><trkpt lon="6.046032" lat="51.114112"><ele>15.8</ele><time>2022-05-08T07:56:48.000Z</time></trkpt><trkpt lon="6.045905" lat="51.114126"><ele>15.8</ele><time>2022-05-08T07:56:49.000Z</time></trkpt><trkpt lon="6.045779" lat="51.114139"><ele>16</ele><time>2022-05-08T07:56:50.000Z</time></trkpt><trkpt lon="6.045653" lat="51.114152"><ele>16</ele><time>2022-05-08T07:56:51.000Z</time></trkpt><trkpt lon="6.045528" lat="51.114165"><ele>16.2</ele><time>2022-05-08T07:56:52.000Z</time></trkpt><trkpt lon="6.045402" lat="51.114179"><ele>16.4</ele><time>2022-05-08T07:56:53.000Z</time></trkpt><trkpt lon="6.045276" lat="51.114192"><ele>16.6</ele><time>2022-05-08T07:56:54.000Z</time></trkpt><trkpt lon="6.045153" lat="51.114205"><ele>16.8</ele><time>2022-05-08T07:56:55.000Z</time></trkpt><trkpt lon="6.045032" lat="51.114218"><ele>16.6</ele><time>2022-05-08T07:56:56.000Z</time></trkpt><trkpt lon="6.04491" lat="51.11423"><ele>16.6</ele><time>2022-05-08T07:56:57.000Z</time></trkpt><trkpt lon="6.044787" lat="51.114244"><ele>16.4</ele><time>2022-05-08T07:56:58.000Z</time></trkpt><trkpt lon="6.044667" lat="51.114257"><ele>16.6</ele><time>2022-05-08T07:56:59.000Z</time></trkpt><trkpt lon="6.044547" lat="51.114271"><ele>16.6</ele><time>2022-05-08T07:57:00.000Z</time></trkpt><trkpt lon="6.044429" lat="51.114284"><ele>16.6</ele><time>2022-05-08T07:57:01.000Z</time></trkpt><trkpt lon="6.044312" lat="51.114297"><ele>16.8</ele><time>2022-05-08T07:57:02.000Z</time></trkpt><trkpt lon="6.044197" lat="51.11431"><ele>16.8</ele><time>2022-05-08T07:57:03.000Z</time></trkpt><trkpt lon="6.044081" lat="51.114322"><ele>16.8</ele><time>2022-05-08T07:57:04.000Z</time></trkpt><trkpt lon="6.043964" lat="51.114335"><ele>16.6</ele><time>2022-05-08T07:57:05.000Z</time></trkpt><trkpt lon="6.043845" lat="51.114351"><ele>16.6</ele><time>2022-05-08T07:57:06.000Z</time></trkpt><trkpt lon="6.043723" lat="51.114366"><ele>16.4</ele><time>2022-05-08T07:57:07.000Z</time></trkpt><trkpt lon="6.043599" lat="51.114379"><ele>16.4</ele><time>2022-05-08T07:57:08.000Z</time></trkpt><trkpt lon="6.043477" lat="51.114393"><ele>16.2</ele><time>2022-05-08T07:57:09.000Z</time></trkpt><trkpt lon="6.043357" lat="51.114406"><ele>16.2</ele><time>2022-05-08T07:57:10.000Z</time></trkpt><trkpt lon="6.043238" lat="51.114417"><ele>16.2</ele><time>2022-05-08T07:57:11.000Z</time></trkpt><trkpt lon="6.043119" lat="51.114429"><ele>16.4</ele><time>2022-05-08T07:57:12.000Z</time></trkpt><trkpt lon="6.043" lat="51.114443"><ele>16.6</ele><time>2022-05-08T07:57:13.000Z</time></trkpt><trkpt lon="6.042881" lat="51.114455"><ele>16.6</ele><time>2022-05-08T07:57:14.000Z</time></trkpt><trkpt lon="6.04276" lat="51.114467"><ele>16.8</ele><time>2022-05-08T07:57:15.000Z</time></trkpt><trkpt lon="6.04264" lat="51.11448"><ele>17</ele><time>2022-05-08T07:57:16.000Z</time></trkpt><trkpt lon="6.04252" lat="51.114493"><ele>17</ele><time>2022-05-08T07:57:17.000Z</time></trkpt><trkpt lon="6.0424" lat="51.114507"><ele>17</ele><time>2022-05-08T07:57:18.000Z</time></trkpt><trkpt lon="6.04228" lat="51.114522"><ele>17</ele><time>2022-05-08T07:57:19.000Z</time></trkpt><trkpt lon="6.042158" lat="51.11454"><ele>17</ele><time>2022-05-08T07:57:20.000Z</time></trkpt><trkpt lon="6.042039" lat="51.114561"><ele>17</ele><time>2022-05-08T07:57:21.000Z</time></trkpt><trkpt lon="6.041924" lat="51.114586"><ele>16.8</ele><time>2022-05-08T07:57:22.000Z</time></trkpt><trkpt lon="6.041813" lat="51.114615"><ele>16.8</ele><time>2022-05-08T07:57:23.000Z</time></trkpt><trkpt lon="6.041702" lat="51.11465"><ele>16.8</ele><time>2022-05-08T07:57:24.000Z</time></trkpt><trkpt lon="6.041594" lat="51.114686"><ele>17</ele><time>2022-05-08T07:57:25.000Z</time></trkpt><trkpt lon="6.041488" lat="51.114725"><ele>17</ele><time>2022-05-08T07:57:26.000Z</time></trkpt><trkpt lon="6.041386" lat="51.114767"><ele>17.2</ele><time>2022-05-08T07:57:27.000Z</time></trkpt><trkpt lon="6.041291" lat="51.114811"><ele>17.4</ele><time>2022-05-08T07:57:28.000Z</time></trkpt><trkpt lon="6.041199" lat="51.114854"><ele>17.6</ele><time>2022-05-08T07:57:29.000Z</time></trkpt><trkpt lon="6.04111" lat="51.114897"><ele>17.4</ele><time>2022-05-08T07:57:30.000Z</time></trkpt><trkpt lon="6.041015" lat="51.114936"><ele>17.2</ele><time>2022-05-08T07:57:31.000Z</time></trkpt><trkpt lon="6.040921" lat="51.114979"><ele>16.8</ele><time>2022-05-08T07:57:32.000Z</time></trkpt><trkpt lon="6.040828" lat="51.115022"><ele>16.8</ele><time>2022-05-08T07:57:33.000Z</time></trkpt><trkpt lon="6.040731" lat="51.115064"><ele>16.6</ele><time>2022-05-08T07:57:34.000Z</time></trkpt><trkpt lon="6.040635" lat="51.115108"><ele>16.8</ele><time>2022-05-08T07:57:35.000Z</time></trkpt><trkpt lon="6.040541" lat="51.115154"><ele>16.8</ele><time>2022-05-08T07:57:36.000Z</time></trkpt><trkpt lon="6.040448" lat="51.1152"><ele>16.8</ele><time>2022-05-08T07:57:37.000Z</time></trkpt><trkpt lon="6.040357" lat="51.115246"><ele>17</ele><time>2022-05-08T07:57:38.000Z</time></trkpt><trkpt lon="6.040268" lat="51.115292"><ele>17.2</ele><time>2022-05-08T07:57:39.000Z</time></trkpt><trkpt lon="6.040183" lat="51.115337"><ele>17.4</ele><time>2022-05-08T07:57:40.000Z</time></trkpt><trkpt lon="6.040099" lat="51.115382"><ele>17.6</ele><time>2022-05-08T07:57:41.000Z</time></trkpt><trkpt lon="6.040014" lat="51.115429"><ele>17.8</ele><time>2022-05-08T07:57:42.000Z</time></trkpt><trkpt lon="6.039928" lat="51.115477"><ele>17.8</ele><time>2022-05-08T07:57:43.000Z</time></trkpt><trkpt lon="6.039839" lat="51.115526"><ele>18</ele><time>2022-05-08T07:57:44.000Z</time></trkpt><trkpt lon="6.039747" lat="51.115576"><ele>18</ele><time>2022-05-08T07:57:45.000Z</time></trkpt><trkpt lon="6.039656" lat="51.115628"><ele>17.8</ele><time>2022-05-08T07:57:46.000Z</time></trkpt><trkpt lon="6.039567" lat="51.115679"><ele>18</ele><time>2022-05-08T07:57:47.000Z</time></trkpt><trkpt lon="6.039478" lat="51.115729"><ele>18</ele><time>2022-05-08T07:57:48.000Z</time></trkpt><trkpt lon="6.039393" lat="51.115778"><ele>18</ele><time>2022-05-08T07:57:49.000Z</time></trkpt><trkpt lon="6.03931" lat="51.115827"><ele>18.2</ele><time>2022-05-08T07:57:50.000Z</time></trkpt><trkpt lon="6.039229" lat="51.115877"><ele>18</ele><time>2022-05-08T07:57:51.000Z</time></trkpt><trkpt lon="6.039151" lat="51.115929"><ele>18</ele><time>2022-05-08T07:57:52.000Z</time></trkpt><trkpt lon="6.039073" lat="51.115983"><ele>18</ele><time>2022-05-08T07:57:53.000Z</time></trkpt><trkpt lon="6.038997" lat="51.116036"><ele>18.2</ele><time>2022-05-08T07:57:54.000Z</time></trkpt><trkpt lon="6.038921" lat="51.116092"><ele>18.2</ele><time>2022-05-08T07:57:55.000Z</time></trkpt><trkpt lon="6.038849" lat="51.116149"><ele>18.4</ele><time>2022-05-08T07:57:56.000Z</time></trkpt><trkpt lon="6.03878" lat="51.116205"><ele>18.4</ele><time>2022-05-08T07:57:57.000Z</time></trkpt><trkpt lon="6.03871" lat="51.116262"><ele>18.4</ele><time>2022-05-08T07:57:58.000Z</time></trkpt><trkpt lon="6.038642" lat="51.116321"><ele>18.4</ele><time>2022-05-08T07:57:59.000Z</time></trkpt><trkpt lon="6.038578" lat="51.11638"><ele>18.4</ele><time>2022-05-08T07:58:00.000Z</time></trkpt><trkpt lon="6.038516" lat="51.116441"><ele>18.4</ele><time>2022-05-08T07:58:01.000Z</time></trkpt><trkpt lon="6.038455" lat="51.116504"><ele>18.4</ele><time>2022-05-08T07:58:02.000Z</time></trkpt><trkpt lon="6.038395" lat="51.116567"><ele>18.4</ele><time>2022-05-08T07:58:03.000Z</time></trkpt><trkpt lon="6.038336" lat="51.116628"><ele>18.6</ele><time>2022-05-08T07:58:04.000Z</time></trkpt><trkpt lon="6.038276" lat="51.116689"><ele>18.4</ele><time>2022-05-08T07:58:05.000Z</time></trkpt><trkpt lon="6.038218" lat="51.11675"><ele>18.4</ele><time>2022-05-08T07:58:06.000Z</time></trkpt><trkpt lon="6.03816" lat="51.116813"><ele>18.2</ele><time>2022-05-08T07:58:07.000Z</time></trkpt><trkpt lon="6.038105" lat="51.116876"><ele>18.2</ele><time>2022-05-08T07:58:08.000Z</time></trkpt><trkpt lon="6.038052" lat="51.116937"><ele>18.4</ele><time>2022-05-08T07:58:09.000Z</time></trkpt><trkpt lon="6.038001" lat="51.117"><ele>18.4</ele><time>2022-05-08T07:58:10.000Z</time></trkpt><trkpt lon="6.037951" lat="51.117063"><ele>18.4</ele><time>2022-05-08T07:58:11.000Z</time></trkpt><trkpt lon="6.037903" lat="51.117126"><ele>18.6</ele><time>2022-05-08T07:58:12.000Z</time></trkpt><trkpt lon="6.037857" lat="51.117189"><ele>18.4</ele><time>2022-05-08T07:58:13.000Z</time></trkpt><trkpt lon="6.037813" lat="51.117252"><ele>18.4</ele><time>2022-05-08T07:58:14.000Z</time></trkpt><trkpt lon="6.03777" lat="51.117315"><ele>18.2</ele><time>2022-05-08T07:58:15.000Z</time></trkpt><trkpt lon="6.037728" lat="51.117378"><ele>18</ele><time>2022-05-08T07:58:16.000Z</time></trkpt><trkpt lon="6.037687" lat="51.117443"><ele>18</ele><time>2022-05-08T07:58:17.000Z</time></trkpt><trkpt lon="6.037647" lat="51.117505"><ele>18</ele><time>2022-05-08T07:58:18.000Z</time></trkpt><trkpt lon="6.037607" lat="51.117566"><ele>18.2</ele><time>2022-05-08T07:58:19.000Z</time></trkpt><trkpt lon="6.037566" lat="51.117625"><ele>18.4</ele><time>2022-05-08T07:58:20.000Z</time></trkpt><trkpt lon="6.037525" lat="51.117685"><ele>18.4</ele><time>2022-05-08T07:58:21.000Z</time></trkpt><trkpt lon="6.037489" lat="51.117744"><ele>18.4</ele><time>2022-05-08T07:58:22.000Z</time></trkpt><trkpt lon="6.037456" lat="51.117801"><ele>18.6</ele><time>2022-05-08T07:58:23.000Z</time></trkpt><trkpt lon="6.037423" lat="51.117856"><ele>18.6</ele><time>2022-05-08T07:58:24.000Z</time></trkpt><trkpt lon="6.037395" lat="51.117911"><ele>18.4</ele><time>2022-05-08T07:58:25.000Z</time></trkpt><trkpt lon="6.037378" lat="51.117969"><ele>18.4</ele><time>2022-05-08T07:58:26.000Z</time></trkpt><trkpt lon="6.037367" lat="51.118028"><ele>18.2</ele><time>2022-05-08T07:58:27.000Z</time></trkpt><trkpt lon="6.037351" lat="51.118089"><ele>18</ele><time>2022-05-08T07:58:28.000Z</time></trkpt><trkpt lon="6.037324" lat="51.118152"><ele>17.8</ele><time>2022-05-08T07:58:29.000Z</time></trkpt><trkpt lon="6.037286" lat="51.118215"><ele>17.4</ele><time>2022-05-08T07:58:30.000Z</time></trkpt><trkpt lon="6.037247" lat="51.11828"><ele>17.2</ele><time>2022-05-08T07:58:31.000Z</time></trkpt><trkpt lon="6.037222" lat="51.118351"><ele>17.2</ele><time>2022-05-08T07:58:32.000Z</time></trkpt><trkpt lon="6.037221" lat="51.118424"><ele>17.2</ele><time>2022-05-08T07:58:33.000Z</time></trkpt><trkpt lon="6.03724" lat="51.118496"><ele>17.2</ele><time>2022-05-08T07:58:34.000Z</time></trkpt><trkpt lon="6.037273" lat="51.118571"><ele>17.2</ele><time>2022-05-08T07:58:35.000Z</time></trkpt><trkpt lon="6.037316" lat="51.118645"><ele>17</ele><time>2022-05-08T07:58:36.000Z</time></trkpt><trkpt lon="6.037365" lat="51.118719"><ele>17</ele><time>2022-05-08T07:58:37.000Z</time></trkpt><trkpt lon="6.037414" lat="51.118792"><ele>16.8</ele><time>2022-05-08T07:58:38.000Z</time></trkpt><trkpt lon="6.037461" lat="51.118861"><ele>16.8</ele><time>2022-05-08T07:58:39.000Z</time></trkpt><trkpt lon="6.037505" lat="51.118929"><ele>16.8</ele><time>2022-05-08T07:58:40.000Z</time></trkpt><trkpt lon="6.037547" lat="51.118998"><ele>16.8</ele><time>2022-05-08T07:58:41.000Z</time></trkpt><trkpt lon="6.037585" lat="51.119059"><ele>17</ele><time>2022-05-08T07:58:42.000Z</time></trkpt><trkpt lon="6.037625" lat="51.119121"><ele>17</ele><time>2022-05-08T07:58:43.000Z</time></trkpt><trkpt lon="6.037671" lat="51.119191"><ele>17.2</ele><time>2022-05-08T07:58:44.000Z</time></trkpt><trkpt lon="6.037714" lat="51.119259"><ele>17.2</ele><time>2022-05-08T07:58:45.000Z</time></trkpt><trkpt lon="6.037753" lat="51.119323"><ele>17.2</ele><time>2022-05-08T07:58:46.000Z</time></trkpt><trkpt lon="6.037791" lat="51.119391"><ele>17.2</ele><time>2022-05-08T07:58:47.000Z</time></trkpt><trkpt lon="6.037825" lat="51.119459"><ele>17.2</ele><time>2022-05-08T07:58:48.000Z</time></trkpt><trkpt lon="6.037852" lat="51.119525"><ele>17.2</ele><time>2022-05-08T07:58:49.000Z</time></trkpt><trkpt lon="6.037876" lat="51.11959"><ele>17.2</ele><time>2022-05-08T07:58:50.000Z</time></trkpt><trkpt lon="6.037903" lat="51.119656"><ele>17.2</ele><time>2022-05-08T07:58:51.000Z</time></trkpt><trkpt lon="6.03793" lat="51.11972"><ele>17</ele><time>2022-05-08T07:58:52.000Z</time></trkpt><trkpt lon="6.037954" lat="51.119787"><ele>17</ele><time>2022-05-08T07:58:53.000Z</time></trkpt><trkpt lon="6.037974" lat="51.119858"><ele>17</ele><time>2022-05-08T07:58:54.000Z</time></trkpt><trkpt lon="6.037992" lat="51.119928"><ele>17</ele><time>2022-05-08T07:58:55.000Z</time></trkpt><trkpt lon="6.038007" lat="51.119997"><ele>17</ele><time>2022-05-08T07:58:56.000Z</time></trkpt><trkpt lon="6.038017" lat="51.120068"><ele>17</ele><time>2022-05-08T07:58:57.000Z</time></trkpt><trkpt lon="6.03802" lat="51.12014"><ele>17</ele><time>2022-05-08T07:58:58.000Z</time></trkpt><trkpt lon="6.038017" lat="51.120213"><ele>17</ele><time>2022-05-08T07:58:59.000Z</time></trkpt><trkpt lon="6.038009" lat="51.120285"><ele>17</ele><time>2022-05-08T07:59:00.000Z</time></trkpt><trkpt lon="6.037993" lat="51.120355"><ele>17</ele><time>2022-05-08T07:59:01.000Z</time></trkpt><trkpt lon="6.03797" lat="51.120424"><ele>17</ele><time>2022-05-08T07:59:02.000Z</time></trkpt><trkpt lon="6.037945" lat="51.120493"><ele>17</ele><time>2022-05-08T07:59:03.000Z</time></trkpt><trkpt lon="6.037921" lat="51.120559"><ele>16.8</ele><time>2022-05-08T07:59:04.000Z</time></trkpt><trkpt lon="6.037898" lat="51.120624"><ele>16.8</ele><time>2022-05-08T07:59:05.000Z</time></trkpt><trkpt lon="6.037868" lat="51.120689"><ele>16.4</ele><time>2022-05-08T07:59:06.000Z</time></trkpt><trkpt lon="6.03783" lat="51.120756"><ele>16.2</ele><time>2022-05-08T07:59:07.000Z</time></trkpt><trkpt lon="6.037787" lat="51.120825"><ele>16.4</ele><time>2022-05-08T07:59:08.000Z</time></trkpt><trkpt lon="6.037741" lat="51.120894"><ele>16.4</ele><time>2022-05-08T07:59:09.000Z</time></trkpt><trkpt lon="6.037692" lat="51.120962"><ele>16.4</ele><time>2022-05-08T07:59:10.000Z</time></trkpt><trkpt lon="6.037642" lat="51.121029"><ele>16.6</ele><time>2022-05-08T07:59:11.000Z</time></trkpt><trkpt lon="6.037587" lat="51.121094"><ele>16.6</ele><time>2022-05-08T07:59:12.000Z</time></trkpt><trkpt lon="6.037533" lat="51.121155"><ele>16.6</ele><time>2022-05-08T07:59:13.000Z</time></trkpt><trkpt lon="6.037479" lat="51.121218"><ele>16.4</ele><time>2022-05-08T07:59:14.000Z</time></trkpt><trkpt lon="6.037419" lat="51.121282"><ele>16.4</ele><time>2022-05-08T07:59:15.000Z</time></trkpt><trkpt lon="6.037355" lat="51.121343"><ele>16.6</ele><time>2022-05-08T07:59:16.000Z</time></trkpt><trkpt lon="6.037289" lat="51.121402"><ele>16.6</ele><time>2022-05-08T07:59:17.000Z</time></trkpt><trkpt lon="6.037222" lat="51.121461"><ele>16.6</ele><time>2022-05-08T07:59:18.000Z</time></trkpt><trkpt lon="6.037153" lat="51.12152"><ele>16.6</ele><time>2022-05-08T07:59:19.000Z</time></trkpt><trkpt lon="6.037082" lat="51.121575"><ele>16.6</ele><time>2022-05-08T07:59:20.000Z</time></trkpt><trkpt lon="6.037008" lat="51.121629"><ele>16.6</ele><time>2022-05-08T07:59:21.000Z</time></trkpt><trkpt lon="6.036933" lat="51.121677"><ele>16.6</ele><time>2022-05-08T07:59:22.000Z</time></trkpt><trkpt lon="6.036859" lat="51.121725"><ele>16.6</ele><time>2022-05-08T07:59:23.000Z</time></trkpt><trkpt lon="6.036788" lat="51.121775"><ele>16.6</ele><time>2022-05-08T07:59:24.000Z</time></trkpt><trkpt lon="6.036716" lat="51.121822"><ele>16.6</ele><time>2022-05-08T07:59:25.000Z</time></trkpt><trkpt lon="6.036642" lat="51.121866"><ele>16.4</ele><time>2022-05-08T07:59:26.000Z</time></trkpt><trkpt lon="6.036565" lat="51.121905"><ele>16.4</ele><time>2022-05-08T07:59:27.000Z</time></trkpt><trkpt lon="6.036481" lat="51.121944"><ele>16.4</ele><time>2022-05-08T07:59:28.000Z</time></trkpt><trkpt lon="6.036388" lat="51.121978"><ele>16.6</ele><time>2022-05-08T07:59:29.000Z</time></trkpt><trkpt lon="6.036286" lat="51.122001"><ele>16.6</ele><time>2022-05-08T07:59:30.000Z</time></trkpt><trkpt lon="6.036178" lat="51.122016"><ele>16.4</ele><time>2022-05-08T07:59:31.000Z</time></trkpt><trkpt lon="6.036068" lat="51.122025"><ele>16.4</ele><time>2022-05-08T07:59:32.000Z</time></trkpt><trkpt lon="6.035957" lat="51.122031"><ele>16.4</ele><time>2022-05-08T07:59:33.000Z</time></trkpt><trkpt lon="6.035845" lat="51.122034"><ele>16.4</ele><time>2022-05-08T07:59:34.000Z</time></trkpt><trkpt lon="6.035735" lat="51.122038"><ele>16.2</ele><time>2022-05-08T07:59:35.000Z</time></trkpt><trkpt lon="6.035626" lat="51.122047"><ele>16.2</ele><time>2022-05-08T07:59:36.000Z</time></trkpt><trkpt lon="6.035521" lat="51.12206"><ele>16.4</ele><time>2022-05-08T07:59:37.000Z</time></trkpt><trkpt lon="6.035421" lat="51.122078"><ele>16.4</ele><time>2022-05-08T07:59:38.000Z</time></trkpt><trkpt lon="6.035323" lat="51.122099"><ele>16.6</ele><time>2022-05-08T07:59:39.000Z</time></trkpt><trkpt lon="6.035227" lat="51.122122"><ele>16.8</ele><time>2022-05-08T07:59:40.000Z</time></trkpt><trkpt lon="6.035128" lat="51.122145"><ele>16.8</ele><time>2022-05-08T07:59:41.000Z</time></trkpt><trkpt lon="6.035022" lat="51.122165"><ele>16.8</ele><time>2022-05-08T07:59:42.000Z</time></trkpt><trkpt lon="6.034914" lat="51.122184"><ele>16.8</ele><time>2022-05-08T07:59:43.000Z</time></trkpt><trkpt lon="6.034802" lat="51.122206"><ele>16.8</ele><time>2022-05-08T07:59:44.000Z</time></trkpt><trkpt lon="6.034688" lat="51.122229"><ele>16.8</ele><time>2022-05-08T07:59:45.000Z</time></trkpt><trkpt lon="6.034576" lat="51.122251"><ele>16.8</ele><time>2022-05-08T07:59:46.000Z</time></trkpt><trkpt lon="6.034468" lat="51.122272"><ele>17</ele><time>2022-05-08T07:59:47.000Z</time></trkpt><trkpt lon="6.034358" lat="51.122293"><ele>17</ele><time>2022-05-08T07:59:48.000Z</time></trkpt><trkpt lon="6.034253" lat="51.122316"><ele>17</ele><time>2022-05-08T07:59:49.000Z</time></trkpt><trkpt lon="6.034151" lat="51.122337"><ele>17</ele><time>2022-05-08T07:59:50.000Z</time></trkpt><trkpt lon="6.034051" lat="51.122358"><ele>16.8</ele><time>2022-05-08T07:59:51.000Z</time></trkpt><trkpt lon="6.033955" lat="51.122383"><ele>16.8</ele><time>2022-05-08T07:59:52.000Z</time></trkpt><trkpt lon="6.033861" lat="51.12241"><ele>16.8</ele><time>2022-05-08T07:59:53.000Z</time></trkpt><trkpt lon="6.033768" lat="51.122435"><ele>16.8</ele><time>2022-05-08T07:59:54.000Z</time></trkpt><trkpt lon="6.033678" lat="51.12246"><ele>16.6</ele><time>2022-05-08T07:59:55.000Z</time></trkpt><trkpt lon="6.033591" lat="51.122484"><ele>16.6</ele><time>2022-05-08T07:59:56.000Z</time></trkpt><trkpt lon="6.033507" lat="51.122507"><ele>16.6</ele><time>2022-05-08T07:59:57.000Z</time></trkpt><trkpt lon="6.033423" lat="51.122532"><ele>16.6</ele><time>2022-05-08T07:59:58.000Z</time></trkpt><trkpt lon="6.033342" lat="51.122557"><ele>16.6</ele><time>2022-05-08T07:59:59.000Z</time></trkpt><trkpt lon="6.033263" lat="51.12258"><ele>16.8</ele><time>2022-05-08T08:00:00.000Z</time></trkpt><trkpt lon="6.033184" lat="51.122605"><ele>16.8</ele><time>2022-05-08T08:00:01.000Z</time></trkpt><trkpt lon="6.033108" lat="51.122629"><ele>16.8</ele><time>2022-05-08T08:00:02.000Z</time></trkpt><trkpt lon="6.033032" lat="51.122652"><ele>16.8</ele><time>2022-05-08T08:00:03.000Z</time></trkpt><trkpt lon="6.032957" lat="51.122677"><ele>16.8</ele><time>2022-05-08T08:00:04.000Z</time></trkpt><trkpt lon="6.032885" lat="51.122702"><ele>16.8</ele><time>2022-05-08T08:00:05.000Z</time></trkpt><trkpt lon="6.032816" lat="51.122724"><ele>16.6</ele><time>2022-05-08T08:00:06.000Z</time></trkpt><trkpt lon="6.03275" lat="51.122745"><ele>16.6</ele><time>2022-05-08T08:00:07.000Z</time></trkpt><trkpt lon="6.032688" lat="51.122762"><ele>16.6</ele><time>2022-05-08T08:00:08.000Z</time></trkpt><trkpt lon="6.032631" lat="51.122771"><ele>16.6</ele><time>2022-05-08T08:00:09.000Z</time></trkpt><trkpt lon="6.032572" lat="51.122766"><ele>16.6</ele><time>2022-05-08T08:00:10.000Z</time></trkpt><trkpt lon="6.032517" lat="51.12275"><ele>16.6</ele><time>2022-05-08T08:00:11.000Z</time></trkpt><trkpt lon="6.032466" lat="51.122726"><ele>16.6</ele><time>2022-05-08T08:00:12.000Z</time></trkpt><trkpt lon="6.032419" lat="51.122693"><ele>16.6</ele><time>2022-05-08T08:00:13.000Z</time></trkpt><trkpt lon="6.032373" lat="51.122654"><ele>16.6</ele><time>2022-05-08T08:00:14.000Z</time></trkpt><trkpt lon="6.032319" lat="51.122608"><ele>16.6</ele><time>2022-05-08T08:00:15.000Z</time></trkpt><trkpt lon="6.032257" lat="51.122556"><ele>16.6</ele><time>2022-05-08T08:00:16.000Z</time></trkpt><trkpt lon="6.032194" lat="51.122507"><ele>16.6</ele><time>2022-05-08T08:00:17.000Z</time></trkpt><trkpt lon="6.032129" lat="51.122457"><ele>16.8</ele><time>2022-05-08T08:00:18.000Z</time></trkpt><trkpt lon="6.032066" lat="51.122406"><ele>16.8</ele><time>2022-05-08T08:00:19.000Z</time></trkpt><trkpt lon="6.032005" lat="51.122354"><ele>16.8</ele><time>2022-05-08T08:00:20.000Z</time></trkpt><trkpt lon="6.031948" lat="51.122309"><ele>16.8</ele><time>2022-05-08T08:00:21.000Z</time></trkpt><trkpt lon="6.031893" lat="51.122263"><ele>16.8</ele><time>2022-05-08T08:00:22.000Z</time></trkpt><trkpt lon="6.031839" lat="51.122215"><ele>16.8</ele><time>2022-05-08T08:00:23.000Z</time></trkpt><trkpt lon="6.031782" lat="51.122169"><ele>16.8</ele><time>2022-05-08T08:00:24.000Z</time></trkpt><trkpt lon="6.031724" lat="51.122121"><ele>16.8</ele><time>2022-05-08T08:00:25.000Z</time></trkpt><trkpt lon="6.031667" lat="51.122074"><ele>16.6</ele><time>2022-05-08T08:00:26.000Z</time></trkpt><trkpt lon="6.031613" lat="51.122029"><ele>16.6</ele><time>2022-05-08T08:00:27.000Z</time></trkpt><trkpt lon="6.031563" lat="51.121988"><ele>16.6</ele><time>2022-05-08T08:00:28.000Z</time></trkpt><trkpt lon="6.031513" lat="51.121951"><ele>16.6</ele><time>2022-05-08T08:00:29.000Z</time></trkpt><trkpt lon="6.031466" lat="51.121917"><ele>16.6</ele><time>2022-05-08T08:00:30.000Z</time></trkpt><trkpt lon="6.031423" lat="51.121883"><ele>16.6</ele><time>2022-05-08T08:00:31.000Z</time></trkpt><trkpt lon="6.031381" lat="51.121849"><ele>16.6</ele><time>2022-05-08T08:00:32.000Z</time></trkpt><trkpt lon="6.031342" lat="51.121819"><ele>16.6</ele><time>2022-05-08T08:00:33.000Z</time></trkpt><trkpt lon="6.031305" lat="51.121792"><ele>16.6</ele><time>2022-05-08T08:00:34.000Z</time></trkpt><trkpt lon="6.031271" lat="51.121767"><ele>16.4</ele><time>2022-05-08T08:00:35.000Z</time></trkpt><trkpt lon="6.031236" lat="51.121744"><ele>16.4</ele><time>2022-05-08T08:00:36.000Z</time></trkpt><trkpt lon="6.031201" lat="51.121721"><ele>16.2</ele><time>2022-05-08T08:00:37.000Z</time></trkpt><trkpt lon="6.031166" lat="51.121701"><ele>16.2</ele><time>2022-05-08T08:00:38.000Z</time></trkpt><trkpt lon="6.031132" lat="51.121679"><ele>16</ele><time>2022-05-08T08:00:39.000Z</time></trkpt><trkpt lon="6.031101" lat="51.121659"><ele>16</ele><time>2022-05-08T08:00:40.000Z</time></trkpt><trkpt lon="6.031072" lat="51.12164"><ele>16</ele><time>2022-05-08T08:00:41.000Z</time></trkpt><trkpt lon="6.031045" lat="51.121621"><ele>16</ele><time>2022-05-08T08:00:42.000Z</time></trkpt><trkpt lon="6.031019" lat="51.121604"><ele>16</ele><time>2022-05-08T08:00:43.000Z</time></trkpt><trkpt lon="6.030997" lat="51.121591"><ele>16</ele><time>2022-05-08T08:00:44.000Z</time></trkpt><trkpt lon="6.030979" lat="51.121579"><ele>16</ele><time>2022-05-08T08:00:45.000Z</time></trkpt><trkpt lon="6.030966" lat="51.12157"><ele>16</ele><time>2022-05-08T08:00:46.000Z</time></trkpt><trkpt lon="6.031056" lat="51.121573"><ele>15.8</ele><time>2022-05-08T08:28:33.000Z</time></trkpt><trkpt lon="6.031077" lat="51.121587"><ele>15.8</ele><time>2022-05-08T08:28:34.000Z</time></trkpt><trkpt lon="6.031099" lat="51.121602"><ele>15.8</ele><time>2022-05-08T08:28:35.000Z</time></trkpt><trkpt lon="6.031122" lat="51.12162"><ele>15.8</ele><time>2022-05-08T08:28:36.000Z</time></trkpt><trkpt lon="6.031148" lat="51.121639"><ele>15.8</ele><time>2022-05-08T08:28:37.000Z</time></trkpt><trkpt lon="6.031176" lat="51.121658"><ele>15.8</ele><time>2022-05-08T08:28:38.000Z</time></trkpt><trkpt lon="6.031204" lat="51.121677"><ele>15.8</ele><time>2022-05-08T08:28:39.000Z</time></trkpt><trkpt lon="6.031231" lat="51.121698"><ele>15.8</ele><time>2022-05-08T08:28:40.000Z</time></trkpt><trkpt lon="6.031261" lat="51.121721"><ele>16</ele><time>2022-05-08T08:28:41.000Z</time></trkpt><trkpt lon="6.031291" lat="51.121744"><ele>16</ele><time>2022-05-08T08:28:42.000Z</time></trkpt><trkpt lon="6.031323" lat="51.121767"><ele>16</ele><time>2022-05-08T08:28:43.000Z</time></trkpt><trkpt lon="6.031355" lat="51.121789"><ele>16.2</ele><time>2022-05-08T08:28:44.000Z</time></trkpt><trkpt lon="6.031385" lat="51.121812"><ele>16.2</ele><time>2022-05-08T08:28:45.000Z</time></trkpt><trkpt lon="6.031414" lat="51.121835"><ele>16.2</ele><time>2022-05-08T08:28:46.000Z</time></trkpt><trkpt lon="6.031439" lat="51.121856"><ele>16.4</ele><time>2022-05-08T08:28:47.000Z</time></trkpt><trkpt lon="6.031464" lat="51.121877"><ele>16.4</ele><time>2022-05-08T08:28:48.000Z</time></trkpt><trkpt lon="6.031488" lat="51.121898"><ele>16.6</ele><time>2022-05-08T08:28:49.000Z</time></trkpt><trkpt lon="6.031514" lat="51.121917"><ele>16.6</ele><time>2022-05-08T08:28:50.000Z</time></trkpt><trkpt lon="6.03154" lat="51.121938"><ele>16.6</ele><time>2022-05-08T08:28:51.000Z</time></trkpt><trkpt lon="6.031567" lat="51.121963"><ele>16.6</ele><time>2022-05-08T08:28:52.000Z</time></trkpt><trkpt lon="6.031593" lat="51.121987"><ele>16.6</ele><time>2022-05-08T08:28:53.000Z</time></trkpt><trkpt lon="6.031621" lat="51.122012"><ele>16.6</ele><time>2022-05-08T08:28:54.000Z</time></trkpt><trkpt lon="6.031653" lat="51.122038"><ele>16.6</ele><time>2022-05-08T08:28:55.000Z</time></trkpt><trkpt lon="6.03169" lat="51.122068"><ele>16.6</ele><time>2022-05-08T08:28:56.000Z</time></trkpt><trkpt lon="6.031728" lat="51.122101"><ele>16.6</ele><time>2022-05-08T08:28:57.000Z</time></trkpt><trkpt lon="6.031766" lat="51.122133"><ele>16.6</ele><time>2022-05-08T08:28:58.000Z</time></trkpt><trkpt lon="6.031806" lat="51.122168"><ele>16.6</ele><time>2022-05-08T08:28:59.000Z</time></trkpt><trkpt lon="6.03185" lat="51.122202"><ele>16.6</ele><time>2022-05-08T08:29:00.000Z</time></trkpt><trkpt lon="6.031891" lat="51.122232"><ele>16.8</ele><time>2022-05-08T08:29:01.000Z</time></trkpt><trkpt lon="6.031932" lat="51.12226"><ele>16.8</ele><time>2022-05-08T08:29:02.000Z</time></trkpt><trkpt lon="6.03197" lat="51.122291"><ele>16.8</ele><time>2022-05-08T08:29:03.000Z</time></trkpt><trkpt lon="6.032003" lat="51.122325"><ele>16.8</ele><time>2022-05-08T08:29:04.000Z</time></trkpt><trkpt lon="6.032035" lat="51.122358"><ele>16.8</ele><time>2022-05-08T08:29:05.000Z</time></trkpt><trkpt lon="6.032071" lat="51.122387"><ele>16.8</ele><time>2022-05-08T08:29:06.000Z</time></trkpt><trkpt lon="6.032107" lat="51.122419"><ele>16.6</ele><time>2022-05-08T08:29:07.000Z</time></trkpt><trkpt lon="6.032145" lat="51.122457"><ele>16.6</ele><time>2022-05-08T08:29:08.000Z</time></trkpt><trkpt lon="6.032186" lat="51.122494"><ele>16.6</ele><time>2022-05-08T08:29:09.000Z</time></trkpt><trkpt lon="6.03223" lat="51.12253"><ele>16.6</ele><time>2022-05-08T08:29:10.000Z</time></trkpt><trkpt lon="6.032275" lat="51.122566"><ele>16.6</ele><time>2022-05-08T08:29:11.000Z</time></trkpt><trkpt lon="6.032319" lat="51.122598"><ele>16.6</ele><time>2022-05-08T08:29:12.000Z</time></trkpt><trkpt lon="6.03236" lat="51.122629"><ele>16.6</ele><time>2022-05-08T08:29:13.000Z</time></trkpt><trkpt lon="6.032399" lat="51.122658"><ele>16.6</ele><time>2022-05-08T08:29:14.000Z</time></trkpt><trkpt lon="6.032432" lat="51.122682"><ele>16.6</ele><time>2022-05-08T08:29:15.000Z</time></trkpt><trkpt lon="6.03246" lat="51.122711"><ele>16.8</ele><time>2022-05-08T08:29:16.000Z</time></trkpt><trkpt lon="6.032477" lat="51.122742"><ele>16.8</ele><time>2022-05-08T08:29:17.000Z</time></trkpt><trkpt lon="6.032482" lat="51.122768"><ele>16.8</ele><time>2022-05-08T08:29:18.000Z</time></trkpt><trkpt lon="6.03247" lat="51.122795"><ele>16.8</ele><time>2022-05-08T08:29:19.000Z</time></trkpt><trkpt lon="6.03244" lat="51.122824"><ele>16.8</ele><time>2022-05-08T08:29:20.000Z</time></trkpt><trkpt lon="6.032401" lat="51.122855"><ele>16.6</ele><time>2022-05-08T08:29:21.000Z</time></trkpt><trkpt lon="6.03235" lat="51.122892"><ele>16.6</ele><time>2022-05-08T08:29:22.000Z</time></trkpt><trkpt lon="6.032293" lat="51.12293"><ele>16.6</ele><time>2022-05-08T08:29:23.000Z</time></trkpt><trkpt lon="6.032233" lat="51.122966"><ele>16.6</ele><time>2022-05-08T08:29:24.000Z</time></trkpt><trkpt lon="6.032169" lat="51.123003"><ele>16.6</ele><time>2022-05-08T08:29:25.000Z</time></trkpt><trkpt lon="6.032106" lat="51.123041"><ele>16.6</ele><time>2022-05-08T08:29:26.000Z</time></trkpt><trkpt lon="6.032045" lat="51.123077"><ele>16.6</ele><time>2022-05-08T08:29:27.000Z</time></trkpt><trkpt lon="6.03198" lat="51.123114"><ele>16.6</ele><time>2022-05-08T08:29:28.000Z</time></trkpt><trkpt lon="6.031915" lat="51.123152"><ele>16.6</ele><time>2022-05-08T08:29:29.000Z</time></trkpt><trkpt lon="6.03185" lat="51.12319"><ele>16.6</ele><time>2022-05-08T08:29:30.000Z</time></trkpt><trkpt lon="6.031784" lat="51.12323"><ele>16.8</ele><time>2022-05-08T08:29:31.000Z</time></trkpt><trkpt lon="6.031718" lat="51.12327"><ele>16.8</ele><time>2022-05-08T08:29:32.000Z</time></trkpt><trkpt lon="6.031653" lat="51.12331"><ele>16.8</ele><time>2022-05-08T08:29:33.000Z</time></trkpt><trkpt lon="6.03159" lat="51.123354"><ele>16.8</ele><time>2022-05-08T08:29:34.000Z</time></trkpt><trkpt lon="6.031527" lat="51.123398"><ele>16.8</ele><time>2022-05-08T08:29:35.000Z</time></trkpt><trkpt lon="6.031465" lat="51.12344"><ele>16.6</ele><time>2022-05-08T08:29:36.000Z</time></trkpt><trkpt lon="6.031404" lat="51.123486"><ele>16.6</ele><time>2022-05-08T08:29:37.000Z</time></trkpt><trkpt lon="6.031345" lat="51.123534"><ele>16.6</ele><time>2022-05-08T08:29:38.000Z</time></trkpt><trkpt lon="6.031283" lat="51.123583"><ele>16.6</ele><time>2022-05-08T08:29:39.000Z</time></trkpt><trkpt lon="6.031221" lat="51.123633"><ele>16.4</ele><time>2022-05-08T08:29:40.000Z</time></trkpt><trkpt lon="6.031161" lat="51.123685"><ele>16.4</ele><time>2022-05-08T08:29:41.000Z</time></trkpt><trkpt lon="6.031106" lat="51.123738"><ele>16.2</ele><time>2022-05-08T08:29:42.000Z</time></trkpt><trkpt lon="6.031056" lat="51.123792"><ele>16.2</ele><time>2022-05-08T08:29:43.000Z</time></trkpt><trkpt lon="6.031007" lat="51.123848"><ele>16.2</ele><time>2022-05-08T08:29:44.000Z</time></trkpt><trkpt lon="6.03096" lat="51.123902"><ele>16.2</ele><time>2022-05-08T08:29:45.000Z</time></trkpt><trkpt lon="6.030915" lat="51.123957"><ele>16.4</ele><time>2022-05-08T08:29:46.000Z</time></trkpt><trkpt lon="6.030871" lat="51.124012"><ele>16.4</ele><time>2022-05-08T08:29:47.000Z</time></trkpt><trkpt lon="6.030828" lat="51.124066"><ele>16.4</ele><time>2022-05-08T08:29:48.000Z</time></trkpt><trkpt lon="6.030784" lat="51.12412"><ele>16.4</ele><time>2022-05-08T08:29:49.000Z</time></trkpt><trkpt lon="6.030741" lat="51.124173"><ele>16.2</ele><time>2022-05-08T08:29:50.000Z</time></trkpt><trkpt lon="6.030699" lat="51.124226"><ele>16.2</ele><time>2022-05-08T08:29:51.000Z</time></trkpt><trkpt lon="6.030658" lat="51.124277"><ele>16.2</ele><time>2022-05-08T08:29:52.000Z</time></trkpt><trkpt lon="6.030616" lat="51.124329"><ele>16</ele><time>2022-05-08T08:29:53.000Z</time></trkpt><trkpt lon="6.030571" lat="51.12438"><ele>16</ele><time>2022-05-08T08:29:54.000Z</time></trkpt><trkpt lon="6.03052" lat="51.124428"><ele>16</ele><time>2022-05-08T08:29:55.000Z</time></trkpt><trkpt lon="6.030464" lat="51.124476"><ele>16</ele><time>2022-05-08T08:29:56.000Z</time></trkpt><trkpt lon="6.030402" lat="51.124523"><ele>15.8</ele><time>2022-05-08T08:29:57.000Z</time></trkpt><trkpt lon="6.030335" lat="51.124571"><ele>15.8</ele><time>2022-05-08T08:29:58.000Z</time></trkpt><trkpt lon="6.030264" lat="51.124618"><ele>15.8</ele><time>2022-05-08T08:29:59.000Z</time></trkpt><trkpt lon="6.030192" lat="51.124666"><ele>16</ele><time>2022-05-08T08:30:00.000Z</time></trkpt><trkpt lon="6.030119" lat="51.124716"><ele>15.8</ele><time>2022-05-08T08:30:01.000Z</time></trkpt><trkpt lon="6.030045" lat="51.124761"><ele>16</ele><time>2022-05-08T08:30:02.000Z</time></trkpt><trkpt lon="6.029972" lat="51.124808"><ele>16</ele><time>2022-05-08T08:30:03.000Z</time></trkpt><trkpt lon="6.029898" lat="51.124855"><ele>16</ele><time>2022-05-08T08:30:04.000Z</time></trkpt><trkpt lon="6.029825" lat="51.124901"><ele>16</ele><time>2022-05-08T08:30:05.000Z</time></trkpt><trkpt lon="6.029752" lat="51.124947"><ele>16.2</ele><time>2022-05-08T08:30:06.000Z</time></trkpt><trkpt lon="6.029681" lat="51.124992"><ele>16.2</ele><time>2022-05-08T08:30:07.000Z</time></trkpt><trkpt lon="6.029609" lat="51.12504"><ele>16.2</ele><time>2022-05-08T08:30:08.000Z</time></trkpt><trkpt lon="6.029537" lat="51.125088"><ele>16.2</ele><time>2022-05-08T08:30:09.000Z</time></trkpt><trkpt lon="6.029464" lat="51.125134"><ele>16.4</ele><time>2022-05-08T08:30:10.000Z</time></trkpt><trkpt lon="6.029388" lat="51.125177"><ele>16.2</ele><time>2022-05-08T08:30:11.000Z</time></trkpt><trkpt lon="6.029308" lat="51.125219"><ele>16.4</ele><time>2022-05-08T08:30:12.000Z</time></trkpt><trkpt lon="6.029225" lat="51.125259"><ele>16.4</ele><time>2022-05-08T08:30:13.000Z</time></trkpt><trkpt lon="6.02914" lat="51.125295"><ele>16.4</ele><time>2022-05-08T08:30:14.000Z</time></trkpt><trkpt lon="6.029053" lat="51.125329"><ele>16.4</ele><time>2022-05-08T08:30:15.000Z</time></trkpt><trkpt lon="6.028964" lat="51.125363"><ele>16.4</ele><time>2022-05-08T08:30:16.000Z</time></trkpt><trkpt lon="6.028871" lat="51.125395"><ele>16.4</ele><time>2022-05-08T08:30:17.000Z</time></trkpt><trkpt lon="6.028777" lat="51.125424"><ele>16.6</ele><time>2022-05-08T08:30:18.000Z</time></trkpt><trkpt lon="6.028684" lat="51.125453"><ele>16.6</ele><time>2022-05-08T08:30:19.000Z</time></trkpt><trkpt lon="6.02859" lat="51.125479"><ele>16.6</ele><time>2022-05-08T08:30:20.000Z</time></trkpt><trkpt lon="6.028492" lat="51.125502"><ele>16.8</ele><time>2022-05-08T08:30:21.000Z</time></trkpt><trkpt lon="6.028391" lat="51.125522"><ele>16.8</ele><time>2022-05-08T08:30:22.000Z</time></trkpt><trkpt lon="6.028288" lat="51.125541"><ele>16.8</ele><time>2022-05-08T08:30:23.000Z</time></trkpt><trkpt lon="6.028185" lat="51.12556"><ele>16.6</ele><time>2022-05-08T08:30:24.000Z</time></trkpt><trkpt lon="6.028082" lat="51.125577"><ele>16.6</ele><time>2022-05-08T08:30:25.000Z</time></trkpt><trkpt lon="6.027977" lat="51.125592"><ele>16.6</ele><time>2022-05-08T08:30:26.000Z</time></trkpt><trkpt lon="6.02787" lat="51.125606"><ele>16.6</ele><time>2022-05-08T08:30:27.000Z</time></trkpt><trkpt lon="6.027763" lat="51.125617"><ele>16.6</ele><time>2022-05-08T08:30:28.000Z</time></trkpt><trkpt lon="6.027658" lat="51.125631"><ele>16.6</ele><time>2022-05-08T08:30:29.000Z</time></trkpt><trkpt lon="6.027554" lat="51.125644"><ele>16.6</ele><time>2022-05-08T08:30:30.000Z</time></trkpt><trkpt lon="6.027452" lat="51.125657"><ele>16.8</ele><time>2022-05-08T08:30:31.000Z</time></trkpt><trkpt lon="6.027351" lat="51.12567"><ele>16.8</ele><time>2022-05-08T08:30:32.000Z</time></trkpt><trkpt lon="6.027249" lat="51.125682"><ele>16.8</ele><time>2022-05-08T08:30:33.000Z</time></trkpt><trkpt lon="6.027147" lat="51.125696"><ele>17</ele><time>2022-05-08T08:30:34.000Z</time></trkpt><trkpt lon="6.027047" lat="51.125708"><ele>17</ele><time>2022-05-08T08:30:35.000Z</time></trkpt><trkpt lon="6.026946" lat="51.125722"><ele>17</ele><time>2022-05-08T08:30:36.000Z</time></trkpt><trkpt lon="6.026845" lat="51.125737"><ele>17</ele><time>2022-05-08T08:30:37.000Z</time></trkpt><trkpt lon="6.026747" lat="51.125755"><ele>17</ele><time>2022-05-08T08:30:38.000Z</time></trkpt><trkpt lon="6.026647" lat="51.125772"><ele>17</ele><time>2022-05-08T08:30:39.000Z</time></trkpt><trkpt lon="6.026547" lat="51.125791"><ele>17</ele><time>2022-05-08T08:30:40.000Z</time></trkpt><trkpt lon="6.026448" lat="51.125812"><ele>17</ele><time>2022-05-08T08:30:41.000Z</time></trkpt><trkpt lon="6.026348" lat="51.125836"><ele>17</ele><time>2022-05-08T08:30:42.000Z</time></trkpt><trkpt lon="6.026248" lat="51.125858"><ele>17</ele><time>2022-05-08T08:30:43.000Z</time></trkpt><trkpt lon="6.026147" lat="51.125879"><ele>17</ele><time>2022-05-08T08:30:44.000Z</time></trkpt><trkpt lon="6.026044" lat="51.125903"><ele>17</ele><time>2022-05-08T08:30:45.000Z</time></trkpt><trkpt lon="6.025941" lat="51.125928"><ele>17</ele><time>2022-05-08T08:30:46.000Z</time></trkpt><trkpt lon="6.025837" lat="51.125954"><ele>16.8</ele><time>2022-05-08T08:30:47.000Z</time></trkpt><trkpt lon="6.025731" lat="51.125978"><ele>17</ele><time>2022-05-08T08:30:48.000Z</time></trkpt><trkpt lon="6.025625" lat="51.125999"><ele>16.8</ele><time>2022-05-08T08:30:49.000Z</time></trkpt><trkpt lon="6.025519" lat="51.12602"><ele>16.8</ele><time>2022-05-08T08:30:50.000Z</time></trkpt><trkpt lon="6.025414" lat="51.126045"><ele>16.8</ele><time>2022-05-08T08:30:51.000Z</time></trkpt><trkpt lon="6.02531" lat="51.126068"><ele>16.8</ele><time>2022-05-08T08:30:52.000Z</time></trkpt><trkpt lon="6.025208" lat="51.126089"><ele>16.8</ele><time>2022-05-08T08:30:53.000Z</time></trkpt><trkpt lon="6.025105" lat="51.126112"><ele>16.8</ele><time>2022-05-08T08:30:54.000Z</time></trkpt><trkpt lon="6.025002" lat="51.126133"><ele>16.8</ele><time>2022-05-08T08:30:55.000Z</time></trkpt><trkpt lon="6.024901" lat="51.126152"><ele>16.8</ele><time>2022-05-08T08:30:56.000Z</time></trkpt><trkpt lon="6.024798" lat="51.126169"><ele>16.8</ele><time>2022-05-08T08:30:57.000Z</time></trkpt><trkpt lon="6.024699" lat="51.126184"><ele>16.8</ele><time>2022-05-08T08:30:58.000Z</time></trkpt><trkpt lon="6.024611" lat="51.126203"><ele>16.6</ele><time>2022-05-08T08:30:59.000Z</time></trkpt><trkpt lon="6.024533" lat="51.126226"><ele>16.6</ele><time>2022-05-08T08:31:00.000Z</time></trkpt><trkpt lon="6.024465" lat="51.126249"><ele>16.6</ele><time>2022-05-08T08:31:01.000Z</time></trkpt><trkpt lon="6.024407" lat="51.12627"><ele>16.6</ele><time>2022-05-08T08:31:02.000Z</time></trkpt><trkpt lon="6.024351" lat="51.126287"><ele>16.6</ele><time>2022-05-08T08:31:03.000Z</time></trkpt><trkpt lon="6.02429" lat="51.126293"><ele>16.6</ele><time>2022-05-08T08:31:04.000Z</time></trkpt><trkpt lon="6.024231" lat="51.126282"><ele>16.8</ele><time>2022-05-08T08:31:05.000Z</time></trkpt><trkpt lon="6.024176" lat="51.126252"><ele>16.8</ele><time>2022-05-08T08:31:06.000Z</time></trkpt><trkpt lon="6.024124" lat="51.12621"><ele>16.8</ele><time>2022-05-08T08:31:07.000Z</time></trkpt><trkpt lon="6.024074" lat="51.12616"><ele>16.8</ele><time>2022-05-08T08:31:08.000Z</time></trkpt><trkpt lon="6.02402" lat="51.126108"><ele>16.8</ele><time>2022-05-08T08:31:09.000Z</time></trkpt><trkpt lon="6.023962" lat="51.126054"><ele>16.8</ele><time>2022-05-08T08:31:10.000Z</time></trkpt><trkpt lon="6.023902" lat="51.125999"><ele>16.6</ele><time>2022-05-08T08:31:11.000Z</time></trkpt><trkpt lon="6.023839" lat="51.125943"><ele>16.6</ele><time>2022-05-08T08:31:12.000Z</time></trkpt><trkpt lon="6.023774" lat="51.125886"><ele>16.6</ele><time>2022-05-08T08:31:13.000Z</time></trkpt><trkpt lon="6.023711" lat="51.12583"><ele>16.6</ele><time>2022-05-08T08:31:14.000Z</time></trkpt><trkpt lon="6.023648" lat="51.125772"><ele>16.6</ele><time>2022-05-08T08:31:15.000Z</time></trkpt><trkpt lon="6.023586" lat="51.125712"><ele>16.4</ele><time>2022-05-08T08:31:16.000Z</time></trkpt><trkpt lon="6.023525" lat="51.125649"><ele>16.4</ele><time>2022-05-08T08:31:17.000Z</time></trkpt><trkpt lon="6.023469" lat="51.125584"><ele>16.4</ele><time>2022-05-08T08:31:18.000Z</time></trkpt><trkpt lon="6.023416" lat="51.12552"><ele>16.4</ele><time>2022-05-08T08:31:19.000Z</time></trkpt><trkpt lon="6.023362" lat="51.125455"><ele>16.2</ele><time>2022-05-08T08:31:20.000Z</time></trkpt><trkpt lon="6.023306" lat="51.125388"><ele>16.2</ele><time>2022-05-08T08:31:21.000Z</time></trkpt><trkpt lon="6.02325" lat="51.125321"><ele>16</ele><time>2022-05-08T08:31:22.000Z</time></trkpt><trkpt lon="6.023195" lat="51.125254"><ele>16</ele><time>2022-05-08T08:31:23.000Z</time></trkpt><trkpt lon="6.023143" lat="51.125185"><ele>15.8</ele><time>2022-05-08T08:31:24.000Z</time></trkpt><trkpt lon="6.023089" lat="51.125115"><ele>15.8</ele><time>2022-05-08T08:31:25.000Z</time></trkpt><trkpt lon="6.023032" lat="51.125042"><ele>15.8</ele><time>2022-05-08T08:31:26.000Z</time></trkpt><trkpt lon="6.022978" lat="51.12497"><ele>15.8</ele><time>2022-05-08T08:31:27.000Z</time></trkpt><trkpt lon="6.022923" lat="51.124899"><ele>15.8</ele><time>2022-05-08T08:31:28.000Z</time></trkpt><trkpt lon="6.022867" lat="51.124832"><ele>15.8</ele><time>2022-05-08T08:31:29.000Z</time></trkpt><trkpt lon="6.022809" lat="51.124768"><ele>16</ele><time>2022-05-08T08:31:30.000Z</time></trkpt><trkpt lon="6.022751" lat="51.124705"><ele>16</ele><time>2022-05-08T08:31:31.000Z</time></trkpt><trkpt lon="6.022688" lat="51.124647"><ele>16</ele><time>2022-05-08T08:31:32.000Z</time></trkpt><trkpt lon="6.022619" lat="51.124592"><ele>16</ele><time>2022-05-08T08:31:33.000Z</time></trkpt><trkpt lon="6.02254" lat="51.124538"><ele>16</ele><time>2022-05-08T08:31:34.000Z</time></trkpt><trkpt lon="6.022449" lat="51.124489"><ele>15.8</ele><time>2022-05-08T08:31:35.000Z</time></trkpt><trkpt lon="6.022348" lat="51.124445"><ele>15.8</ele><time>2022-05-08T08:31:36.000Z</time></trkpt><trkpt lon="6.022243" lat="51.124408"><ele>15.6</ele><time>2022-05-08T08:31:37.000Z</time></trkpt><trkpt lon="6.022135" lat="51.124374"><ele>15.6</ele><time>2022-05-08T08:31:38.000Z</time></trkpt><trkpt lon="6.022026" lat="51.124342"><ele>15.6</ele><time>2022-05-08T08:31:39.000Z</time></trkpt><trkpt lon="6.021915" lat="51.124311"><ele>15.6</ele><time>2022-05-08T08:31:40.000Z</time></trkpt><trkpt lon="6.021805" lat="51.12428"><ele>15.6</ele><time>2022-05-08T08:31:41.000Z</time></trkpt><trkpt lon="6.021696" lat="51.124248"><ele>15.6</ele><time>2022-05-08T08:31:42.000Z</time></trkpt><trkpt lon="6.021586" lat="51.124216"><ele>15.6</ele><time>2022-05-08T08:31:43.000Z</time></trkpt><trkpt lon="6.021476" lat="51.124183"><ele>15.6</ele><time>2022-05-08T08:31:44.000Z</time></trkpt><trkpt lon="6.021368" lat="51.124149"><ele>15.6</ele><time>2022-05-08T08:31:45.000Z</time></trkpt><trkpt lon="6.021262" lat="51.124114"><ele>15.8</ele><time>2022-05-08T08:31:46.000Z</time></trkpt><trkpt lon="6.021157" lat="51.12408"><ele>15.8</ele><time>2022-05-08T08:31:47.000Z</time></trkpt><trkpt lon="6.021054" lat="51.124045"><ele>15.6</ele><time>2022-05-08T08:31:48.000Z</time></trkpt><trkpt lon="6.020949" lat="51.124011"><ele>15.6</ele><time>2022-05-08T08:31:49.000Z</time></trkpt><trkpt lon="6.020845" lat="51.123977"><ele>15.6</ele><time>2022-05-08T08:31:50.000Z</time></trkpt><trkpt lon="6.020743" lat="51.12394"><ele>15.6</ele><time>2022-05-08T08:31:51.000Z</time></trkpt><trkpt lon="6.02064" lat="51.123904"><ele>15.6</ele><time>2022-05-08T08:31:52.000Z</time></trkpt><trkpt lon="6.020539" lat="51.12387"><ele>15.6</ele><time>2022-05-08T08:31:53.000Z</time></trkpt><trkpt lon="6.02044" lat="51.123833"><ele>15.4</ele><time>2022-05-08T08:31:54.000Z</time></trkpt><trkpt lon="6.02034" lat="51.123797"><ele>15.4</ele><time>2022-05-08T08:31:55.000Z</time></trkpt><trkpt lon="6.02024" lat="51.123763"><ele>15.4</ele><time>2022-05-08T08:31:56.000Z</time></trkpt><trkpt lon="6.02014" lat="51.123727"><ele>15.4</ele><time>2022-05-08T08:31:57.000Z</time></trkpt><trkpt lon="6.020039" lat="51.123691"><ele>15.4</ele><time>2022-05-08T08:31:58.000Z</time></trkpt><trkpt lon="6.019937" lat="51.123656"><ele>15.6</ele><time>2022-05-08T08:31:59.000Z</time></trkpt><trkpt lon="6.01984" lat="51.123622"><ele>15.6</ele><time>2022-05-08T08:32:00.000Z</time></trkpt><trkpt lon="6.019738" lat="51.123583"><ele>15.6</ele><time>2022-05-08T08:32:01.000Z</time></trkpt><trkpt lon="6.019636" lat="51.123539"><ele>15.6</ele><time>2022-05-08T08:32:02.000Z</time></trkpt><trkpt lon="6.019543" lat="51.123491"><ele>15.8</ele><time>2022-05-08T08:32:03.000Z</time></trkpt><trkpt lon="6.019456" lat="51.123439"><ele>15.8</ele><time>2022-05-08T08:32:04.000Z</time></trkpt><trkpt lon="6.01938" lat="51.123384"><ele>15.8</ele><time>2022-05-08T08:32:05.000Z</time></trkpt><trkpt lon="6.019314" lat="51.123322"><ele>15.8</ele><time>2022-05-08T08:32:06.000Z</time></trkpt><trkpt lon="6.019255" lat="51.123258"><ele>15.8</ele><time>2022-05-08T08:32:07.000Z</time></trkpt><trkpt lon="6.019206" lat="51.123191"><ele>15.6</ele><time>2022-05-08T08:32:08.000Z</time></trkpt><trkpt lon="6.019165" lat="51.12312"><ele>15.8</ele><time>2022-05-08T08:32:09.000Z</time></trkpt><trkpt lon="6.019133" lat="51.123049"><ele>15.8</ele><time>2022-05-08T08:32:10.000Z</time></trkpt><trkpt lon="6.019111" lat="51.122976"><ele>15.6</ele><time>2022-05-08T08:32:11.000Z</time></trkpt><trkpt lon="6.019097" lat="51.1229"><ele>15.6</ele><time>2022-05-08T08:32:12.000Z</time></trkpt><trkpt lon="6.019087" lat="51.122826"><ele>15.6</ele><time>2022-05-08T08:32:13.000Z</time></trkpt><trkpt lon="6.019079" lat="51.122753"><ele>15.6</ele><time>2022-05-08T08:32:14.000Z</time></trkpt><trkpt lon="6.019067" lat="51.12268"><ele>15.6</ele><time>2022-05-08T08:32:15.000Z</time></trkpt><trkpt lon="6.019055" lat="51.122607"><ele>15.6</ele><time>2022-05-08T08:32:16.000Z</time></trkpt><trkpt lon="6.019043" lat="51.122532"><ele>15.6</ele><time>2022-05-08T08:32:17.000Z</time></trkpt><trkpt lon="6.01903" lat="51.122459"><ele>15.6</ele><time>2022-05-08T08:32:18.000Z</time></trkpt><trkpt lon="6.019012" lat="51.122387"><ele>15.6</ele><time>2022-05-08T08:32:19.000Z</time></trkpt><trkpt lon="6.01899" lat="51.122319"><ele>15.6</ele><time>2022-05-08T08:32:20.000Z</time></trkpt><trkpt lon="6.018964" lat="51.122248"><ele>15.6</ele><time>2022-05-08T08:32:21.000Z</time></trkpt><trkpt lon="6.01893" lat="51.122175"><ele>15.6</ele><time>2022-05-08T08:32:22.000Z</time></trkpt><trkpt lon="6.01889" lat="51.122109"><ele>15.8</ele><time>2022-05-08T08:32:23.000Z</time></trkpt><trkpt lon="6.018846" lat="51.122044"><ele>15.8</ele><time>2022-05-08T08:32:24.000Z</time></trkpt><trkpt lon="6.018802" lat="51.12198"><ele>15.8</ele><time>2022-05-08T08:32:25.000Z</time></trkpt><trkpt lon="6.018757" lat="51.121915"><ele>15.8</ele><time>2022-05-08T08:32:26.000Z</time></trkpt><trkpt lon="6.018709" lat="51.12185"><ele>15.6</ele><time>2022-05-08T08:32:27.000Z</time></trkpt><trkpt lon="6.018661" lat="51.121785"><ele>15.6</ele><time>2022-05-08T08:32:28.000Z</time></trkpt><trkpt lon="6.018614" lat="51.121718"><ele>15.6</ele><time>2022-05-08T08:32:29.000Z</time></trkpt><trkpt lon="6.01857" lat="51.121653"><ele>15.4</ele><time>2022-05-08T08:32:30.000Z</time></trkpt><trkpt lon="6.018523" lat="51.121592"><ele>15.4</ele><time>2022-05-08T08:32:31.000Z</time></trkpt><trkpt lon="6.018475" lat="51.12153"><ele>15.4</ele><time>2022-05-08T08:32:32.000Z</time></trkpt><trkpt lon="6.018427" lat="51.121465"><ele>15.4</ele><time>2022-05-08T08:32:33.000Z</time></trkpt><trkpt lon="6.018378" lat="51.121399"><ele>15.4</ele><time>2022-05-08T08:32:34.000Z</time></trkpt><trkpt lon="6.018329" lat="51.121336"><ele>15.4</ele><time>2022-05-08T08:32:35.000Z</time></trkpt><trkpt lon="6.018276" lat="51.121276"><ele>15.6</ele><time>2022-05-08T08:32:36.000Z</time></trkpt><trkpt lon="6.018222" lat="51.121217"><ele>15.6</ele><time>2022-05-08T08:32:37.000Z</time></trkpt><trkpt lon="6.018171" lat="51.121157"><ele>15.6</ele><time>2022-05-08T08:32:38.000Z</time></trkpt><trkpt lon="6.018124" lat="51.121101"><ele>15.6</ele><time>2022-05-08T08:32:39.000Z</time></trkpt><trkpt lon="6.018081" lat="51.121045"><ele>15.6</ele><time>2022-05-08T08:32:40.000Z</time></trkpt><trkpt lon="6.018036" lat="51.120988"><ele>15.6</ele><time>2022-05-08T08:32:41.000Z</time></trkpt><trkpt lon="6.017989" lat="51.120931"><ele>15.6</ele><time>2022-05-08T08:32:42.000Z</time></trkpt><trkpt lon="6.017945" lat="51.120876"><ele>15.6</ele><time>2022-05-08T08:32:43.000Z</time></trkpt><trkpt lon="6.017903" lat="51.12082"><ele>15.8</ele><time>2022-05-08T08:32:44.000Z</time></trkpt><trkpt lon="6.017861" lat="51.120761"><ele>15.8</ele><time>2022-05-08T08:32:45.000Z</time></trkpt><trkpt lon="6.017816" lat="51.120702"><ele>15.8</ele><time>2022-05-08T08:32:46.000Z</time></trkpt><trkpt lon="6.017775" lat="51.120645"><ele>15.8</ele><time>2022-05-08T08:32:47.000Z</time></trkpt><trkpt lon="6.017739" lat="51.120587"><ele>15.8</ele><time>2022-05-08T08:32:48.000Z</time></trkpt><trkpt lon="6.017702" lat="51.120528"><ele>15.8</ele><time>2022-05-08T08:32:49.000Z</time></trkpt><trkpt lon="6.017667" lat="51.120469"><ele>15.8</ele><time>2022-05-08T08:32:50.000Z</time></trkpt><trkpt lon="6.017629" lat="51.120411"><ele>15.8</ele><time>2022-05-08T08:32:51.000Z</time></trkpt><trkpt lon="6.01759" lat="51.120357"><ele>15.8</ele><time>2022-05-08T08:32:52.000Z</time></trkpt><trkpt lon="6.017551" lat="51.120306"><ele>15.8</ele><time>2022-05-08T08:32:53.000Z</time></trkpt><trkpt lon="6.017498" lat="51.120257"><ele>15.8</ele><time>2022-05-08T08:32:54.000Z</time></trkpt><trkpt lon="6.01742" lat="51.120205"><ele>15.8</ele><time>2022-05-08T08:32:55.000Z</time></trkpt><trkpt lon="6.017321" lat="51.120162"><ele>15.8</ele><time>2022-05-08T08:32:56.000Z</time></trkpt><trkpt lon="6.017213" lat="51.120125"><ele>15.6</ele><time>2022-05-08T08:32:57.000Z</time></trkpt><trkpt lon="6.017097" lat="51.120087"><ele>15.6</ele><time>2022-05-08T08:32:58.000Z</time></trkpt><trkpt lon="6.016977" lat="51.120049"><ele>15.6</ele><time>2022-05-08T08:32:59.000Z</time></trkpt><trkpt lon="6.016857" lat="51.120009"><ele>15.6</ele><time>2022-05-08T08:33:00.000Z</time></trkpt><trkpt lon="6.01674" lat="51.119969"><ele>15.6</ele><time>2022-05-08T08:33:01.000Z</time></trkpt><trkpt lon="6.016629" lat="51.119936"><ele>15.6</ele><time>2022-05-08T08:33:02.000Z</time></trkpt><trkpt lon="6.01652" lat="51.119905"><ele>15.6</ele><time>2022-05-08T08:33:03.000Z</time></trkpt><trkpt lon="6.016412" lat="51.119875"><ele>15.8</ele><time>2022-05-08T08:33:04.000Z</time></trkpt><trkpt lon="6.016308" lat="51.119846"><ele>15.8</ele><time>2022-05-08T08:33:05.000Z</time></trkpt><trkpt lon="6.016207" lat="51.119815"><ele>15.8</ele><time>2022-05-08T08:33:06.000Z</time></trkpt><trkpt lon="6.016108" lat="51.119779"><ele>15.8</ele><time>2022-05-08T08:33:07.000Z</time></trkpt><trkpt lon="6.016012" lat="51.119738"><ele>15.8</ele><time>2022-05-08T08:33:08.000Z</time></trkpt><trkpt lon="6.015916" lat="51.119696"><ele>15.8</ele><time>2022-05-08T08:33:09.000Z</time></trkpt><trkpt lon="6.015826" lat="51.119652"><ele>15.8</ele><time>2022-05-08T08:33:10.000Z</time></trkpt><trkpt lon="6.015743" lat="51.119605"><ele>15.8</ele><time>2022-05-08T08:33:11.000Z</time></trkpt><trkpt lon="6.015663" lat="51.119553"><ele>15.8</ele><time>2022-05-08T08:33:12.000Z</time></trkpt><trkpt lon="6.015586" lat="51.1195"><ele>16</ele><time>2022-05-08T08:33:13.000Z</time></trkpt><trkpt lon="6.015512" lat="51.119444"><ele>16</ele><time>2022-05-08T08:33:14.000Z</time></trkpt><trkpt lon="6.015439" lat="51.119386"><ele>16</ele><time>2022-05-08T08:33:15.000Z</time></trkpt><trkpt lon="6.015371" lat="51.119329"><ele>16</ele><time>2022-05-08T08:33:16.000Z</time></trkpt><trkpt lon="6.015308" lat="51.119269"><ele>16</ele><time>2022-05-08T08:33:17.000Z</time></trkpt><trkpt lon="6.015243" lat="51.119206"><ele>16</ele><time>2022-05-08T08:33:18.000Z</time></trkpt><trkpt lon="6.015177" lat="51.119141"><ele>15.8</ele><time>2022-05-08T08:33:19.000Z</time></trkpt><trkpt lon="6.015123" lat="51.119088"><ele>15.8</ele><time>2022-05-08T08:33:20.000Z</time></trkpt><trkpt lon="6.015066" lat="51.11903"><ele>15.8</ele><time>2022-05-08T08:33:21.000Z</time></trkpt><trkpt lon="6.014994" lat="51.11895"><ele>15.8</ele><time>2022-05-08T08:33:22.000Z</time></trkpt><trkpt lon="6.014937" lat="51.118888"><ele>15.8</ele><time>2022-05-08T08:33:23.000Z</time></trkpt><trkpt lon="6.014878" lat="51.118827"><ele>15.8</ele><time>2022-05-08T08:33:24.000Z</time></trkpt><trkpt lon="6.014815" lat="51.118765"><ele>15.8</ele><time>2022-05-08T08:33:25.000Z</time></trkpt><trkpt lon="6.014751" lat="51.118703"><ele>15.8</ele><time>2022-05-08T08:33:26.000Z</time></trkpt><trkpt lon="6.014687" lat="51.118641"><ele>15.8</ele><time>2022-05-08T08:33:27.000Z</time></trkpt><trkpt lon="6.014624" lat="51.11858"><ele>15.8</ele><time>2022-05-08T08:33:28.000Z</time></trkpt><trkpt lon="6.014561" lat="51.118518"><ele>15.8</ele><time>2022-05-08T08:33:29.000Z</time></trkpt><trkpt lon="6.014499" lat="51.118457"><ele>15.8</ele><time>2022-05-08T08:33:30.000Z</time></trkpt><trkpt lon="6.014438" lat="51.118396"><ele>16</ele><time>2022-05-08T08:33:31.000Z</time></trkpt><trkpt lon="6.014378" lat="51.118335"><ele>16</ele><time>2022-05-08T08:33:32.000Z</time></trkpt><trkpt lon="6.014321" lat="51.118277"><ele>16</ele><time>2022-05-08T08:33:33.000Z</time></trkpt><trkpt lon="6.014257" lat="51.11822"><ele>16</ele><time>2022-05-08T08:33:34.000Z</time></trkpt><trkpt lon="6.014182" lat="51.118166"><ele>16</ele><time>2022-05-08T08:33:35.000Z</time></trkpt><trkpt lon="6.014097" lat="51.118116"><ele>16</ele><time>2022-05-08T08:33:36.000Z</time></trkpt><trkpt lon="6.014" lat="51.118074"><ele>16</ele><time>2022-05-08T08:33:37.000Z</time></trkpt><trkpt lon="6.013893" lat="51.11804"><ele>16</ele><time>2022-05-08T08:33:38.000Z</time></trkpt><trkpt lon="6.013783" lat="51.11801"><ele>16.2</ele><time>2022-05-08T08:33:39.000Z</time></trkpt><trkpt lon="6.013673" lat="51.117979"><ele>16.2</ele><time>2022-05-08T08:33:40.000Z</time></trkpt><trkpt lon="6.013563" lat="51.117948"><ele>16.2</ele><time>2022-05-08T08:33:41.000Z</time></trkpt><trkpt lon="6.013456" lat="51.117917"><ele>16.2</ele><time>2022-05-08T08:33:42.000Z</time></trkpt><trkpt lon="6.013358" lat="51.117889"><ele>16.4</ele><time>2022-05-08T08:33:43.000Z</time></trkpt><trkpt lon="6.013254" lat="51.117856"><ele>16.4</ele><time>2022-05-08T08:33:44.000Z</time></trkpt><trkpt lon="6.013152" lat="51.117826"><ele>16.4</ele><time>2022-05-08T08:33:45.000Z</time></trkpt><trkpt lon="6.013049" lat="51.117799"><ele>16.6</ele><time>2022-05-08T08:33:46.000Z</time></trkpt><trkpt lon="6.012931" lat="51.117766"><ele>16.6</ele><time>2022-05-08T08:33:47.000Z</time></trkpt><trkpt lon="6.012818" lat="51.117734"><ele>16.6</ele><time>2022-05-08T08:33:48.000Z</time></trkpt><trkpt lon="6.012709" lat="51.117704"><ele>16.6</ele><time>2022-05-08T08:33:49.000Z</time></trkpt><trkpt lon="6.012601" lat="51.117673"><ele>16.6</ele><time>2022-05-08T08:33:50.000Z</time></trkpt><trkpt lon="6.012498" lat="51.117644"><ele>16.6</ele><time>2022-05-08T08:33:51.000Z</time></trkpt><trkpt lon="6.012394" lat="51.117615"><ele>16.6</ele><time>2022-05-08T08:33:52.000Z</time></trkpt><trkpt lon="6.01229" lat="51.117586"><ele>16.6</ele><time>2022-05-08T08:33:53.000Z</time></trkpt><trkpt lon="6.012185" lat="51.117556"><ele>16.6</ele><time>2022-05-08T08:33:54.000Z</time></trkpt><trkpt lon="6.012081" lat="51.117527"><ele>16.6</ele><time>2022-05-08T08:33:55.000Z</time></trkpt><trkpt lon="6.011979" lat="51.117498"><ele>16.6</ele><time>2022-05-08T08:33:56.000Z</time></trkpt><trkpt lon="6.011872" lat="51.117467"><ele>16.6</ele><time>2022-05-08T08:33:57.000Z</time></trkpt><trkpt lon="6.011766" lat="51.117436"><ele>16.6</ele><time>2022-05-08T08:33:58.000Z</time></trkpt><trkpt lon="6.011655" lat="51.117405"><ele>16.6</ele><time>2022-05-08T08:33:59.000Z</time></trkpt><trkpt lon="6.01154" lat="51.117376"><ele>16.6</ele><time>2022-05-08T08:34:00.000Z</time></trkpt><trkpt lon="6.011428" lat="51.117341"><ele>16.4</ele><time>2022-05-08T08:34:01.000Z</time></trkpt><trkpt lon="6.011317" lat="51.117305"><ele>16.4</ele><time>2022-05-08T08:34:02.000Z</time></trkpt><trkpt lon="6.011211" lat="51.117274"><ele>16.4</ele><time>2022-05-08T08:34:03.000Z</time></trkpt><trkpt lon="6.011101" lat="51.117241"><ele>16.4</ele><time>2022-05-08T08:34:04.000Z</time></trkpt><trkpt lon="6.010997" lat="51.117209"><ele>16.4</ele><time>2022-05-08T08:34:05.000Z</time></trkpt><trkpt lon="6.010888" lat="51.117179"><ele>16.4</ele><time>2022-05-08T08:34:06.000Z</time></trkpt><trkpt lon="6.010775" lat="51.117147"><ele>16.4</ele><time>2022-05-08T08:34:07.000Z</time></trkpt><trkpt lon="6.010667" lat="51.117117"><ele>16.4</ele><time>2022-05-08T08:34:08.000Z</time></trkpt><trkpt lon="6.010559" lat="51.117086"><ele>16.4</ele><time>2022-05-08T08:34:09.000Z</time></trkpt><trkpt lon="6.010463" lat="51.117057"><ele>16.4</ele><time>2022-05-08T08:34:10.000Z</time></trkpt><trkpt lon="6.010357" lat="51.117025"><ele>16.4</ele><time>2022-05-08T08:34:11.000Z</time></trkpt><trkpt lon="6.010238" lat="51.116989"><ele>16.4</ele><time>2022-05-08T08:34:12.000Z</time></trkpt><trkpt lon="6.010143" lat="51.11696"><ele>16.4</ele><time>2022-05-08T08:34:13.000Z</time></trkpt><trkpt lon="6.010038" lat="51.116929"><ele>16.4</ele><time>2022-05-08T08:34:14.000Z</time></trkpt><trkpt lon="6.009918" lat="51.116893"><ele>16.4</ele><time>2022-05-08T08:34:15.000Z</time></trkpt><trkpt lon="6.009814" lat="51.116863"><ele>16.4</ele><time>2022-05-08T08:34:16.000Z</time></trkpt><trkpt lon="6.00971" lat="51.116832"><ele>16.4</ele><time>2022-05-08T08:34:17.000Z</time></trkpt><trkpt lon="6.009604" lat="51.1168"><ele>16.4</ele><time>2022-05-08T08:34:18.000Z</time></trkpt><trkpt lon="6.0095" lat="51.116769"><ele>16.4</ele><time>2022-05-08T08:34:19.000Z</time></trkpt><trkpt lon="6.009398" lat="51.116741"><ele>16.2</ele><time>2022-05-08T08:34:20.000Z</time></trkpt><trkpt lon="6.009292" lat="51.116713"><ele>16.2</ele><time>2022-05-08T08:34:21.000Z</time></trkpt><trkpt lon="6.009181" lat="51.116679"><ele>16.2</ele><time>2022-05-08T08:34:22.000Z</time></trkpt><trkpt lon="6.009074" lat="51.116645"><ele>16.2</ele><time>2022-05-08T08:34:23.000Z</time></trkpt><trkpt lon="6.008968" lat="51.116613"><ele>16</ele><time>2022-05-08T08:34:24.000Z</time></trkpt><trkpt lon="6.008862" lat="51.116585"><ele>16</ele><time>2022-05-08T08:34:25.000Z</time></trkpt><trkpt lon="6.008757" lat="51.116556"><ele>16</ele><time>2022-05-08T08:34:26.000Z</time></trkpt><trkpt lon="6.008651" lat="51.116525"><ele>16</ele><time>2022-05-08T08:34:27.000Z</time></trkpt><trkpt lon="6.008546" lat="51.116495"><ele>16.2</ele><time>2022-05-08T08:34:28.000Z</time></trkpt><trkpt lon="6.008441" lat="51.116464"><ele>16</ele><time>2022-05-08T08:34:29.000Z</time></trkpt><trkpt lon="6.008346" lat="51.116437"><ele>16</ele><time>2022-05-08T08:34:30.000Z</time></trkpt><trkpt lon="6.008241" lat="51.116407"><ele>16</ele><time>2022-05-08T08:34:31.000Z</time></trkpt><trkpt lon="6.008119" lat="51.116371"><ele>16</ele><time>2022-05-08T08:34:32.000Z</time></trkpt><trkpt lon="6.008013" lat="51.116339"><ele>16</ele><time>2022-05-08T08:34:33.000Z</time></trkpt><trkpt lon="6.007906" lat="51.116309"><ele>16</ele><time>2022-05-08T08:34:34.000Z</time></trkpt><trkpt lon="6.007799" lat="51.116278"><ele>16</ele><time>2022-05-08T08:34:35.000Z</time></trkpt><trkpt lon="6.00769" lat="51.116247"><ele>16</ele><time>2022-05-08T08:34:36.000Z</time></trkpt><trkpt lon="6.007583" lat="51.116216"><ele>16</ele><time>2022-05-08T08:34:37.000Z</time></trkpt><trkpt lon="6.007478" lat="51.116188"><ele>16</ele><time>2022-05-08T08:34:38.000Z</time></trkpt><trkpt lon="6.007373" lat="51.116159"><ele>16</ele><time>2022-05-08T08:34:39.000Z</time></trkpt><trkpt lon="6.007268" lat="51.116128"><ele>16</ele><time>2022-05-08T08:34:40.000Z</time></trkpt><trkpt lon="6.007163" lat="51.116098"><ele>16</ele><time>2022-05-08T08:34:41.000Z</time></trkpt><trkpt lon="6.007056" lat="51.116068"><ele>16</ele><time>2022-05-08T08:34:42.000Z</time></trkpt><trkpt lon="6.006949" lat="51.116037"><ele>16</ele><time>2022-05-08T08:34:43.000Z</time></trkpt><trkpt lon="6.006842" lat="51.116006"><ele>16</ele><time>2022-05-08T08:34:44.000Z</time></trkpt><trkpt lon="6.006733" lat="51.115976"><ele>16</ele><time>2022-05-08T08:34:45.000Z</time></trkpt><trkpt lon="6.006627" lat="51.115945"><ele>16</ele><time>2022-05-08T08:34:46.000Z</time></trkpt><trkpt lon="6.006521" lat="51.115913"><ele>16</ele><time>2022-05-08T08:34:47.000Z</time></trkpt><trkpt lon="6.006414" lat="51.115883"><ele>16</ele><time>2022-05-08T08:34:48.000Z</time></trkpt><trkpt lon="6.006314" lat="51.115856"><ele>16</ele><time>2022-05-08T08:34:49.000Z</time></trkpt><trkpt lon="6.006206" lat="51.115825"><ele>16</ele><time>2022-05-08T08:34:50.000Z</time></trkpt><trkpt lon="6.006092" lat="51.115793"><ele>16</ele><time>2022-05-08T08:34:51.000Z</time></trkpt><trkpt lon="6.005988" lat="51.11576"><ele>16</ele><time>2022-05-08T08:34:52.000Z</time></trkpt><trkpt lon="6.005884" lat="51.11573"><ele>16</ele><time>2022-05-08T08:34:53.000Z</time></trkpt><trkpt lon="6.00578" lat="51.115703"><ele>16</ele><time>2022-05-08T08:34:54.000Z</time></trkpt><trkpt lon="6.005675" lat="51.115674"><ele>16</ele><time>2022-05-08T08:34:55.000Z</time></trkpt><trkpt lon="6.005566" lat="51.115642"><ele>16</ele><time>2022-05-08T08:34:56.000Z</time></trkpt><trkpt lon="6.005459" lat="51.115609"><ele>16.2</ele><time>2022-05-08T08:34:57.000Z</time></trkpt><trkpt lon="6.005354" lat="51.115581"><ele>16.2</ele><time>2022-05-08T08:34:58.000Z</time></trkpt><trkpt lon="6.005255" lat="51.115555"><ele>16.2</ele><time>2022-05-08T08:34:59.000Z</time></trkpt><trkpt lon="6.00515" lat="51.115523"><ele>16.2</ele><time>2022-05-08T08:35:00.000Z</time></trkpt><trkpt lon="6.005034" lat="51.115488"><ele>16.2</ele><time>2022-05-08T08:35:01.000Z</time></trkpt><trkpt lon="6.004928" lat="51.115457"><ele>16.2</ele><time>2022-05-08T08:35:02.000Z</time></trkpt><trkpt lon="6.004826" lat="51.115427"><ele>16.2</ele><time>2022-05-08T08:35:03.000Z</time></trkpt><trkpt lon="6.00472" lat="51.115394"><ele>16.2</ele><time>2022-05-08T08:35:04.000Z</time></trkpt><trkpt lon="6.004612" lat="51.115362"><ele>16.2</ele><time>2022-05-08T08:35:05.000Z</time></trkpt><trkpt lon="6.0045" lat="51.115329"><ele>16.2</ele><time>2022-05-08T08:35:06.000Z</time></trkpt><trkpt lon="6.004388" lat="51.115297"><ele>16</ele><time>2022-05-08T08:35:07.000Z</time></trkpt><trkpt lon="6.004279" lat="51.115266"><ele>16</ele><time>2022-05-08T08:35:08.000Z</time></trkpt><trkpt lon="6.00417" lat="51.115233"><ele>16</ele><time>2022-05-08T08:35:09.000Z</time></trkpt><trkpt lon="6.004062" lat="51.115202"><ele>16</ele><time>2022-05-08T08:35:10.000Z</time></trkpt><trkpt lon="6.003956" lat="51.115172"><ele>16</ele><time>2022-05-08T08:35:11.000Z</time></trkpt><trkpt lon="6.003849" lat="51.115141"><ele>16</ele><time>2022-05-08T08:35:12.000Z</time></trkpt><trkpt lon="6.003742" lat="51.11511"><ele>16</ele><time>2022-05-08T08:35:13.000Z</time></trkpt><trkpt lon="6.003638" lat="51.115079"><ele>16</ele><time>2022-05-08T08:35:14.000Z</time></trkpt><trkpt lon="6.003535" lat="51.11505"><ele>16</ele><time>2022-05-08T08:35:15.000Z</time></trkpt><trkpt lon="6.003426" lat="51.115019"><ele>16</ele><time>2022-05-08T08:35:16.000Z</time></trkpt><trkpt lon="6.003316" lat="51.114988"><ele>16</ele><time>2022-05-08T08:35:17.000Z</time></trkpt><trkpt lon="6.00321" lat="51.114956"><ele>16</ele><time>2022-05-08T08:35:18.000Z</time></trkpt><trkpt lon="6.003099" lat="51.114923"><ele>15.8</ele><time>2022-05-08T08:35:19.000Z</time></trkpt><trkpt lon="6.002988" lat="51.114892"><ele>15.8</ele><time>2022-05-08T08:35:20.000Z</time></trkpt><trkpt lon="6.002879" lat="51.114862"><ele>16</ele><time>2022-05-08T08:35:21.000Z</time></trkpt><trkpt lon="6.00277" lat="51.114831"><ele>16</ele><time>2022-05-08T08:35:22.000Z</time></trkpt><trkpt lon="6.002663" lat="51.114801"><ele>16</ele><time>2022-05-08T08:35:23.000Z</time></trkpt><trkpt lon="6.002558" lat="51.11477"><ele>16</ele><time>2022-05-08T08:35:24.000Z</time></trkpt><trkpt lon="6.002461" lat="51.114742"><ele>16</ele><time>2022-05-08T08:35:25.000Z</time></trkpt><trkpt lon="6.002365" lat="51.114714"><ele>16</ele><time>2022-05-08T08:35:26.000Z</time></trkpt><trkpt lon="6.002253" lat="51.114681"><ele>16</ele><time>2022-05-08T08:35:27.000Z</time></trkpt><trkpt lon="6.002138" lat="51.114646"><ele>16</ele><time>2022-05-08T08:35:28.000Z</time></trkpt><trkpt lon="6.002028" lat="51.114614"><ele>16</ele><time>2022-05-08T08:35:29.000Z</time></trkpt><trkpt lon="6.00192" lat="51.114584"><ele>16</ele><time>2022-05-08T08:35:30.000Z</time></trkpt><trkpt lon="6.001811" lat="51.114554"><ele>16</ele><time>2022-05-08T08:35:31.000Z</time></trkpt><trkpt lon="6.001705" lat="51.114526"><ele>16</ele><time>2022-05-08T08:35:32.000Z</time></trkpt><trkpt lon="6.001596" lat="51.114497"><ele>16</ele><time>2022-05-08T08:35:33.000Z</time></trkpt><trkpt lon="6.001484" lat="51.114463"><ele>16</ele><time>2022-05-08T08:35:34.000Z</time></trkpt><trkpt lon="6.001377" lat="51.114429"><ele>16</ele><time>2022-05-08T08:35:35.000Z</time></trkpt><trkpt lon="6.001271" lat="51.114394"><ele>16</ele><time>2022-05-08T08:35:36.000Z</time></trkpt><trkpt lon="6.001172" lat="51.11436"><ele>16</ele><time>2022-05-08T08:35:37.000Z</time></trkpt><trkpt lon="6.001085" lat="51.114324"><ele>16.2</ele><time>2022-05-08T08:35:38.000Z</time></trkpt><trkpt lon="6.001013" lat="51.114283"><ele>16.2</ele><time>2022-05-08T08:35:39.000Z</time></trkpt><trkpt lon="6.000951" lat="51.114239"><ele>16.4</ele><time>2022-05-08T08:35:40.000Z</time></trkpt><trkpt lon="6.000907" lat="51.114188"><ele>16.4</ele><time>2022-05-08T08:35:41.000Z</time></trkpt><trkpt lon="6.000883" lat="51.114131"><ele>16.6</ele><time>2022-05-08T08:35:42.000Z</time></trkpt><trkpt lon="6.000868" lat="51.114071"><ele>16.6</ele><time>2022-05-08T08:35:43.000Z</time></trkpt><trkpt lon="6.000852" lat="51.114007"><ele>16.6</ele><time>2022-05-08T08:35:44.000Z</time></trkpt><trkpt lon="6.000834" lat="51.113939"><ele>16.8</ele><time>2022-05-08T08:35:45.000Z</time></trkpt><trkpt lon="6.000821" lat="51.113878"><ele>17</ele><time>2022-05-08T08:35:46.000Z</time></trkpt><trkpt lon="6.00081" lat="51.113813"><ele>17</ele><time>2022-05-08T08:35:47.000Z</time></trkpt><trkpt lon="6.000803" lat="51.113744"><ele>17.2</ele><time>2022-05-08T08:35:48.000Z</time></trkpt><trkpt lon="6.000803" lat="51.113682"><ele>17.2</ele><time>2022-05-08T08:35:49.000Z</time></trkpt><trkpt lon="6.000806" lat="51.113621"><ele>17.4</ele><time>2022-05-08T08:35:50.000Z</time></trkpt><trkpt lon="6.000808" lat="51.113556"><ele>17.6</ele><time>2022-05-08T08:35:51.000Z</time></trkpt><trkpt lon="6.00081" lat="51.113495"><ele>17.6</ele><time>2022-05-08T08:35:52.000Z</time></trkpt><trkpt lon="6.000814" lat="51.113436"><ele>17.8</ele><time>2022-05-08T08:35:53.000Z</time></trkpt><trkpt lon="6.000819" lat="51.113377"><ele>17.8</ele><time>2022-05-08T08:35:54.000Z</time></trkpt><trkpt lon="6.000822" lat="51.113315"><ele>17.8</ele><time>2022-05-08T08:35:55.000Z</time></trkpt><trkpt lon="6.000823" lat="51.113254"><ele>18</ele><time>2022-05-08T08:35:56.000Z</time></trkpt><trkpt lon="6.000817" lat="51.113186"><ele>18</ele><time>2022-05-08T08:35:57.000Z</time></trkpt><trkpt lon="6.000806" lat="51.113118"><ele>18</ele><time>2022-05-08T08:35:58.000Z</time></trkpt><trkpt lon="6.000801" lat="51.113048"><ele>18.2</ele><time>2022-05-08T08:35:59.000Z</time></trkpt><trkpt lon="6.000802" lat="51.112978"><ele>18.2</ele><time>2022-05-08T08:36:00.000Z</time></trkpt><trkpt lon="6.000805" lat="51.112909"><ele>18.2</ele><time>2022-05-08T08:36:01.000Z</time></trkpt><trkpt lon="6.000808" lat="51.112839"><ele>18.4</ele><time>2022-05-08T08:36:02.000Z</time></trkpt><trkpt lon="6.000805" lat="51.112769"><ele>18.4</ele><time>2022-05-08T08:36:03.000Z</time></trkpt><trkpt lon="6.000802" lat="51.112698"><ele>18.4</ele><time>2022-05-08T08:36:04.000Z</time></trkpt><trkpt lon="6.000797" lat="51.112627"><ele>18.4</ele><time>2022-05-08T08:36:05.000Z</time></trkpt><trkpt lon="6.000791" lat="51.112549"><ele>18.4</ele><time>2022-05-08T08:36:06.000Z</time></trkpt><trkpt lon="6.000787" lat="51.11247"><ele>18.6</ele><time>2022-05-08T08:36:07.000Z</time></trkpt><trkpt lon="6.000786" lat="51.112396"><ele>18.6</ele><time>2022-05-08T08:36:08.000Z</time></trkpt><trkpt lon="6.000784" lat="51.112322"><ele>18.6</ele><time>2022-05-08T08:36:09.000Z</time></trkpt><trkpt lon="6.00078" lat="51.11225"><ele>18.6</ele><time>2022-05-08T08:36:10.000Z</time></trkpt><trkpt lon="6.000776" lat="51.112179"><ele>18.6</ele><time>2022-05-08T08:36:11.000Z</time></trkpt><trkpt lon="6.000771" lat="51.112111"><ele>18.6</ele><time>2022-05-08T08:36:12.000Z</time></trkpt><trkpt lon="6.000768" lat="51.112042"><ele>18.4</ele><time>2022-05-08T08:36:13.000Z</time></trkpt><trkpt lon="6.000765" lat="51.111973"><ele>18.6</ele><time>2022-05-08T08:36:14.000Z</time></trkpt><trkpt lon="6.00076" lat="51.111906"><ele>18.6</ele><time>2022-05-08T08:36:15.000Z</time></trkpt><trkpt lon="6.000757" lat="51.111842"><ele>18.4</ele><time>2022-05-08T08:36:16.000Z</time></trkpt><trkpt lon="6.000756" lat="51.111773"><ele>18.4</ele><time>2022-05-08T08:36:17.000Z</time></trkpt><trkpt lon="6.000755" lat="51.111688"><ele>18.4</ele><time>2022-05-08T08:36:18.000Z</time></trkpt><trkpt lon="6.000753" lat="51.111609"><ele>18.4</ele><time>2022-05-08T08:36:19.000Z</time></trkpt><trkpt lon="6.000751" lat="51.111533"><ele>18.4</ele><time>2022-05-08T08:36:20.000Z</time></trkpt><trkpt lon="6.00075" lat="51.111467"><ele>18.4</ele><time>2022-05-08T08:36:21.000Z</time></trkpt><trkpt lon="6.000746" lat="51.111394"><ele>18.4</ele><time>2022-05-08T08:36:22.000Z</time></trkpt><trkpt lon="6.00074" lat="51.111308"><ele>18.4</ele><time>2022-05-08T08:36:23.000Z</time></trkpt><trkpt lon="6.000736" lat="51.111239"><ele>18.6</ele><time>2022-05-08T08:36:24.000Z</time></trkpt><trkpt lon="6.000737" lat="51.111167"><ele>18.6</ele><time>2022-05-08T08:36:25.000Z</time></trkpt><trkpt lon="6.000738" lat="51.111095"><ele>18.6</ele><time>2022-05-08T08:36:26.000Z</time></trkpt><trkpt lon="6.000736" lat="51.111018"><ele>18.8</ele><time>2022-05-08T08:36:27.000Z</time></trkpt><trkpt lon="6.000734" lat="51.110941"><ele>18.8</ele><time>2022-05-08T08:36:28.000Z</time></trkpt><trkpt lon="6.000732" lat="51.110862"><ele>18.8</ele><time>2022-05-08T08:36:29.000Z</time></trkpt><trkpt lon="6.000728" lat="51.11078"><ele>18.6</ele><time>2022-05-08T08:36:30.000Z</time></trkpt><trkpt lon="6.000721" lat="51.110696"><ele>18.6</ele><time>2022-05-08T08:36:31.000Z</time></trkpt><trkpt lon="6.000714" lat="51.110614"><ele>18.6</ele><time>2022-05-08T08:36:32.000Z</time></trkpt><trkpt lon="6.000707" lat="51.110534"><ele>18.6</ele><time>2022-05-08T08:36:33.000Z</time></trkpt><trkpt lon="6.000699" lat="51.110458"><ele>18.6</ele><time>2022-05-08T08:36:34.000Z</time></trkpt><trkpt lon="6.000683" lat="51.110386"><ele>18.6</ele><time>2022-05-08T08:36:35.000Z</time></trkpt><trkpt lon="6.000657" lat="51.110318"><ele>18.6</ele><time>2022-05-08T08:36:36.000Z</time></trkpt><trkpt lon="6.000623" lat="51.110254"><ele>18.4</ele><time>2022-05-08T08:36:37.000Z</time></trkpt><trkpt lon="6.000583" lat="51.110193"><ele>18.4</ele><time>2022-05-08T08:36:38.000Z</time></trkpt><trkpt lon="6.000539" lat="51.110131"><ele>18.4</ele><time>2022-05-08T08:36:39.000Z</time></trkpt><trkpt lon="6.000494" lat="51.110072"><ele>18.4</ele><time>2022-05-08T08:36:40.000Z</time></trkpt><trkpt lon="6.000444" lat="51.110017"><ele>18.4</ele><time>2022-05-08T08:36:41.000Z</time></trkpt><trkpt lon="6.000381" lat="51.109961"><ele>18.4</ele><time>2022-05-08T08:36:42.000Z</time></trkpt><trkpt lon="6.000302" lat="51.109905"><ele>18.4</ele><time>2022-05-08T08:36:43.000Z</time></trkpt><trkpt lon="6.000212" lat="51.109853"><ele>18.4</ele><time>2022-05-08T08:36:44.000Z</time></trkpt><trkpt lon="6.000121" lat="51.109808"><ele>18.4</ele><time>2022-05-08T08:36:45.000Z</time></trkpt><trkpt lon="6.00002" lat="51.109762"><ele>18.4</ele><time>2022-05-08T08:36:46.000Z</time></trkpt><trkpt lon="5.999907" lat="51.109719"><ele>18.4</ele><time>2022-05-08T08:36:47.000Z</time></trkpt><trkpt lon="5.9998" lat="51.109681"><ele>18.4</ele><time>2022-05-08T08:36:48.000Z</time></trkpt><trkpt lon="5.999697" lat="51.109641"><ele>18.4</ele><time>2022-05-08T08:36:49.000Z</time></trkpt><trkpt lon="5.999594" lat="51.109601"><ele>18.4</ele><time>2022-05-08T08:36:50.000Z</time></trkpt><trkpt lon="5.99949" lat="51.109563"><ele>18.4</ele><time>2022-05-08T08:36:51.000Z</time></trkpt><trkpt lon="5.999385" lat="51.109522"><ele>18.6</ele><time>2022-05-08T08:36:52.000Z</time></trkpt><trkpt lon="5.999282" lat="51.109483"><ele>18.8</ele><time>2022-05-08T08:36:53.000Z</time></trkpt><trkpt lon="5.999177" lat="51.109445"><ele>18.8</ele><time>2022-05-08T08:36:54.000Z</time></trkpt><trkpt lon="5.999075" lat="51.109407"><ele>19</ele><time>2022-05-08T08:36:55.000Z</time></trkpt><trkpt lon="5.998973" lat="51.10937"><ele>19</ele><time>2022-05-08T08:36:56.000Z</time></trkpt><trkpt lon="5.998874" lat="51.109337"><ele>19</ele><time>2022-05-08T08:36:57.000Z</time></trkpt><trkpt lon="5.998772" lat="51.109302"><ele>19</ele><time>2022-05-08T08:36:58.000Z</time></trkpt><trkpt lon="5.998667" lat="51.109267"><ele>19.2</ele><time>2022-05-08T08:36:59.000Z</time></trkpt><trkpt lon="5.998568" lat="51.109231"><ele>19</ele><time>2022-05-08T08:37:00.000Z</time></trkpt><trkpt lon="5.998471" lat="51.109196"><ele>19</ele><time>2022-05-08T08:37:01.000Z</time></trkpt><trkpt lon="5.998371" lat="51.109161"><ele>19.2</ele><time>2022-05-08T08:37:02.000Z</time></trkpt><trkpt lon="5.998271" lat="51.109124"><ele>19.2</ele><time>2022-05-08T08:37:03.000Z</time></trkpt><trkpt lon="5.998171" lat="51.109088"><ele>19</ele><time>2022-05-08T08:37:04.000Z</time></trkpt><trkpt lon="5.998072" lat="51.109053"><ele>18.8</ele><time>2022-05-08T08:37:05.000Z</time></trkpt><trkpt lon="5.997973" lat="51.109017"><ele>18.8</ele><time>2022-05-08T08:37:06.000Z</time></trkpt><trkpt lon="5.99787" lat="51.10898"><ele>18.8</ele><time>2022-05-08T08:37:07.000Z</time></trkpt><trkpt lon="5.997767" lat="51.108941"><ele>18.8</ele><time>2022-05-08T08:37:08.000Z</time></trkpt><trkpt lon="5.997671" lat="51.108907"><ele>18.8</ele><time>2022-05-08T08:37:09.000Z</time></trkpt><trkpt lon="5.997568" lat="51.108873"><ele>18.8</ele><time>2022-05-08T08:37:10.000Z</time></trkpt><trkpt lon="5.997461" lat="51.108836"><ele>18.8</ele><time>2022-05-08T08:37:11.000Z</time></trkpt><trkpt lon="5.997359" lat="51.1088"><ele>18.8</ele><time>2022-05-08T08:37:12.000Z</time></trkpt><trkpt lon="5.997258" lat="51.108764"><ele>18.8</ele><time>2022-05-08T08:37:13.000Z</time></trkpt><trkpt lon="5.997158" lat="51.108727"><ele>18.8</ele><time>2022-05-08T08:37:14.000Z</time></trkpt><trkpt lon="5.99706" lat="51.108689"><ele>18.8</ele><time>2022-05-08T08:37:15.000Z</time></trkpt><trkpt lon="5.99696" lat="51.108652"><ele>19</ele><time>2022-05-08T08:37:16.000Z</time></trkpt><trkpt lon="5.996854" lat="51.108615"><ele>19</ele><time>2022-05-08T08:37:17.000Z</time></trkpt><trkpt lon="5.996746" lat="51.108581"><ele>19</ele><time>2022-05-08T08:37:18.000Z</time></trkpt><trkpt lon="5.996639" lat="51.108544"><ele>19</ele><time>2022-05-08T08:37:19.000Z</time></trkpt><trkpt lon="5.99653" lat="51.108508"><ele>19.2</ele><time>2022-05-08T08:37:20.000Z</time></trkpt><trkpt lon="5.996422" lat="51.108473"><ele>19</ele><time>2022-05-08T08:37:21.000Z</time></trkpt><trkpt lon="5.996313" lat="51.108434"><ele>19</ele><time>2022-05-08T08:37:22.000Z</time></trkpt><trkpt lon="5.996204" lat="51.108396"><ele>19</ele><time>2022-05-08T08:37:23.000Z</time></trkpt><trkpt lon="5.996095" lat="51.108357"><ele>19</ele><time>2022-05-08T08:37:24.000Z</time></trkpt><trkpt lon="5.995988" lat="51.10832"><ele>18.8</ele><time>2022-05-08T08:37:25.000Z</time></trkpt><trkpt lon="5.995882" lat="51.108282"><ele>19</ele><time>2022-05-08T08:37:26.000Z</time></trkpt><trkpt lon="5.995776" lat="51.108245"><ele>19</ele><time>2022-05-08T08:37:27.000Z</time></trkpt><trkpt lon="5.995664" lat="51.108205"><ele>18.8</ele><time>2022-05-08T08:37:28.000Z</time></trkpt><trkpt lon="5.995552" lat="51.108166"><ele>18.8</ele><time>2022-05-08T08:37:29.000Z</time></trkpt><trkpt lon="5.995443" lat="51.108128"><ele>18.8</ele><time>2022-05-08T08:37:30.000Z</time></trkpt><trkpt lon="5.995333" lat="51.108088"><ele>18.8</ele><time>2022-05-08T08:37:31.000Z</time></trkpt><trkpt lon="5.995221" lat="51.108051"><ele>18.8</ele><time>2022-05-08T08:37:32.000Z</time></trkpt><trkpt lon="5.995121" lat="51.108018"><ele>18.6</ele><time>2022-05-08T08:37:33.000Z</time></trkpt><trkpt lon="5.995012" lat="51.107979"><ele>18.6</ele><time>2022-05-08T08:37:34.000Z</time></trkpt><trkpt lon="5.994888" lat="51.107934"><ele>18.6</ele><time>2022-05-08T08:37:35.000Z</time></trkpt><trkpt lon="5.99478" lat="51.107895"><ele>18.6</ele><time>2022-05-08T08:37:36.000Z</time></trkpt><trkpt lon="5.994676" lat="51.107858"><ele>18.4</ele><time>2022-05-08T08:37:37.000Z</time></trkpt><trkpt lon="5.994568" lat="51.10782"><ele>18.2</ele><time>2022-05-08T08:37:38.000Z</time></trkpt><trkpt lon="5.994458" lat="51.107781"><ele>18.4</ele><time>2022-05-08T08:37:39.000Z</time></trkpt><trkpt lon="5.994352" lat="51.107741"><ele>18.4</ele><time>2022-05-08T08:37:40.000Z</time></trkpt><trkpt lon="5.994249" lat="51.107699"><ele>18.4</ele><time>2022-05-08T08:37:41.000Z</time></trkpt><trkpt lon="5.994148" lat="51.107657"><ele>18.6</ele><time>2022-05-08T08:37:42.000Z</time></trkpt><trkpt lon="5.994046" lat="51.107615"><ele>18.6</ele><time>2022-05-08T08:37:43.000Z</time></trkpt><trkpt lon="5.993941" lat="51.10757"><ele>18.6</ele><time>2022-05-08T08:37:44.000Z</time></trkpt><trkpt lon="5.99384" lat="51.107526"><ele>18.6</ele><time>2022-05-08T08:37:45.000Z</time></trkpt><trkpt lon="5.99374" lat="51.10748"><ele>18.6</ele><time>2022-05-08T08:37:46.000Z</time></trkpt><trkpt lon="5.993642" lat="51.107431"><ele>18.6</ele><time>2022-05-08T08:37:47.000Z</time></trkpt><trkpt lon="5.993543" lat="51.107381"><ele>18.6</ele><time>2022-05-08T08:37:48.000Z</time></trkpt><trkpt lon="5.993447" lat="51.107332"><ele>18.6</ele><time>2022-05-08T08:37:49.000Z</time></trkpt><trkpt lon="5.993356" lat="51.10728"><ele>18.6</ele><time>2022-05-08T08:37:50.000Z</time></trkpt><trkpt lon="5.993266" lat="51.107227"><ele>18.6</ele><time>2022-05-08T08:37:51.000Z</time></trkpt><trkpt lon="5.993174" lat="51.107174"><ele>18.6</ele><time>2022-05-08T08:37:52.000Z</time></trkpt><trkpt lon="5.993081" lat="51.10712"><ele>18.6</ele><time>2022-05-08T08:37:53.000Z</time></trkpt><trkpt lon="5.992988" lat="51.107066"><ele>18.6</ele><time>2022-05-08T08:37:54.000Z</time></trkpt><trkpt lon="5.992898" lat="51.107014"><ele>18.6</ele><time>2022-05-08T08:37:55.000Z</time></trkpt><trkpt lon="5.992807" lat="51.106958"><ele>18.6</ele><time>2022-05-08T08:37:56.000Z</time></trkpt><trkpt lon="5.992715" lat="51.106902"><ele>18.6</ele><time>2022-05-08T08:37:57.000Z</time></trkpt><trkpt lon="5.992625" lat="51.106847"><ele>18.6</ele><time>2022-05-08T08:37:58.000Z</time></trkpt><trkpt lon="5.992536" lat="51.106792"><ele>18.6</ele><time>2022-05-08T08:37:59.000Z</time></trkpt><trkpt lon="5.992452" lat="51.106738"><ele>18.6</ele><time>2022-05-08T08:38:00.000Z</time></trkpt><trkpt lon="5.992365" lat="51.106683"><ele>18.6</ele><time>2022-05-08T08:38:01.000Z</time></trkpt><trkpt lon="5.992284" lat="51.106633"><ele>18.4</ele><time>2022-05-08T08:38:02.000Z</time></trkpt><trkpt lon="5.992197" lat="51.106581"><ele>18.4</ele><time>2022-05-08T08:38:03.000Z</time></trkpt><trkpt lon="5.992098" lat="51.106521"><ele>18.2</ele><time>2022-05-08T08:38:04.000Z</time></trkpt><trkpt lon="5.99201" lat="51.10647"><ele>18</ele><time>2022-05-08T08:38:05.000Z</time></trkpt><trkpt lon="5.991924" lat="51.106418"><ele>17.8</ele><time>2022-05-08T08:38:06.000Z</time></trkpt><trkpt lon="5.991837" lat="51.106367"><ele>17.8</ele><time>2022-05-08T08:38:07.000Z</time></trkpt><trkpt lon="5.991751" lat="51.106315"><ele>18</ele><time>2022-05-08T08:38:08.000Z</time></trkpt><trkpt lon="5.991665" lat="51.106264"><ele>18</ele><time>2022-05-08T08:38:09.000Z</time></trkpt><trkpt lon="5.991578" lat="51.106216"><ele>18.2</ele><time>2022-05-08T08:38:10.000Z</time></trkpt><trkpt lon="5.991489" lat="51.106163"><ele>18.2</ele><time>2022-05-08T08:38:11.000Z</time></trkpt><trkpt lon="5.991401" lat="51.10611"><ele>18.2</ele><time>2022-05-08T08:38:12.000Z</time></trkpt><trkpt lon="5.991324" lat="51.106063"><ele>18.2</ele><time>2022-05-08T08:38:13.000Z</time></trkpt><trkpt lon="5.991238" lat="51.106011"><ele>18.2</ele><time>2022-05-08T08:38:14.000Z</time></trkpt><trkpt lon="5.991133" lat="51.105949"><ele>18.2</ele><time>2022-05-08T08:38:15.000Z</time></trkpt><trkpt lon="5.991045" lat="51.105897"><ele>18.2</ele><time>2022-05-08T08:38:16.000Z</time></trkpt><trkpt lon="5.990954" lat="51.105843"><ele>18.2</ele><time>2022-05-08T08:38:17.000Z</time></trkpt><trkpt lon="5.990862" lat="51.105789"><ele>18.2</ele><time>2022-05-08T08:38:18.000Z</time></trkpt><trkpt lon="5.99077" lat="51.105735"><ele>18.2</ele><time>2022-05-08T08:38:19.000Z</time></trkpt><trkpt lon="5.99068" lat="51.10568"><ele>18.4</ele><time>2022-05-08T08:38:20.000Z</time></trkpt><trkpt lon="5.990588" lat="51.105623"><ele>18.4</ele><time>2022-05-08T08:38:21.000Z</time></trkpt><trkpt lon="5.990494" lat="51.105567"><ele>18.4</ele><time>2022-05-08T08:38:22.000Z</time></trkpt><trkpt lon="5.990402" lat="51.105514"><ele>18.4</ele><time>2022-05-08T08:38:23.000Z</time></trkpt><trkpt lon="5.99031" lat="51.105458"><ele>18.4</ele><time>2022-05-08T08:38:24.000Z</time></trkpt><trkpt lon="5.990224" lat="51.105406"><ele>18.4</ele><time>2022-05-08T08:38:25.000Z</time></trkpt><trkpt lon="5.990132" lat="51.105353"><ele>18.4</ele><time>2022-05-08T08:38:26.000Z</time></trkpt><trkpt lon="5.990037" lat="51.105297"><ele>18.4</ele><time>2022-05-08T08:38:27.000Z</time></trkpt><trkpt lon="5.989946" lat="51.105241"><ele>18.4</ele><time>2022-05-08T08:38:28.000Z</time></trkpt><trkpt lon="5.989866" lat="51.105193"><ele>18.4</ele><time>2022-05-08T08:38:29.000Z</time></trkpt><trkpt lon="5.989775" lat="51.105142"><ele>18.2</ele><time>2022-05-08T08:38:30.000Z</time></trkpt><trkpt lon="5.989661" lat="51.105081"><ele>18.2</ele><time>2022-05-08T08:38:31.000Z</time></trkpt><trkpt lon="5.989561" lat="51.105032"><ele>18.2</ele><time>2022-05-08T08:38:32.000Z</time></trkpt><trkpt lon="5.989469" lat="51.104986"><ele>18.2</ele><time>2022-05-08T08:38:33.000Z</time></trkpt><trkpt lon="5.989368" lat="51.104939"><ele>18.2</ele><time>2022-05-08T08:38:34.000Z</time></trkpt><trkpt lon="5.98926" lat="51.10489"><ele>18.2</ele><time>2022-05-08T08:38:35.000Z</time></trkpt><trkpt lon="5.989158" lat="51.104849"><ele>18</ele><time>2022-05-08T08:38:36.000Z</time></trkpt><trkpt lon="5.989054" lat="51.104807"><ele>18</ele><time>2022-05-08T08:38:37.000Z</time></trkpt><trkpt lon="5.988953" lat="51.104765"><ele>18.2</ele><time>2022-05-08T08:38:38.000Z</time></trkpt><trkpt lon="5.988852" lat="51.104726"><ele>18.2</ele><time>2022-05-08T08:38:39.000Z</time></trkpt><trkpt lon="5.988752" lat="51.104688"><ele>18.2</ele><time>2022-05-08T08:38:40.000Z</time></trkpt><trkpt lon="5.98865" lat="51.104652"><ele>18.2</ele><time>2022-05-08T08:38:41.000Z</time></trkpt><trkpt lon="5.988548" lat="51.104616"><ele>18.2</ele><time>2022-05-08T08:38:42.000Z</time></trkpt><trkpt lon="5.988446" lat="51.104577"><ele>18.4</ele><time>2022-05-08T08:38:43.000Z</time></trkpt><trkpt lon="5.988341" lat="51.104534"><ele>18.4</ele><time>2022-05-08T08:38:44.000Z</time></trkpt><trkpt lon="5.988238" lat="51.104492"><ele>18.2</ele><time>2022-05-08T08:38:45.000Z</time></trkpt><trkpt lon="5.988129" lat="51.104451"><ele>18</ele><time>2022-05-08T08:38:46.000Z</time></trkpt><trkpt lon="5.988016" lat="51.104407"><ele>18</ele><time>2022-05-08T08:38:47.000Z</time></trkpt><trkpt lon="5.987907" lat="51.104367"><ele>18</ele><time>2022-05-08T08:38:48.000Z</time></trkpt><trkpt lon="5.987798" lat="51.104329"><ele>17.8</ele><time>2022-05-08T08:38:49.000Z</time></trkpt><trkpt lon="5.987694" lat="51.104294"><ele>17.6</ele><time>2022-05-08T08:38:50.000Z</time></trkpt><trkpt lon="5.987592" lat="51.104258"><ele>17.4</ele><time>2022-05-08T08:38:51.000Z</time></trkpt><trkpt lon="5.98749" lat="51.104219"><ele>17.2</ele><time>2022-05-08T08:38:52.000Z</time></trkpt><trkpt lon="5.987396" lat="51.104184"><ele>17.2</ele><time>2022-05-08T08:38:53.000Z</time></trkpt><trkpt lon="5.987298" lat="51.104148"><ele>17</ele><time>2022-05-08T08:38:54.000Z</time></trkpt><trkpt lon="5.987201" lat="51.104112"><ele>17</ele><time>2022-05-08T08:38:55.000Z</time></trkpt><trkpt lon="5.987106" lat="51.104078"><ele>17</ele><time>2022-05-08T08:38:56.000Z</time></trkpt><trkpt lon="5.987007" lat="51.104041"><ele>17</ele><time>2022-05-08T08:38:57.000Z</time></trkpt><trkpt lon="5.986918" lat="51.104007"><ele>17.2</ele><time>2022-05-08T08:38:58.000Z</time></trkpt><trkpt lon="5.986829" lat="51.103975"><ele>17.2</ele><time>2022-05-08T08:38:59.000Z</time></trkpt><trkpt lon="5.986742" lat="51.103945"><ele>17.2</ele><time>2022-05-08T08:39:00.000Z</time></trkpt><trkpt lon="5.986659" lat="51.103914"><ele>17.2</ele><time>2022-05-08T08:39:01.000Z</time></trkpt><trkpt lon="5.986576" lat="51.10389"><ele>17.4</ele><time>2022-05-08T08:39:02.000Z</time></trkpt><trkpt lon="5.986493" lat="51.10388"><ele>17.6</ele><time>2022-05-08T08:39:03.000Z</time></trkpt><trkpt lon="5.986414" lat="51.103888"><ele>17.6</ele><time>2022-05-08T08:39:04.000Z</time></trkpt><trkpt lon="5.986346" lat="51.103919"><ele>17.4</ele><time>2022-05-08T08:39:05.000Z</time></trkpt><trkpt lon="5.986284" lat="51.10397"><ele>17.2</ele><time>2022-05-08T08:39:06.000Z</time></trkpt><trkpt lon="5.98623" lat="51.104032"><ele>17</ele><time>2022-05-08T08:39:07.000Z</time></trkpt><trkpt lon="5.986177" lat="51.104095"><ele>16.8</ele><time>2022-05-08T08:39:08.000Z</time></trkpt><trkpt lon="5.986121" lat="51.104158"><ele>16.2</ele><time>2022-05-08T08:39:09.000Z</time></trkpt><trkpt lon="5.986063" lat="51.104223"><ele>16</ele><time>2022-05-08T08:39:10.000Z</time></trkpt><trkpt lon="5.986002" lat="51.104287"><ele>15.8</ele><time>2022-05-08T08:39:11.000Z</time></trkpt><trkpt lon="5.985937" lat="51.104352"><ele>15.6</ele><time>2022-05-08T08:39:12.000Z</time></trkpt><trkpt lon="5.985875" lat="51.10441"><ele>15.6</ele><time>2022-05-08T08:39:13.000Z</time></trkpt><trkpt lon="5.985804" lat="51.10447"><ele>15.6</ele><time>2022-05-08T08:39:14.000Z</time></trkpt><trkpt lon="5.985714" lat="51.104538"><ele>15.8</ele><time>2022-05-08T08:39:15.000Z</time></trkpt><trkpt lon="5.985638" lat="51.104593"><ele>16</ele><time>2022-05-08T08:39:16.000Z</time></trkpt><trkpt lon="5.985555" lat="51.104647"><ele>16.2</ele><time>2022-05-08T08:39:17.000Z</time></trkpt><trkpt lon="5.98547" lat="51.104701"><ele>16.2</ele><time>2022-05-08T08:39:18.000Z</time></trkpt><trkpt lon="5.985386" lat="51.104755"><ele>16.4</ele><time>2022-05-08T08:39:19.000Z</time></trkpt><trkpt lon="5.985303" lat="51.104806"><ele>16.4</ele><time>2022-05-08T08:39:20.000Z</time></trkpt><trkpt lon="5.98522" lat="51.10486"><ele>16.4</ele><time>2022-05-08T08:39:21.000Z</time></trkpt><trkpt lon="5.985137" lat="51.104912"><ele>16.4</ele><time>2022-05-08T08:39:22.000Z</time></trkpt><trkpt lon="5.985056" lat="51.104964"><ele>16.4</ele><time>2022-05-08T08:39:23.000Z</time></trkpt><trkpt lon="5.984974" lat="51.105018"><ele>16.6</ele><time>2022-05-08T08:39:24.000Z</time></trkpt><trkpt lon="5.984891" lat="51.105069"><ele>16.6</ele><time>2022-05-08T08:39:25.000Z</time></trkpt><trkpt lon="5.984805" lat="51.105121"><ele>16.6</ele><time>2022-05-08T08:39:26.000Z</time></trkpt><trkpt lon="5.984719" lat="51.105175"><ele>16.8</ele><time>2022-05-08T08:39:27.000Z</time></trkpt><trkpt lon="5.984634" lat="51.105227"><ele>16.8</ele><time>2022-05-08T08:39:28.000Z</time></trkpt><trkpt lon="5.984548" lat="51.105281"><ele>16.8</ele><time>2022-05-08T08:39:29.000Z</time></trkpt><trkpt lon="5.984464" lat="51.105334"><ele>16.8</ele><time>2022-05-08T08:39:30.000Z</time></trkpt><trkpt lon="5.984379" lat="51.105387"><ele>16.8</ele><time>2022-05-08T08:39:31.000Z</time></trkpt><trkpt lon="5.984293" lat="51.105441"><ele>17</ele><time>2022-05-08T08:39:32.000Z</time></trkpt><trkpt lon="5.98421" lat="51.105493"><ele>17</ele><time>2022-05-08T08:39:33.000Z</time></trkpt><trkpt lon="5.984124" lat="51.105547"><ele>17</ele><time>2022-05-08T08:39:34.000Z</time></trkpt><trkpt lon="5.98404" lat="51.105601"><ele>17.2</ele><time>2022-05-08T08:39:35.000Z</time></trkpt><trkpt lon="5.983956" lat="51.105654"><ele>17.4</ele><time>2022-05-08T08:39:36.000Z</time></trkpt><trkpt lon="5.983869" lat="51.105707"><ele>17.6</ele><time>2022-05-08T08:39:37.000Z</time></trkpt><trkpt lon="5.983785" lat="51.105757"><ele>17.6</ele><time>2022-05-08T08:39:38.000Z</time></trkpt><trkpt lon="5.983698" lat="51.105808"><ele>17.4</ele><time>2022-05-08T08:39:39.000Z</time></trkpt><trkpt lon="5.983613" lat="51.10586"><ele>17.4</ele><time>2022-05-08T08:39:40.000Z</time></trkpt><trkpt lon="5.983528" lat="51.105911"><ele>17.4</ele><time>2022-05-08T08:39:41.000Z</time></trkpt><trkpt lon="5.983442" lat="51.105963"><ele>17.4</ele><time>2022-05-08T08:39:42.000Z</time></trkpt><trkpt lon="5.983356" lat="51.106017"><ele>17.2</ele><time>2022-05-08T08:39:43.000Z</time></trkpt><trkpt lon="5.983274" lat="51.106068"><ele>17.4</ele><time>2022-05-08T08:39:44.000Z</time></trkpt><trkpt lon="5.983198" lat="51.106117"><ele>17.4</ele><time>2022-05-08T08:39:45.000Z</time></trkpt><trkpt lon="5.98311" lat="51.106174"><ele>17.4</ele><time>2022-05-08T08:39:46.000Z</time></trkpt><trkpt lon="5.983011" lat="51.106237"><ele>17.4</ele><time>2022-05-08T08:39:47.000Z</time></trkpt><trkpt lon="5.982923" lat="51.106292"><ele>17.2</ele><time>2022-05-08T08:39:48.000Z</time></trkpt><trkpt lon="5.982835" lat="51.106348"><ele>17.4</ele><time>2022-05-08T08:39:49.000Z</time></trkpt><trkpt lon="5.982748" lat="51.106402"><ele>17.4</ele><time>2022-05-08T08:39:50.000Z</time></trkpt><trkpt lon="5.982661" lat="51.106455"><ele>17.4</ele><time>2022-05-08T08:39:51.000Z</time></trkpt><trkpt lon="5.982574" lat="51.106511"><ele>17.4</ele><time>2022-05-08T08:39:52.000Z</time></trkpt><trkpt lon="5.982488" lat="51.106564"><ele>17.4</ele><time>2022-05-08T08:39:53.000Z</time></trkpt><trkpt lon="5.982402" lat="51.106614"><ele>17.2</ele><time>2022-05-08T08:39:54.000Z</time></trkpt><trkpt lon="5.982317" lat="51.106663"><ele>17.2</ele><time>2022-05-08T08:39:55.000Z</time></trkpt><trkpt lon="5.98223" lat="51.106713"><ele>17.2</ele><time>2022-05-08T08:39:56.000Z</time></trkpt><trkpt lon="5.982146" lat="51.106762"><ele>17</ele><time>2022-05-08T08:39:57.000Z</time></trkpt><trkpt lon="5.982062" lat="51.106811"><ele>17</ele><time>2022-05-08T08:39:58.000Z</time></trkpt><trkpt lon="5.981978" lat="51.106864"><ele>17</ele><time>2022-05-08T08:39:59.000Z</time></trkpt><trkpt lon="5.981897" lat="51.106918"><ele>17</ele><time>2022-05-08T08:40:00.000Z</time></trkpt><trkpt lon="5.981814" lat="51.106973"><ele>17</ele><time>2022-05-08T08:40:01.000Z</time></trkpt><trkpt lon="5.981729" lat="51.107028"><ele>16.8</ele><time>2022-05-08T08:40:02.000Z</time></trkpt><trkpt lon="5.981646" lat="51.107081"><ele>16.6</ele><time>2022-05-08T08:40:03.000Z</time></trkpt><trkpt lon="5.98156" lat="51.107135"><ele>16.6</ele><time>2022-05-08T08:40:04.000Z</time></trkpt><trkpt lon="5.981478" lat="51.107184"><ele>16.6</ele><time>2022-05-08T08:40:05.000Z</time></trkpt><trkpt lon="5.981392" lat="51.107235"><ele>16.6</ele><time>2022-05-08T08:40:06.000Z</time></trkpt><trkpt lon="5.981298" lat="51.107292"><ele>16.6</ele><time>2022-05-08T08:40:07.000Z</time></trkpt><trkpt lon="5.98121" lat="51.107341"><ele>16.6</ele><time>2022-05-08T08:40:08.000Z</time></trkpt><trkpt lon="5.981123" lat="51.107391"><ele>16.8</ele><time>2022-05-08T08:40:09.000Z</time></trkpt><trkpt lon="5.981037" lat="51.107444"><ele>16.8</ele><time>2022-05-08T08:40:10.000Z</time></trkpt><trkpt lon="5.980963" lat="51.107489"><ele>16.8</ele><time>2022-05-08T08:40:11.000Z</time></trkpt><trkpt lon="5.980882" lat="51.107535"><ele>16.8</ele><time>2022-05-08T08:40:12.000Z</time></trkpt><trkpt lon="5.980776" lat="51.107595"><ele>16.8</ele><time>2022-05-08T08:40:13.000Z</time></trkpt><trkpt lon="5.980688" lat="51.107645"><ele>16.8</ele><time>2022-05-08T08:40:14.000Z</time></trkpt><trkpt lon="5.980604" lat="51.107695"><ele>16.8</ele><time>2022-05-08T08:40:15.000Z</time></trkpt><trkpt lon="5.980522" lat="51.107747"><ele>16.8</ele><time>2022-05-08T08:40:16.000Z</time></trkpt><trkpt lon="5.980442" lat="51.107799"><ele>16.8</ele><time>2022-05-08T08:40:17.000Z</time></trkpt><trkpt lon="5.980363" lat="51.107849"><ele>16.8</ele><time>2022-05-08T08:40:18.000Z</time></trkpt><trkpt lon="5.980277" lat="51.107899"><ele>16.8</ele><time>2022-05-08T08:40:19.000Z</time></trkpt><trkpt lon="5.980188" lat="51.107953"><ele>16.8</ele><time>2022-05-08T08:40:20.000Z</time></trkpt><trkpt lon="5.980103" lat="51.108006"><ele>16.6</ele><time>2022-05-08T08:40:21.000Z</time></trkpt><trkpt lon="5.980019" lat="51.108059"><ele>16.6</ele><time>2022-05-08T08:40:22.000Z</time></trkpt><trkpt lon="5.979935" lat="51.108113"><ele>16.4</ele><time>2022-05-08T08:40:23.000Z</time></trkpt><trkpt lon="5.97985" lat="51.108164"><ele>16.4</ele><time>2022-05-08T08:40:24.000Z</time></trkpt><trkpt lon="5.979764" lat="51.108215"><ele>16.4</ele><time>2022-05-08T08:40:25.000Z</time></trkpt><trkpt lon="5.97968" lat="51.108267"><ele>16.4</ele><time>2022-05-08T08:40:26.000Z</time></trkpt><trkpt lon="5.979597" lat="51.108319"><ele>16.4</ele><time>2022-05-08T08:40:27.000Z</time></trkpt><trkpt lon="5.979516" lat="51.108375"><ele>16.2</ele><time>2022-05-08T08:40:28.000Z</time></trkpt><trkpt lon="5.979439" lat="51.108429"><ele>16</ele><time>2022-05-08T08:40:29.000Z</time></trkpt><trkpt lon="5.979365" lat="51.108485"><ele>15.8</ele><time>2022-05-08T08:40:30.000Z</time></trkpt><trkpt lon="5.979296" lat="51.108544"><ele>15.8</ele><time>2022-05-08T08:40:31.000Z</time></trkpt><trkpt lon="5.97923" lat="51.108608"><ele>15.6</ele><time>2022-05-08T08:40:32.000Z</time></trkpt><trkpt lon="5.979168" lat="51.10867"><ele>15.8</ele><time>2022-05-08T08:40:33.000Z</time></trkpt><trkpt lon="5.979106" lat="51.108734"><ele>15.8</ele><time>2022-05-08T08:40:34.000Z</time></trkpt><trkpt lon="5.979045" lat="51.108798"><ele>15.8</ele><time>2022-05-08T08:40:35.000Z</time></trkpt><trkpt lon="5.978985" lat="51.108865"><ele>15.8</ele><time>2022-05-08T08:40:36.000Z</time></trkpt><trkpt lon="5.978926" lat="51.108932"><ele>15.6</ele><time>2022-05-08T08:40:37.000Z</time></trkpt><trkpt lon="5.978863" lat="51.108997"><ele>15.6</ele><time>2022-05-08T08:40:38.000Z</time></trkpt><trkpt lon="5.978804" lat="51.109062"><ele>15.6</ele><time>2022-05-08T08:40:39.000Z</time></trkpt><trkpt lon="5.978746" lat="51.109127"><ele>15.4</ele><time>2022-05-08T08:40:40.000Z</time></trkpt><trkpt lon="5.978688" lat="51.109192"><ele>15.2</ele><time>2022-05-08T08:40:41.000Z</time></trkpt><trkpt lon="5.97863" lat="51.109256"><ele>15.2</ele><time>2022-05-08T08:40:42.000Z</time></trkpt><trkpt lon="5.978573" lat="51.109319"><ele>15.2</ele><time>2022-05-08T08:40:43.000Z</time></trkpt><trkpt lon="5.978514" lat="51.109382"><ele>15.4</ele><time>2022-05-08T08:40:44.000Z</time></trkpt><trkpt lon="5.978456" lat="51.109447"><ele>15.4</ele><time>2022-05-08T08:40:45.000Z</time></trkpt><trkpt lon="5.978398" lat="51.10951"><ele>15.4</ele><time>2022-05-08T08:40:46.000Z</time></trkpt><trkpt lon="5.978338" lat="51.109574"><ele>15.2</ele><time>2022-05-08T08:40:47.000Z</time></trkpt><trkpt lon="5.978274" lat="51.109642"><ele>15.2</ele><time>2022-05-08T08:40:48.000Z</time></trkpt><trkpt lon="5.978211" lat="51.10971"><ele>15.2</ele><time>2022-05-08T08:40:49.000Z</time></trkpt><trkpt lon="5.978148" lat="51.109777"><ele>15.2</ele><time>2022-05-08T08:40:50.000Z</time></trkpt><trkpt lon="5.978085" lat="51.109846"><ele>15.2</ele><time>2022-05-08T08:40:51.000Z</time></trkpt><trkpt lon="5.978021" lat="51.109912"><ele>15.2</ele><time>2022-05-08T08:40:52.000Z</time></trkpt><trkpt lon="5.977957" lat="51.109979"><ele>15.2</ele><time>2022-05-08T08:40:53.000Z</time></trkpt><trkpt lon="5.977893" lat="51.110048"><ele>15.2</ele><time>2022-05-08T08:40:54.000Z</time></trkpt><trkpt lon="5.977831" lat="51.110117"><ele>14.8</ele><time>2022-05-08T08:40:55.000Z</time></trkpt><trkpt lon="5.977771" lat="51.110186"><ele>14.6</ele><time>2022-05-08T08:40:56.000Z</time></trkpt><trkpt lon="5.977711" lat="51.110254"><ele>14.6</ele><time>2022-05-08T08:40:57.000Z</time></trkpt><trkpt lon="5.977649" lat="51.110323"><ele>14.6</ele><time>2022-05-08T08:40:58.000Z</time></trkpt><trkpt lon="5.977588" lat="51.110392"><ele>14.4</ele><time>2022-05-08T08:40:59.000Z</time></trkpt><trkpt lon="5.977528" lat="51.110457"><ele>14.6</ele><time>2022-05-08T08:41:00.000Z</time></trkpt><trkpt lon="5.977463" lat="51.110524"><ele>14.6</ele><time>2022-05-08T08:41:01.000Z</time></trkpt><trkpt lon="5.977399" lat="51.110591"><ele>14.6</ele><time>2022-05-08T08:41:02.000Z</time></trkpt><trkpt lon="5.977336" lat="51.110656"><ele>14.6</ele><time>2022-05-08T08:41:03.000Z</time></trkpt><trkpt lon="5.977275" lat="51.110721"><ele>14.6</ele><time>2022-05-08T08:41:04.000Z</time></trkpt><trkpt lon="5.977214" lat="51.110789"><ele>14.6</ele><time>2022-05-08T08:41:05.000Z</time></trkpt><trkpt lon="5.977153" lat="51.110857"><ele>14.6</ele><time>2022-05-08T08:41:06.000Z</time></trkpt><trkpt lon="5.977092" lat="51.110925"><ele>14.6</ele><time>2022-05-08T08:41:07.000Z</time></trkpt><trkpt lon="5.977031" lat="51.110994"><ele>14.6</ele><time>2022-05-08T08:41:08.000Z</time></trkpt><trkpt lon="5.976969" lat="51.111061"><ele>14.6</ele><time>2022-05-08T08:41:09.000Z</time></trkpt><trkpt lon="5.976908" lat="51.111128"><ele>14.6</ele><time>2022-05-08T08:41:10.000Z</time></trkpt><trkpt lon="5.976847" lat="51.111194"><ele>14.6</ele><time>2022-05-08T08:41:11.000Z</time></trkpt><trkpt lon="5.976786" lat="51.111259"><ele>14.6</ele><time>2022-05-08T08:41:12.000Z</time></trkpt><trkpt lon="5.976726" lat="51.111322"><ele>14.6</ele><time>2022-05-08T08:41:13.000Z</time></trkpt><trkpt lon="5.976663" lat="51.111385"><ele>14.6</ele><time>2022-05-08T08:41:14.000Z</time></trkpt><trkpt lon="5.976596" lat="51.11145"><ele>14.4</ele><time>2022-05-08T08:41:15.000Z</time></trkpt><trkpt lon="5.976527" lat="51.11151"><ele>14.4</ele><time>2022-05-08T08:41:16.000Z</time></trkpt><trkpt lon="5.976453" lat="51.111567"><ele>14.6</ele><time>2022-05-08T08:41:17.000Z</time></trkpt><trkpt lon="5.976375" lat="51.111625"><ele>14.6</ele><time>2022-05-08T08:41:18.000Z</time></trkpt><trkpt lon="5.976296" lat="51.111682"><ele>14.6</ele><time>2022-05-08T08:41:19.000Z</time></trkpt><trkpt lon="5.976218" lat="51.111741"><ele>14.6</ele><time>2022-05-08T08:41:20.000Z</time></trkpt><trkpt lon="5.976139" lat="51.111802"><ele>14.6</ele><time>2022-05-08T08:41:21.000Z</time></trkpt><trkpt lon="5.976061" lat="51.111863"><ele>14.6</ele><time>2022-05-08T08:41:22.000Z</time></trkpt><trkpt lon="5.975984" lat="51.111924"><ele>14.6</ele><time>2022-05-08T08:41:23.000Z</time></trkpt><trkpt lon="5.975906" lat="51.111983"><ele>14.8</ele><time>2022-05-08T08:41:24.000Z</time></trkpt><trkpt lon="5.975829" lat="51.112042"><ele>14.8</ele><time>2022-05-08T08:41:25.000Z</time></trkpt><trkpt lon="5.975751" lat="51.112101"><ele>14.8</ele><time>2022-05-08T08:41:26.000Z</time></trkpt><trkpt lon="5.975674" lat="51.112161"><ele>14.8</ele><time>2022-05-08T08:41:27.000Z</time></trkpt><trkpt lon="5.975596" lat="51.112219"><ele>14.8</ele><time>2022-05-08T08:41:28.000Z</time></trkpt><trkpt lon="5.97552" lat="51.112278"><ele>15</ele><time>2022-05-08T08:41:29.000Z</time></trkpt><trkpt lon="5.975443" lat="51.112338"><ele>15</ele><time>2022-05-08T08:41:30.000Z</time></trkpt><trkpt lon="5.975365" lat="51.112395"><ele>15.2</ele><time>2022-05-08T08:41:31.000Z</time></trkpt><trkpt lon="5.975288" lat="51.112454"><ele>15</ele><time>2022-05-08T08:41:32.000Z</time></trkpt><trkpt lon="5.975211" lat="51.112513"><ele>15</ele><time>2022-05-08T08:41:33.000Z</time></trkpt><trkpt lon="5.975134" lat="51.112573"><ele>14.8</ele><time>2022-05-08T08:41:34.000Z</time></trkpt><trkpt lon="5.975056" lat="51.112629"><ele>14.8</ele><time>2022-05-08T08:41:35.000Z</time></trkpt><trkpt lon="5.974979" lat="51.112687"><ele>14.8</ele><time>2022-05-08T08:41:36.000Z</time></trkpt><trkpt lon="5.974902" lat="51.112746"><ele>14.6</ele><time>2022-05-08T08:41:37.000Z</time></trkpt><trkpt lon="5.974826" lat="51.112803"><ele>14.6</ele><time>2022-05-08T08:41:38.000Z</time></trkpt><trkpt lon="5.974749" lat="51.11286"><ele>14.6</ele><time>2022-05-08T08:41:39.000Z</time></trkpt><trkpt lon="5.974673" lat="51.112918"><ele>14.6</ele><time>2022-05-08T08:41:40.000Z</time></trkpt><trkpt lon="5.974598" lat="51.112973"><ele>14.6</ele><time>2022-05-08T08:41:41.000Z</time></trkpt><trkpt lon="5.974521" lat="51.113028"><ele>14.6</ele><time>2022-05-08T08:41:42.000Z</time></trkpt><trkpt lon="5.974445" lat="51.113088"><ele>14.6</ele><time>2022-05-08T08:41:43.000Z</time></trkpt><trkpt lon="5.97437" lat="51.113144"><ele>14.8</ele><time>2022-05-08T08:41:44.000Z</time></trkpt><trkpt lon="5.974295" lat="51.1132"><ele>14.8</ele><time>2022-05-08T08:41:45.000Z</time></trkpt><trkpt lon="5.97422" lat="51.113257"><ele>14.8</ele><time>2022-05-08T08:41:46.000Z</time></trkpt><trkpt lon="5.974146" lat="51.113314"><ele>15</ele><time>2022-05-08T08:41:47.000Z</time></trkpt><trkpt lon="5.974072" lat="51.113369"><ele>15.2</ele><time>2022-05-08T08:41:48.000Z</time></trkpt><trkpt lon="5.973999" lat="51.113421"><ele>15.2</ele><time>2022-05-08T08:41:49.000Z</time></trkpt><trkpt lon="5.973928" lat="51.113472"><ele>15.2</ele><time>2022-05-08T08:41:50.000Z</time></trkpt><trkpt lon="5.973858" lat="51.113523"><ele>15.2</ele><time>2022-05-08T08:41:51.000Z</time></trkpt><trkpt lon="5.973788" lat="51.113571"><ele>15.4</ele><time>2022-05-08T08:41:52.000Z</time></trkpt><trkpt lon="5.973718" lat="51.113619"><ele>15.6</ele><time>2022-05-08T08:41:53.000Z</time></trkpt><trkpt lon="5.973657" lat="51.113667"><ele>15.6</ele><time>2022-05-08T08:41:54.000Z</time></trkpt><trkpt lon="5.973617" lat="51.113716"><ele>15.6</ele><time>2022-05-08T08:41:55.000Z</time></trkpt><trkpt lon="5.973615" lat="51.113768"><ele>15.8</ele><time>2022-05-08T08:41:56.000Z</time></trkpt><trkpt lon="5.973658" lat="51.113813"><ele>15.8</ele><time>2022-05-08T08:41:57.000Z</time></trkpt><trkpt lon="5.973737" lat="51.11385"><ele>15.8</ele><time>2022-05-08T08:41:58.000Z</time></trkpt><trkpt lon="5.973831" lat="51.113885"><ele>15.6</ele><time>2022-05-08T08:41:59.000Z</time></trkpt><trkpt lon="5.973928" lat="51.113921"><ele>15.4</ele><time>2022-05-08T08:42:00.000Z</time></trkpt><trkpt lon="5.974024" lat="51.113959"><ele>15.4</ele><time>2022-05-08T08:42:01.000Z</time></trkpt><trkpt lon="5.974116" lat="51.113998"><ele>15</ele><time>2022-05-08T08:42:02.000Z</time></trkpt><trkpt lon="5.974209" lat="51.114036"><ele>14.8</ele><time>2022-05-08T08:42:03.000Z</time></trkpt><trkpt lon="5.974301" lat="51.114074"><ele>14.6</ele><time>2022-05-08T08:42:04.000Z</time></trkpt><trkpt lon="5.974393" lat="51.114112"><ele>14.6</ele><time>2022-05-08T08:42:05.000Z</time></trkpt><trkpt lon="5.974486" lat="51.114152"><ele>14.4</ele><time>2022-05-08T08:42:06.000Z</time></trkpt><trkpt lon="5.974579" lat="51.114194"><ele>14.4</ele><time>2022-05-08T08:42:07.000Z</time></trkpt><trkpt lon="5.974672" lat="51.114234"><ele>14.8</ele><time>2022-05-08T08:42:08.000Z</time></trkpt><trkpt lon="5.974766" lat="51.114274"><ele>15</ele><time>2022-05-08T08:42:09.000Z</time></trkpt><trkpt lon="5.97486" lat="51.114317"><ele>15.2</ele><time>2022-05-08T08:42:10.000Z</time></trkpt><trkpt lon="5.974953" lat="51.114359"><ele>15.4</ele><time>2022-05-08T08:42:11.000Z</time></trkpt><trkpt lon="5.975047" lat="51.1144"><ele>15.4</ele><time>2022-05-08T08:42:12.000Z</time></trkpt><trkpt lon="5.97514" lat="51.114442"><ele>15.4</ele><time>2022-05-08T08:42:13.000Z</time></trkpt><trkpt lon="5.975235" lat="51.114482"><ele>15.4</ele><time>2022-05-08T08:42:14.000Z</time></trkpt><trkpt lon="5.97533" lat="51.114523"><ele>15.6</ele><time>2022-05-08T08:42:15.000Z</time></trkpt><trkpt lon="5.975422" lat="51.114565"><ele>15.6</ele><time>2022-05-08T08:42:16.000Z</time></trkpt><trkpt lon="5.975514" lat="51.114604"><ele>15.6</ele><time>2022-05-08T08:42:17.000Z</time></trkpt><trkpt lon="5.975608" lat="51.114645"><ele>15.6</ele><time>2022-05-08T08:42:18.000Z</time></trkpt><trkpt lon="5.975701" lat="51.114687"><ele>15.8</ele><time>2022-05-08T08:42:19.000Z</time></trkpt><trkpt lon="5.975794" lat="51.114729"><ele>15.8</ele><time>2022-05-08T08:42:20.000Z</time></trkpt><trkpt lon="5.975886" lat="51.114772"><ele>16</ele><time>2022-05-08T08:42:21.000Z</time></trkpt><trkpt lon="5.97598" lat="51.114814"><ele>16</ele><time>2022-05-08T08:42:22.000Z</time></trkpt><trkpt lon="5.976076" lat="51.114852"><ele>16</ele><time>2022-05-08T08:42:23.000Z</time></trkpt><trkpt lon="5.976173" lat="51.11489"><ele>16</ele><time>2022-05-08T08:42:24.000Z</time></trkpt><trkpt lon="5.976269" lat="51.114931"><ele>15.8</ele><time>2022-05-08T08:42:25.000Z</time></trkpt><trkpt lon="5.976362" lat="51.114971"><ele>15.8</ele><time>2022-05-08T08:42:26.000Z</time></trkpt><trkpt lon="5.976453" lat="51.115006"><ele>15.6</ele><time>2022-05-08T08:42:27.000Z</time></trkpt><trkpt lon="5.976545" lat="51.115045"><ele>15.2</ele><time>2022-05-08T08:42:28.000Z</time></trkpt><trkpt lon="5.976636" lat="51.115085"><ele>15.2</ele><time>2022-05-08T08:42:29.000Z</time></trkpt><trkpt lon="5.976726" lat="51.115123"><ele>15.2</ele><time>2022-05-08T08:42:30.000Z</time></trkpt><trkpt lon="5.976819" lat="51.115161"><ele>15.2</ele><time>2022-05-08T08:42:31.000Z</time></trkpt><trkpt lon="5.976913" lat="51.115199"><ele>15.2</ele><time>2022-05-08T08:42:32.000Z</time></trkpt><trkpt lon="5.977007" lat="51.115239"><ele>15.2</ele><time>2022-05-08T08:42:33.000Z</time></trkpt><trkpt lon="5.977101" lat="51.115279"><ele>15.2</ele><time>2022-05-08T08:42:34.000Z</time></trkpt><trkpt lon="5.977194" lat="51.115317"><ele>15.2</ele><time>2022-05-08T08:42:35.000Z</time></trkpt><trkpt lon="5.97729" lat="51.115355"><ele>15</ele><time>2022-05-08T08:42:36.000Z</time></trkpt><trkpt lon="5.977385" lat="51.115396"><ele>15</ele><time>2022-05-08T08:42:37.000Z</time></trkpt><trkpt lon="5.977478" lat="51.115435"><ele>14.8</ele><time>2022-05-08T08:42:38.000Z</time></trkpt><trkpt lon="5.977573" lat="51.115474"><ele>14.8</ele><time>2022-05-08T08:42:39.000Z</time></trkpt><trkpt lon="5.977667" lat="51.115515"><ele>14.6</ele><time>2022-05-08T08:42:40.000Z</time></trkpt><trkpt lon="5.97776" lat="51.115554"><ele>14.4</ele><time>2022-05-08T08:42:41.000Z</time></trkpt><trkpt lon="5.977851" lat="51.115594"><ele>14.2</ele><time>2022-05-08T08:42:42.000Z</time></trkpt><trkpt lon="5.977943" lat="51.115634"><ele>14.2</ele><time>2022-05-08T08:42:43.000Z</time></trkpt><trkpt lon="5.978034" lat="51.115672"><ele>14.2</ele><time>2022-05-08T08:42:44.000Z</time></trkpt><trkpt lon="5.978123" lat="51.115713"><ele>14</ele><time>2022-05-08T08:42:45.000Z</time></trkpt><trkpt lon="5.978209" lat="51.115757"><ele>14</ele><time>2022-05-08T08:42:46.000Z</time></trkpt><trkpt lon="5.97829" lat="51.115803"><ele>14</ele><time>2022-05-08T08:42:47.000Z</time></trkpt><trkpt lon="5.978373" lat="51.115851"><ele>14.2</ele><time>2022-05-08T08:42:48.000Z</time></trkpt><trkpt lon="5.978456" lat="51.1159"><ele>14</ele><time>2022-05-08T08:42:49.000Z</time></trkpt><trkpt lon="5.978535" lat="51.11595"><ele>14.2</ele><time>2022-05-08T08:42:50.000Z</time></trkpt><trkpt lon="5.978612" lat="51.115999"><ele>14.4</ele><time>2022-05-08T08:42:51.000Z</time></trkpt><trkpt lon="5.978684" lat="51.11605"><ele>14.4</ele><time>2022-05-08T08:42:52.000Z</time></trkpt><trkpt lon="5.978753" lat="51.116104"><ele>14.6</ele><time>2022-05-08T08:42:53.000Z</time></trkpt><trkpt lon="5.978824" lat="51.116158"><ele>14.8</ele><time>2022-05-08T08:42:54.000Z</time></trkpt><trkpt lon="5.978893" lat="51.116214"><ele>14.8</ele><time>2022-05-08T08:42:55.000Z</time></trkpt><trkpt lon="5.978962" lat="51.116269"><ele>14.8</ele><time>2022-05-08T08:42:56.000Z</time></trkpt><trkpt lon="5.979032" lat="51.116322"><ele>14.8</ele><time>2022-05-08T08:42:57.000Z</time></trkpt><trkpt lon="5.979103" lat="51.116377"><ele>14.8</ele><time>2022-05-08T08:42:58.000Z</time></trkpt><trkpt lon="5.979174" lat="51.116433"><ele>14.8</ele><time>2022-05-08T08:42:59.000Z</time></trkpt><trkpt lon="5.979245" lat="51.116486"><ele>14.6</ele><time>2022-05-08T08:43:00.000Z</time></trkpt><trkpt lon="5.979317" lat="51.11654"><ele>14.6</ele><time>2022-05-08T08:43:01.000Z</time></trkpt><trkpt lon="5.979388" lat="51.116595"><ele>14.8</ele><time>2022-05-08T08:43:02.000Z</time></trkpt><trkpt lon="5.979457" lat="51.116649"><ele>15</ele><time>2022-05-08T08:43:03.000Z</time></trkpt><trkpt lon="5.979529" lat="51.116704"><ele>15</ele><time>2022-05-08T08:43:04.000Z</time></trkpt><trkpt lon="5.979603" lat="51.11676"><ele>15.2</ele><time>2022-05-08T08:43:05.000Z</time></trkpt><trkpt lon="5.979675" lat="51.116814"><ele>15.2</ele><time>2022-05-08T08:43:06.000Z</time></trkpt><trkpt lon="5.979747" lat="51.11687"><ele>15.2</ele><time>2022-05-08T08:43:07.000Z</time></trkpt><trkpt lon="5.979818" lat="51.116925"><ele>15.2</ele><time>2022-05-08T08:43:08.000Z</time></trkpt><trkpt lon="5.979889" lat="51.116979"><ele>15.2</ele><time>2022-05-08T08:43:09.000Z</time></trkpt><trkpt lon="5.97996" lat="51.117035"><ele>15.4</ele><time>2022-05-08T08:43:10.000Z</time></trkpt><trkpt lon="5.980031" lat="51.117091"><ele>15.4</ele><time>2022-05-08T08:43:11.000Z</time></trkpt><trkpt lon="5.980102" lat="51.117146"><ele>15.4</ele><time>2022-05-08T08:43:12.000Z</time></trkpt><trkpt lon="5.980174" lat="51.117199"><ele>15.4</ele><time>2022-05-08T08:43:13.000Z</time></trkpt><trkpt lon="5.980247" lat="51.117255"><ele>15.4</ele><time>2022-05-08T08:43:14.000Z</time></trkpt><trkpt lon="5.980318" lat="51.11731"><ele>15.4</ele><time>2022-05-08T08:43:15.000Z</time></trkpt><trkpt lon="5.980388" lat="51.117366"><ele>15.4</ele><time>2022-05-08T08:43:16.000Z</time></trkpt><trkpt lon="5.980459" lat="51.117421"><ele>15.6</ele><time>2022-05-08T08:43:17.000Z</time></trkpt><trkpt lon="5.98053" lat="51.117474"><ele>15.6</ele><time>2022-05-08T08:43:18.000Z</time></trkpt><trkpt lon="5.980603" lat="51.11753"><ele>15.8</ele><time>2022-05-08T08:43:19.000Z</time></trkpt><trkpt lon="5.980675" lat="51.117585"><ele>16</ele><time>2022-05-08T08:43:20.000Z</time></trkpt><trkpt lon="5.980746" lat="51.11764"><ele>16</ele><time>2022-05-08T08:43:21.000Z</time></trkpt><trkpt lon="5.980818" lat="51.117695"><ele>16.2</ele><time>2022-05-08T08:43:22.000Z</time></trkpt><trkpt lon="5.98089" lat="51.117751"><ele>16.2</ele><time>2022-05-08T08:43:23.000Z</time></trkpt><trkpt lon="5.980962" lat="51.117808"><ele>16</ele><time>2022-05-08T08:43:24.000Z</time></trkpt><trkpt lon="5.98103" lat="51.11786"><ele>16</ele><time>2022-05-08T08:43:25.000Z</time></trkpt><trkpt lon="5.981104" lat="51.117916"><ele>15.8</ele><time>2022-05-08T08:43:26.000Z</time></trkpt><trkpt lon="5.981182" lat="51.117974"><ele>15.8</ele><time>2022-05-08T08:43:27.000Z</time></trkpt><trkpt lon="5.981256" lat="51.11803"><ele>15.8</ele><time>2022-05-08T08:43:28.000Z</time></trkpt><trkpt lon="5.981327" lat="51.118084"><ele>15.6</ele><time>2022-05-08T08:43:29.000Z</time></trkpt><trkpt lon="5.981398" lat="51.11814"><ele>15.6</ele><time>2022-05-08T08:43:30.000Z</time></trkpt><trkpt lon="5.98147" lat="51.118197"><ele>15.6</ele><time>2022-05-08T08:43:31.000Z</time></trkpt><trkpt lon="5.981541" lat="51.118255"><ele>15.8</ele><time>2022-05-08T08:43:32.000Z</time></trkpt><trkpt lon="5.981611" lat="51.118312"><ele>16.2</ele><time>2022-05-08T08:43:33.000Z</time></trkpt><trkpt lon="5.981684" lat="51.118367"><ele>16.4</ele><time>2022-05-08T08:43:34.000Z</time></trkpt><trkpt lon="5.981757" lat="51.11842"><ele>16.6</ele><time>2022-05-08T08:43:35.000Z</time></trkpt><trkpt lon="5.981829" lat="51.118474"><ele>16.8</ele><time>2022-05-08T08:43:36.000Z</time></trkpt><trkpt lon="5.981899" lat="51.118525"><ele>16.8</ele><time>2022-05-08T08:43:37.000Z</time></trkpt><trkpt lon="5.981968" lat="51.118574"><ele>17</ele><time>2022-05-08T08:43:38.000Z</time></trkpt><trkpt lon="5.982031" lat="51.118626"><ele>17</ele><time>2022-05-08T08:43:39.000Z</time></trkpt><trkpt lon="5.982078" lat="51.118681"><ele>17</ele><time>2022-05-08T08:43:40.000Z</time></trkpt><trkpt lon="5.982096" lat="51.118742"><ele>17</ele><time>2022-05-08T08:43:41.000Z</time></trkpt><trkpt lon="5.982077" lat="51.118807"><ele>16.8</ele><time>2022-05-08T08:43:42.000Z</time></trkpt><trkpt lon="5.982019" lat="51.118864"><ele>16.4</ele><time>2022-05-08T08:43:43.000Z</time></trkpt><trkpt lon="5.981944" lat="51.118916"><ele>16</ele><time>2022-05-08T08:43:44.000Z</time></trkpt><trkpt lon="5.981866" lat="51.118967"><ele>15.8</ele><time>2022-05-08T08:43:45.000Z</time></trkpt><trkpt lon="5.981791" lat="51.119018"><ele>15.6</ele><time>2022-05-08T08:43:46.000Z</time></trkpt><trkpt lon="5.981717" lat="51.119072"><ele>15.6</ele><time>2022-05-08T08:43:47.000Z</time></trkpt><trkpt lon="5.981642" lat="51.119126"><ele>15.4</ele><time>2022-05-08T08:43:48.000Z</time></trkpt><trkpt lon="5.98157" lat="51.11918"><ele>15.4</ele><time>2022-05-08T08:43:49.000Z</time></trkpt><trkpt lon="5.981499" lat="51.119232"><ele>15.2</ele><time>2022-05-08T08:43:50.000Z</time></trkpt><trkpt lon="5.981427" lat="51.119288"><ele>15.2</ele><time>2022-05-08T08:43:51.000Z</time></trkpt><trkpt lon="5.981353" lat="51.119346"><ele>15.2</ele><time>2022-05-08T08:43:52.000Z</time></trkpt><trkpt lon="5.981279" lat="51.119401"><ele>15.2</ele><time>2022-05-08T08:43:53.000Z</time></trkpt><trkpt lon="5.981205" lat="51.119456"><ele>15.4</ele><time>2022-05-08T08:43:54.000Z</time></trkpt><trkpt lon="5.981131" lat="51.119515"><ele>15.4</ele><time>2022-05-08T08:43:55.000Z</time></trkpt><trkpt lon="5.981057" lat="51.119574"><ele>15.6</ele><time>2022-05-08T08:43:56.000Z</time></trkpt><trkpt lon="5.980983" lat="51.119632"><ele>15.6</ele><time>2022-05-08T08:43:57.000Z</time></trkpt><trkpt lon="5.980908" lat="51.119691"><ele>15.6</ele><time>2022-05-08T08:43:58.000Z</time></trkpt><trkpt lon="5.980833" lat="51.11975"><ele>15.6</ele><time>2022-05-08T08:43:59.000Z</time></trkpt><trkpt lon="5.980759" lat="51.119809"><ele>15.4</ele><time>2022-05-08T08:44:00.000Z</time></trkpt><trkpt lon="5.980685" lat="51.119868"><ele>15.4</ele><time>2022-05-08T08:44:01.000Z</time></trkpt><trkpt lon="5.980611" lat="51.119927"><ele>15.6</ele><time>2022-05-08T08:44:02.000Z</time></trkpt><trkpt lon="5.980538" lat="51.119986"><ele>15.6</ele><time>2022-05-08T08:44:03.000Z</time></trkpt><trkpt lon="5.980465" lat="51.120046"><ele>15.6</ele><time>2022-05-08T08:44:04.000Z</time></trkpt><trkpt lon="5.980392" lat="51.120105"><ele>15.4</ele><time>2022-05-08T08:44:05.000Z</time></trkpt><trkpt lon="5.980321" lat="51.120161"><ele>15.2</ele><time>2022-05-08T08:44:06.000Z</time></trkpt><trkpt lon="5.980249" lat="51.120219"><ele>15.2</ele><time>2022-05-08T08:44:07.000Z</time></trkpt><trkpt lon="5.980177" lat="51.120276"><ele>15</ele><time>2022-05-08T08:44:08.000Z</time></trkpt><trkpt lon="5.980105" lat="51.120331"><ele>15</ele><time>2022-05-08T08:44:09.000Z</time></trkpt><trkpt lon="5.980034" lat="51.120387"><ele>15</ele><time>2022-05-08T08:44:10.000Z</time></trkpt><trkpt lon="5.979963" lat="51.120444"><ele>14.8</ele><time>2022-05-08T08:44:11.000Z</time></trkpt><trkpt lon="5.979894" lat="51.120501"><ele>14.8</ele><time>2022-05-08T08:44:12.000Z</time></trkpt><trkpt lon="5.979825" lat="51.120559"><ele>14.6</ele><time>2022-05-08T08:44:13.000Z</time></trkpt><trkpt lon="5.979757" lat="51.120616"><ele>14.6</ele><time>2022-05-08T08:44:14.000Z</time></trkpt><trkpt lon="5.979688" lat="51.120673"><ele>14.6</ele><time>2022-05-08T08:44:15.000Z</time></trkpt><trkpt lon="5.979621" lat="51.120729"><ele>14.6</ele><time>2022-05-08T08:44:16.000Z</time></trkpt><trkpt lon="5.979551" lat="51.120786"><ele>14.6</ele><time>2022-05-08T08:44:17.000Z</time></trkpt><trkpt lon="5.979478" lat="51.120843"><ele>14.6</ele><time>2022-05-08T08:44:18.000Z</time></trkpt><trkpt lon="5.979407" lat="51.1209"><ele>14.6</ele><time>2022-05-08T08:44:19.000Z</time></trkpt><trkpt lon="5.979335" lat="51.120959"><ele>14.6</ele><time>2022-05-08T08:44:20.000Z</time></trkpt><trkpt lon="5.979263" lat="51.121016"><ele>14.6</ele><time>2022-05-08T08:44:21.000Z</time></trkpt><trkpt lon="5.979191" lat="51.121074"><ele>14.8</ele><time>2022-05-08T08:44:22.000Z</time></trkpt><trkpt lon="5.97912" lat="51.121131"><ele>14.8</ele><time>2022-05-08T08:44:23.000Z</time></trkpt><trkpt lon="5.979047" lat="51.121188"><ele>15</ele><time>2022-05-08T08:44:24.000Z</time></trkpt><trkpt lon="5.978978" lat="51.121245"><ele>15</ele><time>2022-05-08T08:44:25.000Z</time></trkpt><trkpt lon="5.978907" lat="51.121304"><ele>15</ele><time>2022-05-08T08:44:26.000Z</time></trkpt><trkpt lon="5.978833" lat="51.121363"><ele>15.2</ele><time>2022-05-08T08:44:27.000Z</time></trkpt><trkpt lon="5.978762" lat="51.121421"><ele>15.2</ele><time>2022-05-08T08:44:28.000Z</time></trkpt><trkpt lon="5.97869" lat="51.121478"><ele>15.2</ele><time>2022-05-08T08:44:29.000Z</time></trkpt><trkpt lon="5.978618" lat="51.121535"><ele>15.4</ele><time>2022-05-08T08:44:30.000Z</time></trkpt><trkpt lon="5.978544" lat="51.121594"><ele>15.4</ele><time>2022-05-08T08:44:31.000Z</time></trkpt><trkpt lon="5.978471" lat="51.121655"><ele>15.4</ele><time>2022-05-08T08:44:32.000Z</time></trkpt><trkpt lon="5.978398" lat="51.121714"><ele>15.4</ele><time>2022-05-08T08:44:33.000Z</time></trkpt><trkpt lon="5.978326" lat="51.121774"><ele>15.4</ele><time>2022-05-08T08:44:34.000Z</time></trkpt><trkpt lon="5.978252" lat="51.121832"><ele>15.2</ele><time>2022-05-08T08:44:35.000Z</time></trkpt><trkpt lon="5.978175" lat="51.121891"><ele>15.2</ele><time>2022-05-08T08:44:36.000Z</time></trkpt><trkpt lon="5.978096" lat="51.121953"><ele>15.2</ele><time>2022-05-08T08:44:37.000Z</time></trkpt><trkpt lon="5.978019" lat="51.122014"><ele>15.2</ele><time>2022-05-08T08:44:38.000Z</time></trkpt><trkpt lon="5.977945" lat="51.122075"><ele>15.2</ele><time>2022-05-08T08:44:39.000Z</time></trkpt><trkpt lon="5.97787" lat="51.122136"><ele>15.4</ele><time>2022-05-08T08:44:40.000Z</time></trkpt><trkpt lon="5.977795" lat="51.122195"><ele>15.4</ele><time>2022-05-08T08:44:41.000Z</time></trkpt><trkpt lon="5.977721" lat="51.122255"><ele>15.4</ele><time>2022-05-08T08:44:42.000Z</time></trkpt><trkpt lon="5.977647" lat="51.122314"><ele>15</ele><time>2022-05-08T08:44:43.000Z</time></trkpt><trkpt lon="5.977574" lat="51.122373"><ele>15</ele><time>2022-05-08T08:44:44.000Z</time></trkpt><trkpt lon="5.977502" lat="51.122427"><ele>14.8</ele><time>2022-05-08T08:44:45.000Z</time></trkpt><trkpt lon="5.977422" lat="51.122484"><ele>14.8</ele><time>2022-05-08T08:44:46.000Z</time></trkpt><trkpt lon="5.977338" lat="51.122541"><ele>14.6</ele><time>2022-05-08T08:44:47.000Z</time></trkpt><trkpt lon="5.977256" lat="51.122593"><ele>14.4</ele><time>2022-05-08T08:44:48.000Z</time></trkpt><trkpt lon="5.977169" lat="51.122644"><ele>14.4</ele><time>2022-05-08T08:44:49.000Z</time></trkpt><trkpt lon="5.977079" lat="51.122694"><ele>14.4</ele><time>2022-05-08T08:44:50.000Z</time></trkpt><trkpt lon="5.976987" lat="51.122742"><ele>14.4</ele><time>2022-05-08T08:44:51.000Z</time></trkpt><trkpt lon="5.976892" lat="51.122788"><ele>14.6</ele><time>2022-05-08T08:44:52.000Z</time></trkpt><trkpt lon="5.976796" lat="51.122831"><ele>14.8</ele><time>2022-05-08T08:44:53.000Z</time></trkpt><trkpt lon="5.9767" lat="51.122873"><ele>14.6</ele><time>2022-05-08T08:44:54.000Z</time></trkpt><trkpt lon="5.976602" lat="51.122915"><ele>14.4</ele><time>2022-05-08T08:44:55.000Z</time></trkpt><trkpt lon="5.976504" lat="51.122957"><ele>14.2</ele><time>2022-05-08T08:44:56.000Z</time></trkpt><trkpt lon="5.976405" lat="51.122999"><ele>14.2</ele><time>2022-05-08T08:44:57.000Z</time></trkpt><trkpt lon="5.976305" lat="51.123041"><ele>14.2</ele><time>2022-05-08T08:44:58.000Z</time></trkpt><trkpt lon="5.976207" lat="51.123079"><ele>14.4</ele><time>2022-05-08T08:44:59.000Z</time></trkpt><trkpt lon="5.976104" lat="51.12312"><ele>14.6</ele><time>2022-05-08T08:45:00.000Z</time></trkpt><trkpt lon="5.976" lat="51.123161"><ele>14.8</ele><time>2022-05-08T08:45:01.000Z</time></trkpt><trkpt lon="5.975899" lat="51.123201"><ele>14.8</ele><time>2022-05-08T08:45:02.000Z</time></trkpt><trkpt lon="5.975799" lat="51.12324"><ele>14.8</ele><time>2022-05-08T08:45:03.000Z</time></trkpt><trkpt lon="5.975696" lat="51.123278"><ele>14.8</ele><time>2022-05-08T08:45:04.000Z</time></trkpt><trkpt lon="5.975594" lat="51.123316"><ele>15</ele><time>2022-05-08T08:45:05.000Z</time></trkpt><trkpt lon="5.975492" lat="51.123357"><ele>15.2</ele><time>2022-05-08T08:45:06.000Z</time></trkpt><trkpt lon="5.975389" lat="51.123399"><ele>15.4</ele><time>2022-05-08T08:45:07.000Z</time></trkpt><trkpt lon="5.975288" lat="51.123439"><ele>15.2</ele><time>2022-05-08T08:45:08.000Z</time></trkpt><trkpt lon="5.975188" lat="51.123477"><ele>15.2</ele><time>2022-05-08T08:45:09.000Z</time></trkpt><trkpt lon="5.975088" lat="51.123518"><ele>15.2</ele><time>2022-05-08T08:45:10.000Z</time></trkpt><trkpt lon="5.974987" lat="51.123558"><ele>15.2</ele><time>2022-05-08T08:45:11.000Z</time></trkpt><trkpt lon="5.974887" lat="51.123593"><ele>15</ele><time>2022-05-08T08:45:12.000Z</time></trkpt><trkpt lon="5.974787" lat="51.12363"><ele>14.8</ele><time>2022-05-08T08:45:13.000Z</time></trkpt><trkpt lon="5.974687" lat="51.123668"><ele>14.6</ele><time>2022-05-08T08:45:14.000Z</time></trkpt><trkpt lon="5.974586" lat="51.123708"><ele>14.6</ele><time>2022-05-08T08:45:15.000Z</time></trkpt><trkpt lon="5.974488" lat="51.123748"><ele>14.6</ele><time>2022-05-08T08:45:16.000Z</time></trkpt><trkpt lon="5.974388" lat="51.123784"><ele>14.6</ele><time>2022-05-08T08:45:17.000Z</time></trkpt><trkpt lon="5.974288" lat="51.12382"><ele>14.4</ele><time>2022-05-08T08:45:18.000Z</time></trkpt><trkpt lon="5.974187" lat="51.123861"><ele>14.2</ele><time>2022-05-08T08:45:19.000Z</time></trkpt><trkpt lon="5.974088" lat="51.123901"><ele>14.2</ele><time>2022-05-08T08:45:20.000Z</time></trkpt><trkpt lon="5.97399" lat="51.123939"><ele>14</ele><time>2022-05-08T08:45:21.000Z</time></trkpt><trkpt lon="5.973891" lat="51.123977"><ele>14</ele><time>2022-05-08T08:45:22.000Z</time></trkpt><trkpt lon="5.973799" lat="51.124012"><ele>14</ele><time>2022-05-08T08:45:23.000Z</time></trkpt><trkpt lon="5.9737" lat="51.124051"><ele>14</ele><time>2022-05-08T08:45:24.000Z</time></trkpt><trkpt lon="5.973592" lat="51.124092"><ele>14</ele><time>2022-05-08T08:45:25.000Z</time></trkpt><trkpt lon="5.973493" lat="51.124132"><ele>14</ele><time>2022-05-08T08:45:26.000Z</time></trkpt><trkpt lon="5.973394" lat="51.124171"><ele>14</ele><time>2022-05-08T08:45:27.000Z</time></trkpt><trkpt lon="5.973293" lat="51.124209"><ele>14.2</ele><time>2022-05-08T08:45:28.000Z</time></trkpt><trkpt lon="5.973191" lat="51.12425"><ele>14.2</ele><time>2022-05-08T08:45:29.000Z</time></trkpt><trkpt lon="5.97309" lat="51.124292"><ele>14.4</ele><time>2022-05-08T08:45:30.000Z</time></trkpt><trkpt lon="5.972987" lat="51.124334"><ele>14.6</ele><time>2022-05-08T08:45:31.000Z</time></trkpt><trkpt lon="5.972887" lat="51.124376"><ele>14.6</ele><time>2022-05-08T08:45:32.000Z</time></trkpt><trkpt lon="5.972787" lat="51.124418"><ele>14.6</ele><time>2022-05-08T08:45:33.000Z</time></trkpt><trkpt lon="5.972688" lat="51.124462"><ele>14.4</ele><time>2022-05-08T08:45:34.000Z</time></trkpt><trkpt lon="5.97259" lat="51.124508"><ele>14.2</ele><time>2022-05-08T08:45:35.000Z</time></trkpt><trkpt lon="5.972496" lat="51.124556"><ele>14</ele><time>2022-05-08T08:45:36.000Z</time></trkpt><trkpt lon="5.972403" lat="51.124603"><ele>14</ele><time>2022-05-08T08:45:37.000Z</time></trkpt><trkpt lon="5.972312" lat="51.124653"><ele>14</ele><time>2022-05-08T08:45:38.000Z</time></trkpt><trkpt lon="5.972222" lat="51.124709"><ele>14.2</ele><time>2022-05-08T08:45:39.000Z</time></trkpt><trkpt lon="5.972135" lat="51.124766"><ele>14.2</ele><time>2022-05-08T08:45:40.000Z</time></trkpt><trkpt lon="5.972052" lat="51.124824"><ele>14.2</ele><time>2022-05-08T08:45:41.000Z</time></trkpt><trkpt lon="5.971973" lat="51.124883"><ele>14.2</ele><time>2022-05-08T08:45:42.000Z</time></trkpt><trkpt lon="5.971895" lat="51.124941"><ele>14.4</ele><time>2022-05-08T08:45:43.000Z</time></trkpt><trkpt lon="5.971817" lat="51.124999"><ele>14.4</ele><time>2022-05-08T08:45:44.000Z</time></trkpt><trkpt lon="5.971738" lat="51.125056"><ele>14.4</ele><time>2022-05-08T08:45:45.000Z</time></trkpt><trkpt lon="5.971662" lat="51.125112"><ele>14.4</ele><time>2022-05-08T08:45:46.000Z</time></trkpt><trkpt lon="5.971586" lat="51.125167"><ele>14.4</ele><time>2022-05-08T08:45:47.000Z</time></trkpt><trkpt lon="5.971511" lat="51.125224"><ele>14.4</ele><time>2022-05-08T08:45:48.000Z</time></trkpt><trkpt lon="5.971435" lat="51.125279"><ele>14.6</ele><time>2022-05-08T08:45:49.000Z</time></trkpt><trkpt lon="5.971359" lat="51.125332"><ele>14.6</ele><time>2022-05-08T08:45:50.000Z</time></trkpt><trkpt lon="5.971282" lat="51.125388"><ele>14.6</ele><time>2022-05-08T08:45:51.000Z</time></trkpt><trkpt lon="5.971205" lat="51.125446"><ele>14.6</ele><time>2022-05-08T08:45:52.000Z</time></trkpt><trkpt lon="5.971128" lat="51.125501"><ele>14.8</ele><time>2022-05-08T08:45:53.000Z</time></trkpt><trkpt lon="5.971051" lat="51.125556"><ele>14.8</ele><time>2022-05-08T08:45:54.000Z</time></trkpt><trkpt lon="5.970972" lat="51.125614"><ele>14.8</ele><time>2022-05-08T08:45:55.000Z</time></trkpt><trkpt lon="5.970893" lat="51.125671"><ele>14.8</ele><time>2022-05-08T08:45:56.000Z</time></trkpt><trkpt lon="5.970814" lat="51.125726"><ele>14.8</ele><time>2022-05-08T08:45:57.000Z</time></trkpt><trkpt lon="5.970736" lat="51.125781"><ele>14.6</ele><time>2022-05-08T08:45:58.000Z</time></trkpt><trkpt lon="5.970657" lat="51.125838"><ele>14.4</ele><time>2022-05-08T08:45:59.000Z</time></trkpt><trkpt lon="5.970579" lat="51.125893"><ele>14.4</ele><time>2022-05-08T08:46:00.000Z</time></trkpt><trkpt lon="5.970501" lat="51.125949"><ele>14.2</ele><time>2022-05-08T08:46:01.000Z</time></trkpt><trkpt lon="5.970424" lat="51.126003"><ele>14.2</ele><time>2022-05-08T08:46:02.000Z</time></trkpt><trkpt lon="5.970343" lat="51.126055"><ele>14.4</ele><time>2022-05-08T08:46:03.000Z</time></trkpt><trkpt lon="5.970259" lat="51.126105"><ele>14.4</ele><time>2022-05-08T08:46:04.000Z</time></trkpt><trkpt lon="5.970173" lat="51.126154"><ele>14.4</ele><time>2022-05-08T08:46:05.000Z</time></trkpt><trkpt lon="5.970083" lat="51.126199"><ele>14.2</ele><time>2022-05-08T08:46:06.000Z</time></trkpt><trkpt lon="5.969988" lat="51.126242"><ele>14.2</ele><time>2022-05-08T08:46:07.000Z</time></trkpt><trkpt lon="5.969891" lat="51.126286"><ele>14.4</ele><time>2022-05-08T08:46:08.000Z</time></trkpt><trkpt lon="5.969795" lat="51.126327"><ele>14.2</ele><time>2022-05-08T08:46:09.000Z</time></trkpt><trkpt lon="5.969695" lat="51.126367"><ele>14.2</ele><time>2022-05-08T08:46:10.000Z</time></trkpt><trkpt lon="5.969593" lat="51.126407"><ele>14</ele><time>2022-05-08T08:46:11.000Z</time></trkpt><trkpt lon="5.969494" lat="51.126447"><ele>14</ele><time>2022-05-08T08:46:12.000Z</time></trkpt><trkpt lon="5.969394" lat="51.126489"><ele>14</ele><time>2022-05-08T08:46:13.000Z</time></trkpt><trkpt lon="5.969293" lat="51.126529"><ele>14.2</ele><time>2022-05-08T08:46:14.000Z</time></trkpt><trkpt lon="5.969191" lat="51.126569"><ele>14.2</ele><time>2022-05-08T08:46:15.000Z</time></trkpt><trkpt lon="5.969089" lat="51.126609"><ele>14.2</ele><time>2022-05-08T08:46:16.000Z</time></trkpt><trkpt lon="5.968985" lat="51.12665"><ele>14.2</ele><time>2022-05-08T08:46:17.000Z</time></trkpt><trkpt lon="5.968882" lat="51.126694"><ele>14</ele><time>2022-05-08T08:46:18.000Z</time></trkpt><trkpt lon="5.96878" lat="51.126737"><ele>13.8</ele><time>2022-05-08T08:46:19.000Z</time></trkpt><trkpt lon="5.968678" lat="51.126778"><ele>13.8</ele><time>2022-05-08T08:46:20.000Z</time></trkpt><trkpt lon="5.968575" lat="51.126818"><ele>13.6</ele><time>2022-05-08T08:46:21.000Z</time></trkpt><trkpt lon="5.968468" lat="51.126859"><ele>13.4</ele><time>2022-05-08T08:46:22.000Z</time></trkpt><trkpt lon="5.968364" lat="51.126901"><ele>13.4</ele><time>2022-05-08T08:46:23.000Z</time></trkpt><trkpt lon="5.968262" lat="51.12694"><ele>13.4</ele><time>2022-05-08T08:46:24.000Z</time></trkpt><trkpt lon="5.968159" lat="51.12698"><ele>13.4</ele><time>2022-05-08T08:46:25.000Z</time></trkpt><trkpt lon="5.968053" lat="51.127023"><ele>13.2</ele><time>2022-05-08T08:46:26.000Z</time></trkpt><trkpt lon="5.967949" lat="51.127063"><ele>13.2</ele><time>2022-05-08T08:46:27.000Z</time></trkpt><trkpt lon="5.967846" lat="51.127103"><ele>13.2</ele><time>2022-05-08T08:46:28.000Z</time></trkpt><trkpt lon="5.967743" lat="51.127145"><ele>13.2</ele><time>2022-05-08T08:46:29.000Z</time></trkpt><trkpt lon="5.96764" lat="51.127185"><ele>13.2</ele><time>2022-05-08T08:46:30.000Z</time></trkpt><trkpt lon="5.967536" lat="51.127225"><ele>13.4</ele><time>2022-05-08T08:46:31.000Z</time></trkpt><trkpt lon="5.967432" lat="51.127267"><ele>13.4</ele><time>2022-05-08T08:46:32.000Z</time></trkpt><trkpt lon="5.967329" lat="51.127307"><ele>13.4</ele><time>2022-05-08T08:46:33.000Z</time></trkpt><trkpt lon="5.967224" lat="51.127348"><ele>13.4</ele><time>2022-05-08T08:46:34.000Z</time></trkpt><trkpt lon="5.967119" lat="51.127387"><ele>13.4</ele><time>2022-05-08T08:46:35.000Z</time></trkpt><trkpt lon="5.967016" lat="51.127428"><ele>13.4</ele><time>2022-05-08T08:46:36.000Z</time></trkpt><trkpt lon="5.966914" lat="51.127468"><ele>13.6</ele><time>2022-05-08T08:46:37.000Z</time></trkpt><trkpt lon="5.966813" lat="51.127506"><ele>14</ele><time>2022-05-08T08:46:38.000Z</time></trkpt><trkpt lon="5.966713" lat="51.127546"><ele>14.4</ele><time>2022-05-08T08:46:39.000Z</time></trkpt><trkpt lon="5.966614" lat="51.127585"><ele>14.6</ele><time>2022-05-08T08:46:40.000Z</time></trkpt><trkpt lon="5.966515" lat="51.127623"><ele>14.6</ele><time>2022-05-08T08:46:41.000Z</time></trkpt><trkpt lon="5.966414" lat="51.127663"><ele>14.8</ele><time>2022-05-08T08:46:42.000Z</time></trkpt><trkpt lon="5.966317" lat="51.127703"><ele>14.6</ele><time>2022-05-08T08:46:43.000Z</time></trkpt><trkpt lon="5.966217" lat="51.127743"><ele>14.2</ele><time>2022-05-08T08:46:44.000Z</time></trkpt><trkpt lon="5.966118" lat="51.127783"><ele>14</ele><time>2022-05-08T08:46:45.000Z</time></trkpt><trkpt lon="5.966019" lat="51.127822"><ele>13.8</ele><time>2022-05-08T08:46:46.000Z</time></trkpt><trkpt lon="5.965922" lat="51.127862"><ele>13.6</ele><time>2022-05-08T08:46:47.000Z</time></trkpt><trkpt lon="5.965827" lat="51.127898"><ele>13.4</ele><time>2022-05-08T08:46:48.000Z</time></trkpt><trkpt lon="5.96573" lat="51.127931"><ele>13.4</ele><time>2022-05-08T08:46:49.000Z</time></trkpt><trkpt lon="5.965634" lat="51.127965"><ele>13.4</ele><time>2022-05-08T08:46:50.000Z</time></trkpt><trkpt lon="5.965537" lat="51.128002"><ele>13.4</ele><time>2022-05-08T08:46:51.000Z</time></trkpt><trkpt lon="5.965439" lat="51.12804"><ele>13.4</ele><time>2022-05-08T08:46:52.000Z</time></trkpt><trkpt lon="5.965342" lat="51.128078"><ele>13.4</ele><time>2022-05-08T08:46:53.000Z</time></trkpt><trkpt lon="5.965244" lat="51.128116"><ele>13.4</ele><time>2022-05-08T08:46:54.000Z</time></trkpt><trkpt lon="5.965143" lat="51.128152"><ele>13.2</ele><time>2022-05-08T08:46:55.000Z</time></trkpt><trkpt lon="5.965038" lat="51.128186"><ele>13.2</ele><time>2022-05-08T08:46:56.000Z</time></trkpt><trkpt lon="5.964931" lat="51.128221"><ele>13.2</ele><time>2022-05-08T08:46:57.000Z</time></trkpt><trkpt lon="5.964825" lat="51.128255"><ele>13.4</ele><time>2022-05-08T08:46:58.000Z</time></trkpt><trkpt lon="5.964721" lat="51.128287"><ele>13.4</ele><time>2022-05-08T08:46:59.000Z</time></trkpt><trkpt lon="5.964616" lat="51.12832"><ele>13.4</ele><time>2022-05-08T08:47:00.000Z</time></trkpt><trkpt lon="5.964509" lat="51.128356"><ele>13.6</ele><time>2022-05-08T08:47:01.000Z</time></trkpt><trkpt lon="5.964403" lat="51.128392"><ele>13.6</ele><time>2022-05-08T08:47:02.000Z</time></trkpt><trkpt lon="5.964296" lat="51.128426"><ele>13.8</ele><time>2022-05-08T08:47:03.000Z</time></trkpt><trkpt lon="5.964187" lat="51.128461"><ele>13.8</ele><time>2022-05-08T08:47:04.000Z</time></trkpt><trkpt lon="5.964078" lat="51.128497"><ele>13.8</ele><time>2022-05-08T08:47:05.000Z</time></trkpt><trkpt lon="5.963969" lat="51.128531"><ele>13.8</ele><time>2022-05-08T08:47:06.000Z</time></trkpt><trkpt lon="5.963859" lat="51.128564"><ele>13.8</ele><time>2022-05-08T08:47:07.000Z</time></trkpt><trkpt lon="5.96375" lat="51.128598"><ele>13.6</ele><time>2022-05-08T08:47:08.000Z</time></trkpt><trkpt lon="5.963641" lat="51.128632"><ele>13.4</ele><time>2022-05-08T08:47:09.000Z</time></trkpt><trkpt lon="5.96353" lat="51.128662"><ele>13.2</ele><time>2022-05-08T08:47:10.000Z</time></trkpt><trkpt lon="5.963416" lat="51.128689"><ele>13.2</ele><time>2022-05-08T08:47:11.000Z</time></trkpt><trkpt lon="5.963299" lat="51.128711"><ele>13.2</ele><time>2022-05-08T08:47:12.000Z</time></trkpt><trkpt lon="5.963181" lat="51.128731"><ele>13.2</ele><time>2022-05-08T08:47:13.000Z</time></trkpt><trkpt lon="5.963062" lat="51.128745"><ele>13.2</ele><time>2022-05-08T08:47:14.000Z</time></trkpt><trkpt lon="5.962941" lat="51.128759"><ele>13.4</ele><time>2022-05-08T08:47:15.000Z</time></trkpt><trkpt lon="5.962822" lat="51.128772"><ele>13.2</ele><time>2022-05-08T08:47:16.000Z</time></trkpt><trkpt lon="5.962702" lat="51.128785"><ele>13.2</ele><time>2022-05-08T08:47:17.000Z</time></trkpt><trkpt lon="5.962582" lat="51.128798"><ele>13</ele><time>2022-05-08T08:47:18.000Z</time></trkpt><trkpt lon="5.962462" lat="51.12881"><ele>12.8</ele><time>2022-05-08T08:47:19.000Z</time></trkpt><trkpt lon="5.962343" lat="51.128821"><ele>12.6</ele><time>2022-05-08T08:47:20.000Z</time></trkpt><trkpt lon="5.962225" lat="51.128833"><ele>12.6</ele><time>2022-05-08T08:47:21.000Z</time></trkpt><trkpt lon="5.962106" lat="51.128844"><ele>12.4</ele><time>2022-05-08T08:47:22.000Z</time></trkpt><trkpt lon="5.961988" lat="51.128858"><ele>12.4</ele><time>2022-05-08T08:47:23.000Z</time></trkpt><trkpt lon="5.961871" lat="51.128871"><ele>12.2</ele><time>2022-05-08T08:47:24.000Z</time></trkpt><trkpt lon="5.961754" lat="51.128882"><ele>12</ele><time>2022-05-08T08:47:25.000Z</time></trkpt><trkpt lon="5.961636" lat="51.128896"><ele>12</ele><time>2022-05-08T08:47:26.000Z</time></trkpt><trkpt lon="5.961518" lat="51.128909"><ele>12.2</ele><time>2022-05-08T08:47:27.000Z</time></trkpt><trkpt lon="5.961401" lat="51.128918"><ele>12.4</ele><time>2022-05-08T08:47:28.000Z</time></trkpt><trkpt lon="5.961284" lat="51.12893"><ele>12.4</ele><time>2022-05-08T08:47:29.000Z</time></trkpt><trkpt lon="5.961166" lat="51.128943"><ele>12.6</ele><time>2022-05-08T08:47:30.000Z</time></trkpt><trkpt lon="5.961049" lat="51.128957"><ele>12.8</ele><time>2022-05-08T08:47:31.000Z</time></trkpt><trkpt lon="5.960933" lat="51.12897"><ele>13</ele><time>2022-05-08T08:47:32.000Z</time></trkpt><trkpt lon="5.960816" lat="51.128981"><ele>13.2</ele><time>2022-05-08T08:47:33.000Z</time></trkpt><trkpt lon="5.960699" lat="51.128995"><ele>13.4</ele><time>2022-05-08T08:47:34.000Z</time></trkpt><trkpt lon="5.960582" lat="51.129008"><ele>13.4</ele><time>2022-05-08T08:47:35.000Z</time></trkpt><trkpt lon="5.960466" lat="51.12902"><ele>13.4</ele><time>2022-05-08T08:47:36.000Z</time></trkpt><trkpt lon="5.96035" lat="51.129031"><ele>13.4</ele><time>2022-05-08T08:47:37.000Z</time></trkpt><trkpt lon="5.960235" lat="51.129043"><ele>13.2</ele><time>2022-05-08T08:47:38.000Z</time></trkpt><trkpt lon="5.960119" lat="51.129054"><ele>13.2</ele><time>2022-05-08T08:47:39.000Z</time></trkpt><trkpt lon="5.960003" lat="51.129066"><ele>13.2</ele><time>2022-05-08T08:47:40.000Z</time></trkpt><trkpt lon="5.959889" lat="51.129077"><ele>13.2</ele><time>2022-05-08T08:47:41.000Z</time></trkpt><trkpt lon="5.959775" lat="51.129091"><ele>13.2</ele><time>2022-05-08T08:47:42.000Z</time></trkpt><trkpt lon="5.959662" lat="51.129104"><ele>13</ele><time>2022-05-08T08:47:43.000Z</time></trkpt><trkpt lon="5.95955" lat="51.129115"><ele>13</ele><time>2022-05-08T08:47:44.000Z</time></trkpt><trkpt lon="5.959437" lat="51.129127"><ele>13.2</ele><time>2022-05-08T08:47:45.000Z</time></trkpt><trkpt lon="5.959322" lat="51.129136"><ele>13.4</ele><time>2022-05-08T08:47:46.000Z</time></trkpt><trkpt lon="5.959209" lat="51.129146"><ele>13.4</ele><time>2022-05-08T08:47:47.000Z</time></trkpt><trkpt lon="5.959096" lat="51.129157"><ele>13.4</ele><time>2022-05-08T08:47:48.000Z</time></trkpt><trkpt lon="5.95898" lat="51.129169"><ele>13.4</ele><time>2022-05-08T08:47:49.000Z</time></trkpt><trkpt lon="5.958862" lat="51.129182"><ele>13.6</ele><time>2022-05-08T08:47:50.000Z</time></trkpt><trkpt lon="5.958743" lat="51.129195"><ele>13.6</ele><time>2022-05-08T08:47:51.000Z</time></trkpt><trkpt lon="5.958622" lat="51.129207"><ele>13.6</ele><time>2022-05-08T08:47:52.000Z</time></trkpt><trkpt lon="5.958499" lat="51.129218"><ele>13.4</ele><time>2022-05-08T08:47:53.000Z</time></trkpt><trkpt lon="5.958377" lat="51.129229"><ele>13.4</ele><time>2022-05-08T08:47:54.000Z</time></trkpt><trkpt lon="5.958254" lat="51.129243"><ele>13.4</ele><time>2022-05-08T08:47:55.000Z</time></trkpt><trkpt lon="5.958133" lat="51.129256"><ele>13.6</ele><time>2022-05-08T08:47:56.000Z</time></trkpt><trkpt lon="5.958009" lat="51.129268"><ele>13.6</ele><time>2022-05-08T08:47:57.000Z</time></trkpt><trkpt lon="5.957886" lat="51.129279"><ele>13.6</ele><time>2022-05-08T08:47:58.000Z</time></trkpt><trkpt lon="5.957765" lat="51.12929"><ele>13.6</ele><time>2022-05-08T08:47:59.000Z</time></trkpt><trkpt lon="5.957641" lat="51.129302"><ele>13.6</ele><time>2022-05-08T08:48:00.000Z</time></trkpt><trkpt lon="5.957517" lat="51.129314"><ele>13.6</ele><time>2022-05-08T08:48:01.000Z</time></trkpt><trkpt lon="5.957394" lat="51.129327"><ele>13.6</ele><time>2022-05-08T08:48:02.000Z</time></trkpt><trkpt lon="5.957274" lat="51.129338"><ele>13.8</ele><time>2022-05-08T08:48:03.000Z</time></trkpt><trkpt lon="5.95715" lat="51.129343"><ele>13.6</ele><time>2022-05-08T08:48:04.000Z</time></trkpt><trkpt lon="5.957024" lat="51.129349"><ele>13.6</ele><time>2022-05-08T08:48:05.000Z</time></trkpt><trkpt lon="5.9569" lat="51.129353"><ele>13.4</ele><time>2022-05-08T08:48:06.000Z</time></trkpt><trkpt lon="5.956778" lat="51.12935"><ele>13.2</ele><time>2022-05-08T08:48:07.000Z</time></trkpt><trkpt lon="5.956657" lat="51.129346"><ele>12.8</ele><time>2022-05-08T08:48:08.000Z</time></trkpt><trkpt lon="5.956536" lat="51.129345"><ele>12.6</ele><time>2022-05-08T08:48:09.000Z</time></trkpt><trkpt lon="5.956414" lat="51.129343"><ele>12.4</ele><time>2022-05-08T08:48:10.000Z</time></trkpt><trkpt lon="5.956293" lat="51.129339"><ele>12.6</ele><time>2022-05-08T08:48:11.000Z</time></trkpt><trkpt lon="5.956173" lat="51.129335"><ele>12.6</ele><time>2022-05-08T08:48:12.000Z</time></trkpt><trkpt lon="5.956051" lat="51.129331"><ele>12.8</ele><time>2022-05-08T08:48:13.000Z</time></trkpt><trkpt lon="5.955929" lat="51.129327"><ele>12.8</ele><time>2022-05-08T08:48:14.000Z</time></trkpt><trkpt lon="5.955806" lat="51.129324"><ele>13</ele><time>2022-05-08T08:48:15.000Z</time></trkpt><trkpt lon="5.955684" lat="51.12932"><ele>13.2</ele><time>2022-05-08T08:48:16.000Z</time></trkpt><trkpt lon="5.955564" lat="51.129318"><ele>13.2</ele><time>2022-05-08T08:48:17.000Z</time></trkpt><trkpt lon="5.955449" lat="51.129316"><ele>13.2</ele><time>2022-05-08T08:48:18.000Z</time></trkpt><trkpt lon="5.955328" lat="51.12931"><ele>13.2</ele><time>2022-05-08T08:48:19.000Z</time></trkpt><trkpt lon="5.955206" lat="51.129307"><ele>13</ele><time>2022-05-08T08:48:20.000Z</time></trkpt><trkpt lon="5.955089" lat="51.129305"><ele>13</ele><time>2022-05-08T08:48:21.000Z</time></trkpt><trkpt lon="5.95497" lat="51.129301"><ele>12.4</ele><time>2022-05-08T08:48:22.000Z</time></trkpt><trkpt lon="5.954852" lat="51.129297"><ele>12.2</ele><time>2022-05-08T08:48:23.000Z</time></trkpt><trkpt lon="5.954735" lat="51.129293"><ele>12</ele><time>2022-05-08T08:48:24.000Z</time></trkpt><trkpt lon="5.954616" lat="51.129289"><ele>11.8</ele><time>2022-05-08T08:48:25.000Z</time></trkpt><trkpt lon="5.9545" lat="51.129285"><ele>11.8</ele><time>2022-05-08T08:48:26.000Z</time></trkpt><trkpt lon="5.954385" lat="51.129282"><ele>11.6</ele><time>2022-05-08T08:48:27.000Z</time></trkpt><trkpt lon="5.954269" lat="51.129278"><ele>11.6</ele><time>2022-05-08T08:48:28.000Z</time></trkpt><trkpt lon="5.954153" lat="51.129274"><ele>11.6</ele><time>2022-05-08T08:48:29.000Z</time></trkpt><trkpt lon="5.954038" lat="51.12927"><ele>11.6</ele><time>2022-05-08T08:48:30.000Z</time></trkpt><trkpt lon="5.953924" lat="51.129266"><ele>11.8</ele><time>2022-05-08T08:48:31.000Z</time></trkpt><trkpt lon="5.953807" lat="51.129265"><ele>11.8</ele><time>2022-05-08T08:48:32.000Z</time></trkpt><trkpt lon="5.953689" lat="51.129263"><ele>11.8</ele><time>2022-05-08T08:48:33.000Z</time></trkpt><trkpt lon="5.953571" lat="51.129259"><ele>11.8</ele><time>2022-05-08T08:48:34.000Z</time></trkpt><trkpt lon="5.953453" lat="51.129255"><ele>11.8</ele><time>2022-05-08T08:48:35.000Z</time></trkpt><trkpt lon="5.953336" lat="51.129251"><ele>11.8</ele><time>2022-05-08T08:48:36.000Z</time></trkpt><trkpt lon="5.953219" lat="51.129247"><ele>11.8</ele><time>2022-05-08T08:48:37.000Z</time></trkpt><trkpt lon="5.953102" lat="51.129244"><ele>11.8</ele><time>2022-05-08T08:48:38.000Z</time></trkpt><trkpt lon="5.952985" lat="51.12924"><ele>11.8</ele><time>2022-05-08T08:48:39.000Z</time></trkpt><trkpt lon="5.952868" lat="51.129238"><ele>11.6</ele><time>2022-05-08T08:48:40.000Z</time></trkpt><trkpt lon="5.95275" lat="51.129236"><ele>11.6</ele><time>2022-05-08T08:48:41.000Z</time></trkpt><trkpt lon="5.952634" lat="51.129232"><ele>11.6</ele><time>2022-05-08T08:48:42.000Z</time></trkpt><trkpt lon="5.952519" lat="51.12923"><ele>11.6</ele><time>2022-05-08T08:48:43.000Z</time></trkpt><trkpt lon="5.952403" lat="51.12923"><ele>11.6</ele><time>2022-05-08T08:48:44.000Z</time></trkpt><trkpt lon="5.952288" lat="51.129228"><ele>11.6</ele><time>2022-05-08T08:48:45.000Z</time></trkpt><trkpt lon="5.952174" lat="51.129224"><ele>11.6</ele><time>2022-05-08T08:48:46.000Z</time></trkpt><trkpt lon="5.95206" lat="51.129223"><ele>11.8</ele><time>2022-05-08T08:48:47.000Z</time></trkpt><trkpt lon="5.951945" lat="51.129221"><ele>11.8</ele><time>2022-05-08T08:48:48.000Z</time></trkpt><trkpt lon="5.951832" lat="51.129217"><ele>11.8</ele><time>2022-05-08T08:48:49.000Z</time></trkpt><trkpt lon="5.951718" lat="51.129213"><ele>11.8</ele><time>2022-05-08T08:48:50.000Z</time></trkpt><trkpt lon="5.951603" lat="51.129209"><ele>11.8</ele><time>2022-05-08T08:48:51.000Z</time></trkpt><trkpt lon="5.951488" lat="51.129205"><ele>11.8</ele><time>2022-05-08T08:48:52.000Z</time></trkpt><trkpt lon="5.951375" lat="51.129202"><ele>12</ele><time>2022-05-08T08:48:53.000Z</time></trkpt><trkpt lon="5.951261" lat="51.1292"><ele>12</ele><time>2022-05-08T08:48:54.000Z</time></trkpt><trkpt lon="5.951146" lat="51.129198"><ele>12</ele><time>2022-05-08T08:48:55.000Z</time></trkpt><trkpt lon="5.95103" lat="51.129194"><ele>12</ele><time>2022-05-08T08:48:56.000Z</time></trkpt><trkpt lon="5.950915" lat="51.12919"><ele>12</ele><time>2022-05-08T08:48:57.000Z</time></trkpt><trkpt lon="5.950802" lat="51.129186"><ele>12</ele><time>2022-05-08T08:48:58.000Z</time></trkpt><trkpt lon="5.95069" lat="51.12918"><ele>12.2</ele><time>2022-05-08T08:48:59.000Z</time></trkpt><trkpt lon="5.95058" lat="51.129171"><ele>12.2</ele><time>2022-05-08T08:49:00.000Z</time></trkpt><trkpt lon="5.950471" lat="51.129155"><ele>12.2</ele><time>2022-05-08T08:49:01.000Z</time></trkpt><trkpt lon="5.950362" lat="51.129136"><ele>12.4</ele><time>2022-05-08T08:49:02.000Z</time></trkpt><trkpt lon="5.950257" lat="51.129115"><ele>12.4</ele><time>2022-05-08T08:49:03.000Z</time></trkpt><trkpt lon="5.950145" lat="51.129092"><ele>12.4</ele><time>2022-05-08T08:49:04.000Z</time></trkpt><trkpt lon="5.950032" lat="51.129064"><ele>12.4</ele><time>2022-05-08T08:49:05.000Z</time></trkpt><trkpt lon="5.949923" lat="51.129034"><ele>12.6</ele><time>2022-05-08T08:49:06.000Z</time></trkpt><trkpt lon="5.949817" lat="51.129001"><ele>12.6</ele><time>2022-05-08T08:49:07.000Z</time></trkpt><trkpt lon="5.949714" lat="51.128964"><ele>12.6</ele><time>2022-05-08T08:49:08.000Z</time></trkpt><trkpt lon="5.949614" lat="51.128926"><ele>12.6</ele><time>2022-05-08T08:49:09.000Z</time></trkpt><trkpt lon="5.949517" lat="51.128885"><ele>12.8</ele><time>2022-05-08T08:49:10.000Z</time></trkpt><trkpt lon="5.949421" lat="51.128844"><ele>12.8</ele><time>2022-05-08T08:49:11.000Z</time></trkpt><trkpt lon="5.949328" lat="51.128799"><ele>12.8</ele><time>2022-05-08T08:49:12.000Z</time></trkpt><trkpt lon="5.949236" lat="51.128756"><ele>12.8</ele><time>2022-05-08T08:49:13.000Z</time></trkpt><trkpt lon="5.949145" lat="51.128712"><ele>13</ele><time>2022-05-08T08:49:14.000Z</time></trkpt><trkpt lon="5.949053" lat="51.128666"><ele>13</ele><time>2022-05-08T08:49:15.000Z</time></trkpt><trkpt lon="5.948961" lat="51.128622"><ele>13</ele><time>2022-05-08T08:49:16.000Z</time></trkpt><trkpt lon="5.948871" lat="51.128578"><ele>13.2</ele><time>2022-05-08T08:49:17.000Z</time></trkpt><trkpt lon="5.948782" lat="51.128535"><ele>13.2</ele><time>2022-05-08T08:49:18.000Z</time></trkpt><trkpt lon="5.948691" lat="51.128493"><ele>13.2</ele><time>2022-05-08T08:49:19.000Z</time></trkpt><trkpt lon="5.948598" lat="51.128449"><ele>13.2</ele><time>2022-05-08T08:49:20.000Z</time></trkpt><trkpt lon="5.948505" lat="51.128403"><ele>13</ele><time>2022-05-08T08:49:21.000Z</time></trkpt><trkpt lon="5.948413" lat="51.128358"><ele>13.2</ele><time>2022-05-08T08:49:22.000Z</time></trkpt><trkpt lon="5.94832" lat="51.128312"><ele>13</ele><time>2022-05-08T08:49:23.000Z</time></trkpt><trkpt lon="5.948225" lat="51.128266"><ele>13</ele><time>2022-05-08T08:49:24.000Z</time></trkpt><trkpt lon="5.948136" lat="51.128221"><ele>13.2</ele><time>2022-05-08T08:49:25.000Z</time></trkpt><trkpt lon="5.948047" lat="51.128174"><ele>13.2</ele><time>2022-05-08T08:49:26.000Z</time></trkpt><trkpt lon="5.947958" lat="51.128129"><ele>13.4</ele><time>2022-05-08T08:49:27.000Z</time></trkpt><trkpt lon="5.947872" lat="51.128085"><ele>13.4</ele><time>2022-05-08T08:49:28.000Z</time></trkpt><trkpt lon="5.947787" lat="51.128045"><ele>13.4</ele><time>2022-05-08T08:49:29.000Z</time></trkpt><trkpt lon="5.947701" lat="51.128004"><ele>13.4</ele><time>2022-05-08T08:49:30.000Z</time></trkpt><trkpt lon="5.947615" lat="51.127962"><ele>13.4</ele><time>2022-05-08T08:49:31.000Z</time></trkpt><trkpt lon="5.947532" lat="51.127923"><ele>13.4</ele><time>2022-05-08T08:49:32.000Z</time></trkpt><trkpt lon="5.947451" lat="51.127882"><ele>13.2</ele><time>2022-05-08T08:49:33.000Z</time></trkpt><trkpt lon="5.947373" lat="51.127843"><ele>13.2</ele><time>2022-05-08T08:49:34.000Z</time></trkpt><trkpt lon="5.947297" lat="51.127807"><ele>13.4</ele><time>2022-05-08T08:49:35.000Z</time></trkpt><trkpt lon="5.947224" lat="51.12777"><ele>13.4</ele><time>2022-05-08T08:49:36.000Z</time></trkpt><trkpt lon="5.947153" lat="51.127734"><ele>13.6</ele><time>2022-05-08T08:49:37.000Z</time></trkpt><trkpt lon="5.947083" lat="51.1277"><ele>13.6</ele><time>2022-05-08T08:49:38.000Z</time></trkpt><trkpt lon="5.947011" lat="51.127668"><ele>13.8</ele><time>2022-05-08T08:49:39.000Z</time></trkpt><trkpt lon="5.946943" lat="51.127637"><ele>14</ele><time>2022-05-08T08:49:40.000Z</time></trkpt><trkpt lon="5.946884" lat="51.127609"><ele>14</ele><time>2022-05-08T08:49:41.000Z</time></trkpt><trkpt lon="5.946836" lat="51.127584"><ele>14.2</ele><time>2022-05-08T08:49:42.000Z</time></trkpt><trkpt lon="5.946796" lat="51.127562"><ele>14.4</ele><time>2022-05-08T08:49:43.000Z</time></trkpt><trkpt lon="5.946763" lat="51.127535"><ele>14.6</ele><time>2022-05-08T08:49:44.000Z</time></trkpt><trkpt lon="5.946741" lat="51.127502"><ele>14.8</ele><time>2022-05-08T08:49:45.000Z</time></trkpt><trkpt lon="5.946738" lat="51.127463"><ele>14.8</ele><time>2022-05-08T08:49:46.000Z</time></trkpt><trkpt lon="5.946756" lat="51.127421"><ele>15</ele><time>2022-05-08T08:49:47.000Z</time></trkpt><trkpt lon="5.946788" lat="51.127375"><ele>15</ele><time>2022-05-08T08:49:48.000Z</time></trkpt><trkpt lon="5.946826" lat="51.127327"><ele>15.2</ele><time>2022-05-08T08:49:49.000Z</time></trkpt><trkpt lon="5.946867" lat="51.127279"><ele>15.2</ele><time>2022-05-08T08:49:50.000Z</time></trkpt><trkpt lon="5.946906" lat="51.127229"><ele>15.2</ele><time>2022-05-08T08:49:51.000Z</time></trkpt><trkpt lon="5.946941" lat="51.12718"><ele>15.4</ele><time>2022-05-08T08:49:52.000Z</time></trkpt><trkpt lon="5.94697" lat="51.12713"><ele>15.6</ele><time>2022-05-08T08:49:53.000Z</time></trkpt><trkpt lon="5.946993" lat="51.127081"><ele>15.6</ele><time>2022-05-08T08:49:54.000Z</time></trkpt><trkpt lon="5.947015" lat="51.127031"><ele>15.8</ele><time>2022-05-08T08:49:55.000Z</time></trkpt><trkpt lon="5.947036" lat="51.126986"><ele>15.8</ele><time>2022-05-08T08:49:56.000Z</time></trkpt><trkpt lon="5.94705" lat="51.126944"><ele>16</ele><time>2022-05-08T08:49:57.000Z</time></trkpt><trkpt lon="5.947052" lat="51.1269"><ele>16.2</ele><time>2022-05-08T08:49:58.000Z</time></trkpt><trkpt lon="5.947038" lat="51.126856"><ele>16.2</ele><time>2022-05-08T08:49:59.000Z</time></trkpt><trkpt lon="5.947002" lat="51.126825"><ele>16.4</ele><time>2022-05-08T08:50:00.000Z</time></trkpt><trkpt lon="5.946948" lat="51.126807"><ele>16.4</ele><time>2022-05-08T08:50:01.000Z</time></trkpt><trkpt lon="5.946883" lat="51.126792"><ele>16.6</ele><time>2022-05-08T08:50:02.000Z</time></trkpt><trkpt lon="5.946808" lat="51.126774"><ele>16.6</ele><time>2022-05-08T08:50:03.000Z</time></trkpt><trkpt lon="5.946721" lat="51.126755"><ele>16.8</ele><time>2022-05-08T08:50:04.000Z</time></trkpt><trkpt lon="5.94663" lat="51.126732"><ele>16.8</ele><time>2022-05-08T08:50:05.000Z</time></trkpt><trkpt lon="5.946534" lat="51.126705"><ele>17</ele><time>2022-05-08T08:50:06.000Z</time></trkpt><trkpt lon="5.946436" lat="51.126678"><ele>17</ele><time>2022-05-08T08:50:07.000Z</time></trkpt><trkpt lon="5.946336" lat="51.126651"><ele>17.2</ele><time>2022-05-08T08:50:08.000Z</time></trkpt><trkpt lon="5.946232" lat="51.126625"><ele>17.2</ele><time>2022-05-08T08:50:09.000Z</time></trkpt><trkpt lon="5.946133" lat="51.126598"><ele>17.4</ele><time>2022-05-08T08:50:10.000Z</time></trkpt><trkpt lon="5.946037" lat="51.126572"><ele>17.4</ele><time>2022-05-08T08:50:11.000Z</time></trkpt><trkpt lon="5.945943" lat="51.126545"><ele>17.6</ele><time>2022-05-08T08:50:12.000Z</time></trkpt><trkpt lon="5.945852" lat="51.12652"><ele>17.6</ele><time>2022-05-08T08:50:13.000Z</time></trkpt><trkpt lon="5.945761" lat="51.126495"><ele>17.6</ele><time>2022-05-08T08:50:14.000Z</time></trkpt><trkpt lon="5.945674" lat="51.126468"><ele>17.6</ele><time>2022-05-08T08:50:15.000Z</time></trkpt><trkpt lon="5.94559" lat="51.126442"><ele>17.6</ele><time>2022-05-08T08:50:16.000Z</time></trkpt><trkpt lon="5.945511" lat="51.126415"><ele>17.6</ele><time>2022-05-08T08:50:17.000Z</time></trkpt><trkpt lon="5.945437" lat="51.126391"><ele>17.6</ele><time>2022-05-08T08:50:18.000Z</time></trkpt><trkpt lon="5.945366" lat="51.126366"><ele>17.6</ele><time>2022-05-08T08:50:19.000Z</time></trkpt><trkpt lon="5.945296" lat="51.126339"><ele>17.4</ele><time>2022-05-08T08:50:20.000Z</time></trkpt><trkpt lon="5.945228" lat="51.12631"><ele>17.4</ele><time>2022-05-08T08:50:21.000Z</time></trkpt><trkpt lon="5.945156" lat="51.126277"><ele>17.2</ele><time>2022-05-08T08:50:22.000Z</time></trkpt><trkpt lon="5.945083" lat="51.126241"><ele>17.2</ele><time>2022-05-08T08:50:23.000Z</time></trkpt><trkpt lon="5.94501" lat="51.1262"><ele>17</ele><time>2022-05-08T08:50:24.000Z</time></trkpt><trkpt lon="5.944942" lat="51.126156"><ele>17</ele><time>2022-05-08T08:50:25.000Z</time></trkpt><trkpt lon="5.944883" lat="51.126106"><ele>16.8</ele><time>2022-05-08T08:50:26.000Z</time></trkpt><trkpt lon="5.944839" lat="51.126052"><ele>16.6</ele><time>2022-05-08T08:50:27.000Z</time></trkpt><trkpt lon="5.944805" lat="51.125995"><ele>16.4</ele><time>2022-05-08T08:50:28.000Z</time></trkpt><trkpt lon="5.944773" lat="51.125935"><ele>16.2</ele><time>2022-05-08T08:50:29.000Z</time></trkpt><trkpt lon="5.944738" lat="51.125871"><ele>16</ele><time>2022-05-08T08:50:30.000Z</time></trkpt><trkpt lon="5.944703" lat="51.125807"><ele>15.8</ele><time>2022-05-08T08:50:31.000Z</time></trkpt><trkpt lon="5.944665" lat="51.125744"><ele>15.6</ele><time>2022-05-08T08:50:32.000Z</time></trkpt><trkpt lon="5.944628" lat="51.12568"><ele>15.4</ele><time>2022-05-08T08:50:33.000Z</time></trkpt><trkpt lon="5.944592" lat="51.125615"><ele>15.2</ele><time>2022-05-08T08:50:34.000Z</time></trkpt><trkpt lon="5.944556" lat="51.125551"><ele>15</ele><time>2022-05-08T08:50:35.000Z</time></trkpt><trkpt lon="5.94452" lat="51.125483"><ele>14.8</ele><time>2022-05-08T08:50:36.000Z</time></trkpt><trkpt lon="5.944485" lat="51.125414"><ele>14.8</ele><time>2022-05-08T08:50:37.000Z</time></trkpt><trkpt lon="5.94445" lat="51.125345"><ele>14.6</ele><time>2022-05-08T08:50:38.000Z</time></trkpt><trkpt lon="5.944417" lat="51.125275"><ele>14.6</ele><time>2022-05-08T08:50:39.000Z</time></trkpt><trkpt lon="5.944393" lat="51.125197"><ele>14.6</ele><time>2022-05-08T08:50:40.000Z</time></trkpt><trkpt lon="5.944377" lat="51.125119"><ele>14.4</ele><time>2022-05-08T08:50:41.000Z</time></trkpt><trkpt lon="5.944359" lat="51.125046"><ele>14.2</ele><time>2022-05-08T08:50:42.000Z</time></trkpt><trkpt lon="5.944331" lat="51.124975"><ele>14.2</ele><time>2022-05-08T08:50:43.000Z</time></trkpt><trkpt lon="5.944295" lat="51.124908"><ele>14</ele><time>2022-05-08T08:50:44.000Z</time></trkpt><trkpt lon="5.944255" lat="51.124841"><ele>14</ele><time>2022-05-08T08:50:45.000Z</time></trkpt><trkpt lon="5.944211" lat="51.124775"><ele>14</ele><time>2022-05-08T08:50:46.000Z</time></trkpt><trkpt lon="5.94417" lat="51.124714"><ele>14</ele><time>2022-05-08T08:50:47.000Z</time></trkpt><trkpt lon="5.944128" lat="51.124657"><ele>14.2</ele><time>2022-05-08T08:50:48.000Z</time></trkpt><trkpt lon="5.944086" lat="51.124603"><ele>14</ele><time>2022-05-08T08:50:49.000Z</time></trkpt><trkpt lon="5.944043" lat="51.124552"><ele>14</ele><time>2022-05-08T08:50:50.000Z</time></trkpt><trkpt lon="5.944001" lat="51.124504"><ele>14</ele><time>2022-05-08T08:50:51.000Z</time></trkpt><trkpt lon="5.94396" lat="51.124456"><ele>14</ele><time>2022-05-08T08:50:52.000Z</time></trkpt><trkpt lon="5.943919" lat="51.124407"><ele>14</ele><time>2022-05-08T08:50:53.000Z</time></trkpt><trkpt lon="5.943875" lat="51.124358"><ele>14</ele><time>2022-05-08T08:50:54.000Z</time></trkpt><trkpt lon="5.943828" lat="51.124308"><ele>14</ele><time>2022-05-08T08:50:55.000Z</time></trkpt><trkpt lon="5.94378" lat="51.124255"><ele>13.8</ele><time>2022-05-08T08:50:56.000Z</time></trkpt><trkpt lon="5.943728" lat="51.124206"><ele>13.8</ele><time>2022-05-08T08:50:57.000Z</time></trkpt><trkpt lon="5.943668" lat="51.124161"><ele>13.6</ele><time>2022-05-08T08:50:58.000Z</time></trkpt><trkpt lon="5.943601" lat="51.12412"><ele>13.6</ele><time>2022-05-08T08:50:59.000Z</time></trkpt><trkpt lon="5.943529" lat="51.124086"><ele>13.6</ele><time>2022-05-08T08:51:00.000Z</time></trkpt><trkpt lon="5.943456" lat="51.124055"><ele>13.8</ele><time>2022-05-08T08:51:01.000Z</time></trkpt><trkpt lon="5.943385" lat="51.124027"><ele>13.8</ele><time>2022-05-08T08:51:02.000Z</time></trkpt><trkpt lon="5.943319" lat="51.124005"><ele>14</ele><time>2022-05-08T08:51:03.000Z</time></trkpt><trkpt lon="5.943258" lat="51.123988"><ele>14.2</ele><time>2022-05-08T08:51:04.000Z</time></trkpt><trkpt lon="5.9432" lat="51.123975"><ele>14.4</ele><time>2022-05-08T08:51:05.000Z</time></trkpt><trkpt lon="5.943144" lat="51.123963"><ele>14.6</ele><time>2022-05-08T08:51:06.000Z</time></trkpt><trkpt lon="5.943088" lat="51.123952"><ele>14.6</ele><time>2022-05-08T08:51:07.000Z</time></trkpt><trkpt lon="5.943032" lat="51.123945"><ele>14.6</ele><time>2022-05-08T08:51:08.000Z</time></trkpt><trkpt lon="5.942974" lat="51.123937"><ele>14.6</ele><time>2022-05-08T08:51:09.000Z</time></trkpt><trkpt lon="5.942914" lat="51.12393"><ele>14.6</ele><time>2022-05-08T08:51:10.000Z</time></trkpt><trkpt lon="5.942851" lat="51.123921"><ele>14.6</ele><time>2022-05-08T08:51:11.000Z</time></trkpt><trkpt lon="5.942783" lat="51.123912"><ele>14.4</ele><time>2022-05-08T08:51:12.000Z</time></trkpt><trkpt lon="5.942709" lat="51.123905"><ele>14.4</ele><time>2022-05-08T08:51:13.000Z</time></trkpt><trkpt lon="5.942625" lat="51.123895"><ele>14.4</ele><time>2022-05-08T08:51:14.000Z</time></trkpt><trkpt lon="5.942532" lat="51.123879"><ele>14.4</ele><time>2022-05-08T08:51:15.000Z</time></trkpt><trkpt lon="5.942437" lat="51.12386"><ele>14.4</ele><time>2022-05-08T08:51:16.000Z</time></trkpt><trkpt lon="5.942342" lat="51.123841"><ele>14.4</ele><time>2022-05-08T08:51:17.000Z</time></trkpt><trkpt lon="5.94224" lat="51.123824"><ele>14.4</ele><time>2022-05-08T08:51:18.000Z</time></trkpt><trkpt lon="5.942135" lat="51.123809"><ele>14.2</ele><time>2022-05-08T08:51:19.000Z</time></trkpt><trkpt lon="5.942032" lat="51.123793"><ele>14.4</ele><time>2022-05-08T08:51:20.000Z</time></trkpt><trkpt lon="5.941932" lat="51.123778"><ele>14.4</ele><time>2022-05-08T08:51:21.000Z</time></trkpt><trkpt lon="5.941832" lat="51.123761"><ele>14.6</ele><time>2022-05-08T08:51:22.000Z</time></trkpt><trkpt lon="5.94173" lat="51.123742"><ele>14.8</ele><time>2022-05-08T08:51:23.000Z</time></trkpt><trkpt lon="5.941626" lat="51.123727"><ele>15</ele><time>2022-05-08T08:51:24.000Z</time></trkpt><trkpt lon="5.941521" lat="51.123715"><ele>15</ele><time>2022-05-08T08:51:25.000Z</time></trkpt><trkpt lon="5.941418" lat="51.123702"><ele>14.8</ele><time>2022-05-08T08:51:26.000Z</time></trkpt><trkpt lon="5.941314" lat="51.123687"><ele>14.6</ele><time>2022-05-08T08:51:27.000Z</time></trkpt><trkpt lon="5.941213" lat="51.123671"><ele>14.4</ele><time>2022-05-08T08:51:28.000Z</time></trkpt><trkpt lon="5.941115" lat="51.123656"><ele>14.2</ele><time>2022-05-08T08:51:29.000Z</time></trkpt><trkpt lon="5.941017" lat="51.123638"><ele>14.2</ele><time>2022-05-08T08:51:30.000Z</time></trkpt><trkpt lon="5.940924" lat="51.123622"><ele>14.4</ele><time>2022-05-08T08:51:31.000Z</time></trkpt><trkpt lon="5.940846" lat="51.123607"><ele>14.4</ele><time>2022-05-08T08:51:32.000Z</time></trkpt><trkpt lon="5.940776" lat="51.123596"><ele>14.4</ele><time>2022-05-08T08:51:33.000Z</time></trkpt><trkpt lon="5.940716" lat="51.12359"><ele>14.4</ele><time>2022-05-08T08:51:34.000Z</time></trkpt><trkpt lon="5.940666" lat="51.123584"><ele>14.6</ele><time>2022-05-08T08:51:35.000Z</time></trkpt><trkpt lon="5.940608" lat="51.123579"><ele>14.8</ele><time>2022-05-08T08:51:36.000Z</time></trkpt><trkpt lon="5.940545" lat="51.123577"><ele>14.8</ele><time>2022-05-08T08:51:37.000Z</time></trkpt><trkpt lon="5.940481" lat="51.123574"><ele>14.8</ele><time>2022-05-08T08:51:38.000Z</time></trkpt><trkpt lon="5.940443" lat="51.123567"><ele>14.8</ele><time>2022-05-08T08:51:39.000Z</time></trkpt><trkpt lon="5.940413" lat="51.123566"><ele>15</ele><time>2022-05-08T08:51:40.000Z</time></trkpt><trkpt lon="5.940378" lat="51.123565"><ele>15</ele><time>2022-05-08T08:51:41.000Z</time></trkpt><trkpt lon="5.940339" lat="51.123557"><ele>15</ele><time>2022-05-08T08:51:42.000Z</time></trkpt><trkpt lon="5.940297" lat="51.123552"><ele>15</ele><time>2022-05-08T08:51:43.000Z</time></trkpt><trkpt lon="5.940255" lat="51.123544"><ele>15</ele><time>2022-05-08T08:51:44.000Z</time></trkpt><trkpt lon="5.940215" lat="51.123534"><ele>15</ele><time>2022-05-08T08:51:45.000Z</time></trkpt><trkpt lon="5.940182" lat="51.123527"><ele>15</ele><time>2022-05-08T08:51:46.000Z</time></trkpt><trkpt lon="5.940153" lat="51.123521"><ele>14.8</ele><time>2022-05-08T08:51:47.000Z</time></trkpt><trkpt lon="5.940128" lat="51.123518"><ele>14.8</ele><time>2022-05-08T08:51:48.000Z</time></trkpt><trkpt lon="5.940098" lat="51.123512"><ele>14.8</ele><time>2022-05-08T08:51:49.000Z</time></trkpt><trkpt lon="5.940058" lat="51.123504"><ele>14.8</ele><time>2022-05-08T08:51:50.000Z</time></trkpt><trkpt lon="5.940019" lat="51.123496"><ele>14.6</ele><time>2022-05-08T08:51:51.000Z</time></trkpt><trkpt lon="5.939978" lat="51.123489"><ele>14.6</ele><time>2022-05-08T08:51:52.000Z</time></trkpt><trkpt lon="5.939932" lat="51.123483"><ele>14.6</ele><time>2022-05-08T08:51:53.000Z</time></trkpt><trkpt lon="5.939884" lat="51.123475"><ele>14.4</ele><time>2022-05-08T08:51:54.000Z</time></trkpt><trkpt lon="5.939833" lat="51.123466"><ele>14.4</ele><time>2022-05-08T08:51:55.000Z</time></trkpt><trkpt lon="5.939784" lat="51.123456"><ele>14.4</ele><time>2022-05-08T08:51:56.000Z</time></trkpt><trkpt lon="5.939742" lat="51.123445"><ele>14.6</ele><time>2022-05-08T08:51:57.000Z</time></trkpt><trkpt lon="5.939712" lat="51.123438"><ele>14.6</ele><time>2022-05-08T08:51:58.000Z</time></trkpt><trkpt lon="5.93969" lat="51.123431"><ele>14.8</ele><time>2022-05-08T08:51:59.000Z</time></trkpt><trkpt lon="5.939674" lat="51.123428"><ele>14.8</ele><time>2022-05-08T08:52:00.000Z</time></trkpt><trkpt lon="5.939662" lat="51.123426"><ele>14.8</ele><time>2022-05-08T08:52:01.000Z</time></trkpt><trkpt lon="5.93965" lat="51.123422"><ele>14.8</ele><time>2022-05-08T08:52:02.000Z</time></trkpt><trkpt lon="5.939637" lat="51.123419"><ele>15</ele><time>2022-05-08T08:52:03.000Z</time></trkpt><trkpt lon="5.939623" lat="51.123417"><ele>15</ele><time>2022-05-08T08:52:04.000Z</time></trkpt><trkpt lon="5.939603" lat="51.123415"><ele>15</ele><time>2022-05-08T08:52:05.000Z</time></trkpt><trkpt lon="5.93958" lat="51.123411"><ele>14.8</ele><time>2022-05-08T08:52:06.000Z</time></trkpt><trkpt lon="5.939557" lat="51.123407"><ele>14.8</ele><time>2022-05-08T08:52:07.000Z</time></trkpt><trkpt lon="5.939537" lat="51.123405"><ele>14.8</ele><time>2022-05-08T08:52:08.000Z</time></trkpt><trkpt lon="5.939513" lat="51.123403"><ele>14.8</ele><time>2022-05-08T08:52:09.000Z</time></trkpt><trkpt lon="5.939482" lat="51.123402"><ele>14.8</ele><time>2022-05-08T08:52:10.000Z</time></trkpt><trkpt lon="5.939452" lat="51.1234"><ele>14.8</ele><time>2022-05-08T08:52:11.000Z</time></trkpt><trkpt lon="5.939423" lat="51.123398"><ele>14.8</ele><time>2022-05-08T08:52:12.000Z</time></trkpt><trkpt lon="5.939391" lat="51.123396"><ele>14.6</ele><time>2022-05-08T08:52:13.000Z</time></trkpt><trkpt lon="5.939358" lat="51.123392"><ele>14.6</ele><time>2022-05-08T08:52:14.000Z</time></trkpt><trkpt lon="5.939327" lat="51.12339"><ele>14.6</ele><time>2022-05-08T08:52:15.000Z</time></trkpt><trkpt lon="5.939294" lat="51.123388"><ele>14.6</ele><time>2022-05-08T08:52:16.000Z</time></trkpt><trkpt lon="5.93926" lat="51.123384"><ele>14.6</ele><time>2022-05-08T08:52:17.000Z</time></trkpt><trkpt lon="5.939224" lat="51.12338"><ele>14.6</ele><time>2022-05-08T08:52:18.000Z</time></trkpt><trkpt lon="5.939189" lat="51.123374"><ele>14.6</ele><time>2022-05-08T08:52:19.000Z</time></trkpt><trkpt lon="5.939158" lat="51.123367"><ele>14.6</ele><time>2022-05-08T08:52:20.000Z</time></trkpt><trkpt lon="5.939131" lat="51.123361"><ele>14.6</ele><time>2022-05-08T08:52:21.000Z</time></trkpt><trkpt lon="5.939107" lat="51.123355"><ele>14.6</ele><time>2022-05-08T08:52:22.000Z</time></trkpt><trkpt lon="5.939087" lat="51.12335"><ele>14.6</ele><time>2022-05-08T08:52:23.000Z</time></trkpt><trkpt lon="5.939067" lat="51.123344"><ele>14.6</ele><time>2022-05-08T08:52:24.000Z</time></trkpt><trkpt lon="5.939051" lat="51.123338"><ele>14.6</ele><time>2022-05-08T08:52:25.000Z</time></trkpt><trkpt lon="5.939038" lat="51.123335"><ele>14.6</ele><time>2022-05-08T08:52:26.000Z</time></trkpt><trkpt lon="5.939029" lat="51.123331"><ele>14.6</ele><time>2022-05-08T08:52:27.000Z</time></trkpt><trkpt lon="5.939022" lat="51.123327"><ele>14.6</ele><time>2022-05-08T08:52:28.000Z</time></trkpt><trkpt lon="5.939014" lat="51.123323"><ele>14.8</ele><time>2022-05-08T08:52:29.000Z</time></trkpt><trkpt lon="5.939004" lat="51.123321"><ele>14.8</ele><time>2022-05-08T08:52:30.000Z</time></trkpt><trkpt lon="5.938991" lat="51.123319"><ele>14.8</ele><time>2022-05-08T08:52:31.000Z</time></trkpt><trkpt lon="5.938973" lat="51.123316"><ele>14.8</ele><time>2022-05-08T08:52:32.000Z</time></trkpt><trkpt lon="5.938951" lat="51.123312"><ele>14.6</ele><time>2022-05-08T08:52:33.000Z</time></trkpt><trkpt lon="5.938926" lat="51.12331"><ele>14.6</ele><time>2022-05-08T08:52:34.000Z</time></trkpt><trkpt lon="5.938897" lat="51.123308"><ele>14.6</ele><time>2022-05-08T08:52:35.000Z</time></trkpt><trkpt lon="5.938866" lat="51.123302"><ele>14.6</ele><time>2022-05-08T08:52:36.000Z</time></trkpt><trkpt lon="5.938829" lat="51.123296"><ele>14.6</ele><time>2022-05-08T08:52:37.000Z</time></trkpt><trkpt lon="5.93879" lat="51.12329"><ele>14.6</ele><time>2022-05-08T08:52:38.000Z</time></trkpt><trkpt lon="5.93875" lat="51.123285"><ele>14.6</ele><time>2022-05-08T08:52:39.000Z</time></trkpt><trkpt lon="5.938708" lat="51.123279"><ele>14.4</ele><time>2022-05-08T08:52:40.000Z</time></trkpt><trkpt lon="5.938664" lat="51.123274"><ele>14.2</ele><time>2022-05-08T08:52:41.000Z</time></trkpt><trkpt lon="5.938621" lat="51.123267"><ele>14.2</ele><time>2022-05-08T08:52:42.000Z</time></trkpt><trkpt lon="5.938574" lat="51.12326"><ele>14</ele><time>2022-05-08T08:52:43.000Z</time></trkpt><trkpt lon="5.938522" lat="51.123252"><ele>14</ele><time>2022-05-08T08:52:44.000Z</time></trkpt><trkpt lon="5.938464" lat="51.123245"><ele>13.8</ele><time>2022-05-08T08:52:45.000Z</time></trkpt><trkpt lon="5.938396" lat="51.123235"><ele>13.6</ele><time>2022-05-08T08:52:46.000Z</time></trkpt><trkpt lon="5.938322" lat="51.123223"><ele>13.6</ele><time>2022-05-08T08:52:47.000Z</time></trkpt><trkpt lon="5.938248" lat="51.123214"><ele>13.4</ele><time>2022-05-08T08:52:48.000Z</time></trkpt><trkpt lon="5.93816" lat="51.123202"><ele>13.6</ele><time>2022-05-08T08:52:49.000Z</time></trkpt><trkpt lon="5.938063" lat="51.123187"><ele>13.6</ele><time>2022-05-08T08:52:50.000Z</time></trkpt><trkpt lon="5.937968" lat="51.123172"><ele>13.6</ele><time>2022-05-08T08:52:51.000Z</time></trkpt><trkpt lon="5.937874" lat="51.123156"><ele>13.6</ele><time>2022-05-08T08:52:52.000Z</time></trkpt><trkpt lon="5.937787" lat="51.123143"><ele>13.6</ele><time>2022-05-08T08:52:53.000Z</time></trkpt><trkpt lon="5.937703" lat="51.12313"><ele>13.8</ele><time>2022-05-08T08:52:54.000Z</time></trkpt><trkpt lon="5.937624" lat="51.123114"><ele>13.8</ele><time>2022-05-08T08:52:55.000Z</time></trkpt><trkpt lon="5.937555" lat="51.123102"><ele>14</ele><time>2022-05-08T08:52:56.000Z</time></trkpt><trkpt lon="5.937486" lat="51.12309"><ele>14</ele><time>2022-05-08T08:52:57.000Z</time></trkpt><trkpt lon="5.937422" lat="51.123081"><ele>14</ele><time>2022-05-08T08:52:58.000Z</time></trkpt><trkpt lon="5.937363" lat="51.123071"><ele>14.2</ele><time>2022-05-08T08:52:59.000Z</time></trkpt><trkpt lon="5.9373" lat="51.123057"><ele>14.2</ele><time>2022-05-08T08:53:00.000Z</time></trkpt><trkpt lon="5.937235" lat="51.123044"><ele>14.2</ele><time>2022-05-08T08:53:01.000Z</time></trkpt><trkpt lon="5.937165" lat="51.123035"><ele>14.2</ele><time>2022-05-08T08:53:02.000Z</time></trkpt><trkpt lon="5.937084" lat="51.123025"><ele>14.2</ele><time>2022-05-08T08:53:03.000Z</time></trkpt><trkpt lon="5.937" lat="51.123011"><ele>14</ele><time>2022-05-08T08:53:04.000Z</time></trkpt><trkpt lon="5.936918" lat="51.123001"><ele>14</ele><time>2022-05-08T08:53:05.000Z</time></trkpt><trkpt lon="5.936844" lat="51.122993"><ele>14</ele><time>2022-05-08T08:53:06.000Z</time></trkpt><trkpt lon="5.936772" lat="51.122985"><ele>14</ele><time>2022-05-08T08:53:07.000Z</time></trkpt><trkpt lon="5.936695" lat="51.122978"><ele>14</ele><time>2022-05-08T08:53:08.000Z</time></trkpt><trkpt lon="5.936618" lat="51.122968"><ele>14.2</ele><time>2022-05-08T08:53:09.000Z</time></trkpt><trkpt lon="5.936538" lat="51.122956"><ele>14.2</ele><time>2022-05-08T08:53:10.000Z</time></trkpt><trkpt lon="5.936454" lat="51.122943"><ele>14.2</ele><time>2022-05-08T08:53:11.000Z</time></trkpt><trkpt lon="5.936371" lat="51.12293"><ele>14.2</ele><time>2022-05-08T08:53:12.000Z</time></trkpt><trkpt lon="5.936288" lat="51.122918"><ele>14.2</ele><time>2022-05-08T08:53:13.000Z</time></trkpt><trkpt lon="5.936205" lat="51.122904"><ele>14.2</ele><time>2022-05-08T08:53:14.000Z</time></trkpt><trkpt lon="5.936121" lat="51.122891"><ele>14.2</ele><time>2022-05-08T08:53:15.000Z</time></trkpt><trkpt lon="5.936033" lat="51.122875"><ele>14.2</ele><time>2022-05-08T08:53:16.000Z</time></trkpt><trkpt lon="5.935941" lat="51.122857"><ele>14.2</ele><time>2022-05-08T08:53:17.000Z</time></trkpt><trkpt lon="5.935848" lat="51.12284"><ele>14.2</ele><time>2022-05-08T08:53:18.000Z</time></trkpt><trkpt lon="5.935753" lat="51.122827"><ele>14</ele><time>2022-05-08T08:53:19.000Z</time></trkpt><trkpt lon="5.935658" lat="51.122813"><ele>14</ele><time>2022-05-08T08:53:20.000Z</time></trkpt><trkpt lon="5.935562" lat="51.1228"><ele>14</ele><time>2022-05-08T08:53:21.000Z</time></trkpt><trkpt lon="5.935462" lat="51.122786"><ele>14</ele><time>2022-05-08T08:53:22.000Z</time></trkpt><trkpt lon="5.935356" lat="51.122773"><ele>14</ele><time>2022-05-08T08:53:23.000Z</time></trkpt><trkpt lon="5.93525" lat="51.122759"><ele>14</ele><time>2022-05-08T08:53:24.000Z</time></trkpt><trkpt lon="5.935151" lat="51.122745"><ele>14</ele><time>2022-05-08T08:53:25.000Z</time></trkpt><trkpt lon="5.935044" lat="51.12273"><ele>13.8</ele><time>2022-05-08T08:53:26.000Z</time></trkpt><trkpt lon="5.934931" lat="51.122714"><ele>13.8</ele><time>2022-05-08T08:53:27.000Z</time></trkpt><trkpt lon="5.934821" lat="51.122697"><ele>13.8</ele><time>2022-05-08T08:53:28.000Z</time></trkpt><trkpt lon="5.934711" lat="51.122679"><ele>13.8</ele><time>2022-05-08T08:53:29.000Z</time></trkpt><trkpt lon="5.934603" lat="51.122662"><ele>13.8</ele><time>2022-05-08T08:53:30.000Z</time></trkpt><trkpt lon="5.934496" lat="51.122645"><ele>13.8</ele><time>2022-05-08T08:53:31.000Z</time></trkpt><trkpt lon="5.934392" lat="51.12263"><ele>13.8</ele><time>2022-05-08T08:53:32.000Z</time></trkpt><trkpt lon="5.934295" lat="51.122617"><ele>13.6</ele><time>2022-05-08T08:53:33.000Z</time></trkpt><trkpt lon="5.934199" lat="51.122603"><ele>13.6</ele><time>2022-05-08T08:53:34.000Z</time></trkpt><trkpt lon="5.934102" lat="51.12259"><ele>13.8</ele><time>2022-05-08T08:53:35.000Z</time></trkpt><trkpt lon="5.934009" lat="51.122579"><ele>13.8</ele><time>2022-05-08T08:53:36.000Z</time></trkpt><trkpt lon="5.933918" lat="51.122567"><ele>13.8</ele><time>2022-05-08T08:53:37.000Z</time></trkpt><trkpt lon="5.933821" lat="51.122551"><ele>13.8</ele><time>2022-05-08T08:53:38.000Z</time></trkpt><trkpt lon="5.933724" lat="51.122532"><ele>13.8</ele><time>2022-05-08T08:53:39.000Z</time></trkpt><trkpt lon="5.933627" lat="51.122511"><ele>13.8</ele><time>2022-05-08T08:53:40.000Z</time></trkpt><trkpt lon="5.93353" lat="51.122488"><ele>14</ele><time>2022-05-08T08:53:41.000Z</time></trkpt><trkpt lon="5.933433" lat="51.12247"><ele>14.2</ele><time>2022-05-08T08:53:42.000Z</time></trkpt><trkpt lon="5.93333" lat="51.122454"><ele>14.2</ele><time>2022-05-08T08:53:43.000Z</time></trkpt><trkpt lon="5.933224" lat="51.122439"><ele>14.4</ele><time>2022-05-08T08:53:44.000Z</time></trkpt><trkpt lon="5.933115" lat="51.122424"><ele>14.4</ele><time>2022-05-08T08:53:45.000Z</time></trkpt><trkpt lon="5.933001" lat="51.122409"><ele>14.4</ele><time>2022-05-08T08:53:46.000Z</time></trkpt><trkpt lon="5.932882" lat="51.122394"><ele>14.6</ele><time>2022-05-08T08:53:47.000Z</time></trkpt><trkpt lon="5.93277" lat="51.12238"><ele>14.6</ele><time>2022-05-08T08:53:48.000Z</time></trkpt><trkpt lon="5.932648" lat="51.122368"><ele>14.8</ele><time>2022-05-08T08:53:49.000Z</time></trkpt><trkpt lon="5.932516" lat="51.122362"><ele>14.8</ele><time>2022-05-08T08:53:50.000Z</time></trkpt><trkpt lon="5.932393" lat="51.122356"><ele>15</ele><time>2022-05-08T08:53:51.000Z</time></trkpt><trkpt lon="5.932269" lat="51.12235"><ele>15</ele><time>2022-05-08T08:53:52.000Z</time></trkpt><trkpt lon="5.932152" lat="51.122351"><ele>15</ele><time>2022-05-08T08:53:53.000Z</time></trkpt><trkpt lon="5.932039" lat="51.122357"><ele>15</ele><time>2022-05-08T08:53:54.000Z</time></trkpt><trkpt lon="5.931929" lat="51.122369"><ele>15</ele><time>2022-05-08T08:53:55.000Z</time></trkpt><trkpt lon="5.931817" lat="51.12238"><ele>14.8</ele><time>2022-05-08T08:53:56.000Z</time></trkpt><trkpt lon="5.931709" lat="51.122392"><ele>14.8</ele><time>2022-05-08T08:53:57.000Z</time></trkpt><trkpt lon="5.931608" lat="51.122405"><ele>14.8</ele><time>2022-05-08T08:53:58.000Z</time></trkpt><trkpt lon="5.931513" lat="51.122419"><ele>14.8</ele><time>2022-05-08T08:53:59.000Z</time></trkpt><trkpt lon="5.931419" lat="51.122432"><ele>15</ele><time>2022-05-08T08:54:00.000Z</time></trkpt><trkpt lon="5.931321" lat="51.122443"><ele>15</ele><time>2022-05-08T08:54:01.000Z</time></trkpt><trkpt lon="5.931226" lat="51.122457"><ele>15.2</ele><time>2022-05-08T08:54:02.000Z</time></trkpt><trkpt lon="5.931133" lat="51.122479"><ele>15.2</ele><time>2022-05-08T08:54:03.000Z</time></trkpt><trkpt lon="5.931044" lat="51.122506"><ele>15.2</ele><time>2022-05-08T08:54:04.000Z</time></trkpt><trkpt lon="5.930959" lat="51.12253"><ele>15.2</ele><time>2022-05-08T08:54:05.000Z</time></trkpt><trkpt lon="5.930872" lat="51.122552"><ele>15.2</ele><time>2022-05-08T08:54:06.000Z</time></trkpt><trkpt lon="5.930776" lat="51.122576"><ele>15</ele><time>2022-05-08T08:54:07.000Z</time></trkpt><trkpt lon="5.930677" lat="51.122599"><ele>15</ele><time>2022-05-08T08:54:08.000Z</time></trkpt><trkpt lon="5.930573" lat="51.122624"><ele>15</ele><time>2022-05-08T08:54:09.000Z</time></trkpt><trkpt lon="5.930462" lat="51.122648"><ele>15</ele><time>2022-05-08T08:54:10.000Z</time></trkpt><trkpt lon="5.930348" lat="51.122676"><ele>15</ele><time>2022-05-08T08:54:11.000Z</time></trkpt><trkpt lon="5.930228" lat="51.122709"><ele>15</ele><time>2022-05-08T08:54:12.000Z</time></trkpt><trkpt lon="5.930108" lat="51.122741"><ele>15</ele><time>2022-05-08T08:54:13.000Z</time></trkpt><trkpt lon="5.929984" lat="51.122769"><ele>15.2</ele><time>2022-05-08T08:54:14.000Z</time></trkpt><trkpt lon="5.929861" lat="51.122793"><ele>15.2</ele><time>2022-05-08T08:54:15.000Z</time></trkpt><trkpt lon="5.929749" lat="51.122811"><ele>15.2</ele><time>2022-05-08T08:54:16.000Z</time></trkpt><trkpt lon="5.929629" lat="51.12282"><ele>15.4</ele><time>2022-05-08T08:54:17.000Z</time></trkpt><trkpt lon="5.929506" lat="51.122824"><ele>15.4</ele><time>2022-05-08T08:54:18.000Z</time></trkpt><trkpt lon="5.929389" lat="51.122823"><ele>15.6</ele><time>2022-05-08T08:54:19.000Z</time></trkpt><trkpt lon="5.929276" lat="51.122817"><ele>15.6</ele><time>2022-05-08T08:54:20.000Z</time></trkpt><trkpt lon="5.929161" lat="51.12281"><ele>15.8</ele><time>2022-05-08T08:54:21.000Z</time></trkpt><trkpt lon="5.929047" lat="51.1228"><ele>15.8</ele><time>2022-05-08T08:54:22.000Z</time></trkpt><trkpt lon="5.928935" lat="51.122791"><ele>15.8</ele><time>2022-05-08T08:54:23.000Z</time></trkpt><trkpt lon="5.928823" lat="51.122781"><ele>15.8</ele><time>2022-05-08T08:54:24.000Z</time></trkpt><trkpt lon="5.928707" lat="51.122767"><ele>15.8</ele><time>2022-05-08T08:54:25.000Z</time></trkpt><trkpt lon="5.92859" lat="51.122752"><ele>15.8</ele><time>2022-05-08T08:54:26.000Z</time></trkpt><trkpt lon="5.928473" lat="51.122737"><ele>15.8</ele><time>2022-05-08T08:54:27.000Z</time></trkpt><trkpt lon="5.928352" lat="51.122722"><ele>15.8</ele><time>2022-05-08T08:54:28.000Z</time></trkpt><trkpt lon="5.928234" lat="51.122706"><ele>15.8</ele><time>2022-05-08T08:54:29.000Z</time></trkpt><trkpt lon="5.928119" lat="51.122691"><ele>15.8</ele><time>2022-05-08T08:54:30.000Z</time></trkpt><trkpt lon="5.928" lat="51.122674"><ele>15.8</ele><time>2022-05-08T08:54:31.000Z</time></trkpt><trkpt lon="5.927882" lat="51.122659"><ele>15.6</ele><time>2022-05-08T08:54:32.000Z</time></trkpt><trkpt lon="5.927769" lat="51.122645"><ele>15.6</ele><time>2022-05-08T08:54:33.000Z</time></trkpt><trkpt lon="5.927653" lat="51.122636"><ele>15.6</ele><time>2022-05-08T08:54:34.000Z</time></trkpt><trkpt lon="5.92754" lat="51.12263"><ele>15.4</ele><time>2022-05-08T08:54:35.000Z</time></trkpt><trkpt lon="5.92743" lat="51.122627"><ele>15.4</ele><time>2022-05-08T08:54:36.000Z</time></trkpt><trkpt lon="5.927317" lat="51.122629"><ele>15.4</ele><time>2022-05-08T08:54:37.000Z</time></trkpt><trkpt lon="5.927204" lat="51.122642"><ele>15.2</ele><time>2022-05-08T08:54:38.000Z</time></trkpt><trkpt lon="5.927089" lat="51.122665"><ele>15</ele><time>2022-05-08T08:54:39.000Z</time></trkpt><trkpt lon="5.926972" lat="51.122695"><ele>14.8</ele><time>2022-05-08T08:54:40.000Z</time></trkpt><trkpt lon="5.926866" lat="51.122727"><ele>14.8</ele><time>2022-05-08T08:54:41.000Z</time></trkpt><trkpt lon="5.926766" lat="51.122759"><ele>14.8</ele><time>2022-05-08T08:54:42.000Z</time></trkpt><trkpt lon="5.926669" lat="51.122784"><ele>14.8</ele><time>2022-05-08T08:54:43.000Z</time></trkpt><trkpt lon="5.926564" lat="51.122808"><ele>14.8</ele><time>2022-05-08T08:54:44.000Z</time></trkpt><trkpt lon="5.926455" lat="51.122829"><ele>14.8</ele><time>2022-05-08T08:54:45.000Z</time></trkpt><trkpt lon="5.926347" lat="51.122848"><ele>14.8</ele><time>2022-05-08T08:54:46.000Z</time></trkpt><trkpt lon="5.92623" lat="51.122867"><ele>14.8</ele><time>2022-05-08T08:54:47.000Z</time></trkpt><trkpt lon="5.926111" lat="51.122883"><ele>14.8</ele><time>2022-05-08T08:54:48.000Z</time></trkpt><trkpt lon="5.925992" lat="51.122896"><ele>14.6</ele><time>2022-05-08T08:54:49.000Z</time></trkpt><trkpt lon="5.925879" lat="51.122911"><ele>14.6</ele><time>2022-05-08T08:54:50.000Z</time></trkpt><trkpt lon="5.92577" lat="51.122928"><ele>14.4</ele><time>2022-05-08T08:54:51.000Z</time></trkpt><trkpt lon="5.925659" lat="51.122945"><ele>14.2</ele><time>2022-05-08T08:54:52.000Z</time></trkpt><trkpt lon="5.925549" lat="51.12296"><ele>14</ele><time>2022-05-08T08:54:53.000Z</time></trkpt><trkpt lon="5.925434" lat="51.122978"><ele>13.8</ele><time>2022-05-08T08:54:54.000Z</time></trkpt><trkpt lon="5.925314" lat="51.122999"><ele>13.8</ele><time>2022-05-08T08:54:55.000Z</time></trkpt><trkpt lon="5.925204" lat="51.123022"><ele>13.8</ele><time>2022-05-08T08:54:56.000Z</time></trkpt><trkpt lon="5.925099" lat="51.12304"><ele>13.6</ele><time>2022-05-08T08:54:57.000Z</time></trkpt><trkpt lon="5.92499" lat="51.123058"><ele>13.6</ele><time>2022-05-08T08:54:58.000Z</time></trkpt><trkpt lon="5.924884" lat="51.123073"><ele>13.6</ele><time>2022-05-08T08:54:59.000Z</time></trkpt><trkpt lon="5.924784" lat="51.123084"><ele>13.4</ele><time>2022-05-08T08:55:00.000Z</time></trkpt><trkpt lon="5.92469" lat="51.123097"><ele>13.4</ele><time>2022-05-08T08:55:01.000Z</time></trkpt><trkpt lon="5.924605" lat="51.123115"><ele>13.2</ele><time>2022-05-08T08:55:02.000Z</time></trkpt><trkpt lon="5.924529" lat="51.123132"><ele>13.2</ele><time>2022-05-08T08:55:03.000Z</time></trkpt><trkpt lon="5.924462" lat="51.123147"><ele>13.2</ele><time>2022-05-08T08:55:04.000Z</time></trkpt><trkpt lon="5.924404" lat="51.123163"><ele>13.2</ele><time>2022-05-08T08:55:05.000Z</time></trkpt><trkpt lon="5.92436" lat="51.123177"><ele>13.4</ele><time>2022-05-08T08:55:06.000Z</time></trkpt><trkpt lon="5.924325" lat="51.123193"><ele>13.4</ele><time>2022-05-08T08:55:07.000Z</time></trkpt><trkpt lon="5.924299" lat="51.123208"><ele>13.6</ele><time>2022-05-08T08:55:08.000Z</time></trkpt><trkpt lon="5.924275" lat="51.123224"><ele>13.6</ele><time>2022-05-08T08:55:09.000Z</time></trkpt><trkpt lon="5.924245" lat="51.123237"><ele>13.8</ele><time>2022-05-08T08:55:10.000Z</time></trkpt><trkpt lon="5.924208" lat="51.12325"><ele>14</ele><time>2022-05-08T08:55:11.000Z</time></trkpt><trkpt lon="5.924161" lat="51.123259"><ele>14</ele><time>2022-05-08T08:55:12.000Z</time></trkpt><trkpt lon="5.9241" lat="51.123263"><ele>14</ele><time>2022-05-08T08:55:13.000Z</time></trkpt><trkpt lon="5.924033" lat="51.12326"><ele>14</ele><time>2022-05-08T08:55:14.000Z</time></trkpt><trkpt lon="5.92397" lat="51.123248"><ele>13.8</ele><time>2022-05-08T08:55:15.000Z</time></trkpt><trkpt lon="5.923912" lat="51.123224"><ele>13.8</ele><time>2022-05-08T08:55:16.000Z</time></trkpt><trkpt lon="5.923852" lat="51.123191"><ele>13.6</ele><time>2022-05-08T08:55:17.000Z</time></trkpt><trkpt lon="5.923793" lat="51.123154"><ele>13.4</ele><time>2022-05-08T08:55:18.000Z</time></trkpt><trkpt lon="5.923734" lat="51.123116"><ele>13.4</ele><time>2022-05-08T08:55:19.000Z</time></trkpt><trkpt lon="5.92367" lat="51.123076"><ele>13.4</ele><time>2022-05-08T08:55:20.000Z</time></trkpt><trkpt lon="5.923604" lat="51.123032"><ele>13.2</ele><time>2022-05-08T08:55:21.000Z</time></trkpt><trkpt lon="5.923532" lat="51.122986"><ele>13.2</ele><time>2022-05-08T08:55:22.000Z</time></trkpt><trkpt lon="5.923457" lat="51.122936"><ele>13</ele><time>2022-05-08T08:55:23.000Z</time></trkpt><trkpt lon="5.923386" lat="51.122883"><ele>13</ele><time>2022-05-08T08:55:24.000Z</time></trkpt><trkpt lon="5.923314" lat="51.122829"><ele>13</ele><time>2022-05-08T08:55:25.000Z</time></trkpt><trkpt lon="5.923242" lat="51.122771"><ele>12.8</ele><time>2022-05-08T08:55:26.000Z</time></trkpt><trkpt lon="5.923172" lat="51.122712"><ele>13</ele><time>2022-05-08T08:55:27.000Z</time></trkpt><trkpt lon="5.923102" lat="51.122655"><ele>13</ele><time>2022-05-08T08:55:28.000Z</time></trkpt><trkpt lon="5.92303" lat="51.1226"><ele>13.2</ele><time>2022-05-08T08:55:29.000Z</time></trkpt><trkpt lon="5.922958" lat="51.122547"><ele>13.2</ele><time>2022-05-08T08:55:30.000Z</time></trkpt><trkpt lon="5.922887" lat="51.122493"><ele>13.4</ele><time>2022-05-08T08:55:31.000Z</time></trkpt><trkpt lon="5.922821" lat="51.122444"><ele>13.4</ele><time>2022-05-08T08:55:32.000Z</time></trkpt><trkpt lon="5.922752" lat="51.122393"><ele>13.4</ele><time>2022-05-08T08:55:33.000Z</time></trkpt><trkpt lon="5.922675" lat="51.122344"><ele>13.4</ele><time>2022-05-08T08:55:34.000Z</time></trkpt><trkpt lon="5.922607" lat="51.122306"><ele>13.4</ele><time>2022-05-08T08:55:35.000Z</time></trkpt><trkpt lon="5.922545" lat="51.122276"><ele>13.4</ele><time>2022-05-08T08:55:36.000Z</time></trkpt><trkpt lon="5.922495" lat="51.122249"><ele>13.6</ele><time>2022-05-08T08:55:37.000Z</time></trkpt><trkpt lon="5.922464" lat="51.122225"><ele>13.6</ele><time>2022-05-08T08:55:38.000Z</time></trkpt><trkpt lon="5.922455" lat="51.122204"><ele>13.8</ele><time>2022-05-08T08:55:39.000Z</time></trkpt><trkpt lon="5.922464" lat="51.122183"><ele>14</ele><time>2022-05-08T08:55:40.000Z</time></trkpt><trkpt lon="5.922484" lat="51.122162"><ele>14</ele><time>2022-05-08T08:55:41.000Z</time></trkpt><trkpt lon="5.922509" lat="51.122146"><ele>14.2</ele><time>2022-05-08T08:55:42.000Z</time></trkpt><trkpt lon="5.92254" lat="51.122128"><ele>14.2</ele><time>2022-05-08T08:55:43.000Z</time></trkpt><trkpt lon="5.922575" lat="51.122111"><ele>14.4</ele><time>2022-05-08T08:55:44.000Z</time></trkpt><trkpt lon="5.922612" lat="51.122092"><ele>14.4</ele><time>2022-05-08T08:55:45.000Z</time></trkpt><trkpt lon="5.922644" lat="51.122062"><ele>14.4</ele><time>2022-05-08T08:55:46.000Z</time></trkpt><trkpt lon="5.922655" lat="51.122028"><ele>14.4</ele><time>2022-05-08T08:55:47.000Z</time></trkpt><trkpt lon="5.922635" lat="51.122001"><ele>14.2</ele><time>2022-05-08T08:55:48.000Z</time></trkpt><trkpt lon="5.922581" lat="51.121976"><ele>14.2</ele><time>2022-05-08T08:55:49.000Z</time></trkpt><trkpt lon="5.922505" lat="51.121941"><ele>14</ele><time>2022-05-08T08:55:50.000Z</time></trkpt><trkpt lon="5.922429" lat="51.121898"><ele>14</ele><time>2022-05-08T08:55:51.000Z</time></trkpt><trkpt lon="5.922358" lat="51.121846"><ele>14</ele><time>2022-05-08T08:55:52.000Z</time></trkpt><trkpt lon="5.922284" lat="51.121789"><ele>14</ele><time>2022-05-08T08:55:53.000Z</time></trkpt><trkpt lon="5.922204" lat="51.121728"><ele>13.8</ele><time>2022-05-08T08:55:54.000Z</time></trkpt><trkpt lon="5.922123" lat="51.121662"><ele>14</ele><time>2022-05-08T08:55:55.000Z</time></trkpt><trkpt lon="5.922043" lat="51.1216"><ele>13.8</ele><time>2022-05-08T08:55:56.000Z</time></trkpt><trkpt lon="5.921962" lat="51.121538"><ele>13.8</ele><time>2022-05-08T08:55:57.000Z</time></trkpt><trkpt lon="5.921881" lat="51.121475"><ele>13.8</ele><time>2022-05-08T08:55:58.000Z</time></trkpt><trkpt lon="5.921805" lat="51.121413"><ele>13.8</ele><time>2022-05-08T08:55:59.000Z</time></trkpt><trkpt lon="5.92173" lat="51.121352"><ele>14</ele><time>2022-05-08T08:56:00.000Z</time></trkpt><trkpt lon="5.921655" lat="51.121292"><ele>14</ele><time>2022-05-08T08:56:01.000Z</time></trkpt><trkpt lon="5.92158" lat="51.121233"><ele>14</ele><time>2022-05-08T08:56:02.000Z</time></trkpt><trkpt lon="5.921505" lat="51.121172"><ele>14.2</ele><time>2022-05-08T08:56:03.000Z</time></trkpt><trkpt lon="5.921432" lat="51.121113"><ele>14.2</ele><time>2022-05-08T08:56:04.000Z</time></trkpt><trkpt lon="5.921358" lat="51.121059"><ele>14.2</ele><time>2022-05-08T08:56:05.000Z</time></trkpt><trkpt lon="5.921282" lat="51.121005"><ele>14.2</ele><time>2022-05-08T08:56:06.000Z</time></trkpt><trkpt lon="5.921204" lat="51.120952"><ele>14</ele><time>2022-05-08T08:56:07.000Z</time></trkpt><trkpt lon="5.921123" lat="51.120899"><ele>14</ele><time>2022-05-08T08:56:08.000Z</time></trkpt><trkpt lon="5.92104" lat="51.120848"><ele>14</ele><time>2022-05-08T08:56:09.000Z</time></trkpt><trkpt lon="5.920955" lat="51.120796"><ele>14.2</ele><time>2022-05-08T08:56:10.000Z</time></trkpt><trkpt lon="5.920867" lat="51.120744"><ele>14</ele><time>2022-05-08T08:56:11.000Z</time></trkpt><trkpt lon="5.92078" lat="51.120697"><ele>14</ele><time>2022-05-08T08:56:12.000Z</time></trkpt><trkpt lon="5.920693" lat="51.120651"><ele>14</ele><time>2022-05-08T08:56:13.000Z</time></trkpt><trkpt lon="5.920597" lat="51.120607"><ele>14</ele><time>2022-05-08T08:56:14.000Z</time></trkpt><trkpt lon="5.920493" lat="51.120564"><ele>14</ele><time>2022-05-08T08:56:15.000Z</time></trkpt><trkpt lon="5.920389" lat="51.12052"><ele>13.8</ele><time>2022-05-08T08:56:16.000Z</time></trkpt><trkpt lon="5.920286" lat="51.120483"><ele>13.8</ele><time>2022-05-08T08:56:17.000Z</time></trkpt><trkpt lon="5.920182" lat="51.120448"><ele>13.8</ele><time>2022-05-08T08:56:18.000Z</time></trkpt><trkpt lon="5.920076" lat="51.120414"><ele>14</ele><time>2022-05-08T08:56:19.000Z</time></trkpt><trkpt lon="5.919968" lat="51.12038"><ele>14</ele><time>2022-05-08T08:56:20.000Z</time></trkpt><trkpt lon="5.919856" lat="51.12035"><ele>13.8</ele><time>2022-05-08T08:56:21.000Z</time></trkpt><trkpt lon="5.919742" lat="51.120321"><ele>14</ele><time>2022-05-08T08:56:22.000Z</time></trkpt><trkpt lon="5.919627" lat="51.120295"><ele>14</ele><time>2022-05-08T08:56:23.000Z</time></trkpt><trkpt lon="5.919508" lat="51.12027"><ele>14</ele><time>2022-05-08T08:56:24.000Z</time></trkpt><trkpt lon="5.91939" lat="51.120246"><ele>14</ele><time>2022-05-08T08:56:25.000Z</time></trkpt><trkpt lon="5.919267" lat="51.120225"><ele>14.2</ele><time>2022-05-08T08:56:26.000Z</time></trkpt><trkpt lon="5.919144" lat="51.120205"><ele>14.4</ele><time>2022-05-08T08:56:27.000Z</time></trkpt><trkpt lon="5.919025" lat="51.120186"><ele>14.6</ele><time>2022-05-08T08:56:28.000Z</time></trkpt><trkpt lon="5.918904" lat="51.120165"><ele>14.6</ele><time>2022-05-08T08:56:29.000Z</time></trkpt><trkpt lon="5.918784" lat="51.120144"><ele>14.8</ele><time>2022-05-08T08:56:30.000Z</time></trkpt><trkpt lon="5.918667" lat="51.120123"><ele>15</ele><time>2022-05-08T08:56:31.000Z</time></trkpt><trkpt lon="5.918557" lat="51.120103"><ele>15</ele><time>2022-05-08T08:56:32.000Z</time></trkpt><trkpt lon="5.918439" lat="51.120084"><ele>15.2</ele><time>2022-05-08T08:56:33.000Z</time></trkpt><trkpt lon="5.918319" lat="51.120066"><ele>15.2</ele><time>2022-05-08T08:56:34.000Z</time></trkpt><trkpt lon="5.918204" lat="51.120047"><ele>15</ele><time>2022-05-08T08:56:35.000Z</time></trkpt><trkpt lon="5.918088" lat="51.120028"><ele>15</ele><time>2022-05-08T08:56:36.000Z</time></trkpt><trkpt lon="5.917972" lat="51.120013"><ele>14.8</ele><time>2022-05-08T08:56:37.000Z</time></trkpt><trkpt lon="5.917859" lat="51.119998"><ele>14.8</ele><time>2022-05-08T08:56:38.000Z</time></trkpt><trkpt lon="5.917744" lat="51.11998"><ele>14.6</ele><time>2022-05-08T08:56:39.000Z</time></trkpt><trkpt lon="5.917631" lat="51.119963"><ele>14.6</ele><time>2022-05-08T08:56:40.000Z</time></trkpt><trkpt lon="5.91752" lat="51.119948"><ele>14.6</ele><time>2022-05-08T08:56:41.000Z</time></trkpt><trkpt lon="5.917403" lat="51.119929"><ele>14.6</ele><time>2022-05-08T08:56:42.000Z</time></trkpt><trkpt lon="5.917281" lat="51.119908"><ele>14.6</ele><time>2022-05-08T08:56:43.000Z</time></trkpt><trkpt lon="5.917161" lat="51.119886"><ele>14.6</ele><time>2022-05-08T08:56:44.000Z</time></trkpt><trkpt lon="5.917042" lat="51.119866"><ele>14.6</ele><time>2022-05-08T08:56:45.000Z</time></trkpt><trkpt lon="5.916924" lat="51.119844"><ele>14.6</ele><time>2022-05-08T08:56:46.000Z</time></trkpt><trkpt lon="5.916808" lat="51.119826"><ele>14.6</ele><time>2022-05-08T08:56:47.000Z</time></trkpt><trkpt lon="5.916693" lat="51.119807"><ele>14.4</ele><time>2022-05-08T08:56:48.000Z</time></trkpt><trkpt lon="5.916576" lat="51.119786"><ele>14.6</ele><time>2022-05-08T08:56:49.000Z</time></trkpt><trkpt lon="5.916462" lat="51.119766"><ele>14.6</ele><time>2022-05-08T08:56:50.000Z</time></trkpt><trkpt lon="5.916351" lat="51.119748"><ele>14.8</ele><time>2022-05-08T08:56:51.000Z</time></trkpt><trkpt lon="5.916237" lat="51.119729"><ele>14.8</ele><time>2022-05-08T08:56:52.000Z</time></trkpt><trkpt lon="5.916124" lat="51.119712"><ele>14.8</ele><time>2022-05-08T08:56:53.000Z</time></trkpt><trkpt lon="5.916012" lat="51.119694"><ele>15</ele><time>2022-05-08T08:56:54.000Z</time></trkpt><trkpt lon="5.915899" lat="51.119675"><ele>15</ele><time>2022-05-08T08:56:55.000Z</time></trkpt><trkpt lon="5.915787" lat="51.119656"><ele>15.2</ele><time>2022-05-08T08:56:56.000Z</time></trkpt><trkpt lon="5.915671" lat="51.119639"><ele>15.2</ele><time>2022-05-08T08:56:57.000Z</time></trkpt><trkpt lon="5.915553" lat="51.119624"><ele>15.2</ele><time>2022-05-08T08:56:58.000Z</time></trkpt><trkpt lon="5.915444" lat="51.119607"><ele>15</ele><time>2022-05-08T08:56:59.000Z</time></trkpt><trkpt lon="5.915329" lat="51.11959"><ele>15</ele><time>2022-05-08T08:57:00.000Z</time></trkpt><trkpt lon="5.915209" lat="51.119572"><ele>14.8</ele><time>2022-05-08T08:57:01.000Z</time></trkpt><trkpt lon="5.915092" lat="51.119553"><ele>14.6</ele><time>2022-05-08T08:57:02.000Z</time></trkpt><trkpt lon="5.914976" lat="51.119534"><ele>14.6</ele><time>2022-05-08T08:57:03.000Z</time></trkpt><trkpt lon="5.914859" lat="51.119515"><ele>14.8</ele><time>2022-05-08T08:57:04.000Z</time></trkpt><trkpt lon="5.914741" lat="51.119496"><ele>14.8</ele><time>2022-05-08T08:57:05.000Z</time></trkpt><trkpt lon="5.914623" lat="51.119477"><ele>14.8</ele><time>2022-05-08T08:57:06.000Z</time></trkpt><trkpt lon="5.914503" lat="51.11946"><ele>14.8</ele><time>2022-05-08T08:57:07.000Z</time></trkpt><trkpt lon="5.914383" lat="51.11944"><ele>14.8</ele><time>2022-05-08T08:57:08.000Z</time></trkpt><trkpt lon="5.914263" lat="51.119419"><ele>15</ele><time>2022-05-08T08:57:09.000Z</time></trkpt><trkpt lon="5.914147" lat="51.119396"><ele>15</ele><time>2022-05-08T08:57:10.000Z</time></trkpt><trkpt lon="5.914029" lat="51.119372"><ele>15.2</ele><time>2022-05-08T08:57:11.000Z</time></trkpt><trkpt lon="5.913912" lat="51.119349"><ele>15.2</ele><time>2022-05-08T08:57:12.000Z</time></trkpt><trkpt lon="5.913796" lat="51.119326"><ele>15.2</ele><time>2022-05-08T08:57:13.000Z</time></trkpt><trkpt lon="5.913678" lat="51.119303"><ele>15.2</ele><time>2022-05-08T08:57:14.000Z</time></trkpt><trkpt lon="5.913564" lat="51.119278"><ele>15.4</ele><time>2022-05-08T08:57:15.000Z</time></trkpt><trkpt lon="5.913453" lat="51.119256"><ele>15.4</ele><time>2022-05-08T08:57:16.000Z</time></trkpt><trkpt lon="5.913343" lat="51.119234"><ele>15.2</ele><time>2022-05-08T08:57:17.000Z</time></trkpt><trkpt lon="5.913233" lat="51.119211"><ele>15.2</ele><time>2022-05-08T08:57:18.000Z</time></trkpt><trkpt lon="5.913125" lat="51.119186"><ele>15.2</ele><time>2022-05-08T08:57:19.000Z</time></trkpt><trkpt lon="5.913018" lat="51.119162"><ele>15.2</ele><time>2022-05-08T08:57:20.000Z</time></trkpt><trkpt lon="5.912912" lat="51.119134"><ele>15.2</ele><time>2022-05-08T08:57:21.000Z</time></trkpt><trkpt lon="5.912804" lat="51.119106"><ele>15.2</ele><time>2022-05-08T08:57:22.000Z</time></trkpt><trkpt lon="5.912698" lat="51.119078"><ele>15.2</ele><time>2022-05-08T08:57:23.000Z</time></trkpt><trkpt lon="5.912588" lat="51.119049"><ele>15.2</ele><time>2022-05-08T08:57:24.000Z</time></trkpt><trkpt lon="5.912476" lat="51.119022"><ele>15.2</ele><time>2022-05-08T08:57:25.000Z</time></trkpt><trkpt lon="5.912365" lat="51.118993"><ele>15.2</ele><time>2022-05-08T08:57:26.000Z</time></trkpt><trkpt lon="5.912255" lat="51.118961"><ele>15.2</ele><time>2022-05-08T08:57:27.000Z</time></trkpt><trkpt lon="5.91214" lat="51.118926"><ele>15.2</ele><time>2022-05-08T08:57:28.000Z</time></trkpt><trkpt lon="5.912024" lat="51.118894"><ele>15.2</ele><time>2022-05-08T08:57:29.000Z</time></trkpt><trkpt lon="5.91191" lat="51.118861"><ele>15.2</ele><time>2022-05-08T08:57:30.000Z</time></trkpt><trkpt lon="5.911795" lat="51.118829"><ele>15.2</ele><time>2022-05-08T08:57:31.000Z</time></trkpt><trkpt lon="5.911684" lat="51.118796"><ele>15.2</ele><time>2022-05-08T08:57:32.000Z</time></trkpt><trkpt lon="5.911576" lat="51.118762"><ele>15.4</ele><time>2022-05-08T08:57:33.000Z</time></trkpt><trkpt lon="5.911468" lat="51.118728"><ele>15.4</ele><time>2022-05-08T08:57:34.000Z</time></trkpt><trkpt lon="5.911364" lat="51.118696"><ele>15.4</ele><time>2022-05-08T08:57:35.000Z</time></trkpt><trkpt lon="5.911262" lat="51.118665"><ele>15.2</ele><time>2022-05-08T08:57:36.000Z</time></trkpt><trkpt lon="5.91116" lat="51.118633"><ele>15.2</ele><time>2022-05-08T08:57:37.000Z</time></trkpt><trkpt lon="5.911054" lat="51.118594"><ele>15.4</ele><time>2022-05-08T08:57:38.000Z</time></trkpt><trkpt lon="5.910948" lat="51.118554"><ele>15.4</ele><time>2022-05-08T08:57:39.000Z</time></trkpt><trkpt lon="5.910844" lat="51.118518"><ele>15.4</ele><time>2022-05-08T08:57:40.000Z</time></trkpt><trkpt lon="5.91074" lat="51.11848"><ele>15.4</ele><time>2022-05-08T08:57:41.000Z</time></trkpt><trkpt lon="5.910633" lat="51.11844"><ele>15.4</ele><time>2022-05-08T08:57:42.000Z</time></trkpt><trkpt lon="5.910524" lat="51.118402"><ele>15.4</ele><time>2022-05-08T08:57:43.000Z</time></trkpt><trkpt lon="5.910418" lat="51.118361"><ele>15.2</ele><time>2022-05-08T08:57:44.000Z</time></trkpt><trkpt lon="5.910317" lat="51.118322"><ele>15.2</ele><time>2022-05-08T08:57:45.000Z</time></trkpt><trkpt lon="5.91021" lat="51.118281"><ele>15.2</ele><time>2022-05-08T08:57:46.000Z</time></trkpt><trkpt lon="5.910098" lat="51.118241"><ele>15.2</ele><time>2022-05-08T08:57:47.000Z</time></trkpt><trkpt lon="5.909998" lat="51.118203"><ele>15.2</ele><time>2022-05-08T08:57:48.000Z</time></trkpt><trkpt lon="5.909891" lat="51.118161"><ele>15</ele><time>2022-05-08T08:57:49.000Z</time></trkpt><trkpt lon="5.909777" lat="51.118114"><ele>15</ele><time>2022-05-08T08:57:50.000Z</time></trkpt><trkpt lon="5.909669" lat="51.118069"><ele>15</ele><time>2022-05-08T08:57:51.000Z</time></trkpt><trkpt lon="5.909561" lat="51.118026"><ele>15</ele><time>2022-05-08T08:57:52.000Z</time></trkpt><trkpt lon="5.909449" lat="51.117981"><ele>15</ele><time>2022-05-08T08:57:53.000Z</time></trkpt><trkpt lon="5.909338" lat="51.117939"><ele>15</ele><time>2022-05-08T08:57:54.000Z</time></trkpt><trkpt lon="5.909232" lat="51.117899"><ele>15</ele><time>2022-05-08T08:57:55.000Z</time></trkpt><trkpt lon="5.909129" lat="51.117858"><ele>15</ele><time>2022-05-08T08:57:56.000Z</time></trkpt><trkpt lon="5.909027" lat="51.117816"><ele>15</ele><time>2022-05-08T08:57:57.000Z</time></trkpt><trkpt lon="5.908924" lat="51.117773"><ele>15</ele><time>2022-05-08T08:57:58.000Z</time></trkpt><trkpt lon="5.908825" lat="51.11773"><ele>15</ele><time>2022-05-08T08:57:59.000Z</time></trkpt><trkpt lon="5.908727" lat="51.117686"><ele>15</ele><time>2022-05-08T08:58:00.000Z</time></trkpt><trkpt lon="5.908626" lat="51.117642"><ele>15</ele><time>2022-05-08T08:58:01.000Z</time></trkpt><trkpt lon="5.908527" lat="51.117596"><ele>15</ele><time>2022-05-08T08:58:02.000Z</time></trkpt><trkpt lon="5.908431" lat="51.11755"><ele>15</ele><time>2022-05-08T08:58:03.000Z</time></trkpt><trkpt lon="5.908334" lat="51.117504"><ele>15</ele><time>2022-05-08T08:58:04.000Z</time></trkpt><trkpt lon="5.908238" lat="51.117456"><ele>15</ele><time>2022-05-08T08:58:05.000Z</time></trkpt><trkpt lon="5.908144" lat="51.117409"><ele>15</ele><time>2022-05-08T08:58:06.000Z</time></trkpt><trkpt lon="5.908053" lat="51.117361"><ele>15</ele><time>2022-05-08T08:58:07.000Z</time></trkpt><trkpt lon="5.907963" lat="51.117309"><ele>15</ele><time>2022-05-08T08:58:08.000Z</time></trkpt><trkpt lon="5.907874" lat="51.117258"><ele>15</ele><time>2022-05-08T08:58:09.000Z</time></trkpt><trkpt lon="5.907784" lat="51.117206"><ele>15</ele><time>2022-05-08T08:58:10.000Z</time></trkpt><trkpt lon="5.907696" lat="51.117153"><ele>15.2</ele><time>2022-05-08T08:58:11.000Z</time></trkpt><trkpt lon="5.907612" lat="51.117099"><ele>15.2</ele><time>2022-05-08T08:58:12.000Z</time></trkpt><trkpt lon="5.907529" lat="51.117046"><ele>15.2</ele><time>2022-05-08T08:58:13.000Z</time></trkpt><trkpt lon="5.907448" lat="51.11699"><ele>15.4</ele><time>2022-05-08T08:58:14.000Z</time></trkpt><trkpt lon="5.907367" lat="51.116933"><ele>15.2</ele><time>2022-05-08T08:58:15.000Z</time></trkpt><trkpt lon="5.907286" lat="51.116878"><ele>15.2</ele><time>2022-05-08T08:58:16.000Z</time></trkpt><trkpt lon="5.907204" lat="51.116822"><ele>15</ele><time>2022-05-08T08:58:17.000Z</time></trkpt><trkpt lon="5.907126" lat="51.116768"><ele>14.8</ele><time>2022-05-08T08:58:18.000Z</time></trkpt><trkpt lon="5.907046" lat="51.116709"><ele>14.6</ele><time>2022-05-08T08:58:19.000Z</time></trkpt><trkpt lon="5.906964" lat="51.116646"><ele>14.4</ele><time>2022-05-08T08:58:20.000Z</time></trkpt><trkpt lon="5.906893" lat="51.116589"><ele>14</ele><time>2022-05-08T08:58:21.000Z</time></trkpt><trkpt lon="5.906819" lat="51.116527"><ele>13.8</ele><time>2022-05-08T08:58:22.000Z</time></trkpt><trkpt lon="5.906745" lat="51.116459"><ele>14</ele><time>2022-05-08T08:58:23.000Z</time></trkpt><trkpt lon="5.90668" lat="51.116397"><ele>13.8</ele><time>2022-05-08T08:58:24.000Z</time></trkpt><trkpt lon="5.906618" lat="51.116335"><ele>13.6</ele><time>2022-05-08T08:58:25.000Z</time></trkpt><trkpt lon="5.906556" lat="51.11627"><ele>13.4</ele><time>2022-05-08T08:58:26.000Z</time></trkpt><trkpt lon="5.906496" lat="51.1162"><ele>13.2</ele><time>2022-05-08T08:58:27.000Z</time></trkpt><trkpt lon="5.90644" lat="51.116127"><ele>13.2</ele><time>2022-05-08T08:58:28.000Z</time></trkpt><trkpt lon="5.906389" lat="51.116052"><ele>13.4</ele><time>2022-05-08T08:58:29.000Z</time></trkpt><trkpt lon="5.906342" lat="51.115978"><ele>13.4</ele><time>2022-05-08T08:58:30.000Z</time></trkpt><trkpt lon="5.906296" lat="51.115904"><ele>13.4</ele><time>2022-05-08T08:58:31.000Z</time></trkpt><trkpt lon="5.90625" lat="51.115826"><ele>13.4</ele><time>2022-05-08T08:58:32.000Z</time></trkpt><trkpt lon="5.906201" lat="51.115748"><ele>13.2</ele><time>2022-05-08T08:58:33.000Z</time></trkpt><trkpt lon="5.906145" lat="51.115672"><ele>13.4</ele><time>2022-05-08T08:58:34.000Z</time></trkpt><trkpt lon="5.906084" lat="51.1156"><ele>13.4</ele><time>2022-05-08T08:58:35.000Z</time></trkpt><trkpt lon="5.906025" lat="51.11553"><ele>13.4</ele><time>2022-05-08T08:58:36.000Z</time></trkpt><trkpt lon="5.905961" lat="51.115455"><ele>13.4</ele><time>2022-05-08T08:58:37.000Z</time></trkpt><trkpt lon="5.905896" lat="51.115382"><ele>13.2</ele><time>2022-05-08T08:58:38.000Z</time></trkpt><trkpt lon="5.905831" lat="51.115311"><ele>12.8</ele><time>2022-05-08T08:58:39.000Z</time></trkpt><trkpt lon="5.905765" lat="51.11524"><ele>12.8</ele><time>2022-05-08T08:58:40.000Z</time></trkpt><trkpt lon="5.905704" lat="51.115174"><ele>12.8</ele><time>2022-05-08T08:58:41.000Z</time></trkpt><trkpt lon="5.905644" lat="51.115107"><ele>12.8</ele><time>2022-05-08T08:58:42.000Z</time></trkpt><trkpt lon="5.905585" lat="51.115042"><ele>12.8</ele><time>2022-05-08T08:58:43.000Z</time></trkpt><trkpt lon="5.905526" lat="51.114976"><ele>12.8</ele><time>2022-05-08T08:58:44.000Z</time></trkpt><trkpt lon="5.905472" lat="51.114911"><ele>13</ele><time>2022-05-08T08:58:45.000Z</time></trkpt><trkpt lon="5.905415" lat="51.114842"><ele>13</ele><time>2022-05-08T08:58:46.000Z</time></trkpt><trkpt lon="5.905356" lat="51.114772"><ele>13.2</ele><time>2022-05-08T08:58:47.000Z</time></trkpt><trkpt lon="5.905301" lat="51.114711"><ele>13.2</ele><time>2022-05-08T08:58:48.000Z</time></trkpt><trkpt lon="5.905238" lat="51.11464"><ele>13.2</ele><time>2022-05-08T08:58:49.000Z</time></trkpt><trkpt lon="5.905171" lat="51.114566"><ele>13.4</ele><time>2022-05-08T08:58:50.000Z</time></trkpt><trkpt lon="5.905109" lat="51.114499"><ele>13.6</ele><time>2022-05-08T08:58:51.000Z</time></trkpt><trkpt lon="5.905044" lat="51.114434"><ele>13.6</ele><time>2022-05-08T08:58:52.000Z</time></trkpt><trkpt lon="5.904981" lat="51.114369"><ele>13.8</ele><time>2022-05-08T08:58:53.000Z</time></trkpt><trkpt lon="5.904918" lat="51.114302"><ele>13.8</ele><time>2022-05-08T08:58:54.000Z</time></trkpt><trkpt lon="5.904854" lat="51.114236"><ele>13.8</ele><time>2022-05-08T08:58:55.000Z</time></trkpt><trkpt lon="5.904791" lat="51.114172"><ele>13.8</ele><time>2022-05-08T08:58:56.000Z</time></trkpt><trkpt lon="5.904726" lat="51.114107"><ele>13.6</ele><time>2022-05-08T08:58:57.000Z</time></trkpt><trkpt lon="5.904657" lat="51.114041"><ele>13.8</ele><time>2022-05-08T08:58:58.000Z</time></trkpt><trkpt lon="5.90459" lat="51.113978"><ele>13.8</ele><time>2022-05-08T08:58:59.000Z</time></trkpt><trkpt lon="5.904523" lat="51.113917"><ele>13.8</ele><time>2022-05-08T08:59:00.000Z</time></trkpt><trkpt lon="5.904455" lat="51.113858"><ele>13.6</ele><time>2022-05-08T08:59:01.000Z</time></trkpt><trkpt lon="5.904386" lat="51.113799"><ele>13.6</ele><time>2022-05-08T08:59:02.000Z</time></trkpt><trkpt lon="5.904317" lat="51.113738"><ele>13.6</ele><time>2022-05-08T08:59:03.000Z</time></trkpt><trkpt lon="5.904248" lat="51.113677"><ele>13.6</ele><time>2022-05-08T08:59:04.000Z</time></trkpt><trkpt lon="5.904177" lat="51.113616"><ele>13.6</ele><time>2022-05-08T08:59:05.000Z</time></trkpt><trkpt lon="5.904107" lat="51.113555"><ele>13.8</ele><time>2022-05-08T08:59:06.000Z</time></trkpt><trkpt lon="5.904037" lat="51.113494"><ele>13.8</ele><time>2022-05-08T08:59:07.000Z</time></trkpt><trkpt lon="5.903965" lat="51.113435"><ele>13.8</ele><time>2022-05-08T08:59:08.000Z</time></trkpt><trkpt lon="5.903889" lat="51.113375"><ele>13.8</ele><time>2022-05-08T08:59:09.000Z</time></trkpt><trkpt lon="5.903815" lat="51.113318"><ele>13.8</ele><time>2022-05-08T08:59:10.000Z</time></trkpt><trkpt lon="5.903737" lat="51.113259"><ele>13.8</ele><time>2022-05-08T08:59:11.000Z</time></trkpt><trkpt lon="5.903667" lat="51.113209"><ele>13.8</ele><time>2022-05-08T08:59:12.000Z</time></trkpt><trkpt lon="5.9036" lat="51.113162"><ele>13.8</ele><time>2022-05-08T08:59:13.000Z</time></trkpt><trkpt lon="5.903507" lat="51.113095"><ele>14</ele><time>2022-05-08T08:59:14.000Z</time></trkpt><trkpt lon="5.903426" lat="51.113039"><ele>14</ele><time>2022-05-08T08:59:15.000Z</time></trkpt><trkpt lon="5.903355" lat="51.112991"><ele>14</ele><time>2022-05-08T08:59:16.000Z</time></trkpt><trkpt lon="5.903287" lat="51.112941"><ele>14</ele><time>2022-05-08T08:59:17.000Z</time></trkpt><trkpt lon="5.903226" lat="51.112896"><ele>14</ele><time>2022-05-08T08:59:18.000Z</time></trkpt><trkpt lon="5.903168" lat="51.112855"><ele>14</ele><time>2022-05-08T08:59:19.000Z</time></trkpt><trkpt lon="5.903111" lat="51.112813"><ele>14.2</ele><time>2022-05-08T08:59:20.000Z</time></trkpt><trkpt lon="5.903062" lat="51.112777"><ele>14.2</ele><time>2022-05-08T08:59:21.000Z</time></trkpt><trkpt lon="5.903026" lat="51.112749"><ele>14.4</ele><time>2022-05-08T08:59:22.000Z</time></trkpt><trkpt lon="5.903009" lat="51.112726"><ele>14.4</ele><time>2022-05-08T08:59:23.000Z</time></trkpt><trkpt lon="5.903012" lat="51.112704"><ele>14.4</ele><time>2022-05-08T08:59:24.000Z</time></trkpt><trkpt lon="5.90303" lat="51.112683"><ele>14.6</ele><time>2022-05-08T08:59:25.000Z</time></trkpt><trkpt lon="5.90305" lat="51.11266"><ele>14.6</ele><time>2022-05-08T08:59:26.000Z</time></trkpt><trkpt lon="5.903059" lat="51.112629"><ele>14.6</ele><time>2022-05-08T08:59:27.000Z</time></trkpt><trkpt lon="5.90305" lat="51.11259"><ele>14.4</ele><time>2022-05-08T08:59:28.000Z</time></trkpt><trkpt lon="5.903028" lat="51.112546"><ele>14.4</ele><time>2022-05-08T08:59:29.000Z</time></trkpt><trkpt lon="5.903001" lat="51.1125"><ele>14.4</ele><time>2022-05-08T08:59:30.000Z</time></trkpt><trkpt lon="5.902972" lat="51.112457"><ele>14.4</ele><time>2022-05-08T08:59:31.000Z</time></trkpt><trkpt lon="5.902943" lat="51.112415"><ele>14.4</ele><time>2022-05-08T08:59:32.000Z</time></trkpt><trkpt lon="5.902911" lat="51.112374"><ele>14.4</ele><time>2022-05-08T08:59:33.000Z</time></trkpt><trkpt lon="5.902878" lat="51.112337"><ele>14.4</ele><time>2022-05-08T08:59:34.000Z</time></trkpt><trkpt lon="5.902846" lat="51.112297"><ele>14.4</ele><time>2022-05-08T08:59:35.000Z</time></trkpt><trkpt lon="5.902832" lat="51.11225"><ele>14.6</ele><time>2022-05-08T08:59:36.000Z</time></trkpt><trkpt lon="5.902846" lat="51.1122"><ele>14.6</ele><time>2022-05-08T08:59:37.000Z</time></trkpt><trkpt lon="5.902874" lat="51.112161"><ele>14.6</ele><time>2022-05-08T08:59:38.000Z</time></trkpt><trkpt lon="5.902921" lat="51.112121"><ele>14.6</ele><time>2022-05-08T08:59:39.000Z</time></trkpt><trkpt lon="5.902998" lat="51.112075"><ele>14.6</ele><time>2022-05-08T08:59:40.000Z</time></trkpt><trkpt lon="5.903082" lat="51.11203"><ele>14.6</ele><time>2022-05-08T08:59:41.000Z</time></trkpt><trkpt lon="5.90317" lat="51.111985"><ele>14.6</ele><time>2022-05-08T08:59:42.000Z</time></trkpt><trkpt lon="5.903259" lat="51.111939"><ele>14.8</ele><time>2022-05-08T08:59:43.000Z</time></trkpt><trkpt lon="5.903349" lat="51.111891"><ele>14.6</ele><time>2022-05-08T08:59:44.000Z</time></trkpt><trkpt lon="5.903438" lat="51.111843"><ele>14.8</ele><time>2022-05-08T08:59:45.000Z</time></trkpt><trkpt lon="5.903523" lat="51.1118"><ele>14.8</ele><time>2022-05-08T08:59:46.000Z</time></trkpt><trkpt lon="5.903599" lat="51.11176"><ele>14.8</ele><time>2022-05-08T08:59:47.000Z</time></trkpt><trkpt lon="5.903657" lat="51.111729"><ele>14.8</ele><time>2022-05-08T08:59:48.000Z</time></trkpt><trkpt lon="5.903713" lat="51.111698"><ele>14.8</ele><time>2022-05-08T08:59:49.000Z</time></trkpt><trkpt lon="5.9038" lat="51.111656"><ele>15</ele><time>2022-05-08T08:59:50.000Z</time></trkpt><trkpt lon="5.903857" lat="51.111632"><ele>15</ele><time>2022-05-08T08:59:51.000Z</time></trkpt><trkpt lon="5.903905" lat="51.111607"><ele>15</ele><time>2022-05-08T08:59:52.000Z</time></trkpt><trkpt lon="5.90394" lat="51.111574"><ele>15</ele><time>2022-05-08T08:59:53.000Z</time></trkpt><trkpt lon="5.903954" lat="51.111534"><ele>15</ele><time>2022-05-08T08:59:54.000Z</time></trkpt><trkpt lon="5.903952" lat="51.111486"><ele>15.2</ele><time>2022-05-08T08:59:55.000Z</time></trkpt><trkpt lon="5.903968" lat="51.111442"><ele>15.2</ele><time>2022-05-08T08:59:56.000Z</time></trkpt><trkpt lon="5.904018" lat="51.111403"><ele>15.4</ele><time>2022-05-08T08:59:57.000Z</time></trkpt><trkpt lon="5.904095" lat="51.111368"><ele>15.4</ele><time>2022-05-08T08:59:58.000Z</time></trkpt><trkpt lon="5.904183" lat="51.111338"><ele>15.4</ele><time>2022-05-08T08:59:59.000Z</time></trkpt><trkpt lon="5.90428" lat="51.111305"><ele>15.4</ele><time>2022-05-08T09:00:00.000Z</time></trkpt><trkpt lon="5.904381" lat="51.11127"><ele>15.4</ele><time>2022-05-08T09:00:01.000Z</time></trkpt><trkpt lon="5.904482" lat="51.111237"><ele>15.4</ele><time>2022-05-08T09:00:02.000Z</time></trkpt><trkpt lon="5.904589" lat="51.111202"><ele>15.4</ele><time>2022-05-08T09:00:03.000Z</time></trkpt><trkpt lon="5.904695" lat="51.111168"><ele>15.4</ele><time>2022-05-08T09:00:04.000Z</time></trkpt><trkpt lon="5.904802" lat="51.111133"><ele>15.6</ele><time>2022-05-08T09:00:05.000Z</time></trkpt><trkpt lon="5.904908" lat="51.111099"><ele>15.6</ele><time>2022-05-08T09:00:06.000Z</time></trkpt><trkpt lon="5.905013" lat="51.111067"><ele>15.8</ele><time>2022-05-08T09:00:07.000Z</time></trkpt><trkpt lon="5.905116" lat="51.111038"><ele>15.8</ele><time>2022-05-08T09:00:08.000Z</time></trkpt><trkpt lon="5.905217" lat="51.111014"><ele>15.8</ele><time>2022-05-08T09:00:09.000Z</time></trkpt><trkpt lon="5.905324" lat="51.110995"><ele>15.8</ele><time>2022-05-08T09:00:10.000Z</time></trkpt><trkpt lon="5.905427" lat="51.110978"><ele>15.8</ele><time>2022-05-08T09:00:11.000Z</time></trkpt><trkpt lon="5.905531" lat="51.110955"><ele>15.8</ele><time>2022-05-08T09:00:12.000Z</time></trkpt><trkpt lon="5.905631" lat="51.110919"><ele>15.8</ele><time>2022-05-08T09:00:13.000Z</time></trkpt><trkpt lon="5.905725" lat="51.110875"><ele>15.8</ele><time>2022-05-08T09:00:14.000Z</time></trkpt><trkpt lon="5.905816" lat="51.110829"><ele>15.8</ele><time>2022-05-08T09:00:15.000Z</time></trkpt><trkpt lon="5.905909" lat="51.110783"><ele>15.8</ele><time>2022-05-08T09:00:16.000Z</time></trkpt><trkpt lon="5.906008" lat="51.110742"><ele>15.8</ele><time>2022-05-08T09:00:17.000Z</time></trkpt><trkpt lon="5.906107" lat="51.110708"><ele>15.8</ele><time>2022-05-08T09:00:18.000Z</time></trkpt><trkpt lon="5.906208" lat="51.110676"><ele>15.8</ele><time>2022-05-08T09:00:19.000Z</time></trkpt><trkpt lon="5.90631" lat="51.110644"><ele>16</ele><time>2022-05-08T09:00:20.000Z</time></trkpt><trkpt lon="5.906409" lat="51.110613"><ele>16</ele><time>2022-05-08T09:00:21.000Z</time></trkpt><trkpt lon="5.90651" lat="51.11058"><ele>16</ele><time>2022-05-08T09:00:22.000Z</time></trkpt><trkpt lon="5.906609" lat="51.110548"><ele>16</ele><time>2022-05-08T09:00:23.000Z</time></trkpt><trkpt lon="5.906712" lat="51.110515"><ele>16</ele><time>2022-05-08T09:00:24.000Z</time></trkpt><trkpt lon="5.906815" lat="51.110483"><ele>16</ele><time>2022-05-08T09:00:25.000Z</time></trkpt><trkpt lon="5.906916" lat="51.110455"><ele>16</ele><time>2022-05-08T09:00:26.000Z</time></trkpt><trkpt lon="5.907021" lat="51.110424"><ele>16.2</ele><time>2022-05-08T09:00:27.000Z</time></trkpt><trkpt lon="5.907127" lat="51.110391"><ele>16.2</ele><time>2022-05-08T09:00:28.000Z</time></trkpt><trkpt lon="5.907231" lat="51.110358"><ele>16.2</ele><time>2022-05-08T09:00:29.000Z</time></trkpt><trkpt lon="5.90732" lat="51.110331"><ele>16.2</ele><time>2022-05-08T09:00:30.000Z</time></trkpt><trkpt lon="5.907418" lat="51.110302"><ele>16.2</ele><time>2022-05-08T09:00:31.000Z</time></trkpt><trkpt lon="5.907538" lat="51.110268"><ele>16.2</ele><time>2022-05-08T09:00:32.000Z</time></trkpt><trkpt lon="5.907639" lat="51.110241"><ele>16.2</ele><time>2022-05-08T09:00:33.000Z</time></trkpt><trkpt lon="5.907742" lat="51.110215"><ele>16.2</ele><time>2022-05-08T09:00:34.000Z</time></trkpt><trkpt lon="5.907845" lat="51.11019"><ele>16.2</ele><time>2022-05-08T09:00:35.000Z</time></trkpt><trkpt lon="5.907949" lat="51.110165"><ele>16</ele><time>2022-05-08T09:00:36.000Z</time></trkpt><trkpt lon="5.908052" lat="51.110143"><ele>16</ele><time>2022-05-08T09:00:37.000Z</time></trkpt><trkpt lon="5.908158" lat="51.110124"><ele>16</ele><time>2022-05-08T09:00:38.000Z</time></trkpt><trkpt lon="5.908261" lat="51.110104"><ele>15.8</ele><time>2022-05-08T09:00:39.000Z</time></trkpt><trkpt lon="5.908362" lat="51.110085"><ele>15.6</ele><time>2022-05-08T09:00:40.000Z</time></trkpt><trkpt lon="5.908463" lat="51.110064"><ele>15.6</ele><time>2022-05-08T09:00:41.000Z</time></trkpt><trkpt lon="5.908562" lat="51.110041"><ele>15.4</ele><time>2022-05-08T09:00:42.000Z</time></trkpt><trkpt lon="5.908666" lat="51.110018"><ele>15.4</ele><time>2022-05-08T09:00:43.000Z</time></trkpt><trkpt lon="5.908774" lat="51.109993"><ele>15.6</ele><time>2022-05-08T09:00:44.000Z</time></trkpt><trkpt lon="5.908877" lat="51.109967"><ele>15.4</ele><time>2022-05-08T09:00:45.000Z</time></trkpt><trkpt lon="5.908982" lat="51.10994"><ele>15.4</ele><time>2022-05-08T09:00:46.000Z</time></trkpt><trkpt lon="5.909082" lat="51.109915"><ele>15.4</ele><time>2022-05-08T09:00:47.000Z</time></trkpt><trkpt lon="5.909174" lat="51.10989"><ele>15.6</ele><time>2022-05-08T09:00:48.000Z</time></trkpt><trkpt lon="5.909259" lat="51.109866"><ele>15.6</ele><time>2022-05-08T09:00:49.000Z</time></trkpt><trkpt lon="5.909345" lat="51.109841"><ele>15.6</ele><time>2022-05-08T09:00:50.000Z</time></trkpt><trkpt lon="5.909425" lat="51.109814"><ele>15.6</ele><time>2022-05-08T09:00:51.000Z</time></trkpt><trkpt lon="5.909497" lat="51.10979"><ele>15.8</ele><time>2022-05-08T09:00:52.000Z</time></trkpt><trkpt lon="5.90957" lat="51.109769"><ele>15.8</ele><time>2022-05-08T09:00:53.000Z</time></trkpt><trkpt lon="5.909634" lat="51.109752"><ele>15.8</ele><time>2022-05-08T09:00:54.000Z</time></trkpt><trkpt lon="5.909685" lat="51.109741"><ele>16</ele><time>2022-05-08T09:00:55.000Z</time></trkpt><trkpt lon="5.909721" lat="51.109731"><ele>16</ele><time>2022-05-08T09:00:56.000Z</time></trkpt><trkpt lon="5.909747" lat="51.109722"><ele>16.2</ele><time>2022-05-08T09:00:57.000Z</time></trkpt><trkpt lon="5.909766" lat="51.109712"><ele>16.2</ele><time>2022-05-08T09:00:58.000Z</time></trkpt><trkpt lon="5.909778" lat="51.109694"><ele>16.2</ele><time>2022-05-08T09:00:59.000Z</time></trkpt><trkpt lon="5.909786" lat="51.109667"><ele>16.2</ele><time>2022-05-08T09:01:00.000Z</time></trkpt><trkpt lon="5.9098" lat="51.10963"><ele>16.4</ele><time>2022-05-08T09:01:01.000Z</time></trkpt><trkpt lon="5.909825" lat="51.109588"><ele>16.4</ele><time>2022-05-08T09:01:02.000Z</time></trkpt><trkpt lon="5.909857" lat="51.109545"><ele>16.4</ele><time>2022-05-08T09:01:03.000Z</time></trkpt><trkpt lon="5.909896" lat="51.109501"><ele>16.4</ele><time>2022-05-08T09:01:04.000Z</time></trkpt><trkpt lon="5.909942" lat="51.109458"><ele>16.4</ele><time>2022-05-08T09:01:05.000Z</time></trkpt><trkpt lon="5.91" lat="51.109414"><ele>16.4</ele><time>2022-05-08T09:01:06.000Z</time></trkpt><trkpt lon="5.910075" lat="51.10937"><ele>16.4</ele><time>2022-05-08T09:01:07.000Z</time></trkpt><trkpt lon="5.910157" lat="51.109331"><ele>16.4</ele><time>2022-05-08T09:01:08.000Z</time></trkpt><trkpt lon="5.910238" lat="51.109294"><ele>16.4</ele><time>2022-05-08T09:01:09.000Z</time></trkpt><trkpt lon="5.910314" lat="51.109256"><ele>16.4</ele><time>2022-05-08T09:01:10.000Z</time></trkpt><trkpt lon="5.910386" lat="51.109215"><ele>16.4</ele><time>2022-05-08T09:01:11.000Z</time></trkpt><trkpt lon="5.910456" lat="51.109172"><ele>16.4</ele><time>2022-05-08T09:01:12.000Z</time></trkpt><trkpt lon="5.910532" lat="51.109127"><ele>16.4</ele><time>2022-05-08T09:01:13.000Z</time></trkpt><trkpt lon="5.910621" lat="51.10908"><ele>16.4</ele><time>2022-05-08T09:01:14.000Z</time></trkpt><trkpt lon="5.910721" lat="51.10903"><ele>16.4</ele><time>2022-05-08T09:01:15.000Z</time></trkpt><trkpt lon="5.910824" lat="51.108979"><ele>16.4</ele><time>2022-05-08T09:01:16.000Z</time></trkpt><trkpt lon="5.910928" lat="51.108924"><ele>16.2</ele><time>2022-05-08T09:01:17.000Z</time></trkpt><trkpt lon="5.911029" lat="51.108867"><ele>16.2</ele><time>2022-05-08T09:01:18.000Z</time></trkpt><trkpt lon="5.911131" lat="51.108808"><ele>16.4</ele><time>2022-05-08T09:01:19.000Z</time></trkpt><trkpt lon="5.911235" lat="51.108746"><ele>16.2</ele><time>2022-05-08T09:01:20.000Z</time></trkpt><trkpt lon="5.911339" lat="51.108686"><ele>16.2</ele><time>2022-05-08T09:01:21.000Z</time></trkpt><trkpt lon="5.91144" lat="51.108629"><ele>16.2</ele><time>2022-05-08T09:01:22.000Z</time></trkpt><trkpt lon="5.911541" lat="51.108571"><ele>16.2</ele><time>2022-05-08T09:01:23.000Z</time></trkpt><trkpt lon="5.911638" lat="51.108516"><ele>16.2</ele><time>2022-05-08T09:01:24.000Z</time></trkpt><trkpt lon="5.911729" lat="51.108465"><ele>16.4</ele><time>2022-05-08T09:01:25.000Z</time></trkpt><trkpt lon="5.911819" lat="51.108416"><ele>16.2</ele><time>2022-05-08T09:01:26.000Z</time></trkpt><trkpt lon="5.911911" lat="51.108366"><ele>16.2</ele><time>2022-05-08T09:01:27.000Z</time></trkpt><trkpt lon="5.912002" lat="51.108314"><ele>16</ele><time>2022-05-08T09:01:28.000Z</time></trkpt><trkpt lon="5.912089" lat="51.108263"><ele>16</ele><time>2022-05-08T09:01:29.000Z</time></trkpt><trkpt lon="5.912175" lat="51.108214"><ele>16</ele><time>2022-05-08T09:01:30.000Z</time></trkpt><trkpt lon="5.91226" lat="51.108166"><ele>15.8</ele><time>2022-05-08T09:01:31.000Z</time></trkpt><trkpt lon="5.912347" lat="51.108118"><ele>16</ele><time>2022-05-08T09:01:32.000Z</time></trkpt><trkpt lon="5.912433" lat="51.108071"><ele>16</ele><time>2022-05-08T09:01:33.000Z</time></trkpt><trkpt lon="5.912522" lat="51.108023"><ele>16</ele><time>2022-05-08T09:01:34.000Z</time></trkpt><trkpt lon="5.912612" lat="51.107975"><ele>16</ele><time>2022-05-08T09:01:35.000Z</time></trkpt><trkpt lon="5.912699" lat="51.107928"><ele>16</ele><time>2022-05-08T09:01:36.000Z</time></trkpt><trkpt lon="5.912788" lat="51.107879"><ele>16</ele><time>2022-05-08T09:01:37.000Z</time></trkpt><trkpt lon="5.912877" lat="51.107828"><ele>16</ele><time>2022-05-08T09:01:38.000Z</time></trkpt><trkpt lon="5.912963" lat="51.107781"><ele>16</ele><time>2022-05-08T09:01:39.000Z</time></trkpt><trkpt lon="5.913049" lat="51.107733"><ele>16</ele><time>2022-05-08T09:01:40.000Z</time></trkpt><trkpt lon="5.913133" lat="51.107688"><ele>15.8</ele><time>2022-05-08T09:01:41.000Z</time></trkpt><trkpt lon="5.913216" lat="51.107641"><ele>15.8</ele><time>2022-05-08T09:01:42.000Z</time></trkpt><trkpt lon="5.913299" lat="51.107594"><ele>16</ele><time>2022-05-08T09:01:43.000Z</time></trkpt><trkpt lon="5.913381" lat="51.107547"><ele>16</ele><time>2022-05-08T09:01:44.000Z</time></trkpt><trkpt lon="5.913467" lat="51.107499"><ele>16.2</ele><time>2022-05-08T09:01:45.000Z</time></trkpt><trkpt lon="5.913557" lat="51.10745"><ele>16.2</ele><time>2022-05-08T09:01:46.000Z</time></trkpt><trkpt lon="5.913644" lat="51.107401"><ele>16.2</ele><time>2022-05-08T09:01:47.000Z</time></trkpt><trkpt lon="5.913722" lat="51.107357"><ele>16.2</ele><time>2022-05-08T09:01:48.000Z</time></trkpt><trkpt lon="5.913807" lat="51.107309"><ele>16.4</ele><time>2022-05-08T09:01:49.000Z</time></trkpt><trkpt lon="5.913903" lat="51.107256"><ele>16.2</ele><time>2022-05-08T09:01:50.000Z</time></trkpt><trkpt lon="5.913987" lat="51.107206"><ele>16.2</ele><time>2022-05-08T09:01:51.000Z</time></trkpt><trkpt lon="5.91407" lat="51.107159"><ele>16.2</ele><time>2022-05-08T09:01:52.000Z</time></trkpt><trkpt lon="5.914155" lat="51.107113"><ele>16.4</ele><time>2022-05-08T09:01:53.000Z</time></trkpt><trkpt lon="5.914242" lat="51.107067"><ele>16.4</ele><time>2022-05-08T09:01:54.000Z</time></trkpt><trkpt lon="5.914328" lat="51.107019"><ele>16.4</ele><time>2022-05-08T09:01:55.000Z</time></trkpt><trkpt lon="5.914413" lat="51.106969"><ele>16.4</ele><time>2022-05-08T09:01:56.000Z</time></trkpt><trkpt lon="5.914498" lat="51.106922"><ele>16.4</ele><time>2022-05-08T09:01:57.000Z</time></trkpt><trkpt lon="5.914584" lat="51.106874"><ele>16.4</ele><time>2022-05-08T09:01:58.000Z</time></trkpt><trkpt lon="5.914669" lat="51.106827"><ele>16.4</ele><time>2022-05-08T09:01:59.000Z</time></trkpt><trkpt lon="5.914753" lat="51.106779"><ele>16.4</ele><time>2022-05-08T09:02:00.000Z</time></trkpt><trkpt lon="5.914836" lat="51.106732"><ele>16.4</ele><time>2022-05-08T09:02:01.000Z</time></trkpt><trkpt lon="5.914919" lat="51.106686"><ele>16.4</ele><time>2022-05-08T09:02:02.000Z</time></trkpt><trkpt lon="5.915" lat="51.106638"><ele>16.4</ele><time>2022-05-08T09:02:03.000Z</time></trkpt><trkpt lon="5.915082" lat="51.106588"><ele>16.4</ele><time>2022-05-08T09:02:04.000Z</time></trkpt><trkpt lon="5.915166" lat="51.106538"><ele>16.4</ele><time>2022-05-08T09:02:05.000Z</time></trkpt><trkpt lon="5.915251" lat="51.106489"><ele>16.4</ele><time>2022-05-08T09:02:06.000Z</time></trkpt><trkpt lon="5.915334" lat="51.10644"><ele>16.4</ele><time>2022-05-08T09:02:07.000Z</time></trkpt><trkpt lon="5.915417" lat="51.106392"><ele>16.4</ele><time>2022-05-08T09:02:08.000Z</time></trkpt><trkpt lon="5.915499" lat="51.106344"><ele>16.4</ele><time>2022-05-08T09:02:09.000Z</time></trkpt><trkpt lon="5.91558" lat="51.106297"><ele>16.4</ele><time>2022-05-08T09:02:10.000Z</time></trkpt><trkpt lon="5.915662" lat="51.106251"><ele>16.4</ele><time>2022-05-08T09:02:11.000Z</time></trkpt><trkpt lon="5.915744" lat="51.106201"><ele>16.4</ele><time>2022-05-08T09:02:12.000Z</time></trkpt><trkpt lon="5.915824" lat="51.106147"><ele>16.4</ele><time>2022-05-08T09:02:13.000Z</time></trkpt><trkpt lon="5.915901" lat="51.106094"><ele>16.6</ele><time>2022-05-08T09:02:14.000Z</time></trkpt><trkpt lon="5.91597" lat="51.106038"><ele>16.4</ele><time>2022-05-08T09:02:15.000Z</time></trkpt><trkpt lon="5.916027" lat="51.105977"><ele>16.4</ele><time>2022-05-08T09:02:16.000Z</time></trkpt><trkpt lon="5.916073" lat="51.105912"><ele>16.4</ele><time>2022-05-08T09:02:17.000Z</time></trkpt><trkpt lon="5.91611" lat="51.105844"><ele>16.2</ele><time>2022-05-08T09:02:18.000Z</time></trkpt><trkpt lon="5.916135" lat="51.105776"><ele>16.2</ele><time>2022-05-08T09:02:19.000Z</time></trkpt><trkpt lon="5.916145" lat="51.105708"><ele>16</ele><time>2022-05-08T09:02:20.000Z</time></trkpt><trkpt lon="5.916141" lat="51.105639"><ele>16</ele><time>2022-05-08T09:02:21.000Z</time></trkpt><trkpt lon="5.916125" lat="51.105568"><ele>16</ele><time>2022-05-08T09:02:22.000Z</time></trkpt><trkpt lon="5.9161" lat="51.105498"><ele>16</ele><time>2022-05-08T09:02:23.000Z</time></trkpt><trkpt lon="5.916062" lat="51.105431"><ele>16</ele><time>2022-05-08T09:02:24.000Z</time></trkpt><trkpt lon="5.916007" lat="51.105369"><ele>16</ele><time>2022-05-08T09:02:25.000Z</time></trkpt><trkpt lon="5.91594" lat="51.105308"><ele>16</ele><time>2022-05-08T09:02:26.000Z</time></trkpt><trkpt lon="5.915871" lat="51.105244"><ele>16</ele><time>2022-05-08T09:02:27.000Z</time></trkpt><trkpt lon="5.915799" lat="51.105184"><ele>16</ele><time>2022-05-08T09:02:28.000Z</time></trkpt><trkpt lon="5.915728" lat="51.105125"><ele>16</ele><time>2022-05-08T09:02:29.000Z</time></trkpt><trkpt lon="5.915657" lat="51.105066"><ele>16.2</ele><time>2022-05-08T09:02:30.000Z</time></trkpt><trkpt lon="5.915588" lat="51.105007"><ele>16.2</ele><time>2022-05-08T09:02:31.000Z</time></trkpt><trkpt lon="5.915519" lat="51.104948"><ele>16.2</ele><time>2022-05-08T09:02:32.000Z</time></trkpt><trkpt lon="5.915448" lat="51.104889"><ele>16.4</ele><time>2022-05-08T09:02:33.000Z</time></trkpt><trkpt lon="5.915375" lat="51.10483"><ele>16.4</ele><time>2022-05-08T09:02:34.000Z</time></trkpt><trkpt lon="5.915302" lat="51.10477"><ele>16.4</ele><time>2022-05-08T09:02:35.000Z</time></trkpt><trkpt lon="5.915236" lat="51.104715"><ele>16.4</ele><time>2022-05-08T09:02:36.000Z</time></trkpt><trkpt lon="5.915165" lat="51.104659"><ele>16.4</ele><time>2022-05-08T09:02:37.000Z</time></trkpt><trkpt lon="5.915088" lat="51.104598"><ele>16.2</ele><time>2022-05-08T09:02:38.000Z</time></trkpt><trkpt lon="5.915018" lat="51.104539"><ele>16.2</ele><time>2022-05-08T09:02:39.000Z</time></trkpt><trkpt lon="5.914951" lat="51.10448"><ele>16</ele><time>2022-05-08T09:02:40.000Z</time></trkpt><trkpt lon="5.914886" lat="51.104422"><ele>16</ele><time>2022-05-08T09:02:41.000Z</time></trkpt><trkpt lon="5.91482" lat="51.104364"><ele>16</ele><time>2022-05-08T09:02:42.000Z</time></trkpt><trkpt lon="5.914756" lat="51.104304"><ele>16</ele><time>2022-05-08T09:02:43.000Z</time></trkpt><trkpt lon="5.914697" lat="51.104245"><ele>15.8</ele><time>2022-05-08T09:02:44.000Z</time></trkpt><trkpt lon="5.914636" lat="51.10419"><ele>15.8</ele><time>2022-05-08T09:02:45.000Z</time></trkpt><trkpt lon="5.914571" lat="51.104135"><ele>15.6</ele><time>2022-05-08T09:02:46.000Z</time></trkpt><trkpt lon="5.914498" lat="51.104078"><ele>15.6</ele><time>2022-05-08T09:02:47.000Z</time></trkpt><trkpt lon="5.914424" lat="51.104023"><ele>15.6</ele><time>2022-05-08T09:02:48.000Z</time></trkpt><trkpt lon="5.914348" lat="51.103964"><ele>15.8</ele><time>2022-05-08T09:02:49.000Z</time></trkpt><trkpt lon="5.914271" lat="51.103904"><ele>15.8</ele><time>2022-05-08T09:02:50.000Z</time></trkpt><trkpt lon="5.914196" lat="51.10384"><ele>15.8</ele><time>2022-05-08T09:02:51.000Z</time></trkpt><trkpt lon="5.914121" lat="51.103778"><ele>15.8</ele><time>2022-05-08T09:02:52.000Z</time></trkpt><trkpt lon="5.914046" lat="51.103717"><ele>15.8</ele><time>2022-05-08T09:02:53.000Z</time></trkpt><trkpt lon="5.913971" lat="51.103657"><ele>15.8</ele><time>2022-05-08T09:02:54.000Z</time></trkpt><trkpt lon="5.913896" lat="51.103597"><ele>15.8</ele><time>2022-05-08T09:02:55.000Z</time></trkpt><trkpt lon="5.913819" lat="51.103534"><ele>16</ele><time>2022-05-08T09:02:56.000Z</time></trkpt><trkpt lon="5.91374" lat="51.103472"><ele>16</ele><time>2022-05-08T09:02:57.000Z</time></trkpt><trkpt lon="5.913661" lat="51.103413"><ele>16</ele><time>2022-05-08T09:02:58.000Z</time></trkpt><trkpt lon="5.913585" lat="51.103357"><ele>16</ele><time>2022-05-08T09:02:59.000Z</time></trkpt><trkpt lon="5.913513" lat="51.103297"><ele>16</ele><time>2022-05-08T09:03:00.000Z</time></trkpt><trkpt lon="5.913441" lat="51.103236"><ele>16</ele><time>2022-05-08T09:03:01.000Z</time></trkpt><trkpt lon="5.913367" lat="51.103175"><ele>16</ele><time>2022-05-08T09:03:02.000Z</time></trkpt><trkpt lon="5.913291" lat="51.103112"><ele>16</ele><time>2022-05-08T09:03:03.000Z</time></trkpt><trkpt lon="5.913214" lat="51.103049"><ele>16</ele><time>2022-05-08T09:03:04.000Z</time></trkpt><trkpt lon="5.913138" lat="51.102988"><ele>16</ele><time>2022-05-08T09:03:05.000Z</time></trkpt><trkpt lon="5.913067" lat="51.10293"><ele>16</ele><time>2022-05-08T09:03:06.000Z</time></trkpt><trkpt lon="5.912997" lat="51.102868"><ele>16</ele><time>2022-05-08T09:03:07.000Z</time></trkpt><trkpt lon="5.912925" lat="51.102805"><ele>16.2</ele><time>2022-05-08T09:03:08.000Z</time></trkpt><trkpt lon="5.912852" lat="51.102742"><ele>16.2</ele><time>2022-05-08T09:03:09.000Z</time></trkpt><trkpt lon="5.912773" lat="51.102679"><ele>16.2</ele><time>2022-05-08T09:03:10.000Z</time></trkpt><trkpt lon="5.912691" lat="51.102616"><ele>16.2</ele><time>2022-05-08T09:03:11.000Z</time></trkpt><trkpt lon="5.91261" lat="51.102553"><ele>16.2</ele><time>2022-05-08T09:03:12.000Z</time></trkpt><trkpt lon="5.912531" lat="51.102492"><ele>16.2</ele><time>2022-05-08T09:03:13.000Z</time></trkpt><trkpt lon="5.912454" lat="51.102429"><ele>16.2</ele><time>2022-05-08T09:03:14.000Z</time></trkpt><trkpt lon="5.912378" lat="51.102364"><ele>16.2</ele><time>2022-05-08T09:03:15.000Z</time></trkpt><trkpt lon="5.912304" lat="51.102301"><ele>16.2</ele><time>2022-05-08T09:03:16.000Z</time></trkpt><trkpt lon="5.912226" lat="51.102241"><ele>16</ele><time>2022-05-08T09:03:17.000Z</time></trkpt><trkpt lon="5.912148" lat="51.102179"><ele>16</ele><time>2022-05-08T09:03:18.000Z</time></trkpt><trkpt lon="5.912071" lat="51.102116"><ele>16</ele><time>2022-05-08T09:03:19.000Z</time></trkpt><trkpt lon="5.911997" lat="51.102051"><ele>16.2</ele><time>2022-05-08T09:03:20.000Z</time></trkpt><trkpt lon="5.911923" lat="51.101988"><ele>16.2</ele><time>2022-05-08T09:03:21.000Z</time></trkpt><trkpt lon="5.911842" lat="51.101927"><ele>16</ele><time>2022-05-08T09:03:22.000Z</time></trkpt><trkpt lon="5.911757" lat="51.101868"><ele>16</ele><time>2022-05-08T09:03:23.000Z</time></trkpt><trkpt lon="5.911676" lat="51.101812"><ele>16</ele><time>2022-05-08T09:03:24.000Z</time></trkpt><trkpt lon="5.911591" lat="51.101754"><ele>16.2</ele><time>2022-05-08T09:03:25.000Z</time></trkpt><trkpt lon="5.911503" lat="51.1017"><ele>16.2</ele><time>2022-05-08T09:03:26.000Z</time></trkpt><trkpt lon="5.911412" lat="51.101647"><ele>16.2</ele><time>2022-05-08T09:03:27.000Z</time></trkpt><trkpt lon="5.911323" lat="51.101592"><ele>16.2</ele><time>2022-05-08T09:03:28.000Z</time></trkpt><trkpt lon="5.911237" lat="51.101537"><ele>16.4</ele><time>2022-05-08T09:03:29.000Z</time></trkpt><trkpt lon="5.911154" lat="51.10148"><ele>16.4</ele><time>2022-05-08T09:03:30.000Z</time></trkpt><trkpt lon="5.911074" lat="51.101418"><ele>16.4</ele><time>2022-05-08T09:03:31.000Z</time></trkpt><trkpt lon="5.910997" lat="51.101353"><ele>16.4</ele><time>2022-05-08T09:03:32.000Z</time></trkpt><trkpt lon="5.910932" lat="51.101292"><ele>16.6</ele><time>2022-05-08T09:03:33.000Z</time></trkpt><trkpt lon="5.910874" lat="51.10123"><ele>16.6</ele><time>2022-05-08T09:03:34.000Z</time></trkpt><trkpt lon="5.910821" lat="51.101169"><ele>16.6</ele><time>2022-05-08T09:03:35.000Z</time></trkpt><trkpt lon="5.910771" lat="51.101105"><ele>16.8</ele><time>2022-05-08T09:03:36.000Z</time></trkpt><trkpt lon="5.910724" lat="51.101038"><ele>16.8</ele><time>2022-05-08T09:03:37.000Z</time></trkpt><trkpt lon="5.910683" lat="51.100969"><ele>16.8</ele><time>2022-05-08T09:03:38.000Z</time></trkpt><trkpt lon="5.910644" lat="51.100903"><ele>16.8</ele><time>2022-05-08T09:03:39.000Z</time></trkpt><trkpt lon="5.910602" lat="51.100838"><ele>17</ele><time>2022-05-08T09:03:40.000Z</time></trkpt><trkpt lon="5.910558" lat="51.100771"><ele>17</ele><time>2022-05-08T09:03:41.000Z</time></trkpt><trkpt lon="5.910515" lat="51.100702"><ele>17</ele><time>2022-05-08T09:03:42.000Z</time></trkpt><trkpt lon="5.910472" lat="51.100634"><ele>17</ele><time>2022-05-08T09:03:43.000Z</time></trkpt><trkpt lon="5.91043" lat="51.100565"><ele>17</ele><time>2022-05-08T09:03:44.000Z</time></trkpt><trkpt lon="5.910384" lat="51.100494"><ele>17</ele><time>2022-05-08T09:03:45.000Z</time></trkpt><trkpt lon="5.91033" lat="51.100422"><ele>17</ele><time>2022-05-08T09:03:46.000Z</time></trkpt><trkpt lon="5.910271" lat="51.100349"><ele>17</ele><time>2022-05-08T09:03:47.000Z</time></trkpt><trkpt lon="5.910217" lat="51.100285"><ele>17</ele><time>2022-05-08T09:03:48.000Z</time></trkpt><trkpt lon="5.910161" lat="51.10022"><ele>17.2</ele><time>2022-05-08T09:03:49.000Z</time></trkpt><trkpt lon="5.910098" lat="51.100144"><ele>17.2</ele><time>2022-05-08T09:03:50.000Z</time></trkpt><trkpt lon="5.910038" lat="51.100071"><ele>17.2</ele><time>2022-05-08T09:03:51.000Z</time></trkpt><trkpt lon="5.909976" lat="51.100001"><ele>17</ele><time>2022-05-08T09:03:52.000Z</time></trkpt><trkpt lon="5.90991" lat="51.099932"><ele>17</ele><time>2022-05-08T09:03:53.000Z</time></trkpt><trkpt lon="5.909846" lat="51.099863"><ele>16.8</ele><time>2022-05-08T09:03:54.000Z</time></trkpt><trkpt lon="5.909786" lat="51.099795"><ele>17</ele><time>2022-05-08T09:03:55.000Z</time></trkpt><trkpt lon="5.909729" lat="51.099728"><ele>17</ele><time>2022-05-08T09:03:56.000Z</time></trkpt><trkpt lon="5.909675" lat="51.099663"><ele>17</ele><time>2022-05-08T09:03:57.000Z</time></trkpt><trkpt lon="5.909624" lat="51.099597"><ele>17</ele><time>2022-05-08T09:03:58.000Z</time></trkpt><trkpt lon="5.90957" lat="51.09953"><ele>17.2</ele><time>2022-05-08T09:03:59.000Z</time></trkpt><trkpt lon="5.909508" lat="51.099467"><ele>17.2</ele><time>2022-05-08T09:04:00.000Z</time></trkpt><trkpt lon="5.909437" lat="51.099411"><ele>17.2</ele><time>2022-05-08T09:04:01.000Z</time></trkpt><trkpt lon="5.909361" lat="51.099356"><ele>17.4</ele><time>2022-05-08T09:04:02.000Z</time></trkpt><trkpt lon="5.909286" lat="51.099299"><ele>17.4</ele><time>2022-05-08T09:04:03.000Z</time></trkpt><trkpt lon="5.909216" lat="51.099241"><ele>17.4</ele><time>2022-05-08T09:04:04.000Z</time></trkpt><trkpt lon="5.909145" lat="51.099181"><ele>17.4</ele><time>2022-05-08T09:04:05.000Z</time></trkpt><trkpt lon="5.909069" lat="51.099122"><ele>17</ele><time>2022-05-08T09:04:06.000Z</time></trkpt><trkpt lon="5.908988" lat="51.099063"><ele>16.8</ele><time>2022-05-08T09:04:07.000Z</time></trkpt><trkpt lon="5.908903" lat="51.099004"><ele>16.8</ele><time>2022-05-08T09:04:08.000Z</time></trkpt><trkpt lon="5.908819" lat="51.098942"><ele>16.8</ele><time>2022-05-08T09:04:09.000Z</time></trkpt><trkpt lon="5.908734" lat="51.09888"><ele>16.8</ele><time>2022-05-08T09:04:10.000Z</time></trkpt><trkpt lon="5.908646" lat="51.098821"><ele>17</ele><time>2022-05-08T09:04:11.000Z</time></trkpt><trkpt lon="5.90856" lat="51.098761"><ele>17</ele><time>2022-05-08T09:04:12.000Z</time></trkpt><trkpt lon="5.908475" lat="51.0987"><ele>17.2</ele><time>2022-05-08T09:04:13.000Z</time></trkpt><trkpt lon="5.908391" lat="51.098641"><ele>17</ele><time>2022-05-08T09:04:14.000Z</time></trkpt><trkpt lon="5.90831" lat="51.098584"><ele>16.8</ele><time>2022-05-08T09:04:15.000Z</time></trkpt><trkpt lon="5.908232" lat="51.098527"><ele>16.8</ele><time>2022-05-08T09:04:16.000Z</time></trkpt><trkpt lon="5.908154" lat="51.098467"><ele>16.6</ele><time>2022-05-08T09:04:17.000Z</time></trkpt><trkpt lon="5.908077" lat="51.09841"><ele>16.8</ele><time>2022-05-08T09:04:18.000Z</time></trkpt><trkpt lon="5.907999" lat="51.098353"><ele>16.8</ele><time>2022-05-08T09:04:19.000Z</time></trkpt><trkpt lon="5.907922" lat="51.098297"><ele>17</ele><time>2022-05-08T09:04:20.000Z</time></trkpt><trkpt lon="5.907849" lat="51.098245"><ele>17.2</ele><time>2022-05-08T09:04:21.000Z</time></trkpt><trkpt lon="5.907778" lat="51.098191"><ele>17.2</ele><time>2022-05-08T09:04:22.000Z</time></trkpt><trkpt lon="5.907703" lat="51.098132"><ele>17</ele><time>2022-05-08T09:04:23.000Z</time></trkpt><trkpt lon="5.907626" lat="51.098069"><ele>17</ele><time>2022-05-08T09:04:24.000Z</time></trkpt><trkpt lon="5.907549" lat="51.098008"><ele>17</ele><time>2022-05-08T09:04:25.000Z</time></trkpt><trkpt lon="5.907467" lat="51.097946"><ele>17</ele><time>2022-05-08T09:04:26.000Z</time></trkpt><trkpt lon="5.907384" lat="51.097884"><ele>17.2</ele><time>2022-05-08T09:04:27.000Z</time></trkpt><trkpt lon="5.907303" lat="51.097823"><ele>17</ele><time>2022-05-08T09:04:28.000Z</time></trkpt><trkpt lon="5.907226" lat="51.09776"><ele>17</ele><time>2022-05-08T09:04:29.000Z</time></trkpt><trkpt lon="5.907148" lat="51.097695"><ele>17</ele><time>2022-05-08T09:04:30.000Z</time></trkpt><trkpt lon="5.907065" lat="51.09763"><ele>17</ele><time>2022-05-08T09:04:31.000Z</time></trkpt><trkpt lon="5.906983" lat="51.097565"><ele>17</ele><time>2022-05-08T09:04:32.000Z</time></trkpt><trkpt lon="5.906902" lat="51.0975"><ele>17</ele><time>2022-05-08T09:04:33.000Z</time></trkpt><trkpt lon="5.906821" lat="51.097438"><ele>17</ele><time>2022-05-08T09:04:34.000Z</time></trkpt><trkpt lon="5.906741" lat="51.097374"><ele>17</ele><time>2022-05-08T09:04:35.000Z</time></trkpt><trkpt lon="5.906663" lat="51.097309"><ele>17.2</ele><time>2022-05-08T09:04:36.000Z</time></trkpt><trkpt lon="5.906586" lat="51.097247"><ele>17</ele><time>2022-05-08T09:04:37.000Z</time></trkpt><trkpt lon="5.906507" lat="51.097184"><ele>17</ele><time>2022-05-08T09:04:38.000Z</time></trkpt><trkpt lon="5.906427" lat="51.097119"><ele>17</ele><time>2022-05-08T09:04:39.000Z</time></trkpt><trkpt lon="5.906348" lat="51.097054"><ele>17.2</ele><time>2022-05-08T09:04:40.000Z</time></trkpt><trkpt lon="5.906269" lat="51.096991"><ele>17.2</ele><time>2022-05-08T09:04:41.000Z</time></trkpt><trkpt lon="5.906191" lat="51.096926"><ele>17.2</ele><time>2022-05-08T09:04:42.000Z</time></trkpt><trkpt lon="5.906115" lat="51.096857"><ele>17.2</ele><time>2022-05-08T09:04:43.000Z</time></trkpt><trkpt lon="5.906042" lat="51.096789"><ele>17.4</ele><time>2022-05-08T09:04:44.000Z</time></trkpt><trkpt lon="5.905973" lat="51.096722"><ele>17.6</ele><time>2022-05-08T09:04:45.000Z</time></trkpt><trkpt lon="5.905907" lat="51.096657"><ele>17.6</ele><time>2022-05-08T09:04:46.000Z</time></trkpt><trkpt lon="5.905845" lat="51.096592"><ele>17.8</ele><time>2022-05-08T09:04:47.000Z</time></trkpt><trkpt lon="5.905788" lat="51.096528"><ele>17.8</ele><time>2022-05-08T09:04:48.000Z</time></trkpt><trkpt lon="5.905732" lat="51.096458"><ele>18</ele><time>2022-05-08T09:04:49.000Z</time></trkpt><trkpt lon="5.905676" lat="51.096388"><ele>18</ele><time>2022-05-08T09:04:50.000Z</time></trkpt><trkpt lon="5.905618" lat="51.096317"><ele>18</ele><time>2022-05-08T09:04:51.000Z</time></trkpt><trkpt lon="5.905557" lat="51.096244"><ele>18</ele><time>2022-05-08T09:04:52.000Z</time></trkpt><trkpt lon="5.905498" lat="51.096174"><ele>18</ele><time>2022-05-08T09:04:53.000Z</time></trkpt><trkpt lon="5.905439" lat="51.096104"><ele>18</ele><time>2022-05-08T09:04:54.000Z</time></trkpt><trkpt lon="5.905378" lat="51.096036"><ele>18</ele><time>2022-05-08T09:04:55.000Z</time></trkpt><trkpt lon="5.90532" lat="51.095968"><ele>18</ele><time>2022-05-08T09:04:56.000Z</time></trkpt><trkpt lon="5.905265" lat="51.095897"><ele>18</ele><time>2022-05-08T09:04:57.000Z</time></trkpt><trkpt lon="5.905209" lat="51.095825"><ele>18</ele><time>2022-05-08T09:04:58.000Z</time></trkpt><trkpt lon="5.90515" lat="51.09575"><ele>18</ele><time>2022-05-08T09:04:59.000Z</time></trkpt><trkpt lon="5.905088" lat="51.095674"><ele>18</ele><time>2022-05-08T09:05:00.000Z</time></trkpt><trkpt lon="5.905027" lat="51.095602"><ele>18</ele><time>2022-05-08T09:05:01.000Z</time></trkpt><trkpt lon="5.904968" lat="51.095532"><ele>18</ele><time>2022-05-08T09:05:02.000Z</time></trkpt><trkpt lon="5.904908" lat="51.095461"><ele>18</ele><time>2022-05-08T09:05:03.000Z</time></trkpt><trkpt lon="5.904845" lat="51.095392"><ele>18</ele><time>2022-05-08T09:05:04.000Z</time></trkpt><trkpt lon="5.904783" lat="51.095324"><ele>18</ele><time>2022-05-08T09:05:05.000Z</time></trkpt><trkpt lon="5.904721" lat="51.095257"><ele>18</ele><time>2022-05-08T09:05:06.000Z</time></trkpt><trkpt lon="5.904653" lat="51.09519"><ele>17.8</ele><time>2022-05-08T09:05:07.000Z</time></trkpt><trkpt lon="5.904582" lat="51.095127"><ele>18</ele><time>2022-05-08T09:05:08.000Z</time></trkpt><trkpt lon="5.904509" lat="51.095066"><ele>17.8</ele><time>2022-05-08T09:05:09.000Z</time></trkpt><trkpt lon="5.904433" lat="51.095004"><ele>17.8</ele><time>2022-05-08T09:05:10.000Z</time></trkpt><trkpt lon="5.904355" lat="51.094943"><ele>17.8</ele><time>2022-05-08T09:05:11.000Z</time></trkpt><trkpt lon="5.904277" lat="51.094882"><ele>17.8</ele><time>2022-05-08T09:05:12.000Z</time></trkpt><trkpt lon="5.904197" lat="51.094821"><ele>17.6</ele><time>2022-05-08T09:05:13.000Z</time></trkpt><trkpt lon="5.904118" lat="51.094764"><ele>17.6</ele><time>2022-05-08T09:05:14.000Z</time></trkpt><trkpt lon="5.90404" lat="51.094708"><ele>17.6</ele><time>2022-05-08T09:05:15.000Z</time></trkpt><trkpt lon="5.903963" lat="51.094651"><ele>17.6</ele><time>2022-05-08T09:05:16.000Z</time></trkpt><trkpt lon="5.903883" lat="51.094599"><ele>17.4</ele><time>2022-05-08T09:05:17.000Z</time></trkpt><trkpt lon="5.903794" lat="51.094552"><ele>17.4</ele><time>2022-05-08T09:05:18.000Z</time></trkpt><trkpt lon="5.903689" lat="51.094513"><ele>17.4</ele><time>2022-05-08T09:05:19.000Z</time></trkpt><trkpt lon="5.903575" lat="51.09448"><ele>17.4</ele><time>2022-05-08T09:05:20.000Z</time></trkpt><trkpt lon="5.903458" lat="51.09445"><ele>17.4</ele><time>2022-05-08T09:05:21.000Z</time></trkpt><trkpt lon="5.903343" lat="51.094415"><ele>17.4</ele><time>2022-05-08T09:05:22.000Z</time></trkpt><trkpt lon="5.903232" lat="51.094379"><ele>17.2</ele><time>2022-05-08T09:05:23.000Z</time></trkpt><trkpt lon="5.903127" lat="51.09434"><ele>17.2</ele><time>2022-05-08T09:05:24.000Z</time></trkpt><trkpt lon="5.903026" lat="51.0943"><ele>17.2</ele><time>2022-05-08T09:05:25.000Z</time></trkpt><trkpt lon="5.902927" lat="51.09426"><ele>17.2</ele><time>2022-05-08T09:05:26.000Z</time></trkpt><trkpt lon="5.902832" lat="51.09422"><ele>17.2</ele><time>2022-05-08T09:05:27.000Z</time></trkpt><trkpt lon="5.902742" lat="51.094177"><ele>17.2</ele><time>2022-05-08T09:05:28.000Z</time></trkpt><trkpt lon="5.902654" lat="51.094131"><ele>17.2</ele><time>2022-05-08T09:05:29.000Z</time></trkpt><trkpt lon="5.902569" lat="51.094086"><ele>17.2</ele><time>2022-05-08T09:05:30.000Z</time></trkpt><trkpt lon="5.902483" lat="51.09404"><ele>17.2</ele><time>2022-05-08T09:05:31.000Z</time></trkpt><trkpt lon="5.902398" lat="51.093994"><ele>17.4</ele><time>2022-05-08T09:05:32.000Z</time></trkpt><trkpt lon="5.902313" lat="51.093951"><ele>17.4</ele><time>2022-05-08T09:05:33.000Z</time></trkpt><trkpt lon="5.902228" lat="51.093909"><ele>17.6</ele><time>2022-05-08T09:05:34.000Z</time></trkpt><trkpt lon="5.902146" lat="51.093869"><ele>17.6</ele><time>2022-05-08T09:05:35.000Z</time></trkpt><trkpt lon="5.902061" lat="51.093833"><ele>17.8</ele><time>2022-05-08T09:05:36.000Z</time></trkpt><trkpt lon="5.901969" lat="51.093805"><ele>17.8</ele><time>2022-05-08T09:05:37.000Z</time></trkpt><trkpt lon="5.901871" lat="51.093798"><ele>17.8</ele><time>2022-05-08T09:05:38.000Z</time></trkpt><trkpt lon="5.901768" lat="51.093813"><ele>17.6</ele><time>2022-05-08T09:05:39.000Z</time></trkpt><trkpt lon="5.901665" lat="51.093836"><ele>17.6</ele><time>2022-05-08T09:05:40.000Z</time></trkpt><trkpt lon="5.901561" lat="51.093861"><ele>17.6</ele><time>2022-05-08T09:05:41.000Z</time></trkpt><trkpt lon="5.901455" lat="51.093887"><ele>17.4</ele><time>2022-05-08T09:05:42.000Z</time></trkpt><trkpt lon="5.90135" lat="51.093912"><ele>17.4</ele><time>2022-05-08T09:05:43.000Z</time></trkpt><trkpt lon="5.901244" lat="51.093931"><ele>17.4</ele><time>2022-05-08T09:05:44.000Z</time></trkpt><trkpt lon="5.901139" lat="51.093939"><ele>17.2</ele><time>2022-05-08T09:05:45.000Z</time></trkpt><trkpt lon="5.901039" lat="51.093934"><ele>17.2</ele><time>2022-05-08T09:05:46.000Z</time></trkpt><trkpt lon="5.900948" lat="51.093905"><ele>17</ele><time>2022-05-08T09:05:47.000Z</time></trkpt><trkpt lon="5.900874" lat="51.093859"><ele>16.8</ele><time>2022-05-08T09:05:48.000Z</time></trkpt><trkpt lon="5.900803" lat="51.093805"><ele>16.8</ele><time>2022-05-08T09:05:49.000Z</time></trkpt><trkpt lon="5.900737" lat="51.093752"><ele>16.8</ele><time>2022-05-08T09:05:50.000Z</time></trkpt><trkpt lon="5.90067" lat="51.093698"><ele>16.8</ele><time>2022-05-08T09:05:51.000Z</time></trkpt><trkpt lon="5.9006" lat="51.093645"><ele>16.8</ele><time>2022-05-08T09:05:52.000Z</time></trkpt><trkpt lon="5.900535" lat="51.093597"><ele>16.8</ele><time>2022-05-08T09:05:53.000Z</time></trkpt><trkpt lon="5.900475" lat="51.093554"><ele>16.8</ele><time>2022-05-08T09:05:54.000Z</time></trkpt><trkpt lon="5.900421" lat="51.093514"><ele>17</ele><time>2022-05-08T09:05:55.000Z</time></trkpt><trkpt lon="5.900377" lat="51.093481"><ele>17</ele><time>2022-05-08T09:05:56.000Z</time></trkpt><trkpt lon="5.900343" lat="51.093454"><ele>17</ele><time>2022-05-08T09:05:57.000Z</time></trkpt><trkpt lon="5.900318" lat="51.093434"><ele>17.2</ele><time>2022-05-08T09:05:58.000Z</time></trkpt><trkpt lon="5.900303" lat="51.093417"><ele>17.2</ele><time>2022-05-08T09:05:59.000Z</time></trkpt><trkpt lon="5.900295" lat="51.093408"><ele>17.2</ele><time>2022-05-08T09:06:00.000Z</time></trkpt><trkpt lon="5.900263" lat="51.093343"><ele>17.4</ele><time>2022-05-08T09:06:10.000Z</time></trkpt><trkpt lon="5.900251" lat="51.093321"><ele>17.4</ele><time>2022-05-08T09:06:11.000Z</time></trkpt><trkpt lon="5.900252" lat="51.093298"><ele>17.4</ele><time>2022-05-08T09:06:12.000Z</time></trkpt><trkpt lon="5.900274" lat="51.093279"><ele>17.4</ele><time>2022-05-08T09:06:13.000Z</time></trkpt><trkpt lon="5.900314" lat="51.093262"><ele>17.4</ele><time>2022-05-08T09:06:14.000Z</time></trkpt><trkpt lon="5.900363" lat="51.093241"><ele>17.4</ele><time>2022-05-08T09:06:15.000Z</time></trkpt><trkpt lon="5.900417" lat="51.093218"><ele>17.4</ele><time>2022-05-08T09:06:16.000Z</time></trkpt><trkpt lon="5.900474" lat="51.093195"><ele>17.4</ele><time>2022-05-08T09:06:17.000Z</time></trkpt><trkpt lon="5.900531" lat="51.093173"><ele>17.4</ele><time>2022-05-08T09:06:18.000Z</time></trkpt><trkpt lon="5.900593" lat="51.09315"><ele>17.2</ele><time>2022-05-08T09:06:19.000Z</time></trkpt><trkpt lon="5.900651" lat="51.09312"><ele>17.2</ele><time>2022-05-08T09:06:20.000Z</time></trkpt><trkpt lon="5.900677" lat="51.093085"><ele>17.2</ele><time>2022-05-08T09:06:21.000Z</time></trkpt><trkpt lon="5.900667" lat="51.093051"><ele>17.2</ele><time>2022-05-08T09:06:22.000Z</time></trkpt><trkpt lon="5.900634" lat="51.09301"><ele>17.2</ele><time>2022-05-08T09:06:23.000Z</time></trkpt><trkpt lon="5.900595" lat="51.092958"><ele>17.2</ele><time>2022-05-08T09:06:24.000Z</time></trkpt><trkpt lon="5.900554" lat="51.092901"><ele>17.2</ele><time>2022-05-08T09:06:25.000Z</time></trkpt><trkpt lon="5.90051" lat="51.092841"><ele>17.2</ele><time>2022-05-08T09:06:26.000Z</time></trkpt><trkpt lon="5.900464" lat="51.092773"><ele>17.2</ele><time>2022-05-08T09:06:27.000Z</time></trkpt><trkpt lon="5.900423" lat="51.0927"><ele>17.2</ele><time>2022-05-08T09:06:28.000Z</time></trkpt><trkpt lon="5.900384" lat="51.092628"><ele>17.2</ele><time>2022-05-08T09:06:29.000Z</time></trkpt><trkpt lon="5.90034" lat="51.092553"><ele>17.2</ele><time>2022-05-08T09:06:30.000Z</time></trkpt><trkpt lon="5.900295" lat="51.092478"><ele>17.2</ele><time>2022-05-08T09:06:31.000Z</time></trkpt><trkpt lon="5.900249" lat="51.092402"><ele>17.4</ele><time>2022-05-08T09:06:32.000Z</time></trkpt><trkpt lon="5.900205" lat="51.092327"><ele>17.4</ele><time>2022-05-08T09:06:33.000Z</time></trkpt><trkpt lon="5.900161" lat="51.092252"><ele>17.6</ele><time>2022-05-08T09:06:34.000Z</time></trkpt><trkpt lon="5.900122" lat="51.092176"><ele>17.6</ele><time>2022-05-08T09:06:35.000Z</time></trkpt><trkpt lon="5.900088" lat="51.0921"><ele>17.8</ele><time>2022-05-08T09:06:36.000Z</time></trkpt><trkpt lon="5.900059" lat="51.092023"><ele>17.8</ele><time>2022-05-08T09:06:37.000Z</time></trkpt><trkpt lon="5.900035" lat="51.09195"><ele>17.8</ele><time>2022-05-08T09:06:38.000Z</time></trkpt><trkpt lon="5.900016" lat="51.09188"><ele>18</ele><time>2022-05-08T09:06:39.000Z</time></trkpt><trkpt lon="5.900003" lat="51.091811"><ele>18</ele><time>2022-05-08T09:06:40.000Z</time></trkpt><trkpt lon="5.89999" lat="51.091742"><ele>18.2</ele><time>2022-05-08T09:06:41.000Z</time></trkpt><trkpt lon="5.89998" lat="51.091675"><ele>18.2</ele><time>2022-05-08T09:06:42.000Z</time></trkpt><trkpt lon="5.899974" lat="51.091608"><ele>18.2</ele><time>2022-05-08T09:06:43.000Z</time></trkpt><trkpt lon="5.899969" lat="51.09154"><ele>18.4</ele><time>2022-05-08T09:06:44.000Z</time></trkpt><trkpt lon="5.899966" lat="51.091471"><ele>18.4</ele><time>2022-05-08T09:06:45.000Z</time></trkpt><trkpt lon="5.899962" lat="51.0914"><ele>18.4</ele><time>2022-05-08T09:06:46.000Z</time></trkpt><trkpt lon="5.899957" lat="51.091325"><ele>18.4</ele><time>2022-05-08T09:06:47.000Z</time></trkpt><trkpt lon="5.899953" lat="51.091247"><ele>18.4</ele><time>2022-05-08T09:06:48.000Z</time></trkpt><trkpt lon="5.899951" lat="51.091167"><ele>18.2</ele><time>2022-05-08T09:06:49.000Z</time></trkpt><trkpt lon="5.899951" lat="51.091088"><ele>18.2</ele><time>2022-05-08T09:06:50.000Z</time></trkpt><trkpt lon="5.899949" lat="51.09101"><ele>18.2</ele><time>2022-05-08T09:06:51.000Z</time></trkpt><trkpt lon="5.899946" lat="51.09093"><ele>18.2</ele><time>2022-05-08T09:06:52.000Z</time></trkpt><trkpt lon="5.899945" lat="51.090848"><ele>18.2</ele><time>2022-05-08T09:06:53.000Z</time></trkpt><trkpt lon="5.899945" lat="51.090766"><ele>18.2</ele><time>2022-05-08T09:06:54.000Z</time></trkpt><trkpt lon="5.899943" lat="51.090688"><ele>18.2</ele><time>2022-05-08T09:06:55.000Z</time></trkpt><trkpt lon="5.899941" lat="51.090611"><ele>18.2</ele><time>2022-05-08T09:06:56.000Z</time></trkpt><trkpt lon="5.899939" lat="51.09053"><ele>18.4</ele><time>2022-05-08T09:06:57.000Z</time></trkpt><trkpt lon="5.899938" lat="51.090452"><ele>18.4</ele><time>2022-05-08T09:06:58.000Z</time></trkpt><trkpt lon="5.899937" lat="51.090373"><ele>18.4</ele><time>2022-05-08T09:06:59.000Z</time></trkpt><trkpt lon="5.899935" lat="51.090295"><ele>18.4</ele><time>2022-05-08T09:07:00.000Z</time></trkpt><trkpt lon="5.899932" lat="51.090217"><ele>18.2</ele><time>2022-05-08T09:07:01.000Z</time></trkpt><trkpt lon="5.899933" lat="51.090137"><ele>18.2</ele><time>2022-05-08T09:07:02.000Z</time></trkpt><trkpt lon="5.899933" lat="51.090059"><ele>18</ele><time>2022-05-08T09:07:03.000Z</time></trkpt><trkpt lon="5.899932" lat="51.08998"><ele>18</ele><time>2022-05-08T09:07:04.000Z</time></trkpt><trkpt lon="5.899931" lat="51.0899"><ele>18</ele><time>2022-05-08T09:07:05.000Z</time></trkpt><trkpt lon="5.89993" lat="51.089825"><ele>18</ele><time>2022-05-08T09:07:06.000Z</time></trkpt><trkpt lon="5.899926" lat="51.089752"><ele>18</ele><time>2022-05-08T09:07:07.000Z</time></trkpt><trkpt lon="5.899921" lat="51.089677"><ele>18</ele><time>2022-05-08T09:07:08.000Z</time></trkpt><trkpt lon="5.899918" lat="51.089603"><ele>18</ele><time>2022-05-08T09:07:09.000Z</time></trkpt><trkpt lon="5.89991" lat="51.089529"><ele>18</ele><time>2022-05-08T09:07:10.000Z</time></trkpt><trkpt lon="5.899893" lat="51.089455"><ele>18</ele><time>2022-05-08T09:07:11.000Z</time></trkpt><trkpt lon="5.899867" lat="51.08938"><ele>18</ele><time>2022-05-08T09:07:12.000Z</time></trkpt><trkpt lon="5.899836" lat="51.089305"><ele>18.2</ele><time>2022-05-08T09:07:13.000Z</time></trkpt><trkpt lon="5.899806" lat="51.089233"><ele>18.2</ele><time>2022-05-08T09:07:14.000Z</time></trkpt><trkpt lon="5.899775" lat="51.089161"><ele>18.2</ele><time>2022-05-08T09:07:15.000Z</time></trkpt><trkpt lon="5.899744" lat="51.08909"><ele>18.4</ele><time>2022-05-08T09:07:16.000Z</time></trkpt><trkpt lon="5.899711" lat="51.089017"><ele>18.4</ele><time>2022-05-08T09:07:17.000Z</time></trkpt><trkpt lon="5.899678" lat="51.088944"><ele>18.4</ele><time>2022-05-08T09:07:18.000Z</time></trkpt><trkpt lon="5.899646" lat="51.088872"><ele>18.4</ele><time>2022-05-08T09:07:19.000Z</time></trkpt><trkpt lon="5.899611" lat="51.088797"><ele>18.6</ele><time>2022-05-08T09:07:20.000Z</time></trkpt><trkpt lon="5.899576" lat="51.08872"><ele>18.6</ele><time>2022-05-08T09:07:21.000Z</time></trkpt><trkpt lon="5.899545" lat="51.088643"><ele>18.6</ele><time>2022-05-08T09:07:22.000Z</time></trkpt><trkpt lon="5.899513" lat="51.088567"><ele>18.6</ele><time>2022-05-08T09:07:23.000Z</time></trkpt><trkpt lon="5.899479" lat="51.088489"><ele>18.6</ele><time>2022-05-08T09:07:24.000Z</time></trkpt><trkpt lon="5.899446" lat="51.088414"><ele>18.6</ele><time>2022-05-08T09:07:25.000Z</time></trkpt><trkpt lon="5.899412" lat="51.088338"><ele>18.6</ele><time>2022-05-08T09:07:26.000Z</time></trkpt><trkpt lon="5.899379" lat="51.088265"><ele>18.6</ele><time>2022-05-08T09:07:27.000Z</time></trkpt><trkpt lon="5.899345" lat="51.08819"><ele>18.6</ele><time>2022-05-08T09:07:28.000Z</time></trkpt><trkpt lon="5.899311" lat="51.088115"><ele>18.6</ele><time>2022-05-08T09:07:29.000Z</time></trkpt><trkpt lon="5.899278" lat="51.088043"><ele>18.6</ele><time>2022-05-08T09:07:30.000Z</time></trkpt><trkpt lon="5.899247" lat="51.087971"><ele>18.6</ele><time>2022-05-08T09:07:31.000Z</time></trkpt><trkpt lon="5.899214" lat="51.087896"><ele>18.8</ele><time>2022-05-08T09:07:32.000Z</time></trkpt><trkpt lon="5.899181" lat="51.087822"><ele>18.8</ele><time>2022-05-08T09:07:33.000Z</time></trkpt><trkpt lon="5.899148" lat="51.087747"><ele>18.8</ele><time>2022-05-08T09:07:34.000Z</time></trkpt><trkpt lon="5.899116" lat="51.087671"><ele>18.8</ele><time>2022-05-08T09:07:35.000Z</time></trkpt><trkpt lon="5.899082" lat="51.087593"><ele>18.8</ele><time>2022-05-08T09:07:36.000Z</time></trkpt><trkpt lon="5.899048" lat="51.087513"><ele>18.8</ele><time>2022-05-08T09:07:37.000Z</time></trkpt><trkpt lon="5.899012" lat="51.087432"><ele>18.8</ele><time>2022-05-08T09:07:38.000Z</time></trkpt><trkpt lon="5.898976" lat="51.087352"><ele>18.6</ele><time>2022-05-08T09:07:39.000Z</time></trkpt><trkpt lon="5.898942" lat="51.087274"><ele>18.6</ele><time>2022-05-08T09:07:40.000Z</time></trkpt><trkpt lon="5.898908" lat="51.087196"><ele>18.6</ele><time>2022-05-08T09:07:41.000Z</time></trkpt><trkpt lon="5.898874" lat="51.087116"><ele>18.6</ele><time>2022-05-08T09:07:42.000Z</time></trkpt><trkpt lon="5.89884" lat="51.087035"><ele>18.6</ele><time>2022-05-08T09:07:43.000Z</time></trkpt><trkpt lon="5.898806" lat="51.086955"><ele>18.6</ele><time>2022-05-08T09:07:44.000Z</time></trkpt><trkpt lon="5.898771" lat="51.086873"><ele>18.6</ele><time>2022-05-08T09:07:45.000Z</time></trkpt><trkpt lon="5.898737" lat="51.08679"><ele>18.6</ele><time>2022-05-08T09:07:46.000Z</time></trkpt><trkpt lon="5.898701" lat="51.086706"><ele>18.6</ele><time>2022-05-08T09:07:47.000Z</time></trkpt><trkpt lon="5.898663" lat="51.086622"><ele>18.6</ele><time>2022-05-08T09:07:48.000Z</time></trkpt><trkpt lon="5.898626" lat="51.086535"><ele>18.6</ele><time>2022-05-08T09:07:49.000Z</time></trkpt><trkpt lon="5.898587" lat="51.086449"><ele>18.6</ele><time>2022-05-08T09:07:50.000Z</time></trkpt><trkpt lon="5.898547" lat="51.086362"><ele>18.4</ele><time>2022-05-08T09:07:51.000Z</time></trkpt><trkpt lon="5.898509" lat="51.086277"><ele>18.4</ele><time>2022-05-08T09:07:52.000Z</time></trkpt><trkpt lon="5.89847" lat="51.086192"><ele>18.4</ele><time>2022-05-08T09:07:53.000Z</time></trkpt><trkpt lon="5.89843" lat="51.086107"><ele>18.4</ele><time>2022-05-08T09:07:54.000Z</time></trkpt><trkpt lon="5.898389" lat="51.086022"><ele>18.4</ele><time>2022-05-08T09:07:55.000Z</time></trkpt><trkpt lon="5.898342" lat="51.085936"><ele>18.4</ele><time>2022-05-08T09:07:56.000Z</time></trkpt><trkpt lon="5.898284" lat="51.085853"><ele>18.4</ele><time>2022-05-08T09:07:57.000Z</time></trkpt><trkpt lon="5.898222" lat="51.085774"><ele>18.2</ele><time>2022-05-08T09:07:58.000Z</time></trkpt><trkpt lon="5.898164" lat="51.085706"><ele>18.2</ele><time>2022-05-08T09:07:59.000Z</time></trkpt><trkpt lon="5.898099" lat="51.085633"><ele>18.4</ele><time>2022-05-08T09:08:00.000Z</time></trkpt><trkpt lon="5.898026" lat="51.085556"><ele>18.2</ele><time>2022-05-08T09:08:01.000Z</time></trkpt><trkpt lon="5.897957" lat="51.085485"><ele>18.4</ele><time>2022-05-08T09:08:02.000Z</time></trkpt><trkpt lon="5.89789" lat="51.085415"><ele>18.6</ele><time>2022-05-08T09:08:03.000Z</time></trkpt><trkpt lon="5.897826" lat="51.085342"><ele>18.8</ele><time>2022-05-08T09:08:04.000Z</time></trkpt><trkpt lon="5.897762" lat="51.08527"><ele>19</ele><time>2022-05-08T09:08:05.000Z</time></trkpt><trkpt lon="5.897695" lat="51.085195"><ele>19</ele><time>2022-05-08T09:08:06.000Z</time></trkpt><trkpt lon="5.897631" lat="51.085123"><ele>19.2</ele><time>2022-05-08T09:08:07.000Z</time></trkpt><trkpt lon="5.897569" lat="51.085053"><ele>19.2</ele><time>2022-05-08T09:08:08.000Z</time></trkpt><trkpt lon="5.897508" lat="51.084982"><ele>19.2</ele><time>2022-05-08T09:08:09.000Z</time></trkpt><trkpt lon="5.897447" lat="51.084916"><ele>19.2</ele><time>2022-05-08T09:08:10.000Z</time></trkpt><trkpt lon="5.897383" lat="51.084847"><ele>19.2</ele><time>2022-05-08T09:08:11.000Z</time></trkpt><trkpt lon="5.897316" lat="51.084777"><ele>19.2</ele><time>2022-05-08T09:08:12.000Z</time></trkpt><trkpt lon="5.897251" lat="51.084713"><ele>19.2</ele><time>2022-05-08T09:08:13.000Z</time></trkpt><trkpt lon="5.89718" lat="51.084645"><ele>19.2</ele><time>2022-05-08T09:08:14.000Z</time></trkpt><trkpt lon="5.897108" lat="51.084574"><ele>19.2</ele><time>2022-05-08T09:08:15.000Z</time></trkpt><trkpt lon="5.897036" lat="51.084507"><ele>19.2</ele><time>2022-05-08T09:08:16.000Z</time></trkpt><trkpt lon="5.896961" lat="51.08444"><ele>19.2</ele><time>2022-05-08T09:08:17.000Z</time></trkpt><trkpt lon="5.896888" lat="51.084376"><ele>19.4</ele><time>2022-05-08T09:08:18.000Z</time></trkpt><trkpt lon="5.896817" lat="51.084313"><ele>19.4</ele><time>2022-05-08T09:08:19.000Z</time></trkpt><trkpt lon="5.896748" lat="51.08425"><ele>19.4</ele><time>2022-05-08T09:08:20.000Z</time></trkpt><trkpt lon="5.896676" lat="51.084187"><ele>19.4</ele><time>2022-05-08T09:08:21.000Z</time></trkpt><trkpt lon="5.896605" lat="51.084123"><ele>19.6</ele><time>2022-05-08T09:08:22.000Z</time></trkpt><trkpt lon="5.896539" lat="51.084061"><ele>19.6</ele><time>2022-05-08T09:08:23.000Z</time></trkpt><trkpt lon="5.896468" lat="51.083996"><ele>19.6</ele><time>2022-05-08T09:08:24.000Z</time></trkpt><trkpt lon="5.896394" lat="51.083928"><ele>19.6</ele><time>2022-05-08T09:08:25.000Z</time></trkpt><trkpt lon="5.896323" lat="51.083866"><ele>19.6</ele><time>2022-05-08T09:08:26.000Z</time></trkpt><trkpt lon="5.896251" lat="51.083802"><ele>19.6</ele><time>2022-05-08T09:08:27.000Z</time></trkpt><trkpt lon="5.896178" lat="51.083737"><ele>19.6</ele><time>2022-05-08T09:08:28.000Z</time></trkpt><trkpt lon="5.896106" lat="51.083672"><ele>19.6</ele><time>2022-05-08T09:08:29.000Z</time></trkpt><trkpt lon="5.896035" lat="51.083607"><ele>19.6</ele><time>2022-05-08T09:08:30.000Z</time></trkpt><trkpt lon="5.895966" lat="51.08354"><ele>19.6</ele><time>2022-05-08T09:08:31.000Z</time></trkpt><trkpt lon="5.895899" lat="51.083472"><ele>19.6</ele><time>2022-05-08T09:08:32.000Z</time></trkpt><trkpt lon="5.895839" lat="51.083401"><ele>19.6</ele><time>2022-05-08T09:08:33.000Z</time></trkpt><trkpt lon="5.895786" lat="51.083327"><ele>19.6</ele><time>2022-05-08T09:08:34.000Z</time></trkpt><trkpt lon="5.895739" lat="51.08325"><ele>19.6</ele><time>2022-05-08T09:08:35.000Z</time></trkpt><trkpt lon="5.895695" lat="51.083174"><ele>19.6</ele><time>2022-05-08T09:08:36.000Z</time></trkpt><trkpt lon="5.895652" lat="51.083095"><ele>19.6</ele><time>2022-05-08T09:08:37.000Z</time></trkpt><trkpt lon="5.895608" lat="51.083017"><ele>19.6</ele><time>2022-05-08T09:08:38.000Z</time></trkpt><trkpt lon="5.895566" lat="51.082941"><ele>19.6</ele><time>2022-05-08T09:08:39.000Z</time></trkpt><trkpt lon="5.895525" lat="51.082864"><ele>19.4</ele><time>2022-05-08T09:08:40.000Z</time></trkpt><trkpt lon="5.895483" lat="51.082788"><ele>19.4</ele><time>2022-05-08T09:08:41.000Z</time></trkpt><trkpt lon="5.895439" lat="51.082707"><ele>19</ele><time>2022-05-08T09:08:42.000Z</time></trkpt><trkpt lon="5.895393" lat="51.082626"><ele>18.8</ele><time>2022-05-08T09:08:43.000Z</time></trkpt><trkpt lon="5.895346" lat="51.082546"><ele>19</ele><time>2022-05-08T09:08:44.000Z</time></trkpt><trkpt lon="5.895299" lat="51.082466"><ele>19</ele><time>2022-05-08T09:08:45.000Z</time></trkpt><trkpt lon="5.895252" lat="51.082386"><ele>18.8</ele><time>2022-05-08T09:08:46.000Z</time></trkpt><trkpt lon="5.895209" lat="51.082305"><ele>18.6</ele><time>2022-05-08T09:08:47.000Z</time></trkpt><trkpt lon="5.895177" lat="51.082241"><ele>18.6</ele><time>2022-05-08T09:08:48.000Z</time></trkpt><trkpt lon="5.89515" lat="51.082184"><ele>18.6</ele><time>2022-05-08T09:08:49.000Z</time></trkpt><trkpt lon="5.895094" lat="51.082067"><ele>18.6</ele><time>2022-05-08T09:08:50.000Z</time></trkpt><trkpt lon="5.895057" lat="51.081988"><ele>18.6</ele><time>2022-05-08T09:08:51.000Z</time></trkpt><trkpt lon="5.895019" lat="51.081909"><ele>18.8</ele><time>2022-05-08T09:08:52.000Z</time></trkpt><trkpt lon="5.894983" lat="51.081831"><ele>18.8</ele><time>2022-05-08T09:08:53.000Z</time></trkpt><trkpt lon="5.894947" lat="51.081753"><ele>18.6</ele><time>2022-05-08T09:08:54.000Z</time></trkpt><trkpt lon="5.894911" lat="51.081672"><ele>18.6</ele><time>2022-05-08T09:08:55.000Z</time></trkpt><trkpt lon="5.894874" lat="51.081592"><ele>18.4</ele><time>2022-05-08T09:08:56.000Z</time></trkpt><trkpt lon="5.894837" lat="51.081512"><ele>18.4</ele><time>2022-05-08T09:08:57.000Z</time></trkpt><trkpt lon="5.8948" lat="51.081431"><ele>18.2</ele><time>2022-05-08T09:08:58.000Z</time></trkpt><trkpt lon="5.894764" lat="51.081354"><ele>18.2</ele><time>2022-05-08T09:08:59.000Z</time></trkpt><trkpt lon="5.894728" lat="51.081275"><ele>18.4</ele><time>2022-05-08T09:09:00.000Z</time></trkpt><trkpt lon="5.894693" lat="51.081197"><ele>18.4</ele><time>2022-05-08T09:09:01.000Z</time></trkpt><trkpt lon="5.894658" lat="51.081123"><ele>18.4</ele><time>2022-05-08T09:09:02.000Z</time></trkpt><trkpt lon="5.894623" lat="51.081048"><ele>18.4</ele><time>2022-05-08T09:09:03.000Z</time></trkpt><trkpt lon="5.89459" lat="51.080972"><ele>18.4</ele><time>2022-05-08T09:09:04.000Z</time></trkpt><trkpt lon="5.894559" lat="51.0809"><ele>18.4</ele><time>2022-05-08T09:09:05.000Z</time></trkpt><trkpt lon="5.894531" lat="51.080832"><ele>18.4</ele><time>2022-05-08T09:09:06.000Z</time></trkpt><trkpt lon="5.894504" lat="51.080767"><ele>18.4</ele><time>2022-05-08T09:09:07.000Z</time></trkpt><trkpt lon="5.894473" lat="51.080706"><ele>18.4</ele><time>2022-05-08T09:09:08.000Z</time></trkpt><trkpt lon="5.894428" lat="51.080653"><ele>18.4</ele><time>2022-05-08T09:09:09.000Z</time></trkpt><trkpt lon="5.894356" lat="51.080612"><ele>18.4</ele><time>2022-05-08T09:09:10.000Z</time></trkpt><trkpt lon="5.894255" lat="51.080588"><ele>18.4</ele><time>2022-05-08T09:09:11.000Z</time></trkpt><trkpt lon="5.894141" lat="51.080582"><ele>18.2</ele><time>2022-05-08T09:09:12.000Z</time></trkpt><trkpt lon="5.894017" lat="51.080586"><ele>17.8</ele><time>2022-05-08T09:09:13.000Z</time></trkpt><trkpt lon="5.89389" lat="51.080596"><ele>17.6</ele><time>2022-05-08T09:09:14.000Z</time></trkpt><trkpt lon="5.893772" lat="51.080605"><ele>17.4</ele><time>2022-05-08T09:09:15.000Z</time></trkpt><trkpt lon="5.893645" lat="51.080614"><ele>17.2</ele><time>2022-05-08T09:09:16.000Z</time></trkpt><trkpt lon="5.893511" lat="51.080622"><ele>17</ele><time>2022-05-08T09:09:17.000Z</time></trkpt><trkpt lon="5.893384" lat="51.080628"><ele>16.8</ele><time>2022-05-08T09:09:18.000Z</time></trkpt><trkpt lon="5.893256" lat="51.080636"><ele>16.8</ele><time>2022-05-08T09:09:19.000Z</time></trkpt><trkpt lon="5.893128" lat="51.080641"><ele>16.8</ele><time>2022-05-08T09:09:20.000Z</time></trkpt><trkpt lon="5.893001" lat="51.080647"><ele>16.6</ele><time>2022-05-08T09:09:21.000Z</time></trkpt><trkpt lon="5.892873" lat="51.080655"><ele>16.6</ele><time>2022-05-08T09:09:22.000Z</time></trkpt><trkpt lon="5.892744" lat="51.08066"><ele>16.6</ele><time>2022-05-08T09:09:23.000Z</time></trkpt><trkpt lon="5.892616" lat="51.080666"><ele>16.6</ele><time>2022-05-08T09:09:24.000Z</time></trkpt><trkpt lon="5.892487" lat="51.080674"><ele>16.6</ele><time>2022-05-08T09:09:25.000Z</time></trkpt><trkpt lon="5.892355" lat="51.080681"><ele>16.4</ele><time>2022-05-08T09:09:26.000Z</time></trkpt><trkpt lon="5.892223" lat="51.080689"><ele>16.4</ele><time>2022-05-08T09:09:27.000Z</time></trkpt><trkpt lon="5.892093" lat="51.080697"><ele>16.2</ele><time>2022-05-08T09:09:28.000Z</time></trkpt><trkpt lon="5.891965" lat="51.080704"><ele>16.2</ele><time>2022-05-08T09:09:29.000Z</time></trkpt><trkpt lon="5.891834" lat="51.080712"><ele>16.2</ele><time>2022-05-08T09:09:30.000Z</time></trkpt><trkpt lon="5.891703" lat="51.080717"><ele>16.2</ele><time>2022-05-08T09:09:31.000Z</time></trkpt><trkpt lon="5.891575" lat="51.080723"><ele>16.4</ele><time>2022-05-08T09:09:32.000Z</time></trkpt><trkpt lon="5.891446" lat="51.080729"><ele>16.4</ele><time>2022-05-08T09:09:33.000Z</time></trkpt><trkpt lon="5.891316" lat="51.080735"><ele>16.4</ele><time>2022-05-08T09:09:34.000Z</time></trkpt><trkpt lon="5.891189" lat="51.08074"><ele>16.4</ele><time>2022-05-08T09:09:35.000Z</time></trkpt><trkpt lon="5.89106" lat="51.080746"><ele>16.4</ele><time>2022-05-08T09:09:36.000Z</time></trkpt><trkpt lon="5.890928" lat="51.080752"><ele>16.2</ele><time>2022-05-08T09:09:37.000Z</time></trkpt><trkpt lon="5.890799" lat="51.080758"><ele>16.2</ele><time>2022-05-08T09:09:38.000Z</time></trkpt><trkpt lon="5.890668" lat="51.080763"><ele>16.2</ele><time>2022-05-08T09:09:39.000Z</time></trkpt><trkpt lon="5.890537" lat="51.080769"><ele>16.2</ele><time>2022-05-08T09:09:40.000Z</time></trkpt><trkpt lon="5.890405" lat="51.080777"><ele>16</ele><time>2022-05-08T09:09:41.000Z</time></trkpt><trkpt lon="5.890274" lat="51.080782"><ele>16</ele><time>2022-05-08T09:09:42.000Z</time></trkpt><trkpt lon="5.890152" lat="51.080788"><ele>16</ele><time>2022-05-08T09:09:43.000Z</time></trkpt><trkpt lon="5.890021" lat="51.080793"><ele>15.8</ele><time>2022-05-08T09:09:44.000Z</time></trkpt><trkpt lon="5.889885" lat="51.080802"><ele>16</ele><time>2022-05-08T09:09:45.000Z</time></trkpt><trkpt lon="5.889757" lat="51.080811"><ele>16</ele><time>2022-05-08T09:09:46.000Z</time></trkpt><trkpt lon="5.889629" lat="51.080817"><ele>15.8</ele><time>2022-05-08T09:09:47.000Z</time></trkpt><trkpt lon="5.889512" lat="51.080818"><ele>15.8</ele><time>2022-05-08T09:09:48.000Z</time></trkpt><trkpt lon="5.889385" lat="51.080822"><ele>15.8</ele><time>2022-05-08T09:09:49.000Z</time></trkpt><trkpt lon="5.889241" lat="51.080828"><ele>16</ele><time>2022-05-08T09:09:50.000Z</time></trkpt><trkpt lon="5.889113" lat="51.080827"><ele>16</ele><time>2022-05-08T09:09:51.000Z</time></trkpt><trkpt lon="5.888986" lat="51.080826"><ele>16</ele><time>2022-05-08T09:09:52.000Z</time></trkpt><trkpt lon="5.88886" lat="51.080819"><ele>16</ele><time>2022-05-08T09:09:53.000Z</time></trkpt><trkpt lon="5.888735" lat="51.080806"><ele>16.2</ele><time>2022-05-08T09:09:54.000Z</time></trkpt><trkpt lon="5.888611" lat="51.080786"><ele>16.2</ele><time>2022-05-08T09:09:55.000Z</time></trkpt><trkpt lon="5.888489" lat="51.080759"><ele>16.6</ele><time>2022-05-08T09:09:56.000Z</time></trkpt><trkpt lon="5.888375" lat="51.080728"><ele>16.6</ele><time>2022-05-08T09:09:57.000Z</time></trkpt><trkpt lon="5.888265" lat="51.080695"><ele>16.8</ele><time>2022-05-08T09:09:58.000Z</time></trkpt><trkpt lon="5.888158" lat="51.080663"><ele>16.8</ele><time>2022-05-08T09:09:59.000Z</time></trkpt><trkpt lon="5.888053" lat="51.080635"><ele>17</ele><time>2022-05-08T09:10:00.000Z</time></trkpt><trkpt lon="5.887948" lat="51.080621"><ele>17</ele><time>2022-05-08T09:10:01.000Z</time></trkpt><trkpt lon="5.887852" lat="51.080635"><ele>16.8</ele><time>2022-05-08T09:10:02.000Z</time></trkpt><trkpt lon="5.88777" lat="51.080677"><ele>16.8</ele><time>2022-05-08T09:10:03.000Z</time></trkpt><trkpt lon="5.887696" lat="51.080733"><ele>16.6</ele><time>2022-05-08T09:10:04.000Z</time></trkpt><trkpt lon="5.887626" lat="51.080797"><ele>16.4</ele><time>2022-05-08T09:10:05.000Z</time></trkpt><trkpt lon="5.887555" lat="51.080863"><ele>16.4</ele><time>2022-05-08T09:10:06.000Z</time></trkpt><trkpt lon="5.887477" lat="51.080926"><ele>16.4</ele><time>2022-05-08T09:10:07.000Z</time></trkpt><trkpt lon="5.887387" lat="51.080983"><ele>16.4</ele><time>2022-05-08T09:10:08.000Z</time></trkpt><trkpt lon="5.887292" lat="51.081036"><ele>16.4</ele><time>2022-05-08T09:10:09.000Z</time></trkpt><trkpt lon="5.887195" lat="51.081088"><ele>16.6</ele><time>2022-05-08T09:10:10.000Z</time></trkpt><trkpt lon="5.887102" lat="51.081144"><ele>16.8</ele><time>2022-05-08T09:10:11.000Z</time></trkpt><trkpt lon="5.887016" lat="51.081204"><ele>16.8</ele><time>2022-05-08T09:10:12.000Z</time></trkpt><trkpt lon="5.886936" lat="51.081268"><ele>17</ele><time>2022-05-08T09:10:13.000Z</time></trkpt><trkpt lon="5.886857" lat="51.08133"><ele>17</ele><time>2022-05-08T09:10:14.000Z</time></trkpt><trkpt lon="5.886777" lat="51.081389"><ele>17</ele><time>2022-05-08T09:10:15.000Z</time></trkpt><trkpt lon="5.886698" lat="51.081446"><ele>16.8</ele><time>2022-05-08T09:10:16.000Z</time></trkpt><trkpt lon="5.886619" lat="51.081505"><ele>16.6</ele><time>2022-05-08T09:10:17.000Z</time></trkpt><trkpt lon="5.886538" lat="51.081564"><ele>16.6</ele><time>2022-05-08T09:10:18.000Z</time></trkpt><trkpt lon="5.886458" lat="51.081619"><ele>16.8</ele><time>2022-05-08T09:10:19.000Z</time></trkpt><trkpt lon="5.886379" lat="51.081675"><ele>16.8</ele><time>2022-05-08T09:10:20.000Z</time></trkpt><trkpt lon="5.886298" lat="51.081731"><ele>17</ele><time>2022-05-08T09:10:21.000Z</time></trkpt><trkpt lon="5.886217" lat="51.081786"><ele>17</ele><time>2022-05-08T09:10:22.000Z</time></trkpt><trkpt lon="5.886137" lat="51.08184"><ele>17.2</ele><time>2022-05-08T09:10:23.000Z</time></trkpt><trkpt lon="5.886054" lat="51.081898"><ele>17.4</ele><time>2022-05-08T09:10:24.000Z</time></trkpt><trkpt lon="5.885966" lat="51.081957"><ele>17.6</ele><time>2022-05-08T09:10:25.000Z</time></trkpt><trkpt lon="5.885879" lat="51.082017"><ele>17.6</ele><time>2022-05-08T09:10:26.000Z</time></trkpt><trkpt lon="5.885792" lat="51.082081"><ele>17.6</ele><time>2022-05-08T09:10:27.000Z</time></trkpt><trkpt lon="5.885706" lat="51.082143"><ele>17.6</ele><time>2022-05-08T09:10:28.000Z</time></trkpt><trkpt lon="5.885628" lat="51.082207"><ele>17.4</ele><time>2022-05-08T09:10:29.000Z</time></trkpt><trkpt lon="5.885555" lat="51.082271"><ele>17.2</ele><time>2022-05-08T09:10:30.000Z</time></trkpt><trkpt lon="5.885484" lat="51.082333"><ele>17.2</ele><time>2022-05-08T09:10:31.000Z</time></trkpt><trkpt lon="5.885412" lat="51.082395"><ele>17.4</ele><time>2022-05-08T09:10:32.000Z</time></trkpt><trkpt lon="5.885341" lat="51.082458"><ele>17.4</ele><time>2022-05-08T09:10:33.000Z</time></trkpt><trkpt lon="5.885271" lat="51.082518"><ele>17.6</ele><time>2022-05-08T09:10:34.000Z</time></trkpt><trkpt lon="5.885195" lat="51.082578"><ele>17.6</ele><time>2022-05-08T09:10:35.000Z</time></trkpt><trkpt lon="5.885115" lat="51.082634"><ele>17.4</ele><time>2022-05-08T09:10:36.000Z</time></trkpt><trkpt lon="5.885036" lat="51.082688"><ele>17.2</ele><time>2022-05-08T09:10:37.000Z</time></trkpt><trkpt lon="5.884954" lat="51.082741"><ele>17</ele><time>2022-05-08T09:10:38.000Z</time></trkpt><trkpt lon="5.884875" lat="51.082797"><ele>17</ele><time>2022-05-08T09:10:39.000Z</time></trkpt><trkpt lon="5.884801" lat="51.082856"><ele>17</ele><time>2022-05-08T09:10:40.000Z</time></trkpt><trkpt lon="5.884729" lat="51.082922"><ele>16.8</ele><time>2022-05-08T09:10:41.000Z</time></trkpt><trkpt lon="5.884663" lat="51.082993"><ele>16.4</ele><time>2022-05-08T09:10:42.000Z</time></trkpt><trkpt lon="5.884603" lat="51.083062"><ele>16.4</ele><time>2022-05-08T09:10:43.000Z</time></trkpt><trkpt lon="5.884546" lat="51.083133"><ele>16.6</ele><time>2022-05-08T09:10:44.000Z</time></trkpt><trkpt lon="5.884495" lat="51.083206"><ele>16.6</ele><time>2022-05-08T09:10:45.000Z</time></trkpt><trkpt lon="5.884448" lat="51.083281"><ele>16.6</ele><time>2022-05-08T09:10:46.000Z</time></trkpt><trkpt lon="5.884401" lat="51.083355"><ele>16.6</ele><time>2022-05-08T09:10:47.000Z</time></trkpt><trkpt lon="5.884355" lat="51.083426"><ele>16.6</ele><time>2022-05-08T09:10:48.000Z</time></trkpt><trkpt lon="5.884309" lat="51.083499"><ele>16.4</ele><time>2022-05-08T09:10:49.000Z</time></trkpt><trkpt lon="5.884259" lat="51.083575"><ele>16.2</ele><time>2022-05-08T09:10:50.000Z</time></trkpt><trkpt lon="5.88421" lat="51.083649"><ele>16.2</ele><time>2022-05-08T09:10:51.000Z</time></trkpt><trkpt lon="5.88416" lat="51.083721"><ele>16.2</ele><time>2022-05-08T09:10:52.000Z</time></trkpt><trkpt lon="5.884107" lat="51.083792"><ele>16</ele><time>2022-05-08T09:10:53.000Z</time></trkpt><trkpt lon="5.884051" lat="51.08386"><ele>16.2</ele><time>2022-05-08T09:10:54.000Z</time></trkpt><trkpt lon="5.88399" lat="51.083927"><ele>16</ele><time>2022-05-08T09:10:55.000Z</time></trkpt><trkpt lon="5.883922" lat="51.083991"><ele>16</ele><time>2022-05-08T09:10:56.000Z</time></trkpt><trkpt lon="5.883847" lat="51.084054"><ele>16</ele><time>2022-05-08T09:10:57.000Z</time></trkpt><trkpt lon="5.883769" lat="51.084115"><ele>16</ele><time>2022-05-08T09:10:58.000Z</time></trkpt><trkpt lon="5.883691" lat="51.084179"><ele>16</ele><time>2022-05-08T09:10:59.000Z</time></trkpt><trkpt lon="5.883613" lat="51.084241"><ele>16.2</ele><time>2022-05-08T09:11:00.000Z</time></trkpt><trkpt lon="5.883535" lat="51.084304"><ele>16.2</ele><time>2022-05-08T09:11:01.000Z</time></trkpt><trkpt lon="5.883454" lat="51.084365"><ele>16.2</ele><time>2022-05-08T09:11:02.000Z</time></trkpt><trkpt lon="5.883376" lat="51.084423"><ele>16.2</ele><time>2022-05-08T09:11:03.000Z</time></trkpt><trkpt lon="5.8833" lat="51.084486"><ele>16.2</ele><time>2022-05-08T09:11:04.000Z</time></trkpt><trkpt lon="5.883229" lat="51.084552"><ele>16.2</ele><time>2022-05-08T09:11:05.000Z</time></trkpt><trkpt lon="5.883163" lat="51.084619"><ele>16</ele><time>2022-05-08T09:11:06.000Z</time></trkpt><trkpt lon="5.883103" lat="51.084688"><ele>16</ele><time>2022-05-08T09:11:07.000Z</time></trkpt><trkpt lon="5.883045" lat="51.084754"><ele>16.2</ele><time>2022-05-08T09:11:08.000Z</time></trkpt><trkpt lon="5.882988" lat="51.084821"><ele>16.2</ele><time>2022-05-08T09:11:09.000Z</time></trkpt><trkpt lon="5.882933" lat="51.08489"><ele>16.2</ele><time>2022-05-08T09:11:10.000Z</time></trkpt><trkpt lon="5.88288" lat="51.084961"><ele>16.2</ele><time>2022-05-08T09:11:11.000Z</time></trkpt><trkpt lon="5.882828" lat="51.085031"><ele>16.2</ele><time>2022-05-08T09:11:12.000Z</time></trkpt><trkpt lon="5.882778" lat="51.085095"><ele>16.2</ele><time>2022-05-08T09:11:13.000Z</time></trkpt><trkpt lon="5.882727" lat="51.085156"><ele>16.2</ele><time>2022-05-08T09:11:14.000Z</time></trkpt><trkpt lon="5.882673" lat="51.08522"><ele>16.2</ele><time>2022-05-08T09:11:15.000Z</time></trkpt><trkpt lon="5.882615" lat="51.085285"><ele>16.4</ele><time>2022-05-08T09:11:16.000Z</time></trkpt><trkpt lon="5.882555" lat="51.08535"><ele>16.6</ele><time>2022-05-08T09:11:17.000Z</time></trkpt><trkpt lon="5.882495" lat="51.085412"><ele>16.8</ele><time>2022-05-08T09:11:18.000Z</time></trkpt><trkpt lon="5.882437" lat="51.085476"><ele>16.8</ele><time>2022-05-08T09:11:19.000Z</time></trkpt><trkpt lon="5.882385" lat="51.085538"><ele>16.8</ele><time>2022-05-08T09:11:20.000Z</time></trkpt><trkpt lon="5.882334" lat="51.085598"><ele>16.8</ele><time>2022-05-08T09:11:21.000Z</time></trkpt><trkpt lon="5.88228" lat="51.085658"><ele>17</ele><time>2022-05-08T09:11:22.000Z</time></trkpt><trkpt lon="5.882221" lat="51.085713"><ele>17.2</ele><time>2022-05-08T09:11:23.000Z</time></trkpt><trkpt lon="5.88216" lat="51.08577"><ele>17.2</ele><time>2022-05-08T09:11:24.000Z</time></trkpt><trkpt lon="5.882095" lat="51.085829"><ele>17.2</ele><time>2022-05-08T09:11:25.000Z</time></trkpt><trkpt lon="5.882023" lat="51.085887"><ele>17.2</ele><time>2022-05-08T09:11:26.000Z</time></trkpt><trkpt lon="5.881947" lat="51.08594"><ele>17</ele><time>2022-05-08T09:11:27.000Z</time></trkpt><trkpt lon="5.881872" lat="51.085991"><ele>17</ele><time>2022-05-08T09:11:28.000Z</time></trkpt><trkpt lon="5.881799" lat="51.086045"><ele>17.2</ele><time>2022-05-08T09:11:29.000Z</time></trkpt><trkpt lon="5.881729" lat="51.086098"><ele>17.2</ele><time>2022-05-08T09:11:30.000Z</time></trkpt><trkpt lon="5.881662" lat="51.086152"><ele>17.2</ele><time>2022-05-08T09:11:31.000Z</time></trkpt><trkpt lon="5.881595" lat="51.086205"><ele>17.4</ele><time>2022-05-08T09:11:32.000Z</time></trkpt><trkpt lon="5.881527" lat="51.08626"><ele>17.4</ele><time>2022-05-08T09:11:33.000Z</time></trkpt><trkpt lon="5.881461" lat="51.086318"><ele>17.4</ele><time>2022-05-08T09:11:34.000Z</time></trkpt><trkpt lon="5.881396" lat="51.086375"><ele>17.4</ele><time>2022-05-08T09:11:35.000Z</time></trkpt><trkpt lon="5.881333" lat="51.086433"><ele>17.4</ele><time>2022-05-08T09:11:36.000Z</time></trkpt><trkpt lon="5.881276" lat="51.086492"><ele>17.4</ele><time>2022-05-08T09:11:37.000Z</time></trkpt><trkpt lon="5.88122" lat="51.086553"><ele>17.6</ele><time>2022-05-08T09:11:38.000Z</time></trkpt><trkpt lon="5.881161" lat="51.086612"><ele>17.8</ele><time>2022-05-08T09:11:39.000Z</time></trkpt><trkpt lon="5.8811" lat="51.086671"><ele>17.8</ele><time>2022-05-08T09:11:40.000Z</time></trkpt><trkpt lon="5.881033" lat="51.08673"><ele>17.8</ele><time>2022-05-08T09:11:41.000Z</time></trkpt><trkpt lon="5.880966" lat="51.086789"><ele>17.6</ele><time>2022-05-08T09:11:42.000Z</time></trkpt><trkpt lon="5.880897" lat="51.08685"><ele>17.8</ele><time>2022-05-08T09:11:43.000Z</time></trkpt><trkpt lon="5.880823" lat="51.086908"><ele>17.6</ele><time>2022-05-08T09:11:44.000Z</time></trkpt><trkpt lon="5.880747" lat="51.086966"><ele>17.4</ele><time>2022-05-08T09:11:45.000Z</time></trkpt><trkpt lon="5.880673" lat="51.087026"><ele>17.2</ele><time>2022-05-08T09:11:46.000Z</time></trkpt><trkpt lon="5.880606" lat="51.087087"><ele>17.2</ele><time>2022-05-08T09:11:47.000Z</time></trkpt><trkpt lon="5.880538" lat="51.087148"><ele>17.4</ele><time>2022-05-08T09:11:48.000Z</time></trkpt><trkpt lon="5.880472" lat="51.087211"><ele>17.6</ele><time>2022-05-08T09:11:49.000Z</time></trkpt><trkpt lon="5.880407" lat="51.087274"><ele>17.6</ele><time>2022-05-08T09:11:50.000Z</time></trkpt><trkpt lon="5.880342" lat="51.087337"><ele>17.6</ele><time>2022-05-08T09:11:51.000Z</time></trkpt><trkpt lon="5.880277" lat="51.087402"><ele>17.4</ele><time>2022-05-08T09:11:52.000Z</time></trkpt><trkpt lon="5.880214" lat="51.087465"><ele>17.6</ele><time>2022-05-08T09:11:53.000Z</time></trkpt><trkpt lon="5.880154" lat="51.087523"><ele>17.6</ele><time>2022-05-08T09:11:54.000Z</time></trkpt><trkpt lon="5.880093" lat="51.087578"><ele>17.6</ele><time>2022-05-08T09:11:55.000Z</time></trkpt><trkpt lon="5.880035" lat="51.087634"><ele>17.6</ele><time>2022-05-08T09:11:56.000Z</time></trkpt><trkpt lon="5.879976" lat="51.087692"><ele>17.8</ele><time>2022-05-08T09:11:57.000Z</time></trkpt><trkpt lon="5.879913" lat="51.087746"><ele>18</ele><time>2022-05-08T09:11:58.000Z</time></trkpt><trkpt lon="5.879844" lat="51.087802"><ele>18</ele><time>2022-05-08T09:11:59.000Z</time></trkpt><trkpt lon="5.879775" lat="51.087856"><ele>18</ele><time>2022-05-08T09:12:00.000Z</time></trkpt><trkpt lon="5.879704" lat="51.08791"><ele>18</ele><time>2022-05-08T09:12:01.000Z</time></trkpt><trkpt lon="5.879633" lat="51.087964"><ele>17.8</ele><time>2022-05-08T09:12:02.000Z</time></trkpt><trkpt lon="5.879564" lat="51.088013"><ele>17.6</ele><time>2022-05-08T09:12:03.000Z</time></trkpt><trkpt lon="5.8795" lat="51.088063"><ele>17.4</ele><time>2022-05-08T09:12:04.000Z</time></trkpt><trkpt lon="5.879442" lat="51.088116"><ele>17.4</ele><time>2022-05-08T09:12:05.000Z</time></trkpt><trkpt lon="5.8794" lat="51.088171"><ele>17.4</ele><time>2022-05-08T09:12:06.000Z</time></trkpt><trkpt lon="5.879369" lat="51.088226"><ele>17.6</ele><time>2022-05-08T09:12:07.000Z</time></trkpt><trkpt lon="5.87934" lat="51.08828"><ele>17.8</ele><time>2022-05-08T09:12:08.000Z</time></trkpt><trkpt lon="5.87931" lat="51.088329"><ele>18</ele><time>2022-05-08T09:12:09.000Z</time></trkpt><trkpt lon="5.879275" lat="51.088371"><ele>18</ele><time>2022-05-08T09:12:10.000Z</time></trkpt><trkpt lon="5.879235" lat="51.088409"><ele>18</ele><time>2022-05-08T09:12:11.000Z</time></trkpt><trkpt lon="5.879187" lat="51.08844"><ele>18</ele><time>2022-05-08T09:12:12.000Z</time></trkpt><trkpt lon="5.879138" lat="51.088462"><ele>18</ele><time>2022-05-08T09:12:13.000Z</time></trkpt><trkpt lon="5.879094" lat="51.088479"><ele>18</ele><time>2022-05-08T09:12:14.000Z</time></trkpt><trkpt lon="5.879058" lat="51.088494"><ele>18</ele><time>2022-05-08T09:12:15.000Z</time></trkpt><trkpt lon="5.879024" lat="51.088512"><ele>18</ele><time>2022-05-08T09:12:16.000Z</time></trkpt><trkpt lon="5.878986" lat="51.088531"><ele>18</ele><time>2022-05-08T09:12:17.000Z</time></trkpt><trkpt lon="5.878938" lat="51.088552"><ele>17.8</ele><time>2022-05-08T09:12:18.000Z</time></trkpt><trkpt lon="5.878875" lat="51.088575"><ele>17.8</ele><time>2022-05-08T09:12:19.000Z</time></trkpt><trkpt lon="5.878798" lat="51.088596"><ele>17.8</ele><time>2022-05-08T09:12:20.000Z</time></trkpt><trkpt lon="5.878709" lat="51.088619"><ele>17.8</ele><time>2022-05-08T09:12:21.000Z</time></trkpt><trkpt lon="5.878612" lat="51.088648"><ele>17.8</ele><time>2022-05-08T09:12:22.000Z</time></trkpt><trkpt lon="5.878514" lat="51.088685"><ele>17.8</ele><time>2022-05-08T09:12:23.000Z</time></trkpt><trkpt lon="5.878423" lat="51.088727"><ele>17.6</ele><time>2022-05-08T09:12:24.000Z</time></trkpt><trkpt lon="5.878336" lat="51.088774"><ele>17.4</ele><time>2022-05-08T09:12:25.000Z</time></trkpt><trkpt lon="5.878256" lat="51.088828"><ele>17.2</ele><time>2022-05-08T09:12:26.000Z</time></trkpt><trkpt lon="5.878182" lat="51.08889"><ele>17.2</ele><time>2022-05-08T09:12:27.000Z</time></trkpt><trkpt lon="5.878112" lat="51.088952"><ele>17</ele><time>2022-05-08T09:12:28.000Z</time></trkpt><trkpt lon="5.878046" lat="51.089013"><ele>16.8</ele><time>2022-05-08T09:12:29.000Z</time></trkpt><trkpt lon="5.877984" lat="51.089075"><ele>16.6</ele><time>2022-05-08T09:12:30.000Z</time></trkpt><trkpt lon="5.877921" lat="51.089138"><ele>16.4</ele><time>2022-05-08T09:12:31.000Z</time></trkpt><trkpt lon="5.87786" lat="51.089202"><ele>16</ele><time>2022-05-08T09:12:32.000Z</time></trkpt><trkpt lon="5.8778" lat="51.089267"><ele>15.8</ele><time>2022-05-08T09:12:33.000Z</time></trkpt><trkpt lon="5.87774" lat="51.089332"><ele>15.8</ele><time>2022-05-08T09:12:34.000Z</time></trkpt><trkpt lon="5.877677" lat="51.089395"><ele>15.6</ele><time>2022-05-08T09:12:35.000Z</time></trkpt><trkpt lon="5.877612" lat="51.089458"><ele>15.2</ele><time>2022-05-08T09:12:36.000Z</time></trkpt><trkpt lon="5.877546" lat="51.089525"><ele>15</ele><time>2022-05-08T09:12:37.000Z</time></trkpt><trkpt lon="5.877481" lat="51.089594"><ele>14.6</ele><time>2022-05-08T09:12:38.000Z</time></trkpt><trkpt lon="5.877415" lat="51.089664"><ele>14.4</ele><time>2022-05-08T09:12:39.000Z</time></trkpt><trkpt lon="5.87735" lat="51.089732"><ele>14.2</ele><time>2022-05-08T09:12:40.000Z</time></trkpt><trkpt lon="5.877287" lat="51.0898"><ele>14</ele><time>2022-05-08T09:12:41.000Z</time></trkpt><trkpt lon="5.877223" lat="51.089866"><ele>13.8</ele><time>2022-05-08T09:12:42.000Z</time></trkpt><trkpt lon="5.877162" lat="51.089929"><ele>13.4</ele><time>2022-05-08T09:12:43.000Z</time></trkpt><trkpt lon="5.877099" lat="51.08999"><ele>13.2</ele><time>2022-05-08T09:12:44.000Z</time></trkpt><trkpt lon="5.877035" lat="51.090051"><ele>13</ele><time>2022-05-08T09:12:45.000Z</time></trkpt><trkpt lon="5.87697" lat="51.090115"><ele>13</ele><time>2022-05-08T09:12:46.000Z</time></trkpt><trkpt lon="5.876907" lat="51.09018"><ele>12.8</ele><time>2022-05-08T09:12:47.000Z</time></trkpt><trkpt lon="5.876847" lat="51.090241"><ele>12.6</ele><time>2022-05-08T09:12:48.000Z</time></trkpt><trkpt lon="5.876784" lat="51.090304"><ele>12.6</ele><time>2022-05-08T09:12:49.000Z</time></trkpt><trkpt lon="5.876716" lat="51.09037"><ele>12.6</ele><time>2022-05-08T09:12:50.000Z</time></trkpt><trkpt lon="5.876652" lat="51.090432"><ele>12.4</ele><time>2022-05-08T09:12:51.000Z</time></trkpt><trkpt lon="5.876588" lat="51.090495"><ele>12.2</ele><time>2022-05-08T09:12:52.000Z</time></trkpt><trkpt lon="5.876522" lat="51.090556"><ele>12.2</ele><time>2022-05-08T09:12:53.000Z</time></trkpt><trkpt lon="5.876457" lat="51.090618"><ele>12.4</ele><time>2022-05-08T09:12:54.000Z</time></trkpt><trkpt lon="5.876392" lat="51.09068"><ele>12.4</ele><time>2022-05-08T09:12:55.000Z</time></trkpt><trkpt lon="5.876327" lat="51.090741"><ele>12.4</ele><time>2022-05-08T09:12:56.000Z</time></trkpt><trkpt lon="5.876262" lat="51.090805"><ele>12.2</ele><time>2022-05-08T09:12:57.000Z</time></trkpt><trkpt lon="5.876196" lat="51.090865"><ele>12.2</ele><time>2022-05-08T09:12:58.000Z</time></trkpt><trkpt lon="5.876131" lat="51.090922"><ele>12.2</ele><time>2022-05-08T09:12:59.000Z</time></trkpt><trkpt lon="5.876066" lat="51.09098"><ele>12.2</ele><time>2022-05-08T09:13:00.000Z</time></trkpt><trkpt lon="5.876002" lat="51.091036"><ele>12.4</ele><time>2022-05-08T09:13:01.000Z</time></trkpt><trkpt lon="5.875945" lat="51.091092"><ele>12.6</ele><time>2022-05-08T09:13:02.000Z</time></trkpt><trkpt lon="5.875888" lat="51.091155"><ele>12.8</ele><time>2022-05-08T09:13:03.000Z</time></trkpt><trkpt lon="5.875841" lat="51.091227"><ele>12.8</ele><time>2022-05-08T09:13:04.000Z</time></trkpt><trkpt lon="5.875808" lat="51.091293"><ele>12.8</ele><time>2022-05-08T09:13:05.000Z</time></trkpt><trkpt lon="5.87578" lat="51.091362"><ele>12.8</ele><time>2022-05-08T09:13:06.000Z</time></trkpt><trkpt lon="5.875758" lat="51.09143"><ele>13</ele><time>2022-05-08T09:13:07.000Z</time></trkpt><trkpt lon="5.875743" lat="51.091497"><ele>13</ele><time>2022-05-08T09:13:08.000Z</time></trkpt><trkpt lon="5.875736" lat="51.091568"><ele>13.2</ele><time>2022-05-08T09:13:09.000Z</time></trkpt><trkpt lon="5.875736" lat="51.091639"><ele>13.4</ele><time>2022-05-08T09:13:10.000Z</time></trkpt><trkpt lon="5.875739" lat="51.091709"><ele>13.6</ele><time>2022-05-08T09:13:11.000Z</time></trkpt><trkpt lon="5.875747" lat="51.091782"><ele>14</ele><time>2022-05-08T09:13:12.000Z</time></trkpt><trkpt lon="5.875757" lat="51.091854"><ele>14.2</ele><time>2022-05-08T09:13:13.000Z</time></trkpt><trkpt lon="5.875765" lat="51.091926"><ele>14.2</ele><time>2022-05-08T09:13:14.000Z</time></trkpt><trkpt lon="5.875765" lat="51.091997"><ele>14</ele><time>2022-05-08T09:13:15.000Z</time></trkpt><trkpt lon="5.875753" lat="51.092065"><ele>13.8</ele><time>2022-05-08T09:13:16.000Z</time></trkpt><trkpt lon="5.875724" lat="51.092132"><ele>13.8</ele><time>2022-05-08T09:13:17.000Z</time></trkpt><trkpt lon="5.875674" lat="51.092193"><ele>13.8</ele><time>2022-05-08T09:13:18.000Z</time></trkpt><trkpt lon="5.875613" lat="51.092244"><ele>13.8</ele><time>2022-05-08T09:13:19.000Z</time></trkpt><trkpt lon="5.87554" lat="51.092296"><ele>13.8</ele><time>2022-05-08T09:13:20.000Z</time></trkpt><trkpt lon="5.875463" lat="51.092352"><ele>14</ele><time>2022-05-08T09:13:21.000Z</time></trkpt><trkpt lon="5.87539" lat="51.09241"><ele>14</ele><time>2022-05-08T09:13:22.000Z</time></trkpt><trkpt lon="5.875321" lat="51.092469"><ele>14</ele><time>2022-05-08T09:13:23.000Z</time></trkpt><trkpt lon="5.87526" lat="51.092533"><ele>14</ele><time>2022-05-08T09:13:24.000Z</time></trkpt><trkpt lon="5.875208" lat="51.092596"><ele>13.8</ele><time>2022-05-08T09:13:25.000Z</time></trkpt><trkpt lon="5.875163" lat="51.092658"><ele>13.6</ele><time>2022-05-08T09:13:26.000Z</time></trkpt><trkpt lon="5.87512" lat="51.092721"><ele>13.4</ele><time>2022-05-08T09:13:27.000Z</time></trkpt><trkpt lon="5.875076" lat="51.092785"><ele>13.6</ele><time>2022-05-08T09:13:28.000Z</time></trkpt><trkpt lon="5.875022" lat="51.092871"><ele>13.8</ele><time>2022-05-08T09:13:29.000Z</time></trkpt><trkpt lon="5.874969" lat="51.092949"><ele>14</ele><time>2022-05-08T09:13:30.000Z</time></trkpt><trkpt lon="5.874923" lat="51.093008"><ele>14.2</ele><time>2022-05-08T09:13:31.000Z</time></trkpt><trkpt lon="5.874876" lat="51.09307"><ele>14.2</ele><time>2022-05-08T09:13:32.000Z</time></trkpt><trkpt lon="5.874832" lat="51.093133"><ele>14.4</ele><time>2022-05-08T09:13:33.000Z</time></trkpt><trkpt lon="5.874791" lat="51.093194"><ele>14.4</ele><time>2022-05-08T09:13:34.000Z</time></trkpt><trkpt lon="5.874748" lat="51.093257"><ele>14.4</ele><time>2022-05-08T09:13:35.000Z</time></trkpt><trkpt lon="5.874703" lat="51.093318"><ele>14.4</ele><time>2022-05-08T09:13:36.000Z</time></trkpt><trkpt lon="5.874659" lat="51.093377"><ele>14.6</ele><time>2022-05-08T09:13:37.000Z</time></trkpt><trkpt lon="5.874615" lat="51.093439"><ele>14.6</ele><time>2022-05-08T09:13:38.000Z</time></trkpt><trkpt lon="5.874571" lat="51.0935"><ele>14.6</ele><time>2022-05-08T09:13:39.000Z</time></trkpt><trkpt lon="5.874529" lat="51.093563"><ele>14.6</ele><time>2022-05-08T09:13:40.000Z</time></trkpt><trkpt lon="5.874484" lat="51.093625"><ele>14.6</ele><time>2022-05-08T09:13:41.000Z</time></trkpt><trkpt lon="5.874436" lat="51.093689"><ele>14.4</ele><time>2022-05-08T09:13:42.000Z</time></trkpt><trkpt lon="5.874388" lat="51.093751"><ele>14.6</ele><time>2022-05-08T09:13:43.000Z</time></trkpt><trkpt lon="5.874341" lat="51.093816"><ele>14.6</ele><time>2022-05-08T09:13:44.000Z</time></trkpt><trkpt lon="5.874295" lat="51.093883"><ele>14.6</ele><time>2022-05-08T09:13:45.000Z</time></trkpt><trkpt lon="5.874251" lat="51.093945"><ele>14.4</ele><time>2022-05-08T09:13:46.000Z</time></trkpt><trkpt lon="5.874211" lat="51.094004"><ele>14.4</ele><time>2022-05-08T09:13:47.000Z</time></trkpt><trkpt lon="5.874174" lat="51.094059"><ele>14.4</ele><time>2022-05-08T09:13:48.000Z</time></trkpt><trkpt lon="5.874143" lat="51.094119"><ele>14.4</ele><time>2022-05-08T09:13:49.000Z</time></trkpt><trkpt lon="5.874124" lat="51.094181"><ele>14.2</ele><time>2022-05-08T09:13:50.000Z</time></trkpt><trkpt lon="5.874112" lat="51.094248"><ele>14</ele><time>2022-05-08T09:13:51.000Z</time></trkpt><trkpt lon="5.874104" lat="51.09432"><ele>14</ele><time>2022-05-08T09:13:52.000Z</time></trkpt><trkpt lon="5.874098" lat="51.094389"><ele>14</ele><time>2022-05-08T09:13:53.000Z</time></trkpt><trkpt lon="5.874093" lat="51.094458"><ele>14.2</ele><time>2022-05-08T09:13:54.000Z</time></trkpt><trkpt lon="5.874088" lat="51.094527"><ele>14.2</ele><time>2022-05-08T09:13:55.000Z</time></trkpt><trkpt lon="5.874082" lat="51.094597"><ele>14.4</ele><time>2022-05-08T09:13:56.000Z</time></trkpt><trkpt lon="5.874077" lat="51.094667"><ele>14.4</ele><time>2022-05-08T09:13:57.000Z</time></trkpt><trkpt lon="5.874072" lat="51.094736"><ele>14.6</ele><time>2022-05-08T09:13:58.000Z</time></trkpt><trkpt lon="5.874068" lat="51.094804"><ele>14.6</ele><time>2022-05-08T09:13:59.000Z</time></trkpt><trkpt lon="5.874064" lat="51.094871"><ele>14.6</ele><time>2022-05-08T09:14:00.000Z</time></trkpt><trkpt lon="5.874058" lat="51.094938"><ele>14.8</ele><time>2022-05-08T09:14:01.000Z</time></trkpt><trkpt lon="5.874051" lat="51.095007"><ele>14.8</ele><time>2022-05-08T09:14:02.000Z</time></trkpt><trkpt lon="5.874045" lat="51.095075"><ele>14.8</ele><time>2022-05-08T09:14:03.000Z</time></trkpt><trkpt lon="5.874042" lat="51.095143"><ele>15</ele><time>2022-05-08T09:14:04.000Z</time></trkpt><trkpt lon="5.87404" lat="51.095212"><ele>15</ele><time>2022-05-08T09:14:05.000Z</time></trkpt><trkpt lon="5.874037" lat="51.095281"><ele>15</ele><time>2022-05-08T09:14:06.000Z</time></trkpt><trkpt lon="5.874032" lat="51.095348"><ele>15</ele><time>2022-05-08T09:14:07.000Z</time></trkpt><trkpt lon="5.874026" lat="51.09541"><ele>15</ele><time>2022-05-08T09:14:08.000Z</time></trkpt><trkpt lon="5.874022" lat="51.09547"><ele>15.2</ele><time>2022-05-08T09:14:09.000Z</time></trkpt><trkpt lon="5.874017" lat="51.095531"><ele>15.2</ele><time>2022-05-08T09:14:10.000Z</time></trkpt><trkpt lon="5.87401" lat="51.095589"><ele>15.2</ele><time>2022-05-08T09:14:11.000Z</time></trkpt><trkpt lon="5.874003" lat="51.095645"><ele>15.4</ele><time>2022-05-08T09:14:12.000Z</time></trkpt><trkpt lon="5.873998" lat="51.095698"><ele>15.6</ele><time>2022-05-08T09:14:13.000Z</time></trkpt><trkpt lon="5.873993" lat="51.095747"><ele>15.6</ele><time>2022-05-08T09:14:14.000Z</time></trkpt><trkpt lon="5.873984" lat="51.095793"><ele>15.6</ele><time>2022-05-08T09:14:15.000Z</time></trkpt><trkpt lon="5.873967" lat="51.095823"><ele>15.8</ele><time>2022-05-08T09:14:16.000Z</time></trkpt><trkpt lon="5.87393" lat="51.095844"><ele>16</ele><time>2022-05-08T09:14:17.000Z</time></trkpt><trkpt lon="5.87387" lat="51.095859"><ele>16</ele><time>2022-05-08T09:14:18.000Z</time></trkpt><trkpt lon="5.873796" lat="51.095861"><ele>16.2</ele><time>2022-05-08T09:14:19.000Z</time></trkpt><trkpt lon="5.873712" lat="51.095857"><ele>16.4</ele><time>2022-05-08T09:14:20.000Z</time></trkpt><trkpt lon="5.873621" lat="51.095851"><ele>16.2</ele><time>2022-05-08T09:14:21.000Z</time></trkpt><trkpt lon="5.873525" lat="51.095846"><ele>16.2</ele><time>2022-05-08T09:14:22.000Z</time></trkpt><trkpt lon="5.873426" lat="51.09584"><ele>16.2</ele><time>2022-05-08T09:14:23.000Z</time></trkpt><trkpt lon="5.873325" lat="51.095837"><ele>16</ele><time>2022-05-08T09:14:24.000Z</time></trkpt><trkpt lon="5.873221" lat="51.095837"><ele>15.6</ele><time>2022-05-08T09:14:25.000Z</time></trkpt><trkpt lon="5.873115" lat="51.095843"><ele>15.4</ele><time>2022-05-08T09:14:26.000Z</time></trkpt><trkpt lon="5.873009" lat="51.095857"><ele>15</ele><time>2022-05-08T09:14:27.000Z</time></trkpt><trkpt lon="5.872901" lat="51.095872"><ele>14.8</ele><time>2022-05-08T09:14:28.000Z</time></trkpt><trkpt lon="5.872795" lat="51.095892"><ele>14.6</ele><time>2022-05-08T09:14:29.000Z</time></trkpt><trkpt lon="5.872693" lat="51.095917"><ele>14.4</ele><time>2022-05-08T09:14:30.000Z</time></trkpt><trkpt lon="5.872591" lat="51.09595"><ele>14.2</ele><time>2022-05-08T09:14:31.000Z</time></trkpt><trkpt lon="5.872489" lat="51.095989"><ele>14.2</ele><time>2022-05-08T09:14:32.000Z</time></trkpt><trkpt lon="5.872391" lat="51.096029"><ele>14.4</ele><time>2022-05-08T09:14:33.000Z</time></trkpt><trkpt lon="5.872297" lat="51.096073"><ele>14.6</ele><time>2022-05-08T09:14:34.000Z</time></trkpt><trkpt lon="5.872207" lat="51.096119"><ele>14.8</ele><time>2022-05-08T09:14:35.000Z</time></trkpt><trkpt lon="5.872124" lat="51.096162"><ele>14.8</ele><time>2022-05-08T09:14:36.000Z</time></trkpt><trkpt lon="5.872046" lat="51.096208"><ele>14.6</ele><time>2022-05-08T09:14:37.000Z</time></trkpt><trkpt lon="5.871971" lat="51.096254"><ele>14.6</ele><time>2022-05-08T09:14:38.000Z</time></trkpt><trkpt lon="5.8719" lat="51.0963"><ele>14.6</ele><time>2022-05-08T09:14:39.000Z</time></trkpt><trkpt lon="5.871832" lat="51.09635"><ele>14.8</ele><time>2022-05-08T09:14:40.000Z</time></trkpt><trkpt lon="5.871764" lat="51.096402"><ele>14.6</ele><time>2022-05-08T09:14:41.000Z</time></trkpt><trkpt lon="5.871697" lat="51.096453"><ele>14.8</ele><time>2022-05-08T09:14:42.000Z</time></trkpt><trkpt lon="5.871627" lat="51.096505"><ele>14.4</ele><time>2022-05-08T09:14:43.000Z</time></trkpt><trkpt lon="5.871557" lat="51.096561"><ele>14.4</ele><time>2022-05-08T09:14:44.000Z</time></trkpt><trkpt lon="5.871486" lat="51.096618"><ele>14.6</ele><time>2022-05-08T09:14:45.000Z</time></trkpt><trkpt lon="5.871414" lat="51.096673"><ele>14.4</ele><time>2022-05-08T09:14:46.000Z</time></trkpt><trkpt lon="5.87134" lat="51.096728"><ele>14.2</ele><time>2022-05-08T09:14:47.000Z</time></trkpt><trkpt lon="5.871272" lat="51.096782"><ele>13.8</ele><time>2022-05-08T09:14:48.000Z</time></trkpt><trkpt lon="5.871203" lat="51.096838"><ele>13.6</ele><time>2022-05-08T09:14:49.000Z</time></trkpt><trkpt lon="5.871131" lat="51.096896"><ele>13.2</ele><time>2022-05-08T09:14:50.000Z</time></trkpt><trkpt lon="5.871061" lat="51.096956"><ele>13</ele><time>2022-05-08T09:14:51.000Z</time></trkpt><trkpt lon="5.870993" lat="51.097015"><ele>13</ele><time>2022-05-08T09:14:52.000Z</time></trkpt><trkpt lon="5.870924" lat="51.097069"><ele>13</ele><time>2022-05-08T09:14:53.000Z</time></trkpt><trkpt lon="5.870855" lat="51.097125"><ele>13</ele><time>2022-05-08T09:14:54.000Z</time></trkpt><trkpt lon="5.870788" lat="51.09718"><ele>13</ele><time>2022-05-08T09:14:55.000Z</time></trkpt><trkpt lon="5.870723" lat="51.097229"><ele>13.2</ele><time>2022-05-08T09:14:56.000Z</time></trkpt><trkpt lon="5.870659" lat="51.097272"><ele>13.2</ele><time>2022-05-08T09:14:57.000Z</time></trkpt><trkpt lon="5.870596" lat="51.097314"><ele>13.4</ele><time>2022-05-08T09:14:58.000Z</time></trkpt><trkpt lon="5.870537" lat="51.097354"><ele>13.6</ele><time>2022-05-08T09:14:59.000Z</time></trkpt><trkpt lon="5.870479" lat="51.097397"><ele>13.6</ele><time>2022-05-08T09:15:00.000Z</time></trkpt><trkpt lon="5.870421" lat="51.097439"><ele>13.6</ele><time>2022-05-08T09:15:01.000Z</time></trkpt><trkpt lon="5.870361" lat="51.097482"><ele>13.6</ele><time>2022-05-08T09:15:02.000Z</time></trkpt><trkpt lon="5.870303" lat="51.097524"><ele>13.8</ele><time>2022-05-08T09:15:03.000Z</time></trkpt><trkpt lon="5.870246" lat="51.097566"><ele>13.8</ele><time>2022-05-08T09:15:04.000Z</time></trkpt><trkpt lon="5.870189" lat="51.097606"><ele>14</ele><time>2022-05-08T09:15:05.000Z</time></trkpt><trkpt lon="5.870136" lat="51.097644"><ele>14</ele><time>2022-05-08T09:15:06.000Z</time></trkpt><trkpt lon="5.870083" lat="51.097687"><ele>14.2</ele><time>2022-05-08T09:15:07.000Z</time></trkpt><trkpt lon="5.870032" lat="51.097728"><ele>14.2</ele><time>2022-05-08T09:15:08.000Z</time></trkpt><trkpt lon="5.86998" lat="51.097766"><ele>14.4</ele><time>2022-05-08T09:15:09.000Z</time></trkpt><trkpt lon="5.869927" lat="51.097807"><ele>14.4</ele><time>2022-05-08T09:15:10.000Z</time></trkpt><trkpt lon="5.869874" lat="51.097849"><ele>14.4</ele><time>2022-05-08T09:15:11.000Z</time></trkpt><trkpt lon="5.86982" lat="51.09789"><ele>14.6</ele><time>2022-05-08T09:15:12.000Z</time></trkpt><trkpt lon="5.869768" lat="51.097928"><ele>14.6</ele><time>2022-05-08T09:15:13.000Z</time></trkpt><trkpt lon="5.869715" lat="51.097969"><ele>14.6</ele><time>2022-05-08T09:15:14.000Z</time></trkpt><trkpt lon="5.869656" lat="51.098015"><ele>14.4</ele><time>2022-05-08T09:15:15.000Z</time></trkpt><trkpt lon="5.869593" lat="51.098063"><ele>14.4</ele><time>2022-05-08T09:15:16.000Z</time></trkpt><trkpt lon="5.869531" lat="51.09811"><ele>14.4</ele><time>2022-05-08T09:15:17.000Z</time></trkpt><trkpt lon="5.86947" lat="51.098154"><ele>14.4</ele><time>2022-05-08T09:15:18.000Z</time></trkpt><trkpt lon="5.86941" lat="51.098196"><ele>14.4</ele><time>2022-05-08T09:15:19.000Z</time></trkpt><trkpt lon="5.869349" lat="51.098238"><ele>14.4</ele><time>2022-05-08T09:15:20.000Z</time></trkpt><trkpt lon="5.869288" lat="51.098284"><ele>14.4</ele><time>2022-05-08T09:15:21.000Z</time></trkpt><trkpt lon="5.869228" lat="51.098329"><ele>14.4</ele><time>2022-05-08T09:15:22.000Z</time></trkpt><trkpt lon="5.869165" lat="51.098376"><ele>14.4</ele><time>2022-05-08T09:15:23.000Z</time></trkpt><trkpt lon="5.869099" lat="51.098422"><ele>14.6</ele><time>2022-05-08T09:15:24.000Z</time></trkpt><trkpt lon="5.869029" lat="51.098466"><ele>14.6</ele><time>2022-05-08T09:15:25.000Z</time></trkpt><trkpt lon="5.868958" lat="51.098507"><ele>14.6</ele><time>2022-05-08T09:15:26.000Z</time></trkpt><trkpt lon="5.868887" lat="51.09855"><ele>14.4</ele><time>2022-05-08T09:15:27.000Z</time></trkpt><trkpt lon="5.868814" lat="51.098592"><ele>14.6</ele><time>2022-05-08T09:15:28.000Z</time></trkpt><trkpt lon="5.86874" lat="51.098634"><ele>14.6</ele><time>2022-05-08T09:15:29.000Z</time></trkpt><trkpt lon="5.868663" lat="51.098678"><ele>14.6</ele><time>2022-05-08T09:15:30.000Z</time></trkpt><trkpt lon="5.868583" lat="51.098724"><ele>14.6</ele><time>2022-05-08T09:15:31.000Z</time></trkpt><trkpt lon="5.868503" lat="51.09877"><ele>14.6</ele><time>2022-05-08T09:15:32.000Z</time></trkpt><trkpt lon="5.868424" lat="51.098816"><ele>14.4</ele><time>2022-05-08T09:15:33.000Z</time></trkpt><trkpt lon="5.868342" lat="51.098857"><ele>14.4</ele><time>2022-05-08T09:15:34.000Z</time></trkpt><trkpt lon="5.86826" lat="51.098898"><ele>14.2</ele><time>2022-05-08T09:15:35.000Z</time></trkpt><trkpt lon="5.868177" lat="51.098933"><ele>14.2</ele><time>2022-05-08T09:15:36.000Z</time></trkpt><trkpt lon="5.868089" lat="51.098963"><ele>14</ele><time>2022-05-08T09:15:37.000Z</time></trkpt><trkpt lon="5.867997" lat="51.098994"><ele>14</ele><time>2022-05-08T09:15:38.000Z</time></trkpt><trkpt lon="5.867903" lat="51.099022"><ele>14</ele><time>2022-05-08T09:15:39.000Z</time></trkpt><trkpt lon="5.867805" lat="51.099046"><ele>14</ele><time>2022-05-08T09:15:40.000Z</time></trkpt><trkpt lon="5.867707" lat="51.09907"><ele>13.8</ele><time>2022-05-08T09:15:41.000Z</time></trkpt><trkpt lon="5.867614" lat="51.09909"><ele>13.8</ele><time>2022-05-08T09:15:42.000Z</time></trkpt><trkpt lon="5.867523" lat="51.099107"><ele>13.8</ele><time>2022-05-08T09:15:43.000Z</time></trkpt><trkpt lon="5.867439" lat="51.09912"><ele>13.8</ele><time>2022-05-08T09:15:44.000Z</time></trkpt><trkpt lon="5.867362" lat="51.099129"><ele>13.8</ele><time>2022-05-08T09:15:45.000Z</time></trkpt><trkpt lon="5.86728" lat="51.099137"><ele>13.8</ele><time>2022-05-08T09:15:46.000Z</time></trkpt><trkpt lon="5.8672" lat="51.09914"><ele>13.8</ele><time>2022-05-08T09:15:47.000Z</time></trkpt><trkpt lon="5.867115" lat="51.099142"><ele>13.8</ele><time>2022-05-08T09:15:48.000Z</time></trkpt><trkpt lon="5.867029" lat="51.099144"><ele>13.8</ele><time>2022-05-08T09:15:49.000Z</time></trkpt><trkpt lon="5.866952" lat="51.099148"><ele>13.8</ele><time>2022-05-08T09:15:50.000Z</time></trkpt><trkpt lon="5.866878" lat="51.099152"><ele>13.8</ele><time>2022-05-08T09:15:51.000Z</time></trkpt><trkpt lon="5.86681" lat="51.099154"><ele>13.8</ele><time>2022-05-08T09:15:52.000Z</time></trkpt><trkpt lon="5.866737" lat="51.09916"><ele>14</ele><time>2022-05-08T09:15:53.000Z</time></trkpt><trkpt lon="5.866658" lat="51.099165"><ele>14</ele><time>2022-05-08T09:15:54.000Z</time></trkpt><trkpt lon="5.86658" lat="51.099169"><ele>14</ele><time>2022-05-08T09:15:55.000Z</time></trkpt><trkpt lon="5.866504" lat="51.099173"><ele>14.2</ele><time>2022-05-08T09:15:56.000Z</time></trkpt><trkpt lon="5.866428" lat="51.099177"><ele>14.2</ele><time>2022-05-08T09:15:57.000Z</time></trkpt><trkpt lon="5.866354" lat="51.099183"><ele>14.2</ele><time>2022-05-08T09:15:58.000Z</time></trkpt><trkpt lon="5.866279" lat="51.099188"><ele>14.4</ele><time>2022-05-08T09:15:59.000Z</time></trkpt><trkpt lon="5.866199" lat="51.099192"><ele>14.4</ele><time>2022-05-08T09:16:00.000Z</time></trkpt><trkpt lon="5.866119" lat="51.099196"><ele>14.4</ele><time>2022-05-08T09:16:01.000Z</time></trkpt><trkpt lon="5.866036" lat="51.0992"><ele>14.4</ele><time>2022-05-08T09:16:02.000Z</time></trkpt><trkpt lon="5.865948" lat="51.099201"><ele>14.6</ele><time>2022-05-08T09:16:03.000Z</time></trkpt><trkpt lon="5.865862" lat="51.099199"><ele>14.4</ele><time>2022-05-08T09:16:04.000Z</time></trkpt><trkpt lon="5.865772" lat="51.099195"><ele>14.4</ele><time>2022-05-08T09:16:05.000Z</time></trkpt><trkpt lon="5.865678" lat="51.099196"><ele>14.4</ele><time>2022-05-08T09:16:06.000Z</time></trkpt><trkpt lon="5.865587" lat="51.099195"><ele>14.4</ele><time>2022-05-08T09:16:07.000Z</time></trkpt><trkpt lon="5.865497" lat="51.099194"><ele>14.4</ele><time>2022-05-08T09:16:08.000Z</time></trkpt><trkpt lon="5.865406" lat="51.099196"><ele>14.4</ele><time>2022-05-08T09:16:09.000Z</time></trkpt><trkpt lon="5.865316" lat="51.0992"><ele>14.4</ele><time>2022-05-08T09:16:10.000Z</time></trkpt><trkpt lon="5.865232" lat="51.099201"><ele>14.4</ele><time>2022-05-08T09:16:11.000Z</time></trkpt><trkpt lon="5.865152" lat="51.099203"><ele>14.4</ele><time>2022-05-08T09:16:12.000Z</time></trkpt><trkpt lon="5.865075" lat="51.099207"><ele>14.4</ele><time>2022-05-08T09:16:13.000Z</time></trkpt><trkpt lon="5.865001" lat="51.099213"><ele>14.4</ele><time>2022-05-08T09:16:14.000Z</time></trkpt><trkpt lon="5.864924" lat="51.099221"><ele>14.4</ele><time>2022-05-08T09:16:15.000Z</time></trkpt><trkpt lon="5.864843" lat="51.099231"><ele>14.4</ele><time>2022-05-08T09:16:16.000Z</time></trkpt><trkpt lon="5.864772" lat="51.099244"><ele>14.4</ele><time>2022-05-08T09:16:17.000Z</time></trkpt><trkpt lon="5.864721" lat="51.099264"><ele>14.4</ele><time>2022-05-08T09:16:18.000Z</time></trkpt><trkpt lon="5.864694" lat="51.099291"><ele>14.6</ele><time>2022-05-08T09:16:19.000Z</time></trkpt><trkpt lon="5.864682" lat="51.099324"><ele>14.6</ele><time>2022-05-08T09:16:20.000Z</time></trkpt><trkpt lon="5.864674" lat="51.099359"><ele>14.6</ele><time>2022-05-08T09:16:21.000Z</time></trkpt><trkpt lon="5.864656" lat="51.099396"><ele>14.4</ele><time>2022-05-08T09:16:22.000Z</time></trkpt><trkpt lon="5.864618" lat="51.099431"><ele>14.2</ele><time>2022-05-08T09:16:23.000Z</time></trkpt><trkpt lon="5.86456" lat="51.09946"><ele>14</ele><time>2022-05-08T09:16:24.000Z</time></trkpt><trkpt lon="5.864477" lat="51.099481"><ele>13.8</ele><time>2022-05-08T09:16:25.000Z</time></trkpt><trkpt lon="5.864374" lat="51.09949"><ele>13.8</ele><time>2022-05-08T09:16:26.000Z</time></trkpt><trkpt lon="5.864267" lat="51.099487"><ele>13.6</ele><time>2022-05-08T09:16:27.000Z</time></trkpt><trkpt lon="5.86416" lat="51.099479"><ele>13.6</ele><time>2022-05-08T09:16:28.000Z</time></trkpt><trkpt lon="5.864048" lat="51.099467"><ele>13.4</ele><time>2022-05-08T09:16:29.000Z</time></trkpt><trkpt lon="5.863937" lat="51.099447"><ele>13.2</ele><time>2022-05-08T09:16:30.000Z</time></trkpt><trkpt lon="5.863832" lat="51.099424"><ele>13.2</ele><time>2022-05-08T09:16:31.000Z</time></trkpt><trkpt lon="5.863726" lat="51.099399"><ele>13.2</ele><time>2022-05-08T09:16:32.000Z</time></trkpt><trkpt lon="5.863613" lat="51.099375"><ele>13.2</ele><time>2022-05-08T09:16:33.000Z</time></trkpt><trkpt lon="5.863499" lat="51.099345"><ele>13.2</ele><time>2022-05-08T09:16:34.000Z</time></trkpt><trkpt lon="5.863388" lat="51.099311"><ele>13.2</ele><time>2022-05-08T09:16:35.000Z</time></trkpt><trkpt lon="5.863277" lat="51.099279"><ele>13.2</ele><time>2022-05-08T09:16:36.000Z</time></trkpt><trkpt lon="5.863162" lat="51.099246"><ele>13.2</ele><time>2022-05-08T09:16:37.000Z</time></trkpt><trkpt lon="5.863047" lat="51.099212"><ele>13.2</ele><time>2022-05-08T09:16:38.000Z</time></trkpt><trkpt lon="5.862932" lat="51.099177"><ele>13.2</ele><time>2022-05-08T09:16:39.000Z</time></trkpt><trkpt lon="5.862816" lat="51.099143"><ele>13.4</ele><time>2022-05-08T09:16:40.000Z</time></trkpt><trkpt lon="5.862706" lat="51.099111"><ele>13.6</ele><time>2022-05-08T09:16:41.000Z</time></trkpt><trkpt lon="5.862604" lat="51.09908"><ele>13.8</ele><time>2022-05-08T09:16:42.000Z</time></trkpt><trkpt lon="5.862504" lat="51.09905"><ele>13.8</ele><time>2022-05-08T09:16:43.000Z</time></trkpt><trkpt lon="5.862401" lat="51.09902"><ele>13.8</ele><time>2022-05-08T09:16:44.000Z</time></trkpt><trkpt lon="5.862299" lat="51.098987"><ele>13.8</ele><time>2022-05-08T09:16:45.000Z</time></trkpt><trkpt lon="5.862197" lat="51.098955"><ele>13.8</ele><time>2022-05-08T09:16:46.000Z</time></trkpt><trkpt lon="5.862096" lat="51.098922"><ele>14</ele><time>2022-05-08T09:16:47.000Z</time></trkpt><trkpt lon="5.862002" lat="51.098891"><ele>14</ele><time>2022-05-08T09:16:48.000Z</time></trkpt><trkpt lon="5.861899" lat="51.098861"><ele>14.2</ele><time>2022-05-08T09:16:49.000Z</time></trkpt><trkpt lon="5.861791" lat="51.098826"><ele>14.2</ele><time>2022-05-08T09:16:50.000Z</time></trkpt><trkpt lon="5.861686" lat="51.098792"><ele>14</ele><time>2022-05-08T09:16:51.000Z</time></trkpt><trkpt lon="5.861585" lat="51.09876"><ele>14</ele><time>2022-05-08T09:16:52.000Z</time></trkpt><trkpt lon="5.861485" lat="51.098728"><ele>14</ele><time>2022-05-08T09:16:53.000Z</time></trkpt><trkpt lon="5.86138" lat="51.098693"><ele>14.2</ele><time>2022-05-08T09:16:54.000Z</time></trkpt><trkpt lon="5.861273" lat="51.098661"><ele>14.2</ele><time>2022-05-08T09:16:55.000Z</time></trkpt><trkpt lon="5.861167" lat="51.098626"><ele>14.2</ele><time>2022-05-08T09:16:56.000Z</time></trkpt><trkpt lon="5.86106" lat="51.09859"><ele>14.2</ele><time>2022-05-08T09:16:57.000Z</time></trkpt><trkpt lon="5.860951" lat="51.098555"><ele>14.2</ele><time>2022-05-08T09:16:58.000Z</time></trkpt><trkpt lon="5.860842" lat="51.098519"><ele>14.2</ele><time>2022-05-08T09:16:59.000Z</time></trkpt><trkpt lon="5.860732" lat="51.098481"><ele>14.2</ele><time>2022-05-08T09:17:00.000Z</time></trkpt><trkpt lon="5.860625" lat="51.098445"><ele>14</ele><time>2022-05-08T09:17:01.000Z</time></trkpt><trkpt lon="5.860521" lat="51.098411"><ele>13.8</ele><time>2022-05-08T09:17:02.000Z</time></trkpt><trkpt lon="5.860418" lat="51.098374"><ele>13.6</ele><time>2022-05-08T09:17:03.000Z</time></trkpt><trkpt lon="5.860313" lat="51.098336"><ele>13.6</ele><time>2022-05-08T09:17:04.000Z</time></trkpt><trkpt lon="5.860205" lat="51.098298"><ele>13.4</ele><time>2022-05-08T09:17:05.000Z</time></trkpt><trkpt lon="5.860099" lat="51.098263"><ele>13.4</ele><time>2022-05-08T09:17:06.000Z</time></trkpt><trkpt lon="5.85999" lat="51.098228"><ele>13.4</ele><time>2022-05-08T09:17:07.000Z</time></trkpt><trkpt lon="5.859881" lat="51.098191"><ele>13.2</ele><time>2022-05-08T09:17:08.000Z</time></trkpt><trkpt lon="5.859775" lat="51.098155"><ele>13.2</ele><time>2022-05-08T09:17:09.000Z</time></trkpt><trkpt lon="5.859666" lat="51.098123"><ele>13.2</ele><time>2022-05-08T09:17:10.000Z</time></trkpt><trkpt lon="5.85956" lat="51.09809"><ele>13.2</ele><time>2022-05-08T09:17:11.000Z</time></trkpt><trkpt lon="5.859452" lat="51.098058"><ele>13.4</ele><time>2022-05-08T09:17:12.000Z</time></trkpt><trkpt lon="5.85934" lat="51.098028"><ele>13.6</ele><time>2022-05-08T09:17:13.000Z</time></trkpt><trkpt lon="5.859227" lat="51.098"><ele>13.6</ele><time>2022-05-08T09:17:14.000Z</time></trkpt><trkpt lon="5.859106" lat="51.097973"><ele>13.6</ele><time>2022-05-08T09:17:15.000Z</time></trkpt><trkpt lon="5.858982" lat="51.097948"><ele>13.6</ele><time>2022-05-08T09:17:16.000Z</time></trkpt><trkpt lon="5.858859" lat="51.09793"><ele>13.6</ele><time>2022-05-08T09:17:17.000Z</time></trkpt><trkpt lon="5.858734" lat="51.097912"><ele>13.6</ele><time>2022-05-08T09:17:18.000Z</time></trkpt><trkpt lon="5.858611" lat="51.097895"><ele>13.6</ele><time>2022-05-08T09:17:19.000Z</time></trkpt><trkpt lon="5.858486" lat="51.097885"><ele>13.4</ele><time>2022-05-08T09:17:20.000Z</time></trkpt><trkpt lon="5.858358" lat="51.097879"><ele>13.4</ele><time>2022-05-08T09:17:21.000Z</time></trkpt><trkpt lon="5.85823" lat="51.097875"><ele>13.2</ele><time>2022-05-08T09:17:22.000Z</time></trkpt><trkpt lon="5.858103" lat="51.097874"><ele>13</ele><time>2022-05-08T09:17:23.000Z</time></trkpt><trkpt lon="5.857978" lat="51.097874"><ele>13.2</ele><time>2022-05-08T09:17:24.000Z</time></trkpt><trkpt lon="5.85785" lat="51.097872"><ele>13.6</ele><time>2022-05-08T09:17:25.000Z</time></trkpt><trkpt lon="5.857726" lat="51.09787"><ele>13.4</ele><time>2022-05-08T09:17:26.000Z</time></trkpt><trkpt lon="5.857599" lat="51.097868"><ele>13.2</ele><time>2022-05-08T09:17:27.000Z</time></trkpt><trkpt lon="5.857471" lat="51.097866"><ele>13</ele><time>2022-05-08T09:17:28.000Z</time></trkpt><trkpt lon="5.857349" lat="51.097864"><ele>13</ele><time>2022-05-08T09:17:29.000Z</time></trkpt><trkpt lon="5.857226" lat="51.097862"><ele>12.8</ele><time>2022-05-08T09:17:30.000Z</time></trkpt><trkpt lon="5.857099" lat="51.097862"><ele>13</ele><time>2022-05-08T09:17:31.000Z</time></trkpt><trkpt lon="5.856968" lat="51.097862"><ele>13</ele><time>2022-05-08T09:17:32.000Z</time></trkpt><trkpt lon="5.856839" lat="51.09786"><ele>13</ele><time>2022-05-08T09:17:33.000Z</time></trkpt><trkpt lon="5.85671" lat="51.097858"><ele>12.8</ele><time>2022-05-08T09:17:34.000Z</time></trkpt><trkpt lon="5.856582" lat="51.097858"><ele>12.8</ele><time>2022-05-08T09:17:35.000Z</time></trkpt><trkpt lon="5.856464" lat="51.097856"><ele>12.8</ele><time>2022-05-08T09:17:36.000Z</time></trkpt><trkpt lon="5.856341" lat="51.097853"><ele>13</ele><time>2022-05-08T09:17:37.000Z</time></trkpt><trkpt lon="5.856212" lat="51.097849"><ele>13.2</ele><time>2022-05-08T09:17:38.000Z</time></trkpt><trkpt lon="5.85609" lat="51.097845"><ele>13.2</ele><time>2022-05-08T09:17:39.000Z</time></trkpt><trkpt lon="5.855969" lat="51.097841"><ele>13.4</ele><time>2022-05-08T09:17:40.000Z</time></trkpt><trkpt lon="5.855852" lat="51.097833"><ele>13.6</ele><time>2022-05-08T09:17:41.000Z</time></trkpt><trkpt lon="5.855736" lat="51.097819"><ele>13.8</ele><time>2022-05-08T09:17:42.000Z</time></trkpt><trkpt lon="5.855621" lat="51.097802"><ele>13.8</ele><time>2022-05-08T09:17:43.000Z</time></trkpt><trkpt lon="5.85551" lat="51.097783"><ele>13.8</ele><time>2022-05-08T09:17:44.000Z</time></trkpt><trkpt lon="5.855403" lat="51.097761"><ele>14</ele><time>2022-05-08T09:17:45.000Z</time></trkpt><trkpt lon="5.855296" lat="51.097741"><ele>14</ele><time>2022-05-08T09:17:46.000Z</time></trkpt><trkpt lon="5.855191" lat="51.097719"><ele>14</ele><time>2022-05-08T09:17:47.000Z</time></trkpt><trkpt lon="5.855086" lat="51.097697"><ele>13.8</ele><time>2022-05-08T09:17:48.000Z</time></trkpt><trkpt lon="5.854982" lat="51.097676"><ele>13.8</ele><time>2022-05-08T09:17:49.000Z</time></trkpt><trkpt lon="5.854877" lat="51.097655"><ele>13.8</ele><time>2022-05-08T09:17:50.000Z</time></trkpt><trkpt lon="5.854775" lat="51.09763"><ele>13.8</ele><time>2022-05-08T09:17:51.000Z</time></trkpt><trkpt lon="5.854669" lat="51.097603"><ele>13.8</ele><time>2022-05-08T09:17:52.000Z</time></trkpt><trkpt lon="5.854559" lat="51.097574"><ele>14</ele><time>2022-05-08T09:17:53.000Z</time></trkpt><trkpt lon="5.854451" lat="51.097542"><ele>14</ele><time>2022-05-08T09:17:54.000Z</time></trkpt><trkpt lon="5.854342" lat="51.097512"><ele>14.2</ele><time>2022-05-08T09:17:55.000Z</time></trkpt><trkpt lon="5.854235" lat="51.09748"><ele>14.2</ele><time>2022-05-08T09:17:56.000Z</time></trkpt><trkpt lon="5.854129" lat="51.097448"><ele>14.4</ele><time>2022-05-08T09:17:57.000Z</time></trkpt><trkpt lon="5.854022" lat="51.097415"><ele>14.4</ele><time>2022-05-08T09:17:58.000Z</time></trkpt><trkpt lon="5.853913" lat="51.097383"><ele>14.4</ele><time>2022-05-08T09:17:59.000Z</time></trkpt><trkpt lon="5.853802" lat="51.097351"><ele>14.4</ele><time>2022-05-08T09:18:00.000Z</time></trkpt><trkpt lon="5.853686" lat="51.097316"><ele>14.4</ele><time>2022-05-08T09:18:01.000Z</time></trkpt><trkpt lon="5.853573" lat="51.097285"><ele>14.4</ele><time>2022-05-08T09:18:02.000Z</time></trkpt><trkpt lon="5.853457" lat="51.097252"><ele>14.4</ele><time>2022-05-08T09:18:03.000Z</time></trkpt><trkpt lon="5.853342" lat="51.097218"><ele>14.6</ele><time>2022-05-08T09:18:04.000Z</time></trkpt><trkpt lon="5.853225" lat="51.097185"><ele>14.6</ele><time>2022-05-08T09:18:05.000Z</time></trkpt><trkpt lon="5.853108" lat="51.097155"><ele>14.4</ele><time>2022-05-08T09:18:06.000Z</time></trkpt><trkpt lon="5.852992" lat="51.09712"><ele>14.6</ele><time>2022-05-08T09:18:07.000Z</time></trkpt><trkpt lon="5.852875" lat="51.097084"><ele>14.6</ele><time>2022-05-08T09:18:08.000Z</time></trkpt><trkpt lon="5.852763" lat="51.097052"><ele>14.6</ele><time>2022-05-08T09:18:09.000Z</time></trkpt><trkpt lon="5.852654" lat="51.097019"><ele>14.4</ele><time>2022-05-08T09:18:10.000Z</time></trkpt><trkpt lon="5.852546" lat="51.096986"><ele>14.4</ele><time>2022-05-08T09:18:11.000Z</time></trkpt><trkpt lon="5.852439" lat="51.096954"><ele>14.6</ele><time>2022-05-08T09:18:12.000Z</time></trkpt><trkpt lon="5.852329" lat="51.096919"><ele>14.6</ele><time>2022-05-08T09:18:13.000Z</time></trkpt><trkpt lon="5.852221" lat="51.096884"><ele>14.6</ele><time>2022-05-08T09:18:14.000Z</time></trkpt><trkpt lon="5.852114" lat="51.096849"><ele>14.6</ele><time>2022-05-08T09:18:15.000Z</time></trkpt><trkpt lon="5.852008" lat="51.096819"><ele>14.6</ele><time>2022-05-08T09:18:16.000Z</time></trkpt><trkpt lon="5.8519" lat="51.09679"><ele>14.6</ele><time>2022-05-08T09:18:17.000Z</time></trkpt><trkpt lon="5.85179" lat="51.096764"><ele>14.6</ele><time>2022-05-08T09:18:18.000Z</time></trkpt><trkpt lon="5.851678" lat="51.096739"><ele>14.6</ele><time>2022-05-08T09:18:19.000Z</time></trkpt><trkpt lon="5.851565" lat="51.096719"><ele>14.8</ele><time>2022-05-08T09:18:20.000Z</time></trkpt><trkpt lon="5.851449" lat="51.096701"><ele>14.8</ele><time>2022-05-08T09:18:21.000Z</time></trkpt><trkpt lon="5.851332" lat="51.096686"><ele>14.8</ele><time>2022-05-08T09:18:22.000Z</time></trkpt><trkpt lon="5.851216" lat="51.096671"><ele>14.6</ele><time>2022-05-08T09:18:23.000Z</time></trkpt><trkpt lon="5.851104" lat="51.096658"><ele>14.2</ele><time>2022-05-08T09:18:24.000Z</time></trkpt><trkpt lon="5.85099" lat="51.096647"><ele>13.8</ele><time>2022-05-08T09:18:25.000Z</time></trkpt><trkpt lon="5.850881" lat="51.096637"><ele>13.6</ele><time>2022-05-08T09:18:26.000Z</time></trkpt><trkpt lon="5.85077" lat="51.096632"><ele>13.4</ele><time>2022-05-08T09:18:27.000Z</time></trkpt><trkpt lon="5.850654" lat="51.096624"><ele>13.4</ele><time>2022-05-08T09:18:28.000Z</time></trkpt><trkpt lon="5.850536" lat="51.096616"><ele>13.2</ele><time>2022-05-08T09:18:29.000Z</time></trkpt><trkpt lon="5.850424" lat="51.096613"><ele>13.4</ele><time>2022-05-08T09:18:30.000Z</time></trkpt><trkpt lon="5.850313" lat="51.096607"><ele>13.6</ele><time>2022-05-08T09:18:31.000Z</time></trkpt><trkpt lon="5.8502" lat="51.096599"><ele>13.6</ele><time>2022-05-08T09:18:32.000Z</time></trkpt><trkpt lon="5.850085" lat="51.096591"><ele>13.8</ele><time>2022-05-08T09:18:33.000Z</time></trkpt><trkpt lon="5.849969" lat="51.096586"><ele>13.8</ele><time>2022-05-08T09:18:34.000Z</time></trkpt><trkpt lon="5.849851" lat="51.09658"><ele>14</ele><time>2022-05-08T09:18:35.000Z</time></trkpt><trkpt lon="5.84973" lat="51.096575"><ele>14</ele><time>2022-05-08T09:18:36.000Z</time></trkpt><trkpt lon="5.849609" lat="51.096573"><ele>14</ele><time>2022-05-08T09:18:37.000Z</time></trkpt><trkpt lon="5.849489" lat="51.096573"><ele>14.2</ele><time>2022-05-08T09:18:38.000Z</time></trkpt><trkpt lon="5.849371" lat="51.096575"><ele>14.4</ele><time>2022-05-08T09:18:39.000Z</time></trkpt><trkpt lon="5.849255" lat="51.096583"><ele>14.6</ele><time>2022-05-08T09:18:40.000Z</time></trkpt><trkpt lon="5.849134" lat="51.096596"><ele>14.6</ele><time>2022-05-08T09:18:41.000Z</time></trkpt><trkpt lon="5.849014" lat="51.096612"><ele>14.4</ele><time>2022-05-08T09:18:42.000Z</time></trkpt><trkpt lon="5.8489" lat="51.096632"><ele>14.2</ele><time>2022-05-08T09:18:43.000Z</time></trkpt><trkpt lon="5.848791" lat="51.096654"><ele>14</ele><time>2022-05-08T09:18:44.000Z</time></trkpt><trkpt lon="5.848686" lat="51.09668"><ele>14</ele><time>2022-05-08T09:18:45.000Z</time></trkpt><trkpt lon="5.848584" lat="51.096704"><ele>14</ele><time>2022-05-08T09:18:46.000Z</time></trkpt><trkpt lon="5.848477" lat="51.096729"><ele>14.2</ele><time>2022-05-08T09:18:47.000Z</time></trkpt><trkpt lon="5.848376" lat="51.096754"><ele>14.4</ele><time>2022-05-08T09:18:48.000Z</time></trkpt><trkpt lon="5.848266" lat="51.096777"><ele>14.4</ele><time>2022-05-08T09:18:49.000Z</time></trkpt><trkpt lon="5.84815" lat="51.096795"><ele>14.4</ele><time>2022-05-08T09:18:50.000Z</time></trkpt><trkpt lon="5.848043" lat="51.096808"><ele>14.4</ele><time>2022-05-08T09:18:51.000Z</time></trkpt><trkpt lon="5.847931" lat="51.096822"><ele>14.4</ele><time>2022-05-08T09:18:52.000Z</time></trkpt><trkpt lon="5.847817" lat="51.096837"><ele>14.4</ele><time>2022-05-08T09:18:53.000Z</time></trkpt><trkpt lon="5.847702" lat="51.096852"><ele>14.4</ele><time>2022-05-08T09:18:54.000Z</time></trkpt><trkpt lon="5.847585" lat="51.096868"><ele>14.2</ele><time>2022-05-08T09:18:55.000Z</time></trkpt><trkpt lon="5.847471" lat="51.096885"><ele>14.2</ele><time>2022-05-08T09:18:56.000Z</time></trkpt><trkpt lon="5.847359" lat="51.096904"><ele>14</ele><time>2022-05-08T09:18:57.000Z</time></trkpt><trkpt lon="5.847247" lat="51.096923"><ele>14</ele><time>2022-05-08T09:18:58.000Z</time></trkpt><trkpt lon="5.847134" lat="51.09694"><ele>14</ele><time>2022-05-08T09:18:59.000Z</time></trkpt><trkpt lon="5.847019" lat="51.096953"><ele>14.2</ele><time>2022-05-08T09:19:00.000Z</time></trkpt><trkpt lon="5.8469" lat="51.09696"><ele>14.2</ele><time>2022-05-08T09:19:01.000Z</time></trkpt><trkpt lon="5.846776" lat="51.09696"><ele>14.2</ele><time>2022-05-08T09:19:02.000Z</time></trkpt><trkpt lon="5.846655" lat="51.096958"><ele>14</ele><time>2022-05-08T09:19:03.000Z</time></trkpt><trkpt lon="5.846539" lat="51.096958"><ele>13.6</ele><time>2022-05-08T09:19:04.000Z</time></trkpt><trkpt lon="5.846424" lat="51.096952"><ele>13.6</ele><time>2022-05-08T09:19:05.000Z</time></trkpt><trkpt lon="5.846309" lat="51.096936"><ele>13.6</ele><time>2022-05-08T09:19:06.000Z</time></trkpt><trkpt lon="5.846192" lat="51.096913"><ele>13.6</ele><time>2022-05-08T09:19:07.000Z</time></trkpt><trkpt lon="5.846083" lat="51.096887"><ele>13.6</ele><time>2022-05-08T09:19:08.000Z</time></trkpt><trkpt lon="5.845977" lat="51.096858"><ele>13.6</ele><time>2022-05-08T09:19:09.000Z</time></trkpt><trkpt lon="5.845869" lat="51.096831"><ele>13.6</ele><time>2022-05-08T09:19:10.000Z</time></trkpt><trkpt lon="5.845762" lat="51.096806"><ele>13.8</ele><time>2022-05-08T09:19:11.000Z</time></trkpt><trkpt lon="5.845656" lat="51.096781"><ele>14</ele><time>2022-05-08T09:19:12.000Z</time></trkpt><trkpt lon="5.845544" lat="51.096754"><ele>14</ele><time>2022-05-08T09:19:13.000Z</time></trkpt><trkpt lon="5.845432" lat="51.096721"><ele>14.2</ele><time>2022-05-08T09:19:14.000Z</time></trkpt><trkpt lon="5.845326" lat="51.09668"><ele>14.4</ele><time>2022-05-08T09:19:15.000Z</time></trkpt><trkpt lon="5.845229" lat="51.096631"><ele>14.4</ele><time>2022-05-08T09:19:16.000Z</time></trkpt><trkpt lon="5.845135" lat="51.096575"><ele>14.4</ele><time>2022-05-08T09:19:17.000Z</time></trkpt><trkpt lon="5.845051" lat="51.096513"><ele>14.6</ele><time>2022-05-08T09:19:18.000Z</time></trkpt><trkpt lon="5.844982" lat="51.096448"><ele>14.6</ele><time>2022-05-08T09:19:19.000Z</time></trkpt><trkpt lon="5.844925" lat="51.096382"><ele>14.4</ele><time>2022-05-08T09:19:20.000Z</time></trkpt><trkpt lon="5.844876" lat="51.096313"><ele>14.4</ele><time>2022-05-08T09:19:21.000Z</time></trkpt><trkpt lon="5.844825" lat="51.096236"><ele>14.4</ele><time>2022-05-08T09:19:22.000Z</time></trkpt><trkpt lon="5.844768" lat="51.09616"><ele>14.2</ele><time>2022-05-08T09:19:23.000Z</time></trkpt><trkpt lon="5.844704" lat="51.096098"><ele>14.2</ele><time>2022-05-08T09:19:24.000Z</time></trkpt><trkpt lon="5.844627" lat="51.09604"><ele>14</ele><time>2022-05-08T09:19:25.000Z</time></trkpt><trkpt lon="5.844538" lat="51.095987"><ele>13.8</ele><time>2022-05-08T09:19:26.000Z</time></trkpt><trkpt lon="5.844439" lat="51.095939"><ele>13.6</ele><time>2022-05-08T09:19:27.000Z</time></trkpt><trkpt lon="5.844336" lat="51.095897"><ele>13.4</ele><time>2022-05-08T09:19:28.000Z</time></trkpt><trkpt lon="5.844228" lat="51.095855"><ele>13.2</ele><time>2022-05-08T09:19:29.000Z</time></trkpt><trkpt lon="5.84412" lat="51.095815"><ele>12.6</ele><time>2022-05-08T09:19:30.000Z</time></trkpt><trkpt lon="5.844013" lat="51.095772"><ele>12.4</ele><time>2022-05-08T09:19:31.000Z</time></trkpt><trkpt lon="5.843912" lat="51.095727"><ele>12.2</ele><time>2022-05-08T09:19:32.000Z</time></trkpt><trkpt lon="5.843814" lat="51.095682"><ele>12</ele><time>2022-05-08T09:19:33.000Z</time></trkpt><trkpt lon="5.843731" lat="51.095637"><ele>12</ele><time>2022-05-08T09:19:34.000Z</time></trkpt><trkpt lon="5.843658" lat="51.095586"><ele>12</ele><time>2022-05-08T09:19:35.000Z</time></trkpt><trkpt lon="5.843609" lat="51.095525"><ele>12</ele><time>2022-05-08T09:19:36.000Z</time></trkpt><trkpt lon="5.84361" lat="51.095457"><ele>12.2</ele><time>2022-05-08T09:19:37.000Z</time></trkpt><trkpt lon="5.843651" lat="51.095389"><ele>12.2</ele><time>2022-05-08T09:19:38.000Z</time></trkpt><trkpt lon="5.843714" lat="51.095325"><ele>12.4</ele><time>2022-05-08T09:19:39.000Z</time></trkpt><trkpt lon="5.843787" lat="51.095259"><ele>12.6</ele><time>2022-05-08T09:19:40.000Z</time></trkpt><trkpt lon="5.843858" lat="51.095196"><ele>12.6</ele><time>2022-05-08T09:19:41.000Z</time></trkpt><trkpt lon="5.843931" lat="51.095131"><ele>12.6</ele><time>2022-05-08T09:19:42.000Z</time></trkpt><trkpt lon="5.844007" lat="51.095062"><ele>12.6</ele><time>2022-05-08T09:19:43.000Z</time></trkpt><trkpt lon="5.844079" lat="51.094991"><ele>12.6</ele><time>2022-05-08T09:19:44.000Z</time></trkpt><trkpt lon="5.844149" lat="51.094918"><ele>12.6</ele><time>2022-05-08T09:19:45.000Z</time></trkpt><trkpt lon="5.844214" lat="51.09485"><ele>12.8</ele><time>2022-05-08T09:19:46.000Z</time></trkpt><trkpt lon="5.844281" lat="51.094779"><ele>12.8</ele><time>2022-05-08T09:19:47.000Z</time></trkpt><trkpt lon="5.844346" lat="51.094704"><ele>12.8</ele><time>2022-05-08T09:19:48.000Z</time></trkpt><trkpt lon="5.844405" lat="51.094633"><ele>12.8</ele><time>2022-05-08T09:19:49.000Z</time></trkpt><trkpt lon="5.844464" lat="51.094562"><ele>13</ele><time>2022-05-08T09:19:50.000Z</time></trkpt><trkpt lon="5.844525" lat="51.094488"><ele>13</ele><time>2022-05-08T09:19:51.000Z</time></trkpt><trkpt lon="5.844584" lat="51.094417"><ele>13</ele><time>2022-05-08T09:19:52.000Z</time></trkpt><trkpt lon="5.84464" lat="51.094346"><ele>13</ele><time>2022-05-08T09:19:53.000Z</time></trkpt><trkpt lon="5.844688" lat="51.09428"><ele>13</ele><time>2022-05-08T09:19:54.000Z</time></trkpt><trkpt lon="5.844737" lat="51.094208"><ele>13</ele><time>2022-05-08T09:19:55.000Z</time></trkpt><trkpt lon="5.844782" lat="51.094128"><ele>13</ele><time>2022-05-08T09:19:56.000Z</time></trkpt><trkpt lon="5.844812" lat="51.09405"><ele>13</ele><time>2022-05-08T09:19:57.000Z</time></trkpt><trkpt lon="5.844826" lat="51.093971"><ele>12.8</ele><time>2022-05-08T09:19:58.000Z</time></trkpt><trkpt lon="5.844824" lat="51.093894"><ele>12.8</ele><time>2022-05-08T09:19:59.000Z</time></trkpt><trkpt lon="5.844811" lat="51.093818"><ele>13</ele><time>2022-05-08T09:20:00.000Z</time></trkpt><trkpt lon="5.844787" lat="51.093741"><ele>13</ele><time>2022-05-08T09:20:01.000Z</time></trkpt><trkpt lon="5.844755" lat="51.093669"><ele>13.2</ele><time>2022-05-08T09:20:02.000Z</time></trkpt><trkpt lon="5.844713" lat="51.093597"><ele>13.2</ele><time>2022-05-08T09:20:03.000Z</time></trkpt><trkpt lon="5.844663" lat="51.093525"><ele>13.2</ele><time>2022-05-08T09:20:04.000Z</time></trkpt><trkpt lon="5.844613" lat="51.093454"><ele>13.2</ele><time>2022-05-08T09:20:05.000Z</time></trkpt><trkpt lon="5.84457" lat="51.093386"><ele>13.4</ele><time>2022-05-08T09:20:06.000Z</time></trkpt><trkpt lon="5.844536" lat="51.09331"><ele>13.4</ele><time>2022-05-08T09:20:07.000Z</time></trkpt><trkpt lon="5.844515" lat="51.093231"><ele>13.6</ele><time>2022-05-08T09:20:08.000Z</time></trkpt><trkpt lon="5.844503" lat="51.093155"><ele>13.6</ele><time>2022-05-08T09:20:09.000Z</time></trkpt><trkpt lon="5.844497" lat="51.093081"><ele>13.6</ele><time>2022-05-08T09:20:10.000Z</time></trkpt><trkpt lon="5.844497" lat="51.093005"><ele>13.8</ele><time>2022-05-08T09:20:11.000Z</time></trkpt><trkpt lon="5.844498" lat="51.092931"><ele>13.8</ele><time>2022-05-08T09:20:12.000Z</time></trkpt><trkpt lon="5.8445" lat="51.092857"><ele>14</ele><time>2022-05-08T09:20:13.000Z</time></trkpt><trkpt lon="5.844497" lat="51.092784"><ele>14</ele><time>2022-05-08T09:20:14.000Z</time></trkpt><trkpt lon="5.844486" lat="51.092709"><ele>14</ele><time>2022-05-08T09:20:15.000Z</time></trkpt><trkpt lon="5.844465" lat="51.092635"><ele>14.2</ele><time>2022-05-08T09:20:16.000Z</time></trkpt><trkpt lon="5.844437" lat="51.092562"><ele>14.2</ele><time>2022-05-08T09:20:17.000Z</time></trkpt><trkpt lon="5.844402" lat="51.092489"><ele>14.2</ele><time>2022-05-08T09:20:18.000Z</time></trkpt><trkpt lon="5.844361" lat="51.092415"><ele>14.2</ele><time>2022-05-08T09:20:19.000Z</time></trkpt><trkpt lon="5.84432" lat="51.092344"><ele>14.2</ele><time>2022-05-08T09:20:20.000Z</time></trkpt><trkpt lon="5.844277" lat="51.092269"><ele>14.2</ele><time>2022-05-08T09:20:21.000Z</time></trkpt><trkpt lon="5.844234" lat="51.09219"><ele>14.2</ele><time>2022-05-08T09:20:22.000Z</time></trkpt><trkpt lon="5.844191" lat="51.092116"><ele>14.4</ele><time>2022-05-08T09:20:23.000Z</time></trkpt><trkpt lon="5.844149" lat="51.092043"><ele>14.4</ele><time>2022-05-08T09:20:24.000Z</time></trkpt><trkpt lon="5.844103" lat="51.09197"><ele>14.2</ele><time>2022-05-08T09:20:25.000Z</time></trkpt><trkpt lon="5.844057" lat="51.091901"><ele>14</ele><time>2022-05-08T09:20:26.000Z</time></trkpt><trkpt lon="5.844009" lat="51.09183"><ele>13.8</ele><time>2022-05-08T09:20:27.000Z</time></trkpt><trkpt lon="5.843961" lat="51.091757"><ele>13.8</ele><time>2022-05-08T09:20:28.000Z</time></trkpt><trkpt lon="5.843916" lat="51.091685"><ele>13.8</ele><time>2022-05-08T09:20:29.000Z</time></trkpt><trkpt lon="5.843872" lat="51.091613"><ele>13.8</ele><time>2022-05-08T09:20:30.000Z</time></trkpt><trkpt lon="5.843826" lat="51.09154"><ele>13.8</ele><time>2022-05-08T09:20:31.000Z</time></trkpt><trkpt lon="5.843782" lat="51.091468"><ele>13.8</ele><time>2022-05-08T09:20:32.000Z</time></trkpt><trkpt lon="5.843741" lat="51.091394"><ele>14</ele><time>2022-05-08T09:20:33.000Z</time></trkpt><trkpt lon="5.843699" lat="51.09132"><ele>14</ele><time>2022-05-08T09:20:34.000Z</time></trkpt><trkpt lon="5.843654" lat="51.091247"><ele>14.2</ele><time>2022-05-08T09:20:35.000Z</time></trkpt><trkpt lon="5.84361" lat="51.091175"><ele>14</ele><time>2022-05-08T09:20:36.000Z</time></trkpt><trkpt lon="5.843565" lat="51.091102"><ele>14</ele><time>2022-05-08T09:20:37.000Z</time></trkpt><trkpt lon="5.843517" lat="51.091024"><ele>13.8</ele><time>2022-05-08T09:20:38.000Z</time></trkpt><trkpt lon="5.843469" lat="51.090952"><ele>13.8</ele><time>2022-05-08T09:20:39.000Z</time></trkpt><trkpt lon="5.843425" lat="51.090882"><ele>13.8</ele><time>2022-05-08T09:20:40.000Z</time></trkpt><trkpt lon="5.843381" lat="51.090811"><ele>13.8</ele><time>2022-05-08T09:20:41.000Z</time></trkpt><trkpt lon="5.843339" lat="51.090742"><ele>13.8</ele><time>2022-05-08T09:20:42.000Z</time></trkpt><trkpt lon="5.843296" lat="51.09067"><ele>13.8</ele><time>2022-05-08T09:20:43.000Z</time></trkpt><trkpt lon="5.843252" lat="51.090596"><ele>13.8</ele><time>2022-05-08T09:20:44.000Z</time></trkpt><trkpt lon="5.843207" lat="51.090521"><ele>13.8</ele><time>2022-05-08T09:20:45.000Z</time></trkpt><trkpt lon="5.843162" lat="51.090444"><ele>13.8</ele><time>2022-05-08T09:20:46.000Z</time></trkpt><trkpt lon="5.843116" lat="51.090368"><ele>13.8</ele><time>2022-05-08T09:20:47.000Z</time></trkpt><trkpt lon="5.84307" lat="51.090291"><ele>13.8</ele><time>2022-05-08T09:20:48.000Z</time></trkpt><trkpt lon="5.843024" lat="51.090215"><ele>13.8</ele><time>2022-05-08T09:20:49.000Z</time></trkpt><trkpt lon="5.84298" lat="51.090139"><ele>14</ele><time>2022-05-08T09:20:50.000Z</time></trkpt><trkpt lon="5.842937" lat="51.090065"><ele>14.2</ele><time>2022-05-08T09:20:51.000Z</time></trkpt><trkpt lon="5.842893" lat="51.08999"><ele>14.2</ele><time>2022-05-08T09:20:52.000Z</time></trkpt><trkpt lon="5.84285" lat="51.089916"><ele>14.2</ele><time>2022-05-08T09:20:53.000Z</time></trkpt><trkpt lon="5.842806" lat="51.089844"><ele>14.2</ele><time>2022-05-08T09:20:54.000Z</time></trkpt><trkpt lon="5.84276" lat="51.089771"><ele>14.2</ele><time>2022-05-08T09:20:55.000Z</time></trkpt><trkpt lon="5.842715" lat="51.089699"><ele>14.2</ele><time>2022-05-08T09:20:56.000Z</time></trkpt><trkpt lon="5.842671" lat="51.089624"><ele>14.2</ele><time>2022-05-08T09:20:57.000Z</time></trkpt><trkpt lon="5.842628" lat="51.089549"><ele>14.2</ele><time>2022-05-08T09:20:58.000Z</time></trkpt><trkpt lon="5.842584" lat="51.089475"><ele>14.2</ele><time>2022-05-08T09:20:59.000Z</time></trkpt><trkpt lon="5.842541" lat="51.089399"><ele>14.2</ele><time>2022-05-08T09:21:00.000Z</time></trkpt><trkpt lon="5.842496" lat="51.089325"><ele>14.2</ele><time>2022-05-08T09:21:01.000Z</time></trkpt><trkpt lon="5.84245" lat="51.08925"><ele>14.2</ele><time>2022-05-08T09:21:02.000Z</time></trkpt><trkpt lon="5.842404" lat="51.089174"><ele>14.4</ele><time>2022-05-08T09:21:03.000Z</time></trkpt><trkpt lon="5.842358" lat="51.0891"><ele>14.4</ele><time>2022-05-08T09:21:04.000Z</time></trkpt><trkpt lon="5.842312" lat="51.089025"><ele>14.4</ele><time>2022-05-08T09:21:05.000Z</time></trkpt><trkpt lon="5.842268" lat="51.088949"><ele>14.4</ele><time>2022-05-08T09:21:06.000Z</time></trkpt><trkpt lon="5.842222" lat="51.088875"><ele>14.4</ele><time>2022-05-08T09:21:07.000Z</time></trkpt><trkpt lon="5.842177" lat="51.088802"><ele>14.6</ele><time>2022-05-08T09:21:08.000Z</time></trkpt><trkpt lon="5.842133" lat="51.088729"><ele>14.6</ele><time>2022-05-08T09:21:09.000Z</time></trkpt><trkpt lon="5.842089" lat="51.088655"><ele>14.6</ele><time>2022-05-08T09:21:10.000Z</time></trkpt><trkpt lon="5.842044" lat="51.088579"><ele>14.6</ele><time>2022-05-08T09:21:11.000Z</time></trkpt><trkpt lon="5.841999" lat="51.088505"><ele>14.6</ele><time>2022-05-08T09:21:12.000Z</time></trkpt><trkpt lon="5.841955" lat="51.088433"><ele>14.6</ele><time>2022-05-08T09:21:13.000Z</time></trkpt><trkpt lon="5.84191" lat="51.08836"><ele>14.6</ele><time>2022-05-08T09:21:14.000Z</time></trkpt><trkpt lon="5.841867" lat="51.088287"><ele>14.6</ele><time>2022-05-08T09:21:15.000Z</time></trkpt><trkpt lon="5.841822" lat="51.088212"><ele>14.6</ele><time>2022-05-08T09:21:16.000Z</time></trkpt><trkpt lon="5.841776" lat="51.088136"><ele>14.8</ele><time>2022-05-08T09:21:17.000Z</time></trkpt><trkpt lon="5.84173" lat="51.088062"><ele>14.8</ele><time>2022-05-08T09:21:18.000Z</time></trkpt><trkpt lon="5.841683" lat="51.087985"><ele>14.8</ele><time>2022-05-08T09:21:19.000Z</time></trkpt><trkpt lon="5.841638" lat="51.087908"><ele>14.8</ele><time>2022-05-08T09:21:20.000Z</time></trkpt><trkpt lon="5.841593" lat="51.08783"><ele>14.8</ele><time>2022-05-08T09:21:21.000Z</time></trkpt><trkpt lon="5.841547" lat="51.087751"><ele>14.8</ele><time>2022-05-08T09:21:22.000Z</time></trkpt><trkpt lon="5.841502" lat="51.087675"><ele>14.8</ele><time>2022-05-08T09:21:23.000Z</time></trkpt><trkpt lon="5.84146" lat="51.087599"><ele>14.8</ele><time>2022-05-08T09:21:24.000Z</time></trkpt><trkpt lon="5.84142" lat="51.087522"><ele>14.8</ele><time>2022-05-08T09:21:25.000Z</time></trkpt><trkpt lon="5.841383" lat="51.087444"><ele>14.8</ele><time>2022-05-08T09:21:26.000Z</time></trkpt><trkpt lon="5.841349" lat="51.087364"><ele>14.8</ele><time>2022-05-08T09:21:27.000Z</time></trkpt><trkpt lon="5.841319" lat="51.087286"><ele>14.8</ele><time>2022-05-08T09:21:28.000Z</time></trkpt><trkpt lon="5.84129" lat="51.087209"><ele>14.8</ele><time>2022-05-08T09:21:29.000Z</time></trkpt><trkpt lon="5.841263" lat="51.087133"><ele>14.8</ele><time>2022-05-08T09:21:30.000Z</time></trkpt><trkpt lon="5.841236" lat="51.087057"><ele>14.8</ele><time>2022-05-08T09:21:31.000Z</time></trkpt><trkpt lon="5.841212" lat="51.086978"><ele>14.8</ele><time>2022-05-08T09:21:32.000Z</time></trkpt><trkpt lon="5.841189" lat="51.086898"><ele>14.8</ele><time>2022-05-08T09:21:33.000Z</time></trkpt><trkpt lon="5.841168" lat="51.086818"><ele>14.8</ele><time>2022-05-08T09:21:34.000Z</time></trkpt><trkpt lon="5.841146" lat="51.086738"><ele>14.8</ele><time>2022-05-08T09:21:35.000Z</time></trkpt><trkpt lon="5.841122" lat="51.08666"><ele>14.8</ele><time>2022-05-08T09:21:36.000Z</time></trkpt><trkpt lon="5.841098" lat="51.086584"><ele>14.8</ele><time>2022-05-08T09:21:37.000Z</time></trkpt><trkpt lon="5.841075" lat="51.086507"><ele>14.8</ele><time>2022-05-08T09:21:38.000Z</time></trkpt><trkpt lon="5.841052" lat="51.086429"><ele>14.8</ele><time>2022-05-08T09:21:39.000Z</time></trkpt><trkpt lon="5.841028" lat="51.086349"><ele>14.8</ele><time>2022-05-08T09:21:40.000Z</time></trkpt><trkpt lon="5.841003" lat="51.086272"><ele>14.8</ele><time>2022-05-08T09:21:41.000Z</time></trkpt><trkpt lon="5.840978" lat="51.086193"><ele>14.8</ele><time>2022-05-08T09:21:42.000Z</time></trkpt><trkpt lon="5.840953" lat="51.086112"><ele>14.8</ele><time>2022-05-08T09:21:43.000Z</time></trkpt><trkpt lon="5.840927" lat="51.086035"><ele>14.8</ele><time>2022-05-08T09:21:44.000Z</time></trkpt><trkpt lon="5.840904" lat="51.085956"><ele>14.8</ele><time>2022-05-08T09:21:45.000Z</time></trkpt><trkpt lon="5.840883" lat="51.085876"><ele>14.8</ele><time>2022-05-08T09:21:46.000Z</time></trkpt><trkpt lon="5.84086" lat="51.085796"><ele>14.8</ele><time>2022-05-08T09:21:47.000Z</time></trkpt><trkpt lon="5.840836" lat="51.085715"><ele>14.8</ele><time>2022-05-08T09:21:48.000Z</time></trkpt><trkpt lon="5.840813" lat="51.085635"><ele>14.8</ele><time>2022-05-08T09:21:49.000Z</time></trkpt><trkpt lon="5.840789" lat="51.085556"><ele>14.8</ele><time>2022-05-08T09:21:50.000Z</time></trkpt><trkpt lon="5.840764" lat="51.085478"><ele>14.8</ele><time>2022-05-08T09:21:51.000Z</time></trkpt><trkpt lon="5.840739" lat="51.085399"><ele>14.8</ele><time>2022-05-08T09:21:52.000Z</time></trkpt><trkpt lon="5.840715" lat="51.085318"><ele>15</ele><time>2022-05-08T09:21:53.000Z</time></trkpt><trkpt lon="5.840693" lat="51.085238"><ele>15</ele><time>2022-05-08T09:21:54.000Z</time></trkpt><trkpt lon="5.840674" lat="51.085158"><ele>14.8</ele><time>2022-05-08T09:21:55.000Z</time></trkpt><trkpt lon="5.840655" lat="51.085078"><ele>14.8</ele><time>2022-05-08T09:21:56.000Z</time></trkpt><trkpt lon="5.840634" lat="51.085002"><ele>14.8</ele><time>2022-05-08T09:21:57.000Z</time></trkpt><trkpt lon="5.84061" lat="51.084925"><ele>15</ele><time>2022-05-08T09:21:58.000Z</time></trkpt><trkpt lon="5.840583" lat="51.084845"><ele>15</ele><time>2022-05-08T09:21:59.000Z</time></trkpt><trkpt lon="5.840553" lat="51.084767"><ele>14.8</ele><time>2022-05-08T09:22:00.000Z</time></trkpt><trkpt lon="5.84052" lat="51.084691"><ele>14.8</ele><time>2022-05-08T09:22:01.000Z</time></trkpt><trkpt lon="5.840486" lat="51.084615"><ele>14.8</ele><time>2022-05-08T09:22:02.000Z</time></trkpt><trkpt lon="5.840448" lat="51.084538"><ele>14.6</ele><time>2022-05-08T09:22:03.000Z</time></trkpt><trkpt lon="5.840408" lat="51.084459"><ele>14.6</ele><time>2022-05-08T09:22:04.000Z</time></trkpt><trkpt lon="5.840365" lat="51.084382"><ele>14.8</ele><time>2022-05-08T09:22:05.000Z</time></trkpt><trkpt lon="5.84032" lat="51.084308"><ele>14.6</ele><time>2022-05-08T09:22:06.000Z</time></trkpt><trkpt lon="5.84027" lat="51.084234"><ele>14.8</ele><time>2022-05-08T09:22:07.000Z</time></trkpt><trkpt lon="5.840216" lat="51.08416"><ele>14.8</ele><time>2022-05-08T09:22:08.000Z</time></trkpt><trkpt lon="5.840161" lat="51.084088"><ele>14.8</ele><time>2022-05-08T09:22:09.000Z</time></trkpt><trkpt lon="5.840104" lat="51.084018"><ele>14.8</ele><time>2022-05-08T09:22:10.000Z</time></trkpt><trkpt lon="5.840044" lat="51.083946"><ele>14.8</ele><time>2022-05-08T09:22:11.000Z</time></trkpt><trkpt lon="5.839983" lat="51.083875"><ele>14.8</ele><time>2022-05-08T09:22:12.000Z</time></trkpt><trkpt lon="5.839919" lat="51.083804"><ele>14.8</ele><time>2022-05-08T09:22:13.000Z</time></trkpt><trkpt lon="5.839851" lat="51.083734"><ele>14.8</ele><time>2022-05-08T09:22:14.000Z</time></trkpt><trkpt lon="5.83978" lat="51.083663"><ele>14.8</ele><time>2022-05-08T09:22:15.000Z</time></trkpt><trkpt lon="5.839704" lat="51.083594"><ele>14.8</ele><time>2022-05-08T09:22:16.000Z</time></trkpt><trkpt lon="5.839628" lat="51.083527"><ele>14.6</ele><time>2022-05-08T09:22:17.000Z</time></trkpt><trkpt lon="5.839554" lat="51.08346"><ele>14.6</ele><time>2022-05-08T09:22:18.000Z</time></trkpt><trkpt lon="5.839481" lat="51.083393"><ele>14.6</ele><time>2022-05-08T09:22:19.000Z</time></trkpt><trkpt lon="5.839405" lat="51.083329"><ele>14.6</ele><time>2022-05-08T09:22:20.000Z</time></trkpt><trkpt lon="5.83933" lat="51.083262"><ele>14.6</ele><time>2022-05-08T09:22:21.000Z</time></trkpt><trkpt lon="5.839255" lat="51.083195"><ele>14.4</ele><time>2022-05-08T09:22:22.000Z</time></trkpt><trkpt lon="5.839184" lat="51.083129"><ele>14.4</ele><time>2022-05-08T09:22:23.000Z</time></trkpt><trkpt lon="5.839111" lat="51.083063"><ele>14.2</ele><time>2022-05-08T09:22:24.000Z</time></trkpt><trkpt lon="5.839038" lat="51.082997"><ele>14</ele><time>2022-05-08T09:22:25.000Z</time></trkpt><trkpt lon="5.838965" lat="51.082934"><ele>14</ele><time>2022-05-08T09:22:26.000Z</time></trkpt><trkpt lon="5.838892" lat="51.082871"><ele>14.2</ele><time>2022-05-08T09:22:27.000Z</time></trkpt><trkpt lon="5.838819" lat="51.082806"><ele>14.2</ele><time>2022-05-08T09:22:28.000Z</time></trkpt><trkpt lon="5.838746" lat="51.082741"><ele>14.2</ele><time>2022-05-08T09:22:29.000Z</time></trkpt><trkpt lon="5.838673" lat="51.082676"><ele>14.2</ele><time>2022-05-08T09:22:30.000Z</time></trkpt><trkpt lon="5.8386" lat="51.082613"><ele>14</ele><time>2022-05-08T09:22:31.000Z</time></trkpt><trkpt lon="5.838528" lat="51.082548"><ele>14</ele><time>2022-05-08T09:22:32.000Z</time></trkpt><trkpt lon="5.838459" lat="51.082483"><ele>13.8</ele><time>2022-05-08T09:22:33.000Z</time></trkpt><trkpt lon="5.838388" lat="51.082419"><ele>13.8</ele><time>2022-05-08T09:22:34.000Z</time></trkpt><trkpt lon="5.838315" lat="51.082351"><ele>13.8</ele><time>2022-05-08T09:22:35.000Z</time></trkpt><trkpt lon="5.838243" lat="51.082284"><ele>13.8</ele><time>2022-05-08T09:22:36.000Z</time></trkpt><trkpt lon="5.838173" lat="51.082218"><ele>14</ele><time>2022-05-08T09:22:37.000Z</time></trkpt><trkpt lon="5.838101" lat="51.082151"><ele>14.2</ele><time>2022-05-08T09:22:38.000Z</time></trkpt><trkpt lon="5.838029" lat="51.082086"><ele>14.2</ele><time>2022-05-08T09:22:39.000Z</time></trkpt><trkpt lon="5.837955" lat="51.08202"><ele>14.2</ele><time>2022-05-08T09:22:40.000Z</time></trkpt><trkpt lon="5.837881" lat="51.081955"><ele>14.4</ele><time>2022-05-08T09:22:41.000Z</time></trkpt><trkpt lon="5.837809" lat="51.081893"><ele>14.4</ele><time>2022-05-08T09:22:42.000Z</time></trkpt><trkpt lon="5.837743" lat="51.081832"><ele>14.6</ele><time>2022-05-08T09:22:43.000Z</time></trkpt><trkpt lon="5.837677" lat="51.081771"><ele>14.6</ele><time>2022-05-08T09:22:44.000Z</time></trkpt><trkpt lon="5.837611" lat="51.081708"><ele>14.6</ele><time>2022-05-08T09:22:45.000Z</time></trkpt><trkpt lon="5.837547" lat="51.081645"><ele>14.6</ele><time>2022-05-08T09:22:46.000Z</time></trkpt><trkpt lon="5.837482" lat="51.081579"><ele>14.6</ele><time>2022-05-08T09:22:47.000Z</time></trkpt><trkpt lon="5.837421" lat="51.081514"><ele>14.4</ele><time>2022-05-08T09:22:48.000Z</time></trkpt><trkpt lon="5.837361" lat="51.081444"><ele>14.2</ele><time>2022-05-08T09:22:49.000Z</time></trkpt><trkpt lon="5.837305" lat="51.081374"><ele>14.2</ele><time>2022-05-08T09:22:50.000Z</time></trkpt><trkpt lon="5.837252" lat="51.081301"><ele>14</ele><time>2022-05-08T09:22:51.000Z</time></trkpt><trkpt lon="5.837201" lat="51.081227"><ele>14</ele><time>2022-05-08T09:22:52.000Z</time></trkpt><trkpt lon="5.837154" lat="51.081152"><ele>14.2</ele><time>2022-05-08T09:22:53.000Z</time></trkpt><trkpt lon="5.837111" lat="51.081074"><ele>14.2</ele><time>2022-05-08T09:22:54.000Z</time></trkpt><trkpt lon="5.837072" lat="51.080996"><ele>14.2</ele><time>2022-05-08T09:22:55.000Z</time></trkpt><trkpt lon="5.837034" lat="51.080919"><ele>14.2</ele><time>2022-05-08T09:22:56.000Z</time></trkpt><trkpt lon="5.837001" lat="51.080841"><ele>14.4</ele><time>2022-05-08T09:22:57.000Z</time></trkpt><trkpt lon="5.836973" lat="51.080761"><ele>14.4</ele><time>2022-05-08T09:22:58.000Z</time></trkpt><trkpt lon="5.836949" lat="51.080681"><ele>14.6</ele><time>2022-05-08T09:22:59.000Z</time></trkpt><trkpt lon="5.836927" lat="51.080603"><ele>14.6</ele><time>2022-05-08T09:23:00.000Z</time></trkpt><trkpt lon="5.836908" lat="51.080524"><ele>14.6</ele><time>2022-05-08T09:23:01.000Z</time></trkpt><trkpt lon="5.836889" lat="51.080444"><ele>14.6</ele><time>2022-05-08T09:23:02.000Z</time></trkpt><trkpt lon="5.836869" lat="51.080363"><ele>14.6</ele><time>2022-05-08T09:23:03.000Z</time></trkpt><trkpt lon="5.836847" lat="51.080284"><ele>14.6</ele><time>2022-05-08T09:23:04.000Z</time></trkpt><trkpt lon="5.836828" lat="51.080205"><ele>14.6</ele><time>2022-05-08T09:23:05.000Z</time></trkpt><trkpt lon="5.836809" lat="51.080126"><ele>14.6</ele><time>2022-05-08T09:23:06.000Z</time></trkpt><trkpt lon="5.836787" lat="51.080049"><ele>14.6</ele><time>2022-05-08T09:23:07.000Z</time></trkpt><trkpt lon="5.836766" lat="51.079975"><ele>14.8</ele><time>2022-05-08T09:23:08.000Z</time></trkpt><trkpt lon="5.83675" lat="51.079902"><ele>14.8</ele><time>2022-05-08T09:23:09.000Z</time></trkpt><trkpt lon="5.836734" lat="51.07983"><ele>14.8</ele><time>2022-05-08T09:23:10.000Z</time></trkpt><trkpt lon="5.836719" lat="51.079755"><ele>14.6</ele><time>2022-05-08T09:23:11.000Z</time></trkpt><trkpt lon="5.836705" lat="51.079684"><ele>14.6</ele><time>2022-05-08T09:23:12.000Z</time></trkpt><trkpt lon="5.836688" lat="51.079612"><ele>14.6</ele><time>2022-05-08T09:23:13.000Z</time></trkpt><trkpt lon="5.83667" lat="51.079534"><ele>14.6</ele><time>2022-05-08T09:23:14.000Z</time></trkpt><trkpt lon="5.836654" lat="51.07946"><ele>14.6</ele><time>2022-05-08T09:23:15.000Z</time></trkpt><trkpt lon="5.836637" lat="51.079385"><ele>14.6</ele><time>2022-05-08T09:23:16.000Z</time></trkpt><trkpt lon="5.836618" lat="51.079309"><ele>14.4</ele><time>2022-05-08T09:23:17.000Z</time></trkpt><trkpt lon="5.836599" lat="51.079233"><ele>14.4</ele><time>2022-05-08T09:23:18.000Z</time></trkpt><trkpt lon="5.836581" lat="51.079157"><ele>14.4</ele><time>2022-05-08T09:23:19.000Z</time></trkpt><trkpt lon="5.836564" lat="51.079083"><ele>14.4</ele><time>2022-05-08T09:23:20.000Z</time></trkpt><trkpt lon="5.836548" lat="51.079008"><ele>14.4</ele><time>2022-05-08T09:23:21.000Z</time></trkpt><trkpt lon="5.83653" lat="51.07893"><ele>14.6</ele><time>2022-05-08T09:23:22.000Z</time></trkpt><trkpt lon="5.836511" lat="51.078857"><ele>14.6</ele><time>2022-05-08T09:23:23.000Z</time></trkpt><trkpt lon="5.836493" lat="51.078786"><ele>14.8</ele><time>2022-05-08T09:23:24.000Z</time></trkpt><trkpt lon="5.836474" lat="51.078714"><ele>14.8</ele><time>2022-05-08T09:23:25.000Z</time></trkpt><trkpt lon="5.836453" lat="51.078642"><ele>15</ele><time>2022-05-08T09:23:26.000Z</time></trkpt><trkpt lon="5.836432" lat="51.078576"><ele>15</ele><time>2022-05-08T09:23:27.000Z</time></trkpt><trkpt lon="5.836407" lat="51.078508"><ele>15</ele><time>2022-05-08T09:23:28.000Z</time></trkpt><trkpt lon="5.836381" lat="51.078445"><ele>15</ele><time>2022-05-08T09:23:29.000Z</time></trkpt><trkpt lon="5.836355" lat="51.078386"><ele>15.2</ele><time>2022-05-08T09:23:30.000Z</time></trkpt><trkpt lon="5.836327" lat="51.078329"><ele>15.2</ele><time>2022-05-08T09:23:31.000Z</time></trkpt><trkpt lon="5.836302" lat="51.078274"><ele>15.2</ele><time>2022-05-08T09:23:32.000Z</time></trkpt><trkpt lon="5.836277" lat="51.078225"><ele>15.4</ele><time>2022-05-08T09:23:33.000Z</time></trkpt><trkpt lon="5.836249" lat="51.078185"><ele>15.4</ele><time>2022-05-08T09:23:34.000Z</time></trkpt><trkpt lon="5.836215" lat="51.078158"><ele>15.4</ele><time>2022-05-08T09:23:35.000Z</time></trkpt><trkpt lon="5.83617" lat="51.078146"><ele>15.4</ele><time>2022-05-08T09:23:36.000Z</time></trkpt><trkpt lon="5.836114" lat="51.078148"><ele>15.4</ele><time>2022-05-08T09:23:37.000Z</time></trkpt><trkpt lon="5.836045" lat="51.078158"><ele>15.2</ele><time>2022-05-08T09:23:38.000Z</time></trkpt><trkpt lon="5.835961" lat="51.078176"><ele>15.2</ele><time>2022-05-08T09:23:39.000Z</time></trkpt><trkpt lon="5.835867" lat="51.078199"><ele>15.2</ele><time>2022-05-08T09:23:40.000Z</time></trkpt><trkpt lon="5.835767" lat="51.078222"><ele>15</ele><time>2022-05-08T09:23:41.000Z</time></trkpt><trkpt lon="5.835659" lat="51.078247"><ele>15.2</ele><time>2022-05-08T09:23:42.000Z</time></trkpt><trkpt lon="5.835544" lat="51.078272"><ele>15.2</ele><time>2022-05-08T09:23:43.000Z</time></trkpt><trkpt lon="5.835426" lat="51.078294"><ele>15.2</ele><time>2022-05-08T09:23:44.000Z</time></trkpt><trkpt lon="5.835307" lat="51.078319"><ele>15</ele><time>2022-05-08T09:23:45.000Z</time></trkpt><trkpt lon="5.835185" lat="51.078344"><ele>15</ele><time>2022-05-08T09:23:46.000Z</time></trkpt><trkpt lon="5.835061" lat="51.078367"><ele>15</ele><time>2022-05-08T09:23:47.000Z</time></trkpt><trkpt lon="5.834946" lat="51.078389"><ele>15</ele><time>2022-05-08T09:23:48.000Z</time></trkpt><trkpt lon="5.834829" lat="51.078408"><ele>14.8</ele><time>2022-05-08T09:23:49.000Z</time></trkpt><trkpt lon="5.834701" lat="51.078427"><ele>14.8</ele><time>2022-05-08T09:23:50.000Z</time></trkpt><trkpt lon="5.834572" lat="51.078445"><ele>14.6</ele><time>2022-05-08T09:23:51.000Z</time></trkpt><trkpt lon="5.834448" lat="51.078462"><ele>14.2</ele><time>2022-05-08T09:23:52.000Z</time></trkpt><trkpt lon="5.834325" lat="51.078477"><ele>13.8</ele><time>2022-05-08T09:23:53.000Z</time></trkpt><trkpt lon="5.8342" lat="51.07849"><ele>13.4</ele><time>2022-05-08T09:23:54.000Z</time></trkpt><trkpt lon="5.834074" lat="51.078502"><ele>13.4</ele><time>2022-05-08T09:23:55.000Z</time></trkpt><trkpt lon="5.83395" lat="51.078513"><ele>13.2</ele><time>2022-05-08T09:23:56.000Z</time></trkpt><trkpt lon="5.833823" lat="51.078524"><ele>13</ele><time>2022-05-08T09:23:57.000Z</time></trkpt><trkpt lon="5.833698" lat="51.078531"><ele>12.8</ele><time>2022-05-08T09:23:58.000Z</time></trkpt><trkpt lon="5.833576" lat="51.078535"><ele>12.8</ele><time>2022-05-08T09:23:59.000Z</time></trkpt><trkpt lon="5.833455" lat="51.078539"><ele>12.8</ele><time>2022-05-08T09:24:00.000Z</time></trkpt><trkpt lon="5.83334" lat="51.078541"><ele>12.8</ele><time>2022-05-08T09:24:01.000Z</time></trkpt><trkpt lon="5.83323" lat="51.078541"><ele>13</ele><time>2022-05-08T09:24:02.000Z</time></trkpt><trkpt lon="5.833124" lat="51.078541"><ele>13.2</ele><time>2022-05-08T09:24:03.000Z</time></trkpt><trkpt lon="5.833018" lat="51.078539"><ele>13.4</ele><time>2022-05-08T09:24:04.000Z</time></trkpt><trkpt lon="5.832909" lat="51.078537"><ele>13.6</ele><time>2022-05-08T09:24:05.000Z</time></trkpt><trkpt lon="5.832802" lat="51.078535"><ele>13.6</ele><time>2022-05-08T09:24:06.000Z</time></trkpt><trkpt lon="5.832696" lat="51.078531"><ele>13.8</ele><time>2022-05-08T09:24:07.000Z</time></trkpt><trkpt lon="5.832594" lat="51.078527"><ele>14</ele><time>2022-05-08T09:24:08.000Z</time></trkpt><trkpt lon="5.832498" lat="51.078523"><ele>14.2</ele><time>2022-05-08T09:24:09.000Z</time></trkpt><trkpt lon="5.832408" lat="51.078519"><ele>14.6</ele><time>2022-05-08T09:24:10.000Z</time></trkpt><trkpt lon="5.832325" lat="51.078516"><ele>14.8</ele><time>2022-05-08T09:24:11.000Z</time></trkpt><trkpt lon="5.832246" lat="51.078512"><ele>15</ele><time>2022-05-08T09:24:12.000Z</time></trkpt><trkpt lon="5.832174" lat="51.078508"><ele>15.4</ele><time>2022-05-08T09:24:13.000Z</time></trkpt><trkpt lon="5.83211" lat="51.078506"><ele>15.4</ele><time>2022-05-08T09:24:14.000Z</time></trkpt><trkpt lon="5.83205" lat="51.078506"><ele>15.6</ele><time>2022-05-08T09:24:15.000Z</time></trkpt><trkpt lon="5.83199" lat="51.078504"><ele>16</ele><time>2022-05-08T09:24:16.000Z</time></trkpt><trkpt lon="5.831935" lat="51.078503"><ele>16.2</ele><time>2022-05-08T09:24:17.000Z</time></trkpt><trkpt lon="5.831883" lat="51.078503"><ele>16.4</ele><time>2022-05-08T09:24:18.000Z</time></trkpt><trkpt lon="5.831837" lat="51.078501"><ele>16.6</ele><time>2022-05-08T09:24:19.000Z</time></trkpt><trkpt lon="5.831798" lat="51.078497"><ele>16.8</ele><time>2022-05-08T09:24:20.000Z</time></trkpt><trkpt lon="5.831763" lat="51.078495"><ele>17</ele><time>2022-05-08T09:24:21.000Z</time></trkpt><trkpt lon="5.831729" lat="51.078497"><ele>17.2</ele><time>2022-05-08T09:24:22.000Z</time></trkpt><trkpt lon="5.831694" lat="51.078501"><ele>17.4</ele><time>2022-05-08T09:24:23.000Z</time></trkpt><trkpt lon="5.831656" lat="51.078507"><ele>17.6</ele><time>2022-05-08T09:24:24.000Z</time></trkpt><trkpt lon="5.83161" lat="51.078515"><ele>17.6</ele><time>2022-05-08T09:24:25.000Z</time></trkpt><trkpt lon="5.831554" lat="51.07852"><ele>17.6</ele><time>2022-05-08T09:24:26.000Z</time></trkpt><trkpt lon="5.831487" lat="51.078522"><ele>17.6</ele><time>2022-05-08T09:24:27.000Z</time></trkpt><trkpt lon="5.83141" lat="51.078517"><ele>17.6</ele><time>2022-05-08T09:24:28.000Z</time></trkpt><trkpt lon="5.831327" lat="51.07851"><ele>17.6</ele><time>2022-05-08T09:24:29.000Z</time></trkpt><trkpt lon="5.831237" lat="51.078504"><ele>17.6</ele><time>2022-05-08T09:24:30.000Z</time></trkpt><trkpt lon="5.831139" lat="51.078498"><ele>18</ele><time>2022-05-08T09:24:31.000Z</time></trkpt><trkpt lon="5.831037" lat="51.078495"><ele>18.2</ele><time>2022-05-08T09:24:32.000Z</time></trkpt><trkpt lon="5.830932" lat="51.078493"><ele>18.6</ele><time>2022-05-08T09:24:33.000Z</time></trkpt><trkpt lon="5.830828" lat="51.078491"><ele>18.8</ele><time>2022-05-08T09:24:34.000Z</time></trkpt><trkpt lon="5.830719" lat="51.078491"><ele>19.2</ele><time>2022-05-08T09:24:35.000Z</time></trkpt><trkpt lon="5.830611" lat="51.078491"><ele>19.4</ele><time>2022-05-08T09:24:36.000Z</time></trkpt><trkpt lon="5.830503" lat="51.078493"><ele>19.8</ele><time>2022-05-08T09:24:37.000Z</time></trkpt><trkpt lon="5.830393" lat="51.078495"><ele>20</ele><time>2022-05-08T09:24:38.000Z</time></trkpt><trkpt lon="5.830283" lat="51.078495"><ele>20.2</ele><time>2022-05-08T09:24:39.000Z</time></trkpt><trkpt lon="5.830176" lat="51.078495"><ele>20.4</ele><time>2022-05-08T09:24:40.000Z</time></trkpt><trkpt lon="5.830069" lat="51.078495"><ele>20.6</ele><time>2022-05-08T09:24:41.000Z</time></trkpt><trkpt lon="5.82996" lat="51.078497"><ele>21</ele><time>2022-05-08T09:24:42.000Z</time></trkpt><trkpt lon="5.829849" lat="51.078499"><ele>21.2</ele><time>2022-05-08T09:24:43.000Z</time></trkpt><trkpt lon="5.829737" lat="51.078501"><ele>21.4</ele><time>2022-05-08T09:24:44.000Z</time></trkpt><trkpt lon="5.829621" lat="51.078505"><ele>21.6</ele><time>2022-05-08T09:24:45.000Z</time></trkpt><trkpt lon="5.829504" lat="51.078511"><ele>22</ele><time>2022-05-08T09:24:46.000Z</time></trkpt><trkpt lon="5.829391" lat="51.078519"><ele>22.2</ele><time>2022-05-08T09:24:47.000Z</time></trkpt><trkpt lon="5.829291" lat="51.078526"><ele>22.4</ele><time>2022-05-08T09:24:48.000Z</time></trkpt><trkpt lon="5.829189" lat="51.078533"><ele>22.6</ele><time>2022-05-08T09:24:49.000Z</time></trkpt><trkpt lon="5.82909" lat="51.078543"><ele>23</ele><time>2022-05-08T09:24:50.000Z</time></trkpt><trkpt lon="5.828995" lat="51.078554"><ele>23.2</ele><time>2022-05-08T09:24:51.000Z</time></trkpt><trkpt lon="5.828888" lat="51.078566"><ele>23.6</ele><time>2022-05-08T09:24:52.000Z</time></trkpt><trkpt lon="5.828785" lat="51.07858"><ele>23.8</ele><time>2022-05-08T09:24:53.000Z</time></trkpt><trkpt lon="5.828688" lat="51.078595"><ele>24</ele><time>2022-05-08T09:24:54.000Z</time></trkpt><trkpt lon="5.828589" lat="51.078613"><ele>24.2</ele><time>2022-05-08T09:24:55.000Z</time></trkpt><trkpt lon="5.828489" lat="51.07863"><ele>24.4</ele><time>2022-05-08T09:24:56.000Z</time></trkpt><trkpt lon="5.828391" lat="51.078647"><ele>24.6</ele><time>2022-05-08T09:24:57.000Z</time></trkpt><trkpt lon="5.828291" lat="51.078666"><ele>24.8</ele><time>2022-05-08T09:24:58.000Z</time></trkpt><trkpt lon="5.828191" lat="51.078686"><ele>25</ele><time>2022-05-08T09:24:59.000Z</time></trkpt><trkpt lon="5.82809" lat="51.078705"><ele>25.4</ele><time>2022-05-08T09:25:00.000Z</time></trkpt><trkpt lon="5.827986" lat="51.078724"><ele>25.6</ele><time>2022-05-08T09:25:01.000Z</time></trkpt><trkpt lon="5.827885" lat="51.078743"><ele>25.8</ele><time>2022-05-08T09:25:02.000Z</time></trkpt><trkpt lon="5.827786" lat="51.078762"><ele>26</ele><time>2022-05-08T09:25:03.000Z</time></trkpt><trkpt lon="5.827688" lat="51.078783"><ele>26.2</ele><time>2022-05-08T09:25:04.000Z</time></trkpt><trkpt lon="5.827592" lat="51.078808"><ele>26.4</ele><time>2022-05-08T09:25:05.000Z</time></trkpt><trkpt lon="5.827501" lat="51.078834"><ele>26.6</ele><time>2022-05-08T09:25:06.000Z</time></trkpt><trkpt lon="5.827409" lat="51.078861"><ele>26.8</ele><time>2022-05-08T09:25:07.000Z</time></trkpt><trkpt lon="5.827316" lat="51.078888"><ele>27</ele><time>2022-05-08T09:25:08.000Z</time></trkpt><trkpt lon="5.827224" lat="51.078917"><ele>27.2</ele><time>2022-05-08T09:25:09.000Z</time></trkpt><trkpt lon="5.827131" lat="51.078945"><ele>27.4</ele><time>2022-05-08T09:25:10.000Z</time></trkpt><trkpt lon="5.82704" lat="51.078974"><ele>27.6</ele><time>2022-05-08T09:25:11.000Z</time></trkpt><trkpt lon="5.826951" lat="51.079004"><ele>27.8</ele><time>2022-05-08T09:25:12.000Z</time></trkpt><trkpt lon="5.82686" lat="51.079035"><ele>27.8</ele><time>2022-05-08T09:25:13.000Z</time></trkpt><trkpt lon="5.82677" lat="51.079065"><ele>28</ele><time>2022-05-08T09:25:14.000Z</time></trkpt><trkpt lon="5.826683" lat="51.079096"><ele>28.2</ele><time>2022-05-08T09:25:15.000Z</time></trkpt><trkpt lon="5.826597" lat="51.079126"><ele>28.2</ele><time>2022-05-08T09:25:16.000Z</time></trkpt><trkpt lon="5.826508" lat="51.079157"><ele>28.4</ele><time>2022-05-08T09:25:17.000Z</time></trkpt><trkpt lon="5.82642" lat="51.079186"><ele>28.6</ele><time>2022-05-08T09:25:18.000Z</time></trkpt><trkpt lon="5.826332" lat="51.079215"><ele>28.6</ele><time>2022-05-08T09:25:19.000Z</time></trkpt><trkpt lon="5.826246" lat="51.079244"><ele>28.8</ele><time>2022-05-08T09:25:20.000Z</time></trkpt><trkpt lon="5.826158" lat="51.079275"><ele>28.6</ele><time>2022-05-08T09:25:21.000Z</time></trkpt><trkpt lon="5.82607" lat="51.079304"><ele>28.6</ele><time>2022-05-08T09:25:22.000Z</time></trkpt><trkpt lon="5.825985" lat="51.079333"><ele>28.6</ele><time>2022-05-08T09:25:23.000Z</time></trkpt><trkpt lon="5.825898" lat="51.079363"><ele>28.6</ele><time>2022-05-08T09:25:24.000Z</time></trkpt><trkpt lon="5.825812" lat="51.079394"><ele>28.8</ele><time>2022-05-08T09:25:25.000Z</time></trkpt><trkpt lon="5.825728" lat="51.079422"><ele>28.6</ele><time>2022-05-08T09:25:26.000Z</time></trkpt><trkpt lon="5.825645" lat="51.079451"><ele>28.8</ele><time>2022-05-08T09:25:27.000Z</time></trkpt><trkpt lon="5.825562" lat="51.07948"><ele>28.8</ele><time>2022-05-08T09:25:28.000Z</time></trkpt><trkpt lon="5.825481" lat="51.079506"><ele>28.8</ele><time>2022-05-08T09:25:29.000Z</time></trkpt><trkpt lon="5.825401" lat="51.079533"><ele>28.8</ele><time>2022-05-08T09:25:30.000Z</time></trkpt><trkpt lon="5.825318" lat="51.079562"><ele>28.8</ele><time>2022-05-08T09:25:31.000Z</time></trkpt><trkpt lon="5.825235" lat="51.07959"><ele>28.8</ele><time>2022-05-08T09:25:32.000Z</time></trkpt><trkpt lon="5.82515" lat="51.079617"><ele>28.8</ele><time>2022-05-08T09:25:33.000Z</time></trkpt><trkpt lon="5.825063" lat="51.079643"><ele>29</ele><time>2022-05-08T09:25:34.000Z</time></trkpt><trkpt lon="5.824972" lat="51.079672"><ele>29</ele><time>2022-05-08T09:25:35.000Z</time></trkpt><trkpt lon="5.824879" lat="51.079705"><ele>29.2</ele><time>2022-05-08T09:25:36.000Z</time></trkpt><trkpt lon="5.82479" lat="51.079738"><ele>29.2</ele><time>2022-05-08T09:25:37.000Z</time></trkpt><trkpt lon="5.8247" lat="51.079772"><ele>29.4</ele><time>2022-05-08T09:25:38.000Z</time></trkpt><trkpt lon="5.824604" lat="51.079805"><ele>29.4</ele><time>2022-05-08T09:25:39.000Z</time></trkpt><trkpt lon="5.824509" lat="51.07984"><ele>29.2</ele><time>2022-05-08T09:25:40.000Z</time></trkpt><trkpt lon="5.824415" lat="51.079876"><ele>29.2</ele><time>2022-05-08T09:25:41.000Z</time></trkpt><trkpt lon="5.82432" lat="51.079911"><ele>29</ele><time>2022-05-08T09:25:42.000Z</time></trkpt><trkpt lon="5.824222" lat="51.079945"><ele>29</ele><time>2022-05-08T09:25:43.000Z</time></trkpt><trkpt lon="5.824122" lat="51.07998"><ele>28.8</ele><time>2022-05-08T09:25:44.000Z</time></trkpt><trkpt lon="5.824022" lat="51.080016"><ele>28.8</ele><time>2022-05-08T09:25:45.000Z</time></trkpt><trkpt lon="5.82392" lat="51.080055"><ele>28.6</ele><time>2022-05-08T09:25:46.000Z</time></trkpt><trkpt lon="5.823819" lat="51.080093"><ele>28.4</ele><time>2022-05-08T09:25:47.000Z</time></trkpt><trkpt lon="5.82372" lat="51.080129"><ele>28</ele><time>2022-05-08T09:25:48.000Z</time></trkpt><trkpt lon="5.823621" lat="51.080166"><ele>27.8</ele><time>2022-05-08T09:25:49.000Z</time></trkpt><trkpt lon="5.823521" lat="51.080201"><ele>27.4</ele><time>2022-05-08T09:25:50.000Z</time></trkpt><trkpt lon="5.823419" lat="51.080235"><ele>27</ele><time>2022-05-08T09:25:51.000Z</time></trkpt><trkpt lon="5.823315" lat="51.080272"><ele>26.8</ele><time>2022-05-08T09:25:52.000Z</time></trkpt><trkpt lon="5.82321" lat="51.080308"><ele>26.6</ele><time>2022-05-08T09:25:53.000Z</time></trkpt><trkpt lon="5.823103" lat="51.080344"><ele>26.4</ele><time>2022-05-08T09:25:54.000Z</time></trkpt><trkpt lon="5.822993" lat="51.080382"><ele>26.2</ele><time>2022-05-08T09:25:55.000Z</time></trkpt><trkpt lon="5.822882" lat="51.08042"><ele>26</ele><time>2022-05-08T09:25:56.000Z</time></trkpt><trkpt lon="5.822769" lat="51.080457"><ele>25.6</ele><time>2022-05-08T09:25:57.000Z</time></trkpt><trkpt lon="5.822654" lat="51.080493"><ele>25.4</ele><time>2022-05-08T09:25:58.000Z</time></trkpt><trkpt lon="5.822534" lat="51.080531"><ele>25.2</ele><time>2022-05-08T09:25:59.000Z</time></trkpt><trkpt lon="5.822408" lat="51.080567"><ele>24.8</ele><time>2022-05-08T09:26:00.000Z</time></trkpt><trkpt lon="5.822286" lat="51.080602"><ele>24.6</ele><time>2022-05-08T09:26:01.000Z</time></trkpt><trkpt lon="5.822153" lat="51.080635"><ele>24.2</ele><time>2022-05-08T09:26:02.000Z</time></trkpt><trkpt lon="5.822008" lat="51.08067"><ele>23.8</ele><time>2022-05-08T09:26:03.000Z</time></trkpt><trkpt lon="5.821866" lat="51.080702"><ele>23.4</ele><time>2022-05-08T09:26:04.000Z</time></trkpt><trkpt lon="5.821725" lat="51.08073"><ele>23</ele><time>2022-05-08T09:26:05.000Z</time></trkpt><trkpt lon="5.821581" lat="51.080757"><ele>22.4</ele><time>2022-05-08T09:26:06.000Z</time></trkpt><trkpt lon="5.821434" lat="51.080782"><ele>22.2</ele><time>2022-05-08T09:26:07.000Z</time></trkpt><trkpt lon="5.82129" lat="51.080806"><ele>21.8</ele><time>2022-05-08T09:26:08.000Z</time></trkpt><trkpt lon="5.82114" lat="51.080827"><ele>21.4</ele><time>2022-05-08T09:26:09.000Z</time></trkpt><trkpt lon="5.820992" lat="51.080851"><ele>21</ele><time>2022-05-08T09:26:10.000Z</time></trkpt><trkpt lon="5.820842" lat="51.080868"><ele>20.6</ele><time>2022-05-08T09:26:11.000Z</time></trkpt><trkpt lon="5.820695" lat="51.08088"><ele>20.2</ele><time>2022-05-08T09:26:12.000Z</time></trkpt><trkpt lon="5.820554" lat="51.080898"><ele>19.8</ele><time>2022-05-08T09:26:13.000Z</time></trkpt><trkpt lon="5.820413" lat="51.080915"><ele>19.4</ele><time>2022-05-08T09:26:14.000Z</time></trkpt><trkpt lon="5.820272" lat="51.080928"><ele>19</ele><time>2022-05-08T09:26:15.000Z</time></trkpt><trkpt lon="5.820132" lat="51.080941"><ele>18.6</ele><time>2022-05-08T09:26:16.000Z</time></trkpt><trkpt lon="5.819993" lat="51.080954"><ele>18.4</ele><time>2022-05-08T09:26:17.000Z</time></trkpt><trkpt lon="5.819854" lat="51.080962"><ele>18.2</ele><time>2022-05-08T09:26:18.000Z</time></trkpt><trkpt lon="5.819712" lat="51.08097"><ele>17.8</ele><time>2022-05-08T09:26:19.000Z</time></trkpt><trkpt lon="5.819566" lat="51.080977"><ele>17.6</ele><time>2022-05-08T09:26:20.000Z</time></trkpt><trkpt lon="5.81942" lat="51.080983"><ele>17.2</ele><time>2022-05-08T09:26:21.000Z</time></trkpt><trkpt lon="5.819264" lat="51.080988"><ele>16.8</ele><time>2022-05-08T09:26:22.000Z</time></trkpt><trkpt lon="5.819105" lat="51.08099"><ele>16.4</ele><time>2022-05-08T09:26:23.000Z</time></trkpt><trkpt lon="5.81896" lat="51.08099"><ele>16.2</ele><time>2022-05-08T09:26:24.000Z</time></trkpt><trkpt lon="5.818818" lat="51.08099"><ele>16</ele><time>2022-05-08T09:26:25.000Z</time></trkpt><trkpt lon="5.81867" lat="51.080994"><ele>15.8</ele><time>2022-05-08T09:26:26.000Z</time></trkpt><trkpt lon="5.818521" lat="51.081002"><ele>15.4</ele><time>2022-05-08T09:26:27.000Z</time></trkpt><trkpt lon="5.818373" lat="51.081012"><ele>15.2</ele><time>2022-05-08T09:26:28.000Z</time></trkpt><trkpt lon="5.818222" lat="51.081023"><ele>14.8</ele><time>2022-05-08T09:26:29.000Z</time></trkpt><trkpt lon="5.818071" lat="51.081037"><ele>14.6</ele><time>2022-05-08T09:26:30.000Z</time></trkpt><trkpt lon="5.817927" lat="51.081048"><ele>14.4</ele><time>2022-05-08T09:26:31.000Z</time></trkpt><trkpt lon="5.817784" lat="51.081055"><ele>14</ele><time>2022-05-08T09:26:32.000Z</time></trkpt><trkpt lon="5.817641" lat="51.081063"><ele>13.8</ele><time>2022-05-08T09:26:33.000Z</time></trkpt><trkpt lon="5.817505" lat="51.08107"><ele>13.6</ele><time>2022-05-08T09:26:34.000Z</time></trkpt><trkpt lon="5.817364" lat="51.08108"><ele>13.6</ele><time>2022-05-08T09:26:35.000Z</time></trkpt><trkpt lon="5.817225" lat="51.08109"><ele>13.6</ele><time>2022-05-08T09:26:36.000Z</time></trkpt><trkpt lon="5.817093" lat="51.081097"><ele>13.6</ele><time>2022-05-08T09:26:37.000Z</time></trkpt><trkpt lon="5.816966" lat="51.081103"><ele>13.6</ele><time>2022-05-08T09:26:38.000Z</time></trkpt><trkpt lon="5.816842" lat="51.081106"><ele>13.6</ele><time>2022-05-08T09:26:39.000Z</time></trkpt><trkpt lon="5.816726" lat="51.081112"><ele>13.6</ele><time>2022-05-08T09:26:40.000Z</time></trkpt><trkpt lon="5.816609" lat="51.081122"><ele>13.6</ele><time>2022-05-08T09:26:41.000Z</time></trkpt><trkpt lon="5.816485" lat="51.081136"><ele>13.6</ele><time>2022-05-08T09:26:42.000Z</time></trkpt><trkpt lon="5.816361" lat="51.081154"><ele>13.4</ele><time>2022-05-08T09:26:43.000Z</time></trkpt><trkpt lon="5.816233" lat="51.08117"><ele>13.4</ele><time>2022-05-08T09:26:44.000Z</time></trkpt><trkpt lon="5.816104" lat="51.081185"><ele>13.4</ele><time>2022-05-08T09:26:45.000Z</time></trkpt><trkpt lon="5.815973" lat="51.081201"><ele>13.4</ele><time>2022-05-08T09:26:46.000Z</time></trkpt><trkpt lon="5.815841" lat="51.081221"><ele>13.4</ele><time>2022-05-08T09:26:47.000Z</time></trkpt><trkpt lon="5.815713" lat="51.081239"><ele>13.4</ele><time>2022-05-08T09:26:48.000Z</time></trkpt><trkpt lon="5.815588" lat="51.081256"><ele>13.4</ele><time>2022-05-08T09:26:49.000Z</time></trkpt><trkpt lon="5.815466" lat="51.08128"><ele>13.4</ele><time>2022-05-08T09:26:50.000Z</time></trkpt><trkpt lon="5.815346" lat="51.081304"><ele>13.6</ele><time>2022-05-08T09:26:51.000Z</time></trkpt><trkpt lon="5.815222" lat="51.081329"><ele>13.6</ele><time>2022-05-08T09:26:52.000Z</time></trkpt><trkpt lon="5.815102" lat="51.081354"><ele>13.6</ele><time>2022-05-08T09:26:53.000Z</time></trkpt><trkpt lon="5.814983" lat="51.081379"><ele>13.6</ele><time>2022-05-08T09:26:54.000Z</time></trkpt><trkpt lon="5.814869" lat="51.081403"><ele>13.4</ele><time>2022-05-08T09:26:55.000Z</time></trkpt><trkpt lon="5.814756" lat="51.081429"><ele>13.4</ele><time>2022-05-08T09:26:56.000Z</time></trkpt><trkpt lon="5.814638" lat="51.081459"><ele>13.2</ele><time>2022-05-08T09:26:57.000Z</time></trkpt><trkpt lon="5.814522" lat="51.081486"><ele>13.2</ele><time>2022-05-08T09:26:58.000Z</time></trkpt><trkpt lon="5.814408" lat="51.081515"><ele>13.2</ele><time>2022-05-08T09:26:59.000Z</time></trkpt><trkpt lon="5.8143" lat="51.081542"><ele>13.2</ele><time>2022-05-08T09:27:00.000Z</time></trkpt><trkpt lon="5.81419" lat="51.081569"><ele>13.2</ele><time>2022-05-08T09:27:01.000Z</time></trkpt><trkpt lon="5.81408" lat="51.081596"><ele>13.2</ele><time>2022-05-08T09:27:02.000Z</time></trkpt><trkpt lon="5.813974" lat="51.081621"><ele>13.2</ele><time>2022-05-08T09:27:03.000Z</time></trkpt><trkpt lon="5.813871" lat="51.081646"><ele>13.2</ele><time>2022-05-08T09:27:04.000Z</time></trkpt><trkpt lon="5.81377" lat="51.081671"><ele>13.4</ele><time>2022-05-08T09:27:05.000Z</time></trkpt><trkpt lon="5.813673" lat="51.081696"><ele>13.4</ele><time>2022-05-08T09:27:06.000Z</time></trkpt><trkpt lon="5.813579" lat="51.081722"><ele>13.4</ele><time>2022-05-08T09:27:07.000Z</time></trkpt><trkpt lon="5.813487" lat="51.081747"><ele>13.4</ele><time>2022-05-08T09:27:08.000Z</time></trkpt><trkpt lon="5.813402" lat="51.081774"><ele>13.4</ele><time>2022-05-08T09:27:09.000Z</time></trkpt><trkpt lon="5.813331" lat="51.081807"><ele>13.4</ele><time>2022-05-08T09:27:10.000Z</time></trkpt><trkpt lon="5.813281" lat="51.081845"><ele>13.4</ele><time>2022-05-08T09:27:11.000Z</time></trkpt><trkpt lon="5.813247" lat="51.081887"><ele>13.4</ele><time>2022-05-08T09:27:12.000Z</time></trkpt><trkpt lon="5.813221" lat="51.08193"><ele>13.4</ele><time>2022-05-08T09:27:13.000Z</time></trkpt><trkpt lon="5.813195" lat="51.081967"><ele>13.4</ele><time>2022-05-08T09:27:14.000Z</time></trkpt><trkpt lon="5.813162" lat="51.081997"><ele>13.4</ele><time>2022-05-08T09:27:15.000Z</time></trkpt><trkpt lon="5.813117" lat="51.082026"><ele>13.4</ele><time>2022-05-08T09:27:16.000Z</time></trkpt><trkpt lon="5.813058" lat="51.08205"><ele>13.6</ele><time>2022-05-08T09:27:17.000Z</time></trkpt><trkpt lon="5.812986" lat="51.082058"><ele>13.6</ele><time>2022-05-08T09:27:18.000Z</time></trkpt><trkpt lon="5.812906" lat="51.082051"><ele>13.6</ele><time>2022-05-08T09:27:19.000Z</time></trkpt><trkpt lon="5.812819" lat="51.082038"><ele>13.4</ele><time>2022-05-08T09:27:20.000Z</time></trkpt><trkpt lon="5.812724" lat="51.08202"><ele>13.4</ele><time>2022-05-08T09:27:21.000Z</time></trkpt><trkpt lon="5.812622" lat="51.082003"><ele>13.2</ele><time>2022-05-08T09:27:22.000Z</time></trkpt><trkpt lon="5.812514" lat="51.081997"><ele>13.2</ele><time>2022-05-08T09:27:23.000Z</time></trkpt><trkpt lon="5.812401" lat="51.082003"><ele>13.4</ele><time>2022-05-08T09:27:24.000Z</time></trkpt><trkpt lon="5.812284" lat="51.082022"><ele>13.4</ele><time>2022-05-08T09:27:25.000Z</time></trkpt><trkpt lon="5.812166" lat="51.082047"><ele>13.4</ele><time>2022-05-08T09:27:26.000Z</time></trkpt><trkpt lon="5.81205" lat="51.082073"><ele>13.4</ele><time>2022-05-08T09:27:27.000Z</time></trkpt><trkpt lon="5.811935" lat="51.082102"><ele>13.4</ele><time>2022-05-08T09:27:28.000Z</time></trkpt><trkpt lon="5.811821" lat="51.08213"><ele>13.4</ele><time>2022-05-08T09:27:29.000Z</time></trkpt><trkpt lon="5.811709" lat="51.082157"><ele>13.2</ele><time>2022-05-08T09:27:30.000Z</time></trkpt><trkpt lon="5.811597" lat="51.082182"><ele>13.4</ele><time>2022-05-08T09:27:31.000Z</time></trkpt><trkpt lon="5.811486" lat="51.082207"><ele>13.4</ele><time>2022-05-08T09:27:32.000Z</time></trkpt><trkpt lon="5.811375" lat="51.082236"><ele>13.4</ele><time>2022-05-08T09:27:33.000Z</time></trkpt><trkpt lon="5.811264" lat="51.082264"><ele>13.4</ele><time>2022-05-08T09:27:34.000Z</time></trkpt><trkpt lon="5.811157" lat="51.082291"><ele>13.4</ele><time>2022-05-08T09:27:35.000Z</time></trkpt><trkpt lon="5.811052" lat="51.082317"><ele>13.4</ele><time>2022-05-08T09:27:36.000Z</time></trkpt><trkpt lon="5.810949" lat="51.082346"><ele>13.4</ele><time>2022-05-08T09:27:37.000Z</time></trkpt><trkpt lon="5.810845" lat="51.082377"><ele>13.4</ele><time>2022-05-08T09:27:38.000Z</time></trkpt><trkpt lon="5.810743" lat="51.082409"><ele>13.4</ele><time>2022-05-08T09:27:39.000Z</time></trkpt><trkpt lon="5.810639" lat="51.082443"><ele>13.4</ele><time>2022-05-08T09:27:40.000Z</time></trkpt><trkpt lon="5.810535" lat="51.08248"><ele>13.4</ele><time>2022-05-08T09:27:41.000Z</time></trkpt><trkpt lon="5.810434" lat="51.082521"><ele>13.4</ele><time>2022-05-08T09:27:42.000Z</time></trkpt><trkpt lon="5.810335" lat="51.082563"><ele>13.4</ele><time>2022-05-08T09:27:43.000Z</time></trkpt><trkpt lon="5.81024" lat="51.082609"><ele>13.6</ele><time>2022-05-08T09:27:44.000Z</time></trkpt><trkpt lon="5.810148" lat="51.082659"><ele>13.6</ele><time>2022-05-08T09:27:45.000Z</time></trkpt><trkpt lon="5.810059" lat="51.082711"><ele>13.8</ele><time>2022-05-08T09:27:46.000Z</time></trkpt><trkpt lon="5.809972" lat="51.082764"><ele>13.8</ele><time>2022-05-08T09:27:47.000Z</time></trkpt><trkpt lon="5.809891" lat="51.082815"><ele>13.8</ele><time>2022-05-08T09:27:48.000Z</time></trkpt><trkpt lon="5.809808" lat="51.082872"><ele>13.6</ele><time>2022-05-08T09:27:49.000Z</time></trkpt><trkpt lon="5.809719" lat="51.082933"><ele>13.6</ele><time>2022-05-08T09:27:50.000Z</time></trkpt><trkpt lon="5.809635" lat="51.082991"><ele>13.6</ele><time>2022-05-08T09:27:51.000Z</time></trkpt><trkpt lon="5.809551" lat="51.083049"><ele>13.6</ele><time>2022-05-08T09:27:52.000Z</time></trkpt><trkpt lon="5.809468" lat="51.083106"><ele>13.6</ele><time>2022-05-08T09:27:53.000Z</time></trkpt><trkpt lon="5.809386" lat="51.083161"><ele>13.8</ele><time>2022-05-08T09:27:54.000Z</time></trkpt><trkpt lon="5.809304" lat="51.083214"><ele>13.8</ele><time>2022-05-08T09:27:55.000Z</time></trkpt><trkpt lon="5.809224" lat="51.08327"><ele>13.8</ele><time>2022-05-08T09:27:56.000Z</time></trkpt><trkpt lon="5.809144" lat="51.083326"><ele>13.8</ele><time>2022-05-08T09:27:57.000Z</time></trkpt><trkpt lon="5.809061" lat="51.083381"><ele>13.8</ele><time>2022-05-08T09:27:58.000Z</time></trkpt><trkpt lon="5.808973" lat="51.083437"><ele>13.8</ele><time>2022-05-08T09:27:59.000Z</time></trkpt><trkpt lon="5.808883" lat="51.083495"><ele>13.8</ele><time>2022-05-08T09:28:00.000Z</time></trkpt><trkpt lon="5.808793" lat="51.083551"><ele>13.6</ele><time>2022-05-08T09:28:01.000Z</time></trkpt><trkpt lon="5.8087" lat="51.083608"><ele>13.4</ele><time>2022-05-08T09:28:02.000Z</time></trkpt><trkpt lon="5.808609" lat="51.083666"><ele>13.4</ele><time>2022-05-08T09:28:03.000Z</time></trkpt><trkpt lon="5.808518" lat="51.083723"><ele>13.6</ele><time>2022-05-08T09:28:04.000Z</time></trkpt><trkpt lon="5.808429" lat="51.083777"><ele>13.6</ele><time>2022-05-08T09:28:05.000Z</time></trkpt><trkpt lon="5.808341" lat="51.083828"><ele>13.8</ele><time>2022-05-08T09:28:06.000Z</time></trkpt><trkpt lon="5.808255" lat="51.08388"><ele>14</ele><time>2022-05-08T09:28:07.000Z</time></trkpt><trkpt lon="5.808173" lat="51.083931"><ele>14</ele><time>2022-05-08T09:28:08.000Z</time></trkpt><trkpt lon="5.80809" lat="51.083985"><ele>14.2</ele><time>2022-05-08T09:28:09.000Z</time></trkpt><trkpt lon="5.808002" lat="51.084038"><ele>14</ele><time>2022-05-08T09:28:10.000Z</time></trkpt><trkpt lon="5.807913" lat="51.084089"><ele>14</ele><time>2022-05-08T09:28:11.000Z</time></trkpt><trkpt lon="5.807823" lat="51.084141"><ele>14</ele><time>2022-05-08T09:28:12.000Z</time></trkpt><trkpt lon="5.807733" lat="51.084192"><ele>13.8</ele><time>2022-05-08T09:28:13.000Z</time></trkpt><trkpt lon="5.807643" lat="51.084244"><ele>13.6</ele><time>2022-05-08T09:28:14.000Z</time></trkpt><trkpt lon="5.807553" lat="51.084293"><ele>13.4</ele><time>2022-05-08T09:28:15.000Z</time></trkpt><trkpt lon="5.807463" lat="51.084341"><ele>13.2</ele><time>2022-05-08T09:28:16.000Z</time></trkpt><trkpt lon="5.807373" lat="51.084391"><ele>13.2</ele><time>2022-05-08T09:28:17.000Z</time></trkpt><trkpt lon="5.807283" lat="51.084438"><ele>13.2</ele><time>2022-05-08T09:28:18.000Z</time></trkpt><trkpt lon="5.807194" lat="51.084485"><ele>13.2</ele><time>2022-05-08T09:28:19.000Z</time></trkpt><trkpt lon="5.807103" lat="51.084535"><ele>13.2</ele><time>2022-05-08T09:28:20.000Z</time></trkpt><trkpt lon="5.807013" lat="51.084583"><ele>13.2</ele><time>2022-05-08T09:28:21.000Z</time></trkpt><trkpt lon="5.806925" lat="51.084629"><ele>13.2</ele><time>2022-05-08T09:28:22.000Z</time></trkpt><trkpt lon="5.806836" lat="51.084677"><ele>13.2</ele><time>2022-05-08T09:28:23.000Z</time></trkpt><trkpt lon="5.806747" lat="51.084724"><ele>13.4</ele><time>2022-05-08T09:28:24.000Z</time></trkpt><trkpt lon="5.806657" lat="51.084769"><ele>13.4</ele><time>2022-05-08T09:28:25.000Z</time></trkpt><trkpt lon="5.806566" lat="51.084815"><ele>13.6</ele><time>2022-05-08T09:28:26.000Z</time></trkpt><trkpt lon="5.806476" lat="51.084866"><ele>13.6</ele><time>2022-05-08T09:28:27.000Z</time></trkpt><trkpt lon="5.806386" lat="51.084917"><ele>13.6</ele><time>2022-05-08T09:28:28.000Z</time></trkpt><trkpt lon="5.806295" lat="51.084966"><ele>13.6</ele><time>2022-05-08T09:28:29.000Z</time></trkpt><trkpt lon="5.806202" lat="51.085014"><ele>13.6</ele><time>2022-05-08T09:28:30.000Z</time></trkpt><trkpt lon="5.80611" lat="51.085062"><ele>13.4</ele><time>2022-05-08T09:28:31.000Z</time></trkpt><trkpt lon="5.806018" lat="51.085112"><ele>13.4</ele><time>2022-05-08T09:28:32.000Z</time></trkpt><trkpt lon="5.805924" lat="51.085161"><ele>13.4</ele><time>2022-05-08T09:28:33.000Z</time></trkpt><trkpt lon="5.805831" lat="51.085213"><ele>13.4</ele><time>2022-05-08T09:28:34.000Z</time></trkpt><trkpt lon="5.805741" lat="51.085269"><ele>13.4</ele><time>2022-05-08T09:28:35.000Z</time></trkpt><trkpt lon="5.805654" lat="51.085324"><ele>13.2</ele><time>2022-05-08T09:28:36.000Z</time></trkpt><trkpt lon="5.805571" lat="51.085379"><ele>13.2</ele><time>2022-05-08T09:28:37.000Z</time></trkpt><trkpt lon="5.805488" lat="51.085434"><ele>13</ele><time>2022-05-08T09:28:38.000Z</time></trkpt><trkpt lon="5.805408" lat="51.08549"><ele>13</ele><time>2022-05-08T09:28:39.000Z</time></trkpt><trkpt lon="5.805333" lat="51.085549"><ele>13.2</ele><time>2022-05-08T09:28:40.000Z</time></trkpt><trkpt lon="5.80526" lat="51.08561"><ele>13.2</ele><time>2022-05-08T09:28:41.000Z</time></trkpt><trkpt lon="5.805192" lat="51.085671"><ele>13.4</ele><time>2022-05-08T09:28:42.000Z</time></trkpt><trkpt lon="5.805126" lat="51.08573"><ele>13.4</ele><time>2022-05-08T09:28:43.000Z</time></trkpt><trkpt lon="5.805063" lat="51.085788"><ele>13.4</ele><time>2022-05-08T09:28:44.000Z</time></trkpt><trkpt lon="5.805" lat="51.085849"><ele>13.4</ele><time>2022-05-08T09:28:45.000Z</time></trkpt><trkpt lon="5.804937" lat="51.085912"><ele>13.6</ele><time>2022-05-08T09:28:46.000Z</time></trkpt><trkpt lon="5.804873" lat="51.085973"><ele>13.6</ele><time>2022-05-08T09:28:47.000Z</time></trkpt><trkpt lon="5.804812" lat="51.086033"><ele>13.8</ele><time>2022-05-08T09:28:48.000Z</time></trkpt><trkpt lon="5.804749" lat="51.086094"><ele>13.8</ele><time>2022-05-08T09:28:49.000Z</time></trkpt><trkpt lon="5.804686" lat="51.086156"><ele>14</ele><time>2022-05-08T09:28:50.000Z</time></trkpt><trkpt lon="5.804624" lat="51.086219"><ele>14</ele><time>2022-05-08T09:28:51.000Z</time></trkpt><trkpt lon="5.804559" lat="51.086282"><ele>14</ele><time>2022-05-08T09:28:52.000Z</time></trkpt><trkpt lon="5.804494" lat="51.086343"><ele>14</ele><time>2022-05-08T09:28:53.000Z</time></trkpt><trkpt lon="5.80443" lat="51.086406"><ele>13.8</ele><time>2022-05-08T09:28:54.000Z</time></trkpt><trkpt lon="5.804365" lat="51.086468"><ele>13.8</ele><time>2022-05-08T09:28:55.000Z</time></trkpt><trkpt lon="5.804294" lat="51.086531"><ele>13.4</ele><time>2022-05-08T09:28:56.000Z</time></trkpt><trkpt lon="5.804222" lat="51.086596"><ele>13.4</ele><time>2022-05-08T09:28:57.000Z</time></trkpt><trkpt lon="5.804151" lat="51.086663"><ele>13.4</ele><time>2022-05-08T09:28:58.000Z</time></trkpt><trkpt lon="5.80408" lat="51.08673"><ele>13.4</ele><time>2022-05-08T09:28:59.000Z</time></trkpt><trkpt lon="5.804011" lat="51.086795"><ele>13.2</ele><time>2022-05-08T09:29:00.000Z</time></trkpt><trkpt lon="5.803946" lat="51.086858"><ele>13.2</ele><time>2022-05-08T09:29:01.000Z</time></trkpt><trkpt lon="5.803882" lat="51.086919"><ele>13</ele><time>2022-05-08T09:29:02.000Z</time></trkpt><trkpt lon="5.80382" lat="51.086977"><ele>12.8</ele><time>2022-05-08T09:29:03.000Z</time></trkpt><trkpt lon="5.803758" lat="51.087037"><ele>12.8</ele><time>2022-05-08T09:29:04.000Z</time></trkpt><trkpt lon="5.803696" lat="51.087096"><ele>13</ele><time>2022-05-08T09:29:05.000Z</time></trkpt><trkpt lon="5.803635" lat="51.087155"><ele>12.8</ele><time>2022-05-08T09:29:06.000Z</time></trkpt><trkpt lon="5.803574" lat="51.087214"><ele>12.8</ele><time>2022-05-08T09:29:07.000Z</time></trkpt><trkpt lon="5.803512" lat="51.087273"><ele>13</ele><time>2022-05-08T09:29:08.000Z</time></trkpt><trkpt lon="5.803449" lat="51.087334"><ele>13</ele><time>2022-05-08T09:29:09.000Z</time></trkpt><trkpt lon="5.803387" lat="51.087395"><ele>13.2</ele><time>2022-05-08T09:29:10.000Z</time></trkpt><trkpt lon="5.803325" lat="51.087454"><ele>13.4</ele><time>2022-05-08T09:29:11.000Z</time></trkpt><trkpt lon="5.803262" lat="51.087514"><ele>13.8</ele><time>2022-05-08T09:29:12.000Z</time></trkpt><trkpt lon="5.803199" lat="51.087575"><ele>14.2</ele><time>2022-05-08T09:29:13.000Z</time></trkpt><trkpt lon="5.803136" lat="51.087636"><ele>14.4</ele><time>2022-05-08T09:29:14.000Z</time></trkpt><trkpt lon="5.803075" lat="51.087694"><ele>14.6</ele><time>2022-05-08T09:29:15.000Z</time></trkpt><trkpt lon="5.803013" lat="51.087754"><ele>14.6</ele><time>2022-05-08T09:29:16.000Z</time></trkpt><trkpt lon="5.802951" lat="51.087813"><ele>14.6</ele><time>2022-05-08T09:29:17.000Z</time></trkpt><trkpt lon="5.802889" lat="51.08787"><ele>14.6</ele><time>2022-05-08T09:29:18.000Z</time></trkpt><trkpt lon="5.802828" lat="51.087928"><ele>14.8</ele><time>2022-05-08T09:29:19.000Z</time></trkpt><trkpt lon="5.802767" lat="51.087987"><ele>14.8</ele><time>2022-05-08T09:29:20.000Z</time></trkpt><trkpt lon="5.802706" lat="51.088046"><ele>15</ele><time>2022-05-08T09:29:21.000Z</time></trkpt><trkpt lon="5.802644" lat="51.088108"><ele>14.8</ele><time>2022-05-08T09:29:22.000Z</time></trkpt><trkpt lon="5.802583" lat="51.08817"><ele>14.8</ele><time>2022-05-08T09:29:23.000Z</time></trkpt><trkpt lon="5.802518" lat="51.088231"><ele>14.8</ele><time>2022-05-08T09:29:24.000Z</time></trkpt><trkpt lon="5.802452" lat="51.088294"><ele>15</ele><time>2022-05-08T09:29:25.000Z</time></trkpt><trkpt lon="5.802386" lat="51.088357"><ele>15</ele><time>2022-05-08T09:29:26.000Z</time></trkpt><trkpt lon="5.802322" lat="51.08842"><ele>14.8</ele><time>2022-05-08T09:29:27.000Z</time></trkpt><trkpt lon="5.802257" lat="51.088485"><ele>14.6</ele><time>2022-05-08T09:29:28.000Z</time></trkpt><trkpt lon="5.802191" lat="51.088548"><ele>14.6</ele><time>2022-05-08T09:29:29.000Z</time></trkpt><trkpt lon="5.802126" lat="51.088611"><ele>14.4</ele><time>2022-05-08T09:29:30.000Z</time></trkpt><trkpt lon="5.802062" lat="51.088676"><ele>14.2</ele><time>2022-05-08T09:29:31.000Z</time></trkpt><trkpt lon="5.801997" lat="51.088738"><ele>14</ele><time>2022-05-08T09:29:32.000Z</time></trkpt><trkpt lon="5.801933" lat="51.088801"><ele>13.8</ele><time>2022-05-08T09:29:33.000Z</time></trkpt><trkpt lon="5.801868" lat="51.088866"><ele>13.8</ele><time>2022-05-08T09:29:34.000Z</time></trkpt><trkpt lon="5.801803" lat="51.088931"><ele>13.8</ele><time>2022-05-08T09:29:35.000Z</time></trkpt><trkpt lon="5.801738" lat="51.088994"><ele>13.6</ele><time>2022-05-08T09:29:36.000Z</time></trkpt><trkpt lon="5.801673" lat="51.089057"><ele>13.4</ele><time>2022-05-08T09:29:37.000Z</time></trkpt><trkpt lon="5.801608" lat="51.089119"><ele>13.2</ele><time>2022-05-08T09:29:38.000Z</time></trkpt><trkpt lon="5.801544" lat="51.089183"><ele>13.2</ele><time>2022-05-08T09:29:39.000Z</time></trkpt><trkpt lon="5.801481" lat="51.089245"><ele>13.4</ele><time>2022-05-08T09:29:40.000Z</time></trkpt><trkpt lon="5.801419" lat="51.089309"><ele>13.4</ele><time>2022-05-08T09:29:41.000Z</time></trkpt><trkpt lon="5.801354" lat="51.089371"><ele>13.4</ele><time>2022-05-08T09:29:42.000Z</time></trkpt><trkpt lon="5.801289" lat="51.089435"><ele>13.6</ele><time>2022-05-08T09:29:43.000Z</time></trkpt><trkpt lon="5.801225" lat="51.089497"><ele>13.6</ele><time>2022-05-08T09:29:44.000Z</time></trkpt><trkpt lon="5.801161" lat="51.08956"><ele>13.4</ele><time>2022-05-08T09:29:45.000Z</time></trkpt><trkpt lon="5.801098" lat="51.089627"><ele>13.2</ele><time>2022-05-08T09:29:46.000Z</time></trkpt><trkpt lon="5.801037" lat="51.089694"><ele>13.2</ele><time>2022-05-08T09:29:47.000Z</time></trkpt><trkpt lon="5.800977" lat="51.089758"><ele>13</ele><time>2022-05-08T09:29:48.000Z</time></trkpt><trkpt lon="5.80092" lat="51.089821"><ele>13</ele><time>2022-05-08T09:29:49.000Z</time></trkpt><trkpt lon="5.800873" lat="51.089879"><ele>12.8</ele><time>2022-05-08T09:29:50.000Z</time></trkpt><trkpt lon="5.800827" lat="51.089945"><ele>12.8</ele><time>2022-05-08T09:29:51.000Z</time></trkpt><trkpt lon="5.80078" lat="51.090021"><ele>12.6</ele><time>2022-05-08T09:29:52.000Z</time></trkpt><trkpt lon="5.800743" lat="51.090089"><ele>12.6</ele><time>2022-05-08T09:29:53.000Z</time></trkpt><trkpt lon="5.800713" lat="51.09016"><ele>12.8</ele><time>2022-05-08T09:29:54.000Z</time></trkpt><trkpt lon="5.800691" lat="51.090233"><ele>12.8</ele><time>2022-05-08T09:29:55.000Z</time></trkpt><trkpt lon="5.800677" lat="51.090302"><ele>12.8</ele><time>2022-05-08T09:29:56.000Z</time></trkpt><trkpt lon="5.800667" lat="51.090372"><ele>12.8</ele><time>2022-05-08T09:29:57.000Z</time></trkpt><trkpt lon="5.800662" lat="51.090443"><ele>12.8</ele><time>2022-05-08T09:29:58.000Z</time></trkpt><trkpt lon="5.80066" lat="51.090515"><ele>13</ele><time>2022-05-08T09:29:59.000Z</time></trkpt><trkpt lon="5.800661" lat="51.090588"><ele>13.2</ele><time>2022-05-08T09:30:00.000Z</time></trkpt><trkpt lon="5.800663" lat="51.09066"><ele>13.2</ele><time>2022-05-08T09:30:01.000Z</time></trkpt><trkpt lon="5.800667" lat="51.090732"><ele>13.2</ele><time>2022-05-08T09:30:02.000Z</time></trkpt><trkpt lon="5.800671" lat="51.090805"><ele>13.4</ele><time>2022-05-08T09:30:03.000Z</time></trkpt><trkpt lon="5.800676" lat="51.090877"><ele>13.6</ele><time>2022-05-08T09:30:04.000Z</time></trkpt><trkpt lon="5.800678" lat="51.090949"><ele>13.4</ele><time>2022-05-08T09:30:05.000Z</time></trkpt><trkpt lon="5.800679" lat="51.091022"><ele>13.4</ele><time>2022-05-08T09:30:06.000Z</time></trkpt><trkpt lon="5.800683" lat="51.091092"><ele>13.6</ele><time>2022-05-08T09:30:07.000Z</time></trkpt><trkpt lon="5.800685" lat="51.091163"><ele>13.8</ele><time>2022-05-08T09:30:08.000Z</time></trkpt><trkpt lon="5.800679" lat="51.091233"><ele>13.8</ele><time>2022-05-08T09:30:09.000Z</time></trkpt><trkpt lon="5.800666" lat="51.091302"><ele>13.8</ele><time>2022-05-08T09:30:10.000Z</time></trkpt><trkpt lon="5.800649" lat="51.091371"><ele>14</ele><time>2022-05-08T09:30:11.000Z</time></trkpt><trkpt lon="5.800627" lat="51.09144"><ele>14.2</ele><time>2022-05-08T09:30:12.000Z</time></trkpt><trkpt lon="5.800598" lat="51.091504"><ele>14.2</ele><time>2022-05-08T09:30:13.000Z</time></trkpt><trkpt lon="5.800563" lat="51.091567"><ele>14.4</ele><time>2022-05-08T09:30:14.000Z</time></trkpt><trkpt lon="5.80052" lat="51.091628"><ele>14.6</ele><time>2022-05-08T09:30:15.000Z</time></trkpt><trkpt lon="5.800469" lat="51.091682"><ele>14.6</ele><time>2022-05-08T09:30:16.000Z</time></trkpt><trkpt lon="5.800409" lat="51.091738"><ele>14.6</ele><time>2022-05-08T09:30:17.000Z</time></trkpt><trkpt lon="5.800342" lat="51.091791"><ele>14.6</ele><time>2022-05-08T09:30:18.000Z</time></trkpt><trkpt lon="5.800268" lat="51.09184"><ele>14.6</ele><time>2022-05-08T09:30:19.000Z</time></trkpt><trkpt lon="5.800189" lat="51.091888"><ele>14.6</ele><time>2022-05-08T09:30:20.000Z</time></trkpt><trkpt lon="5.80011" lat="51.091934"><ele>14.8</ele><time>2022-05-08T09:30:21.000Z</time></trkpt><trkpt lon="5.800031" lat="51.091978"><ele>15</ele><time>2022-05-08T09:30:22.000Z</time></trkpt><trkpt lon="5.799955" lat="51.092022"><ele>15.4</ele><time>2022-05-08T09:30:23.000Z</time></trkpt><trkpt lon="5.799879" lat="51.092065"><ele>15.6</ele><time>2022-05-08T09:30:24.000Z</time></trkpt><trkpt lon="5.799805" lat="51.092109"><ele>15.8</ele><time>2022-05-08T09:30:25.000Z</time></trkpt><trkpt lon="5.79973" lat="51.092155"><ele>16.2</ele><time>2022-05-08T09:30:26.000Z</time></trkpt><trkpt lon="5.799656" lat="51.092198"><ele>16.6</ele><time>2022-05-08T09:30:27.000Z</time></trkpt><trkpt lon="5.799582" lat="51.092241"><ele>17</ele><time>2022-05-08T09:30:28.000Z</time></trkpt><trkpt lon="5.799507" lat="51.092282"><ele>17.4</ele><time>2022-05-08T09:30:29.000Z</time></trkpt><trkpt lon="5.799434" lat="51.092327"><ele>17.2</ele><time>2022-05-08T09:30:30.000Z</time></trkpt><trkpt lon="5.799362" lat="51.09237"><ele>17.4</ele><time>2022-05-08T09:30:31.000Z</time></trkpt><trkpt lon="5.799291" lat="51.092412"><ele>17.4</ele><time>2022-05-08T09:30:32.000Z</time></trkpt><trkpt lon="5.79922" lat="51.092453"><ele>17.6</ele><time>2022-05-08T09:30:33.000Z</time></trkpt><trkpt lon="5.799148" lat="51.092496"><ele>17.8</ele><time>2022-05-08T09:30:34.000Z</time></trkpt><trkpt lon="5.799076" lat="51.092538"><ele>17.8</ele><time>2022-05-08T09:30:35.000Z</time></trkpt><trkpt lon="5.799007" lat="51.09258"><ele>17.8</ele><time>2022-05-08T09:30:36.000Z</time></trkpt><trkpt lon="5.798937" lat="51.092622"><ele>18</ele><time>2022-05-08T09:30:37.000Z</time></trkpt><trkpt lon="5.798865" lat="51.092664"><ele>18.2</ele><time>2022-05-08T09:30:38.000Z</time></trkpt><trkpt lon="5.798794" lat="51.092706"><ele>18.4</ele><time>2022-05-08T09:30:39.000Z</time></trkpt><trkpt lon="5.79872" lat="51.09275"><ele>18.6</ele><time>2022-05-08T09:30:40.000Z</time></trkpt><trkpt lon="5.798646" lat="51.092794"><ele>18.6</ele><time>2022-05-08T09:30:41.000Z</time></trkpt><trkpt lon="5.798573" lat="51.092836"><ele>18.6</ele><time>2022-05-08T09:30:42.000Z</time></trkpt><trkpt lon="5.798508" lat="51.092873"><ele>18.8</ele><time>2022-05-08T09:30:43.000Z</time></trkpt><trkpt lon="5.798437" lat="51.092916"><ele>19</ele><time>2022-05-08T09:30:44.000Z</time></trkpt><trkpt lon="5.798355" lat="51.092965"><ele>19</ele><time>2022-05-08T09:30:45.000Z</time></trkpt><trkpt lon="5.798282" lat="51.093008"><ele>18.8</ele><time>2022-05-08T09:30:46.000Z</time></trkpt><trkpt lon="5.798206" lat="51.093052"><ele>18.6</ele><time>2022-05-08T09:30:47.000Z</time></trkpt><trkpt lon="5.798132" lat="51.093097"><ele>18.4</ele><time>2022-05-08T09:30:48.000Z</time></trkpt><trkpt lon="5.798058" lat="51.093143"><ele>18.4</ele><time>2022-05-08T09:30:49.000Z</time></trkpt><trkpt lon="5.797984" lat="51.093187"><ele>18.4</ele><time>2022-05-08T09:30:50.000Z</time></trkpt><trkpt lon="5.797914" lat="51.093227"><ele>18.4</ele><time>2022-05-08T09:30:51.000Z</time></trkpt><trkpt lon="5.797846" lat="51.093265"><ele>18.6</ele><time>2022-05-08T09:30:52.000Z</time></trkpt><trkpt lon="5.79778" lat="51.093303"><ele>18.6</ele><time>2022-05-08T09:30:53.000Z</time></trkpt><trkpt lon="5.797714" lat="51.093343"><ele>18.4</ele><time>2022-05-08T09:30:54.000Z</time></trkpt><trkpt lon="5.797644" lat="51.093383"><ele>18.2</ele><time>2022-05-08T09:30:55.000Z</time></trkpt><trkpt lon="5.797568" lat="51.093419"><ele>18</ele><time>2022-05-08T09:30:56.000Z</time></trkpt><trkpt lon="5.797489" lat="51.093455"><ele>17.6</ele><time>2022-05-08T09:30:57.000Z</time></trkpt><trkpt lon="5.797409" lat="51.093489"><ele>17.4</ele><time>2022-05-08T09:30:58.000Z</time></trkpt><trkpt lon="5.797334" lat="51.093522"><ele>17.2</ele><time>2022-05-08T09:30:59.000Z</time></trkpt><trkpt lon="5.797268" lat="51.093554"><ele>17</ele><time>2022-05-08T09:31:00.000Z</time></trkpt><trkpt lon="5.797211" lat="51.093582"><ele>16.8</ele><time>2022-05-08T09:31:01.000Z</time></trkpt><trkpt lon="5.797169" lat="51.093607"><ele>16.6</ele><time>2022-05-08T09:31:02.000Z</time></trkpt><trkpt lon="5.797145" lat="51.093629"><ele>16.4</ele><time>2022-05-08T09:31:03.000Z</time></trkpt><trkpt lon="5.797131" lat="51.09365"><ele>16.2</ele><time>2022-05-08T09:31:04.000Z</time></trkpt><trkpt lon="5.797126" lat="51.093667"><ele>16.2</ele><time>2022-05-08T09:31:05.000Z</time></trkpt><trkpt lon="5.797126" lat="51.093682"><ele>16</ele><time>2022-05-08T09:31:06.000Z</time></trkpt><trkpt lon="5.797125" lat="51.093696"><ele>15.8</ele><time>2022-05-08T09:31:07.000Z</time></trkpt><trkpt lon="5.797118" lat="51.093709"><ele>15.6</ele><time>2022-05-08T09:31:08.000Z</time></trkpt><trkpt lon="5.797101" lat="51.093724"><ele>15.6</ele><time>2022-05-08T09:31:09.000Z</time></trkpt><trkpt lon="5.797072" lat="51.093737"><ele>15.6</ele><time>2022-05-08T09:31:10.000Z</time></trkpt><trkpt lon="5.797031" lat="51.093747"><ele>15.4</ele><time>2022-05-08T09:31:11.000Z</time></trkpt><trkpt lon="5.796982" lat="51.093756"><ele>15.4</ele><time>2022-05-08T09:31:12.000Z</time></trkpt><trkpt lon="5.796927" lat="51.093768"><ele>15.2</ele><time>2022-05-08T09:31:13.000Z</time></trkpt><trkpt lon="5.796873" lat="51.093779"><ele>15.2</ele><time>2022-05-08T09:31:14.000Z</time></trkpt><trkpt lon="5.79682" lat="51.093791"><ele>15.2</ele><time>2022-05-08T09:31:15.000Z</time></trkpt><trkpt lon="5.796767" lat="51.093802"><ele>15</ele><time>2022-05-08T09:31:16.000Z</time></trkpt><trkpt lon="5.796711" lat="51.093814"><ele>15</ele><time>2022-05-08T09:31:17.000Z</time></trkpt><trkpt lon="5.796651" lat="51.093825"><ele>14.8</ele><time>2022-05-08T09:31:18.000Z</time></trkpt><trkpt lon="5.79659" lat="51.093841"><ele>14.8</ele><time>2022-05-08T09:31:19.000Z</time></trkpt><trkpt lon="5.796539" lat="51.093856"><ele>14.6</ele><time>2022-05-08T09:31:20.000Z</time></trkpt><trkpt lon="5.796513" lat="51.093867"><ele>14.4</ele><time>2022-05-08T09:31:21.000Z</time></trkpt><trkpt lon="5.796509" lat="51.093885"><ele>14.4</ele><time>2022-05-08T09:31:22.000Z</time></trkpt><trkpt lon="5.79652" lat="51.093915"><ele>14.4</ele><time>2022-05-08T09:31:23.000Z</time></trkpt><trkpt lon="5.796539" lat="51.093951"><ele>14.4</ele><time>2022-05-08T09:31:24.000Z</time></trkpt><trkpt lon="5.796564" lat="51.093991"><ele>14.2</ele><time>2022-05-08T09:31:25.000Z</time></trkpt><trkpt lon="5.796591" lat="51.094035"><ele>14.2</ele><time>2022-05-08T09:31:26.000Z</time></trkpt><trkpt lon="5.796614" lat="51.094079"><ele>14.2</ele><time>2022-05-08T09:31:27.000Z</time></trkpt><trkpt lon="5.796634" lat="51.094121"><ele>14.2</ele><time>2022-05-08T09:31:28.000Z</time></trkpt><trkpt lon="5.796651" lat="51.094165"><ele>14</ele><time>2022-05-08T09:31:29.000Z</time></trkpt><trkpt lon="5.79667" lat="51.094209"><ele>13.8</ele><time>2022-05-08T09:31:30.000Z</time></trkpt><trkpt lon="5.796689" lat="51.094251"><ele>13.6</ele><time>2022-05-08T09:31:31.000Z</time></trkpt><trkpt lon="5.796706" lat="51.094295"><ele>13.6</ele><time>2022-05-08T09:31:32.000Z</time></trkpt><trkpt lon="5.796723" lat="51.094339"><ele>13.6</ele><time>2022-05-08T09:31:33.000Z</time></trkpt><trkpt lon="5.796738" lat="51.094383"><ele>13.6</ele><time>2022-05-08T09:31:34.000Z</time></trkpt><trkpt lon="5.796752" lat="51.094426"><ele>13.6</ele><time>2022-05-08T09:31:35.000Z</time></trkpt><trkpt lon="5.796765" lat="51.094468"><ele>13.6</ele><time>2022-05-08T09:31:36.000Z</time></trkpt><trkpt lon="5.796779" lat="51.09451"><ele>13.6</ele><time>2022-05-08T09:31:37.000Z</time></trkpt><trkpt lon="5.796795" lat="51.09455"><ele>13.4</ele><time>2022-05-08T09:31:38.000Z</time></trkpt><trkpt lon="5.796815" lat="51.094588"><ele>13.4</ele><time>2022-05-08T09:31:39.000Z</time></trkpt><trkpt lon="5.796838" lat="51.094628"><ele>13.4</ele><time>2022-05-08T09:31:40.000Z</time></trkpt><trkpt lon="5.796867" lat="51.094666"><ele>13.4</ele><time>2022-05-08T09:31:41.000Z</time></trkpt><trkpt lon="5.796909" lat="51.094694"><ele>13.4</ele><time>2022-05-08T09:31:42.000Z</time></trkpt><trkpt lon="5.796964" lat="51.09471"><ele>13.6</ele><time>2022-05-08T09:31:43.000Z</time></trkpt><trkpt lon="5.797027" lat="51.094722"><ele>13.8</ele><time>2022-05-08T09:31:44.000Z</time></trkpt><trkpt lon="5.797094" lat="51.094731"><ele>13.8</ele><time>2022-05-08T09:31:45.000Z</time></trkpt><trkpt lon="5.797167" lat="51.094734"><ele>13.8</ele><time>2022-05-08T09:31:46.000Z</time></trkpt><trkpt lon="5.797251" lat="51.094738"><ele>13.8</ele><time>2022-05-08T09:31:47.000Z</time></trkpt><trkpt lon="5.797338" lat="51.094744"><ele>13.8</ele><time>2022-05-08T09:31:48.000Z</time></trkpt><trkpt lon="5.79743" lat="51.094752"><ele>13.8</ele><time>2022-05-08T09:31:49.000Z</time></trkpt><trkpt lon="5.797523" lat="51.09477"><ele>13.8</ele><time>2022-05-08T09:31:50.000Z</time></trkpt><trkpt lon="5.7976" lat="51.0948"><ele>13.8</ele><time>2022-05-08T09:31:51.000Z</time></trkpt><trkpt lon="5.797662" lat="51.094841"><ele>13.8</ele><time>2022-05-08T09:31:52.000Z</time></trkpt><trkpt lon="5.797717" lat="51.094893"><ele>13.6</ele><time>2022-05-08T09:31:53.000Z</time></trkpt><trkpt lon="5.797774" lat="51.094951"><ele>13.4</ele><time>2022-05-08T09:31:54.000Z</time></trkpt><trkpt lon="5.797835" lat="51.095008"><ele>13.2</ele><time>2022-05-08T09:31:55.000Z</time></trkpt><trkpt lon="5.797897" lat="51.095065"><ele>13.2</ele><time>2022-05-08T09:31:56.000Z</time></trkpt><trkpt lon="5.797959" lat="51.095119"><ele>13.4</ele><time>2022-05-08T09:31:57.000Z</time></trkpt><trkpt lon="5.798022" lat="51.095175"><ele>13.4</ele><time>2022-05-08T09:31:58.000Z</time></trkpt><trkpt lon="5.798085" lat="51.095232"><ele>13.4</ele><time>2022-05-08T09:31:59.000Z</time></trkpt><trkpt lon="5.798152" lat="51.095287"><ele>13.4</ele><time>2022-05-08T09:32:00.000Z</time></trkpt><trkpt lon="5.79822" lat="51.095343"><ele>13.2</ele><time>2022-05-08T09:32:01.000Z</time></trkpt><trkpt lon="5.798286" lat="51.095403"><ele>13.2</ele><time>2022-05-08T09:32:02.000Z</time></trkpt><trkpt lon="5.798352" lat="51.095464"><ele>13</ele><time>2022-05-08T09:32:03.000Z</time></trkpt><trkpt lon="5.798417" lat="51.095525"><ele>13</ele><time>2022-05-08T09:32:04.000Z</time></trkpt><trkpt lon="5.798481" lat="51.095586"><ele>13</ele><time>2022-05-08T09:32:05.000Z</time></trkpt><trkpt lon="5.798545" lat="51.095647"><ele>13</ele><time>2022-05-08T09:32:06.000Z</time></trkpt><trkpt lon="5.798605" lat="51.095708"><ele>13</ele><time>2022-05-08T09:32:07.000Z</time></trkpt><trkpt lon="5.798663" lat="51.095766"><ele>13.2</ele><time>2022-05-08T09:32:08.000Z</time></trkpt><trkpt lon="5.798721" lat="51.095823"><ele>12.8</ele><time>2022-05-08T09:32:09.000Z</time></trkpt><trkpt lon="5.798774" lat="51.095878"><ele>12.6</ele><time>2022-05-08T09:32:10.000Z</time></trkpt><trkpt lon="5.798824" lat="51.095932"><ele>12.4</ele><time>2022-05-08T09:32:11.000Z</time></trkpt><trkpt lon="5.798872" lat="51.095986"><ele>12.4</ele><time>2022-05-08T09:32:12.000Z</time></trkpt><trkpt lon="5.798917" lat="51.096039"><ele>12.4</ele><time>2022-05-08T09:32:13.000Z</time></trkpt><trkpt lon="5.798961" lat="51.096092"><ele>12.2</ele><time>2022-05-08T09:32:14.000Z</time></trkpt><trkpt lon="5.799006" lat="51.096148"><ele>12.2</ele><time>2022-05-08T09:32:15.000Z</time></trkpt><trkpt lon="5.799051" lat="51.096205"><ele>12.4</ele><time>2022-05-08T09:32:16.000Z</time></trkpt><trkpt lon="5.799094" lat="51.096262"><ele>12.6</ele><time>2022-05-08T09:32:17.000Z</time></trkpt><trkpt lon="5.799136" lat="51.09632"><ele>12.8</ele><time>2022-05-08T09:32:18.000Z</time></trkpt><trkpt lon="5.799178" lat="51.096379"><ele>12.8</ele><time>2022-05-08T09:32:19.000Z</time></trkpt><trkpt lon="5.79922" lat="51.096438"><ele>13</ele><time>2022-05-08T09:32:20.000Z</time></trkpt><trkpt lon="5.79926" lat="51.096497"><ele>12.8</ele><time>2022-05-08T09:32:21.000Z</time></trkpt><trkpt lon="5.7993" lat="51.096558"><ele>12.8</ele><time>2022-05-08T09:32:22.000Z</time></trkpt><trkpt lon="5.799339" lat="51.096622"><ele>13</ele><time>2022-05-08T09:32:23.000Z</time></trkpt><trkpt lon="5.799376" lat="51.096684"><ele>13</ele><time>2022-05-08T09:32:24.000Z</time></trkpt><trkpt lon="5.79941" lat="51.096748"><ele>13</ele><time>2022-05-08T09:32:25.000Z</time></trkpt><trkpt lon="5.799441" lat="51.09681"><ele>12.8</ele><time>2022-05-08T09:32:26.000Z</time></trkpt><trkpt lon="5.799471" lat="51.09687"><ele>12.8</ele><time>2022-05-08T09:32:27.000Z</time></trkpt><trkpt lon="5.7995" lat="51.09693"><ele>13</ele><time>2022-05-08T09:32:28.000Z</time></trkpt><trkpt lon="5.799529" lat="51.096987"><ele>13.2</ele><time>2022-05-08T09:32:29.000Z</time></trkpt><trkpt lon="5.79955" lat="51.09704"><ele>13.2</ele><time>2022-05-08T09:32:30.000Z</time></trkpt><trkpt lon="5.799559" lat="51.097092"><ele>13.2</ele><time>2022-05-08T09:32:31.000Z</time></trkpt><trkpt lon="5.799548" lat="51.097144"><ele>13.2</ele><time>2022-05-08T09:32:32.000Z</time></trkpt><trkpt lon="5.799518" lat="51.097191"><ele>13</ele><time>2022-05-08T09:32:33.000Z</time></trkpt><trkpt lon="5.79947" lat="51.097238"><ele>13</ele><time>2022-05-08T09:32:34.000Z</time></trkpt><trkpt lon="5.799404" lat="51.097286"><ele>13</ele><time>2022-05-08T09:32:35.000Z</time></trkpt><trkpt lon="5.799334" lat="51.097333"><ele>13</ele><time>2022-05-08T09:32:36.000Z</time></trkpt><trkpt lon="5.799264" lat="51.097385"><ele>13</ele><time>2022-05-08T09:32:37.000Z</time></trkpt><trkpt lon="5.79919" lat="51.097441"><ele>12.8</ele><time>2022-05-08T09:32:38.000Z</time></trkpt><trkpt lon="5.799115" lat="51.097496"><ele>12.8</ele><time>2022-05-08T09:32:39.000Z</time></trkpt><trkpt lon="5.799039" lat="51.09755"><ele>12.8</ele><time>2022-05-08T09:32:40.000Z</time></trkpt><trkpt lon="5.798964" lat="51.097601"><ele>12.8</ele><time>2022-05-08T09:32:41.000Z</time></trkpt><trkpt lon="5.798892" lat="51.097653"><ele>13</ele><time>2022-05-08T09:32:42.000Z</time></trkpt><trkpt lon="5.798819" lat="51.097706"><ele>13</ele><time>2022-05-08T09:32:43.000Z</time></trkpt><trkpt lon="5.798746" lat="51.097757"><ele>13</ele><time>2022-05-08T09:32:44.000Z</time></trkpt><trkpt lon="5.798674" lat="51.097809"><ele>13</ele><time>2022-05-08T09:32:45.000Z</time></trkpt><trkpt lon="5.798602" lat="51.09786"><ele>13.2</ele><time>2022-05-08T09:32:46.000Z</time></trkpt><trkpt lon="5.79853" lat="51.097908"><ele>13.2</ele><time>2022-05-08T09:32:47.000Z</time></trkpt><trkpt lon="5.798461" lat="51.097955"><ele>13.2</ele><time>2022-05-08T09:32:48.000Z</time></trkpt><trkpt lon="5.79839" lat="51.098002"><ele>13.2</ele><time>2022-05-08T09:32:49.000Z</time></trkpt><trkpt lon="5.798317" lat="51.098049"><ele>13.2</ele><time>2022-05-08T09:32:50.000Z</time></trkpt><trkpt lon="5.798245" lat="51.098097"><ele>13.4</ele><time>2022-05-08T09:32:51.000Z</time></trkpt><trkpt lon="5.798176" lat="51.098145"><ele>13.6</ele><time>2022-05-08T09:32:52.000Z</time></trkpt><trkpt lon="5.798108" lat="51.098193"><ele>13.6</ele><time>2022-05-08T09:32:53.000Z</time></trkpt><trkpt lon="5.798039" lat="51.098244"><ele>13.6</ele><time>2022-05-08T09:32:54.000Z</time></trkpt><trkpt lon="5.797965" lat="51.098296"><ele>13.4</ele><time>2022-05-08T09:32:55.000Z</time></trkpt><trkpt lon="5.797887" lat="51.098348"><ele>13.4</ele><time>2022-05-08T09:32:56.000Z</time></trkpt><trkpt lon="5.797811" lat="51.098396"><ele>13.4</ele><time>2022-05-08T09:32:57.000Z</time></trkpt><trkpt lon="5.797734" lat="51.098442"><ele>13.6</ele><time>2022-05-08T09:32:58.000Z</time></trkpt><trkpt lon="5.797654" lat="51.098486"><ele>13.6</ele><time>2022-05-08T09:32:59.000Z</time></trkpt><trkpt lon="5.797571" lat="51.098525"><ele>13.8</ele><time>2022-05-08T09:33:00.000Z</time></trkpt><trkpt lon="5.797486" lat="51.098561"><ele>13.8</ele><time>2022-05-08T09:33:01.000Z</time></trkpt><trkpt lon="5.797399" lat="51.098595"><ele>13.8</ele><time>2022-05-08T09:33:02.000Z</time></trkpt><trkpt lon="5.797312" lat="51.098632"><ele>13.8</ele><time>2022-05-08T09:33:03.000Z</time></trkpt><trkpt lon="5.79722" lat="51.098666"><ele>13.8</ele><time>2022-05-08T09:33:04.000Z</time></trkpt><trkpt lon="5.797126" lat="51.098696"><ele>13.8</ele><time>2022-05-08T09:33:05.000Z</time></trkpt><trkpt lon="5.797032" lat="51.098727"><ele>13.8</ele><time>2022-05-08T09:33:06.000Z</time></trkpt><trkpt lon="5.796937" lat="51.098755"><ele>13.8</ele><time>2022-05-08T09:33:07.000Z</time></trkpt><trkpt lon="5.796847" lat="51.098781"><ele>13.8</ele><time>2022-05-08T09:33:08.000Z</time></trkpt><trkpt lon="5.796755" lat="51.098806"><ele>13.8</ele><time>2022-05-08T09:33:09.000Z</time></trkpt><trkpt lon="5.796663" lat="51.098829"><ele>14</ele><time>2022-05-08T09:33:10.000Z</time></trkpt><trkpt lon="5.796577" lat="51.098847"><ele>14.2</ele><time>2022-05-08T09:33:11.000Z</time></trkpt><trkpt lon="5.796486" lat="51.098858"><ele>14.4</ele><time>2022-05-08T09:33:12.000Z</time></trkpt><trkpt lon="5.796391" lat="51.098864"><ele>14.4</ele><time>2022-05-08T09:33:13.000Z</time></trkpt><trkpt lon="5.796305" lat="51.098861"><ele>14.6</ele><time>2022-05-08T09:33:14.000Z</time></trkpt><trkpt lon="5.796221" lat="51.098854"><ele>14.6</ele><time>2022-05-08T09:33:15.000Z</time></trkpt><trkpt lon="5.796143" lat="51.09885"><ele>14.6</ele><time>2022-05-08T09:33:16.000Z</time></trkpt><trkpt lon="5.79607" lat="51.098852"><ele>14.4</ele><time>2022-05-08T09:33:17.000Z</time></trkpt><trkpt lon="5.795999" lat="51.098863"><ele>14.4</ele><time>2022-05-08T09:33:18.000Z</time></trkpt><trkpt lon="5.795932" lat="51.098882"><ele>14.4</ele><time>2022-05-08T09:33:19.000Z</time></trkpt><trkpt lon="5.795859" lat="51.098907"><ele>14.2</ele><time>2022-05-08T09:33:20.000Z</time></trkpt><trkpt lon="5.795777" lat="51.098937"><ele>13.8</ele><time>2022-05-08T09:33:21.000Z</time></trkpt><trkpt lon="5.795687" lat="51.098967"><ele>13.8</ele><time>2022-05-08T09:33:22.000Z</time></trkpt><trkpt lon="5.795588" lat="51.098995"><ele>13.6</ele><time>2022-05-08T09:33:23.000Z</time></trkpt><trkpt lon="5.795479" lat="51.099024"><ele>13.6</ele><time>2022-05-08T09:33:24.000Z</time></trkpt><trkpt lon="5.795364" lat="51.099055"><ele>13.4</ele><time>2022-05-08T09:33:25.000Z</time></trkpt><trkpt lon="5.795243" lat="51.099088"><ele>13.4</ele><time>2022-05-08T09:33:26.000Z</time></trkpt><trkpt lon="5.79512" lat="51.09912"><ele>13</ele><time>2022-05-08T09:33:27.000Z</time></trkpt><trkpt lon="5.794995" lat="51.099148"><ele>12.8</ele><time>2022-05-08T09:33:28.000Z</time></trkpt><trkpt lon="5.794873" lat="51.099177"><ele>12.6</ele><time>2022-05-08T09:33:29.000Z</time></trkpt><trkpt lon="5.794757" lat="51.099205"><ele>12.4</ele><time>2022-05-08T09:33:30.000Z</time></trkpt><trkpt lon="5.794653" lat="51.099229"><ele>12.2</ele><time>2022-05-08T09:33:31.000Z</time></trkpt><trkpt lon="5.79454" lat="51.099255"><ele>12.2</ele><time>2022-05-08T09:33:32.000Z</time></trkpt><trkpt lon="5.794415" lat="51.099285"><ele>12.4</ele><time>2022-05-08T09:33:33.000Z</time></trkpt><trkpt lon="5.794302" lat="51.099312"><ele>12.4</ele><time>2022-05-08T09:33:34.000Z</time></trkpt><trkpt lon="5.794188" lat="51.099337"><ele>12.4</ele><time>2022-05-08T09:33:35.000Z</time></trkpt><trkpt lon="5.794072" lat="51.099359"><ele>12.2</ele><time>2022-05-08T09:33:36.000Z</time></trkpt><trkpt lon="5.793963" lat="51.099379"><ele>12.2</ele><time>2022-05-08T09:33:37.000Z</time></trkpt><trkpt lon="5.793846" lat="51.0994"><ele>12</ele><time>2022-05-08T09:33:38.000Z</time></trkpt><trkpt lon="5.793723" lat="51.099422"><ele>12</ele><time>2022-05-08T09:33:39.000Z</time></trkpt><trkpt lon="5.793605" lat="51.099441"><ele>12</ele><time>2022-05-08T09:33:40.000Z</time></trkpt><trkpt lon="5.79349" lat="51.09946"><ele>12.2</ele><time>2022-05-08T09:33:41.000Z</time></trkpt><trkpt lon="5.793372" lat="51.099479"><ele>12.4</ele><time>2022-05-08T09:33:42.000Z</time></trkpt><trkpt lon="5.79325" lat="51.099498"><ele>12.2</ele><time>2022-05-08T09:33:43.000Z</time></trkpt><trkpt lon="5.79313" lat="51.099515"><ele>12.2</ele><time>2022-05-08T09:33:44.000Z</time></trkpt><trkpt lon="5.79301" lat="51.099533"><ele>12.2</ele><time>2022-05-08T09:33:45.000Z</time></trkpt><trkpt lon="5.79289" lat="51.099547"><ele>12.2</ele><time>2022-05-08T09:33:46.000Z</time></trkpt><trkpt lon="5.792768" lat="51.099561"><ele>12</ele><time>2022-05-08T09:33:47.000Z</time></trkpt><trkpt lon="5.792653" lat="51.099574"><ele>12</ele><time>2022-05-08T09:33:48.000Z</time></trkpt><trkpt lon="5.792532" lat="51.099587"><ele>12.2</ele><time>2022-05-08T09:33:49.000Z</time></trkpt><trkpt lon="5.792406" lat="51.099599"><ele>12.4</ele><time>2022-05-08T09:33:50.000Z</time></trkpt><trkpt lon="5.792283" lat="51.099608"><ele>12.6</ele><time>2022-05-08T09:33:51.000Z</time></trkpt><trkpt lon="5.792161" lat="51.099615"><ele>12.6</ele><time>2022-05-08T09:33:52.000Z</time></trkpt><trkpt lon="5.792037" lat="51.099624"><ele>12.8</ele><time>2022-05-08T09:33:53.000Z</time></trkpt><trkpt lon="5.791913" lat="51.099633"><ele>12.8</ele><time>2022-05-08T09:33:54.000Z</time></trkpt><trkpt lon="5.791788" lat="51.099638"><ele>12.8</ele><time>2022-05-08T09:33:55.000Z</time></trkpt><trkpt lon="5.791666" lat="51.099644"><ele>12.8</ele><time>2022-05-08T09:33:56.000Z</time></trkpt><trkpt lon="5.791544" lat="51.099652"><ele>12.6</ele><time>2022-05-08T09:33:57.000Z</time></trkpt><trkpt lon="5.791417" lat="51.099657"><ele>12.6</ele><time>2022-05-08T09:33:58.000Z</time></trkpt><trkpt lon="5.791292" lat="51.099663"><ele>12.8</ele><time>2022-05-08T09:33:59.000Z</time></trkpt><trkpt lon="5.79117" lat="51.099667"><ele>12.6</ele><time>2022-05-08T09:34:00.000Z</time></trkpt><trkpt lon="5.791048" lat="51.099669"><ele>12.6</ele><time>2022-05-08T09:34:01.000Z</time></trkpt><trkpt lon="5.790926" lat="51.099673"><ele>12.4</ele><time>2022-05-08T09:34:02.000Z</time></trkpt><trkpt lon="5.790802" lat="51.099674"><ele>12.4</ele><time>2022-05-08T09:34:03.000Z</time></trkpt><trkpt lon="5.790679" lat="51.099674"><ele>12.4</ele><time>2022-05-08T09:34:04.000Z</time></trkpt><trkpt lon="5.790558" lat="51.099674"><ele>12.4</ele><time>2022-05-08T09:34:05.000Z</time></trkpt><trkpt lon="5.79044" lat="51.099674"><ele>12.2</ele><time>2022-05-08T09:34:06.000Z</time></trkpt><trkpt lon="5.790322" lat="51.099672"><ele>12.2</ele><time>2022-05-08T09:34:07.000Z</time></trkpt><trkpt lon="5.7902" lat="51.099668"><ele>12.2</ele><time>2022-05-08T09:34:08.000Z</time></trkpt><trkpt lon="5.790078" lat="51.099664"><ele>12.2</ele><time>2022-05-08T09:34:09.000Z</time></trkpt><trkpt lon="5.789959" lat="51.099661"><ele>12.4</ele><time>2022-05-08T09:34:10.000Z</time></trkpt><trkpt lon="5.789841" lat="51.099657"><ele>12.6</ele><time>2022-05-08T09:34:11.000Z</time></trkpt><trkpt lon="5.789724" lat="51.099651"><ele>12.6</ele><time>2022-05-08T09:34:12.000Z</time></trkpt><trkpt lon="5.789605" lat="51.099643"><ele>12.8</ele><time>2022-05-08T09:34:13.000Z</time></trkpt><trkpt lon="5.789487" lat="51.099635"><ele>13</ele><time>2022-05-08T09:34:14.000Z</time></trkpt><trkpt lon="5.789371" lat="51.099628"><ele>13</ele><time>2022-05-08T09:34:15.000Z</time></trkpt><trkpt lon="5.789255" lat="51.099618"><ele>13</ele><time>2022-05-08T09:34:16.000Z</time></trkpt><trkpt lon="5.789139" lat="51.099606"><ele>13.2</ele><time>2022-05-08T09:34:17.000Z</time></trkpt><trkpt lon="5.789027" lat="51.099595"><ele>13.2</ele><time>2022-05-08T09:34:18.000Z</time></trkpt><trkpt lon="5.788918" lat="51.099584"><ele>13.4</ele><time>2022-05-08T09:34:19.000Z</time></trkpt><trkpt lon="5.78881" lat="51.099572"><ele>13.4</ele><time>2022-05-08T09:34:20.000Z</time></trkpt><trkpt lon="5.788706" lat="51.099563"><ele>13.6</ele><time>2022-05-08T09:34:21.000Z</time></trkpt><trkpt lon="5.788605" lat="51.099558"><ele>13.8</ele><time>2022-05-08T09:34:22.000Z</time></trkpt><trkpt lon="5.788508" lat="51.099556"><ele>13.8</ele><time>2022-05-08T09:34:23.000Z</time></trkpt><trkpt lon="5.788418" lat="51.099563"><ele>13.8</ele><time>2022-05-08T09:34:24.000Z</time></trkpt><trkpt lon="5.788337" lat="51.099587"><ele>13.6</ele><time>2022-05-08T09:34:25.000Z</time></trkpt><trkpt lon="5.788268" lat="51.099631"><ele>13.4</ele><time>2022-05-08T09:34:26.000Z</time></trkpt><trkpt lon="5.788219" lat="51.099684"><ele>13.2</ele><time>2022-05-08T09:34:27.000Z</time></trkpt><trkpt lon="5.788181" lat="51.099746"><ele>12.8</ele><time>2022-05-08T09:34:28.000Z</time></trkpt><trkpt lon="5.788141" lat="51.099814"><ele>13</ele><time>2022-05-08T09:34:29.000Z</time></trkpt><trkpt lon="5.788098" lat="51.09988"><ele>13</ele><time>2022-05-08T09:34:30.000Z</time></trkpt><trkpt lon="5.788062" lat="51.099947"><ele>13</ele><time>2022-05-08T09:34:31.000Z</time></trkpt><trkpt lon="5.788035" lat="51.100016"><ele>13</ele><time>2022-05-08T09:34:32.000Z</time></trkpt><trkpt lon="5.788015" lat="51.100086"><ele>12.8</ele><time>2022-05-08T09:34:33.000Z</time></trkpt><trkpt lon="5.788002" lat="51.100159"><ele>12.4</ele><time>2022-05-08T09:34:34.000Z</time></trkpt><trkpt lon="5.78799" lat="51.100231"><ele>12.2</ele><time>2022-05-08T09:34:35.000Z</time></trkpt><trkpt lon="5.787977" lat="51.100302"><ele>12</ele><time>2022-05-08T09:34:36.000Z</time></trkpt><trkpt lon="5.787963" lat="51.10037"><ele>12</ele><time>2022-05-08T09:34:37.000Z</time></trkpt><trkpt lon="5.787948" lat="51.100441"><ele>12</ele><time>2022-05-08T09:34:38.000Z</time></trkpt><trkpt lon="5.78793" lat="51.100514"><ele>12</ele><time>2022-05-08T09:34:39.000Z</time></trkpt><trkpt lon="5.787911" lat="51.100584"><ele>12.4</ele><time>2022-05-08T09:34:40.000Z</time></trkpt><trkpt lon="5.787894" lat="51.100654"><ele>12.4</ele><time>2022-05-08T09:34:41.000Z</time></trkpt><trkpt lon="5.787876" lat="51.100724"><ele>12.4</ele><time>2022-05-08T09:34:42.000Z</time></trkpt><trkpt lon="5.787859" lat="51.100794"><ele>12.2</ele><time>2022-05-08T09:34:43.000Z</time></trkpt><trkpt lon="5.787843" lat="51.100863"><ele>12</ele><time>2022-05-08T09:34:44.000Z</time></trkpt><trkpt lon="5.787829" lat="51.100929"><ele>11.8</ele><time>2022-05-08T09:34:45.000Z</time></trkpt><trkpt lon="5.787817" lat="51.100996"><ele>11.6</ele><time>2022-05-08T09:34:46.000Z</time></trkpt><trkpt lon="5.787804" lat="51.101064"><ele>11.4</ele><time>2022-05-08T09:34:47.000Z</time></trkpt><trkpt lon="5.787789" lat="51.10113"><ele>11.4</ele><time>2022-05-08T09:34:48.000Z</time></trkpt><trkpt lon="5.787772" lat="51.101198"><ele>11.6</ele><time>2022-05-08T09:34:49.000Z</time></trkpt><trkpt lon="5.787756" lat="51.101267"><ele>11.6</ele><time>2022-05-08T09:34:50.000Z</time></trkpt><trkpt lon="5.787742" lat="51.101332"><ele>11.8</ele><time>2022-05-08T09:34:51.000Z</time></trkpt><trkpt lon="5.787726" lat="51.101402"><ele>11.8</ele><time>2022-05-08T09:34:52.000Z</time></trkpt><trkpt lon="5.787709" lat="51.101473"><ele>12.2</ele><time>2022-05-08T09:34:53.000Z</time></trkpt><trkpt lon="5.787692" lat="51.101543"><ele>12.2</ele><time>2022-05-08T09:34:54.000Z</time></trkpt><trkpt lon="5.787675" lat="51.101615"><ele>12.2</ele><time>2022-05-08T09:34:55.000Z</time></trkpt><trkpt lon="5.787658" lat="51.101686"><ele>12.2</ele><time>2022-05-08T09:34:56.000Z</time></trkpt><trkpt lon="5.787641" lat="51.101756"><ele>12.2</ele><time>2022-05-08T09:34:57.000Z</time></trkpt><trkpt lon="5.787625" lat="51.101827"><ele>12.2</ele><time>2022-05-08T09:34:58.000Z</time></trkpt><trkpt lon="5.78761" lat="51.101896"><ele>12.2</ele><time>2022-05-08T09:34:59.000Z</time></trkpt><trkpt lon="5.787596" lat="51.101965"><ele>12.2</ele><time>2022-05-08T09:35:00.000Z</time></trkpt><trkpt lon="5.78758" lat="51.102031"><ele>12.2</ele><time>2022-05-08T09:35:01.000Z</time></trkpt><trkpt lon="5.787563" lat="51.102102"><ele>12</ele><time>2022-05-08T09:35:02.000Z</time></trkpt><trkpt lon="5.787544" lat="51.102174"><ele>12</ele><time>2022-05-08T09:35:03.000Z</time></trkpt><trkpt lon="5.78753" lat="51.102243"><ele>12</ele><time>2022-05-08T09:35:04.000Z</time></trkpt><trkpt lon="5.787516" lat="51.102314"><ele>12</ele><time>2022-05-08T09:35:05.000Z</time></trkpt><trkpt lon="5.787502" lat="51.102384"><ele>12.2</ele><time>2022-05-08T09:35:06.000Z</time></trkpt><trkpt lon="5.787487" lat="51.102452"><ele>12.2</ele><time>2022-05-08T09:35:07.000Z</time></trkpt><trkpt lon="5.78747" lat="51.102521"><ele>12.2</ele><time>2022-05-08T09:35:08.000Z</time></trkpt><trkpt lon="5.787457" lat="51.102592"><ele>12.2</ele><time>2022-05-08T09:35:09.000Z</time></trkpt><trkpt lon="5.787454" lat="51.102662"><ele>12.4</ele><time>2022-05-08T09:35:10.000Z</time></trkpt><trkpt lon="5.787466" lat="51.102729"><ele>12.2</ele><time>2022-05-08T09:35:11.000Z</time></trkpt><trkpt lon="5.787492" lat="51.102792"><ele>12.2</ele><time>2022-05-08T09:35:12.000Z</time></trkpt><trkpt lon="5.787528" lat="51.102852"><ele>12.2</ele><time>2022-05-08T09:35:13.000Z</time></trkpt><trkpt lon="5.787571" lat="51.102911"><ele>12.2</ele><time>2022-05-08T09:35:14.000Z</time></trkpt><trkpt lon="5.787615" lat="51.102969"><ele>12.2</ele><time>2022-05-08T09:35:15.000Z</time></trkpt><trkpt lon="5.787658" lat="51.103025"><ele>12.2</ele><time>2022-05-08T09:35:16.000Z</time></trkpt><trkpt lon="5.787706" lat="51.103078"><ele>12.2</ele><time>2022-05-08T09:35:17.000Z</time></trkpt><trkpt lon="5.787756" lat="51.10313"><ele>12.2</ele><time>2022-05-08T09:35:18.000Z</time></trkpt><trkpt lon="5.787795" lat="51.103179"><ele>12.4</ele><time>2022-05-08T09:35:19.000Z</time></trkpt><trkpt lon="5.78781" lat="51.103225"><ele>12.6</ele><time>2022-05-08T09:35:20.000Z</time></trkpt><trkpt lon="5.787796" lat="51.103264"><ele>12.8</ele><time>2022-05-08T09:35:21.000Z</time></trkpt><trkpt lon="5.787755" lat="51.103297"><ele>12.8</ele><time>2022-05-08T09:35:22.000Z</time></trkpt><trkpt lon="5.787689" lat="51.103323"><ele>12.8</ele><time>2022-05-08T09:35:23.000Z</time></trkpt><trkpt lon="5.787606" lat="51.10335"><ele>12.8</ele><time>2022-05-08T09:35:24.000Z</time></trkpt><trkpt lon="5.787517" lat="51.103381"><ele>12.6</ele><time>2022-05-08T09:35:25.000Z</time></trkpt><trkpt lon="5.787426" lat="51.103413"><ele>12.6</ele><time>2022-05-08T09:35:26.000Z</time></trkpt><trkpt lon="5.787333" lat="51.103443"><ele>12.6</ele><time>2022-05-08T09:35:27.000Z</time></trkpt><trkpt lon="5.787236" lat="51.10347"><ele>12.6</ele><time>2022-05-08T09:35:28.000Z</time></trkpt><trkpt lon="5.787134" lat="51.103497"><ele>12.6</ele><time>2022-05-08T09:35:29.000Z</time></trkpt><trkpt lon="5.787031" lat="51.103526"><ele>12.8</ele><time>2022-05-08T09:35:30.000Z</time></trkpt><trkpt lon="5.786928" lat="51.103554"><ele>12.8</ele><time>2022-05-08T09:35:31.000Z</time></trkpt><trkpt lon="5.786826" lat="51.103581"><ele>12.8</ele><time>2022-05-08T09:35:32.000Z</time></trkpt><trkpt lon="5.786725" lat="51.103607"><ele>12.6</ele><time>2022-05-08T09:35:33.000Z</time></trkpt><trkpt lon="5.786623" lat="51.103634"><ele>12.6</ele><time>2022-05-08T09:35:34.000Z</time></trkpt><trkpt lon="5.786522" lat="51.103661"><ele>12.4</ele><time>2022-05-08T09:35:35.000Z</time></trkpt><trkpt lon="5.78642" lat="51.103687"><ele>12.4</ele><time>2022-05-08T09:35:36.000Z</time></trkpt><trkpt lon="5.786319" lat="51.103716"><ele>12.4</ele><time>2022-05-08T09:35:37.000Z</time></trkpt><trkpt lon="5.786214" lat="51.103742"><ele>12.4</ele><time>2022-05-08T09:35:38.000Z</time></trkpt><trkpt lon="5.786108" lat="51.103767"><ele>12.2</ele><time>2022-05-08T09:35:39.000Z</time></trkpt><trkpt lon="5.786003" lat="51.103792"><ele>12.2</ele><time>2022-05-08T09:35:40.000Z</time></trkpt><trkpt lon="5.785898" lat="51.103811"><ele>12.4</ele><time>2022-05-08T09:35:41.000Z</time></trkpt><trkpt lon="5.785792" lat="51.103828"><ele>12.6</ele><time>2022-05-08T09:35:42.000Z</time></trkpt><trkpt lon="5.785685" lat="51.103843"><ele>12.6</ele><time>2022-05-08T09:35:43.000Z</time></trkpt><trkpt lon="5.785576" lat="51.103854"><ele>12.8</ele><time>2022-05-08T09:35:44.000Z</time></trkpt><trkpt lon="5.785472" lat="51.103868"><ele>12.8</ele><time>2022-05-08T09:35:45.000Z</time></trkpt><trkpt lon="5.785369" lat="51.103883"><ele>13</ele><time>2022-05-08T09:35:46.000Z</time></trkpt><trkpt lon="5.785266" lat="51.1039"><ele>13.2</ele><time>2022-05-08T09:35:47.000Z</time></trkpt><trkpt lon="5.78516" lat="51.103917"><ele>13.2</ele><time>2022-05-08T09:35:48.000Z</time></trkpt><trkpt lon="5.78505" lat="51.103932"><ele>13.2</ele><time>2022-05-08T09:35:49.000Z</time></trkpt><trkpt lon="5.784935" lat="51.103943"><ele>13.2</ele><time>2022-05-08T09:35:50.000Z</time></trkpt><trkpt lon="5.784817" lat="51.103951"><ele>13.4</ele><time>2022-05-08T09:35:51.000Z</time></trkpt><trkpt lon="5.784698" lat="51.103954"><ele>13.4</ele><time>2022-05-08T09:35:52.000Z</time></trkpt><trkpt lon="5.784583" lat="51.103954"><ele>13.8</ele><time>2022-05-08T09:35:53.000Z</time></trkpt><trkpt lon="5.784472" lat="51.103954"><ele>14</ele><time>2022-05-08T09:35:54.000Z</time></trkpt><trkpt lon="5.784363" lat="51.103952"><ele>14.2</ele><time>2022-05-08T09:35:55.000Z</time></trkpt><trkpt lon="5.784258" lat="51.10395"><ele>14.4</ele><time>2022-05-08T09:35:56.000Z</time></trkpt><trkpt lon="5.784162" lat="51.103953"><ele>14.6</ele><time>2022-05-08T09:35:57.000Z</time></trkpt><trkpt lon="5.784071" lat="51.103963"><ele>14.8</ele><time>2022-05-08T09:35:58.000Z</time></trkpt><trkpt lon="5.783997" lat="51.103987"><ele>14.8</ele><time>2022-05-08T09:35:59.000Z</time></trkpt><trkpt lon="5.783953" lat="51.10402"><ele>15</ele><time>2022-05-08T09:36:00.000Z</time></trkpt><trkpt lon="5.78395" lat="51.104059"><ele>14.8</ele><time>2022-05-08T09:36:01.000Z</time></trkpt><trkpt lon="5.783977" lat="51.104101"><ele>14.8</ele><time>2022-05-08T09:36:02.000Z</time></trkpt><trkpt lon="5.784017" lat="51.104149"><ele>14.6</ele><time>2022-05-08T09:36:03.000Z</time></trkpt><trkpt lon="5.784061" lat="51.104198"><ele>14.4</ele><time>2022-05-08T09:36:04.000Z</time></trkpt><trkpt lon="5.784104" lat="51.104246"><ele>14.4</ele><time>2022-05-08T09:36:05.000Z</time></trkpt><trkpt lon="5.784146" lat="51.104295"><ele>14.4</ele><time>2022-05-08T09:36:06.000Z</time></trkpt><trkpt lon="5.78418" lat="51.104347"><ele>14.6</ele><time>2022-05-08T09:36:07.000Z</time></trkpt><trkpt lon="5.784195" lat="51.104403"><ele>14.6</ele><time>2022-05-08T09:36:08.000Z</time></trkpt><trkpt lon="5.784185" lat="51.10446"><ele>14.6</ele><time>2022-05-08T09:36:09.000Z</time></trkpt><trkpt lon="5.784152" lat="51.104516"><ele>14.8</ele><time>2022-05-08T09:36:10.000Z</time></trkpt><trkpt lon="5.784091" lat="51.104564"><ele>14.8</ele><time>2022-05-08T09:36:11.000Z</time></trkpt><trkpt lon="5.784006" lat="51.104606"><ele>14.8</ele><time>2022-05-08T09:36:12.000Z</time></trkpt><trkpt lon="5.78391" lat="51.104645"><ele>15</ele><time>2022-05-08T09:36:13.000Z</time></trkpt><trkpt lon="5.78381" lat="51.104688"><ele>15</ele><time>2022-05-08T09:36:14.000Z</time></trkpt><trkpt lon="5.78371" lat="51.104732"><ele>15.2</ele><time>2022-05-08T09:36:15.000Z</time></trkpt><trkpt lon="5.783612" lat="51.104776"><ele>15.2</ele><time>2022-05-08T09:36:16.000Z</time></trkpt><trkpt lon="5.783514" lat="51.10482"><ele>15.4</ele><time>2022-05-08T09:36:17.000Z</time></trkpt><trkpt lon="5.783421" lat="51.104865"><ele>15.2</ele><time>2022-05-08T09:36:18.000Z</time></trkpt><trkpt lon="5.783329" lat="51.104913"><ele>15.2</ele><time>2022-05-08T09:36:19.000Z</time></trkpt><trkpt lon="5.783242" lat="51.104963"><ele>15.2</ele><time>2022-05-08T09:36:20.000Z</time></trkpt><trkpt lon="5.783157" lat="51.105016"><ele>15.4</ele><time>2022-05-08T09:36:21.000Z</time></trkpt><trkpt lon="5.783075" lat="51.105074"><ele>15.4</ele><time>2022-05-08T09:36:22.000Z</time></trkpt><trkpt lon="5.783" lat="51.105132"><ele>15.4</ele><time>2022-05-08T09:36:23.000Z</time></trkpt><trkpt lon="5.782934" lat="51.105194"><ele>15.4</ele><time>2022-05-08T09:36:24.000Z</time></trkpt><trkpt lon="5.78288" lat="51.105258"><ele>15.4</ele><time>2022-05-08T09:36:25.000Z</time></trkpt><trkpt lon="5.782836" lat="51.105325"><ele>15.4</ele><time>2022-05-08T09:36:26.000Z</time></trkpt><trkpt lon="5.782799" lat="51.105393"><ele>15.4</ele><time>2022-05-08T09:36:27.000Z</time></trkpt><trkpt lon="5.782765" lat="51.105464"><ele>15.4</ele><time>2022-05-08T09:36:28.000Z</time></trkpt><trkpt lon="5.782732" lat="51.105534"><ele>15.6</ele><time>2022-05-08T09:36:29.000Z</time></trkpt><trkpt lon="5.782702" lat="51.105603"><ele>15.8</ele><time>2022-05-08T09:36:30.000Z</time></trkpt><trkpt lon="5.782676" lat="51.105675"><ele>16</ele><time>2022-05-08T09:36:31.000Z</time></trkpt><trkpt lon="5.782654" lat="51.105747"><ele>15.8</ele><time>2022-05-08T09:36:32.000Z</time></trkpt><trkpt lon="5.782642" lat="51.105817"><ele>15.4</ele><time>2022-05-08T09:36:33.000Z</time></trkpt><trkpt lon="5.782638" lat="51.105888"><ele>15.2</ele><time>2022-05-08T09:36:34.000Z</time></trkpt><trkpt lon="5.782638" lat="51.105962"><ele>15</ele><time>2022-05-08T09:36:35.000Z</time></trkpt><trkpt lon="5.782641" lat="51.106034"><ele>14.8</ele><time>2022-05-08T09:36:36.000Z</time></trkpt><trkpt lon="5.782648" lat="51.106106"><ele>14.8</ele><time>2022-05-08T09:36:37.000Z</time></trkpt><trkpt lon="5.782655" lat="51.106176"><ele>14.8</ele><time>2022-05-08T09:36:38.000Z</time></trkpt><trkpt lon="5.782662" lat="51.106241"><ele>14.6</ele><time>2022-05-08T09:36:39.000Z</time></trkpt><trkpt lon="5.782669" lat="51.106311"><ele>14.4</ele><time>2022-05-08T09:36:40.000Z</time></trkpt><trkpt lon="5.782675" lat="51.106382"><ele>14.4</ele><time>2022-05-08T09:36:41.000Z</time></trkpt><trkpt lon="5.782678" lat="51.10645"><ele>14.4</ele><time>2022-05-08T09:36:42.000Z</time></trkpt><trkpt lon="5.782674" lat="51.106517"><ele>14.2</ele><time>2022-05-08T09:36:43.000Z</time></trkpt><trkpt lon="5.782666" lat="51.106586"><ele>14.2</ele><time>2022-05-08T09:36:44.000Z</time></trkpt><trkpt lon="5.782659" lat="51.106659"><ele>14.2</ele><time>2022-05-08T09:36:45.000Z</time></trkpt><trkpt lon="5.782654" lat="51.106729"><ele>14.4</ele><time>2022-05-08T09:36:46.000Z</time></trkpt><trkpt lon="5.782649" lat="51.106797"><ele>14.4</ele><time>2022-05-08T09:36:47.000Z</time></trkpt><trkpt lon="5.782645" lat="51.106867"><ele>14.6</ele><time>2022-05-08T09:36:48.000Z</time></trkpt><trkpt lon="5.782641" lat="51.106941"><ele>14.8</ele><time>2022-05-08T09:36:49.000Z</time></trkpt><trkpt lon="5.782636" lat="51.107011"><ele>15</ele><time>2022-05-08T09:36:50.000Z</time></trkpt><trkpt lon="5.78263" lat="51.10708"><ele>15</ele><time>2022-05-08T09:36:51.000Z</time></trkpt><trkpt lon="5.782622" lat="51.107151"><ele>15</ele><time>2022-05-08T09:36:52.000Z</time></trkpt><trkpt lon="5.782615" lat="51.107226"><ele>15</ele><time>2022-05-08T09:36:53.000Z</time></trkpt><trkpt lon="5.782611" lat="51.1073"><ele>15</ele><time>2022-05-08T09:36:54.000Z</time></trkpt><trkpt lon="5.782604" lat="51.107375"><ele>15</ele><time>2022-05-08T09:36:55.000Z</time></trkpt><trkpt lon="5.782594" lat="51.107448"><ele>14.8</ele><time>2022-05-08T09:36:56.000Z</time></trkpt><trkpt lon="5.782583" lat="51.107521"><ele>15</ele><time>2022-05-08T09:36:57.000Z</time></trkpt><trkpt lon="5.782572" lat="51.107593"><ele>15.2</ele><time>2022-05-08T09:36:58.000Z</time></trkpt><trkpt lon="5.782562" lat="51.107666"><ele>15.4</ele><time>2022-05-08T09:36:59.000Z</time></trkpt><trkpt lon="5.782555" lat="51.107738"><ele>15.4</ele><time>2022-05-08T09:37:00.000Z</time></trkpt><trkpt lon="5.782554" lat="51.107806"><ele>15.4</ele><time>2022-05-08T09:37:01.000Z</time></trkpt><trkpt lon="5.78256" lat="51.107873"><ele>15.4</ele><time>2022-05-08T09:37:02.000Z</time></trkpt><trkpt lon="5.782574" lat="51.107943"><ele>15.4</ele><time>2022-05-08T09:37:03.000Z</time></trkpt><trkpt lon="5.782601" lat="51.108014"><ele>15.4</ele><time>2022-05-08T09:37:04.000Z</time></trkpt><trkpt lon="5.782637" lat="51.108083"><ele>15.4</ele><time>2022-05-08T09:37:05.000Z</time></trkpt><trkpt lon="5.782678" lat="51.108149"><ele>15.4</ele><time>2022-05-08T09:37:06.000Z</time></trkpt><trkpt lon="5.782728" lat="51.108212"><ele>15.4</ele><time>2022-05-08T09:37:07.000Z</time></trkpt><trkpt lon="5.78278" lat="51.108276"><ele>15</ele><time>2022-05-08T09:37:08.000Z</time></trkpt><trkpt lon="5.782829" lat="51.10834"><ele>15</ele><time>2022-05-08T09:37:09.000Z</time></trkpt><trkpt lon="5.782878" lat="51.108403"><ele>15</ele><time>2022-05-08T09:37:10.000Z</time></trkpt><trkpt lon="5.782926" lat="51.108464"><ele>15.2</ele><time>2022-05-08T09:37:11.000Z</time></trkpt><trkpt lon="5.782977" lat="51.108527"><ele>15</ele><time>2022-05-08T09:37:12.000Z</time></trkpt><trkpt lon="5.783031" lat="51.10859"><ele>15</ele><time>2022-05-08T09:37:13.000Z</time></trkpt><trkpt lon="5.783084" lat="51.108651"><ele>15</ele><time>2022-05-08T09:37:14.000Z</time></trkpt><trkpt lon="5.783137" lat="51.108712"><ele>15.2</ele><time>2022-05-08T09:37:15.000Z</time></trkpt><trkpt lon="5.78319" lat="51.108775"><ele>15</ele><time>2022-05-08T09:37:16.000Z</time></trkpt><trkpt lon="5.783239" lat="51.10884"><ele>15</ele><time>2022-05-08T09:37:17.000Z</time></trkpt><trkpt lon="5.783282" lat="51.108907"><ele>15.2</ele><time>2022-05-08T09:37:18.000Z</time></trkpt><trkpt lon="5.783323" lat="51.108974"><ele>15.4</ele><time>2022-05-08T09:37:19.000Z</time></trkpt><trkpt lon="5.783364" lat="51.109038"><ele>15.4</ele><time>2022-05-08T09:37:20.000Z</time></trkpt><trkpt lon="5.7834" lat="51.1091"><ele>15.4</ele><time>2022-05-08T09:37:21.000Z</time></trkpt><trkpt lon="5.783438" lat="51.109164"><ele>15.4</ele><time>2022-05-08T09:37:22.000Z</time></trkpt><trkpt lon="5.783478" lat="51.109233"><ele>15.4</ele><time>2022-05-08T09:37:23.000Z</time></trkpt><trkpt lon="5.783513" lat="51.109298"><ele>15.6</ele><time>2022-05-08T09:37:24.000Z</time></trkpt><trkpt lon="5.783545" lat="51.109363"><ele>15.6</ele><time>2022-05-08T09:37:25.000Z</time></trkpt><trkpt lon="5.783576" lat="51.109427"><ele>15.8</ele><time>2022-05-08T09:37:26.000Z</time></trkpt><trkpt lon="5.783608" lat="51.109492"><ele>15.8</ele><time>2022-05-08T09:37:27.000Z</time></trkpt><trkpt lon="5.78364" lat="51.10956"><ele>15.6</ele><time>2022-05-08T09:37:28.000Z</time></trkpt><trkpt lon="5.783671" lat="51.109628"><ele>15.6</ele><time>2022-05-08T09:37:29.000Z</time></trkpt><trkpt lon="5.783701" lat="51.109696"><ele>15.6</ele><time>2022-05-08T09:37:30.000Z</time></trkpt><trkpt lon="5.783735" lat="51.109761"><ele>15.6</ele><time>2022-05-08T09:37:31.000Z</time></trkpt><trkpt lon="5.783771" lat="51.109829"><ele>15.6</ele><time>2022-05-08T09:37:32.000Z</time></trkpt><trkpt lon="5.783808" lat="51.109901"><ele>15.4</ele><time>2022-05-08T09:37:33.000Z</time></trkpt><trkpt lon="5.783844" lat="51.109968"><ele>15.4</ele><time>2022-05-08T09:37:34.000Z</time></trkpt><trkpt lon="5.783885" lat="51.110033"><ele>15.2</ele><time>2022-05-08T09:37:35.000Z</time></trkpt><trkpt lon="5.783925" lat="51.110097"><ele>15.2</ele><time>2022-05-08T09:37:36.000Z</time></trkpt><trkpt lon="5.783965" lat="51.110158"><ele>15.4</ele><time>2022-05-08T09:37:37.000Z</time></trkpt><trkpt lon="5.784005" lat="51.110217"><ele>15.4</ele><time>2022-05-08T09:37:38.000Z</time></trkpt><trkpt lon="5.784045" lat="51.110274"><ele>15.4</ele><time>2022-05-08T09:37:39.000Z</time></trkpt><trkpt lon="5.784088" lat="51.110333"><ele>15.6</ele><time>2022-05-08T09:37:40.000Z</time></trkpt><trkpt lon="5.784136" lat="51.110395"><ele>15.8</ele><time>2022-05-08T09:37:41.000Z</time></trkpt><trkpt lon="5.784187" lat="51.110453"><ele>15.8</ele><time>2022-05-08T09:37:42.000Z</time></trkpt><trkpt lon="5.78424" lat="51.110513"><ele>15.8</ele><time>2022-05-08T09:37:43.000Z</time></trkpt><trkpt lon="5.784294" lat="51.110576"><ele>15.8</ele><time>2022-05-08T09:37:44.000Z</time></trkpt><trkpt lon="5.784347" lat="51.110639"><ele>15.8</ele><time>2022-05-08T09:37:45.000Z</time></trkpt><trkpt lon="5.784399" lat="51.1107"><ele>15.6</ele><time>2022-05-08T09:37:46.000Z</time></trkpt><trkpt lon="5.78445" lat="51.110761"><ele>15.4</ele><time>2022-05-08T09:37:47.000Z</time></trkpt><trkpt lon="5.784499" lat="51.110821"><ele>15.4</ele><time>2022-05-08T09:37:48.000Z</time></trkpt><trkpt lon="5.784547" lat="51.110882"><ele>15.4</ele><time>2022-05-08T09:37:49.000Z</time></trkpt><trkpt lon="5.784596" lat="51.110943"><ele>15.2</ele><time>2022-05-08T09:37:50.000Z</time></trkpt><trkpt lon="5.784647" lat="51.111001"><ele>15</ele><time>2022-05-08T09:37:51.000Z</time></trkpt><trkpt lon="5.784698" lat="51.111061"><ele>14.8</ele><time>2022-05-08T09:37:52.000Z</time></trkpt><trkpt lon="5.784749" lat="51.111123"><ele>15.2</ele><time>2022-05-08T09:37:53.000Z</time></trkpt><trkpt lon="5.784801" lat="51.111182"><ele>15.2</ele><time>2022-05-08T09:37:54.000Z</time></trkpt><trkpt lon="5.784855" lat="51.111241"><ele>15.4</ele><time>2022-05-08T09:37:55.000Z</time></trkpt><trkpt lon="5.784911" lat="51.1113"><ele>15.2</ele><time>2022-05-08T09:37:56.000Z</time></trkpt><trkpt lon="5.784967" lat="51.111357"><ele>15.4</ele><time>2022-05-08T09:37:57.000Z</time></trkpt><trkpt lon="5.785025" lat="51.111413"><ele>15.4</ele><time>2022-05-08T09:37:58.000Z</time></trkpt><trkpt lon="5.785085" lat="51.11147"><ele>15.6</ele><time>2022-05-08T09:37:59.000Z</time></trkpt><trkpt lon="5.785143" lat="51.111528"><ele>15.8</ele><time>2022-05-08T09:38:00.000Z</time></trkpt><trkpt lon="5.785199" lat="51.111584"><ele>16</ele><time>2022-05-08T09:38:01.000Z</time></trkpt><trkpt lon="5.785255" lat="51.111642"><ele>16</ele><time>2022-05-08T09:38:02.000Z</time></trkpt><trkpt lon="5.785312" lat="51.111701"><ele>16.2</ele><time>2022-05-08T09:38:03.000Z</time></trkpt><trkpt lon="5.785366" lat="51.111756"><ele>16.4</ele><time>2022-05-08T09:38:04.000Z</time></trkpt><trkpt lon="5.785419" lat="51.111809"><ele>16.4</ele><time>2022-05-08T09:38:05.000Z</time></trkpt><trkpt lon="5.785471" lat="51.111865"><ele>16.6</ele><time>2022-05-08T09:38:06.000Z</time></trkpt><trkpt lon="5.785518" lat="51.111924"><ele>16.4</ele><time>2022-05-08T09:38:07.000Z</time></trkpt><trkpt lon="5.785562" lat="51.111985"><ele>16.4</ele><time>2022-05-08T09:38:08.000Z</time></trkpt><trkpt lon="5.7856" lat="51.112048"><ele>16.2</ele><time>2022-05-08T09:38:09.000Z</time></trkpt><trkpt lon="5.785635" lat="51.112113"><ele>16.2</ele><time>2022-05-08T09:38:10.000Z</time></trkpt><trkpt lon="5.785668" lat="51.112176"><ele>16</ele><time>2022-05-08T09:38:11.000Z</time></trkpt><trkpt lon="5.785698" lat="51.112239"><ele>15.8</ele><time>2022-05-08T09:38:12.000Z</time></trkpt><trkpt lon="5.785728" lat="51.112306"><ele>15.6</ele><time>2022-05-08T09:38:13.000Z</time></trkpt><trkpt lon="5.78576" lat="51.112372"><ele>15.6</ele><time>2022-05-08T09:38:14.000Z</time></trkpt><trkpt lon="5.785791" lat="51.112437"><ele>15.6</ele><time>2022-05-08T09:38:15.000Z</time></trkpt><trkpt lon="5.785824" lat="51.112502"><ele>15.6</ele><time>2022-05-08T09:38:16.000Z</time></trkpt><trkpt lon="5.785856" lat="51.112569"><ele>15.4</ele><time>2022-05-08T09:38:17.000Z</time></trkpt><trkpt lon="5.785887" lat="51.112635"><ele>15.2</ele><time>2022-05-08T09:38:18.000Z</time></trkpt><trkpt lon="5.785918" lat="51.112701"><ele>15.4</ele><time>2022-05-08T09:38:19.000Z</time></trkpt><trkpt lon="5.78595" lat="51.112765"><ele>15.4</ele><time>2022-05-08T09:38:20.000Z</time></trkpt><trkpt lon="5.78598" lat="51.112828"><ele>15.6</ele><time>2022-05-08T09:38:21.000Z</time></trkpt><trkpt lon="5.786012" lat="51.112893"><ele>15.8</ele><time>2022-05-08T09:38:22.000Z</time></trkpt><trkpt lon="5.786046" lat="51.11296"><ele>15.8</ele><time>2022-05-08T09:38:23.000Z</time></trkpt><trkpt lon="5.78608" lat="51.113025"><ele>16</ele><time>2022-05-08T09:38:24.000Z</time></trkpt><trkpt lon="5.786117" lat="51.11309"><ele>16</ele><time>2022-05-08T09:38:25.000Z</time></trkpt><trkpt lon="5.786161" lat="51.113149"><ele>16.2</ele><time>2022-05-08T09:38:26.000Z</time></trkpt><trkpt lon="5.786214" lat="51.113207"><ele>16.2</ele><time>2022-05-08T09:38:27.000Z</time></trkpt><trkpt lon="5.786273" lat="51.113262"><ele>16.2</ele><time>2022-05-08T09:38:28.000Z</time></trkpt><trkpt lon="5.786335" lat="51.113316"><ele>16.4</ele><time>2022-05-08T09:38:29.000Z</time></trkpt><trkpt lon="5.786398" lat="51.113369"><ele>16.6</ele><time>2022-05-08T09:38:30.000Z</time></trkpt><trkpt lon="5.786462" lat="51.11342"><ele>16.4</ele><time>2022-05-08T09:38:31.000Z</time></trkpt><trkpt lon="5.786525" lat="51.113472"><ele>16.4</ele><time>2022-05-08T09:38:32.000Z</time></trkpt><trkpt lon="5.786588" lat="51.113526"><ele>16.4</ele><time>2022-05-08T09:38:33.000Z</time></trkpt><trkpt lon="5.786651" lat="51.113579"><ele>16.4</ele><time>2022-05-08T09:38:34.000Z</time></trkpt><trkpt lon="5.786711" lat="51.113632"><ele>16.6</ele><time>2022-05-08T09:38:35.000Z</time></trkpt><trkpt lon="5.78677" lat="51.113688"><ele>16.6</ele><time>2022-05-08T09:38:36.000Z</time></trkpt><trkpt lon="5.786823" lat="51.113744"><ele>16.6</ele><time>2022-05-08T09:38:37.000Z</time></trkpt><trkpt lon="5.786872" lat="51.113803"><ele>16.4</ele><time>2022-05-08T09:38:38.000Z</time></trkpt><trkpt lon="5.786912" lat="51.113868"><ele>16.4</ele><time>2022-05-08T09:38:39.000Z</time></trkpt><trkpt lon="5.786943" lat="51.113934"><ele>16.4</ele><time>2022-05-08T09:38:40.000Z</time></trkpt><trkpt lon="5.78697" lat="51.114"><ele>16.2</ele><time>2022-05-08T09:38:41.000Z</time></trkpt><trkpt lon="5.786991" lat="51.114066"><ele>15.8</ele><time>2022-05-08T09:38:42.000Z</time></trkpt><trkpt lon="5.787004" lat="51.114129"><ele>15.8</ele><time>2022-05-08T09:38:43.000Z</time></trkpt><trkpt lon="5.787011" lat="51.11419"><ele>15.8</ele><time>2022-05-08T09:38:44.000Z</time></trkpt><trkpt lon="5.787014" lat="51.114249"><ele>15.6</ele><time>2022-05-08T09:38:45.000Z</time></trkpt><trkpt lon="5.787012" lat="51.114306"><ele>15.6</ele><time>2022-05-08T09:38:46.000Z</time></trkpt><trkpt lon="5.787008" lat="51.114361"><ele>15.4</ele><time>2022-05-08T09:38:47.000Z</time></trkpt><trkpt lon="5.787004" lat="51.114416"><ele>15.4</ele><time>2022-05-08T09:38:48.000Z</time></trkpt><trkpt lon="5.786996" lat="51.114477"><ele>15.2</ele><time>2022-05-08T09:38:49.000Z</time></trkpt><trkpt lon="5.786984" lat="51.114543"><ele>15</ele><time>2022-05-08T09:38:50.000Z</time></trkpt><trkpt lon="5.786972" lat="51.114602"><ele>15.2</ele><time>2022-05-08T09:38:51.000Z</time></trkpt><trkpt lon="5.786964" lat="51.114666"><ele>15</ele><time>2022-05-08T09:38:52.000Z</time></trkpt><trkpt lon="5.786961" lat="51.114749"><ele>15.2</ele><time>2022-05-08T09:38:53.000Z</time></trkpt><trkpt lon="5.78696" lat="51.114828"><ele>15</ele><time>2022-05-08T09:38:54.000Z</time></trkpt><trkpt lon="5.78696" lat="51.114904"><ele>15</ele><time>2022-05-08T09:38:55.000Z</time></trkpt><trkpt lon="5.786961" lat="51.114978"><ele>15</ele><time>2022-05-08T09:38:56.000Z</time></trkpt><trkpt lon="5.786962" lat="51.11505"><ele>15</ele><time>2022-05-08T09:38:57.000Z</time></trkpt><trkpt lon="5.786962" lat="51.115126"><ele>15</ele><time>2022-05-08T09:38:58.000Z</time></trkpt><trkpt lon="5.786962" lat="51.1152"><ele>15.2</ele><time>2022-05-08T09:38:59.000Z</time></trkpt><trkpt lon="5.78696" lat="51.11527"><ele>15.2</ele><time>2022-05-08T09:39:00.000Z</time></trkpt><trkpt lon="5.786955" lat="51.115341"><ele>15.4</ele><time>2022-05-08T09:39:01.000Z</time></trkpt><trkpt lon="5.786949" lat="51.115413"><ele>15.4</ele><time>2022-05-08T09:39:02.000Z</time></trkpt><trkpt lon="5.786938" lat="51.115486"><ele>15.2</ele><time>2022-05-08T09:39:03.000Z</time></trkpt><trkpt lon="5.786925" lat="51.115559"><ele>15</ele><time>2022-05-08T09:39:04.000Z</time></trkpt><trkpt lon="5.786909" lat="51.115631"><ele>14.8</ele><time>2022-05-08T09:39:05.000Z</time></trkpt><trkpt lon="5.786891" lat="51.115703"><ele>14.8</ele><time>2022-05-08T09:39:06.000Z</time></trkpt><trkpt lon="5.786873" lat="51.115775"><ele>14.6</ele><time>2022-05-08T09:39:07.000Z</time></trkpt><trkpt lon="5.786852" lat="51.115848"><ele>14.4</ele><time>2022-05-08T09:39:08.000Z</time></trkpt><trkpt lon="5.786828" lat="51.115921"><ele>14.4</ele><time>2022-05-08T09:39:09.000Z</time></trkpt><trkpt lon="5.786804" lat="51.115991"><ele>14.4</ele><time>2022-05-08T09:39:10.000Z</time></trkpt><trkpt lon="5.786779" lat="51.116062"><ele>14.2</ele><time>2022-05-08T09:39:11.000Z</time></trkpt><trkpt lon="5.786754" lat="51.116132"><ele>14.2</ele><time>2022-05-08T09:39:12.000Z</time></trkpt><trkpt lon="5.786729" lat="51.116201"><ele>14.2</ele><time>2022-05-08T09:39:13.000Z</time></trkpt><trkpt lon="5.786705" lat="51.11627"><ele>14.2</ele><time>2022-05-08T09:39:14.000Z</time></trkpt><trkpt lon="5.786682" lat="51.116338"><ele>14.4</ele><time>2022-05-08T09:39:15.000Z</time></trkpt><trkpt lon="5.786659" lat="51.116407"><ele>14.4</ele><time>2022-05-08T09:39:16.000Z</time></trkpt><trkpt lon="5.786641" lat="51.116475"><ele>14.4</ele><time>2022-05-08T09:39:17.000Z</time></trkpt><trkpt lon="5.786627" lat="51.116544"><ele>14.6</ele><time>2022-05-08T09:39:18.000Z</time></trkpt><trkpt lon="5.786618" lat="51.116615"><ele>14.6</ele><time>2022-05-08T09:39:19.000Z</time></trkpt><trkpt lon="5.786615" lat="51.116685"><ele>14.6</ele><time>2022-05-08T09:39:20.000Z</time></trkpt><trkpt lon="5.786619" lat="51.116752"><ele>14.6</ele><time>2022-05-08T09:39:21.000Z</time></trkpt><trkpt lon="5.786625" lat="51.11682"><ele>14.8</ele><time>2022-05-08T09:39:22.000Z</time></trkpt><trkpt lon="5.786633" lat="51.116888"><ele>14.8</ele><time>2022-05-08T09:39:23.000Z</time></trkpt><trkpt lon="5.786645" lat="51.116954"><ele>14.8</ele><time>2022-05-08T09:39:24.000Z</time></trkpt><trkpt lon="5.786661" lat="51.117019"><ele>14.8</ele><time>2022-05-08T09:39:25.000Z</time></trkpt><trkpt lon="5.786681" lat="51.117084"><ele>15</ele><time>2022-05-08T09:39:26.000Z</time></trkpt><trkpt lon="5.786703" lat="51.11715"><ele>15</ele><time>2022-05-08T09:39:27.000Z</time></trkpt><trkpt lon="5.786728" lat="51.117215"><ele>15</ele><time>2022-05-08T09:39:28.000Z</time></trkpt><trkpt lon="5.786752" lat="51.117278"><ele>15.2</ele><time>2022-05-08T09:39:29.000Z</time></trkpt><trkpt lon="5.786774" lat="51.117345"><ele>15</ele><time>2022-05-08T09:39:30.000Z</time></trkpt><trkpt lon="5.786796" lat="51.117414"><ele>15</ele><time>2022-05-08T09:39:31.000Z</time></trkpt><trkpt lon="5.786817" lat="51.117482"><ele>15.2</ele><time>2022-05-08T09:39:32.000Z</time></trkpt><trkpt lon="5.786841" lat="51.117552"><ele>15.2</ele><time>2022-05-08T09:39:33.000Z</time></trkpt><trkpt lon="5.786866" lat="51.117618"><ele>15</ele><time>2022-05-08T09:39:34.000Z</time></trkpt><trkpt lon="5.78689" lat="51.117687"><ele>15</ele><time>2022-05-08T09:39:35.000Z</time></trkpt><trkpt lon="5.786913" lat="51.117759"><ele>15</ele><time>2022-05-08T09:39:36.000Z</time></trkpt><trkpt lon="5.786937" lat="51.117831"><ele>15</ele><time>2022-05-08T09:39:37.000Z</time></trkpt><trkpt lon="5.786957" lat="51.117904"><ele>14.8</ele><time>2022-05-08T09:39:38.000Z</time></trkpt><trkpt lon="5.786972" lat="51.117979"><ele>14.8</ele><time>2022-05-08T09:39:39.000Z</time></trkpt><trkpt lon="5.78698" lat="51.118053"><ele>14.6</ele><time>2022-05-08T09:39:40.000Z</time></trkpt><trkpt lon="5.786978" lat="51.118123"><ele>14.8</ele><time>2022-05-08T09:39:41.000Z</time></trkpt><trkpt lon="5.786965" lat="51.118192"><ele>14.8</ele><time>2022-05-08T09:39:42.000Z</time></trkpt><trkpt lon="5.786939" lat="51.118258"><ele>14.8</ele><time>2022-05-08T09:39:43.000Z</time></trkpt><trkpt lon="5.786902" lat="51.118323"><ele>14.8</ele><time>2022-05-08T09:39:44.000Z</time></trkpt><trkpt lon="5.786862" lat="51.118388"><ele>14.8</ele><time>2022-05-08T09:39:45.000Z</time></trkpt><trkpt lon="5.786821" lat="51.118453"><ele>14.8</ele><time>2022-05-08T09:39:46.000Z</time></trkpt><trkpt lon="5.78678" lat="51.118518"><ele>14.8</ele><time>2022-05-08T09:39:47.000Z</time></trkpt><trkpt lon="5.786749" lat="51.118579"><ele>14.8</ele><time>2022-05-08T09:39:48.000Z</time></trkpt><trkpt lon="5.786724" lat="51.118646"><ele>14.8</ele><time>2022-05-08T09:39:49.000Z</time></trkpt><trkpt lon="5.786712" lat="51.118724"><ele>14.8</ele><time>2022-05-08T09:39:50.000Z</time></trkpt><trkpt lon="5.786717" lat="51.118793"><ele>14.8</ele><time>2022-05-08T09:39:51.000Z</time></trkpt><trkpt lon="5.786733" lat="51.118865"><ele>14.8</ele><time>2022-05-08T09:39:52.000Z</time></trkpt><trkpt lon="5.786755" lat="51.118937"><ele>14.8</ele><time>2022-05-08T09:39:53.000Z</time></trkpt><trkpt lon="5.786783" lat="51.119003"><ele>14.8</ele><time>2022-05-08T09:39:54.000Z</time></trkpt><trkpt lon="5.786812" lat="51.11907"><ele>14.8</ele><time>2022-05-08T09:39:55.000Z</time></trkpt><trkpt lon="5.786843" lat="51.119138"><ele>14.8</ele><time>2022-05-08T09:39:56.000Z</time></trkpt><trkpt lon="5.786876" lat="51.119207"><ele>14.8</ele><time>2022-05-08T09:39:57.000Z</time></trkpt><trkpt lon="5.786909" lat="51.119271"><ele>14.8</ele><time>2022-05-08T09:39:58.000Z</time></trkpt><trkpt lon="5.786941" lat="51.119334"><ele>14.8</ele><time>2022-05-08T09:39:59.000Z</time></trkpt><trkpt lon="5.786973" lat="51.119399"><ele>15</ele><time>2022-05-08T09:40:00.000Z</time></trkpt><trkpt lon="5.787006" lat="51.119464"><ele>14.8</ele><time>2022-05-08T09:40:01.000Z</time></trkpt><trkpt lon="5.787038" lat="51.119529"><ele>14.6</ele><time>2022-05-08T09:40:02.000Z</time></trkpt><trkpt lon="5.787071" lat="51.119591"><ele>14.4</ele><time>2022-05-08T09:40:03.000Z</time></trkpt><trkpt lon="5.787105" lat="51.119655"><ele>14.4</ele><time>2022-05-08T09:40:04.000Z</time></trkpt><trkpt lon="5.787138" lat="51.11972"><ele>14.4</ele><time>2022-05-08T09:40:05.000Z</time></trkpt><trkpt lon="5.78717" lat="51.119785"><ele>14.6</ele><time>2022-05-08T09:40:06.000Z</time></trkpt><trkpt lon="5.787202" lat="51.119849"><ele>14.8</ele><time>2022-05-08T09:40:07.000Z</time></trkpt><trkpt lon="5.787235" lat="51.119914"><ele>14.6</ele><time>2022-05-08T09:40:08.000Z</time></trkpt><trkpt lon="5.78727" lat="51.119979"><ele>14.6</ele><time>2022-05-08T09:40:09.000Z</time></trkpt><trkpt lon="5.787305" lat="51.120044"><ele>14.8</ele><time>2022-05-08T09:40:10.000Z</time></trkpt><trkpt lon="5.787341" lat="51.120109"><ele>15</ele><time>2022-05-08T09:40:11.000Z</time></trkpt><trkpt lon="5.787379" lat="51.120174"><ele>15</ele><time>2022-05-08T09:40:12.000Z</time></trkpt><trkpt lon="5.787417" lat="51.120241"><ele>15.2</ele><time>2022-05-08T09:40:13.000Z</time></trkpt><trkpt lon="5.787455" lat="51.120306"><ele>15.4</ele><time>2022-05-08T09:40:14.000Z</time></trkpt><trkpt lon="5.787492" lat="51.120367"><ele>15.6</ele><time>2022-05-08T09:40:15.000Z</time></trkpt><trkpt lon="5.787531" lat="51.120431"><ele>15.8</ele><time>2022-05-08T09:40:16.000Z</time></trkpt><trkpt lon="5.787568" lat="51.120495"><ele>15.8</ele><time>2022-05-08T09:40:17.000Z</time></trkpt><trkpt lon="5.787603" lat="51.120558"><ele>15.8</ele><time>2022-05-08T09:40:18.000Z</time></trkpt><trkpt lon="5.787639" lat="51.120626"><ele>15.8</ele><time>2022-05-08T09:40:19.000Z</time></trkpt><trkpt lon="5.787677" lat="51.120692"><ele>16</ele><time>2022-05-08T09:40:20.000Z</time></trkpt><trkpt lon="5.787717" lat="51.120755"><ele>16</ele><time>2022-05-08T09:40:21.000Z</time></trkpt><trkpt lon="5.787762" lat="51.120823"><ele>16</ele><time>2022-05-08T09:40:22.000Z</time></trkpt><trkpt lon="5.787811" lat="51.120889"><ele>16</ele><time>2022-05-08T09:40:23.000Z</time></trkpt><trkpt lon="5.787859" lat="51.120954"><ele>15.8</ele><time>2022-05-08T09:40:24.000Z</time></trkpt><trkpt lon="5.787906" lat="51.121021"><ele>15.8</ele><time>2022-05-08T09:40:25.000Z</time></trkpt><trkpt lon="5.787954" lat="51.121083"><ele>15.6</ele><time>2022-05-08T09:40:26.000Z</time></trkpt><trkpt lon="5.788004" lat="51.121143"><ele>15.6</ele><time>2022-05-08T09:40:27.000Z</time></trkpt><trkpt lon="5.788056" lat="51.121204"><ele>15.6</ele><time>2022-05-08T09:40:28.000Z</time></trkpt><trkpt lon="5.788108" lat="51.121264"><ele>15.6</ele><time>2022-05-08T09:40:29.000Z</time></trkpt><trkpt lon="5.788159" lat="51.121324"><ele>15.8</ele><time>2022-05-08T09:40:30.000Z</time></trkpt><trkpt lon="5.788206" lat="51.12138"><ele>15.8</ele><time>2022-05-08T09:40:31.000Z</time></trkpt><trkpt lon="5.788251" lat="51.121433"><ele>16</ele><time>2022-05-08T09:40:32.000Z</time></trkpt><trkpt lon="5.788297" lat="51.121487"><ele>16</ele><time>2022-05-08T09:40:33.000Z</time></trkpt><trkpt lon="5.788343" lat="51.121543"><ele>15.8</ele><time>2022-05-08T09:40:34.000Z</time></trkpt><trkpt lon="5.78839" lat="51.121598"><ele>15.8</ele><time>2022-05-08T09:40:35.000Z</time></trkpt><trkpt lon="5.788439" lat="51.121657"><ele>15.6</ele><time>2022-05-08T09:40:36.000Z</time></trkpt><trkpt lon="5.788487" lat="51.121719"><ele>15.6</ele><time>2022-05-08T09:40:37.000Z</time></trkpt><trkpt lon="5.788536" lat="51.121783"><ele>15.6</ele><time>2022-05-08T09:40:38.000Z</time></trkpt><trkpt lon="5.788585" lat="51.121846"><ele>15.6</ele><time>2022-05-08T09:40:39.000Z</time></trkpt><trkpt lon="5.788635" lat="51.121909"><ele>15.2</ele><time>2022-05-08T09:40:40.000Z</time></trkpt><trkpt lon="5.788683" lat="51.121976"><ele>15</ele><time>2022-05-08T09:40:41.000Z</time></trkpt><trkpt lon="5.788726" lat="51.122045"><ele>14.8</ele><time>2022-05-08T09:40:42.000Z</time></trkpt><trkpt lon="5.788768" lat="51.122116"><ele>14.6</ele><time>2022-05-08T09:40:43.000Z</time></trkpt><trkpt lon="5.788807" lat="51.122186"><ele>14.6</ele><time>2022-05-08T09:40:44.000Z</time></trkpt><trkpt lon="5.788845" lat="51.122255"><ele>14.6</ele><time>2022-05-08T09:40:45.000Z</time></trkpt><trkpt lon="5.788883" lat="51.122326"><ele>14.6</ele><time>2022-05-08T09:40:46.000Z</time></trkpt><trkpt lon="5.788916" lat="51.122394"><ele>14.4</ele><time>2022-05-08T09:40:47.000Z</time></trkpt><trkpt lon="5.788946" lat="51.122461"><ele>14.6</ele><time>2022-05-08T09:40:48.000Z</time></trkpt><trkpt lon="5.78897" lat="51.122535"><ele>14.6</ele><time>2022-05-08T09:40:49.000Z</time></trkpt><trkpt lon="5.788988" lat="51.122609"><ele>14.8</ele><time>2022-05-08T09:40:50.000Z</time></trkpt><trkpt lon="5.788996" lat="51.122676"><ele>15</ele><time>2022-05-08T09:40:51.000Z</time></trkpt><trkpt lon="5.788997" lat="51.122743"><ele>15.2</ele><time>2022-05-08T09:40:52.000Z</time></trkpt><trkpt lon="5.788993" lat="51.12281"><ele>15.2</ele><time>2022-05-08T09:40:53.000Z</time></trkpt><trkpt lon="5.788987" lat="51.122872"><ele>15.2</ele><time>2022-05-08T09:40:54.000Z</time></trkpt><trkpt lon="5.788984" lat="51.122933"><ele>15.2</ele><time>2022-05-08T09:40:55.000Z</time></trkpt><trkpt lon="5.788984" lat="51.122992"><ele>15.2</ele><time>2022-05-08T09:40:56.000Z</time></trkpt><trkpt lon="5.788991" lat="51.123046"><ele>15.4</ele><time>2022-05-08T09:40:57.000Z</time></trkpt><trkpt lon="5.78901" lat="51.123099"><ele>15.4</ele><time>2022-05-08T09:40:58.000Z</time></trkpt><trkpt lon="5.789039" lat="51.123151"><ele>15.4</ele><time>2022-05-08T09:40:59.000Z</time></trkpt><trkpt lon="5.789072" lat="51.123201"><ele>15.4</ele><time>2022-05-08T09:41:00.000Z</time></trkpt><trkpt lon="5.789109" lat="51.123248"><ele>15.4</ele><time>2022-05-08T09:41:01.000Z</time></trkpt><trkpt lon="5.789142" lat="51.123292"><ele>15.4</ele><time>2022-05-08T09:41:02.000Z</time></trkpt><trkpt lon="5.789165" lat="51.123332"><ele>15.4</ele><time>2022-05-08T09:41:03.000Z</time></trkpt><trkpt lon="5.789156" lat="51.123366"><ele>15.2</ele><time>2022-05-08T09:41:04.000Z</time></trkpt><trkpt lon="5.789107" lat="51.123385"><ele>15</ele><time>2022-05-08T09:41:05.000Z</time></trkpt><trkpt lon="5.789029" lat="51.123386"><ele>15</ele><time>2022-05-08T09:41:06.000Z</time></trkpt><trkpt lon="5.788942" lat="51.123372"><ele>15</ele><time>2022-05-08T09:41:07.000Z</time></trkpt><trkpt lon="5.788851" lat="51.123349"><ele>15.2</ele><time>2022-05-08T09:41:08.000Z</time></trkpt><trkpt lon="5.788755" lat="51.123324"><ele>15.4</ele><time>2022-05-08T09:41:09.000Z</time></trkpt><trkpt lon="5.788655" lat="51.123299"><ele>15.4</ele><time>2022-05-08T09:41:10.000Z</time></trkpt><trkpt lon="5.788552" lat="51.123272"><ele>15.4</ele><time>2022-05-08T09:41:11.000Z</time></trkpt><trkpt lon="5.788447" lat="51.123245"><ele>15.2</ele><time>2022-05-08T09:41:12.000Z</time></trkpt><trkpt lon="5.78834" lat="51.123216"><ele>15.2</ele><time>2022-05-08T09:41:13.000Z</time></trkpt><trkpt lon="5.788231" lat="51.12319"><ele>15.4</ele><time>2022-05-08T09:41:14.000Z</time></trkpt><trkpt lon="5.788121" lat="51.123172"><ele>15.4</ele><time>2022-05-08T09:41:15.000Z</time></trkpt><trkpt lon="5.788009" lat="51.123161"><ele>15.4</ele><time>2022-05-08T09:41:16.000Z</time></trkpt><trkpt lon="5.787896" lat="51.123157"><ele>15.4</ele><time>2022-05-08T09:41:17.000Z</time></trkpt><trkpt lon="5.787779" lat="51.123157"><ele>15.6</ele><time>2022-05-08T09:41:18.000Z</time></trkpt><trkpt lon="5.787657" lat="51.123155"><ele>15.6</ele><time>2022-05-08T09:41:19.000Z</time></trkpt><trkpt lon="5.787539" lat="51.123152"><ele>15.4</ele><time>2022-05-08T09:41:20.000Z</time></trkpt><trkpt lon="5.787434" lat="51.12315"><ele>15.4</ele><time>2022-05-08T09:41:21.000Z</time></trkpt><trkpt lon="5.78732" lat="51.12315"><ele>15.4</ele><time>2022-05-08T09:41:22.000Z</time></trkpt><trkpt lon="5.787198" lat="51.123148"><ele>15.6</ele><time>2022-05-08T09:41:23.000Z</time></trkpt><trkpt lon="5.787085" lat="51.123144"><ele>15.8</ele><time>2022-05-08T09:41:24.000Z</time></trkpt><trkpt lon="5.78697" lat="51.123142"><ele>16</ele><time>2022-05-08T09:41:25.000Z</time></trkpt><trkpt lon="5.786855" lat="51.12314"><ele>16</ele><time>2022-05-08T09:41:26.000Z</time></trkpt><trkpt lon="5.786744" lat="51.123138"><ele>16</ele><time>2022-05-08T09:41:27.000Z</time></trkpt><trkpt lon="5.786624" lat="51.123138"><ele>16.2</ele><time>2022-05-08T09:41:28.000Z</time></trkpt><trkpt lon="5.786503" lat="51.123136"><ele>16.2</ele><time>2022-05-08T09:41:29.000Z</time></trkpt><trkpt lon="5.786388" lat="51.123135"><ele>16</ele><time>2022-05-08T09:41:30.000Z</time></trkpt><trkpt lon="5.786274" lat="51.123135"><ele>16</ele><time>2022-05-08T09:41:31.000Z</time></trkpt><trkpt lon="5.78616" lat="51.123137"><ele>16.2</ele><time>2022-05-08T09:41:32.000Z</time></trkpt><trkpt lon="5.786043" lat="51.123138"><ele>16.4</ele><time>2022-05-08T09:41:33.000Z</time></trkpt><trkpt lon="5.785924" lat="51.123141"><ele>16.4</ele><time>2022-05-08T09:41:34.000Z</time></trkpt><trkpt lon="5.785806" lat="51.123142"><ele>16.4</ele><time>2022-05-08T09:41:35.000Z</time></trkpt><trkpt lon="5.785688" lat="51.123142"><ele>16.4</ele><time>2022-05-08T09:41:36.000Z</time></trkpt><trkpt lon="5.785575" lat="51.12314"><ele>16.6</ele><time>2022-05-08T09:41:37.000Z</time></trkpt><trkpt lon="5.785462" lat="51.123134"><ele>16.6</ele><time>2022-05-08T09:41:38.000Z</time></trkpt><trkpt lon="5.785353" lat="51.123129"><ele>16.6</ele><time>2022-05-08T09:41:39.000Z</time></trkpt><trkpt lon="5.785252" lat="51.123123"><ele>16.8</ele><time>2022-05-08T09:41:40.000Z</time></trkpt><trkpt lon="5.785153" lat="51.123104"><ele>16.8</ele><time>2022-05-08T09:41:41.000Z</time></trkpt><trkpt lon="5.785054" lat="51.123071"><ele>16.8</ele><time>2022-05-08T09:41:42.000Z</time></trkpt><trkpt lon="5.784958" lat="51.12303"><ele>16.8</ele><time>2022-05-08T09:41:43.000Z</time></trkpt><trkpt lon="5.784863" lat="51.122986"><ele>16.8</ele><time>2022-05-08T09:41:44.000Z</time></trkpt><trkpt lon="5.784766" lat="51.122943"><ele>16.6</ele><time>2022-05-08T09:41:45.000Z</time></trkpt><trkpt lon="5.784666" lat="51.122905"><ele>16.4</ele><time>2022-05-08T09:41:46.000Z</time></trkpt><trkpt lon="5.784561" lat="51.122882"><ele>16.4</ele><time>2022-05-08T09:41:47.000Z</time></trkpt><trkpt lon="5.784449" lat="51.122877"><ele>16.4</ele><time>2022-05-08T09:41:48.000Z</time></trkpt><trkpt lon="5.784328" lat="51.122889"><ele>16.2</ele><time>2022-05-08T09:41:49.000Z</time></trkpt><trkpt lon="5.784202" lat="51.122907"><ele>16.2</ele><time>2022-05-08T09:41:50.000Z</time></trkpt><trkpt lon="5.784082" lat="51.122924"><ele>16.2</ele><time>2022-05-08T09:41:51.000Z</time></trkpt><trkpt lon="5.783959" lat="51.122943"><ele>16.2</ele><time>2022-05-08T09:41:52.000Z</time></trkpt><trkpt lon="5.783834" lat="51.12296"><ele>16.2</ele><time>2022-05-08T09:41:53.000Z</time></trkpt><trkpt lon="5.783715" lat="51.122978"><ele>16.2</ele><time>2022-05-08T09:41:54.000Z</time></trkpt><trkpt lon="5.783597" lat="51.122997"><ele>15.8</ele><time>2022-05-08T09:41:55.000Z</time></trkpt><trkpt lon="5.78348" lat="51.123016"><ele>15.2</ele><time>2022-05-08T09:41:56.000Z</time></trkpt><trkpt lon="5.783368" lat="51.123034"><ele>14.8</ele><time>2022-05-08T09:41:57.000Z</time></trkpt><trkpt lon="5.783251" lat="51.123051"><ele>14.4</ele><time>2022-05-08T09:41:58.000Z</time></trkpt><trkpt lon="5.783132" lat="51.123069"><ele>14.2</ele><time>2022-05-08T09:41:59.000Z</time></trkpt><trkpt lon="5.783017" lat="51.123088"><ele>14</ele><time>2022-05-08T09:42:00.000Z</time></trkpt><trkpt lon="5.782903" lat="51.123108"><ele>13.8</ele><time>2022-05-08T09:42:01.000Z</time></trkpt><trkpt lon="5.782791" lat="51.123127"><ele>13.8</ele><time>2022-05-08T09:42:02.000Z</time></trkpt><trkpt lon="5.78268" lat="51.123145"><ele>13.8</ele><time>2022-05-08T09:42:03.000Z</time></trkpt><trkpt lon="5.782565" lat="51.123165"><ele>14</ele><time>2022-05-08T09:42:04.000Z</time></trkpt><trkpt lon="5.78245" lat="51.123184"><ele>14</ele><time>2022-05-08T09:42:05.000Z</time></trkpt><trkpt lon="5.782336" lat="51.123203"><ele>14</ele><time>2022-05-08T09:42:06.000Z</time></trkpt><trkpt lon="5.782223" lat="51.123222"><ele>14</ele><time>2022-05-08T09:42:07.000Z</time></trkpt><trkpt lon="5.78211" lat="51.123241"><ele>14</ele><time>2022-05-08T09:42:08.000Z</time></trkpt><trkpt lon="5.782" lat="51.12326"><ele>14.2</ele><time>2022-05-08T09:42:09.000Z</time></trkpt><trkpt lon="5.781889" lat="51.123278"><ele>14.2</ele><time>2022-05-08T09:42:10.000Z</time></trkpt><trkpt lon="5.781773" lat="51.123298"><ele>14.2</ele><time>2022-05-08T09:42:11.000Z</time></trkpt><trkpt lon="5.78166" lat="51.123315"><ele>14.2</ele><time>2022-05-08T09:42:12.000Z</time></trkpt><trkpt lon="5.781544" lat="51.123332"><ele>14.6</ele><time>2022-05-08T09:42:13.000Z</time></trkpt><trkpt lon="5.781429" lat="51.123354"><ele>15</ele><time>2022-05-08T09:42:14.000Z</time></trkpt><trkpt lon="5.781313" lat="51.123372"><ele>15.4</ele><time>2022-05-08T09:42:15.000Z</time></trkpt><trkpt lon="5.781197" lat="51.123387"><ele>15.4</ele><time>2022-05-08T09:42:16.000Z</time></trkpt><trkpt lon="5.781083" lat="51.123405"><ele>15.6</ele><time>2022-05-08T09:42:17.000Z</time></trkpt><trkpt lon="5.78097" lat="51.12342"><ele>15.8</ele><time>2022-05-08T09:42:18.000Z</time></trkpt><trkpt lon="5.780857" lat="51.123435"><ele>16</ele><time>2022-05-08T09:42:19.000Z</time></trkpt><trkpt lon="5.780744" lat="51.123457"><ele>15.8</ele><time>2022-05-08T09:42:20.000Z</time></trkpt><trkpt lon="5.780645" lat="51.123475"><ele>15.6</ele><time>2022-05-08T09:42:21.000Z</time></trkpt><trkpt lon="5.780544" lat="51.123493"><ele>15.4</ele><time>2022-05-08T09:42:22.000Z</time></trkpt><trkpt lon="5.780411" lat="51.123517"><ele>15.2</ele><time>2022-05-08T09:42:23.000Z</time></trkpt><trkpt lon="5.78029" lat="51.123541"><ele>15.2</ele><time>2022-05-08T09:42:24.000Z</time></trkpt><trkpt lon="5.780175" lat="51.123561"><ele>15.2</ele><time>2022-05-08T09:42:25.000Z</time></trkpt><trkpt lon="5.780059" lat="51.12358"><ele>15.2</ele><time>2022-05-08T09:42:26.000Z</time></trkpt><trkpt lon="5.779947" lat="51.123601"><ele>15.4</ele><time>2022-05-08T09:42:27.000Z</time></trkpt><trkpt lon="5.779832" lat="51.123622"><ele>15.4</ele><time>2022-05-08T09:42:28.000Z</time></trkpt><trkpt lon="5.779715" lat="51.123644"><ele>15.2</ele><time>2022-05-08T09:42:29.000Z</time></trkpt><trkpt lon="5.7796" lat="51.123664"><ele>15.4</ele><time>2022-05-08T09:42:30.000Z</time></trkpt><trkpt lon="5.779487" lat="51.123683"><ele>15.4</ele><time>2022-05-08T09:42:31.000Z</time></trkpt><trkpt lon="5.779378" lat="51.123704"><ele>15.4</ele><time>2022-05-08T09:42:32.000Z</time></trkpt><trkpt lon="5.779269" lat="51.123727"><ele>15.6</ele><time>2022-05-08T09:42:33.000Z</time></trkpt><trkpt lon="5.779157" lat="51.12375"><ele>15.8</ele><time>2022-05-08T09:42:34.000Z</time></trkpt><trkpt lon="5.779046" lat="51.123771"><ele>16</ele><time>2022-05-08T09:42:35.000Z</time></trkpt><trkpt lon="5.778935" lat="51.12379"><ele>16</ele><time>2022-05-08T09:42:36.000Z</time></trkpt><trkpt lon="5.778823" lat="51.123811"><ele>16</ele><time>2022-05-08T09:42:37.000Z</time></trkpt><trkpt lon="5.778714" lat="51.123832"><ele>16</ele><time>2022-05-08T09:42:38.000Z</time></trkpt><trkpt lon="5.778604" lat="51.123853"><ele>15.8</ele><time>2022-05-08T09:42:39.000Z</time></trkpt><trkpt lon="5.7785" lat="51.123872"><ele>15.6</ele><time>2022-05-08T09:42:40.000Z</time></trkpt><trkpt lon="5.7784" lat="51.123889"><ele>15.4</ele><time>2022-05-08T09:42:41.000Z</time></trkpt><trkpt lon="5.778302" lat="51.123908"><ele>15.6</ele><time>2022-05-08T09:42:42.000Z</time></trkpt><trkpt lon="5.778204" lat="51.123927"><ele>15.8</ele><time>2022-05-08T09:42:43.000Z</time></trkpt><trkpt lon="5.778102" lat="51.123946"><ele>16</ele><time>2022-05-08T09:42:44.000Z</time></trkpt><trkpt lon="5.777996" lat="51.123966"><ele>16.2</ele><time>2022-05-08T09:42:45.000Z</time></trkpt><trkpt lon="5.777886" lat="51.123985"><ele>16.2</ele><time>2022-05-08T09:42:46.000Z</time></trkpt><trkpt lon="5.777777" lat="51.124004"><ele>16</ele><time>2022-05-08T09:42:47.000Z</time></trkpt><trkpt lon="5.777673" lat="51.124024"><ele>16</ele><time>2022-05-08T09:42:48.000Z</time></trkpt><trkpt lon="5.777563" lat="51.124049"><ele>15.8</ele><time>2022-05-08T09:42:49.000Z</time></trkpt><trkpt lon="5.777451" lat="51.124077"><ele>15.4</ele><time>2022-05-08T09:42:50.000Z</time></trkpt><trkpt lon="5.777345" lat="51.124103"><ele>15</ele><time>2022-05-08T09:42:51.000Z</time></trkpt><trkpt lon="5.777237" lat="51.12413"><ele>14.8</ele><time>2022-05-08T09:42:52.000Z</time></trkpt><trkpt lon="5.777131" lat="51.124159"><ele>14.8</ele><time>2022-05-08T09:42:53.000Z</time></trkpt><trkpt lon="5.777031" lat="51.124188"><ele>15</ele><time>2022-05-08T09:42:54.000Z</time></trkpt><trkpt lon="5.776934" lat="51.124212"><ele>15</ele><time>2022-05-08T09:42:55.000Z</time></trkpt><trkpt lon="5.77684" lat="51.124237"><ele>15.2</ele><time>2022-05-08T09:42:56.000Z</time></trkpt><trkpt lon="5.776747" lat="51.124261"><ele>15.4</ele><time>2022-05-08T09:42:57.000Z</time></trkpt><trkpt lon="5.776649" lat="51.124286"><ele>15.6</ele><time>2022-05-08T09:42:58.000Z</time></trkpt><trkpt lon="5.776542" lat="51.124313"><ele>15.6</ele><time>2022-05-08T09:42:59.000Z</time></trkpt><trkpt lon="5.776433" lat="51.12434"><ele>15.4</ele><time>2022-05-08T09:43:00.000Z</time></trkpt><trkpt lon="5.776324" lat="51.124367"><ele>15.4</ele><time>2022-05-08T09:43:01.000Z</time></trkpt><trkpt lon="5.776216" lat="51.124394"><ele>15.2</ele><time>2022-05-08T09:43:02.000Z</time></trkpt><trkpt lon="5.776109" lat="51.12442"><ele>15.2</ele><time>2022-05-08T09:43:03.000Z</time></trkpt><trkpt lon="5.776005" lat="51.124446"><ele>15</ele><time>2022-05-08T09:43:04.000Z</time></trkpt><trkpt lon="5.775901" lat="51.124471"><ele>15</ele><time>2022-05-08T09:43:05.000Z</time></trkpt><trkpt lon="5.775797" lat="51.124494"><ele>15.2</ele><time>2022-05-08T09:43:06.000Z</time></trkpt><trkpt lon="5.775697" lat="51.124515"><ele>15.2</ele><time>2022-05-08T09:43:07.000Z</time></trkpt><trkpt lon="5.775601" lat="51.124536"><ele>15.2</ele><time>2022-05-08T09:43:08.000Z</time></trkpt><trkpt lon="5.775504" lat="51.124557"><ele>15.2</ele><time>2022-05-08T09:43:09.000Z</time></trkpt><trkpt lon="5.775403" lat="51.124574"><ele>15.4</ele><time>2022-05-08T09:43:10.000Z</time></trkpt><trkpt lon="5.7753" lat="51.124591"><ele>15.4</ele><time>2022-05-08T09:43:11.000Z</time></trkpt><trkpt lon="5.775198" lat="51.124608"><ele>15.4</ele><time>2022-05-08T09:43:12.000Z</time></trkpt><trkpt lon="5.775092" lat="51.124623"><ele>15.6</ele><time>2022-05-08T09:43:13.000Z</time></trkpt><trkpt lon="5.774983" lat="51.124643"><ele>15.8</ele><time>2022-05-08T09:43:14.000Z</time></trkpt><trkpt lon="5.774871" lat="51.124662"><ele>15.8</ele><time>2022-05-08T09:43:15.000Z</time></trkpt><trkpt lon="5.774756" lat="51.124679"><ele>15.8</ele><time>2022-05-08T09:43:16.000Z</time></trkpt><trkpt lon="5.774642" lat="51.124696"><ele>16</ele><time>2022-05-08T09:43:17.000Z</time></trkpt><trkpt lon="5.77453" lat="51.124713"><ele>16</ele><time>2022-05-08T09:43:18.000Z</time></trkpt><trkpt lon="5.774421" lat="51.124733"><ele>16</ele><time>2022-05-08T09:43:19.000Z</time></trkpt><trkpt lon="5.774313" lat="51.124751"><ele>16</ele><time>2022-05-08T09:43:20.000Z</time></trkpt><trkpt lon="5.774207" lat="51.124768"><ele>16</ele><time>2022-05-08T09:43:21.000Z</time></trkpt><trkpt lon="5.774103" lat="51.124786"><ele>16.2</ele><time>2022-05-08T09:43:22.000Z</time></trkpt><trkpt lon="5.773998" lat="51.124807"><ele>16.2</ele><time>2022-05-08T09:43:23.000Z</time></trkpt><trkpt lon="5.773898" lat="51.12483"><ele>16.2</ele><time>2022-05-08T09:43:24.000Z</time></trkpt><trkpt lon="5.773797" lat="51.124855"><ele>16.2</ele><time>2022-05-08T09:43:25.000Z</time></trkpt><trkpt lon="5.773696" lat="51.124881"><ele>16</ele><time>2022-05-08T09:43:26.000Z</time></trkpt><trkpt lon="5.773593" lat="51.124912"><ele>15.8</ele><time>2022-05-08T09:43:27.000Z</time></trkpt><trkpt lon="5.773488" lat="51.124947"><ele>15.6</ele><time>2022-05-08T09:43:28.000Z</time></trkpt><trkpt lon="5.773382" lat="51.124981"><ele>15.4</ele><time>2022-05-08T09:43:29.000Z</time></trkpt><trkpt lon="5.773278" lat="51.125018"><ele>15.2</ele><time>2022-05-08T09:43:30.000Z</time></trkpt><trkpt lon="5.773178" lat="51.125056"><ele>15.2</ele><time>2022-05-08T09:43:31.000Z</time></trkpt><trkpt lon="5.773082" lat="51.125098"><ele>15.2</ele><time>2022-05-08T09:43:32.000Z</time></trkpt><trkpt lon="5.772986" lat="51.125142"><ele>15</ele><time>2022-05-08T09:43:33.000Z</time></trkpt><trkpt lon="5.772893" lat="51.125181"><ele>15</ele><time>2022-05-08T09:43:34.000Z</time></trkpt><trkpt lon="5.772797" lat="51.125221"><ele>15.2</ele><time>2022-05-08T09:43:35.000Z</time></trkpt><trkpt lon="5.7727" lat="51.125266"><ele>15.4</ele><time>2022-05-08T09:43:36.000Z</time></trkpt><trkpt lon="5.772608" lat="51.125311"><ele>15.4</ele><time>2022-05-08T09:43:37.000Z</time></trkpt><trkpt lon="5.772513" lat="51.125355"><ele>15.6</ele><time>2022-05-08T09:43:38.000Z</time></trkpt><trkpt lon="5.772417" lat="51.125398"><ele>15.4</ele><time>2022-05-08T09:43:39.000Z</time></trkpt><trkpt lon="5.772323" lat="51.125442"><ele>15.4</ele><time>2022-05-08T09:43:40.000Z</time></trkpt><trkpt lon="5.772231" lat="51.12549"><ele>15.6</ele><time>2022-05-08T09:43:41.000Z</time></trkpt><trkpt lon="5.772139" lat="51.125537"><ele>15.4</ele><time>2022-05-08T09:43:42.000Z</time></trkpt><trkpt lon="5.772045" lat="51.125581"><ele>15.4</ele><time>2022-05-08T09:43:43.000Z</time></trkpt><trkpt lon="5.771952" lat="51.125625"><ele>15.6</ele><time>2022-05-08T09:43:44.000Z</time></trkpt><trkpt lon="5.771862" lat="51.125669"><ele>15.4</ele><time>2022-05-08T09:43:45.000Z</time></trkpt><trkpt lon="5.771772" lat="51.12571"><ele>15.2</ele><time>2022-05-08T09:43:46.000Z</time></trkpt><trkpt lon="5.771681" lat="51.125754"><ele>15</ele><time>2022-05-08T09:43:47.000Z</time></trkpt><trkpt lon="5.77159" lat="51.125799"><ele>15</ele><time>2022-05-08T09:43:48.000Z</time></trkpt><trkpt lon="5.771497" lat="51.125843"><ele>15</ele><time>2022-05-08T09:43:49.000Z</time></trkpt><trkpt lon="5.771405" lat="51.125889"><ele>15</ele><time>2022-05-08T09:43:50.000Z</time></trkpt><trkpt lon="5.771317" lat="51.125932"><ele>14.8</ele><time>2022-05-08T09:43:51.000Z</time></trkpt><trkpt lon="5.771222" lat="51.125975"><ele>14.6</ele><time>2022-05-08T09:43:52.000Z</time></trkpt><trkpt lon="5.771126" lat="51.126022"><ele>14.6</ele><time>2022-05-08T09:43:53.000Z</time></trkpt><trkpt lon="5.771035" lat="51.126066"><ele>14.4</ele><time>2022-05-08T09:43:54.000Z</time></trkpt><trkpt lon="5.770942" lat="51.12611"><ele>14.4</ele><time>2022-05-08T09:43:55.000Z</time></trkpt><trkpt lon="5.770848" lat="51.126156"><ele>14.2</ele><time>2022-05-08T09:43:56.000Z</time></trkpt><trkpt lon="5.770752" lat="51.126203"><ele>14</ele><time>2022-05-08T09:43:57.000Z</time></trkpt><trkpt lon="5.770652" lat="51.12625"><ele>14</ele><time>2022-05-08T09:43:58.000Z</time></trkpt><trkpt lon="5.770551" lat="51.126296"><ele>13.6</ele><time>2022-05-08T09:43:59.000Z</time></trkpt><trkpt lon="5.770453" lat="51.126342"><ele>13.4</ele><time>2022-05-08T09:44:00.000Z</time></trkpt><trkpt lon="5.770357" lat="51.126388"><ele>13.2</ele><time>2022-05-08T09:44:01.000Z</time></trkpt><trkpt lon="5.770262" lat="51.126432"><ele>13</ele><time>2022-05-08T09:44:02.000Z</time></trkpt><trkpt lon="5.770163" lat="51.126478"><ele>13</ele><time>2022-05-08T09:44:03.000Z</time></trkpt><trkpt lon="5.770069" lat="51.126526"><ele>13</ele><time>2022-05-08T09:44:04.000Z</time></trkpt><trkpt lon="5.76998" lat="51.126576"><ele>12.8</ele><time>2022-05-08T09:44:05.000Z</time></trkpt><trkpt lon="5.769899" lat="51.126633"><ele>12.4</ele><time>2022-05-08T09:44:06.000Z</time></trkpt><trkpt lon="5.769827" lat="51.126691"><ele>12.4</ele><time>2022-05-08T09:44:07.000Z</time></trkpt><trkpt lon="5.769761" lat="51.126753"><ele>12.6</ele><time>2022-05-08T09:44:08.000Z</time></trkpt><trkpt lon="5.769701" lat="51.126821"><ele>12.8</ele><time>2022-05-08T09:44:09.000Z</time></trkpt><trkpt lon="5.769645" lat="51.126889"><ele>13</ele><time>2022-05-08T09:44:10.000Z</time></trkpt><trkpt lon="5.769591" lat="51.12696"><ele>13.2</ele><time>2022-05-08T09:44:11.000Z</time></trkpt><trkpt lon="5.76954" lat="51.127031"><ele>13.2</ele><time>2022-05-08T09:44:12.000Z</time></trkpt><trkpt lon="5.769487" lat="51.127104"><ele>13.4</ele><time>2022-05-08T09:44:13.000Z</time></trkpt><trkpt lon="5.769438" lat="51.127174"><ele>13.4</ele><time>2022-05-08T09:44:14.000Z</time></trkpt><trkpt lon="5.769393" lat="51.127241"><ele>13.6</ele><time>2022-05-08T09:44:15.000Z</time></trkpt><trkpt lon="5.769352" lat="51.127307"><ele>13.8</ele><time>2022-05-08T09:44:16.000Z</time></trkpt><trkpt lon="5.769317" lat="51.127376"><ele>14</ele><time>2022-05-08T09:44:17.000Z</time></trkpt><trkpt lon="5.769285" lat="51.127445"><ele>14.2</ele><time>2022-05-08T09:44:18.000Z</time></trkpt><trkpt lon="5.769255" lat="51.127514"><ele>14.2</ele><time>2022-05-08T09:44:19.000Z</time></trkpt><trkpt lon="5.769225" lat="51.127583"><ele>14.4</ele><time>2022-05-08T09:44:20.000Z</time></trkpt><trkpt lon="5.769196" lat="51.12765"><ele>14.4</ele><time>2022-05-08T09:44:21.000Z</time></trkpt><trkpt lon="5.76917" lat="51.127717"><ele>14.4</ele><time>2022-05-08T09:44:22.000Z</time></trkpt><trkpt lon="5.769146" lat="51.127784"><ele>14.6</ele><time>2022-05-08T09:44:23.000Z</time></trkpt><trkpt lon="5.769122" lat="51.127849"><ele>14.6</ele><time>2022-05-08T09:44:24.000Z</time></trkpt><trkpt lon="5.7691" lat="51.127913"><ele>14.8</ele><time>2022-05-08T09:44:25.000Z</time></trkpt><trkpt lon="5.769078" lat="51.127978"><ele>14.8</ele><time>2022-05-08T09:44:26.000Z</time></trkpt><trkpt lon="5.769058" lat="51.128043"><ele>14.8</ele><time>2022-05-08T09:44:27.000Z</time></trkpt><trkpt lon="5.769041" lat="51.128111"><ele>14.8</ele><time>2022-05-08T09:44:28.000Z</time></trkpt><trkpt lon="5.769023" lat="51.128181"><ele>14.6</ele><time>2022-05-08T09:44:29.000Z</time></trkpt><trkpt lon="5.769005" lat="51.128251"><ele>14.6</ele><time>2022-05-08T09:44:30.000Z</time></trkpt><trkpt lon="5.768984" lat="51.128324"><ele>14.6</ele><time>2022-05-08T09:44:31.000Z</time></trkpt><trkpt lon="5.768961" lat="51.128393"><ele>14.6</ele><time>2022-05-08T09:44:32.000Z</time></trkpt><trkpt lon="5.768933" lat="51.128466"><ele>14.6</ele><time>2022-05-08T09:44:33.000Z</time></trkpt><trkpt lon="5.768902" lat="51.128548"><ele>14.4</ele><time>2022-05-08T09:44:34.000Z</time></trkpt><trkpt lon="5.768875" lat="51.128627"><ele>14.4</ele><time>2022-05-08T09:44:35.000Z</time></trkpt><trkpt lon="5.76885" lat="51.128704"><ele>14.2</ele><time>2022-05-08T09:44:36.000Z</time></trkpt><trkpt lon="5.768828" lat="51.128783"><ele>14.2</ele><time>2022-05-08T09:44:37.000Z</time></trkpt><trkpt lon="5.768806" lat="51.128861"><ele>14.2</ele><time>2022-05-08T09:44:38.000Z</time></trkpt><trkpt lon="5.768784" lat="51.128935"><ele>14.2</ele><time>2022-05-08T09:44:39.000Z</time></trkpt><trkpt lon="5.768759" lat="51.12901"><ele>14.2</ele><time>2022-05-08T09:44:40.000Z</time></trkpt><trkpt lon="5.768736" lat="51.129086"><ele>14.2</ele><time>2022-05-08T09:44:41.000Z</time></trkpt><trkpt lon="5.768713" lat="51.12916"><ele>14.2</ele><time>2022-05-08T09:44:42.000Z</time></trkpt><trkpt lon="5.768689" lat="51.129233"><ele>14.2</ele><time>2022-05-08T09:44:43.000Z</time></trkpt><trkpt lon="5.768666" lat="51.129306"><ele>14.2</ele><time>2022-05-08T09:44:44.000Z</time></trkpt><trkpt lon="5.768644" lat="51.129379"><ele>14.2</ele><time>2022-05-08T09:44:45.000Z</time></trkpt><trkpt lon="5.768623" lat="51.129449"><ele>14.2</ele><time>2022-05-08T09:44:46.000Z</time></trkpt><trkpt lon="5.768604" lat="51.12952"><ele>14.2</ele><time>2022-05-08T09:44:47.000Z</time></trkpt><trkpt lon="5.768584" lat="51.129585"><ele>14.2</ele><time>2022-05-08T09:44:48.000Z</time></trkpt><trkpt lon="5.768562" lat="51.129655"><ele>14.2</ele><time>2022-05-08T09:44:49.000Z</time></trkpt><trkpt lon="5.768538" lat="51.129734"><ele>14.4</ele><time>2022-05-08T09:44:50.000Z</time></trkpt><trkpt lon="5.768516" lat="51.129804"><ele>14.4</ele><time>2022-05-08T09:44:51.000Z</time></trkpt><trkpt lon="5.768495" lat="51.129872"><ele>14.4</ele><time>2022-05-08T09:44:52.000Z</time></trkpt><trkpt lon="5.768476" lat="51.129941"><ele>14.4</ele><time>2022-05-08T09:44:53.000Z</time></trkpt><trkpt lon="5.768459" lat="51.130012"><ele>14.2</ele><time>2022-05-08T09:44:54.000Z</time></trkpt><trkpt lon="5.76844" lat="51.130082"><ele>14.2</ele><time>2022-05-08T09:44:55.000Z</time></trkpt><trkpt lon="5.768421" lat="51.130147"><ele>14.4</ele><time>2022-05-08T09:44:56.000Z</time></trkpt><trkpt lon="5.768401" lat="51.130214"><ele>14.4</ele><time>2022-05-08T09:44:57.000Z</time></trkpt><trkpt lon="5.768382" lat="51.130283"><ele>14.4</ele><time>2022-05-08T09:44:58.000Z</time></trkpt><trkpt lon="5.768362" lat="51.130353"><ele>14.4</ele><time>2022-05-08T09:44:59.000Z</time></trkpt><trkpt lon="5.768345" lat="51.130419"><ele>14.6</ele><time>2022-05-08T09:45:00.000Z</time></trkpt><trkpt lon="5.768327" lat="51.130487"><ele>14.6</ele><time>2022-05-08T09:45:01.000Z</time></trkpt><trkpt lon="5.768308" lat="51.130557"><ele>14.8</ele><time>2022-05-08T09:45:02.000Z</time></trkpt><trkpt lon="5.768288" lat="51.130627"><ele>14.8</ele><time>2022-05-08T09:45:03.000Z</time></trkpt><trkpt lon="5.768267" lat="51.130694"><ele>14.8</ele><time>2022-05-08T09:45:04.000Z</time></trkpt><trkpt lon="5.768248" lat="51.130761"><ele>15</ele><time>2022-05-08T09:45:05.000Z</time></trkpt><trkpt lon="5.76823" lat="51.130829"><ele>14.8</ele><time>2022-05-08T09:45:06.000Z</time></trkpt><trkpt lon="5.768211" lat="51.130894"><ele>15</ele><time>2022-05-08T09:45:07.000Z</time></trkpt><trkpt lon="5.768189" lat="51.13096"><ele>15</ele><time>2022-05-08T09:45:08.000Z</time></trkpt><trkpt lon="5.768163" lat="51.131025"><ele>15</ele><time>2022-05-08T09:45:09.000Z</time></trkpt><trkpt lon="5.768137" lat="51.131091"><ele>14.8</ele><time>2022-05-08T09:45:10.000Z</time></trkpt><trkpt lon="5.768108" lat="51.131158"><ele>14.6</ele><time>2022-05-08T09:45:11.000Z</time></trkpt><trkpt lon="5.768077" lat="51.131223"><ele>14.4</ele><time>2022-05-08T09:45:12.000Z</time></trkpt><trkpt lon="5.768042" lat="51.13129"><ele>14.4</ele><time>2022-05-08T09:45:13.000Z</time></trkpt><trkpt lon="5.768007" lat="51.131358"><ele>14.4</ele><time>2022-05-08T09:45:14.000Z</time></trkpt><trkpt lon="5.767971" lat="51.131424"><ele>14.4</ele><time>2022-05-08T09:45:15.000Z</time></trkpt><trkpt lon="5.767935" lat="51.131492"><ele>14.2</ele><time>2022-05-08T09:45:16.000Z</time></trkpt><trkpt lon="5.767897" lat="51.131561"><ele>14</ele><time>2022-05-08T09:45:17.000Z</time></trkpt><trkpt lon="5.767858" lat="51.131627"><ele>14</ele><time>2022-05-08T09:45:18.000Z</time></trkpt><trkpt lon="5.767816" lat="51.131695"><ele>14</ele><time>2022-05-08T09:45:19.000Z</time></trkpt><trkpt lon="5.767775" lat="51.131762"><ele>14</ele><time>2022-05-08T09:45:20.000Z</time></trkpt><trkpt lon="5.767736" lat="51.131831"><ele>14</ele><time>2022-05-08T09:45:21.000Z</time></trkpt><trkpt lon="5.7677" lat="51.131898"><ele>14</ele><time>2022-05-08T09:45:22.000Z</time></trkpt><trkpt lon="5.767669" lat="51.131964"><ele>13.8</ele><time>2022-05-08T09:45:23.000Z</time></trkpt><trkpt lon="5.767637" lat="51.132035"><ele>13.6</ele><time>2022-05-08T09:45:24.000Z</time></trkpt><trkpt lon="5.767607" lat="51.132103"><ele>13.4</ele><time>2022-05-08T09:45:25.000Z</time></trkpt><trkpt lon="5.767578" lat="51.13217"><ele>13</ele><time>2022-05-08T09:45:26.000Z</time></trkpt><trkpt lon="5.767549" lat="51.132236"><ele>12.8</ele><time>2022-05-08T09:45:27.000Z</time></trkpt><trkpt lon="5.76752" lat="51.132305"><ele>12.8</ele><time>2022-05-08T09:45:28.000Z</time></trkpt><trkpt lon="5.76749" lat="51.132374"><ele>12.8</ele><time>2022-05-08T09:45:29.000Z</time></trkpt><trkpt lon="5.76746" lat="51.13244"><ele>12.8</ele><time>2022-05-08T09:45:30.000Z</time></trkpt><trkpt lon="5.767432" lat="51.132508"><ele>12.8</ele><time>2022-05-08T09:45:31.000Z</time></trkpt><trkpt lon="5.767408" lat="51.132577"><ele>13</ele><time>2022-05-08T09:45:32.000Z</time></trkpt><trkpt lon="5.767388" lat="51.132644"><ele>13.2</ele><time>2022-05-08T09:45:33.000Z</time></trkpt><trkpt lon="5.767372" lat="51.132713"><ele>13.4</ele><time>2022-05-08T09:45:34.000Z</time></trkpt><trkpt lon="5.767357" lat="51.132785"><ele>13.6</ele><time>2022-05-08T09:45:35.000Z</time></trkpt><trkpt lon="5.767345" lat="51.132856"><ele>13.6</ele><time>2022-05-08T09:45:36.000Z</time></trkpt><trkpt lon="5.767335" lat="51.132927"><ele>13.4</ele><time>2022-05-08T09:45:37.000Z</time></trkpt><trkpt lon="5.767324" lat="51.132999"><ele>13.2</ele><time>2022-05-08T09:45:38.000Z</time></trkpt><trkpt lon="5.767312" lat="51.133068"><ele>13</ele><time>2022-05-08T09:45:39.000Z</time></trkpt><trkpt lon="5.7673" lat="51.133135"><ele>13</ele><time>2022-05-08T09:45:40.000Z</time></trkpt><trkpt lon="5.767289" lat="51.133201"><ele>12.8</ele><time>2022-05-08T09:45:41.000Z</time></trkpt><trkpt lon="5.767278" lat="51.133268"><ele>12.6</ele><time>2022-05-08T09:45:42.000Z</time></trkpt><trkpt lon="5.767264" lat="51.133333"><ele>12.8</ele><time>2022-05-08T09:45:43.000Z</time></trkpt><trkpt lon="5.767251" lat="51.133398"><ele>13</ele><time>2022-05-08T09:45:44.000Z</time></trkpt><trkpt lon="5.767237" lat="51.133463"><ele>13.2</ele><time>2022-05-08T09:45:45.000Z</time></trkpt><trkpt lon="5.767225" lat="51.133526"><ele>13.2</ele><time>2022-05-08T09:45:46.000Z</time></trkpt><trkpt lon="5.767215" lat="51.133586"><ele>13.4</ele><time>2022-05-08T09:45:47.000Z</time></trkpt><trkpt lon="5.767206" lat="51.133647"><ele>13.8</ele><time>2022-05-08T09:45:48.000Z</time></trkpt><trkpt lon="5.767196" lat="51.133706"><ele>14</ele><time>2022-05-08T09:45:49.000Z</time></trkpt><trkpt lon="5.767186" lat="51.133766"><ele>14.2</ele><time>2022-05-08T09:45:50.000Z</time></trkpt><trkpt lon="5.767177" lat="51.133824"><ele>14.6</ele><time>2022-05-08T09:45:51.000Z</time></trkpt><trkpt lon="5.767168" lat="51.133879"><ele>14.8</ele><time>2022-05-08T09:45:52.000Z</time></trkpt><trkpt lon="5.767154" lat="51.133932"><ele>14.8</ele><time>2022-05-08T09:45:53.000Z</time></trkpt><trkpt lon="5.767121" lat="51.133975"><ele>15.2</ele><time>2022-05-08T09:45:54.000Z</time></trkpt><trkpt lon="5.76706" lat="51.134004"><ele>15.4</ele><time>2022-05-08T09:45:55.000Z</time></trkpt><trkpt lon="5.766975" lat="51.134018"><ele>15.6</ele><time>2022-05-08T09:45:56.000Z</time></trkpt><trkpt lon="5.766884" lat="51.134024"><ele>15.8</ele><time>2022-05-08T09:45:57.000Z</time></trkpt><trkpt lon="5.766782" lat="51.134028"><ele>15.8</ele><time>2022-05-08T09:45:58.000Z</time></trkpt><trkpt lon="5.766671" lat="51.134032"><ele>16</ele><time>2022-05-08T09:45:59.000Z</time></trkpt><trkpt lon="5.766561" lat="51.134033"><ele>16</ele><time>2022-05-08T09:46:00.000Z</time></trkpt><trkpt lon="5.766454" lat="51.134035"><ele>16.2</ele><time>2022-05-08T09:46:01.000Z</time></trkpt><trkpt lon="5.766347" lat="51.134039"><ele>16.2</ele><time>2022-05-08T09:46:02.000Z</time></trkpt><trkpt lon="5.766245" lat="51.134045"><ele>16.2</ele><time>2022-05-08T09:46:03.000Z</time></trkpt><trkpt lon="5.766145" lat="51.13405"><ele>16.4</ele><time>2022-05-08T09:46:04.000Z</time></trkpt><trkpt lon="5.766042" lat="51.134054"><ele>16.4</ele><time>2022-05-08T09:46:05.000Z</time></trkpt><trkpt lon="5.765934" lat="51.134058"><ele>16.4</ele><time>2022-05-08T09:46:06.000Z</time></trkpt><trkpt lon="5.765826" lat="51.134062"><ele>16.4</ele><time>2022-05-08T09:46:07.000Z</time></trkpt><trkpt lon="5.765712" lat="51.134066"><ele>16.4</ele><time>2022-05-08T09:46:08.000Z</time></trkpt><trkpt lon="5.765595" lat="51.13407"><ele>16.2</ele><time>2022-05-08T09:46:09.000Z</time></trkpt><trkpt lon="5.765474" lat="51.134073"><ele>16.2</ele><time>2022-05-08T09:46:10.000Z</time></trkpt><trkpt lon="5.765352" lat="51.134079"><ele>16</ele><time>2022-05-08T09:46:11.000Z</time></trkpt><trkpt lon="5.765233" lat="51.134085"><ele>16</ele><time>2022-05-08T09:46:12.000Z</time></trkpt><trkpt lon="5.765117" lat="51.134089"><ele>16</ele><time>2022-05-08T09:46:13.000Z</time></trkpt><trkpt lon="5.765" lat="51.134093"><ele>16</ele><time>2022-05-08T09:46:14.000Z</time></trkpt><trkpt lon="5.764887" lat="51.134094"><ele>16</ele><time>2022-05-08T09:46:15.000Z</time></trkpt><trkpt lon="5.764772" lat="51.134096"><ele>16</ele><time>2022-05-08T09:46:16.000Z</time></trkpt><trkpt lon="5.76466" lat="51.1341"><ele>16</ele><time>2022-05-08T09:46:17.000Z</time></trkpt><trkpt lon="5.764547" lat="51.134104"><ele>16</ele><time>2022-05-08T09:46:18.000Z</time></trkpt><trkpt lon="5.764437" lat="51.134108"><ele>16</ele><time>2022-05-08T09:46:19.000Z</time></trkpt><trkpt lon="5.764324" lat="51.134112"><ele>16.2</ele><time>2022-05-08T09:46:20.000Z</time></trkpt><trkpt lon="5.764208" lat="51.134115"><ele>16.2</ele><time>2022-05-08T09:46:21.000Z</time></trkpt><trkpt lon="5.764089" lat="51.134123"><ele>16</ele><time>2022-05-08T09:46:22.000Z</time></trkpt><trkpt lon="5.76397" lat="51.134135"><ele>15.8</ele><time>2022-05-08T09:46:23.000Z</time></trkpt><trkpt lon="5.763852" lat="51.134149"><ele>15.6</ele><time>2022-05-08T09:46:24.000Z</time></trkpt><trkpt lon="5.763737" lat="51.134164"><ele>15.4</ele><time>2022-05-08T09:46:25.000Z</time></trkpt><trkpt lon="5.763621" lat="51.134179"><ele>15.6</ele><time>2022-05-08T09:46:26.000Z</time></trkpt><trkpt lon="5.763508" lat="51.134194"><ele>15.6</ele><time>2022-05-08T09:46:27.000Z</time></trkpt><trkpt lon="5.763394" lat="51.134211"><ele>15.6</ele><time>2022-05-08T09:46:28.000Z</time></trkpt><trkpt lon="5.763282" lat="51.13423"><ele>15.4</ele><time>2022-05-08T09:46:29.000Z</time></trkpt><trkpt lon="5.763171" lat="51.134249"><ele>15.2</ele><time>2022-05-08T09:46:30.000Z</time></trkpt><trkpt lon="5.763057" lat="51.134269"><ele>14.8</ele><time>2022-05-08T09:46:31.000Z</time></trkpt><trkpt lon="5.762943" lat="51.134288"><ele>14.6</ele><time>2022-05-08T09:46:32.000Z</time></trkpt><trkpt lon="5.762832" lat="51.134307"><ele>14.6</ele><time>2022-05-08T09:46:33.000Z</time></trkpt><trkpt lon="5.762716" lat="51.134324"><ele>15</ele><time>2022-05-08T09:46:34.000Z</time></trkpt><trkpt lon="5.762597" lat="51.134341"><ele>15.4</ele><time>2022-05-08T09:46:35.000Z</time></trkpt><trkpt lon="5.762479" lat="51.134361"><ele>15.4</ele><time>2022-05-08T09:46:36.000Z</time></trkpt><trkpt lon="5.762364" lat="51.134377"><ele>15.4</ele><time>2022-05-08T09:46:37.000Z</time></trkpt><trkpt lon="5.762245" lat="51.134394"><ele>15.4</ele><time>2022-05-08T09:46:38.000Z</time></trkpt><trkpt lon="5.762126" lat="51.134411"><ele>15.4</ele><time>2022-05-08T09:46:39.000Z</time></trkpt><trkpt lon="5.762009" lat="51.134429"><ele>15.4</ele><time>2022-05-08T09:46:40.000Z</time></trkpt><trkpt lon="5.761895" lat="51.134445"><ele>15.2</ele><time>2022-05-08T09:46:41.000Z</time></trkpt><trkpt lon="5.761778" lat="51.134461"><ele>15.2</ele><time>2022-05-08T09:46:42.000Z</time></trkpt><trkpt lon="5.761656" lat="51.134477"><ele>15.2</ele><time>2022-05-08T09:46:43.000Z</time></trkpt><trkpt lon="5.761537" lat="51.134494"><ele>15</ele><time>2022-05-08T09:46:44.000Z</time></trkpt><trkpt lon="5.761419" lat="51.134513"><ele>15.2</ele><time>2022-05-08T09:46:45.000Z</time></trkpt><trkpt lon="5.761303" lat="51.134532"><ele>15.2</ele><time>2022-05-08T09:46:46.000Z</time></trkpt><trkpt lon="5.761191" lat="51.13455"><ele>15.2</ele><time>2022-05-08T09:46:47.000Z</time></trkpt><trkpt lon="5.761081" lat="51.134567"><ele>15.2</ele><time>2022-05-08T09:46:48.000Z</time></trkpt><trkpt lon="5.76096" lat="51.134584"><ele>15</ele><time>2022-05-08T09:46:49.000Z</time></trkpt><trkpt lon="5.760834" lat="51.134602"><ele>15</ele><time>2022-05-08T09:46:50.000Z</time></trkpt><trkpt lon="5.76072" lat="51.13462"><ele>15</ele><time>2022-05-08T09:46:51.000Z</time></trkpt><trkpt lon="5.760606" lat="51.134639"><ele>14.8</ele><time>2022-05-08T09:46:52.000Z</time></trkpt><trkpt lon="5.760488" lat="51.134658"><ele>14.8</ele><time>2022-05-08T09:46:53.000Z</time></trkpt><trkpt lon="5.760369" lat="51.134677"><ele>14.8</ele><time>2022-05-08T09:46:54.000Z</time></trkpt><trkpt lon="5.760251" lat="51.134698"><ele>14.8</ele><time>2022-05-08T09:46:55.000Z</time></trkpt><trkpt lon="5.760134" lat="51.134721"><ele>14.8</ele><time>2022-05-08T09:46:56.000Z</time></trkpt><trkpt lon="5.760019" lat="51.134744"><ele>14.6</ele><time>2022-05-08T09:46:57.000Z</time></trkpt><trkpt lon="5.759902" lat="51.134768"><ele>14.6</ele><time>2022-05-08T09:46:58.000Z</time></trkpt><trkpt lon="5.759785" lat="51.134795"><ele>14.6</ele><time>2022-05-08T09:46:59.000Z</time></trkpt><trkpt lon="5.759671" lat="51.134824"><ele>14.6</ele><time>2022-05-08T09:47:00.000Z</time></trkpt><trkpt lon="5.759557" lat="51.134855"><ele>14.6</ele><time>2022-05-08T09:47:01.000Z</time></trkpt><trkpt lon="5.759441" lat="51.134883"><ele>14.6</ele><time>2022-05-08T09:47:02.000Z</time></trkpt><trkpt lon="5.759329" lat="51.134913"><ele>14.6</ele><time>2022-05-08T09:47:03.000Z</time></trkpt><trkpt lon="5.759216" lat="51.134946"><ele>14.6</ele><time>2022-05-08T09:47:04.000Z</time></trkpt><trkpt lon="5.7591" lat="51.134975"><ele>14.6</ele><time>2022-05-08T09:47:05.000Z</time></trkpt><trkpt lon="5.758987" lat="51.135001"><ele>14.6</ele><time>2022-05-08T09:47:06.000Z</time></trkpt><trkpt lon="5.758877" lat="51.135029"><ele>14.6</ele><time>2022-05-08T09:47:07.000Z</time></trkpt><trkpt lon="5.758764" lat="51.13506"><ele>14.4</ele><time>2022-05-08T09:47:08.000Z</time></trkpt><trkpt lon="5.758656" lat="51.135089"><ele>14.6</ele><time>2022-05-08T09:47:09.000Z</time></trkpt><trkpt lon="5.758547" lat="51.135116"><ele>14.6</ele><time>2022-05-08T09:47:10.000Z</time></trkpt><trkpt lon="5.758439" lat="51.135145"><ele>14.8</ele><time>2022-05-08T09:47:11.000Z</time></trkpt><trkpt lon="5.758333" lat="51.135171"><ele>15</ele><time>2022-05-08T09:47:12.000Z</time></trkpt><trkpt lon="5.75823" lat="51.135196"><ele>15.2</ele><time>2022-05-08T09:47:13.000Z</time></trkpt><trkpt lon="5.75813" lat="51.135222"><ele>15.4</ele><time>2022-05-08T09:47:14.000Z</time></trkpt><trkpt lon="5.758033" lat="51.135247"><ele>15.4</ele><time>2022-05-08T09:47:15.000Z</time></trkpt><trkpt lon="5.757934" lat="51.135266"><ele>15.6</ele><time>2022-05-08T09:47:16.000Z</time></trkpt><trkpt lon="5.75784" lat="51.135273"><ele>15.8</ele><time>2022-05-08T09:47:17.000Z</time></trkpt><trkpt lon="5.757748" lat="51.135269"><ele>16</ele><time>2022-05-08T09:47:18.000Z</time></trkpt><trkpt lon="5.757663" lat="51.135263"><ele>16.2</ele><time>2022-05-08T09:47:19.000Z</time></trkpt><trkpt lon="5.757587" lat="51.135262"><ele>16.2</ele><time>2022-05-08T09:47:20.000Z</time></trkpt><trkpt lon="5.757521" lat="51.135275"><ele>16.4</ele><time>2022-05-08T09:47:21.000Z</time></trkpt><trkpt lon="5.757463" lat="51.13531"><ele>16.4</ele><time>2022-05-08T09:47:22.000Z</time></trkpt><trkpt lon="5.757403" lat="51.135356"><ele>16.2</ele><time>2022-05-08T09:47:23.000Z</time></trkpt><trkpt lon="5.757338" lat="51.135402"><ele>16.2</ele><time>2022-05-08T09:47:24.000Z</time></trkpt><trkpt lon="5.757266" lat="51.135452"><ele>16</ele><time>2022-05-08T09:47:25.000Z</time></trkpt><trkpt lon="5.757188" lat="51.135505"><ele>16</ele><time>2022-05-08T09:47:26.000Z</time></trkpt><trkpt lon="5.75711" lat="51.135557"><ele>15.6</ele><time>2022-05-08T09:47:27.000Z</time></trkpt><trkpt lon="5.757033" lat="51.135608"><ele>15.2</ele><time>2022-05-08T09:47:28.000Z</time></trkpt><trkpt lon="5.756955" lat="51.13566"><ele>15.2</ele><time>2022-05-08T09:47:29.000Z</time></trkpt><trkpt lon="5.756875" lat="51.135714"><ele>15.2</ele><time>2022-05-08T09:47:30.000Z</time></trkpt><trkpt lon="5.756797" lat="51.135764"><ele>15</ele><time>2022-05-08T09:47:31.000Z</time></trkpt><trkpt lon="5.756719" lat="51.135814"><ele>15</ele><time>2022-05-08T09:47:32.000Z</time></trkpt><trkpt lon="5.756642" lat="51.135866"><ele>15</ele><time>2022-05-08T09:47:33.000Z</time></trkpt><trkpt lon="5.756565" lat="51.135917"><ele>15</ele><time>2022-05-08T09:47:34.000Z</time></trkpt><trkpt lon="5.756489" lat="51.135968"><ele>15</ele><time>2022-05-08T09:47:35.000Z</time></trkpt><trkpt lon="5.75641" lat="51.13602"><ele>14.8</ele><time>2022-05-08T09:47:36.000Z</time></trkpt><trkpt lon="5.756331" lat="51.136069"><ele>14.8</ele><time>2022-05-08T09:47:37.000Z</time></trkpt><trkpt lon="5.756252" lat="51.136122"><ele>14.6</ele><time>2022-05-08T09:47:38.000Z</time></trkpt><trkpt lon="5.756174" lat="51.136173"><ele>14.6</ele><time>2022-05-08T09:47:39.000Z</time></trkpt><trkpt lon="5.756096" lat="51.136225"><ele>14.4</ele><time>2022-05-08T09:47:40.000Z</time></trkpt><trkpt lon="5.756019" lat="51.136276"><ele>14.4</ele><time>2022-05-08T09:47:41.000Z</time></trkpt><trkpt lon="5.755941" lat="51.136326"><ele>14.4</ele><time>2022-05-08T09:47:42.000Z</time></trkpt><trkpt lon="5.755863" lat="51.136377"><ele>14.4</ele><time>2022-05-08T09:47:43.000Z</time></trkpt><trkpt lon="5.755784" lat="51.13643"><ele>14.6</ele><time>2022-05-08T09:47:44.000Z</time></trkpt><trkpt lon="5.755711" lat="51.13648"><ele>14.6</ele><time>2022-05-08T09:47:45.000Z</time></trkpt><trkpt lon="5.755634" lat="51.136532"><ele>14.6</ele><time>2022-05-08T09:47:46.000Z</time></trkpt><trkpt lon="5.755545" lat="51.13659"><ele>14.6</ele><time>2022-05-08T09:47:47.000Z</time></trkpt><trkpt lon="5.755465" lat="51.136643"><ele>14.8</ele><time>2022-05-08T09:47:48.000Z</time></trkpt><trkpt lon="5.755382" lat="51.136697"><ele>14.8</ele><time>2022-05-08T09:47:49.000Z</time></trkpt><trkpt lon="5.755298" lat="51.136753"><ele>15</ele><time>2022-05-08T09:47:50.000Z</time></trkpt><trkpt lon="5.755217" lat="51.136809"><ele>15.2</ele><time>2022-05-08T09:47:51.000Z</time></trkpt><trkpt lon="5.75514" lat="51.13686"><ele>15.2</ele><time>2022-05-08T09:47:52.000Z</time></trkpt><trkpt lon="5.755063" lat="51.136912"><ele>15.4</ele><time>2022-05-08T09:47:53.000Z</time></trkpt><trkpt lon="5.754983" lat="51.136964"><ele>15.6</ele><time>2022-05-08T09:47:54.000Z</time></trkpt><trkpt lon="5.754906" lat="51.137015"><ele>15.6</ele><time>2022-05-08T09:47:55.000Z</time></trkpt><trkpt lon="5.754829" lat="51.137066"><ele>15.8</ele><time>2022-05-08T09:47:56.000Z</time></trkpt><trkpt lon="5.754753" lat="51.137114"><ele>15.4</ele><time>2022-05-08T09:47:57.000Z</time></trkpt><trkpt lon="5.754675" lat="51.137166"><ele>15</ele><time>2022-05-08T09:47:58.000Z</time></trkpt><trkpt lon="5.754599" lat="51.137217"><ele>14.8</ele><time>2022-05-08T09:47:59.000Z</time></trkpt><trkpt lon="5.754521" lat="51.137267"><ele>14.6</ele><time>2022-05-08T09:48:00.000Z</time></trkpt><trkpt lon="5.754442" lat="51.137319"><ele>14.6</ele><time>2022-05-08T09:48:01.000Z</time></trkpt><trkpt lon="5.754362" lat="51.137371"><ele>14.8</ele><time>2022-05-08T09:48:02.000Z</time></trkpt><trkpt lon="5.754283" lat="51.137421"><ele>15</ele><time>2022-05-08T09:48:03.000Z</time></trkpt><trkpt lon="5.754205" lat="51.13747"><ele>15.2</ele><time>2022-05-08T09:48:04.000Z</time></trkpt><trkpt lon="5.754125" lat="51.137522"><ele>15.4</ele><time>2022-05-08T09:48:05.000Z</time></trkpt><trkpt lon="5.754044" lat="51.137575"><ele>15.6</ele><time>2022-05-08T09:48:06.000Z</time></trkpt><trkpt lon="5.753967" lat="51.137626"><ele>15.8</ele><time>2022-05-08T09:48:07.000Z</time></trkpt><trkpt lon="5.753887" lat="51.13768"><ele>15.6</ele><time>2022-05-08T09:48:08.000Z</time></trkpt><trkpt lon="5.753803" lat="51.137736"><ele>15.6</ele><time>2022-05-08T09:48:09.000Z</time></trkpt><trkpt lon="5.753721" lat="51.137789"><ele>15.8</ele><time>2022-05-08T09:48:10.000Z</time></trkpt><trkpt lon="5.753642" lat="51.137841"><ele>15.8</ele><time>2022-05-08T09:48:11.000Z</time></trkpt><trkpt lon="5.75356" lat="51.137895"><ele>15.8</ele><time>2022-05-08T09:48:12.000Z</time></trkpt><trkpt lon="5.753477" lat="51.137949"><ele>16</ele><time>2022-05-08T09:48:13.000Z</time></trkpt><trkpt lon="5.753397" lat="51.138004"><ele>16</ele><time>2022-05-08T09:48:14.000Z</time></trkpt><trkpt lon="5.753318" lat="51.138059"><ele>16</ele><time>2022-05-08T09:48:15.000Z</time></trkpt><trkpt lon="5.753241" lat="51.138112"><ele>16</ele><time>2022-05-08T09:48:16.000Z</time></trkpt><trkpt lon="5.753163" lat="51.138165"><ele>16</ele><time>2022-05-08T09:48:17.000Z</time></trkpt><trkpt lon="5.753082" lat="51.138221"><ele>16</ele><time>2022-05-08T09:48:18.000Z</time></trkpt><trkpt lon="5.753001" lat="51.138276"><ele>16</ele><time>2022-05-08T09:48:19.000Z</time></trkpt><trkpt lon="5.752922" lat="51.138328"><ele>16</ele><time>2022-05-08T09:48:20.000Z</time></trkpt><trkpt lon="5.752844" lat="51.138379"><ele>15.8</ele><time>2022-05-08T09:48:21.000Z</time></trkpt><trkpt lon="5.752765" lat="51.138433"><ele>15.8</ele><time>2022-05-08T09:48:22.000Z</time></trkpt><trkpt lon="5.752685" lat="51.138485"><ele>15.8</ele><time>2022-05-08T09:48:23.000Z</time></trkpt><trkpt lon="5.752607" lat="51.138537"><ele>15.8</ele><time>2022-05-08T09:48:24.000Z</time></trkpt><trkpt lon="5.752531" lat="51.13859"><ele>15.8</ele><time>2022-05-08T09:48:25.000Z</time></trkpt><trkpt lon="5.752454" lat="51.138641"><ele>15.8</ele><time>2022-05-08T09:48:26.000Z</time></trkpt><trkpt lon="5.752379" lat="51.13869"><ele>15.6</ele><time>2022-05-08T09:48:27.000Z</time></trkpt><trkpt lon="5.7523" lat="51.138744"><ele>15.4</ele><time>2022-05-08T09:48:28.000Z</time></trkpt><trkpt lon="5.75222" lat="51.138796"><ele>15.2</ele><time>2022-05-08T09:48:29.000Z</time></trkpt><trkpt lon="5.752141" lat="51.138848"><ele>15</ele><time>2022-05-08T09:48:30.000Z</time></trkpt><trkpt lon="5.752062" lat="51.138903"><ele>14.6</ele><time>2022-05-08T09:48:31.000Z</time></trkpt><trkpt lon="5.751984" lat="51.138954"><ele>14.6</ele><time>2022-05-08T09:48:32.000Z</time></trkpt><trkpt lon="5.751908" lat="51.139002"><ele>14.6</ele><time>2022-05-08T09:48:33.000Z</time></trkpt><trkpt lon="5.75183" lat="51.139054"><ele>14.6</ele><time>2022-05-08T09:48:34.000Z</time></trkpt><trkpt lon="5.75175" lat="51.139108"><ele>14.8</ele><time>2022-05-08T09:48:35.000Z</time></trkpt><trkpt lon="5.751673" lat="51.139161"><ele>14.8</ele><time>2022-05-08T09:48:36.000Z</time></trkpt><trkpt lon="5.751597" lat="51.139213"><ele>15</ele><time>2022-05-08T09:48:37.000Z</time></trkpt><trkpt lon="5.751516" lat="51.139268"><ele>15</ele><time>2022-05-08T09:48:38.000Z</time></trkpt><trkpt lon="5.751435" lat="51.139319"><ele>15</ele><time>2022-05-08T09:48:39.000Z</time></trkpt><trkpt lon="5.751355" lat="51.139371"><ele>15</ele><time>2022-05-08T09:48:40.000Z</time></trkpt><trkpt lon="5.751275" lat="51.139424"><ele>15</ele><time>2022-05-08T09:48:41.000Z</time></trkpt><trkpt lon="5.751195" lat="51.139478"><ele>14.8</ele><time>2022-05-08T09:48:42.000Z</time></trkpt><trkpt lon="5.751116" lat="51.139531"><ele>14.8</ele><time>2022-05-08T09:48:43.000Z</time></trkpt><trkpt lon="5.751038" lat="51.139584"><ele>14.6</ele><time>2022-05-08T09:48:44.000Z</time></trkpt><trkpt lon="5.750959" lat="51.139638"><ele>14.6</ele><time>2022-05-08T09:48:45.000Z</time></trkpt><trkpt lon="5.750881" lat="51.139689"><ele>14.6</ele><time>2022-05-08T09:48:46.000Z</time></trkpt><trkpt lon="5.750801" lat="51.13974"><ele>14.6</ele><time>2022-05-08T09:48:47.000Z</time></trkpt><trkpt lon="5.750721" lat="51.139794"><ele>14.6</ele><time>2022-05-08T09:48:48.000Z</time></trkpt><trkpt lon="5.750642" lat="51.139848"><ele>14.8</ele><time>2022-05-08T09:48:49.000Z</time></trkpt><trkpt lon="5.750561" lat="51.139902"><ele>14.8</ele><time>2022-05-08T09:48:50.000Z</time></trkpt><trkpt lon="5.750482" lat="51.139952"><ele>14.8</ele><time>2022-05-08T09:48:51.000Z</time></trkpt><trkpt lon="5.750401" lat="51.140007"><ele>14.6</ele><time>2022-05-08T09:48:52.000Z</time></trkpt><trkpt lon="5.750319" lat="51.140061"><ele>14.6</ele><time>2022-05-08T09:48:53.000Z</time></trkpt><trkpt lon="5.750239" lat="51.140113"><ele>14.6</ele><time>2022-05-08T09:48:54.000Z</time></trkpt><trkpt lon="5.750161" lat="51.140165"><ele>14.4</ele><time>2022-05-08T09:48:55.000Z</time></trkpt><trkpt lon="5.750082" lat="51.140218"><ele>14.4</ele><time>2022-05-08T09:48:56.000Z</time></trkpt><trkpt lon="5.750003" lat="51.140271"><ele>14.4</ele><time>2022-05-08T09:48:57.000Z</time></trkpt><trkpt lon="5.749924" lat="51.140324"><ele>14.4</ele><time>2022-05-08T09:48:58.000Z</time></trkpt><trkpt lon="5.749845" lat="51.140377"><ele>14.4</ele><time>2022-05-08T09:48:59.000Z</time></trkpt><trkpt lon="5.749764" lat="51.140431"><ele>14.2</ele><time>2022-05-08T09:49:00.000Z</time></trkpt><trkpt lon="5.749683" lat="51.140482"><ele>14.2</ele><time>2022-05-08T09:49:01.000Z</time></trkpt><trkpt lon="5.749602" lat="51.140535"><ele>14</ele><time>2022-05-08T09:49:02.000Z</time></trkpt><trkpt lon="5.749522" lat="51.140588"><ele>14</ele><time>2022-05-08T09:49:03.000Z</time></trkpt><trkpt lon="5.749437" lat="51.140637"><ele>14</ele><time>2022-05-08T09:49:04.000Z</time></trkpt><trkpt lon="5.74935" lat="51.140683"><ele>14.2</ele><time>2022-05-08T09:49:05.000Z</time></trkpt><trkpt lon="5.749265" lat="51.140732"><ele>14.2</ele><time>2022-05-08T09:49:06.000Z</time></trkpt><trkpt lon="5.749183" lat="51.140786"><ele>14.2</ele><time>2022-05-08T09:49:07.000Z</time></trkpt><trkpt lon="5.7491" lat="51.140841"><ele>14.2</ele><time>2022-05-08T09:49:08.000Z</time></trkpt><trkpt lon="5.749021" lat="51.140894"><ele>14.4</ele><time>2022-05-08T09:49:09.000Z</time></trkpt><trkpt lon="5.748943" lat="51.14095"><ele>14.8</ele><time>2022-05-08T09:49:10.000Z</time></trkpt><trkpt lon="5.748868" lat="51.141005"><ele>15</ele><time>2022-05-08T09:49:11.000Z</time></trkpt><trkpt lon="5.748789" lat="51.141061"><ele>15.2</ele><time>2022-05-08T09:49:12.000Z</time></trkpt><trkpt lon="5.748704" lat="51.141115"><ele>15.2</ele><time>2022-05-08T09:49:13.000Z</time></trkpt><trkpt lon="5.748623" lat="51.141168"><ele>15.2</ele><time>2022-05-08T09:49:14.000Z</time></trkpt><trkpt lon="5.748543" lat="51.141221"><ele>15.4</ele><time>2022-05-08T09:49:15.000Z</time></trkpt><trkpt lon="5.748462" lat="51.141275"><ele>15.6</ele><time>2022-05-08T09:49:16.000Z</time></trkpt><trkpt lon="5.748382" lat="51.141328"><ele>15.6</ele><time>2022-05-08T09:49:17.000Z</time></trkpt><trkpt lon="5.748301" lat="51.14138"><ele>15.8</ele><time>2022-05-08T09:49:18.000Z</time></trkpt><trkpt lon="5.748223" lat="51.14143"><ele>16</ele><time>2022-05-08T09:49:19.000Z</time></trkpt><trkpt lon="5.748142" lat="51.141484"><ele>16</ele><time>2022-05-08T09:49:20.000Z</time></trkpt><trkpt lon="5.74806" lat="51.141539"><ele>16</ele><time>2022-05-08T09:49:21.000Z</time></trkpt><trkpt lon="5.747981" lat="51.14159"><ele>16</ele><time>2022-05-08T09:49:22.000Z</time></trkpt><trkpt lon="5.747902" lat="51.141642"><ele>15.8</ele><time>2022-05-08T09:49:23.000Z</time></trkpt><trkpt lon="5.747823" lat="51.141695"><ele>15.8</ele><time>2022-05-08T09:49:24.000Z</time></trkpt><trkpt lon="5.747744" lat="51.141748"><ele>15.8</ele><time>2022-05-08T09:49:25.000Z</time></trkpt><trkpt lon="5.747664" lat="51.1418"><ele>15.8</ele><time>2022-05-08T09:49:26.000Z</time></trkpt><trkpt lon="5.747587" lat="51.141851"><ele>15.8</ele><time>2022-05-08T09:49:27.000Z</time></trkpt><trkpt lon="5.747509" lat="51.141901"><ele>15.8</ele><time>2022-05-08T09:49:28.000Z</time></trkpt><trkpt lon="5.74743" lat="51.141954"><ele>15.6</ele><time>2022-05-08T09:49:29.000Z</time></trkpt><trkpt lon="5.747355" lat="51.142005"><ele>15.6</ele><time>2022-05-08T09:49:30.000Z</time></trkpt><trkpt lon="5.747281" lat="51.142055"><ele>15.6</ele><time>2022-05-08T09:49:31.000Z</time></trkpt><trkpt lon="5.747209" lat="51.142104"><ele>15.8</ele><time>2022-05-08T09:49:32.000Z</time></trkpt><trkpt lon="5.747137" lat="51.142153"><ele>15.8</ele><time>2022-05-08T09:49:33.000Z</time></trkpt><trkpt lon="5.747062" lat="51.142203"><ele>15.8</ele><time>2022-05-08T09:49:34.000Z</time></trkpt><trkpt lon="5.746987" lat="51.142252"><ele>15.6</ele><time>2022-05-08T09:49:35.000Z</time></trkpt><trkpt lon="5.746913" lat="51.142303"><ele>15.4</ele><time>2022-05-08T09:49:36.000Z</time></trkpt><trkpt lon="5.746841" lat="51.142354"><ele>15.2</ele><time>2022-05-08T09:49:37.000Z</time></trkpt><trkpt lon="5.746764" lat="51.142403"><ele>15</ele><time>2022-05-08T09:49:38.000Z</time></trkpt><trkpt lon="5.746686" lat="51.142454"><ele>15</ele><time>2022-05-08T09:49:39.000Z</time></trkpt><trkpt lon="5.746613" lat="51.142503"><ele>15.2</ele><time>2022-05-08T09:49:40.000Z</time></trkpt><trkpt lon="5.746541" lat="51.142551"><ele>15.2</ele><time>2022-05-08T09:49:41.000Z</time></trkpt><trkpt lon="5.746469" lat="51.142599"><ele>15.2</ele><time>2022-05-08T09:49:42.000Z</time></trkpt><trkpt lon="5.746396" lat="51.14265"><ele>15.4</ele><time>2022-05-08T09:49:43.000Z</time></trkpt><trkpt lon="5.746325" lat="51.142699"><ele>15.2</ele><time>2022-05-08T09:49:44.000Z</time></trkpt><trkpt lon="5.746254" lat="51.142746"><ele>15.2</ele><time>2022-05-08T09:49:45.000Z</time></trkpt><trkpt lon="5.746183" lat="51.142794"><ele>15.4</ele><time>2022-05-08T09:49:46.000Z</time></trkpt><trkpt lon="5.746113" lat="51.142841"><ele>15.6</ele><time>2022-05-08T09:49:47.000Z</time></trkpt><trkpt lon="5.746043" lat="51.142888"><ele>15.6</ele><time>2022-05-08T09:49:48.000Z</time></trkpt><trkpt lon="5.745971" lat="51.142937"><ele>15.6</ele><time>2022-05-08T09:49:49.000Z</time></trkpt><trkpt lon="5.745901" lat="51.142985"><ele>15.6</ele><time>2022-05-08T09:49:50.000Z</time></trkpt><trkpt lon="5.745831" lat="51.143032"><ele>15.6</ele><time>2022-05-08T09:49:51.000Z</time></trkpt><trkpt lon="5.745766" lat="51.143076"><ele>15.4</ele><time>2022-05-08T09:49:52.000Z</time></trkpt><trkpt lon="5.745696" lat="51.143123"><ele>15.4</ele><time>2022-05-08T09:49:53.000Z</time></trkpt><trkpt lon="5.745622" lat="51.143173"><ele>15.2</ele><time>2022-05-08T09:49:54.000Z</time></trkpt><trkpt lon="5.745554" lat="51.14322"><ele>15</ele><time>2022-05-08T09:49:55.000Z</time></trkpt><trkpt lon="5.745486" lat="51.143266"><ele>15.2</ele><time>2022-05-08T09:49:56.000Z</time></trkpt><trkpt lon="5.745419" lat="51.14331"><ele>15.2</ele><time>2022-05-08T09:49:57.000Z</time></trkpt><trkpt lon="5.745347" lat="51.143356"><ele>15.4</ele><time>2022-05-08T09:49:58.000Z</time></trkpt><trkpt lon="5.745274" lat="51.143406"><ele>15.4</ele><time>2022-05-08T09:49:59.000Z</time></trkpt><trkpt lon="5.745203" lat="51.143455"><ele>15.6</ele><time>2022-05-08T09:50:00.000Z</time></trkpt><trkpt lon="5.745133" lat="51.143502"><ele>15.8</ele><time>2022-05-08T09:50:01.000Z</time></trkpt><trkpt lon="5.745063" lat="51.143547"><ele>16</ele><time>2022-05-08T09:50:02.000Z</time></trkpt><trkpt lon="5.744993" lat="51.143591"><ele>16.2</ele><time>2022-05-08T09:50:03.000Z</time></trkpt><trkpt lon="5.744924" lat="51.143637"><ele>16.4</ele><time>2022-05-08T09:50:04.000Z</time></trkpt><trkpt lon="5.744857" lat="51.143683"><ele>16.4</ele><time>2022-05-08T09:50:05.000Z</time></trkpt><trkpt lon="5.744794" lat="51.143725"><ele>16.4</ele><time>2022-05-08T09:50:06.000Z</time></trkpt><trkpt lon="5.744733" lat="51.143764"><ele>16.4</ele><time>2022-05-08T09:50:07.000Z</time></trkpt><trkpt lon="5.744671" lat="51.143805"><ele>16.4</ele><time>2022-05-08T09:50:08.000Z</time></trkpt><trkpt lon="5.744609" lat="51.143848"><ele>16.4</ele><time>2022-05-08T09:50:09.000Z</time></trkpt><trkpt lon="5.744548" lat="51.14389"><ele>16.4</ele><time>2022-05-08T09:50:10.000Z</time></trkpt><trkpt lon="5.744484" lat="51.143933"><ele>16.4</ele><time>2022-05-08T09:50:11.000Z</time></trkpt><trkpt lon="5.744418" lat="51.143976"><ele>16.4</ele><time>2022-05-08T09:50:12.000Z</time></trkpt><trkpt lon="5.744351" lat="51.144018"><ele>16.4</ele><time>2022-05-08T09:50:13.000Z</time></trkpt><trkpt lon="5.744282" lat="51.144064"><ele>16.6</ele><time>2022-05-08T09:50:14.000Z</time></trkpt><trkpt lon="5.744211" lat="51.144111"><ele>16.6</ele><time>2022-05-08T09:50:15.000Z</time></trkpt><trkpt lon="5.744141" lat="51.144157"><ele>16.4</ele><time>2022-05-08T09:50:16.000Z</time></trkpt><trkpt lon="5.744074" lat="51.144205"><ele>16.2</ele><time>2022-05-08T09:50:17.000Z</time></trkpt><trkpt lon="5.744009" lat="51.14425"><ele>16.2</ele><time>2022-05-08T09:50:18.000Z</time></trkpt><trkpt lon="5.743944" lat="51.144292"><ele>16</ele><time>2022-05-08T09:50:19.000Z</time></trkpt><trkpt lon="5.743877" lat="51.144336"><ele>16.2</ele><time>2022-05-08T09:50:20.000Z</time></trkpt><trkpt lon="5.743807" lat="51.144382"><ele>16.2</ele><time>2022-05-08T09:50:21.000Z</time></trkpt><trkpt lon="5.743738" lat="51.144427"><ele>16.4</ele><time>2022-05-08T09:50:22.000Z</time></trkpt><trkpt lon="5.743668" lat="51.144471"><ele>16.4</ele><time>2022-05-08T09:50:23.000Z</time></trkpt><trkpt lon="5.743597" lat="51.144516"><ele>16.6</ele><time>2022-05-08T09:50:24.000Z</time></trkpt><trkpt lon="5.743526" lat="51.144562"><ele>16.6</ele><time>2022-05-08T09:50:25.000Z</time></trkpt><trkpt lon="5.743457" lat="51.144607"><ele>16.6</ele><time>2022-05-08T09:50:26.000Z</time></trkpt><trkpt lon="5.743389" lat="51.14465"><ele>16.8</ele><time>2022-05-08T09:50:27.000Z</time></trkpt><trkpt lon="5.743319" lat="51.144697"><ele>16.8</ele><time>2022-05-08T09:50:28.000Z</time></trkpt><trkpt lon="5.743248" lat="51.144744"><ele>16.6</ele><time>2022-05-08T09:50:29.000Z</time></trkpt><trkpt lon="5.743173" lat="51.144792"><ele>16.6</ele><time>2022-05-08T09:50:30.000Z</time></trkpt><trkpt lon="5.743094" lat="51.144842"><ele>16.8</ele><time>2022-05-08T09:50:31.000Z</time></trkpt><trkpt lon="5.74301" lat="51.144893"><ele>16.6</ele><time>2022-05-08T09:50:32.000Z</time></trkpt><trkpt lon="5.742923" lat="51.144946"><ele>16.4</ele><time>2022-05-08T09:50:33.000Z</time></trkpt><trkpt lon="5.742832" lat="51.144998"><ele>16.6</ele><time>2022-05-08T09:50:34.000Z</time></trkpt><trkpt lon="5.742742" lat="51.145048"><ele>16.4</ele><time>2022-05-08T09:50:35.000Z</time></trkpt><trkpt lon="5.742655" lat="51.145097"><ele>16.2</ele><time>2022-05-08T09:50:36.000Z</time></trkpt><trkpt lon="5.742568" lat="51.145149"><ele>16.2</ele><time>2022-05-08T09:50:37.000Z</time></trkpt><trkpt lon="5.742482" lat="51.145201"><ele>16.2</ele><time>2022-05-08T09:50:38.000Z</time></trkpt><trkpt lon="5.7424" lat="51.145253"><ele>16.2</ele><time>2022-05-08T09:50:39.000Z</time></trkpt><trkpt lon="5.742321" lat="51.145304"><ele>16.4</ele><time>2022-05-08T09:50:40.000Z</time></trkpt><trkpt lon="5.742248" lat="51.145349"><ele>16.4</ele><time>2022-05-08T09:50:41.000Z</time></trkpt><trkpt lon="5.742185" lat="51.145393"><ele>16.6</ele><time>2022-05-08T09:50:42.000Z</time></trkpt><trkpt lon="5.742133" lat="51.145437"><ele>16.6</ele><time>2022-05-08T09:50:43.000Z</time></trkpt><trkpt lon="5.742103" lat="51.145476"><ele>16.6</ele><time>2022-05-08T09:50:44.000Z</time></trkpt><trkpt lon="5.7421" lat="51.145512"><ele>16.6</ele><time>2022-05-08T09:50:45.000Z</time></trkpt><trkpt lon="5.742112" lat="51.14554"><ele>16.6</ele><time>2022-05-08T09:50:46.000Z</time></trkpt><trkpt lon="5.742125" lat="51.145563"><ele>16.6</ele><time>2022-05-08T09:50:47.000Z</time></trkpt><trkpt lon="5.742135" lat="51.145583"><ele>16.6</ele><time>2022-05-08T09:50:48.000Z</time></trkpt><trkpt lon="5.742142" lat="51.145598"><ele>16.8</ele><time>2022-05-08T09:50:49.000Z</time></trkpt><trkpt lon="5.742145" lat="51.145612"><ele>16.8</ele><time>2022-05-08T09:50:50.000Z</time></trkpt><trkpt lon="5.742136" lat="51.145625"><ele>17</ele><time>2022-05-08T09:50:51.000Z</time></trkpt><trkpt lon="5.742107" lat="51.145636"><ele>17.2</ele><time>2022-05-08T09:50:52.000Z</time></trkpt><trkpt lon="5.742062" lat="51.145648"><ele>17.4</ele><time>2022-05-08T09:50:53.000Z</time></trkpt><trkpt lon="5.742013" lat="51.145666"><ele>17.4</ele><time>2022-05-08T09:50:54.000Z</time></trkpt><trkpt lon="5.741972" lat="51.145696"><ele>17.6</ele><time>2022-05-08T09:50:55.000Z</time></trkpt><trkpt lon="5.741943" lat="51.145737"><ele>17.6</ele><time>2022-05-08T09:50:56.000Z</time></trkpt><trkpt lon="5.741926" lat="51.145789"><ele>17.6</ele><time>2022-05-08T09:50:57.000Z</time></trkpt><trkpt lon="5.741916" lat="51.14585"><ele>17.4</ele><time>2022-05-08T09:50:58.000Z</time></trkpt><trkpt lon="5.74191" lat="51.145914"><ele>17.4</ele><time>2022-05-08T09:50:59.000Z</time></trkpt><trkpt lon="5.741907" lat="51.145982"><ele>17.4</ele><time>2022-05-08T09:51:00.000Z</time></trkpt><trkpt lon="5.741905" lat="51.146051"><ele>17.2</ele><time>2022-05-08T09:51:01.000Z</time></trkpt><trkpt lon="5.741901" lat="51.146119"><ele>17</ele><time>2022-05-08T09:51:02.000Z</time></trkpt><trkpt lon="5.741897" lat="51.146192"><ele>17</ele><time>2022-05-08T09:51:03.000Z</time></trkpt><trkpt lon="5.741898" lat="51.146266"><ele>17</ele><time>2022-05-08T09:51:04.000Z</time></trkpt><trkpt lon="5.741899" lat="51.146343"><ele>17</ele><time>2022-05-08T09:51:05.000Z</time></trkpt><trkpt lon="5.741904" lat="51.146421"><ele>16.8</ele><time>2022-05-08T09:51:06.000Z</time></trkpt><trkpt lon="5.741909" lat="51.1465"><ele>16.8</ele><time>2022-05-08T09:51:07.000Z</time></trkpt><trkpt lon="5.741912" lat="51.146579"><ele>16.8</ele><time>2022-05-08T09:51:08.000Z</time></trkpt><trkpt lon="5.741914" lat="51.14666"><ele>16.8</ele><time>2022-05-08T09:51:09.000Z</time></trkpt><trkpt lon="5.741916" lat="51.146742"><ele>16.6</ele><time>2022-05-08T09:51:10.000Z</time></trkpt><trkpt lon="5.741919" lat="51.146824"><ele>16.4</ele><time>2022-05-08T09:51:11.000Z</time></trkpt><trkpt lon="5.741922" lat="51.146904"><ele>16.2</ele><time>2022-05-08T09:51:12.000Z</time></trkpt><trkpt lon="5.741925" lat="51.146981"><ele>16</ele><time>2022-05-08T09:51:13.000Z</time></trkpt><trkpt lon="5.741929" lat="51.147058"><ele>16</ele><time>2022-05-08T09:51:14.000Z</time></trkpt><trkpt lon="5.741933" lat="51.147134"><ele>16</ele><time>2022-05-08T09:51:15.000Z</time></trkpt><trkpt lon="5.741936" lat="51.147211"><ele>16</ele><time>2022-05-08T09:51:16.000Z</time></trkpt><trkpt lon="5.741939" lat="51.147285"><ele>16.2</ele><time>2022-05-08T09:51:17.000Z</time></trkpt><trkpt lon="5.741941" lat="51.14736"><ele>16.4</ele><time>2022-05-08T09:51:18.000Z</time></trkpt><trkpt lon="5.741941" lat="51.147434"><ele>16.6</ele><time>2022-05-08T09:51:19.000Z</time></trkpt><trkpt lon="5.741943" lat="51.147506"><ele>16.6</ele><time>2022-05-08T09:51:20.000Z</time></trkpt><trkpt lon="5.741943" lat="51.147574"><ele>17.2</ele><time>2022-05-08T09:51:21.000Z</time></trkpt><trkpt lon="5.741944" lat="51.147637"><ele>17.4</ele><time>2022-05-08T09:51:22.000Z</time></trkpt><trkpt lon="5.741947" lat="51.147702"><ele>17.6</ele><time>2022-05-08T09:51:23.000Z</time></trkpt><trkpt lon="5.741949" lat="51.147766"><ele>17.8</ele><time>2022-05-08T09:51:24.000Z</time></trkpt><trkpt lon="5.741952" lat="51.147827"><ele>18</ele><time>2022-05-08T09:51:25.000Z</time></trkpt></trkseg></trk></gpx>